<?xml version="1.0" encoding="UTF-8" standalone="no" ?>
<gpx xmlns="http://www.topografix.com/GPX/1/1" xmlns:xsi="http://www.w3.org/2001/XMLSchema-instance" xsi:schemaLocation="http://www.topografix.com/GPX/1/1 http://www.topografix.com/GPX/1/1/gpx.xsd" version="1.1" creator="VisuGPX - https://www.visugpx.com">
  <metadata>
    <name>vers saint maurice</name>
    <desc><![CDATA[vers saint mautice]]></desc>
  </metadata>
  <wpt lat="47.49531" lon="6.75714">
    <ele>325</ele>
    <name><![CDATA[Point de cheminement 1]]></name>
    <desc><![CDATA[]]></desc>
  </wpt>
  <wpt lat="47.47727" lon="6.74746">
    <ele>309</ele>
    <name><![CDATA[Point de cheminement 2]]></name>
    <desc><![CDATA[]]></desc>
  </wpt>
  <wpt lat="47.4632" lon="6.73705">
    <ele>420</ele>
    <name><![CDATA[Point de cheminement 3]]></name>
    <desc><![CDATA[]]></desc>
  </wpt>
  <wpt lat="47.45765" lon="6.71629">
    <ele>423</ele>
    <name><![CDATA[Point de cheminement 4]]></name>
    <desc><![CDATA[]]></desc>
  </wpt>
  <wpt lat="47.45244" lon="6.69262">
    <ele>310</ele>
    <name><![CDATA[Point de cheminement 5]]></name>
    <desc><![CDATA[]]></desc>
  </wpt>
  <wpt lat="47.44436" lon="6.66102">
    <ele>318</ele>
    <name><![CDATA[Point de cheminement 6]]></name>
    <desc><![CDATA[]]></desc>
  </wpt>
  <wpt lat="47.43096" lon="6.63986">
    <ele>327</ele>
    <name><![CDATA[Point de cheminement 7]]></name>
    <desc><![CDATA[]]></desc>
  </wpt>
  <wpt lat="47.42166" lon="6.62942">
    <ele>349</ele>
    <name><![CDATA[Point de cheminement 8]]></name>
    <desc><![CDATA[]]></desc>
  </wpt>
  <wpt lat="47.42685" lon="6.64518">
    <ele>408</ele>
    <name><![CDATA[Point de cheminement 9]]></name>
    <desc><![CDATA[]]></desc>
  </wpt>
  <wpt lat="47.43806" lon="6.65139">
    <ele>335</ele>
    <name><![CDATA[Point de cheminement 10]]></name>
    <desc><![CDATA[]]></desc>
  </wpt>
  <wpt lat="47.45828" lon="6.69198">
    <ele>303</ele>
    <name><![CDATA[Point de cheminement 11]]></name>
    <desc><![CDATA[]]></desc>
  </wpt>
  <wpt lat="47.47063" lon="6.71478">
    <ele>314</ele>
    <name><![CDATA[Point de cheminement 12]]></name>
    <desc><![CDATA[]]></desc>
  </wpt>
  <wpt lat="47.48852" lon="6.77293">
    <ele>310</ele>
    <name><![CDATA[Point de cheminement 13]]></name>
    <desc><![CDATA[]]></desc>
  </wpt>
  <wpt lat="47.51189" lon="6.77794">
    <ele>326</ele>
    <name><![CDATA[Point de cheminement 14]]></name>
    <desc><![CDATA[]]></desc>
  </wpt>
  <trk>
    <name><![CDATA[Rue Antoine Coysevox]]></name>
    <desc><![CDATA[]]></desc>
    <trkseg>
      <trkpt lat="47.51787" lon="6.77505">
        <ele>389</ele>
        <time>2016-07-24T06:46:49.488Z</time>
      </trkpt>
      <trkpt lat="47.51795" lon="6.77496">
        <ele>388</ele>
        <time>2016-07-24T06:46:50.451Z</time>
      </trkpt>
      <trkpt lat="47.51787" lon="6.77503">
        <ele>389</ele>
        <time>2016-07-24T06:46:51.435Z</time>
      </trkpt>
      <trkpt lat="47.51788" lon="6.77501">
        <ele>389</ele>
        <time>2016-07-24T06:46:52.434Z</time>
      </trkpt>
      <trkpt lat="47.51795" lon="6.77493">
        <ele>388</ele>
        <time>2016-07-24T06:46:53.434Z</time>
      </trkpt>
      <trkpt lat="47.51806" lon="6.77495">
        <ele>388</ele>
        <time>2016-07-24T06:46:54.422Z</time>
      </trkpt>
      <trkpt lat="47.51808" lon="6.77498">
        <ele>388</ele>
        <time>2016-07-24T06:46:55.412Z</time>
      </trkpt>
      <trkpt lat="47.51801" lon="6.77506">
        <ele>389</ele>
        <time>2016-07-24T06:46:56.413Z</time>
      </trkpt>
      <trkpt lat="47.51806" lon="6.77502">
        <ele>389</ele>
        <time>2016-07-24T06:46:57.433Z</time>
      </trkpt>
      <trkpt lat="47.51801" lon="6.77501">
        <ele>389</ele>
        <time>2016-07-24T06:46:59.433Z</time>
      </trkpt>
      <trkpt lat="47.51798" lon="6.77488">
        <ele>388</ele>
        <time>2016-07-24T06:47:00.441Z</time>
      </trkpt>
      <trkpt lat="47.5184" lon="6.77416">
        <ele>386</ele>
        <time>2016-07-24T06:47:05.448Z</time>
      </trkpt>
      <trkpt lat="47.51811" lon="6.77474">
        <ele>388</ele>
        <time>2016-07-24T06:48:26.449Z</time>
      </trkpt>
      <trkpt lat="47.51801" lon="6.77489">
        <ele>388</ele>
        <time>2016-07-24T06:48:27.000Z</time>
      </trkpt>
      <trkpt lat="47.51804" lon="6.77487">
        <ele>388</ele>
        <time>2016-07-24T06:48:38.000Z</time>
      </trkpt>
      <trkpt lat="47.51805" lon="6.77486">
        <ele>388</ele>
        <time>2016-07-24T06:48:39.000Z</time>
      </trkpt>
      <trkpt lat="47.51808" lon="6.77481">
        <ele>388</ele>
        <time>2016-07-24T06:49:00.000Z</time>
      </trkpt>
      <trkpt lat="47.51809" lon="6.77479">
        <ele>388</ele>
        <time>2016-07-24T06:49:01.000Z</time>
      </trkpt>
      <trkpt lat="47.51811" lon="6.77484">
        <ele>388</ele>
        <time>2016-07-24T06:50:21.000Z</time>
      </trkpt>
      <trkpt lat="47.51811" lon="6.77487">
        <ele>388</ele>
        <time>2016-07-24T06:50:22.000Z</time>
      </trkpt>
      <trkpt lat="47.51809" lon="6.77493">
        <ele>388</ele>
        <time>2016-07-24T06:50:24.000Z</time>
      </trkpt>
      <trkpt lat="47.51807" lon="6.77495">
        <ele>388</ele>
        <time>2016-07-24T06:50:25.000Z</time>
      </trkpt>
      <trkpt lat="47.51804" lon="6.77497">
        <ele>388</ele>
        <time>2016-07-24T06:50:26.000Z</time>
      </trkpt>
      <trkpt lat="47.51801" lon="6.77497">
        <ele>388</ele>
        <time>2016-07-24T06:50:27.000Z</time>
      </trkpt>
      <trkpt lat="47.51797" lon="6.77497">
        <ele>388</ele>
        <time>2016-07-24T06:50:28.000Z</time>
      </trkpt>
      <trkpt lat="47.51794" lon="6.77496">
        <ele>388</ele>
        <time>2016-07-24T06:50:29.000Z</time>
      </trkpt>
      <trkpt lat="47.51791" lon="6.77494">
        <ele>388</ele>
        <time>2016-07-24T06:50:30.000Z</time>
      </trkpt>
      <trkpt lat="47.51788" lon="6.77493">
        <ele>388</ele>
        <time>2016-07-24T06:50:31.000Z</time>
      </trkpt>
      <trkpt lat="47.51785" lon="6.77491">
        <ele>388</ele>
        <time>2016-07-24T06:50:32.000Z</time>
      </trkpt>
      <trkpt lat="47.51782" lon="6.77489">
        <ele>388</ele>
        <time>2016-07-24T06:50:33.000Z</time>
      </trkpt>
      <trkpt lat="47.51779" lon="6.77488">
        <ele>388</ele>
        <time>2016-07-24T06:50:34.000Z</time>
      </trkpt>
      <trkpt lat="47.51775" lon="6.77486">
        <ele>388</ele>
        <time>2016-07-24T06:50:35.000Z</time>
      </trkpt>
      <trkpt lat="47.51771" lon="6.77485">
        <ele>389</ele>
        <time>2016-07-24T06:50:36.000Z</time>
      </trkpt>
      <trkpt lat="47.51768" lon="6.77484">
        <ele>389</ele>
        <time>2016-07-24T06:50:37.000Z</time>
      </trkpt>
      <trkpt lat="47.51764" lon="6.77484">
        <ele>389</ele>
        <time>2016-07-24T06:50:38.000Z</time>
      </trkpt>
      <trkpt lat="47.51761" lon="6.77483">
        <ele>389</ele>
        <time>2016-07-24T06:50:39.000Z</time>
      </trkpt>
      <trkpt lat="47.51757" lon="6.77483">
        <ele>389</ele>
        <time>2016-07-24T06:50:40.000Z</time>
      </trkpt>
      <trkpt lat="47.51753" lon="6.77482">
        <ele>389</ele>
        <time>2016-07-24T06:50:41.000Z</time>
      </trkpt>
      <trkpt lat="47.51749" lon="6.77482">
        <ele>389</ele>
        <time>2016-07-24T06:50:42.000Z</time>
      </trkpt>
      <trkpt lat="47.51744" lon="6.77481">
        <ele>389</ele>
        <time>2016-07-24T06:50:43.000Z</time>
      </trkpt>
      <trkpt lat="47.5174" lon="6.7748">
        <ele>389</ele>
        <time>2016-07-24T06:50:44.000Z</time>
      </trkpt>
      <trkpt lat="47.51736" lon="6.77481">
        <ele>389</ele>
        <time>2016-07-24T06:50:45.000Z</time>
      </trkpt>
      <trkpt lat="47.51732" lon="6.77483">
        <ele>389</ele>
        <time>2016-07-24T06:50:46.000Z</time>
      </trkpt>
      <trkpt lat="47.51729" lon="6.77487">
        <ele>389</ele>
        <time>2016-07-24T06:50:47.000Z</time>
      </trkpt>
      <trkpt lat="47.51727" lon="6.77493">
        <ele>389</ele>
        <time>2016-07-24T06:50:48.000Z</time>
      </trkpt>
      <trkpt lat="47.51725" lon="6.77499">
        <ele>389</ele>
        <time>2016-07-24T06:50:49.000Z</time>
      </trkpt>
      <trkpt lat="47.51724" lon="6.77506">
        <ele>390</ele>
        <time>2016-07-24T06:50:50.000Z</time>
      </trkpt>
      <trkpt lat="47.51723" lon="6.77513">
        <ele>390</ele>
        <time>2016-07-24T06:50:51.000Z</time>
      </trkpt>
      <trkpt lat="47.51722" lon="6.7752">
        <ele>390</ele>
        <time>2016-07-24T06:50:52.000Z</time>
      </trkpt>
      <trkpt lat="47.5172" lon="6.77526">
        <ele>390</ele>
        <time>2016-07-24T06:50:53.000Z</time>
      </trkpt>
      <trkpt lat="47.51718" lon="6.77532">
        <ele>390</ele>
        <time>2016-07-24T06:50:54.000Z</time>
      </trkpt>
      <trkpt lat="47.51717" lon="6.77538">
        <ele>390</ele>
        <time>2016-07-24T06:50:55.000Z</time>
      </trkpt>
      <trkpt lat="47.51715" lon="6.77544">
        <ele>390</ele>
        <time>2016-07-24T06:50:56.000Z</time>
      </trkpt>
      <trkpt lat="47.51714" lon="6.77549">
        <ele>390</ele>
        <time>2016-07-24T06:50:57.000Z</time>
      </trkpt>
      <trkpt lat="47.51712" lon="6.77553">
        <ele>390</ele>
        <time>2016-07-24T06:50:58.000Z</time>
      </trkpt>
      <trkpt lat="47.51709" lon="6.77556">
        <ele>390</ele>
        <time>2016-07-24T06:50:59.000Z</time>
      </trkpt>
      <trkpt lat="47.51705" lon="6.77556">
        <ele>390</ele>
        <time>2016-07-24T06:51:00.000Z</time>
      </trkpt>
      <trkpt lat="47.51697" lon="6.77545">
        <ele>390</ele>
        <time>2016-07-24T06:51:01.000Z</time>
      </trkpt>
      <trkpt lat="47.51694" lon="6.77541">
        <ele>390</ele>
        <time>2016-07-24T06:51:02.000Z</time>
      </trkpt>
      <trkpt lat="47.5169" lon="6.77537">
        <ele>390</ele>
        <time>2016-07-24T06:51:03.000Z</time>
      </trkpt>
      <trkpt lat="47.51686" lon="6.77533">
        <ele>390</ele>
        <time>2016-07-24T06:51:04.000Z</time>
      </trkpt>
      <trkpt lat="47.51682" lon="6.77528">
        <ele>390</ele>
        <time>2016-07-24T06:51:05.000Z</time>
      </trkpt>
      <trkpt lat="47.51677" lon="6.77522">
        <ele>390</ele>
        <time>2016-07-24T06:51:06.000Z</time>
      </trkpt>
      <trkpt lat="47.51673" lon="6.77517">
        <ele>389</ele>
        <time>2016-07-24T06:51:06.999Z</time>
      </trkpt>
      <trkpt lat="47.51668" lon="6.77512">
        <ele>389</ele>
        <time>2016-07-24T06:51:08.000Z</time>
      </trkpt>
      <trkpt lat="47.51663" lon="6.77506">
        <ele>389</ele>
        <time>2016-07-24T06:51:09.000Z</time>
      </trkpt>
      <trkpt lat="47.51658" lon="6.775">
        <ele>388</ele>
        <time>2016-07-24T06:51:10.000Z</time>
      </trkpt>
      <trkpt lat="47.51653" lon="6.77494">
        <ele>388</ele>
        <time>2016-07-24T06:51:11.000Z</time>
      </trkpt>
      <trkpt lat="47.51648" lon="6.77488">
        <ele>387</ele>
        <time>2016-07-24T06:51:12.000Z</time>
      </trkpt>
      <trkpt lat="47.51643" lon="6.77483">
        <ele>387</ele>
        <time>2016-07-24T06:51:13.000Z</time>
      </trkpt>
      <trkpt lat="47.51638" lon="6.77477">
        <ele>386</ele>
        <time>2016-07-24T06:51:14.000Z</time>
      </trkpt>
      <trkpt lat="47.51632" lon="6.77471">
        <ele>386</ele>
        <time>2016-07-24T06:51:15.000Z</time>
      </trkpt>
      <trkpt lat="47.51627" lon="6.77465">
        <ele>386</ele>
        <time>2016-07-24T06:51:16.000Z</time>
      </trkpt>
      <trkpt lat="47.51622" lon="6.77459">
        <ele>386</ele>
        <time>2016-07-24T06:51:17.000Z</time>
      </trkpt>
      <trkpt lat="47.51617" lon="6.77452">
        <ele>385</ele>
        <time>2016-07-24T06:51:18.000Z</time>
      </trkpt>
      <trkpt lat="47.51612" lon="6.77445">
        <ele>385</ele>
        <time>2016-07-24T06:51:19.000Z</time>
      </trkpt>
      <trkpt lat="47.51606" lon="6.77439">
        <ele>385</ele>
        <time>2016-07-24T06:51:20.000Z</time>
      </trkpt>
      <trkpt lat="47.51599" lon="6.77432">
        <ele>385</ele>
        <time>2016-07-24T06:51:21.000Z</time>
      </trkpt>
      <trkpt lat="47.51593" lon="6.77426">
        <ele>384</ele>
        <time>2016-07-24T06:51:22.000Z</time>
      </trkpt>
      <trkpt lat="47.51588" lon="6.7742">
        <ele>384</ele>
        <time>2016-07-24T06:51:23.000Z</time>
      </trkpt>
      <trkpt lat="47.51581" lon="6.77413">
        <ele>383</ele>
        <time>2016-07-24T06:51:24.000Z</time>
      </trkpt>
      <trkpt lat="47.51575" lon="6.77406">
        <ele>382</ele>
        <time>2016-07-24T06:51:25.000Z</time>
      </trkpt>
      <trkpt lat="47.51569" lon="6.774">
        <ele>382</ele>
        <time>2016-07-24T06:51:26.000Z</time>
      </trkpt>
      <trkpt lat="47.51563" lon="6.77393">
        <ele>381</ele>
        <time>2016-07-24T06:51:27.000Z</time>
      </trkpt>
      <trkpt lat="47.51557" lon="6.77386">
        <ele>381</ele>
        <time>2016-07-24T06:51:28.000Z</time>
      </trkpt>
      <trkpt lat="47.51551" lon="6.77379">
        <ele>381</ele>
        <time>2016-07-24T06:51:29.000Z</time>
      </trkpt>
      <trkpt lat="47.51545" lon="6.7737">
        <ele>381</ele>
        <time>2016-07-24T06:51:30.000Z</time>
      </trkpt>
      <trkpt lat="47.51538" lon="6.77362">
        <ele>380</ele>
        <time>2016-07-24T06:51:31.000Z</time>
      </trkpt>
      <trkpt lat="47.51532" lon="6.77354">
        <ele>380</ele>
        <time>2016-07-24T06:51:32.000Z</time>
      </trkpt>
      <trkpt lat="47.51525" lon="6.77346">
        <ele>380</ele>
        <time>2016-07-24T06:51:33.000Z</time>
      </trkpt>
      <trkpt lat="47.51518" lon="6.77339">
        <ele>379</ele>
        <time>2016-07-24T06:51:34.000Z</time>
      </trkpt>
      <trkpt lat="47.51511" lon="6.77331">
        <ele>378</ele>
        <time>2016-07-24T06:51:35.000Z</time>
      </trkpt>
      <trkpt lat="47.51504" lon="6.77323">
        <ele>378</ele>
        <time>2016-07-24T06:51:36.000Z</time>
      </trkpt>
      <trkpt lat="47.51497" lon="6.77314">
        <ele>377</ele>
        <time>2016-07-24T06:51:37.000Z</time>
      </trkpt>
      <trkpt lat="47.51492" lon="6.77305">
        <ele>377</ele>
        <time>2016-07-24T06:51:38.000Z</time>
      </trkpt>
      <trkpt lat="47.51488" lon="6.77294">
        <ele>377</ele>
        <time>2016-07-24T06:51:39.000Z</time>
      </trkpt>
      <trkpt lat="47.51486" lon="6.77282">
        <ele>377</ele>
        <time>2016-07-24T06:51:40.000Z</time>
      </trkpt>
      <trkpt lat="47.51483" lon="6.77273">
        <ele>377</ele>
        <time>2016-07-24T06:51:41.000Z</time>
      </trkpt>
      <trkpt lat="47.51481" lon="6.77262">
        <ele>376</ele>
        <time>2016-07-24T06:51:42.000Z</time>
      </trkpt>
      <trkpt lat="47.51481" lon="6.77251">
        <ele>376</ele>
        <time>2016-07-24T06:51:43.000Z</time>
      </trkpt>
      <trkpt lat="47.5148" lon="6.77241">
        <ele>375</ele>
        <time>2016-07-24T06:51:44.000Z</time>
      </trkpt>
      <trkpt lat="47.5148" lon="6.77231">
        <ele>375</ele>
        <time>2016-07-24T06:51:45.000Z</time>
      </trkpt>
      <trkpt lat="47.5148" lon="6.77222">
        <ele>375</ele>
        <time>2016-07-24T06:51:46.000Z</time>
      </trkpt>
      <trkpt lat="47.51478" lon="6.77215">
        <ele>375</ele>
        <time>2016-07-24T06:51:47.000Z</time>
      </trkpt>
      <trkpt lat="47.51473" lon="6.77207">
        <ele>375</ele>
        <time>2016-07-24T06:51:48.000Z</time>
      </trkpt>
      <trkpt lat="47.51469" lon="6.77203">
        <ele>375</ele>
        <time>2016-07-24T06:51:49.000Z</time>
      </trkpt>
      <trkpt lat="47.5146" lon="6.77206">
        <ele>375</ele>
        <time>2016-07-24T06:51:50.000Z</time>
      </trkpt>
      <trkpt lat="47.51453" lon="6.77211">
        <ele>375</ele>
        <time>2016-07-24T06:51:51.000Z</time>
      </trkpt>
      <trkpt lat="47.51445" lon="6.77215">
        <ele>375</ele>
        <time>2016-07-24T06:51:52.000Z</time>
      </trkpt>
      <trkpt lat="47.51438" lon="6.77218">
        <ele>375</ele>
        <time>2016-07-24T06:51:53.000Z</time>
      </trkpt>
      <trkpt lat="47.5143" lon="6.77222">
        <ele>375</ele>
        <time>2016-07-24T06:51:54.000Z</time>
      </trkpt>
      <trkpt lat="47.51422" lon="6.77226">
        <ele>375</ele>
        <time>2016-07-24T06:51:55.000Z</time>
      </trkpt>
      <trkpt lat="47.51415" lon="6.77229">
        <ele>376</ele>
        <time>2016-07-24T06:51:56.000Z</time>
      </trkpt>
      <trkpt lat="47.51408" lon="6.77233">
        <ele>376</ele>
        <time>2016-07-24T06:51:57.000Z</time>
      </trkpt>
      <trkpt lat="47.51402" lon="6.77237">
        <ele>376</ele>
        <time>2016-07-24T06:51:58.000Z</time>
      </trkpt>
      <trkpt lat="47.51396" lon="6.7724">
        <ele>376</ele>
        <time>2016-07-24T06:51:59.000Z</time>
      </trkpt>
      <trkpt lat="47.5139" lon="6.77243">
        <ele>376</ele>
        <time>2016-07-24T06:52:00.000Z</time>
      </trkpt>
      <trkpt lat="47.51386" lon="6.77245">
        <ele>376</ele>
        <time>2016-07-24T06:52:01.000Z</time>
      </trkpt>
      <trkpt lat="47.51381" lon="6.77248">
        <ele>376</ele>
        <time>2016-07-24T06:52:02.000Z</time>
      </trkpt>
      <trkpt lat="47.51376" lon="6.77251">
        <ele>377</ele>
        <time>2016-07-24T06:52:03.000Z</time>
      </trkpt>
      <trkpt lat="47.51372" lon="6.77253">
        <ele>377</ele>
        <time>2016-07-24T06:52:04.000Z</time>
      </trkpt>
      <trkpt lat="47.51367" lon="6.77255">
        <ele>378</ele>
        <time>2016-07-24T06:52:05.000Z</time>
      </trkpt>
      <trkpt lat="47.51364" lon="6.77257">
        <ele>378</ele>
        <time>2016-07-24T06:52:06.000Z</time>
      </trkpt>
      <trkpt lat="47.5136" lon="6.7726">
        <ele>378</ele>
        <time>2016-07-24T06:52:07.000Z</time>
      </trkpt>
      <trkpt lat="47.51356" lon="6.77264">
        <ele>378</ele>
        <time>2016-07-24T06:52:08.000Z</time>
      </trkpt>
      <trkpt lat="47.51353" lon="6.77267">
        <ele>378</ele>
        <time>2016-07-24T06:52:09.000Z</time>
      </trkpt>
      <trkpt lat="47.5135" lon="6.7727">
        <ele>378</ele>
        <time>2016-07-24T06:52:10.000Z</time>
      </trkpt>
      <trkpt lat="47.51346" lon="6.77272">
        <ele>378</ele>
        <time>2016-07-24T06:52:11.000Z</time>
      </trkpt>
      <trkpt lat="47.51344" lon="6.77274">
        <ele>378</ele>
        <time>2016-07-24T06:52:12.000Z</time>
      </trkpt>
      <trkpt lat="47.51341" lon="6.77276">
        <ele>378</ele>
        <time>2016-07-24T06:52:13.000Z</time>
      </trkpt>
      <trkpt lat="47.51339" lon="6.77278">
        <ele>378</ele>
        <time>2016-07-24T06:52:14.000Z</time>
      </trkpt>
      <trkpt lat="47.51336" lon="6.7728">
        <ele>378</ele>
        <time>2016-07-24T06:52:15.000Z</time>
      </trkpt>
      <trkpt lat="47.51333" lon="6.77282">
        <ele>378</ele>
        <time>2016-07-24T06:52:16.000Z</time>
      </trkpt>
      <trkpt lat="47.51331" lon="6.77284">
        <ele>378</ele>
        <time>2016-07-24T06:52:17.000Z</time>
      </trkpt>
      <trkpt lat="47.51328" lon="6.77285">
        <ele>378</ele>
        <time>2016-07-24T06:52:18.000Z</time>
      </trkpt>
      <trkpt lat="47.51325" lon="6.77286">
        <ele>378</ele>
        <time>2016-07-24T06:52:19.000Z</time>
      </trkpt>
      <trkpt lat="47.51321" lon="6.77286">
        <ele>377</ele>
        <time>2016-07-24T06:52:20.000Z</time>
      </trkpt>
      <trkpt lat="47.51318" lon="6.77286">
        <ele>377</ele>
        <time>2016-07-24T06:52:21.000Z</time>
      </trkpt>
      <trkpt lat="47.51314" lon="6.77285">
        <ele>377</ele>
        <time>2016-07-24T06:52:22.000Z</time>
      </trkpt>
      <trkpt lat="47.51311" lon="6.77285">
        <ele>377</ele>
        <time>2016-07-24T06:52:23.000Z</time>
      </trkpt>
      <trkpt lat="47.51307" lon="6.77284">
        <ele>377</ele>
        <time>2016-07-24T06:52:24.000Z</time>
      </trkpt>
      <trkpt lat="47.51304" lon="6.77283">
        <ele>377</ele>
        <time>2016-07-24T06:52:25.000Z</time>
      </trkpt>
      <trkpt lat="47.51301" lon="6.77281">
        <ele>377</ele>
        <time>2016-07-24T06:52:26.000Z</time>
      </trkpt>
      <trkpt lat="47.51297" lon="6.77279">
        <ele>377</ele>
        <time>2016-07-24T06:52:27.000Z</time>
      </trkpt>
      <trkpt lat="47.51294" lon="6.77278">
        <ele>377</ele>
        <time>2016-07-24T06:52:28.000Z</time>
      </trkpt>
      <trkpt lat="47.5129" lon="6.77276">
        <ele>377</ele>
        <time>2016-07-24T06:52:29.000Z</time>
      </trkpt>
      <trkpt lat="47.51287" lon="6.77274">
        <ele>377</ele>
        <time>2016-07-24T06:52:30.000Z</time>
      </trkpt>
      <trkpt lat="47.51283" lon="6.77273">
        <ele>377</ele>
        <time>2016-07-24T06:52:31.000Z</time>
      </trkpt>
      <trkpt lat="47.5128" lon="6.77271">
        <ele>377</ele>
        <time>2016-07-24T06:52:32.000Z</time>
      </trkpt>
      <trkpt lat="47.51276" lon="6.77269">
        <ele>377</ele>
        <time>2016-07-24T06:52:33.000Z</time>
      </trkpt>
      <trkpt lat="47.51273" lon="6.77266">
        <ele>377</ele>
        <time>2016-07-24T06:52:34.000Z</time>
      </trkpt>
      <trkpt lat="47.51269" lon="6.77264">
        <ele>377</ele>
        <time>2016-07-24T06:52:35.000Z</time>
      </trkpt>
      <trkpt lat="47.51266" lon="6.77262">
        <ele>377</ele>
        <time>2016-07-24T06:52:36.000Z</time>
      </trkpt>
      <trkpt lat="47.51262" lon="6.77259">
        <ele>378</ele>
        <time>2016-07-24T06:52:37.000Z</time>
      </trkpt>
      <trkpt lat="47.51259" lon="6.77256">
        <ele>378</ele>
        <time>2016-07-24T06:52:38.000Z</time>
      </trkpt>
      <trkpt lat="47.51256" lon="6.77252">
        <ele>378</ele>
        <time>2016-07-24T06:52:39.000Z</time>
      </trkpt>
      <trkpt lat="47.51253" lon="6.77248">
        <ele>379</ele>
        <time>2016-07-24T06:52:40.000Z</time>
      </trkpt>
      <trkpt lat="47.5125" lon="6.77243">
        <ele>378</ele>
        <time>2016-07-24T06:52:41.000Z</time>
      </trkpt>
      <trkpt lat="47.51247" lon="6.77237">
        <ele>377</ele>
        <time>2016-07-24T06:52:42.000Z</time>
      </trkpt>
      <trkpt lat="47.51245" lon="6.77232">
        <ele>377</ele>
        <time>2016-07-24T06:52:43.000Z</time>
      </trkpt>
      <trkpt lat="47.51241" lon="6.77227">
        <ele>376</ele>
        <time>2016-07-24T06:52:44.000Z</time>
      </trkpt>
      <trkpt lat="47.51238" lon="6.77221">
        <ele>376</ele>
        <time>2016-07-24T06:52:45.000Z</time>
      </trkpt>
      <trkpt lat="47.51236" lon="6.77216">
        <ele>376</ele>
        <time>2016-07-24T06:52:46.000Z</time>
      </trkpt>
      <trkpt lat="47.51233" lon="6.7721">
        <ele>376</ele>
        <time>2016-07-24T06:52:47.000Z</time>
      </trkpt>
      <trkpt lat="47.5123" lon="6.77203">
        <ele>376</ele>
        <time>2016-07-24T06:52:48.000Z</time>
      </trkpt>
      <trkpt lat="47.51227" lon="6.77197">
        <ele>376</ele>
        <time>2016-07-24T06:52:49.000Z</time>
      </trkpt>
      <trkpt lat="47.51224" lon="6.77191">
        <ele>376</ele>
        <time>2016-07-24T06:52:50.000Z</time>
      </trkpt>
      <trkpt lat="47.5122" lon="6.77184">
        <ele>376</ele>
        <time>2016-07-24T06:52:51.000Z</time>
      </trkpt>
      <trkpt lat="47.51216" lon="6.77178">
        <ele>376</ele>
        <time>2016-07-24T06:52:52.000Z</time>
      </trkpt>
      <trkpt lat="47.51213" lon="6.77171">
        <ele>376</ele>
        <time>2016-07-24T06:52:53.000Z</time>
      </trkpt>
      <trkpt lat="47.51209" lon="6.77164">
        <ele>378</ele>
        <time>2016-07-24T06:52:54.000Z</time>
      </trkpt>
      <trkpt lat="47.51205" lon="6.77156">
        <ele>378</ele>
        <time>2016-07-24T06:52:55.000Z</time>
      </trkpt>
      <trkpt lat="47.51201" lon="6.77149">
        <ele>378</ele>
        <time>2016-07-24T06:52:56.000Z</time>
      </trkpt>
      <trkpt lat="47.51196" lon="6.77141">
        <ele>378</ele>
        <time>2016-07-24T06:52:57.000Z</time>
      </trkpt>
      <trkpt lat="47.51192" lon="6.77134">
        <ele>378</ele>
        <time>2016-07-24T06:52:58.000Z</time>
      </trkpt>
      <trkpt lat="47.51188" lon="6.77126">
        <ele>378</ele>
        <time>2016-07-24T06:52:59.000Z</time>
      </trkpt>
      <trkpt lat="47.51183" lon="6.77117">
        <ele>378</ele>
        <time>2016-07-24T06:53:00.000Z</time>
      </trkpt>
      <trkpt lat="47.51178" lon="6.77109">
        <ele>378</ele>
        <time>2016-07-24T06:53:01.000Z</time>
      </trkpt>
      <trkpt lat="47.51173" lon="6.77101">
        <ele>378</ele>
        <time>2016-07-24T06:53:02.000Z</time>
      </trkpt>
      <trkpt lat="47.51168" lon="6.77092">
        <ele>378</ele>
        <time>2016-07-24T06:53:03.000Z</time>
      </trkpt>
      <trkpt lat="47.51162" lon="6.77084">
        <ele>377</ele>
        <time>2016-07-24T06:53:04.000Z</time>
      </trkpt>
      <trkpt lat="47.51157" lon="6.77075">
        <ele>377</ele>
        <time>2016-07-24T06:53:05.000Z</time>
      </trkpt>
      <trkpt lat="47.51151" lon="6.77069">
        <ele>376</ele>
        <time>2016-07-24T06:53:06.000Z</time>
      </trkpt>
      <trkpt lat="47.51146" lon="6.77063">
        <ele>376</ele>
        <time>2016-07-24T06:53:07.000Z</time>
      </trkpt>
      <trkpt lat="47.5114" lon="6.77057">
        <ele>376</ele>
        <time>2016-07-24T06:53:08.000Z</time>
      </trkpt>
      <trkpt lat="47.51133" lon="6.77051">
        <ele>375</ele>
        <time>2016-07-24T06:53:09.000Z</time>
      </trkpt>
      <trkpt lat="47.51127" lon="6.77046">
        <ele>375</ele>
        <time>2016-07-24T06:53:10.000Z</time>
      </trkpt>
      <trkpt lat="47.51121" lon="6.77041">
        <ele>375</ele>
        <time>2016-07-24T06:53:11.000Z</time>
      </trkpt>
      <trkpt lat="47.51115" lon="6.77035">
        <ele>375</ele>
        <time>2016-07-24T06:53:12.000Z</time>
      </trkpt>
      <trkpt lat="47.51109" lon="6.7703">
        <ele>375</ele>
        <time>2016-07-24T06:53:13.000Z</time>
      </trkpt>
      <trkpt lat="47.51103" lon="6.77025">
        <ele>375</ele>
        <time>2016-07-24T06:53:14.000Z</time>
      </trkpt>
      <trkpt lat="47.51097" lon="6.77019">
        <ele>375</ele>
        <time>2016-07-24T06:53:15.000Z</time>
      </trkpt>
      <trkpt lat="47.51091" lon="6.77015">
        <ele>375</ele>
        <time>2016-07-24T06:53:16.000Z</time>
      </trkpt>
      <trkpt lat="47.51087" lon="6.7701">
        <ele>375</ele>
        <time>2016-07-24T06:53:17.000Z</time>
      </trkpt>
      <trkpt lat="47.51081" lon="6.77005">
        <ele>374</ele>
        <time>2016-07-24T06:53:18.000Z</time>
      </trkpt>
      <trkpt lat="47.51075" lon="6.77001">
        <ele>374</ele>
        <time>2016-07-24T06:53:19.000Z</time>
      </trkpt>
      <trkpt lat="47.5107" lon="6.76996">
        <ele>375</ele>
        <time>2016-07-24T06:53:20.000Z</time>
      </trkpt>
      <trkpt lat="47.51065" lon="6.76991">
        <ele>375</ele>
        <time>2016-07-24T06:53:21.000Z</time>
      </trkpt>
      <trkpt lat="47.5106" lon="6.76987">
        <ele>375</ele>
        <time>2016-07-24T06:53:22.000Z</time>
      </trkpt>
      <trkpt lat="47.51054" lon="6.76982">
        <ele>375</ele>
        <time>2016-07-24T06:53:23.000Z</time>
      </trkpt>
      <trkpt lat="47.5105" lon="6.76978">
        <ele>375</ele>
        <time>2016-07-24T06:53:24.000Z</time>
      </trkpt>
      <trkpt lat="47.51045" lon="6.76973">
        <ele>375</ele>
        <time>2016-07-24T06:53:25.000Z</time>
      </trkpt>
      <trkpt lat="47.5104" lon="6.76969">
        <ele>375</ele>
        <time>2016-07-24T06:53:26.000Z</time>
      </trkpt>
      <trkpt lat="47.51036" lon="6.76965">
        <ele>375</ele>
        <time>2016-07-24T06:53:27.000Z</time>
      </trkpt>
      <trkpt lat="47.51031" lon="6.7696">
        <ele>375</ele>
        <time>2016-07-24T06:53:28.000Z</time>
      </trkpt>
      <trkpt lat="47.51026" lon="6.76956">
        <ele>375</ele>
        <time>2016-07-24T06:53:29.000Z</time>
      </trkpt>
      <trkpt lat="47.51022" lon="6.76953">
        <ele>375</ele>
        <time>2016-07-24T06:53:30.000Z</time>
      </trkpt>
      <trkpt lat="47.51017" lon="6.76949">
        <ele>375</ele>
        <time>2016-07-24T06:53:31.000Z</time>
      </trkpt>
      <trkpt lat="47.51012" lon="6.76945">
        <ele>375</ele>
        <time>2016-07-24T06:53:32.000Z</time>
      </trkpt>
      <trkpt lat="47.51008" lon="6.76941">
        <ele>375</ele>
        <time>2016-07-24T06:53:33.000Z</time>
      </trkpt>
      <trkpt lat="47.51003" lon="6.76938">
        <ele>375</ele>
        <time>2016-07-24T06:53:34.000Z</time>
      </trkpt>
      <trkpt lat="47.50998" lon="6.76934">
        <ele>375</ele>
        <time>2016-07-24T06:53:35.000Z</time>
      </trkpt>
      <trkpt lat="47.50994" lon="6.76929">
        <ele>375</ele>
        <time>2016-07-24T06:53:36.000Z</time>
      </trkpt>
      <trkpt lat="47.50992" lon="6.76923">
        <ele>375</ele>
        <time>2016-07-24T06:53:37.000Z</time>
      </trkpt>
      <trkpt lat="47.5099" lon="6.76917">
        <ele>375</ele>
        <time>2016-07-24T06:53:38.000Z</time>
      </trkpt>
      <trkpt lat="47.50987" lon="6.76911">
        <ele>377</ele>
        <time>2016-07-24T06:53:39.000Z</time>
      </trkpt>
      <trkpt lat="47.50984" lon="6.76906">
        <ele>377</ele>
        <time>2016-07-24T06:53:40.000Z</time>
      </trkpt>
      <trkpt lat="47.50978" lon="6.76901">
        <ele>377</ele>
        <time>2016-07-24T06:53:41.000Z</time>
      </trkpt>
      <trkpt lat="47.50974" lon="6.76899">
        <ele>377</ele>
        <time>2016-07-24T06:53:42.000Z</time>
      </trkpt>
      <trkpt lat="47.50968" lon="6.769">
        <ele>377</ele>
        <time>2016-07-24T06:53:43.000Z</time>
      </trkpt>
      <trkpt lat="47.50964" lon="6.76898">
        <ele>377</ele>
        <time>2016-07-24T06:53:44.000Z</time>
      </trkpt>
      <trkpt lat="47.5096" lon="6.76896">
        <ele>377</ele>
        <time>2016-07-24T06:53:45.000Z</time>
      </trkpt>
      <trkpt lat="47.50957" lon="6.76892">
        <ele>377</ele>
        <time>2016-07-24T06:53:46.000Z</time>
      </trkpt>
      <trkpt lat="47.50954" lon="6.76889">
        <ele>377</ele>
        <time>2016-07-24T06:53:47.000Z</time>
      </trkpt>
      <trkpt lat="47.50951" lon="6.76886">
        <ele>378</ele>
        <time>2016-07-24T06:53:48.000Z</time>
      </trkpt>
      <trkpt lat="47.50948" lon="6.76883">
        <ele>378</ele>
        <time>2016-07-24T06:53:49.000Z</time>
      </trkpt>
      <trkpt lat="47.50944" lon="6.76879">
        <ele>378</ele>
        <time>2016-07-24T06:53:50.000Z</time>
      </trkpt>
      <trkpt lat="47.50941" lon="6.76875">
        <ele>378</ele>
        <time>2016-07-24T06:53:51.000Z</time>
      </trkpt>
      <trkpt lat="47.50937" lon="6.76871">
        <ele>378</ele>
        <time>2016-07-24T06:53:52.000Z</time>
      </trkpt>
      <trkpt lat="47.50932" lon="6.76867">
        <ele>378</ele>
        <time>2016-07-24T06:53:53.000Z</time>
      </trkpt>
      <trkpt lat="47.50929" lon="6.76863">
        <ele>378</ele>
        <time>2016-07-24T06:53:54.000Z</time>
      </trkpt>
      <trkpt lat="47.50928" lon="6.76859">
        <ele>378</ele>
        <time>2016-07-24T06:53:55.000Z</time>
      </trkpt>
      <trkpt lat="47.50924" lon="6.76855">
        <ele>378</ele>
        <time>2016-07-24T06:53:56.000Z</time>
      </trkpt>
      <trkpt lat="47.5092" lon="6.7685">
        <ele>379</ele>
        <time>2016-07-24T06:53:57.000Z</time>
      </trkpt>
      <trkpt lat="47.50917" lon="6.76844">
        <ele>379</ele>
        <time>2016-07-24T06:53:58.000Z</time>
      </trkpt>
      <trkpt lat="47.50915" lon="6.76839">
        <ele>380</ele>
        <time>2016-07-24T06:53:59.000Z</time>
      </trkpt>
      <trkpt lat="47.50912" lon="6.76833">
        <ele>380</ele>
        <time>2016-07-24T06:54:00.000Z</time>
      </trkpt>
      <trkpt lat="47.50913" lon="6.76828">
        <ele>380</ele>
        <time>2016-07-24T06:54:01.000Z</time>
      </trkpt>
      <trkpt lat="47.50911" lon="6.76823">
        <ele>381</ele>
        <time>2016-07-24T06:54:02.000Z</time>
      </trkpt>
      <trkpt lat="47.5091" lon="6.76818">
        <ele>381</ele>
        <time>2016-07-24T06:54:03.000Z</time>
      </trkpt>
      <trkpt lat="47.50908" lon="6.76813">
        <ele>381</ele>
        <time>2016-07-24T06:54:04.000Z</time>
      </trkpt>
      <trkpt lat="47.50906" lon="6.76808">
        <ele>381</ele>
        <time>2016-07-24T06:54:05.000Z</time>
      </trkpt>
      <trkpt lat="47.50904" lon="6.76803">
        <ele>381</ele>
        <time>2016-07-24T06:54:06.000Z</time>
      </trkpt>
      <trkpt lat="47.50903" lon="6.76798">
        <ele>381</ele>
        <time>2016-07-24T06:54:07.000Z</time>
      </trkpt>
      <trkpt lat="47.50901" lon="6.76793">
        <ele>381</ele>
        <time>2016-07-24T06:54:08.000Z</time>
      </trkpt>
      <trkpt lat="47.50898" lon="6.76788">
        <ele>381</ele>
        <time>2016-07-24T06:54:09.000Z</time>
      </trkpt>
      <trkpt lat="47.50897" lon="6.76783">
        <ele>381</ele>
        <time>2016-07-24T06:54:10.000Z</time>
      </trkpt>
      <trkpt lat="47.50895" lon="6.76778">
        <ele>381</ele>
        <time>2016-07-24T06:54:11.000Z</time>
      </trkpt>
      <trkpt lat="47.50895" lon="6.76773">
        <ele>381</ele>
        <time>2016-07-24T06:54:12.000Z</time>
      </trkpt>
      <trkpt lat="47.50895" lon="6.76768">
        <ele>381</ele>
        <time>2016-07-24T06:54:13.000Z</time>
      </trkpt>
      <trkpt lat="47.50894" lon="6.76763">
        <ele>381</ele>
        <time>2016-07-24T06:54:14.000Z</time>
      </trkpt>
      <trkpt lat="47.50893" lon="6.76758">
        <ele>381</ele>
        <time>2016-07-24T06:54:15.000Z</time>
      </trkpt>
      <trkpt lat="47.50891" lon="6.76754">
        <ele>381</ele>
        <time>2016-07-24T06:54:16.000Z</time>
      </trkpt>
      <trkpt lat="47.50889" lon="6.76749">
        <ele>382</ele>
        <time>2016-07-24T06:54:17.000Z</time>
      </trkpt>
      <trkpt lat="47.50888" lon="6.76745">
        <ele>382</ele>
        <time>2016-07-24T06:54:18.000Z</time>
      </trkpt>
      <trkpt lat="47.50886" lon="6.7674">
        <ele>382</ele>
        <time>2016-07-24T06:54:19.000Z</time>
      </trkpt>
      <trkpt lat="47.50885" lon="6.76736">
        <ele>382</ele>
        <time>2016-07-24T06:54:20.000Z</time>
      </trkpt>
      <trkpt lat="47.50884" lon="6.76731">
        <ele>382</ele>
        <time>2016-07-24T06:54:21.000Z</time>
      </trkpt>
      <trkpt lat="47.50882" lon="6.76727">
        <ele>383</ele>
        <time>2016-07-24T06:54:22.000Z</time>
      </trkpt>
      <trkpt lat="47.50881" lon="6.76722">
        <ele>383</ele>
        <time>2016-07-24T06:54:23.000Z</time>
      </trkpt>
      <trkpt lat="47.50879" lon="6.76718">
        <ele>383</ele>
        <time>2016-07-24T06:54:24.000Z</time>
      </trkpt>
      <trkpt lat="47.50878" lon="6.76713">
        <ele>383</ele>
        <time>2016-07-24T06:54:25.000Z</time>
      </trkpt>
      <trkpt lat="47.50877" lon="6.76709">
        <ele>383</ele>
        <time>2016-07-24T06:54:26.000Z</time>
      </trkpt>
      <trkpt lat="47.50875" lon="6.76704">
        <ele>383</ele>
        <time>2016-07-24T06:54:27.000Z</time>
      </trkpt>
      <trkpt lat="47.50874" lon="6.767">
        <ele>383</ele>
        <time>2016-07-24T06:54:28.000Z</time>
      </trkpt>
      <trkpt lat="47.50872" lon="6.76696">
        <ele>384</ele>
        <time>2016-07-24T06:54:29.000Z</time>
      </trkpt>
      <trkpt lat="47.5087" lon="6.76692">
        <ele>384</ele>
        <time>2016-07-24T06:54:30.000Z</time>
      </trkpt>
      <trkpt lat="47.50868" lon="6.76688">
        <ele>384</ele>
        <time>2016-07-24T06:54:31.000Z</time>
      </trkpt>
      <trkpt lat="47.50866" lon="6.76683">
        <ele>384</ele>
        <time>2016-07-24T06:54:32.000Z</time>
      </trkpt>
      <trkpt lat="47.50864" lon="6.76679">
        <ele>384</ele>
        <time>2016-07-24T06:54:33.000Z</time>
      </trkpt>
      <trkpt lat="47.50863" lon="6.76675">
        <ele>385</ele>
        <time>2016-07-24T06:54:34.000Z</time>
      </trkpt>
      <trkpt lat="47.50861" lon="6.76671">
        <ele>385</ele>
        <time>2016-07-24T06:54:35.000Z</time>
      </trkpt>
      <trkpt lat="47.50858" lon="6.76667">
        <ele>385</ele>
        <time>2016-07-24T06:54:36.000Z</time>
      </trkpt>
      <trkpt lat="47.50856" lon="6.76663">
        <ele>387</ele>
        <time>2016-07-24T06:54:37.000Z</time>
      </trkpt>
      <trkpt lat="47.50854" lon="6.76659">
        <ele>387</ele>
        <time>2016-07-24T06:54:38.000Z</time>
      </trkpt>
      <trkpt lat="47.50852" lon="6.76656">
        <ele>387</ele>
        <time>2016-07-24T06:54:39.000Z</time>
      </trkpt>
      <trkpt lat="47.5085" lon="6.76652">
        <ele>387</ele>
        <time>2016-07-24T06:54:40.000Z</time>
      </trkpt>
      <trkpt lat="47.50848" lon="6.76649">
        <ele>387</ele>
        <time>2016-07-24T06:54:41.000Z</time>
      </trkpt>
      <trkpt lat="47.50845" lon="6.76646">
        <ele>387</ele>
        <time>2016-07-24T06:54:42.000Z</time>
      </trkpt>
      <trkpt lat="47.50843" lon="6.76644">
        <ele>387</ele>
        <time>2016-07-24T06:54:43.000Z</time>
      </trkpt>
      <trkpt lat="47.50842" lon="6.76641">
        <ele>387</ele>
        <time>2016-07-24T06:54:44.000Z</time>
      </trkpt>
      <trkpt lat="47.5084" lon="6.76638">
        <ele>387</ele>
        <time>2016-07-24T06:54:45.000Z</time>
      </trkpt>
      <trkpt lat="47.50839" lon="6.76634">
        <ele>387</ele>
        <time>2016-07-24T06:54:46.000Z</time>
      </trkpt>
      <trkpt lat="47.50838" lon="6.76631">
        <ele>387</ele>
        <time>2016-07-24T06:54:47.000Z</time>
      </trkpt>
      <trkpt lat="47.50836" lon="6.76627">
        <ele>387</ele>
        <time>2016-07-24T06:54:48.000Z</time>
      </trkpt>
      <trkpt lat="47.50835" lon="6.76623">
        <ele>387</ele>
        <time>2016-07-24T06:54:49.000Z</time>
      </trkpt>
      <trkpt lat="47.50834" lon="6.7662">
        <ele>387</ele>
        <time>2016-07-24T06:54:50.000Z</time>
      </trkpt>
      <trkpt lat="47.50832" lon="6.76617">
        <ele>390</ele>
        <time>2016-07-24T06:54:51.000Z</time>
      </trkpt>
      <trkpt lat="47.50831" lon="6.76613">
        <ele>390</ele>
        <time>2016-07-24T06:54:52.000Z</time>
      </trkpt>
      <trkpt lat="47.5083" lon="6.76609">
        <ele>390</ele>
        <time>2016-07-24T06:54:53.000Z</time>
      </trkpt>
      <trkpt lat="47.50829" lon="6.76605">
        <ele>390</ele>
        <time>2016-07-24T06:54:54.000Z</time>
      </trkpt>
      <trkpt lat="47.50827" lon="6.76602">
        <ele>390</ele>
        <time>2016-07-24T06:54:55.000Z</time>
      </trkpt>
      <trkpt lat="47.50824" lon="6.76601">
        <ele>390</ele>
        <time>2016-07-24T06:54:56.000Z</time>
      </trkpt>
      <trkpt lat="47.50821" lon="6.76602">
        <ele>390</ele>
        <time>2016-07-24T06:54:57.000Z</time>
      </trkpt>
      <trkpt lat="47.50817" lon="6.76603">
        <ele>390</ele>
        <time>2016-07-24T06:54:58.000Z</time>
      </trkpt>
      <trkpt lat="47.50814" lon="6.76603">
        <ele>390</ele>
        <time>2016-07-24T06:54:59.000Z</time>
      </trkpt>
      <trkpt lat="47.50812" lon="6.76601">
        <ele>390</ele>
        <time>2016-07-24T06:55:00.000Z</time>
      </trkpt>
      <trkpt lat="47.5081" lon="6.76598">
        <ele>390</ele>
        <time>2016-07-24T06:55:01.000Z</time>
      </trkpt>
      <trkpt lat="47.50809" lon="6.76594">
        <ele>390</ele>
        <time>2016-07-24T06:55:02.000Z</time>
      </trkpt>
      <trkpt lat="47.50807" lon="6.76591">
        <ele>390</ele>
        <time>2016-07-24T06:55:03.000Z</time>
      </trkpt>
      <trkpt lat="47.50803" lon="6.76589">
        <ele>391</ele>
        <time>2016-07-24T06:55:05.000Z</time>
      </trkpt>
      <trkpt lat="47.50801" lon="6.7659">
        <ele>391</ele>
        <time>2016-07-24T06:55:06.000Z</time>
      </trkpt>
      <trkpt lat="47.50794" lon="6.76592">
        <ele>391</ele>
        <time>2016-07-24T06:55:07.000Z</time>
      </trkpt>
      <trkpt lat="47.50791" lon="6.7659">
        <ele>391</ele>
        <time>2016-07-24T06:55:18.000Z</time>
      </trkpt>
      <trkpt lat="47.50789" lon="6.7659">
        <ele>391</ele>
        <time>2016-07-24T06:55:19.000Z</time>
      </trkpt>
      <trkpt lat="47.50785" lon="6.7659">
        <ele>391</ele>
        <time>2016-07-24T06:55:26.000Z</time>
      </trkpt>
      <trkpt lat="47.50783" lon="6.76591">
        <ele>391</ele>
        <time>2016-07-24T06:55:27.000Z</time>
      </trkpt>
      <trkpt lat="47.50781" lon="6.7659">
        <ele>391</ele>
        <time>2016-07-24T06:55:28.000Z</time>
      </trkpt>
      <trkpt lat="47.50778" lon="6.76588">
        <ele>392</ele>
        <time>2016-07-24T06:55:29.000Z</time>
      </trkpt>
      <trkpt lat="47.50776" lon="6.76587">
        <ele>392</ele>
        <time>2016-07-24T06:55:30.000Z</time>
      </trkpt>
      <trkpt lat="47.50773" lon="6.76586">
        <ele>392</ele>
        <time>2016-07-24T06:55:31.000Z</time>
      </trkpt>
      <trkpt lat="47.5077" lon="6.76586">
        <ele>392</ele>
        <time>2016-07-24T06:55:32.000Z</time>
      </trkpt>
      <trkpt lat="47.50767" lon="6.76586">
        <ele>392</ele>
        <time>2016-07-24T06:55:33.000Z</time>
      </trkpt>
      <trkpt lat="47.50763" lon="6.76587">
        <ele>393</ele>
        <time>2016-07-24T06:55:34.000Z</time>
      </trkpt>
      <trkpt lat="47.5076" lon="6.76587">
        <ele>393</ele>
        <time>2016-07-24T06:55:35.000Z</time>
      </trkpt>
      <trkpt lat="47.50757" lon="6.76587">
        <ele>393</ele>
        <time>2016-07-24T06:55:36.000Z</time>
      </trkpt>
      <trkpt lat="47.50754" lon="6.76587">
        <ele>393</ele>
        <time>2016-07-24T06:55:37.000Z</time>
      </trkpt>
      <trkpt lat="47.5075" lon="6.76587">
        <ele>394</ele>
        <time>2016-07-24T06:55:38.000Z</time>
      </trkpt>
      <trkpt lat="47.50747" lon="6.76587">
        <ele>394</ele>
        <time>2016-07-24T06:55:39.000Z</time>
      </trkpt>
      <trkpt lat="47.50744" lon="6.76587">
        <ele>394</ele>
        <time>2016-07-24T06:55:40.000Z</time>
      </trkpt>
      <trkpt lat="47.50741" lon="6.76587">
        <ele>394</ele>
        <time>2016-07-24T06:55:41.000Z</time>
      </trkpt>
      <trkpt lat="47.50737" lon="6.76587">
        <ele>394</ele>
        <time>2016-07-24T06:55:42.000Z</time>
      </trkpt>
      <trkpt lat="47.50734" lon="6.76587">
        <ele>394</ele>
        <time>2016-07-24T06:55:43.000Z</time>
      </trkpt>
      <trkpt lat="47.50731" lon="6.76586">
        <ele>394</ele>
        <time>2016-07-24T06:55:44.000Z</time>
      </trkpt>
      <trkpt lat="47.50727" lon="6.76586">
        <ele>394</ele>
        <time>2016-07-24T06:55:45.000Z</time>
      </trkpt>
      <trkpt lat="47.50724" lon="6.76585">
        <ele>394</ele>
        <time>2016-07-24T06:55:46.000Z</time>
      </trkpt>
      <trkpt lat="47.5072" lon="6.76585">
        <ele>394</ele>
        <time>2016-07-24T06:55:47.000Z</time>
      </trkpt>
      <trkpt lat="47.50717" lon="6.76584">
        <ele>395</ele>
        <time>2016-07-24T06:55:48.000Z</time>
      </trkpt>
      <trkpt lat="47.50713" lon="6.76583">
        <ele>395</ele>
        <time>2016-07-24T06:55:49.000Z</time>
      </trkpt>
      <trkpt lat="47.50709" lon="6.76583">
        <ele>395</ele>
        <time>2016-07-24T06:55:50.000Z</time>
      </trkpt>
      <trkpt lat="47.50705" lon="6.76583">
        <ele>395</ele>
        <time>2016-07-24T06:55:51.000Z</time>
      </trkpt>
      <trkpt lat="47.50702" lon="6.76582">
        <ele>395</ele>
        <time>2016-07-24T06:55:52.000Z</time>
      </trkpt>
      <trkpt lat="47.50698" lon="6.76582">
        <ele>395</ele>
        <time>2016-07-24T06:55:53.000Z</time>
      </trkpt>
      <trkpt lat="47.50695" lon="6.76582">
        <ele>396</ele>
        <time>2016-07-24T06:55:54.000Z</time>
      </trkpt>
      <trkpt lat="47.50692" lon="6.76582">
        <ele>396</ele>
        <time>2016-07-24T06:55:55.000Z</time>
      </trkpt>
      <trkpt lat="47.50688" lon="6.76582">
        <ele>396</ele>
        <time>2016-07-24T06:55:56.000Z</time>
      </trkpt>
      <trkpt lat="47.50685" lon="6.76582">
        <ele>396</ele>
        <time>2016-07-24T06:55:57.000Z</time>
      </trkpt>
      <trkpt lat="47.50681" lon="6.76582">
        <ele>396</ele>
        <time>2016-07-24T06:55:58.000Z</time>
      </trkpt>
      <trkpt lat="47.50678" lon="6.76583">
        <ele>396</ele>
        <time>2016-07-24T06:55:59.000Z</time>
      </trkpt>
      <trkpt lat="47.50675" lon="6.76583">
        <ele>396</ele>
        <time>2016-07-24T06:56:00.000Z</time>
      </trkpt>
      <trkpt lat="47.50671" lon="6.76583">
        <ele>397</ele>
        <time>2016-07-24T06:56:01.000Z</time>
      </trkpt>
      <trkpt lat="47.50668" lon="6.76584">
        <ele>397</ele>
        <time>2016-07-24T06:56:02.000Z</time>
      </trkpt>
      <trkpt lat="47.50665" lon="6.76585">
        <ele>397</ele>
        <time>2016-07-24T06:56:03.000Z</time>
      </trkpt>
      <trkpt lat="47.50661" lon="6.76586">
        <ele>397</ele>
        <time>2016-07-24T06:56:04.000Z</time>
      </trkpt>
      <trkpt lat="47.50658" lon="6.76587">
        <ele>397</ele>
        <time>2016-07-24T06:56:05.000Z</time>
      </trkpt>
      <trkpt lat="47.50655" lon="6.76588">
        <ele>397</ele>
        <time>2016-07-24T06:56:06.000Z</time>
      </trkpt>
      <trkpt lat="47.50652" lon="6.76588">
        <ele>397</ele>
        <time>2016-07-24T06:56:07.000Z</time>
      </trkpt>
      <trkpt lat="47.50649" lon="6.76589">
        <ele>397</ele>
        <time>2016-07-24T06:56:08.000Z</time>
      </trkpt>
      <trkpt lat="47.50646" lon="6.7659">
        <ele>397</ele>
        <time>2016-07-24T06:56:09.000Z</time>
      </trkpt>
      <trkpt lat="47.50643" lon="6.76591">
        <ele>397</ele>
        <time>2016-07-24T06:56:10.000Z</time>
      </trkpt>
      <trkpt lat="47.5064" lon="6.76592">
        <ele>397</ele>
        <time>2016-07-24T06:56:11.000Z</time>
      </trkpt>
      <trkpt lat="47.50637" lon="6.76593">
        <ele>397</ele>
        <time>2016-07-24T06:56:12.000Z</time>
      </trkpt>
      <trkpt lat="47.50634" lon="6.76595">
        <ele>397</ele>
        <time>2016-07-24T06:56:13.000Z</time>
      </trkpt>
      <trkpt lat="47.50631" lon="6.76596">
        <ele>397</ele>
        <time>2016-07-24T06:56:14.000Z</time>
      </trkpt>
      <trkpt lat="47.50628" lon="6.76597">
        <ele>397</ele>
        <time>2016-07-24T06:56:15.000Z</time>
      </trkpt>
      <trkpt lat="47.50625" lon="6.76599">
        <ele>397</ele>
        <time>2016-07-24T06:56:16.000Z</time>
      </trkpt>
      <trkpt lat="47.50622" lon="6.766">
        <ele>398</ele>
        <time>2016-07-24T06:56:17.000Z</time>
      </trkpt>
      <trkpt lat="47.50619" lon="6.76602">
        <ele>398</ele>
        <time>2016-07-24T06:56:18.000Z</time>
      </trkpt>
      <trkpt lat="47.50616" lon="6.76603">
        <ele>398</ele>
        <time>2016-07-24T06:56:19.000Z</time>
      </trkpt>
      <trkpt lat="47.50613" lon="6.76605">
        <ele>398</ele>
        <time>2016-07-24T06:56:20.000Z</time>
      </trkpt>
      <trkpt lat="47.5061" lon="6.76607">
        <ele>398</ele>
        <time>2016-07-24T06:56:21.000Z</time>
      </trkpt>
      <trkpt lat="47.50607" lon="6.76608">
        <ele>398</ele>
        <time>2016-07-24T06:56:22.000Z</time>
      </trkpt>
      <trkpt lat="47.50604" lon="6.76608">
        <ele>398</ele>
        <time>2016-07-24T06:56:23.000Z</time>
      </trkpt>
      <trkpt lat="47.50601" lon="6.76609">
        <ele>398</ele>
        <time>2016-07-24T06:56:24.000Z</time>
      </trkpt>
      <trkpt lat="47.50597" lon="6.7661">
        <ele>398</ele>
        <time>2016-07-24T06:56:25.000Z</time>
      </trkpt>
      <trkpt lat="47.50594" lon="6.76612">
        <ele>398</ele>
        <time>2016-07-24T06:56:26.000Z</time>
      </trkpt>
      <trkpt lat="47.50591" lon="6.76613">
        <ele>398</ele>
        <time>2016-07-24T06:56:27.000Z</time>
      </trkpt>
      <trkpt lat="47.50588" lon="6.76614">
        <ele>398</ele>
        <time>2016-07-24T06:56:28.000Z</time>
      </trkpt>
      <trkpt lat="47.50585" lon="6.76616">
        <ele>398</ele>
        <time>2016-07-24T06:56:29.000Z</time>
      </trkpt>
      <trkpt lat="47.50582" lon="6.76617">
        <ele>399</ele>
        <time>2016-07-24T06:56:30.000Z</time>
      </trkpt>
      <trkpt lat="47.50579" lon="6.76619">
        <ele>399</ele>
        <time>2016-07-24T06:56:31.000Z</time>
      </trkpt>
      <trkpt lat="47.50575" lon="6.7662">
        <ele>399</ele>
        <time>2016-07-24T06:56:32.000Z</time>
      </trkpt>
      <trkpt lat="47.50572" lon="6.76622">
        <ele>399</ele>
        <time>2016-07-24T06:56:33.000Z</time>
      </trkpt>
      <trkpt lat="47.50568" lon="6.76623">
        <ele>399</ele>
        <time>2016-07-24T06:56:34.000Z</time>
      </trkpt>
      <trkpt lat="47.50565" lon="6.76624">
        <ele>399</ele>
        <time>2016-07-24T06:56:35.000Z</time>
      </trkpt>
      <trkpt lat="47.50561" lon="6.76626">
        <ele>399</ele>
        <time>2016-07-24T06:56:36.000Z</time>
      </trkpt>
      <trkpt lat="47.50558" lon="6.76626">
        <ele>399</ele>
        <time>2016-07-24T06:56:37.000Z</time>
      </trkpt>
      <trkpt lat="47.50555" lon="6.76626">
        <ele>399</ele>
        <time>2016-07-24T06:56:38.000Z</time>
      </trkpt>
      <trkpt lat="47.50552" lon="6.76626">
        <ele>399</ele>
        <time>2016-07-24T06:56:39.000Z</time>
      </trkpt>
      <trkpt lat="47.50549" lon="6.76626">
        <ele>399</ele>
        <time>2016-07-24T06:56:40.000Z</time>
      </trkpt>
      <trkpt lat="47.50545" lon="6.76626">
        <ele>399</ele>
        <time>2016-07-24T06:56:41.000Z</time>
      </trkpt>
      <trkpt lat="47.50542" lon="6.76627">
        <ele>399</ele>
        <time>2016-07-24T06:56:42.000Z</time>
      </trkpt>
      <trkpt lat="47.50538" lon="6.76628">
        <ele>399</ele>
        <time>2016-07-24T06:56:43.000Z</time>
      </trkpt>
      <trkpt lat="47.50534" lon="6.76629">
        <ele>399</ele>
        <time>2016-07-24T06:56:44.000Z</time>
      </trkpt>
      <trkpt lat="47.5053" lon="6.76629">
        <ele>399</ele>
        <time>2016-07-24T06:56:45.000Z</time>
      </trkpt>
      <trkpt lat="47.50526" lon="6.7663">
        <ele>399</ele>
        <time>2016-07-24T06:56:46.000Z</time>
      </trkpt>
      <trkpt lat="47.50521" lon="6.76631">
        <ele>399</ele>
        <time>2016-07-24T06:56:47.000Z</time>
      </trkpt>
      <trkpt lat="47.50517" lon="6.76632">
        <ele>399</ele>
        <time>2016-07-24T06:56:48.000Z</time>
      </trkpt>
      <trkpt lat="47.50512" lon="6.76634">
        <ele>399</ele>
        <time>2016-07-24T06:56:49.000Z</time>
      </trkpt>
      <trkpt lat="47.50508" lon="6.76634">
        <ele>399</ele>
        <time>2016-07-24T06:56:50.000Z</time>
      </trkpt>
      <trkpt lat="47.50503" lon="6.76636">
        <ele>399</ele>
        <time>2016-07-24T06:56:51.000Z</time>
      </trkpt>
      <trkpt lat="47.50498" lon="6.76637">
        <ele>399</ele>
        <time>2016-07-24T06:56:52.000Z</time>
      </trkpt>
      <trkpt lat="47.50493" lon="6.76638">
        <ele>399</ele>
        <time>2016-07-24T06:56:53.000Z</time>
      </trkpt>
      <trkpt lat="47.50487" lon="6.7664">
        <ele>399</ele>
        <time>2016-07-24T06:56:54.000Z</time>
      </trkpt>
      <trkpt lat="47.50483" lon="6.76642">
        <ele>399</ele>
        <time>2016-07-24T06:56:55.000Z</time>
      </trkpt>
      <trkpt lat="47.50478" lon="6.76643">
        <ele>398</ele>
        <time>2016-07-24T06:56:56.000Z</time>
      </trkpt>
      <trkpt lat="47.50473" lon="6.76645">
        <ele>398</ele>
        <time>2016-07-24T06:56:57.000Z</time>
      </trkpt>
      <trkpt lat="47.50469" lon="6.76647">
        <ele>398</ele>
        <time>2016-07-24T06:56:58.000Z</time>
      </trkpt>
      <trkpt lat="47.50464" lon="6.76649">
        <ele>398</ele>
        <time>2016-07-24T06:56:59.000Z</time>
      </trkpt>
      <trkpt lat="47.50459" lon="6.76651">
        <ele>398</ele>
        <time>2016-07-24T06:57:00.000Z</time>
      </trkpt>
      <trkpt lat="47.50455" lon="6.76653">
        <ele>398</ele>
        <time>2016-07-24T06:57:01.000Z</time>
      </trkpt>
      <trkpt lat="47.5045" lon="6.76655">
        <ele>398</ele>
        <time>2016-07-24T06:57:02.000Z</time>
      </trkpt>
      <trkpt lat="47.50446" lon="6.76657">
        <ele>398</ele>
        <time>2016-07-24T06:57:03.000Z</time>
      </trkpt>
      <trkpt lat="47.50441" lon="6.76658">
        <ele>398</ele>
        <time>2016-07-24T06:57:04.000Z</time>
      </trkpt>
      <trkpt lat="47.50437" lon="6.7666">
        <ele>398</ele>
        <time>2016-07-24T06:57:05.000Z</time>
      </trkpt>
      <trkpt lat="47.50432" lon="6.76663">
        <ele>398</ele>
        <time>2016-07-24T06:57:06.000Z</time>
      </trkpt>
      <trkpt lat="47.50428" lon="6.76665">
        <ele>397</ele>
        <time>2016-07-24T06:57:07.000Z</time>
      </trkpt>
      <trkpt lat="47.50424" lon="6.7667">
        <ele>397</ele>
        <time>2016-07-24T06:57:08.000Z</time>
      </trkpt>
      <trkpt lat="47.50421" lon="6.76672">
        <ele>397</ele>
        <time>2016-07-24T06:57:09.000Z</time>
      </trkpt>
      <trkpt lat="47.50416" lon="6.76675">
        <ele>397</ele>
        <time>2016-07-24T06:57:10.000Z</time>
      </trkpt>
      <trkpt lat="47.50412" lon="6.76677">
        <ele>397</ele>
        <time>2016-07-24T06:57:11.000Z</time>
      </trkpt>
      <trkpt lat="47.50408" lon="6.7668">
        <ele>397</ele>
        <time>2016-07-24T06:57:12.000Z</time>
      </trkpt>
      <trkpt lat="47.50403" lon="6.76681">
        <ele>397</ele>
        <time>2016-07-24T06:57:13.000Z</time>
      </trkpt>
      <trkpt lat="47.50399" lon="6.76685">
        <ele>397</ele>
        <time>2016-07-24T06:57:14.000Z</time>
      </trkpt>
      <trkpt lat="47.50395" lon="6.76686">
        <ele>397</ele>
        <time>2016-07-24T06:57:15.000Z</time>
      </trkpt>
      <trkpt lat="47.50391" lon="6.76688">
        <ele>397</ele>
        <time>2016-07-24T06:57:16.000Z</time>
      </trkpt>
      <trkpt lat="47.50387" lon="6.76689">
        <ele>397</ele>
        <time>2016-07-24T06:57:17.000Z</time>
      </trkpt>
      <trkpt lat="47.50383" lon="6.76689">
        <ele>397</ele>
        <time>2016-07-24T06:57:18.000Z</time>
      </trkpt>
      <trkpt lat="47.50378" lon="6.7669">
        <ele>397</ele>
        <time>2016-07-24T06:57:19.000Z</time>
      </trkpt>
      <trkpt lat="47.50374" lon="6.76693">
        <ele>397</ele>
        <time>2016-07-24T06:57:20.000Z</time>
      </trkpt>
      <trkpt lat="47.50371" lon="6.76697">
        <ele>397</ele>
        <time>2016-07-24T06:57:21.000Z</time>
      </trkpt>
      <trkpt lat="47.50367" lon="6.767">
        <ele>397</ele>
        <time>2016-07-24T06:57:22.000Z</time>
      </trkpt>
      <trkpt lat="47.50362" lon="6.76704">
        <ele>397</ele>
        <time>2016-07-24T06:57:23.000Z</time>
      </trkpt>
      <trkpt lat="47.50358" lon="6.76706">
        <ele>397</ele>
        <time>2016-07-24T06:57:24.000Z</time>
      </trkpt>
      <trkpt lat="47.50354" lon="6.76708">
        <ele>397</ele>
        <time>2016-07-24T06:57:25.000Z</time>
      </trkpt>
      <trkpt lat="47.5035" lon="6.7671">
        <ele>398</ele>
        <time>2016-07-24T06:57:26.000Z</time>
      </trkpt>
      <trkpt lat="47.50345" lon="6.76711">
        <ele>398</ele>
        <time>2016-07-24T06:57:27.000Z</time>
      </trkpt>
      <trkpt lat="47.50341" lon="6.76713">
        <ele>398</ele>
        <time>2016-07-24T06:57:28.000Z</time>
      </trkpt>
      <trkpt lat="47.50337" lon="6.76714">
        <ele>398</ele>
        <time>2016-07-24T06:57:29.000Z</time>
      </trkpt>
      <trkpt lat="47.50333" lon="6.76716">
        <ele>398</ele>
        <time>2016-07-24T06:57:30.000Z</time>
      </trkpt>
      <trkpt lat="47.50329" lon="6.76718">
        <ele>398</ele>
        <time>2016-07-24T06:57:31.000Z</time>
      </trkpt>
      <trkpt lat="47.50325" lon="6.7672">
        <ele>398</ele>
        <time>2016-07-24T06:57:32.000Z</time>
      </trkpt>
      <trkpt lat="47.50321" lon="6.76722">
        <ele>398</ele>
        <time>2016-07-24T06:57:33.000Z</time>
      </trkpt>
      <trkpt lat="47.50317" lon="6.76723">
        <ele>398</ele>
        <time>2016-07-24T06:57:34.000Z</time>
      </trkpt>
      <trkpt lat="47.50313" lon="6.76725">
        <ele>398</ele>
        <time>2016-07-24T06:57:35.000Z</time>
      </trkpt>
      <trkpt lat="47.50309" lon="6.76726">
        <ele>398</ele>
        <time>2016-07-24T06:57:36.000Z</time>
      </trkpt>
      <trkpt lat="47.50305" lon="6.76728">
        <ele>398</ele>
        <time>2016-07-24T06:57:37.000Z</time>
      </trkpt>
      <trkpt lat="47.50302" lon="6.76729">
        <ele>398</ele>
        <time>2016-07-24T06:57:38.000Z</time>
      </trkpt>
      <trkpt lat="47.50298" lon="6.76731">
        <ele>399</ele>
        <time>2016-07-24T06:57:39.000Z</time>
      </trkpt>
      <trkpt lat="47.50294" lon="6.76732">
        <ele>399</ele>
        <time>2016-07-24T06:57:40.000Z</time>
      </trkpt>
      <trkpt lat="47.50291" lon="6.76733">
        <ele>399</ele>
        <time>2016-07-24T06:57:41.000Z</time>
      </trkpt>
      <trkpt lat="47.50287" lon="6.76734">
        <ele>399</ele>
        <time>2016-07-24T06:57:42.000Z</time>
      </trkpt>
      <trkpt lat="47.50283" lon="6.76734">
        <ele>399</ele>
        <time>2016-07-24T06:57:43.000Z</time>
      </trkpt>
      <trkpt lat="47.50279" lon="6.76735">
        <ele>399</ele>
        <time>2016-07-24T06:57:44.000Z</time>
      </trkpt>
      <trkpt lat="47.50276" lon="6.76735">
        <ele>399</ele>
        <time>2016-07-24T06:57:45.000Z</time>
      </trkpt>
      <trkpt lat="47.50272" lon="6.76736">
        <ele>399</ele>
        <time>2016-07-24T06:57:46.000Z</time>
      </trkpt>
      <trkpt lat="47.50268" lon="6.76737">
        <ele>399</ele>
        <time>2016-07-24T06:57:47.000Z</time>
      </trkpt>
      <trkpt lat="47.50265" lon="6.76739">
        <ele>399</ele>
        <time>2016-07-24T06:57:48.000Z</time>
      </trkpt>
      <trkpt lat="47.50262" lon="6.76741">
        <ele>399</ele>
        <time>2016-07-24T06:57:49.000Z</time>
      </trkpt>
      <trkpt lat="47.50259" lon="6.76742">
        <ele>399</ele>
        <time>2016-07-24T06:57:50.000Z</time>
      </trkpt>
      <trkpt lat="47.50255" lon="6.76743">
        <ele>400</ele>
        <time>2016-07-24T06:57:51.000Z</time>
      </trkpt>
      <trkpt lat="47.50252" lon="6.76743">
        <ele>400</ele>
        <time>2016-07-24T06:57:52.000Z</time>
      </trkpt>
      <trkpt lat="47.50249" lon="6.76743">
        <ele>401</ele>
        <time>2016-07-24T06:57:53.000Z</time>
      </trkpt>
      <trkpt lat="47.50245" lon="6.76743">
        <ele>401</ele>
        <time>2016-07-24T06:57:54.000Z</time>
      </trkpt>
      <trkpt lat="47.50243" lon="6.76742">
        <ele>401</ele>
        <time>2016-07-24T06:57:55.000Z</time>
      </trkpt>
      <trkpt lat="47.50241" lon="6.7674">
        <ele>401</ele>
        <time>2016-07-24T06:57:56.000Z</time>
      </trkpt>
      <trkpt lat="47.5024" lon="6.76737">
        <ele>401</ele>
        <time>2016-07-24T06:57:57.000Z</time>
      </trkpt>
      <trkpt lat="47.50238" lon="6.76734">
        <ele>401</ele>
        <time>2016-07-24T06:57:58.000Z</time>
      </trkpt>
      <trkpt lat="47.50237" lon="6.7673">
        <ele>401</ele>
        <time>2016-07-24T06:57:59.000Z</time>
      </trkpt>
      <trkpt lat="47.50235" lon="6.76726">
        <ele>401</ele>
        <time>2016-07-24T06:58:00.000Z</time>
      </trkpt>
      <trkpt lat="47.50233" lon="6.76722">
        <ele>402</ele>
        <time>2016-07-24T06:58:01.000Z</time>
      </trkpt>
      <trkpt lat="47.50231" lon="6.76718">
        <ele>402</ele>
        <time>2016-07-24T06:58:02.000Z</time>
      </trkpt>
      <trkpt lat="47.50229" lon="6.76714">
        <ele>402</ele>
        <time>2016-07-24T06:58:03.000Z</time>
      </trkpt>
      <trkpt lat="47.50227" lon="6.7671">
        <ele>402</ele>
        <time>2016-07-24T06:58:04.000Z</time>
      </trkpt>
      <trkpt lat="47.50226" lon="6.76706">
        <ele>402</ele>
        <time>2016-07-24T06:58:05.000Z</time>
      </trkpt>
      <trkpt lat="47.50224" lon="6.76702">
        <ele>402</ele>
        <time>2016-07-24T06:58:06.000Z</time>
      </trkpt>
      <trkpt lat="47.50222" lon="6.76698">
        <ele>402</ele>
        <time>2016-07-24T06:58:07.000Z</time>
      </trkpt>
      <trkpt lat="47.50221" lon="6.76693">
        <ele>402</ele>
        <time>2016-07-24T06:58:08.000Z</time>
      </trkpt>
      <trkpt lat="47.50219" lon="6.76689">
        <ele>402</ele>
        <time>2016-07-24T06:58:09.000Z</time>
      </trkpt>
      <trkpt lat="47.50218" lon="6.76684">
        <ele>402</ele>
        <time>2016-07-24T06:58:10.000Z</time>
      </trkpt>
      <trkpt lat="47.50217" lon="6.7668">
        <ele>402</ele>
        <time>2016-07-24T06:58:11.000Z</time>
      </trkpt>
      <trkpt lat="47.50215" lon="6.76675">
        <ele>402</ele>
        <time>2016-07-24T06:58:12.000Z</time>
      </trkpt>
      <trkpt lat="47.50214" lon="6.76671">
        <ele>402</ele>
        <time>2016-07-24T06:58:13.000Z</time>
      </trkpt>
      <trkpt lat="47.50212" lon="6.76666">
        <ele>402</ele>
        <time>2016-07-24T06:58:14.000Z</time>
      </trkpt>
      <trkpt lat="47.50211" lon="6.76662">
        <ele>402</ele>
        <time>2016-07-24T06:58:15.000Z</time>
      </trkpt>
      <trkpt lat="47.50209" lon="6.76657">
        <ele>402</ele>
        <time>2016-07-24T06:58:16.000Z</time>
      </trkpt>
      <trkpt lat="47.50208" lon="6.76653">
        <ele>402</ele>
        <time>2016-07-24T06:58:17.000Z</time>
      </trkpt>
      <trkpt lat="47.50206" lon="6.76648">
        <ele>402</ele>
        <time>2016-07-24T06:58:18.000Z</time>
      </trkpt>
      <trkpt lat="47.50204" lon="6.76643">
        <ele>402</ele>
        <time>2016-07-24T06:58:19.000Z</time>
      </trkpt>
      <trkpt lat="47.50202" lon="6.76638">
        <ele>402</ele>
        <time>2016-07-24T06:58:20.000Z</time>
      </trkpt>
      <trkpt lat="47.50201" lon="6.76633">
        <ele>402</ele>
        <time>2016-07-24T06:58:21.000Z</time>
      </trkpt>
      <trkpt lat="47.50199" lon="6.76628">
        <ele>402</ele>
        <time>2016-07-24T06:58:22.000Z</time>
      </trkpt>
      <trkpt lat="47.50197" lon="6.76624">
        <ele>402</ele>
        <time>2016-07-24T06:58:23.000Z</time>
      </trkpt>
      <trkpt lat="47.50195" lon="6.76619">
        <ele>403</ele>
        <time>2016-07-24T06:58:24.000Z</time>
      </trkpt>
      <trkpt lat="47.50192" lon="6.76614">
        <ele>403</ele>
        <time>2016-07-24T06:58:25.000Z</time>
      </trkpt>
      <trkpt lat="47.5019" lon="6.76609">
        <ele>403</ele>
        <time>2016-07-24T06:58:26.000Z</time>
      </trkpt>
      <trkpt lat="47.50187" lon="6.76605">
        <ele>403</ele>
        <time>2016-07-24T06:58:27.000Z</time>
      </trkpt>
      <trkpt lat="47.50186" lon="6.76601">
        <ele>404</ele>
        <time>2016-07-24T06:58:28.000Z</time>
      </trkpt>
      <trkpt lat="47.50185" lon="6.76597">
        <ele>404</ele>
        <time>2016-07-24T06:58:29.000Z</time>
      </trkpt>
      <trkpt lat="47.50187" lon="6.76592">
        <ele>404</ele>
        <time>2016-07-24T06:58:35.000Z</time>
      </trkpt>
      <trkpt lat="47.50187" lon="6.76589">
        <ele>404</ele>
        <time>2016-07-24T06:58:36.000Z</time>
      </trkpt>
      <trkpt lat="47.50187" lon="6.76583">
        <ele>404</ele>
        <time>2016-07-24T06:58:38.000Z</time>
      </trkpt>
      <trkpt lat="47.50187" lon="6.7658">
        <ele>403</ele>
        <time>2016-07-24T06:58:39.000Z</time>
      </trkpt>
      <trkpt lat="47.5019" lon="6.76579">
        <ele>403</ele>
        <time>2016-07-24T06:58:40.000Z</time>
      </trkpt>
      <trkpt lat="47.50194" lon="6.76579">
        <ele>403</ele>
        <time>2016-07-24T06:58:41.000Z</time>
      </trkpt>
      <trkpt lat="47.50198" lon="6.7658">
        <ele>402</ele>
        <time>2016-07-24T06:58:42.000Z</time>
      </trkpt>
      <trkpt lat="47.50202" lon="6.76582">
        <ele>402</ele>
        <time>2016-07-24T06:58:43.000Z</time>
      </trkpt>
      <trkpt lat="47.50205" lon="6.76583">
        <ele>402</ele>
        <time>2016-07-24T06:58:44.000Z</time>
      </trkpt>
      <trkpt lat="47.50209" lon="6.76584">
        <ele>402</ele>
        <time>2016-07-24T06:58:45.000Z</time>
      </trkpt>
      <trkpt lat="47.50212" lon="6.76583">
        <ele>401</ele>
        <time>2016-07-24T06:58:46.000Z</time>
      </trkpt>
      <trkpt lat="47.50215" lon="6.76578">
        <ele>401</ele>
        <time>2016-07-24T06:58:47.000Z</time>
      </trkpt>
      <trkpt lat="47.50218" lon="6.76571">
        <ele>401</ele>
        <time>2016-07-24T06:58:48.000Z</time>
      </trkpt>
      <trkpt lat="47.50219" lon="6.76563">
        <ele>400</ele>
        <time>2016-07-24T06:58:49.000Z</time>
      </trkpt>
      <trkpt lat="47.50219" lon="6.76555">
        <ele>400</ele>
        <time>2016-07-24T06:58:50.000Z</time>
      </trkpt>
      <trkpt lat="47.50218" lon="6.76548">
        <ele>400</ele>
        <time>2016-07-24T06:58:51.000Z</time>
      </trkpt>
      <trkpt lat="47.50218" lon="6.76542">
        <ele>400</ele>
        <time>2016-07-24T06:58:52.000Z</time>
      </trkpt>
      <trkpt lat="47.50217" lon="6.76535">
        <ele>400</ele>
        <time>2016-07-24T06:58:53.000Z</time>
      </trkpt>
      <trkpt lat="47.50216" lon="6.76529">
        <ele>400</ele>
        <time>2016-07-24T06:58:54.000Z</time>
      </trkpt>
      <trkpt lat="47.50215" lon="6.76522">
        <ele>400</ele>
        <time>2016-07-24T06:58:55.000Z</time>
      </trkpt>
      <trkpt lat="47.50207" lon="6.76502">
        <ele>400</ele>
        <time>2016-07-24T06:58:56.000Z</time>
      </trkpt>
      <trkpt lat="47.502" lon="6.76489">
        <ele>397</ele>
        <time>2016-07-24T06:58:57.000Z</time>
      </trkpt>
      <trkpt lat="47.50199" lon="6.76476">
        <ele>397</ele>
        <time>2016-07-24T06:58:58.000Z</time>
      </trkpt>
      <trkpt lat="47.50198" lon="6.76465">
        <ele>396</ele>
        <time>2016-07-24T06:58:59.000Z</time>
      </trkpt>
      <trkpt lat="47.50193" lon="6.76454">
        <ele>396</ele>
        <time>2016-07-24T06:59:00.000Z</time>
      </trkpt>
      <trkpt lat="47.5019" lon="6.76445">
        <ele>396</ele>
        <time>2016-07-24T06:59:01.000Z</time>
      </trkpt>
      <trkpt lat="47.50188" lon="6.76437">
        <ele>396</ele>
        <time>2016-07-24T06:59:02.000Z</time>
      </trkpt>
      <trkpt lat="47.50189" lon="6.7643">
        <ele>396</ele>
        <time>2016-07-24T06:59:03.000Z</time>
      </trkpt>
      <trkpt lat="47.50189" lon="6.76425">
        <ele>396</ele>
        <time>2016-07-24T06:59:04.000Z</time>
      </trkpt>
      <trkpt lat="47.5019" lon="6.7642">
        <ele>396</ele>
        <time>2016-07-24T06:59:05.000Z</time>
      </trkpt>
      <trkpt lat="47.50185" lon="6.76413">
        <ele>394</ele>
        <time>2016-07-24T06:59:06.000Z</time>
      </trkpt>
      <trkpt lat="47.50182" lon="6.76406">
        <ele>394</ele>
        <time>2016-07-24T06:59:07.000Z</time>
      </trkpt>
      <trkpt lat="47.50179" lon="6.76399">
        <ele>393</ele>
        <time>2016-07-24T06:59:08.000Z</time>
      </trkpt>
      <trkpt lat="47.50176" lon="6.7639">
        <ele>392</ele>
        <time>2016-07-24T06:59:09.000Z</time>
      </trkpt>
      <trkpt lat="47.50172" lon="6.7638">
        <ele>391</ele>
        <time>2016-07-24T06:59:10.000Z</time>
      </trkpt>
      <trkpt lat="47.50169" lon="6.76372">
        <ele>391</ele>
        <time>2016-07-24T06:59:11.000Z</time>
      </trkpt>
      <trkpt lat="47.5017" lon="6.76364">
        <ele>391</ele>
        <time>2016-07-24T06:59:12.000Z</time>
      </trkpt>
      <trkpt lat="47.50169" lon="6.76354">
        <ele>390</ele>
        <time>2016-07-24T06:59:13.000Z</time>
      </trkpt>
      <trkpt lat="47.50169" lon="6.76348">
        <ele>390</ele>
        <time>2016-07-24T06:59:14.000Z</time>
      </trkpt>
      <trkpt lat="47.50161" lon="6.76337">
        <ele>394</ele>
        <time>2016-07-24T06:59:15.000Z</time>
      </trkpt>
      <trkpt lat="47.50166" lon="6.76325">
        <ele>393</ele>
        <time>2016-07-24T06:59:16.000Z</time>
      </trkpt>
      <trkpt lat="47.50167" lon="6.76317">
        <ele>388</ele>
        <time>2016-07-24T06:59:17.000Z</time>
      </trkpt>
      <trkpt lat="47.50169" lon="6.7631">
        <ele>387</ele>
        <time>2016-07-24T06:59:18.000Z</time>
      </trkpt>
      <trkpt lat="47.50168" lon="6.76301">
        <ele>387</ele>
        <time>2016-07-24T06:59:19.000Z</time>
      </trkpt>
      <trkpt lat="47.50167" lon="6.76291">
        <ele>394</ele>
        <time>2016-07-24T06:59:20.000Z</time>
      </trkpt>
      <trkpt lat="47.50165" lon="6.76282">
        <ele>393</ele>
        <time>2016-07-24T06:59:21.000Z</time>
      </trkpt>
      <trkpt lat="47.5016" lon="6.76271">
        <ele>392</ele>
        <time>2016-07-24T06:59:22.000Z</time>
      </trkpt>
      <trkpt lat="47.50156" lon="6.76261">
        <ele>391</ele>
        <time>2016-07-24T06:59:23.000Z</time>
      </trkpt>
      <trkpt lat="47.50153" lon="6.76251">
        <ele>391</ele>
        <time>2016-07-24T06:59:24.000Z</time>
      </trkpt>
      <trkpt lat="47.50152" lon="6.76241">
        <ele>388</ele>
        <time>2016-07-24T06:59:25.000Z</time>
      </trkpt>
      <trkpt lat="47.50153" lon="6.76229">
        <ele>389</ele>
        <time>2016-07-24T06:59:26.000Z</time>
      </trkpt>
      <trkpt lat="47.5015" lon="6.76217">
        <ele>389</ele>
        <time>2016-07-24T06:59:27.000Z</time>
      </trkpt>
      <trkpt lat="47.50144" lon="6.76203">
        <ele>388</ele>
        <time>2016-07-24T06:59:28.000Z</time>
      </trkpt>
      <trkpt lat="47.50143" lon="6.76189">
        <ele>387</ele>
        <time>2016-07-24T06:59:29.000Z</time>
      </trkpt>
      <trkpt lat="47.50142" lon="6.76179">
        <ele>386</ele>
        <time>2016-07-24T06:59:30.000Z</time>
      </trkpt>
      <trkpt lat="47.50142" lon="6.76171">
        <ele>386</ele>
        <time>2016-07-24T06:59:31.000Z</time>
      </trkpt>
      <trkpt lat="47.50146" lon="6.76163">
        <ele>382</ele>
        <time>2016-07-24T06:59:32.000Z</time>
      </trkpt>
      <trkpt lat="47.50146" lon="6.76153">
        <ele>382</ele>
        <time>2016-07-24T06:59:33.000Z</time>
      </trkpt>
      <trkpt lat="47.50146" lon="6.76142">
        <ele>382</ele>
        <time>2016-07-24T06:59:34.000Z</time>
      </trkpt>
      <trkpt lat="47.50146" lon="6.76133">
        <ele>382</ele>
        <time>2016-07-24T06:59:35.000Z</time>
      </trkpt>
      <trkpt lat="47.50147" lon="6.76126">
        <ele>382</ele>
        <time>2016-07-24T06:59:36.000Z</time>
      </trkpt>
      <trkpt lat="47.50143" lon="6.76111">
        <ele>382</ele>
        <time>2016-07-24T06:59:37.000Z</time>
      </trkpt>
      <trkpt lat="47.50136" lon="6.76097">
        <ele>382</ele>
        <time>2016-07-24T06:59:38.000Z</time>
      </trkpt>
      <trkpt lat="47.50131" lon="6.7608">
        <ele>379</ele>
        <time>2016-07-24T06:59:39.000Z</time>
      </trkpt>
      <trkpt lat="47.50127" lon="6.76071">
        <ele>379</ele>
        <time>2016-07-24T06:59:40.000Z</time>
      </trkpt>
      <trkpt lat="47.50128" lon="6.76055">
        <ele>379</ele>
        <time>2016-07-24T06:59:41.000Z</time>
      </trkpt>
      <trkpt lat="47.50128" lon="6.76042">
        <ele>378</ele>
        <time>2016-07-24T06:59:42.000Z</time>
      </trkpt>
      <trkpt lat="47.50129" lon="6.76024">
        <ele>378</ele>
        <time>2016-07-24T06:59:43.000Z</time>
      </trkpt>
      <trkpt lat="47.50124" lon="6.76013">
        <ele>378</ele>
        <time>2016-07-24T06:59:44.000Z</time>
      </trkpt>
      <trkpt lat="47.5012" lon="6.76006">
        <ele>378</ele>
        <time>2016-07-24T06:59:45.000Z</time>
      </trkpt>
      <trkpt lat="47.50117" lon="6.75998">
        <ele>374</ele>
        <time>2016-07-24T06:59:46.000Z</time>
      </trkpt>
      <trkpt lat="47.50109" lon="6.7599">
        <ele>375</ele>
        <time>2016-07-24T06:59:47.000Z</time>
      </trkpt>
      <trkpt lat="47.50103" lon="6.75981">
        <ele>375</ele>
        <time>2016-07-24T06:59:48.000Z</time>
      </trkpt>
      <trkpt lat="47.50101" lon="6.75973">
        <ele>374</ele>
        <time>2016-07-24T06:59:49.000Z</time>
      </trkpt>
      <trkpt lat="47.50098" lon="6.75964">
        <ele>374</ele>
        <time>2016-07-24T06:59:50.000Z</time>
      </trkpt>
      <trkpt lat="47.5009" lon="6.75952">
        <ele>373</ele>
        <time>2016-07-24T06:59:51.000Z</time>
      </trkpt>
      <trkpt lat="47.50082" lon="6.75941">
        <ele>377</ele>
        <time>2016-07-24T06:59:52.000Z</time>
      </trkpt>
      <trkpt lat="47.50077" lon="6.75931">
        <ele>376</ele>
        <time>2016-07-24T06:59:53.000Z</time>
      </trkpt>
      <trkpt lat="47.5007" lon="6.75922">
        <ele>376</ele>
        <time>2016-07-24T06:59:54.000Z</time>
      </trkpt>
      <trkpt lat="47.50068" lon="6.75912">
        <ele>375</ele>
        <time>2016-07-24T06:59:55.000Z</time>
      </trkpt>
      <trkpt lat="47.50058" lon="6.75903">
        <ele>375</ele>
        <time>2016-07-24T06:59:56.000Z</time>
      </trkpt>
      <trkpt lat="47.50051" lon="6.75895">
        <ele>376</ele>
        <time>2016-07-24T06:59:57.000Z</time>
      </trkpt>
      <trkpt lat="47.50044" lon="6.75885">
        <ele>376</ele>
        <time>2016-07-24T06:59:58.000Z</time>
      </trkpt>
      <trkpt lat="47.50038" lon="6.75877">
        <ele>376</ele>
        <time>2016-07-24T06:59:59.000Z</time>
      </trkpt>
      <trkpt lat="47.50038" lon="6.7587">
        <ele>376</ele>
        <time>2016-07-24T07:00:00.000Z</time>
      </trkpt>
      <trkpt lat="47.50033" lon="6.75862">
        <ele>376</ele>
        <time>2016-07-24T07:00:01.000Z</time>
      </trkpt>
      <trkpt lat="47.50028" lon="6.75853">
        <ele>377</ele>
        <time>2016-07-24T07:00:02.000Z</time>
      </trkpt>
      <trkpt lat="47.50017" lon="6.7584">
        <ele>377</ele>
        <time>2016-07-24T07:00:03.000Z</time>
      </trkpt>
      <trkpt lat="47.5001" lon="6.75828">
        <ele>377</ele>
        <time>2016-07-24T07:00:04.000Z</time>
      </trkpt>
      <trkpt lat="47.50004" lon="6.75819">
        <ele>377</ele>
        <time>2016-07-24T07:00:05.000Z</time>
      </trkpt>
      <trkpt lat="47.50002" lon="6.75808">
        <ele>376</ele>
        <time>2016-07-24T07:00:06.000Z</time>
      </trkpt>
      <trkpt lat="47.49996" lon="6.75796">
        <ele>375</ele>
        <time>2016-07-24T07:00:07.000Z</time>
      </trkpt>
      <trkpt lat="47.49975" lon="6.75785">
        <ele>375</ele>
        <time>2016-07-24T07:00:08.000Z</time>
      </trkpt>
      <trkpt lat="47.49968" lon="6.75775">
        <ele>374</ele>
        <time>2016-07-24T07:00:09.000Z</time>
      </trkpt>
      <trkpt lat="47.49961" lon="6.75766">
        <ele>374</ele>
        <time>2016-07-24T07:00:10.000Z</time>
      </trkpt>
      <trkpt lat="47.49954" lon="6.75757">
        <ele>373</ele>
        <time>2016-07-24T07:00:11.000Z</time>
      </trkpt>
      <trkpt lat="47.49949" lon="6.75747">
        <ele>371</ele>
        <time>2016-07-24T07:00:12.000Z</time>
      </trkpt>
      <trkpt lat="47.49942" lon="6.7574">
        <ele>370</ele>
        <time>2016-07-24T07:00:13.000Z</time>
      </trkpt>
      <trkpt lat="47.49937" lon="6.75732">
        <ele>370</ele>
        <time>2016-07-24T07:00:14.000Z</time>
      </trkpt>
      <trkpt lat="47.49933" lon="6.75726">
        <ele>370</ele>
        <time>2016-07-24T07:00:15.000Z</time>
      </trkpt>
      <trkpt lat="47.49925" lon="6.75721">
        <ele>370</ele>
        <time>2016-07-24T07:00:16.000Z</time>
      </trkpt>
      <trkpt lat="47.49917" lon="6.75719">
        <ele>370</ele>
        <time>2016-07-24T07:00:17.000Z</time>
      </trkpt>
      <trkpt lat="47.4991" lon="6.75717">
        <ele>365</ele>
        <time>2016-07-24T07:00:18.000Z</time>
      </trkpt>
      <trkpt lat="47.49905" lon="6.75716">
        <ele>365</ele>
        <time>2016-07-24T07:00:19.000Z</time>
      </trkpt>
      <trkpt lat="47.49897" lon="6.75715">
        <ele>364</ele>
        <time>2016-07-24T07:00:20.000Z</time>
      </trkpt>
      <trkpt lat="47.49888" lon="6.75714">
        <ele>364</ele>
        <time>2016-07-24T07:00:21.000Z</time>
      </trkpt>
      <trkpt lat="47.49877" lon="6.75714">
        <ele>363</ele>
        <time>2016-07-24T07:00:22.000Z</time>
      </trkpt>
      <trkpt lat="47.49866" lon="6.75713">
        <ele>362</ele>
        <time>2016-07-24T07:00:23.000Z</time>
      </trkpt>
      <trkpt lat="47.49855" lon="6.75713">
        <ele>361</ele>
        <time>2016-07-24T07:00:24.000Z</time>
      </trkpt>
      <trkpt lat="47.49844" lon="6.75713">
        <ele>361</ele>
        <time>2016-07-24T07:00:25.000Z</time>
      </trkpt>
      <trkpt lat="47.49832" lon="6.75714">
        <ele>353</ele>
        <time>2016-07-24T07:00:26.000Z</time>
      </trkpt>
      <trkpt lat="47.49822" lon="6.75714">
        <ele>353</ele>
        <time>2016-07-24T07:00:27.000Z</time>
      </trkpt>
      <trkpt lat="47.49813" lon="6.7572">
        <ele>353</ele>
        <time>2016-07-24T07:00:28.000Z</time>
      </trkpt>
      <trkpt lat="47.49805" lon="6.75723">
        <ele>352</ele>
        <time>2016-07-24T07:00:29.000Z</time>
      </trkpt>
      <trkpt lat="47.49795" lon="6.75724">
        <ele>352</ele>
        <time>2016-07-24T07:00:30.000Z</time>
      </trkpt>
      <trkpt lat="47.49785" lon="6.75724">
        <ele>351</ele>
        <time>2016-07-24T07:00:31.000Z</time>
      </trkpt>
      <trkpt lat="47.49774" lon="6.7573">
        <ele>351</ele>
        <time>2016-07-24T07:00:32.000Z</time>
      </trkpt>
      <trkpt lat="47.49764" lon="6.75732">
        <ele>350</ele>
        <time>2016-07-24T07:00:33.000Z</time>
      </trkpt>
      <trkpt lat="47.49753" lon="6.75744">
        <ele>351</ele>
        <time>2016-07-24T07:00:34.000Z</time>
      </trkpt>
      <trkpt lat="47.49743" lon="6.75745">
        <ele>348</ele>
        <time>2016-07-24T07:00:35.000Z</time>
      </trkpt>
      <trkpt lat="47.49735" lon="6.75751">
        <ele>352</ele>
        <time>2016-07-24T07:00:36.000Z</time>
      </trkpt>
      <trkpt lat="47.49726" lon="6.75754">
        <ele>353</ele>
        <time>2016-07-24T07:00:37.000Z</time>
      </trkpt>
      <trkpt lat="47.49719" lon="6.75755">
        <ele>353</ele>
        <time>2016-07-24T07:00:38.000Z</time>
      </trkpt>
      <trkpt lat="47.49711" lon="6.75759">
        <ele>352</ele>
        <time>2016-07-24T07:00:39.000Z</time>
      </trkpt>
      <trkpt lat="47.49703" lon="6.75762">
        <ele>352</ele>
        <time>2016-07-24T07:00:40.000Z</time>
      </trkpt>
      <trkpt lat="47.49696" lon="6.75765">
        <ele>352</ele>
        <time>2016-07-24T07:00:41.000Z</time>
      </trkpt>
      <trkpt lat="47.49688" lon="6.75767">
        <ele>351</ele>
        <time>2016-07-24T07:00:42.000Z</time>
      </trkpt>
      <trkpt lat="47.49681" lon="6.75769">
        <ele>351</ele>
        <time>2016-07-24T07:00:43.000Z</time>
      </trkpt>
      <trkpt lat="47.49674" lon="6.75768">
        <ele>350</ele>
        <time>2016-07-24T07:00:44.000Z</time>
      </trkpt>
      <trkpt lat="47.49668" lon="6.75769">
        <ele>350</ele>
        <time>2016-07-24T07:00:45.000Z</time>
      </trkpt>
      <trkpt lat="47.4966" lon="6.7577">
        <ele>346</ele>
        <time>2016-07-24T07:00:46.000Z</time>
      </trkpt>
      <trkpt lat="47.49654" lon="6.75769">
        <ele>346</ele>
        <time>2016-07-24T07:00:47.000Z</time>
      </trkpt>
      <trkpt lat="47.49646" lon="6.75767">
        <ele>345</ele>
        <time>2016-07-24T07:00:48.000Z</time>
      </trkpt>
      <trkpt lat="47.4964" lon="6.75766">
        <ele>345</ele>
        <time>2016-07-24T07:00:49.000Z</time>
      </trkpt>
      <trkpt lat="47.49632" lon="6.75766">
        <ele>345</ele>
        <time>2016-07-24T07:00:50.000Z</time>
      </trkpt>
      <trkpt lat="47.49624" lon="6.75766">
        <ele>344</ele>
        <time>2016-07-24T07:00:51.000Z</time>
      </trkpt>
      <trkpt lat="47.4962" lon="6.75766">
        <ele>344</ele>
        <time>2016-07-24T07:00:52.000Z</time>
      </trkpt>
      <trkpt lat="47.49615" lon="6.75764">
        <ele>343</ele>
        <time>2016-07-24T07:00:53.000Z</time>
      </trkpt>
      <trkpt lat="47.49612" lon="6.75764">
        <ele>343</ele>
        <time>2016-07-24T07:00:54.000Z</time>
      </trkpt>
      <trkpt lat="47.49606" lon="6.75764">
        <ele>342</ele>
        <time>2016-07-24T07:00:55.000Z</time>
      </trkpt>
      <trkpt lat="47.49601" lon="6.75764">
        <ele>341</ele>
        <time>2016-07-24T07:00:56.000Z</time>
      </trkpt>
      <trkpt lat="47.49597" lon="6.75761">
        <ele>340</ele>
        <time>2016-07-24T07:00:57.000Z</time>
      </trkpt>
      <trkpt lat="47.49593" lon="6.7576">
        <ele>339</ele>
        <time>2016-07-24T07:00:58.000Z</time>
      </trkpt>
      <trkpt lat="47.49589" lon="6.75757">
        <ele>338</ele>
        <time>2016-07-24T07:00:59.000Z</time>
      </trkpt>
      <trkpt lat="47.49587" lon="6.75754">
        <ele>336</ele>
        <time>2016-07-24T07:01:00.000Z</time>
      </trkpt>
      <trkpt lat="47.49584" lon="6.75751">
        <ele>335</ele>
        <time>2016-07-24T07:01:01.000Z</time>
      </trkpt>
      <trkpt lat="47.49582" lon="6.75748">
        <ele>333</ele>
        <time>2016-07-24T07:01:02.000Z</time>
      </trkpt>
      <trkpt lat="47.49579" lon="6.75744">
        <ele>332</ele>
        <time>2016-07-24T07:01:03.000Z</time>
      </trkpt>
      <trkpt lat="47.49576" lon="6.75743">
        <ele>331</ele>
        <time>2016-07-24T07:01:04.000Z</time>
      </trkpt>
      <trkpt lat="47.49575" lon="6.75742">
        <ele>330</ele>
        <time>2016-07-24T07:01:05.000Z</time>
      </trkpt>
      <trkpt lat="47.49578" lon="6.75743">
        <ele>331</ele>
        <time>2016-07-24T07:01:08.000Z</time>
      </trkpt>
      <trkpt lat="47.4958" lon="6.75743">
        <ele>331</ele>
        <time>2016-07-24T07:01:09.000Z</time>
      </trkpt>
      <trkpt lat="47.49583" lon="6.75743">
        <ele>332</ele>
        <time>2016-07-24T07:01:10.000Z</time>
      </trkpt>
      <trkpt lat="47.49585" lon="6.75744">
        <ele>333</ele>
        <time>2016-07-24T07:01:11.000Z</time>
      </trkpt>
      <trkpt lat="47.4959" lon="6.75741">
        <ele>333</ele>
        <time>2016-07-24T07:01:12.000Z</time>
      </trkpt>
      <trkpt lat="47.49592" lon="6.75735">
        <ele>333</ele>
        <time>2016-07-24T07:01:13.000Z</time>
      </trkpt>
      <trkpt lat="47.49596" lon="6.7573">
        <ele>332</ele>
        <time>2016-07-24T07:01:14.000Z</time>
      </trkpt>
      <trkpt lat="47.49599" lon="6.75726">
        <ele>332</ele>
        <time>2016-07-24T07:01:15.000Z</time>
      </trkpt>
      <trkpt lat="47.49602" lon="6.75713">
        <ele>331</ele>
        <time>2016-07-24T07:01:16.000Z</time>
      </trkpt>
      <trkpt lat="47.49599" lon="6.75702">
        <ele>330</ele>
        <time>2016-07-24T07:01:17.000Z</time>
      </trkpt>
      <trkpt lat="47.49596" lon="6.75695">
        <ele>329</ele>
        <time>2016-07-24T07:01:18.000Z</time>
      </trkpt>
      <trkpt lat="47.49593" lon="6.75691">
        <ele>328</ele>
        <time>2016-07-24T07:01:19.000Z</time>
      </trkpt>
      <trkpt lat="47.49588" lon="6.75685">
        <ele>326</ele>
        <time>2016-07-24T07:01:20.000Z</time>
      </trkpt>
      <trkpt lat="47.49583" lon="6.75677">
        <ele>323</ele>
        <time>2016-07-24T07:01:21.000Z</time>
      </trkpt>
      <trkpt lat="47.49576" lon="6.75669">
        <ele>322</ele>
        <time>2016-07-24T07:01:22.000Z</time>
      </trkpt>
      <trkpt lat="47.4957" lon="6.75669">
        <ele>323</ele>
        <time>2016-07-24T07:01:23.000Z</time>
      </trkpt>
      <trkpt lat="47.49566" lon="6.75675">
        <ele>323</ele>
        <time>2016-07-24T07:01:24.000Z</time>
      </trkpt>
      <trkpt lat="47.49562" lon="6.75681">
        <ele>324</ele>
        <time>2016-07-24T07:01:25.000Z</time>
      </trkpt>
      <trkpt lat="47.49558" lon="6.75686">
        <ele>324</ele>
        <time>2016-07-24T07:01:26.000Z</time>
      </trkpt>
      <trkpt lat="47.49553" lon="6.75691">
        <ele>324</ele>
        <time>2016-07-24T07:01:27.000Z</time>
      </trkpt>
      <trkpt lat="47.49549" lon="6.75697">
        <ele>325</ele>
        <time>2016-07-24T07:01:28.000Z</time>
      </trkpt>
      <trkpt lat="47.49545" lon="6.75701">
        <ele>325</ele>
        <time>2016-07-24T07:01:29.000Z</time>
      </trkpt>
      <trkpt lat="47.49541" lon="6.75706">
        <ele>325</ele>
        <time>2016-07-24T07:01:30.000Z</time>
      </trkpt>
      <trkpt lat="47.49536" lon="6.75709">
        <ele>325</ele>
        <time>2016-07-24T07:01:31.000Z</time>
      </trkpt>
      <trkpt lat="47.49531" lon="6.75714">
        <ele>325</ele>
        <time>2016-07-24T07:01:32.000Z</time>
      </trkpt>
      <trkpt lat="47.49527" lon="6.75718">
        <ele>325</ele>
        <time>2016-07-24T07:01:33.000Z</time>
      </trkpt>
      <trkpt lat="47.49522" lon="6.75722">
        <ele>325</ele>
        <time>2016-07-24T07:01:34.000Z</time>
      </trkpt>
      <trkpt lat="47.49517" lon="6.75726">
        <ele>325</ele>
        <time>2016-07-24T07:01:35.000Z</time>
      </trkpt>
      <trkpt lat="47.49512" lon="6.7573">
        <ele>325</ele>
        <time>2016-07-24T07:01:36.000Z</time>
      </trkpt>
      <trkpt lat="47.49507" lon="6.75735">
        <ele>325</ele>
        <time>2016-07-24T07:01:37.000Z</time>
      </trkpt>
      <trkpt lat="47.49502" lon="6.75736">
        <ele>324</ele>
        <time>2016-07-24T07:01:38.000Z</time>
      </trkpt>
      <trkpt lat="47.49496" lon="6.75737">
        <ele>323</ele>
        <time>2016-07-24T07:01:39.000Z</time>
      </trkpt>
      <trkpt lat="47.49491" lon="6.75738">
        <ele>323</ele>
        <time>2016-07-24T07:01:40.000Z</time>
      </trkpt>
      <trkpt lat="47.49486" lon="6.75739">
        <ele>322</ele>
        <time>2016-07-24T07:01:41.000Z</time>
      </trkpt>
      <trkpt lat="47.4948" lon="6.75737">
        <ele>322</ele>
        <time>2016-07-24T07:01:42.000Z</time>
      </trkpt>
      <trkpt lat="47.49477" lon="6.75729">
        <ele>322</ele>
        <time>2016-07-24T07:01:43.000Z</time>
      </trkpt>
      <trkpt lat="47.49475" lon="6.7572">
        <ele>322</ele>
        <time>2016-07-24T07:01:44.000Z</time>
      </trkpt>
      <trkpt lat="47.49473" lon="6.75713">
        <ele>321</ele>
        <time>2016-07-24T07:01:45.000Z</time>
      </trkpt>
      <trkpt lat="47.4947" lon="6.75706">
        <ele>321</ele>
        <time>2016-07-24T07:01:46.000Z</time>
      </trkpt>
      <trkpt lat="47.49468" lon="6.75699">
        <ele>321</ele>
        <time>2016-07-24T07:01:47.000Z</time>
      </trkpt>
      <trkpt lat="47.49464" lon="6.75695">
        <ele>321</ele>
        <time>2016-07-24T07:01:48.000Z</time>
      </trkpt>
      <trkpt lat="47.49458" lon="6.75692">
        <ele>321</ele>
        <time>2016-07-24T07:01:49.000Z</time>
      </trkpt>
      <trkpt lat="47.49453" lon="6.75695">
        <ele>321</ele>
        <time>2016-07-24T07:01:50.000Z</time>
      </trkpt>
      <trkpt lat="47.49449" lon="6.75698">
        <ele>321</ele>
        <time>2016-07-24T07:01:51.000Z</time>
      </trkpt>
      <trkpt lat="47.49443" lon="6.75699">
        <ele>321</ele>
        <time>2016-07-24T07:01:52.000Z</time>
      </trkpt>
      <trkpt lat="47.49438" lon="6.75697">
        <ele>321</ele>
        <time>2016-07-24T07:01:53.000Z</time>
      </trkpt>
      <trkpt lat="47.49434" lon="6.75696">
        <ele>320</ele>
        <time>2016-07-24T07:01:54.000Z</time>
      </trkpt>
      <trkpt lat="47.4943" lon="6.75693">
        <ele>320</ele>
        <time>2016-07-24T07:01:55.000Z</time>
      </trkpt>
      <trkpt lat="47.49426" lon="6.75687">
        <ele>320</ele>
        <time>2016-07-24T07:01:56.000Z</time>
      </trkpt>
      <trkpt lat="47.49429" lon="6.75685">
        <ele>320</ele>
        <time>2016-07-24T07:01:57.000Z</time>
      </trkpt>
      <trkpt lat="47.49427" lon="6.75677">
        <ele>320</ele>
        <time>2016-07-24T07:01:58.000Z</time>
      </trkpt>
      <trkpt lat="47.49422" lon="6.75674">
        <ele>320</ele>
        <time>2016-07-24T07:01:59.000Z</time>
      </trkpt>
      <trkpt lat="47.4942" lon="6.75675">
        <ele>320</ele>
        <time>2016-07-24T07:02:00.000Z</time>
      </trkpt>
      <trkpt lat="47.49416" lon="6.75677">
        <ele>319</ele>
        <time>2016-07-24T07:02:01.000Z</time>
      </trkpt>
      <trkpt lat="47.49412" lon="6.75678">
        <ele>319</ele>
        <time>2016-07-24T07:02:02.000Z</time>
      </trkpt>
      <trkpt lat="47.49408" lon="6.7568">
        <ele>319</ele>
        <time>2016-07-24T07:02:03.000Z</time>
      </trkpt>
      <trkpt lat="47.49403" lon="6.75682">
        <ele>319</ele>
        <time>2016-07-24T07:02:04.000Z</time>
      </trkpt>
      <trkpt lat="47.49398" lon="6.75686">
        <ele>319</ele>
        <time>2016-07-24T07:02:05.000Z</time>
      </trkpt>
      <trkpt lat="47.49396" lon="6.75686">
        <ele>319</ele>
        <time>2016-07-24T07:02:06.000Z</time>
      </trkpt>
      <trkpt lat="47.49392" lon="6.75686">
        <ele>319</ele>
        <time>2016-07-24T07:02:07.000Z</time>
      </trkpt>
      <trkpt lat="47.49388" lon="6.75683">
        <ele>319</ele>
        <time>2016-07-24T07:02:08.000Z</time>
      </trkpt>
      <trkpt lat="47.49384" lon="6.75686">
        <ele>319</ele>
        <time>2016-07-24T07:02:09.000Z</time>
      </trkpt>
      <trkpt lat="47.4938" lon="6.75687">
        <ele>319</ele>
        <time>2016-07-24T07:02:10.000Z</time>
      </trkpt>
      <trkpt lat="47.49377" lon="6.75689">
        <ele>319</ele>
        <time>2016-07-24T07:02:11.000Z</time>
      </trkpt>
      <trkpt lat="47.49374" lon="6.75691">
        <ele>319</ele>
        <time>2016-07-24T07:02:12.000Z</time>
      </trkpt>
      <trkpt lat="47.49371" lon="6.75697">
        <ele>319</ele>
        <time>2016-07-24T07:02:13.000Z</time>
      </trkpt>
      <trkpt lat="47.49367" lon="6.757">
        <ele>319</ele>
        <time>2016-07-24T07:02:14.000Z</time>
      </trkpt>
      <trkpt lat="47.49365" lon="6.75706">
        <ele>319</ele>
        <time>2016-07-24T07:02:15.000Z</time>
      </trkpt>
      <trkpt lat="47.49362" lon="6.75711">
        <ele>319</ele>
        <time>2016-07-24T07:02:17.000Z</time>
      </trkpt>
      <trkpt lat="47.49359" lon="6.75713">
        <ele>319</ele>
        <time>2016-07-24T07:02:18.000Z</time>
      </trkpt>
      <trkpt lat="47.49356" lon="6.75714">
        <ele>319</ele>
        <time>2016-07-24T07:02:19.000Z</time>
      </trkpt>
      <trkpt lat="47.49352" lon="6.75716">
        <ele>319</ele>
        <time>2016-07-24T07:02:20.000Z</time>
      </trkpt>
      <trkpt lat="47.49348" lon="6.75719">
        <ele>319</ele>
        <time>2016-07-24T07:02:21.000Z</time>
      </trkpt>
      <trkpt lat="47.49344" lon="6.75722">
        <ele>318</ele>
        <time>2016-07-24T07:02:22.000Z</time>
      </trkpt>
      <trkpt lat="47.4934" lon="6.75725">
        <ele>318</ele>
        <time>2016-07-24T07:02:23.000Z</time>
      </trkpt>
      <trkpt lat="47.49331" lon="6.75731">
        <ele>319</ele>
        <time>2016-07-24T07:02:24.000Z</time>
      </trkpt>
      <trkpt lat="47.49326" lon="6.75733">
        <ele>319</ele>
        <time>2016-07-24T07:02:25.000Z</time>
      </trkpt>
      <trkpt lat="47.4932" lon="6.75736">
        <ele>319</ele>
        <time>2016-07-24T07:02:26.000Z</time>
      </trkpt>
      <trkpt lat="47.49314" lon="6.75741">
        <ele>319</ele>
        <time>2016-07-24T07:02:27.000Z</time>
      </trkpt>
      <trkpt lat="47.49309" lon="6.75748">
        <ele>319</ele>
        <time>2016-07-24T07:02:28.000Z</time>
      </trkpt>
      <trkpt lat="47.49303" lon="6.75757">
        <ele>318</ele>
        <time>2016-07-24T07:02:29.000Z</time>
      </trkpt>
      <trkpt lat="47.49299" lon="6.75764">
        <ele>318</ele>
        <time>2016-07-24T07:02:30.000Z</time>
      </trkpt>
      <trkpt lat="47.49296" lon="6.75766">
        <ele>318</ele>
        <time>2016-07-24T07:02:31.000Z</time>
      </trkpt>
      <trkpt lat="47.49295" lon="6.75768">
        <ele>318</ele>
        <time>2016-07-24T07:02:32.000Z</time>
      </trkpt>
      <trkpt lat="47.49292" lon="6.75773">
        <ele>318</ele>
        <time>2016-07-24T07:02:33.000Z</time>
      </trkpt>
      <trkpt lat="47.49288" lon="6.75779">
        <ele>318</ele>
        <time>2016-07-24T07:02:34.000Z</time>
      </trkpt>
      <trkpt lat="47.49284" lon="6.75783">
        <ele>318</ele>
        <time>2016-07-24T07:02:35.000Z</time>
      </trkpt>
      <trkpt lat="47.49281" lon="6.75788">
        <ele>318</ele>
        <time>2016-07-24T07:02:36.000Z</time>
      </trkpt>
      <trkpt lat="47.49277" lon="6.75793">
        <ele>318</ele>
        <time>2016-07-24T07:02:37.000Z</time>
      </trkpt>
      <trkpt lat="47.49272" lon="6.75799">
        <ele>317</ele>
        <time>2016-07-24T07:02:38.000Z</time>
      </trkpt>
      <trkpt lat="47.49268" lon="6.75804">
        <ele>317</ele>
        <time>2016-07-24T07:02:39.000Z</time>
      </trkpt>
      <trkpt lat="47.49262" lon="6.75812">
        <ele>316</ele>
        <time>2016-07-24T07:02:40.000Z</time>
      </trkpt>
      <trkpt lat="47.49257" lon="6.75819">
        <ele>316</ele>
        <time>2016-07-24T07:02:41.000Z</time>
      </trkpt>
      <trkpt lat="47.49252" lon="6.75826">
        <ele>315</ele>
        <time>2016-07-24T07:02:42.000Z</time>
      </trkpt>
      <trkpt lat="47.49249" lon="6.75832">
        <ele>314</ele>
        <time>2016-07-24T07:02:43.000Z</time>
      </trkpt>
      <trkpt lat="47.49246" lon="6.75837">
        <ele>314</ele>
        <time>2016-07-24T07:02:44.000Z</time>
      </trkpt>
      <trkpt lat="47.49242" lon="6.75844">
        <ele>316</ele>
        <time>2016-07-24T07:02:45.000Z</time>
      </trkpt>
      <trkpt lat="47.49238" lon="6.75852">
        <ele>317</ele>
        <time>2016-07-24T07:02:46.000Z</time>
      </trkpt>
      <trkpt lat="47.49234" lon="6.75859">
        <ele>318</ele>
        <time>2016-07-24T07:02:47.000Z</time>
      </trkpt>
      <trkpt lat="47.49229" lon="6.75863">
        <ele>318</ele>
        <time>2016-07-24T07:02:48.000Z</time>
      </trkpt>
      <trkpt lat="47.49225" lon="6.7587">
        <ele>318</ele>
        <time>2016-07-24T07:02:49.000Z</time>
      </trkpt>
      <trkpt lat="47.49221" lon="6.75876">
        <ele>319</ele>
        <time>2016-07-24T07:02:50.000Z</time>
      </trkpt>
      <trkpt lat="47.49219" lon="6.7588">
        <ele>319</ele>
        <time>2016-07-24T07:02:51.000Z</time>
      </trkpt>
      <trkpt lat="47.49216" lon="6.75885">
        <ele>319</ele>
        <time>2016-07-24T07:02:52.000Z</time>
      </trkpt>
      <trkpt lat="47.49214" lon="6.7589">
        <ele>319</ele>
        <time>2016-07-24T07:02:53.000Z</time>
      </trkpt>
      <trkpt lat="47.49212" lon="6.75895">
        <ele>319</ele>
        <time>2016-07-24T07:02:54.000Z</time>
      </trkpt>
      <trkpt lat="47.49211" lon="6.759">
        <ele>319</ele>
        <time>2016-07-24T07:02:55.000Z</time>
      </trkpt>
      <trkpt lat="47.49209" lon="6.75905">
        <ele>319</ele>
        <time>2016-07-24T07:02:56.000Z</time>
      </trkpt>
      <trkpt lat="47.49206" lon="6.75909">
        <ele>320</ele>
        <time>2016-07-24T07:02:57.000Z</time>
      </trkpt>
      <trkpt lat="47.49203" lon="6.75914">
        <ele>320</ele>
        <time>2016-07-24T07:02:58.000Z</time>
      </trkpt>
      <trkpt lat="47.492" lon="6.75918">
        <ele>320</ele>
        <time>2016-07-24T07:02:59.000Z</time>
      </trkpt>
      <trkpt lat="47.49193" lon="6.75936">
        <ele>321</ele>
        <time>2016-07-24T07:03:00.000Z</time>
      </trkpt>
      <trkpt lat="47.4919" lon="6.75948">
        <ele>321</ele>
        <time>2016-07-24T07:03:01.000Z</time>
      </trkpt>
      <trkpt lat="47.49189" lon="6.75955">
        <ele>320</ele>
        <time>2016-07-24T07:03:02.000Z</time>
      </trkpt>
      <trkpt lat="47.49188" lon="6.7596">
        <ele>320</ele>
        <time>2016-07-24T07:03:03.000Z</time>
      </trkpt>
      <trkpt lat="47.49185" lon="6.75965">
        <ele>320</ele>
        <time>2016-07-24T07:03:04.000Z</time>
      </trkpt>
      <trkpt lat="47.4918" lon="6.75976">
        <ele>320</ele>
        <time>2016-07-24T07:03:05.000Z</time>
      </trkpt>
      <trkpt lat="47.49177" lon="6.75982">
        <ele>320</ele>
        <time>2016-07-24T07:03:06.000Z</time>
      </trkpt>
      <trkpt lat="47.49173" lon="6.75991">
        <ele>320</ele>
        <time>2016-07-24T07:03:07.000Z</time>
      </trkpt>
      <trkpt lat="47.49169" lon="6.76">
        <ele>319</ele>
        <time>2016-07-24T07:03:08.000Z</time>
      </trkpt>
      <trkpt lat="47.49166" lon="6.7601">
        <ele>321</ele>
        <time>2016-07-24T07:03:09.000Z</time>
      </trkpt>
      <trkpt lat="47.49162" lon="6.76019">
        <ele>322</ele>
        <time>2016-07-24T07:03:10.000Z</time>
      </trkpt>
      <trkpt lat="47.49159" lon="6.76027">
        <ele>322</ele>
        <time>2016-07-24T07:03:11.000Z</time>
      </trkpt>
      <trkpt lat="47.49156" lon="6.76035">
        <ele>323</ele>
        <time>2016-07-24T07:03:12.000Z</time>
      </trkpt>
      <trkpt lat="47.49151" lon="6.76042">
        <ele>323</ele>
        <time>2016-07-24T07:03:13.000Z</time>
      </trkpt>
      <trkpt lat="47.49149" lon="6.76048">
        <ele>323</ele>
        <time>2016-07-24T07:03:14.000Z</time>
      </trkpt>
      <trkpt lat="47.49147" lon="6.76053">
        <ele>323</ele>
        <time>2016-07-24T07:03:15.000Z</time>
      </trkpt>
      <trkpt lat="47.49145" lon="6.76067">
        <ele>322</ele>
        <time>2016-07-24T07:03:16.000Z</time>
      </trkpt>
      <trkpt lat="47.49144" lon="6.76075">
        <ele>322</ele>
        <time>2016-07-24T07:03:17.000Z</time>
      </trkpt>
      <trkpt lat="47.49144" lon="6.76083">
        <ele>322</ele>
        <time>2016-07-24T07:03:18.000Z</time>
      </trkpt>
      <trkpt lat="47.49139" lon="6.76099">
        <ele>321</ele>
        <time>2016-07-24T07:03:19.000Z</time>
      </trkpt>
      <trkpt lat="47.49135" lon="6.76108">
        <ele>322</ele>
        <time>2016-07-24T07:03:20.000Z</time>
      </trkpt>
      <trkpt lat="47.49131" lon="6.76116">
        <ele>322</ele>
        <time>2016-07-24T07:03:21.000Z</time>
      </trkpt>
      <trkpt lat="47.49131" lon="6.76123">
        <ele>322</ele>
        <time>2016-07-24T07:03:22.000Z</time>
      </trkpt>
      <trkpt lat="47.49131" lon="6.76133">
        <ele>322</ele>
        <time>2016-07-24T07:03:23.000Z</time>
      </trkpt>
      <trkpt lat="47.4913" lon="6.76141">
        <ele>322</ele>
        <time>2016-07-24T07:03:24.000Z</time>
      </trkpt>
      <trkpt lat="47.49133" lon="6.76147">
        <ele>322</ele>
        <time>2016-07-24T07:03:25.000Z</time>
      </trkpt>
      <trkpt lat="47.49132" lon="6.7616">
        <ele>322</ele>
        <time>2016-07-24T07:03:26.000Z</time>
      </trkpt>
      <trkpt lat="47.49132" lon="6.76175">
        <ele>321</ele>
        <time>2016-07-24T07:03:27.000Z</time>
      </trkpt>
      <trkpt lat="47.49135" lon="6.76181">
        <ele>321</ele>
        <time>2016-07-24T07:03:28.000Z</time>
      </trkpt>
      <trkpt lat="47.4914" lon="6.76184">
        <ele>321</ele>
        <time>2016-07-24T07:03:29.000Z</time>
      </trkpt>
      <trkpt lat="47.49144" lon="6.76188">
        <ele>320</ele>
        <time>2016-07-24T07:03:30.000Z</time>
      </trkpt>
      <trkpt lat="47.49147" lon="6.76191">
        <ele>320</ele>
        <time>2016-07-24T07:03:31.000Z</time>
      </trkpt>
      <trkpt lat="47.49153" lon="6.76198">
        <ele>320</ele>
        <time>2016-07-24T07:03:32.000Z</time>
      </trkpt>
      <trkpt lat="47.49156" lon="6.76202">
        <ele>320</ele>
        <time>2016-07-24T07:03:33.000Z</time>
      </trkpt>
      <trkpt lat="47.49161" lon="6.76207">
        <ele>320</ele>
        <time>2016-07-24T07:03:34.000Z</time>
      </trkpt>
      <trkpt lat="47.49167" lon="6.76211">
        <ele>320</ele>
        <time>2016-07-24T07:03:35.000Z</time>
      </trkpt>
      <trkpt lat="47.49173" lon="6.76215">
        <ele>320</ele>
        <time>2016-07-24T07:03:36.000Z</time>
      </trkpt>
      <trkpt lat="47.49181" lon="6.76218">
        <ele>320</ele>
        <time>2016-07-24T07:03:37.000Z</time>
      </trkpt>
      <trkpt lat="47.49187" lon="6.76219">
        <ele>320</ele>
        <time>2016-07-24T07:03:38.000Z</time>
      </trkpt>
      <trkpt lat="47.49193" lon="6.76219">
        <ele>320</ele>
        <time>2016-07-24T07:03:39.000Z</time>
      </trkpt>
      <trkpt lat="47.49198" lon="6.7622">
        <ele>320</ele>
        <time>2016-07-24T07:03:40.000Z</time>
      </trkpt>
      <trkpt lat="47.49204" lon="6.7622">
        <ele>321</ele>
        <time>2016-07-24T07:03:41.000Z</time>
      </trkpt>
      <trkpt lat="47.4921" lon="6.76221">
        <ele>321</ele>
        <time>2016-07-24T07:03:42.000Z</time>
      </trkpt>
      <trkpt lat="47.49215" lon="6.76221">
        <ele>321</ele>
        <time>2016-07-24T07:03:43.000Z</time>
      </trkpt>
      <trkpt lat="47.49217" lon="6.76222">
        <ele>321</ele>
        <time>2016-07-24T07:03:44.000Z</time>
      </trkpt>
      <trkpt lat="47.4922" lon="6.76224">
        <ele>321</ele>
        <time>2016-07-24T07:03:45.000Z</time>
      </trkpt>
      <trkpt lat="47.49222" lon="6.76225">
        <ele>321</ele>
        <time>2016-07-24T07:03:46.000Z</time>
      </trkpt>
      <trkpt lat="47.49222" lon="6.76232">
        <ele>322</ele>
        <time>2016-07-24T07:03:47.000Z</time>
      </trkpt>
      <trkpt lat="47.49223" lon="6.76239">
        <ele>322</ele>
        <time>2016-07-24T07:03:48.000Z</time>
      </trkpt>
      <trkpt lat="47.49225" lon="6.76247">
        <ele>322</ele>
        <time>2016-07-24T07:03:49.000Z</time>
      </trkpt>
      <trkpt lat="47.49226" lon="6.76256">
        <ele>321</ele>
        <time>2016-07-24T07:03:50.000Z</time>
      </trkpt>
      <trkpt lat="47.49226" lon="6.76263">
        <ele>321</ele>
        <time>2016-07-24T07:03:51.000Z</time>
      </trkpt>
      <trkpt lat="47.49227" lon="6.76271">
        <ele>321</ele>
        <time>2016-07-24T07:03:52.000Z</time>
      </trkpt>
      <trkpt lat="47.49227" lon="6.7628">
        <ele>321</ele>
        <time>2016-07-24T07:03:53.000Z</time>
      </trkpt>
      <trkpt lat="47.49227" lon="6.76288">
        <ele>321</ele>
        <time>2016-07-24T07:03:54.000Z</time>
      </trkpt>
      <trkpt lat="47.49228" lon="6.76297">
        <ele>321</ele>
        <time>2016-07-24T07:03:55.000Z</time>
      </trkpt>
      <trkpt lat="47.49228" lon="6.76307">
        <ele>321</ele>
        <time>2016-07-24T07:03:56.000Z</time>
      </trkpt>
      <trkpt lat="47.49229" lon="6.76314">
        <ele>321</ele>
        <time>2016-07-24T07:03:57.000Z</time>
      </trkpt>
      <trkpt lat="47.49229" lon="6.76324">
        <ele>322</ele>
        <time>2016-07-24T07:03:58.000Z</time>
      </trkpt>
      <trkpt lat="47.49229" lon="6.76333">
        <ele>322</ele>
        <time>2016-07-24T07:03:59.000Z</time>
      </trkpt>
      <trkpt lat="47.4923" lon="6.76342">
        <ele>321</ele>
        <time>2016-07-24T07:04:00.000Z</time>
      </trkpt>
      <trkpt lat="47.4923" lon="6.76352">
        <ele>321</ele>
        <time>2016-07-24T07:04:01.000Z</time>
      </trkpt>
      <trkpt lat="47.49231" lon="6.76361">
        <ele>321</ele>
        <time>2016-07-24T07:04:02.000Z</time>
      </trkpt>
      <trkpt lat="47.49231" lon="6.76372">
        <ele>320</ele>
        <time>2016-07-24T07:04:03.000Z</time>
      </trkpt>
      <trkpt lat="47.49231" lon="6.76382">
        <ele>320</ele>
        <time>2016-07-24T07:04:04.000Z</time>
      </trkpt>
      <trkpt lat="47.49231" lon="6.76392">
        <ele>321</ele>
        <time>2016-07-24T07:04:05.000Z</time>
      </trkpt>
      <trkpt lat="47.49231" lon="6.76402">
        <ele>321</ele>
        <time>2016-07-24T07:04:06.000Z</time>
      </trkpt>
      <trkpt lat="47.49232" lon="6.76411">
        <ele>321</ele>
        <time>2016-07-24T07:04:07.000Z</time>
      </trkpt>
      <trkpt lat="47.49231" lon="6.76419">
        <ele>321</ele>
        <time>2016-07-24T07:04:08.000Z</time>
      </trkpt>
      <trkpt lat="47.49232" lon="6.76427">
        <ele>320</ele>
        <time>2016-07-24T07:04:09.000Z</time>
      </trkpt>
      <trkpt lat="47.49232" lon="6.76435">
        <ele>320</ele>
        <time>2016-07-24T07:04:10.000Z</time>
      </trkpt>
      <trkpt lat="47.49233" lon="6.76445">
        <ele>320</ele>
        <time>2016-07-24T07:04:11.000Z</time>
      </trkpt>
      <trkpt lat="47.49234" lon="6.76454">
        <ele>319</ele>
        <time>2016-07-24T07:04:12.000Z</time>
      </trkpt>
      <trkpt lat="47.49235" lon="6.76462">
        <ele>319</ele>
        <time>2016-07-24T07:04:13.000Z</time>
      </trkpt>
      <trkpt lat="47.49234" lon="6.76471">
        <ele>319</ele>
        <time>2016-07-24T07:04:14.000Z</time>
      </trkpt>
      <trkpt lat="47.49234" lon="6.76479">
        <ele>320</ele>
        <time>2016-07-24T07:04:15.000Z</time>
      </trkpt>
      <trkpt lat="47.49231" lon="6.76486">
        <ele>320</ele>
        <time>2016-07-24T07:04:16.000Z</time>
      </trkpt>
      <trkpt lat="47.49227" lon="6.76489">
        <ele>319</ele>
        <time>2016-07-24T07:04:17.000Z</time>
      </trkpt>
      <trkpt lat="47.49223" lon="6.76493">
        <ele>319</ele>
        <time>2016-07-24T07:04:18.000Z</time>
      </trkpt>
      <trkpt lat="47.49217" lon="6.76495">
        <ele>319</ele>
        <time>2016-07-24T07:04:19.000Z</time>
      </trkpt>
      <trkpt lat="47.49211" lon="6.76496">
        <ele>318</ele>
        <time>2016-07-24T07:04:20.000Z</time>
      </trkpt>
      <trkpt lat="47.49205" lon="6.76496">
        <ele>318</ele>
        <time>2016-07-24T07:04:21.000Z</time>
      </trkpt>
      <trkpt lat="47.492" lon="6.76496">
        <ele>317</ele>
        <time>2016-07-24T07:04:22.000Z</time>
      </trkpt>
      <trkpt lat="47.49195" lon="6.76495">
        <ele>317</ele>
        <time>2016-07-24T07:04:23.000Z</time>
      </trkpt>
      <trkpt lat="47.49191" lon="6.76495">
        <ele>316</ele>
        <time>2016-07-24T07:04:24.000Z</time>
      </trkpt>
      <trkpt lat="47.49187" lon="6.76494">
        <ele>316</ele>
        <time>2016-07-24T07:04:25.000Z</time>
      </trkpt>
      <trkpt lat="47.49183" lon="6.76493">
        <ele>316</ele>
        <time>2016-07-24T07:04:26.000Z</time>
      </trkpt>
      <trkpt lat="47.49182" lon="6.76499">
        <ele>315</ele>
        <time>2016-07-24T07:05:12.000Z</time>
      </trkpt>
      <trkpt lat="47.49184" lon="6.765">
        <ele>316</ele>
        <time>2016-07-24T07:05:13.000Z</time>
      </trkpt>
      <trkpt lat="47.49188" lon="6.765">
        <ele>316</ele>
        <time>2016-07-24T07:05:15.000Z</time>
      </trkpt>
      <trkpt lat="47.49191" lon="6.765">
        <ele>316</ele>
        <time>2016-07-24T07:05:16.000Z</time>
      </trkpt>
      <trkpt lat="47.49193" lon="6.76501">
        <ele>316</ele>
        <time>2016-07-24T07:05:17.000Z</time>
      </trkpt>
      <trkpt lat="47.49196" lon="6.76502">
        <ele>316</ele>
        <time>2016-07-24T07:05:18.000Z</time>
      </trkpt>
      <trkpt lat="47.49199" lon="6.76504">
        <ele>316</ele>
        <time>2016-07-24T07:05:19.000Z</time>
      </trkpt>
      <trkpt lat="47.49201" lon="6.76505">
        <ele>317</ele>
        <time>2016-07-24T07:05:20.000Z</time>
      </trkpt>
      <trkpt lat="47.49205" lon="6.76506">
        <ele>317</ele>
        <time>2016-07-24T07:05:21.000Z</time>
      </trkpt>
      <trkpt lat="47.49207" lon="6.76507">
        <ele>317</ele>
        <time>2016-07-24T07:05:22.000Z</time>
      </trkpt>
      <trkpt lat="47.4921" lon="6.76507">
        <ele>317</ele>
        <time>2016-07-24T07:05:23.000Z</time>
      </trkpt>
      <trkpt lat="47.49213" lon="6.76507">
        <ele>318</ele>
        <time>2016-07-24T07:05:24.000Z</time>
      </trkpt>
      <trkpt lat="47.49216" lon="6.76507">
        <ele>318</ele>
        <time>2016-07-24T07:05:25.000Z</time>
      </trkpt>
      <trkpt lat="47.49219" lon="6.76507">
        <ele>318</ele>
        <time>2016-07-24T07:05:26.000Z</time>
      </trkpt>
      <trkpt lat="47.49221" lon="6.76507">
        <ele>318</ele>
        <time>2016-07-24T07:05:27.000Z</time>
      </trkpt>
      <trkpt lat="47.49224" lon="6.76506">
        <ele>319</ele>
        <time>2016-07-24T07:05:28.000Z</time>
      </trkpt>
      <trkpt lat="47.49227" lon="6.76505">
        <ele>319</ele>
        <time>2016-07-24T07:05:29.000Z</time>
      </trkpt>
      <trkpt lat="47.4923" lon="6.76503">
        <ele>319</ele>
        <time>2016-07-24T07:05:30.000Z</time>
      </trkpt>
      <trkpt lat="47.49233" lon="6.76502">
        <ele>319</ele>
        <time>2016-07-24T07:05:31.000Z</time>
      </trkpt>
      <trkpt lat="47.49235" lon="6.76503">
        <ele>320</ele>
        <time>2016-07-24T07:05:32.000Z</time>
      </trkpt>
      <trkpt lat="47.49237" lon="6.76506">
        <ele>320</ele>
        <time>2016-07-24T07:05:33.000Z</time>
      </trkpt>
      <trkpt lat="47.49238" lon="6.7651">
        <ele>320</ele>
        <time>2016-07-24T07:05:34.000Z</time>
      </trkpt>
      <trkpt lat="47.49238" lon="6.76515">
        <ele>319</ele>
        <time>2016-07-24T07:05:35.000Z</time>
      </trkpt>
      <trkpt lat="47.49239" lon="6.76519">
        <ele>319</ele>
        <time>2016-07-24T07:05:36.000Z</time>
      </trkpt>
      <trkpt lat="47.49238" lon="6.76524">
        <ele>319</ele>
        <time>2016-07-24T07:05:37.000Z</time>
      </trkpt>
      <trkpt lat="47.49238" lon="6.76529">
        <ele>319</ele>
        <time>2016-07-24T07:05:38.000Z</time>
      </trkpt>
      <trkpt lat="47.49238" lon="6.76533">
        <ele>319</ele>
        <time>2016-07-24T07:05:39.000Z</time>
      </trkpt>
      <trkpt lat="47.49238" lon="6.76538">
        <ele>318</ele>
        <time>2016-07-24T07:05:40.000Z</time>
      </trkpt>
      <trkpt lat="47.49238" lon="6.76543">
        <ele>318</ele>
        <time>2016-07-24T07:05:41.000Z</time>
      </trkpt>
      <trkpt lat="47.49238" lon="6.76547">
        <ele>318</ele>
        <time>2016-07-24T07:05:42.000Z</time>
      </trkpt>
      <trkpt lat="47.49237" lon="6.76552">
        <ele>318</ele>
        <time>2016-07-24T07:05:43.000Z</time>
      </trkpt>
      <trkpt lat="47.49237" lon="6.76557">
        <ele>318</ele>
        <time>2016-07-24T07:05:44.000Z</time>
      </trkpt>
      <trkpt lat="47.49237" lon="6.76562">
        <ele>319</ele>
        <time>2016-07-24T07:05:45.000Z</time>
      </trkpt>
      <trkpt lat="47.49237" lon="6.76567">
        <ele>319</ele>
        <time>2016-07-24T07:05:46.000Z</time>
      </trkpt>
      <trkpt lat="47.49236" lon="6.76571">
        <ele>319</ele>
        <time>2016-07-24T07:05:47.000Z</time>
      </trkpt>
      <trkpt lat="47.49236" lon="6.76576">
        <ele>319</ele>
        <time>2016-07-24T07:05:48.000Z</time>
      </trkpt>
      <trkpt lat="47.49236" lon="6.76581">
        <ele>319</ele>
        <time>2016-07-24T07:05:49.000Z</time>
      </trkpt>
      <trkpt lat="47.49236" lon="6.76587">
        <ele>319</ele>
        <time>2016-07-24T07:05:50.000Z</time>
      </trkpt>
      <trkpt lat="47.49235" lon="6.76592">
        <ele>319</ele>
        <time>2016-07-24T07:05:51.000Z</time>
      </trkpt>
      <trkpt lat="47.49235" lon="6.76598">
        <ele>318</ele>
        <time>2016-07-24T07:05:52.000Z</time>
      </trkpt>
      <trkpt lat="47.49235" lon="6.76604">
        <ele>318</ele>
        <time>2016-07-24T07:05:53.000Z</time>
      </trkpt>
      <trkpt lat="47.49235" lon="6.7661">
        <ele>318</ele>
        <time>2016-07-24T07:05:54.000Z</time>
      </trkpt>
      <trkpt lat="47.49234" lon="6.76616">
        <ele>318</ele>
        <time>2016-07-24T07:05:55.000Z</time>
      </trkpt>
      <trkpt lat="47.49233" lon="6.76621">
        <ele>318</ele>
        <time>2016-07-24T07:05:56.000Z</time>
      </trkpt>
      <trkpt lat="47.49233" lon="6.76626">
        <ele>317</ele>
        <time>2016-07-24T07:05:57.000Z</time>
      </trkpt>
      <trkpt lat="47.49232" lon="6.76632">
        <ele>317</ele>
        <time>2016-07-24T07:05:58.000Z</time>
      </trkpt>
      <trkpt lat="47.49231" lon="6.76637">
        <ele>317</ele>
        <time>2016-07-24T07:05:59.000Z</time>
      </trkpt>
      <trkpt lat="47.4923" lon="6.76642">
        <ele>317</ele>
        <time>2016-07-24T07:06:00.000Z</time>
      </trkpt>
      <trkpt lat="47.49229" lon="6.76648">
        <ele>317</ele>
        <time>2016-07-24T07:06:01.000Z</time>
      </trkpt>
      <trkpt lat="47.49228" lon="6.76654">
        <ele>317</ele>
        <time>2016-07-24T07:06:02.000Z</time>
      </trkpt>
      <trkpt lat="47.49228" lon="6.76661">
        <ele>317</ele>
        <time>2016-07-24T07:06:03.000Z</time>
      </trkpt>
      <trkpt lat="47.49227" lon="6.76666">
        <ele>317</ele>
        <time>2016-07-24T07:06:04.000Z</time>
      </trkpt>
      <trkpt lat="47.49227" lon="6.76672">
        <ele>317</ele>
        <time>2016-07-24T07:06:05.000Z</time>
      </trkpt>
      <trkpt lat="47.49226" lon="6.76678">
        <ele>317</ele>
        <time>2016-07-24T07:06:06.000Z</time>
      </trkpt>
      <trkpt lat="47.49226" lon="6.76683">
        <ele>317</ele>
        <time>2016-07-24T07:06:07.000Z</time>
      </trkpt>
      <trkpt lat="47.49226" lon="6.76688">
        <ele>317</ele>
        <time>2016-07-24T07:06:08.000Z</time>
      </trkpt>
      <trkpt lat="47.49226" lon="6.76694">
        <ele>317</ele>
        <time>2016-07-24T07:06:09.000Z</time>
      </trkpt>
      <trkpt lat="47.49226" lon="6.767">
        <ele>317</ele>
        <time>2016-07-24T07:06:10.000Z</time>
      </trkpt>
      <trkpt lat="47.49226" lon="6.76705">
        <ele>317</ele>
        <time>2016-07-24T07:06:11.000Z</time>
      </trkpt>
      <trkpt lat="47.49226" lon="6.76711">
        <ele>316</ele>
        <time>2016-07-24T07:06:12.000Z</time>
      </trkpt>
      <trkpt lat="47.49226" lon="6.76716">
        <ele>316</ele>
        <time>2016-07-24T07:06:13.000Z</time>
      </trkpt>
      <trkpt lat="47.49226" lon="6.76722">
        <ele>316</ele>
        <time>2016-07-24T07:06:14.000Z</time>
      </trkpt>
      <trkpt lat="47.49226" lon="6.76727">
        <ele>317</ele>
        <time>2016-07-24T07:06:15.000Z</time>
      </trkpt>
      <trkpt lat="47.49227" lon="6.76733">
        <ele>317</ele>
        <time>2016-07-24T07:06:16.000Z</time>
      </trkpt>
      <trkpt lat="47.49228" lon="6.76738">
        <ele>317</ele>
        <time>2016-07-24T07:06:17.000Z</time>
      </trkpt>
      <trkpt lat="47.49229" lon="6.76744">
        <ele>317</ele>
        <time>2016-07-24T07:06:18.000Z</time>
      </trkpt>
      <trkpt lat="47.49228" lon="6.76749">
        <ele>317</ele>
        <time>2016-07-24T07:06:19.000Z</time>
      </trkpt>
      <trkpt lat="47.49227" lon="6.76753">
        <ele>316</ele>
        <time>2016-07-24T07:06:20.000Z</time>
      </trkpt>
      <trkpt lat="47.49225" lon="6.76756">
        <ele>316</ele>
        <time>2016-07-24T07:06:21.000Z</time>
      </trkpt>
      <trkpt lat="47.49221" lon="6.76758">
        <ele>316</ele>
        <time>2016-07-24T07:06:22.000Z</time>
      </trkpt>
      <trkpt lat="47.49218" lon="6.76758">
        <ele>316</ele>
        <time>2016-07-24T07:06:23.000Z</time>
      </trkpt>
      <trkpt lat="47.4922" lon="6.76753">
        <ele>316</ele>
        <time>2016-07-24T07:06:29.000Z</time>
      </trkpt>
      <trkpt lat="47.49222" lon="6.76755">
        <ele>316</ele>
        <time>2016-07-24T07:06:30.000Z</time>
      </trkpt>
      <trkpt lat="47.49225" lon="6.76757">
        <ele>316</ele>
        <time>2016-07-24T07:06:31.000Z</time>
      </trkpt>
      <trkpt lat="47.49227" lon="6.76758">
        <ele>316</ele>
        <time>2016-07-24T07:06:32.000Z</time>
      </trkpt>
      <trkpt lat="47.49229" lon="6.7676">
        <ele>316</ele>
        <time>2016-07-24T07:06:33.000Z</time>
      </trkpt>
      <trkpt lat="47.49232" lon="6.76763">
        <ele>316</ele>
        <time>2016-07-24T07:06:34.000Z</time>
      </trkpt>
      <trkpt lat="47.49233" lon="6.76767">
        <ele>316</ele>
        <time>2016-07-24T07:06:35.000Z</time>
      </trkpt>
      <trkpt lat="47.49235" lon="6.76772">
        <ele>316</ele>
        <time>2016-07-24T07:06:36.000Z</time>
      </trkpt>
      <trkpt lat="47.49236" lon="6.76778">
        <ele>316</ele>
        <time>2016-07-24T07:06:37.000Z</time>
      </trkpt>
      <trkpt lat="47.49238" lon="6.7679">
        <ele>316</ele>
        <time>2016-07-24T07:06:38.000Z</time>
      </trkpt>
      <trkpt lat="47.4924" lon="6.76796">
        <ele>316</ele>
        <time>2016-07-24T07:06:39.000Z</time>
      </trkpt>
      <trkpt lat="47.49241" lon="6.76803">
        <ele>316</ele>
        <time>2016-07-24T07:06:40.000Z</time>
      </trkpt>
      <trkpt lat="47.49244" lon="6.7681">
        <ele>316</ele>
        <time>2016-07-24T07:06:41.000Z</time>
      </trkpt>
      <trkpt lat="47.49247" lon="6.76816">
        <ele>316</ele>
        <time>2016-07-24T07:06:42.000Z</time>
      </trkpt>
      <trkpt lat="47.49249" lon="6.76823">
        <ele>316</ele>
        <time>2016-07-24T07:06:43.000Z</time>
      </trkpt>
      <trkpt lat="47.49251" lon="6.76831">
        <ele>317</ele>
        <time>2016-07-24T07:06:44.000Z</time>
      </trkpt>
      <trkpt lat="47.49253" lon="6.76838">
        <ele>317</ele>
        <time>2016-07-24T07:06:45.000Z</time>
      </trkpt>
      <trkpt lat="47.49255" lon="6.76845">
        <ele>317</ele>
        <time>2016-07-24T07:06:46.000Z</time>
      </trkpt>
      <trkpt lat="47.49257" lon="6.76853">
        <ele>317</ele>
        <time>2016-07-24T07:06:47.000Z</time>
      </trkpt>
      <trkpt lat="47.49259" lon="6.7686">
        <ele>317</ele>
        <time>2016-07-24T07:06:48.000Z</time>
      </trkpt>
      <trkpt lat="47.49262" lon="6.76868">
        <ele>317</ele>
        <time>2016-07-24T07:06:49.000Z</time>
      </trkpt>
      <trkpt lat="47.49264" lon="6.76874">
        <ele>317</ele>
        <time>2016-07-24T07:06:50.000Z</time>
      </trkpt>
      <trkpt lat="47.49267" lon="6.76881">
        <ele>317</ele>
        <time>2016-07-24T07:06:51.000Z</time>
      </trkpt>
      <trkpt lat="47.4927" lon="6.76888">
        <ele>317</ele>
        <time>2016-07-24T07:06:52.000Z</time>
      </trkpt>
      <trkpt lat="47.49272" lon="6.76893">
        <ele>317</ele>
        <time>2016-07-24T07:06:53.000Z</time>
      </trkpt>
      <trkpt lat="47.49275" lon="6.769">
        <ele>317</ele>
        <time>2016-07-24T07:06:54.000Z</time>
      </trkpt>
      <trkpt lat="47.49278" lon="6.76906">
        <ele>317</ele>
        <time>2016-07-24T07:06:55.000Z</time>
      </trkpt>
      <trkpt lat="47.4928" lon="6.76913">
        <ele>317</ele>
        <time>2016-07-24T07:06:56.000Z</time>
      </trkpt>
      <trkpt lat="47.49282" lon="6.7692">
        <ele>316</ele>
        <time>2016-07-24T07:06:57.000Z</time>
      </trkpt>
      <trkpt lat="47.49287" lon="6.76926">
        <ele>316</ele>
        <time>2016-07-24T07:06:58.000Z</time>
      </trkpt>
      <trkpt lat="47.4929" lon="6.76933">
        <ele>316</ele>
        <time>2016-07-24T07:06:59.000Z</time>
      </trkpt>
      <trkpt lat="47.49291" lon="6.76941">
        <ele>316</ele>
        <time>2016-07-24T07:07:00.000Z</time>
      </trkpt>
      <trkpt lat="47.49293" lon="6.76947">
        <ele>317</ele>
        <time>2016-07-24T07:07:01.000Z</time>
      </trkpt>
      <trkpt lat="47.49296" lon="6.76955">
        <ele>317</ele>
        <time>2016-07-24T07:07:02.000Z</time>
      </trkpt>
      <trkpt lat="47.49297" lon="6.76962">
        <ele>317</ele>
        <time>2016-07-24T07:07:03.000Z</time>
      </trkpt>
      <trkpt lat="47.49299" lon="6.76969">
        <ele>317</ele>
        <time>2016-07-24T07:07:04.000Z</time>
      </trkpt>
      <trkpt lat="47.493" lon="6.76977">
        <ele>317</ele>
        <time>2016-07-24T07:07:05.000Z</time>
      </trkpt>
      <trkpt lat="47.493" lon="6.76985">
        <ele>317</ele>
        <time>2016-07-24T07:07:06.000Z</time>
      </trkpt>
      <trkpt lat="47.49301" lon="6.76992">
        <ele>317</ele>
        <time>2016-07-24T07:07:07.000Z</time>
      </trkpt>
      <trkpt lat="47.49302" lon="6.77">
        <ele>317</ele>
        <time>2016-07-24T07:07:08.000Z</time>
      </trkpt>
      <trkpt lat="47.49302" lon="6.77007">
        <ele>316</ele>
        <time>2016-07-24T07:07:09.000Z</time>
      </trkpt>
      <trkpt lat="47.493" lon="6.77014">
        <ele>316</ele>
        <time>2016-07-24T07:07:10.000Z</time>
      </trkpt>
      <trkpt lat="47.49297" lon="6.7702">
        <ele>316</ele>
        <time>2016-07-24T07:07:11.000Z</time>
      </trkpt>
      <trkpt lat="47.49293" lon="6.77026">
        <ele>315</ele>
        <time>2016-07-24T07:07:12.000Z</time>
      </trkpt>
      <trkpt lat="47.49288" lon="6.7703">
        <ele>315</ele>
        <time>2016-07-24T07:07:13.000Z</time>
      </trkpt>
      <trkpt lat="47.49284" lon="6.77035">
        <ele>315</ele>
        <time>2016-07-24T07:07:14.000Z</time>
      </trkpt>
      <trkpt lat="47.49281" lon="6.77039">
        <ele>315</ele>
        <time>2016-07-24T07:07:15.000Z</time>
      </trkpt>
      <trkpt lat="47.49277" lon="6.77044">
        <ele>315</ele>
        <time>2016-07-24T07:07:16.000Z</time>
      </trkpt>
      <trkpt lat="47.49272" lon="6.77048">
        <ele>315</ele>
        <time>2016-07-24T07:07:17.000Z</time>
      </trkpt>
      <trkpt lat="47.49266" lon="6.77054">
        <ele>315</ele>
        <time>2016-07-24T07:07:18.000Z</time>
      </trkpt>
      <trkpt lat="47.49261" lon="6.77057">
        <ele>315</ele>
        <time>2016-07-24T07:07:19.000Z</time>
      </trkpt>
      <trkpt lat="47.49256" lon="6.7706">
        <ele>314</ele>
        <time>2016-07-24T07:07:20.000Z</time>
      </trkpt>
      <trkpt lat="47.49253" lon="6.77066">
        <ele>314</ele>
        <time>2016-07-24T07:07:21.000Z</time>
      </trkpt>
      <trkpt lat="47.49249" lon="6.77071">
        <ele>313</ele>
        <time>2016-07-24T07:07:22.000Z</time>
      </trkpt>
      <trkpt lat="47.49242" lon="6.77077">
        <ele>313</ele>
        <time>2016-07-24T07:07:23.000Z</time>
      </trkpt>
      <trkpt lat="47.49237" lon="6.77082">
        <ele>313</ele>
        <time>2016-07-24T07:07:24.000Z</time>
      </trkpt>
      <trkpt lat="47.49232" lon="6.77086">
        <ele>313</ele>
        <time>2016-07-24T07:07:25.000Z</time>
      </trkpt>
      <trkpt lat="47.49227" lon="6.77091">
        <ele>313</ele>
        <time>2016-07-24T07:07:26.000Z</time>
      </trkpt>
      <trkpt lat="47.49221" lon="6.77096">
        <ele>313</ele>
        <time>2016-07-24T07:07:27.000Z</time>
      </trkpt>
      <trkpt lat="47.49217" lon="6.77102">
        <ele>313</ele>
        <time>2016-07-24T07:07:28.000Z</time>
      </trkpt>
      <trkpt lat="47.49212" lon="6.77107">
        <ele>313</ele>
        <time>2016-07-24T07:07:29.000Z</time>
      </trkpt>
      <trkpt lat="47.49207" lon="6.77111">
        <ele>313</ele>
        <time>2016-07-24T07:07:30.000Z</time>
      </trkpt>
      <trkpt lat="47.49202" lon="6.77114">
        <ele>313</ele>
        <time>2016-07-24T07:07:31.000Z</time>
      </trkpt>
      <trkpt lat="47.49198" lon="6.77115">
        <ele>313</ele>
        <time>2016-07-24T07:07:32.000Z</time>
      </trkpt>
      <trkpt lat="47.49194" lon="6.77117">
        <ele>313</ele>
        <time>2016-07-24T07:07:33.000Z</time>
      </trkpt>
      <trkpt lat="47.49192" lon="6.77119">
        <ele>313</ele>
        <time>2016-07-24T07:07:34.000Z</time>
      </trkpt>
      <trkpt lat="47.4919" lon="6.7712">
        <ele>313</ele>
        <time>2016-07-24T07:07:35.000Z</time>
      </trkpt>
      <trkpt lat="47.49187" lon="6.77123">
        <ele>313</ele>
        <time>2016-07-24T07:07:36.000Z</time>
      </trkpt>
      <trkpt lat="47.49184" lon="6.77132">
        <ele>313</ele>
        <time>2016-07-24T07:07:37.000Z</time>
      </trkpt>
      <trkpt lat="47.49184" lon="6.77137">
        <ele>313</ele>
        <time>2016-07-24T07:07:38.000Z</time>
      </trkpt>
      <trkpt lat="47.49185" lon="6.77142">
        <ele>313</ele>
        <time>2016-07-24T07:07:39.000Z</time>
      </trkpt>
      <trkpt lat="47.49184" lon="6.7715">
        <ele>313</ele>
        <time>2016-07-24T07:07:40.000Z</time>
      </trkpt>
      <trkpt lat="47.49184" lon="6.77157">
        <ele>313</ele>
        <time>2016-07-24T07:07:41.000Z</time>
      </trkpt>
      <trkpt lat="47.49184" lon="6.77163">
        <ele>313</ele>
        <time>2016-07-24T07:07:42.000Z</time>
      </trkpt>
      <trkpt lat="47.49184" lon="6.7717">
        <ele>313</ele>
        <time>2016-07-24T07:07:43.000Z</time>
      </trkpt>
      <trkpt lat="47.49184" lon="6.77177">
        <ele>313</ele>
        <time>2016-07-24T07:07:44.000Z</time>
      </trkpt>
      <trkpt lat="47.49185" lon="6.77185">
        <ele>313</ele>
        <time>2016-07-24T07:07:45.000Z</time>
      </trkpt>
      <trkpt lat="47.49184" lon="6.77194">
        <ele>312</ele>
        <time>2016-07-24T07:07:46.000Z</time>
      </trkpt>
      <trkpt lat="47.49185" lon="6.77203">
        <ele>312</ele>
        <time>2016-07-24T07:07:47.000Z</time>
      </trkpt>
      <trkpt lat="47.49185" lon="6.77212">
        <ele>312</ele>
        <time>2016-07-24T07:07:48.000Z</time>
      </trkpt>
      <trkpt lat="47.49185" lon="6.7722">
        <ele>312</ele>
        <time>2016-07-24T07:07:49.000Z</time>
      </trkpt>
      <trkpt lat="47.49186" lon="6.77226">
        <ele>312</ele>
        <time>2016-07-24T07:07:50.000Z</time>
      </trkpt>
      <trkpt lat="47.49186" lon="6.7723">
        <ele>312</ele>
        <time>2016-07-24T07:07:51.000Z</time>
      </trkpt>
      <trkpt lat="47.49187" lon="6.77233">
        <ele>312</ele>
        <time>2016-07-24T07:07:52.000Z</time>
      </trkpt>
      <trkpt lat="47.49187" lon="6.7724">
        <ele>312</ele>
        <time>2016-07-24T07:07:53.000Z</time>
      </trkpt>
      <trkpt lat="47.49187" lon="6.77245">
        <ele>312</ele>
        <time>2016-07-24T07:07:54.000Z</time>
      </trkpt>
      <trkpt lat="47.49186" lon="6.77253">
        <ele>311</ele>
        <time>2016-07-24T07:07:55.000Z</time>
      </trkpt>
      <trkpt lat="47.49185" lon="6.77262">
        <ele>311</ele>
        <time>2016-07-24T07:07:56.000Z</time>
      </trkpt>
      <trkpt lat="47.49184" lon="6.7727">
        <ele>311</ele>
        <time>2016-07-24T07:07:57.000Z</time>
      </trkpt>
      <trkpt lat="47.49183" lon="6.77279">
        <ele>311</ele>
        <time>2016-07-24T07:07:58.000Z</time>
      </trkpt>
      <trkpt lat="47.49182" lon="6.77288">
        <ele>311</ele>
        <time>2016-07-24T07:07:59.000Z</time>
      </trkpt>
      <trkpt lat="47.49182" lon="6.77297">
        <ele>311</ele>
        <time>2016-07-24T07:08:00.000Z</time>
      </trkpt>
      <trkpt lat="47.49182" lon="6.77307">
        <ele>311</ele>
        <time>2016-07-24T07:08:01.000Z</time>
      </trkpt>
      <trkpt lat="47.49179" lon="6.77311">
        <ele>311</ele>
        <time>2016-07-24T07:08:02.000Z</time>
      </trkpt>
      <trkpt lat="47.49177" lon="6.7732">
        <ele>310</ele>
        <time>2016-07-24T07:08:03.000Z</time>
      </trkpt>
      <trkpt lat="47.49175" lon="6.77327">
        <ele>310</ele>
        <time>2016-07-24T07:08:04.000Z</time>
      </trkpt>
      <trkpt lat="47.49172" lon="6.77331">
        <ele>310</ele>
        <time>2016-07-24T07:08:05.000Z</time>
      </trkpt>
      <trkpt lat="47.49168" lon="6.77333">
        <ele>310</ele>
        <time>2016-07-24T07:08:06.000Z</time>
      </trkpt>
      <trkpt lat="47.49164" lon="6.77333">
        <ele>310</ele>
        <time>2016-07-24T07:08:07.000Z</time>
      </trkpt>
      <trkpt lat="47.49159" lon="6.77333">
        <ele>310</ele>
        <time>2016-07-24T07:08:08.000Z</time>
      </trkpt>
      <trkpt lat="47.49154" lon="6.77332">
        <ele>311</ele>
        <time>2016-07-24T07:08:09.000Z</time>
      </trkpt>
      <trkpt lat="47.49149" lon="6.77331">
        <ele>311</ele>
        <time>2016-07-24T07:08:10.000Z</time>
      </trkpt>
      <trkpt lat="47.49142" lon="6.77332">
        <ele>311</ele>
        <time>2016-07-24T07:08:11.000Z</time>
      </trkpt>
      <trkpt lat="47.49137" lon="6.77331">
        <ele>311</ele>
        <time>2016-07-24T07:08:12.000Z</time>
      </trkpt>
      <trkpt lat="47.49131" lon="6.77332">
        <ele>311</ele>
        <time>2016-07-24T07:08:13.000Z</time>
      </trkpt>
      <trkpt lat="47.49125" lon="6.77331">
        <ele>311</ele>
        <time>2016-07-24T07:08:14.000Z</time>
      </trkpt>
      <trkpt lat="47.4912" lon="6.77331">
        <ele>311</ele>
        <time>2016-07-24T07:08:15.000Z</time>
      </trkpt>
      <trkpt lat="47.49114" lon="6.7733">
        <ele>311</ele>
        <time>2016-07-24T07:08:16.000Z</time>
      </trkpt>
      <trkpt lat="47.49108" lon="6.77329">
        <ele>311</ele>
        <time>2016-07-24T07:08:17.000Z</time>
      </trkpt>
      <trkpt lat="47.49103" lon="6.77328">
        <ele>311</ele>
        <time>2016-07-24T07:08:18.000Z</time>
      </trkpt>
      <trkpt lat="47.49097" lon="6.77328">
        <ele>311</ele>
        <time>2016-07-24T07:08:19.000Z</time>
      </trkpt>
      <trkpt lat="47.49091" lon="6.77328">
        <ele>311</ele>
        <time>2016-07-24T07:08:20.000Z</time>
      </trkpt>
      <trkpt lat="47.49086" lon="6.77328">
        <ele>311</ele>
        <time>2016-07-24T07:08:21.000Z</time>
      </trkpt>
      <trkpt lat="47.49081" lon="6.77327">
        <ele>311</ele>
        <time>2016-07-24T07:08:22.000Z</time>
      </trkpt>
      <trkpt lat="47.49075" lon="6.77327">
        <ele>311</ele>
        <time>2016-07-24T07:08:23.000Z</time>
      </trkpt>
      <trkpt lat="47.49069" lon="6.77326">
        <ele>311</ele>
        <time>2016-07-24T07:08:24.000Z</time>
      </trkpt>
      <trkpt lat="47.49064" lon="6.77326">
        <ele>311</ele>
        <time>2016-07-24T07:08:25.000Z</time>
      </trkpt>
      <trkpt lat="47.49058" lon="6.77325">
        <ele>311</ele>
        <time>2016-07-24T07:08:26.000Z</time>
      </trkpt>
      <trkpt lat="47.49053" lon="6.77325">
        <ele>311</ele>
        <time>2016-07-24T07:08:27.000Z</time>
      </trkpt>
      <trkpt lat="47.49047" lon="6.77325">
        <ele>311</ele>
        <time>2016-07-24T07:08:28.000Z</time>
      </trkpt>
      <trkpt lat="47.49043" lon="6.77324">
        <ele>311</ele>
        <time>2016-07-24T07:08:29.000Z</time>
      </trkpt>
      <trkpt lat="47.49038" lon="6.77323">
        <ele>311</ele>
        <time>2016-07-24T07:08:30.000Z</time>
      </trkpt>
      <trkpt lat="47.49033" lon="6.77324">
        <ele>311</ele>
        <time>2016-07-24T07:08:31.000Z</time>
      </trkpt>
      <trkpt lat="47.49027" lon="6.77323">
        <ele>311</ele>
        <time>2016-07-24T07:08:32.000Z</time>
      </trkpt>
      <trkpt lat="47.49022" lon="6.77324">
        <ele>311</ele>
        <time>2016-07-24T07:08:33.000Z</time>
      </trkpt>
      <trkpt lat="47.49017" lon="6.77323">
        <ele>311</ele>
        <time>2016-07-24T07:08:34.000Z</time>
      </trkpt>
      <trkpt lat="47.49012" lon="6.77322">
        <ele>311</ele>
        <time>2016-07-24T07:08:35.000Z</time>
      </trkpt>
      <trkpt lat="47.49006" lon="6.7732">
        <ele>311</ele>
        <time>2016-07-24T07:08:36.000Z</time>
      </trkpt>
      <trkpt lat="47.49" lon="6.77322">
        <ele>311</ele>
        <time>2016-07-24T07:08:37.000Z</time>
      </trkpt>
      <trkpt lat="47.48999" lon="6.77322">
        <ele>311</ele>
        <time>2016-07-24T07:08:37.102Z</time>
      </trkpt>
      <trkpt lat="47.48988" lon="6.77321">
        <ele>311</ele>
        <time>2016-07-24T07:08:39.000Z</time>
      </trkpt>
      <trkpt lat="47.48983" lon="6.77321">
        <ele>311</ele>
        <time>2016-07-24T07:08:40.000Z</time>
      </trkpt>
      <trkpt lat="47.48978" lon="6.7732">
        <ele>311</ele>
        <time>2016-07-24T07:08:41.000Z</time>
      </trkpt>
      <trkpt lat="47.48973" lon="6.77319">
        <ele>311</ele>
        <time>2016-07-24T07:08:42.000Z</time>
      </trkpt>
      <trkpt lat="47.48967" lon="6.77318">
        <ele>311</ele>
        <time>2016-07-24T07:08:43.000Z</time>
      </trkpt>
      <trkpt lat="47.48961" lon="6.77318">
        <ele>311</ele>
        <time>2016-07-24T07:08:44.000Z</time>
      </trkpt>
      <trkpt lat="47.48956" lon="6.77317">
        <ele>311</ele>
        <time>2016-07-24T07:08:45.000Z</time>
      </trkpt>
      <trkpt lat="47.48951" lon="6.77314">
        <ele>311</ele>
        <time>2016-07-24T07:08:46.000Z</time>
      </trkpt>
      <trkpt lat="47.48945" lon="6.77312">
        <ele>311</ele>
        <time>2016-07-24T07:08:47.000Z</time>
      </trkpt>
      <trkpt lat="47.48939" lon="6.7731">
        <ele>311</ele>
        <time>2016-07-24T07:08:48.000Z</time>
      </trkpt>
      <trkpt lat="47.48933" lon="6.77308">
        <ele>311</ele>
        <time>2016-07-24T07:08:49.000Z</time>
      </trkpt>
      <trkpt lat="47.48927" lon="6.77306">
        <ele>311</ele>
        <time>2016-07-24T07:08:50.000Z</time>
      </trkpt>
      <trkpt lat="47.48922" lon="6.77303">
        <ele>311</ele>
        <time>2016-07-24T07:08:51.000Z</time>
      </trkpt>
      <trkpt lat="47.48916" lon="6.77301">
        <ele>310</ele>
        <time>2016-07-24T07:08:52.000Z</time>
      </trkpt>
      <trkpt lat="47.48911" lon="6.77299">
        <ele>310</ele>
        <time>2016-07-24T07:08:53.000Z</time>
      </trkpt>
      <trkpt lat="47.48905" lon="6.77297">
        <ele>310</ele>
        <time>2016-07-24T07:08:54.000Z</time>
      </trkpt>
      <trkpt lat="47.489" lon="6.77295">
        <ele>310</ele>
        <time>2016-07-24T07:08:55.000Z</time>
      </trkpt>
      <trkpt lat="47.48899" lon="6.77295">
        <ele>310</ele>
        <time>2016-07-24T07:08:55.103Z</time>
      </trkpt>
      <trkpt lat="47.48888" lon="6.7729">
        <ele>310</ele>
        <time>2016-07-24T07:08:57.000Z</time>
      </trkpt>
      <trkpt lat="47.48883" lon="6.77288">
        <ele>310</ele>
        <time>2016-07-24T07:08:58.000Z</time>
      </trkpt>
      <trkpt lat="47.48877" lon="6.77287">
        <ele>310</ele>
        <time>2016-07-24T07:08:59.000Z</time>
      </trkpt>
      <trkpt lat="47.48871" lon="6.77285">
        <ele>310</ele>
        <time>2016-07-24T07:09:00.000Z</time>
      </trkpt>
      <trkpt lat="47.48866" lon="6.77283">
        <ele>310</ele>
        <time>2016-07-24T07:09:01.000Z</time>
      </trkpt>
      <trkpt lat="47.48861" lon="6.77281">
        <ele>310</ele>
        <time>2016-07-24T07:09:02.000Z</time>
      </trkpt>
      <trkpt lat="47.48855" lon="6.77278">
        <ele>310</ele>
        <time>2016-07-24T07:09:03.000Z</time>
      </trkpt>
      <trkpt lat="47.48849" lon="6.77276">
        <ele>310</ele>
        <time>2016-07-24T07:09:04.000Z</time>
      </trkpt>
      <trkpt lat="47.48844" lon="6.77273">
        <ele>310</ele>
        <time>2016-07-24T07:09:05.000Z</time>
      </trkpt>
      <trkpt lat="47.4884" lon="6.7727">
        <ele>310</ele>
        <time>2016-07-24T07:09:06.000Z</time>
      </trkpt>
      <trkpt lat="47.48835" lon="6.77266">
        <ele>310</ele>
        <time>2016-07-24T07:09:07.000Z</time>
      </trkpt>
      <trkpt lat="47.4883" lon="6.77262">
        <ele>310</ele>
        <time>2016-07-24T07:09:08.000Z</time>
      </trkpt>
      <trkpt lat="47.48825" lon="6.77259">
        <ele>310</ele>
        <time>2016-07-24T07:09:09.000Z</time>
      </trkpt>
      <trkpt lat="47.48819" lon="6.77255">
        <ele>310</ele>
        <time>2016-07-24T07:09:10.000Z</time>
      </trkpt>
      <trkpt lat="47.48814" lon="6.77251">
        <ele>310</ele>
        <time>2016-07-24T07:09:11.000Z</time>
      </trkpt>
      <trkpt lat="47.48809" lon="6.77248">
        <ele>311</ele>
        <time>2016-07-24T07:09:12.000Z</time>
      </trkpt>
      <trkpt lat="47.48803" lon="6.77245">
        <ele>310</ele>
        <time>2016-07-24T07:09:13.000Z</time>
      </trkpt>
      <trkpt lat="47.48797" lon="6.77241">
        <ele>310</ele>
        <time>2016-07-24T07:09:14.000Z</time>
      </trkpt>
      <trkpt lat="47.48792" lon="6.77236">
        <ele>310</ele>
        <time>2016-07-24T07:09:15.000Z</time>
      </trkpt>
      <trkpt lat="47.48786" lon="6.77233">
        <ele>310</ele>
        <time>2016-07-24T07:09:16.000Z</time>
      </trkpt>
      <trkpt lat="47.48781" lon="6.7723">
        <ele>310</ele>
        <time>2016-07-24T07:09:17.000Z</time>
      </trkpt>
      <trkpt lat="47.48776" lon="6.77226">
        <ele>310</ele>
        <time>2016-07-24T07:09:18.000Z</time>
      </trkpt>
      <trkpt lat="47.48772" lon="6.77222">
        <ele>310</ele>
        <time>2016-07-24T07:09:19.000Z</time>
      </trkpt>
      <trkpt lat="47.48766" lon="6.77219">
        <ele>310</ele>
        <time>2016-07-24T07:09:20.000Z</time>
      </trkpt>
      <trkpt lat="47.48761" lon="6.77214">
        <ele>310</ele>
        <time>2016-07-24T07:09:21.000Z</time>
      </trkpt>
      <trkpt lat="47.48756" lon="6.77211">
        <ele>310</ele>
        <time>2016-07-24T07:09:22.000Z</time>
      </trkpt>
      <trkpt lat="47.48751" lon="6.77208">
        <ele>310</ele>
        <time>2016-07-24T07:09:23.000Z</time>
      </trkpt>
      <trkpt lat="47.48746" lon="6.77204">
        <ele>310</ele>
        <time>2016-07-24T07:09:24.000Z</time>
      </trkpt>
      <trkpt lat="47.4874" lon="6.772">
        <ele>310</ele>
        <time>2016-07-24T07:09:25.000Z</time>
      </trkpt>
      <trkpt lat="47.48736" lon="6.77196">
        <ele>310</ele>
        <time>2016-07-24T07:09:26.000Z</time>
      </trkpt>
      <trkpt lat="47.48731" lon="6.77192">
        <ele>310</ele>
        <time>2016-07-24T07:09:27.000Z</time>
      </trkpt>
      <trkpt lat="47.48725" lon="6.77189">
        <ele>310</ele>
        <time>2016-07-24T07:09:28.000Z</time>
      </trkpt>
      <trkpt lat="47.4872" lon="6.77185">
        <ele>310</ele>
        <time>2016-07-24T07:09:29.000Z</time>
      </trkpt>
      <trkpt lat="47.48714" lon="6.77181">
        <ele>310</ele>
        <time>2016-07-24T07:09:30.000Z</time>
      </trkpt>
      <trkpt lat="47.48709" lon="6.77177">
        <ele>310</ele>
        <time>2016-07-24T07:09:31.000Z</time>
      </trkpt>
      <trkpt lat="47.48705" lon="6.77174">
        <ele>311</ele>
        <time>2016-07-24T07:09:32.000Z</time>
      </trkpt>
      <trkpt lat="47.48699" lon="6.77171">
        <ele>311</ele>
        <time>2016-07-24T07:09:33.000Z</time>
      </trkpt>
      <trkpt lat="47.48693" lon="6.77167">
        <ele>311</ele>
        <time>2016-07-24T07:09:34.000Z</time>
      </trkpt>
      <trkpt lat="47.48689" lon="6.77162">
        <ele>311</ele>
        <time>2016-07-24T07:09:35.000Z</time>
      </trkpt>
      <trkpt lat="47.48684" lon="6.77157">
        <ele>311</ele>
        <time>2016-07-24T07:09:36.000Z</time>
      </trkpt>
      <trkpt lat="47.48679" lon="6.77152">
        <ele>311</ele>
        <time>2016-07-24T07:09:37.000Z</time>
      </trkpt>
      <trkpt lat="47.48674" lon="6.77146">
        <ele>311</ele>
        <time>2016-07-24T07:09:38.000Z</time>
      </trkpt>
      <trkpt lat="47.4867" lon="6.77142">
        <ele>311</ele>
        <time>2016-07-24T07:09:39.000Z</time>
      </trkpt>
      <trkpt lat="47.48664" lon="6.77137">
        <ele>312</ele>
        <time>2016-07-24T07:09:40.000Z</time>
      </trkpt>
      <trkpt lat="47.4866" lon="6.77131">
        <ele>312</ele>
        <time>2016-07-24T07:09:41.000Z</time>
      </trkpt>
      <trkpt lat="47.48656" lon="6.77126">
        <ele>312</ele>
        <time>2016-07-24T07:09:42.000Z</time>
      </trkpt>
      <trkpt lat="47.48652" lon="6.77121">
        <ele>312</ele>
        <time>2016-07-24T07:09:43.000Z</time>
      </trkpt>
      <trkpt lat="47.48647" lon="6.77116">
        <ele>312</ele>
        <time>2016-07-24T07:09:44.000Z</time>
      </trkpt>
      <trkpt lat="47.4864" lon="6.77111">
        <ele>312</ele>
        <time>2016-07-24T07:09:45.000Z</time>
      </trkpt>
      <trkpt lat="47.48635" lon="6.77106">
        <ele>312</ele>
        <time>2016-07-24T07:09:46.000Z</time>
      </trkpt>
      <trkpt lat="47.48631" lon="6.77101">
        <ele>312</ele>
        <time>2016-07-24T07:09:47.000Z</time>
      </trkpt>
      <trkpt lat="47.48628" lon="6.77097">
        <ele>312</ele>
        <time>2016-07-24T07:09:48.000Z</time>
      </trkpt>
      <trkpt lat="47.48624" lon="6.77093">
        <ele>312</ele>
        <time>2016-07-24T07:09:49.000Z</time>
      </trkpt>
      <trkpt lat="47.4862" lon="6.77089">
        <ele>312</ele>
        <time>2016-07-24T07:09:50.000Z</time>
      </trkpt>
      <trkpt lat="47.48616" lon="6.77086">
        <ele>312</ele>
        <time>2016-07-24T07:09:51.000Z</time>
      </trkpt>
      <trkpt lat="47.48612" lon="6.77083">
        <ele>313</ele>
        <time>2016-07-24T07:09:52.000Z</time>
      </trkpt>
      <trkpt lat="47.48607" lon="6.7708">
        <ele>313</ele>
        <time>2016-07-24T07:09:53.000Z</time>
      </trkpt>
      <trkpt lat="47.48602" lon="6.77078">
        <ele>313</ele>
        <time>2016-07-24T07:09:54.000Z</time>
      </trkpt>
      <trkpt lat="47.48599" lon="6.77073">
        <ele>313</ele>
        <time>2016-07-24T07:09:55.000Z</time>
      </trkpt>
      <trkpt lat="47.48596" lon="6.7707">
        <ele>313</ele>
        <time>2016-07-24T07:09:56.000Z</time>
      </trkpt>
      <trkpt lat="47.48591" lon="6.77067">
        <ele>313</ele>
        <time>2016-07-24T07:09:57.000Z</time>
      </trkpt>
      <trkpt lat="47.48586" lon="6.77064">
        <ele>313</ele>
        <time>2016-07-24T07:09:58.000Z</time>
      </trkpt>
      <trkpt lat="47.48583" lon="6.77061">
        <ele>314</ele>
        <time>2016-07-24T07:09:59.000Z</time>
      </trkpt>
      <trkpt lat="47.48578" lon="6.7706">
        <ele>314</ele>
        <time>2016-07-24T07:10:00.000Z</time>
      </trkpt>
      <trkpt lat="47.48573" lon="6.77058">
        <ele>314</ele>
        <time>2016-07-24T07:10:01.000Z</time>
      </trkpt>
      <trkpt lat="47.48568" lon="6.77055">
        <ele>314</ele>
        <time>2016-07-24T07:10:02.000Z</time>
      </trkpt>
      <trkpt lat="47.48563" lon="6.77052">
        <ele>314</ele>
        <time>2016-07-24T07:10:03.000Z</time>
      </trkpt>
      <trkpt lat="47.48558" lon="6.77049">
        <ele>314</ele>
        <time>2016-07-24T07:10:04.000Z</time>
      </trkpt>
      <trkpt lat="47.48553" lon="6.77048">
        <ele>314</ele>
        <time>2016-07-24T07:10:05.000Z</time>
      </trkpt>
      <trkpt lat="47.48547" lon="6.77045">
        <ele>314</ele>
        <time>2016-07-24T07:10:06.000Z</time>
      </trkpt>
      <trkpt lat="47.48541" lon="6.77042">
        <ele>314</ele>
        <time>2016-07-24T07:10:07.000Z</time>
      </trkpt>
      <trkpt lat="47.48534" lon="6.77039">
        <ele>314</ele>
        <time>2016-07-24T07:10:08.000Z</time>
      </trkpt>
      <trkpt lat="47.48528" lon="6.77035">
        <ele>314</ele>
        <time>2016-07-24T07:10:09.000Z</time>
      </trkpt>
      <trkpt lat="47.48523" lon="6.7703">
        <ele>314</ele>
        <time>2016-07-24T07:10:10.000Z</time>
      </trkpt>
      <trkpt lat="47.48517" lon="6.77026">
        <ele>314</ele>
        <time>2016-07-24T07:10:11.000Z</time>
      </trkpt>
      <trkpt lat="47.48512" lon="6.77021">
        <ele>315</ele>
        <time>2016-07-24T07:10:12.000Z</time>
      </trkpt>
      <trkpt lat="47.48507" lon="6.77017">
        <ele>315</ele>
        <time>2016-07-24T07:10:13.000Z</time>
      </trkpt>
      <trkpt lat="47.48502" lon="6.77013">
        <ele>315</ele>
        <time>2016-07-24T07:10:14.000Z</time>
      </trkpt>
      <trkpt lat="47.48497" lon="6.77009">
        <ele>315</ele>
        <time>2016-07-24T07:10:15.000Z</time>
      </trkpt>
      <trkpt lat="47.48492" lon="6.77004">
        <ele>315</ele>
        <time>2016-07-24T07:10:16.000Z</time>
      </trkpt>
      <trkpt lat="47.48486" lon="6.77">
        <ele>316</ele>
        <time>2016-07-24T07:10:17.000Z</time>
      </trkpt>
      <trkpt lat="47.48481" lon="6.76995">
        <ele>315</ele>
        <time>2016-07-24T07:10:18.000Z</time>
      </trkpt>
      <trkpt lat="47.48476" lon="6.7699">
        <ele>315</ele>
        <time>2016-07-24T07:10:19.000Z</time>
      </trkpt>
      <trkpt lat="47.48471" lon="6.76986">
        <ele>315</ele>
        <time>2016-07-24T07:10:20.000Z</time>
      </trkpt>
      <trkpt lat="47.48465" lon="6.76982">
        <ele>315</ele>
        <time>2016-07-24T07:10:21.000Z</time>
      </trkpt>
      <trkpt lat="47.4846" lon="6.76979">
        <ele>315</ele>
        <time>2016-07-24T07:10:22.000Z</time>
      </trkpt>
      <trkpt lat="47.48454" lon="6.76976">
        <ele>315</ele>
        <time>2016-07-24T07:10:23.000Z</time>
      </trkpt>
      <trkpt lat="47.48449" lon="6.76972">
        <ele>315</ele>
        <time>2016-07-24T07:10:24.000Z</time>
      </trkpt>
      <trkpt lat="47.48446" lon="6.76969">
        <ele>315</ele>
        <time>2016-07-24T07:10:25.000Z</time>
      </trkpt>
      <trkpt lat="47.48441" lon="6.76965">
        <ele>315</ele>
        <time>2016-07-24T07:10:26.000Z</time>
      </trkpt>
      <trkpt lat="47.48436" lon="6.76961">
        <ele>314</ele>
        <time>2016-07-24T07:10:27.000Z</time>
      </trkpt>
      <trkpt lat="47.48431" lon="6.76957">
        <ele>314</ele>
        <time>2016-07-24T07:10:28.000Z</time>
      </trkpt>
      <trkpt lat="47.48426" lon="6.76956">
        <ele>314</ele>
        <time>2016-07-24T07:10:29.000Z</time>
      </trkpt>
      <trkpt lat="47.4842" lon="6.76953">
        <ele>314</ele>
        <time>2016-07-24T07:10:30.000Z</time>
      </trkpt>
      <trkpt lat="47.48415" lon="6.7695">
        <ele>312</ele>
        <time>2016-07-24T07:10:31.000Z</time>
      </trkpt>
      <trkpt lat="47.48409" lon="6.76948">
        <ele>312</ele>
        <time>2016-07-24T07:10:32.000Z</time>
      </trkpt>
      <trkpt lat="47.48403" lon="6.76945">
        <ele>312</ele>
        <time>2016-07-24T07:10:33.000Z</time>
      </trkpt>
      <trkpt lat="47.48397" lon="6.76943">
        <ele>312</ele>
        <time>2016-07-24T07:10:34.000Z</time>
      </trkpt>
      <trkpt lat="47.48392" lon="6.76939">
        <ele>312</ele>
        <time>2016-07-24T07:10:35.000Z</time>
      </trkpt>
      <trkpt lat="47.48387" lon="6.76936">
        <ele>312</ele>
        <time>2016-07-24T07:10:36.000Z</time>
      </trkpt>
      <trkpt lat="47.48381" lon="6.76933">
        <ele>312</ele>
        <time>2016-07-24T07:10:37.000Z</time>
      </trkpt>
      <trkpt lat="47.48376" lon="6.7693">
        <ele>312</ele>
        <time>2016-07-24T07:10:38.000Z</time>
      </trkpt>
      <trkpt lat="47.48371" lon="6.76926">
        <ele>312</ele>
        <time>2016-07-24T07:10:39.000Z</time>
      </trkpt>
      <trkpt lat="47.48366" lon="6.76923">
        <ele>311</ele>
        <time>2016-07-24T07:10:40.000Z</time>
      </trkpt>
      <trkpt lat="47.4836" lon="6.7692">
        <ele>311</ele>
        <time>2016-07-24T07:10:41.000Z</time>
      </trkpt>
      <trkpt lat="47.48355" lon="6.76916">
        <ele>311</ele>
        <time>2016-07-24T07:10:42.000Z</time>
      </trkpt>
      <trkpt lat="47.48349" lon="6.76912">
        <ele>310</ele>
        <time>2016-07-24T07:10:43.000Z</time>
      </trkpt>
      <trkpt lat="47.48349" lon="6.76912">
        <ele>310</ele>
        <time>2016-07-24T07:10:43.101Z</time>
      </trkpt>
      <trkpt lat="47.48339" lon="6.76906">
        <ele>310</ele>
        <time>2016-07-24T07:10:45.000Z</time>
      </trkpt>
      <trkpt lat="47.48335" lon="6.76902">
        <ele>310</ele>
        <time>2016-07-24T07:10:46.000Z</time>
      </trkpt>
      <trkpt lat="47.4833" lon="6.76898">
        <ele>310</ele>
        <time>2016-07-24T07:10:47.000Z</time>
      </trkpt>
      <trkpt lat="47.48326" lon="6.76893">
        <ele>310</ele>
        <time>2016-07-24T07:10:48.000Z</time>
      </trkpt>
      <trkpt lat="47.48321" lon="6.76889">
        <ele>310</ele>
        <time>2016-07-24T07:10:49.000Z</time>
      </trkpt>
      <trkpt lat="47.48316" lon="6.76886">
        <ele>310</ele>
        <time>2016-07-24T07:10:50.000Z</time>
      </trkpt>
      <trkpt lat="47.48311" lon="6.76882">
        <ele>310</ele>
        <time>2016-07-24T07:10:51.000Z</time>
      </trkpt>
      <trkpt lat="47.48306" lon="6.76878">
        <ele>310</ele>
        <time>2016-07-24T07:10:52.000Z</time>
      </trkpt>
      <trkpt lat="47.483" lon="6.76874">
        <ele>310</ele>
        <time>2016-07-24T07:10:53.000Z</time>
      </trkpt>
      <trkpt lat="47.48296" lon="6.7687">
        <ele>310</ele>
        <time>2016-07-24T07:10:54.000Z</time>
      </trkpt>
      <trkpt lat="47.48291" lon="6.76866">
        <ele>310</ele>
        <time>2016-07-24T07:10:55.000Z</time>
      </trkpt>
      <trkpt lat="47.48287" lon="6.76861">
        <ele>310</ele>
        <time>2016-07-24T07:10:56.000Z</time>
      </trkpt>
      <trkpt lat="47.48282" lon="6.76855">
        <ele>310</ele>
        <time>2016-07-24T07:10:57.000Z</time>
      </trkpt>
      <trkpt lat="47.48278" lon="6.76848">
        <ele>311</ele>
        <time>2016-07-24T07:10:58.000Z</time>
      </trkpt>
      <trkpt lat="47.48274" lon="6.76842">
        <ele>311</ele>
        <time>2016-07-24T07:10:59.000Z</time>
      </trkpt>
      <trkpt lat="47.4827" lon="6.76836">
        <ele>311</ele>
        <time>2016-07-24T07:11:00.000Z</time>
      </trkpt>
      <trkpt lat="47.48266" lon="6.76829">
        <ele>312</ele>
        <time>2016-07-24T07:11:01.000Z</time>
      </trkpt>
      <trkpt lat="47.48262" lon="6.76824">
        <ele>312</ele>
        <time>2016-07-24T07:11:02.000Z</time>
      </trkpt>
      <trkpt lat="47.48257" lon="6.76818">
        <ele>312</ele>
        <time>2016-07-24T07:11:03.000Z</time>
      </trkpt>
      <trkpt lat="47.48253" lon="6.76811">
        <ele>312</ele>
        <time>2016-07-24T07:11:04.000Z</time>
      </trkpt>
      <trkpt lat="47.48248" lon="6.76807">
        <ele>312</ele>
        <time>2016-07-24T07:11:05.000Z</time>
      </trkpt>
      <trkpt lat="47.48242" lon="6.76802">
        <ele>312</ele>
        <time>2016-07-24T07:11:06.000Z</time>
      </trkpt>
      <trkpt lat="47.48237" lon="6.76797">
        <ele>312</ele>
        <time>2016-07-24T07:11:07.000Z</time>
      </trkpt>
      <trkpt lat="47.48231" lon="6.76794">
        <ele>312</ele>
        <time>2016-07-24T07:11:08.000Z</time>
      </trkpt>
      <trkpt lat="47.48226" lon="6.76791">
        <ele>312</ele>
        <time>2016-07-24T07:11:09.000Z</time>
      </trkpt>
      <trkpt lat="47.4822" lon="6.76789">
        <ele>312</ele>
        <time>2016-07-24T07:11:10.000Z</time>
      </trkpt>
      <trkpt lat="47.48215" lon="6.76786">
        <ele>312</ele>
        <time>2016-07-24T07:11:11.000Z</time>
      </trkpt>
      <trkpt lat="47.48211" lon="6.76783">
        <ele>312</ele>
        <time>2016-07-24T07:11:12.000Z</time>
      </trkpt>
      <trkpt lat="47.48206" lon="6.76781">
        <ele>312</ele>
        <time>2016-07-24T07:11:13.000Z</time>
      </trkpt>
      <trkpt lat="47.482" lon="6.76779">
        <ele>312</ele>
        <time>2016-07-24T07:11:14.000Z</time>
      </trkpt>
      <trkpt lat="47.48194" lon="6.76776">
        <ele>312</ele>
        <time>2016-07-24T07:11:15.000Z</time>
      </trkpt>
      <trkpt lat="47.4819" lon="6.76772">
        <ele>312</ele>
        <time>2016-07-24T07:11:16.000Z</time>
      </trkpt>
      <trkpt lat="47.48183" lon="6.76769">
        <ele>312</ele>
        <time>2016-07-24T07:11:17.000Z</time>
      </trkpt>
      <trkpt lat="47.48178" lon="6.76763">
        <ele>313</ele>
        <time>2016-07-24T07:11:18.000Z</time>
      </trkpt>
      <trkpt lat="47.48172" lon="6.76759">
        <ele>313</ele>
        <time>2016-07-24T07:11:19.000Z</time>
      </trkpt>
      <trkpt lat="47.48167" lon="6.76753">
        <ele>313</ele>
        <time>2016-07-24T07:11:20.000Z</time>
      </trkpt>
      <trkpt lat="47.48164" lon="6.76747">
        <ele>313</ele>
        <time>2016-07-24T07:11:21.000Z</time>
      </trkpt>
      <trkpt lat="47.4816" lon="6.76741">
        <ele>313</ele>
        <time>2016-07-24T07:11:22.000Z</time>
      </trkpt>
      <trkpt lat="47.48156" lon="6.76734">
        <ele>312</ele>
        <time>2016-07-24T07:11:23.000Z</time>
      </trkpt>
      <trkpt lat="47.48153" lon="6.76728">
        <ele>312</ele>
        <time>2016-07-24T07:11:24.000Z</time>
      </trkpt>
      <trkpt lat="47.4815" lon="6.76721">
        <ele>312</ele>
        <time>2016-07-24T07:11:25.000Z</time>
      </trkpt>
      <trkpt lat="47.48147" lon="6.76714">
        <ele>312</ele>
        <time>2016-07-24T07:11:26.000Z</time>
      </trkpt>
      <trkpt lat="47.48143" lon="6.76707">
        <ele>312</ele>
        <time>2016-07-24T07:11:27.000Z</time>
      </trkpt>
      <trkpt lat="47.4814" lon="6.76701">
        <ele>312</ele>
        <time>2016-07-24T07:11:28.000Z</time>
      </trkpt>
      <trkpt lat="47.48137" lon="6.76694">
        <ele>312</ele>
        <time>2016-07-24T07:11:29.000Z</time>
      </trkpt>
      <trkpt lat="47.48133" lon="6.76688">
        <ele>312</ele>
        <time>2016-07-24T07:11:30.000Z</time>
      </trkpt>
      <trkpt lat="47.4813" lon="6.76681">
        <ele>312</ele>
        <time>2016-07-24T07:11:31.000Z</time>
      </trkpt>
      <trkpt lat="47.48126" lon="6.76676">
        <ele>312</ele>
        <time>2016-07-24T07:11:32.000Z</time>
      </trkpt>
      <trkpt lat="47.48121" lon="6.76671">
        <ele>312</ele>
        <time>2016-07-24T07:11:33.000Z</time>
      </trkpt>
      <trkpt lat="47.48117" lon="6.76665">
        <ele>312</ele>
        <time>2016-07-24T07:11:34.000Z</time>
      </trkpt>
      <trkpt lat="47.48114" lon="6.76659">
        <ele>312</ele>
        <time>2016-07-24T07:11:35.000Z</time>
      </trkpt>
      <trkpt lat="47.4811" lon="6.76654">
        <ele>312</ele>
        <time>2016-07-24T07:11:36.000Z</time>
      </trkpt>
      <trkpt lat="47.48107" lon="6.76649">
        <ele>312</ele>
        <time>2016-07-24T07:11:37.000Z</time>
      </trkpt>
      <trkpt lat="47.48104" lon="6.76643">
        <ele>313</ele>
        <time>2016-07-24T07:11:38.000Z</time>
      </trkpt>
      <trkpt lat="47.48101" lon="6.76637">
        <ele>313</ele>
        <time>2016-07-24T07:11:39.000Z</time>
      </trkpt>
      <trkpt lat="47.48098" lon="6.76631">
        <ele>313</ele>
        <time>2016-07-24T07:11:40.000Z</time>
      </trkpt>
      <trkpt lat="47.48097" lon="6.76624">
        <ele>313</ele>
        <time>2016-07-24T07:11:41.000Z</time>
      </trkpt>
      <trkpt lat="47.48098" lon="6.76616">
        <ele>313</ele>
        <time>2016-07-24T07:11:42.000Z</time>
      </trkpt>
      <trkpt lat="47.481" lon="6.76609">
        <ele>313</ele>
        <time>2016-07-24T07:11:43.000Z</time>
      </trkpt>
      <trkpt lat="47.48101" lon="6.76602">
        <ele>313</ele>
        <time>2016-07-24T07:11:44.000Z</time>
      </trkpt>
      <trkpt lat="47.48101" lon="6.76595">
        <ele>313</ele>
        <time>2016-07-24T07:11:45.000Z</time>
      </trkpt>
      <trkpt lat="47.48106" lon="6.76589">
        <ele>313</ele>
        <time>2016-07-24T07:11:46.000Z</time>
      </trkpt>
      <trkpt lat="47.48109" lon="6.76585">
        <ele>313</ele>
        <time>2016-07-24T07:11:47.000Z</time>
      </trkpt>
      <trkpt lat="47.48113" lon="6.76578">
        <ele>317</ele>
        <time>2016-07-24T07:11:48.000Z</time>
      </trkpt>
      <trkpt lat="47.48117" lon="6.76573">
        <ele>318</ele>
        <time>2016-07-24T07:11:49.000Z</time>
      </trkpt>
      <trkpt lat="47.4812" lon="6.76567">
        <ele>318</ele>
        <time>2016-07-24T07:11:50.000Z</time>
      </trkpt>
      <trkpt lat="47.48123" lon="6.76562">
        <ele>319</ele>
        <time>2016-07-24T07:11:51.000Z</time>
      </trkpt>
      <trkpt lat="47.48124" lon="6.76559">
        <ele>319</ele>
        <time>2016-07-24T07:11:52.000Z</time>
      </trkpt>
      <trkpt lat="47.48126" lon="6.76555">
        <ele>319</ele>
        <time>2016-07-24T07:11:53.000Z</time>
      </trkpt>
      <trkpt lat="47.48127" lon="6.76553">
        <ele>320</ele>
        <time>2016-07-24T07:11:54.000Z</time>
      </trkpt>
      <trkpt lat="47.48127" lon="6.7655">
        <ele>320</ele>
        <time>2016-07-24T07:11:55.000Z</time>
      </trkpt>
      <trkpt lat="47.48124" lon="6.76546">
        <ele>320</ele>
        <time>2016-07-24T07:11:56.000Z</time>
      </trkpt>
      <trkpt lat="47.48123" lon="6.76542">
        <ele>320</ele>
        <time>2016-07-24T07:11:57.000Z</time>
      </trkpt>
      <trkpt lat="47.48118" lon="6.76539">
        <ele>320</ele>
        <time>2016-07-24T07:11:58.000Z</time>
      </trkpt>
      <trkpt lat="47.48119" lon="6.7653">
        <ele>320</ele>
        <time>2016-07-24T07:11:59.000Z</time>
      </trkpt>
      <trkpt lat="47.48117" lon="6.76527">
        <ele>320</ele>
        <time>2016-07-24T07:12:00.000Z</time>
      </trkpt>
      <trkpt lat="47.48115" lon="6.76523">
        <ele>320</ele>
        <time>2016-07-24T07:12:01.000Z</time>
      </trkpt>
      <trkpt lat="47.48115" lon="6.7652">
        <ele>320</ele>
        <time>2016-07-24T07:12:02.000Z</time>
      </trkpt>
      <trkpt lat="47.48113" lon="6.76518">
        <ele>319</ele>
        <time>2016-07-24T07:12:03.000Z</time>
      </trkpt>
      <trkpt lat="47.4811" lon="6.76516">
        <ele>319</ele>
        <time>2016-07-24T07:12:04.000Z</time>
      </trkpt>
      <trkpt lat="47.48107" lon="6.76516">
        <ele>319</ele>
        <time>2016-07-24T07:12:05.000Z</time>
      </trkpt>
      <trkpt lat="47.48103" lon="6.76518">
        <ele>318</ele>
        <time>2016-07-24T07:12:06.000Z</time>
      </trkpt>
      <trkpt lat="47.48099" lon="6.76521">
        <ele>318</ele>
        <time>2016-07-24T07:12:07.000Z</time>
      </trkpt>
      <trkpt lat="47.48094" lon="6.76524">
        <ele>317</ele>
        <time>2016-07-24T07:12:08.000Z</time>
      </trkpt>
      <trkpt lat="47.4809" lon="6.76527">
        <ele>317</ele>
        <time>2016-07-24T07:12:09.000Z</time>
      </trkpt>
      <trkpt lat="47.48085" lon="6.76531">
        <ele>317</ele>
        <time>2016-07-24T07:12:10.000Z</time>
      </trkpt>
      <trkpt lat="47.48081" lon="6.76534">
        <ele>312</ele>
        <time>2016-07-24T07:12:11.000Z</time>
      </trkpt>
      <trkpt lat="47.48073" lon="6.76538">
        <ele>312</ele>
        <time>2016-07-24T07:12:12.000Z</time>
      </trkpt>
      <trkpt lat="47.48069" lon="6.76542">
        <ele>312</ele>
        <time>2016-07-24T07:12:13.000Z</time>
      </trkpt>
      <trkpt lat="47.48065" lon="6.76545">
        <ele>312</ele>
        <time>2016-07-24T07:12:14.000Z</time>
      </trkpt>
      <trkpt lat="47.48061" lon="6.76547">
        <ele>312</ele>
        <time>2016-07-24T07:12:15.000Z</time>
      </trkpt>
      <trkpt lat="47.48057" lon="6.7655">
        <ele>312</ele>
        <time>2016-07-24T07:12:16.000Z</time>
      </trkpt>
      <trkpt lat="47.48053" lon="6.76554">
        <ele>312</ele>
        <time>2016-07-24T07:12:17.000Z</time>
      </trkpt>
      <trkpt lat="47.48049" lon="6.76557">
        <ele>312</ele>
        <time>2016-07-24T07:12:18.000Z</time>
      </trkpt>
      <trkpt lat="47.48046" lon="6.7656">
        <ele>312</ele>
        <time>2016-07-24T07:12:19.000Z</time>
      </trkpt>
      <trkpt lat="47.48042" lon="6.76562">
        <ele>312</ele>
        <time>2016-07-24T07:12:20.000Z</time>
      </trkpt>
      <trkpt lat="47.48038" lon="6.76562">
        <ele>312</ele>
        <time>2016-07-24T07:12:21.000Z</time>
      </trkpt>
      <trkpt lat="47.48034" lon="6.76566">
        <ele>312</ele>
        <time>2016-07-24T07:12:22.000Z</time>
      </trkpt>
      <trkpt lat="47.4803" lon="6.76569">
        <ele>312</ele>
        <time>2016-07-24T07:12:23.000Z</time>
      </trkpt>
      <trkpt lat="47.48026" lon="6.76574">
        <ele>312</ele>
        <time>2016-07-24T07:12:24.000Z</time>
      </trkpt>
      <trkpt lat="47.48022" lon="6.76577">
        <ele>312</ele>
        <time>2016-07-24T07:12:25.000Z</time>
      </trkpt>
      <trkpt lat="47.48019" lon="6.7658">
        <ele>312</ele>
        <time>2016-07-24T07:12:26.000Z</time>
      </trkpt>
      <trkpt lat="47.48015" lon="6.76584">
        <ele>312</ele>
        <time>2016-07-24T07:12:27.000Z</time>
      </trkpt>
      <trkpt lat="47.4801" lon="6.76587">
        <ele>312</ele>
        <time>2016-07-24T07:12:28.000Z</time>
      </trkpt>
      <trkpt lat="47.48005" lon="6.76588">
        <ele>312</ele>
        <time>2016-07-24T07:12:29.000Z</time>
      </trkpt>
      <trkpt lat="47.48001" lon="6.76592">
        <ele>312</ele>
        <time>2016-07-24T07:12:30.000Z</time>
      </trkpt>
      <trkpt lat="47.47997" lon="6.76595">
        <ele>312</ele>
        <time>2016-07-24T07:12:31.000Z</time>
      </trkpt>
      <trkpt lat="47.47992" lon="6.76597">
        <ele>312</ele>
        <time>2016-07-24T07:12:32.000Z</time>
      </trkpt>
      <trkpt lat="47.47988" lon="6.76599">
        <ele>312</ele>
        <time>2016-07-24T07:12:33.000Z</time>
      </trkpt>
      <trkpt lat="47.47985" lon="6.76602">
        <ele>312</ele>
        <time>2016-07-24T07:12:34.000Z</time>
      </trkpt>
      <trkpt lat="47.47981" lon="6.76605">
        <ele>311</ele>
        <time>2016-07-24T07:12:35.000Z</time>
      </trkpt>
      <trkpt lat="47.47977" lon="6.76607">
        <ele>311</ele>
        <time>2016-07-24T07:12:36.000Z</time>
      </trkpt>
      <trkpt lat="47.47973" lon="6.7661">
        <ele>311</ele>
        <time>2016-07-24T07:12:37.000Z</time>
      </trkpt>
      <trkpt lat="47.47969" lon="6.76613">
        <ele>311</ele>
        <time>2016-07-24T07:12:38.000Z</time>
      </trkpt>
      <trkpt lat="47.47965" lon="6.76615">
        <ele>311</ele>
        <time>2016-07-24T07:12:39.000Z</time>
      </trkpt>
      <trkpt lat="47.47961" lon="6.76616">
        <ele>311</ele>
        <time>2016-07-24T07:12:40.000Z</time>
      </trkpt>
      <trkpt lat="47.47957" lon="6.76609">
        <ele>311</ele>
        <time>2016-07-24T07:12:41.000Z</time>
      </trkpt>
      <trkpt lat="47.47953" lon="6.76604">
        <ele>311</ele>
        <time>2016-07-24T07:12:42.000Z</time>
      </trkpt>
      <trkpt lat="47.47952" lon="6.76594">
        <ele>311</ele>
        <time>2016-07-24T07:12:43.000Z</time>
      </trkpt>
      <trkpt lat="47.4795" lon="6.76586">
        <ele>311</ele>
        <time>2016-07-24T07:12:44.000Z</time>
      </trkpt>
      <trkpt lat="47.47947" lon="6.76576">
        <ele>311</ele>
        <time>2016-07-24T07:12:45.000Z</time>
      </trkpt>
      <trkpt lat="47.47945" lon="6.76567">
        <ele>311</ele>
        <time>2016-07-24T07:12:46.000Z</time>
      </trkpt>
      <trkpt lat="47.47941" lon="6.76558">
        <ele>311</ele>
        <time>2016-07-24T07:12:47.000Z</time>
      </trkpt>
      <trkpt lat="47.47938" lon="6.76549">
        <ele>311</ele>
        <time>2016-07-24T07:12:48.000Z</time>
      </trkpt>
      <trkpt lat="47.47936" lon="6.7654">
        <ele>311</ele>
        <time>2016-07-24T07:12:49.000Z</time>
      </trkpt>
      <trkpt lat="47.47934" lon="6.76532">
        <ele>311</ele>
        <time>2016-07-24T07:12:50.000Z</time>
      </trkpt>
      <trkpt lat="47.47932" lon="6.76524">
        <ele>311</ele>
        <time>2016-07-24T07:12:51.000Z</time>
      </trkpt>
      <trkpt lat="47.4793" lon="6.76515">
        <ele>311</ele>
        <time>2016-07-24T07:12:52.000Z</time>
      </trkpt>
      <trkpt lat="47.47927" lon="6.76506">
        <ele>310</ele>
        <time>2016-07-24T07:12:53.000Z</time>
      </trkpt>
      <trkpt lat="47.47925" lon="6.76497">
        <ele>310</ele>
        <time>2016-07-24T07:12:54.000Z</time>
      </trkpt>
      <trkpt lat="47.47922" lon="6.76489">
        <ele>310</ele>
        <time>2016-07-24T07:12:55.000Z</time>
      </trkpt>
      <trkpt lat="47.4792" lon="6.7648">
        <ele>311</ele>
        <time>2016-07-24T07:12:56.000Z</time>
      </trkpt>
      <trkpt lat="47.47918" lon="6.76471">
        <ele>311</ele>
        <time>2016-07-24T07:12:57.000Z</time>
      </trkpt>
      <trkpt lat="47.47917" lon="6.76462">
        <ele>310</ele>
        <time>2016-07-24T07:12:58.000Z</time>
      </trkpt>
      <trkpt lat="47.47914" lon="6.76453">
        <ele>311</ele>
        <time>2016-07-24T07:12:59.000Z</time>
      </trkpt>
      <trkpt lat="47.47912" lon="6.76444">
        <ele>311</ele>
        <time>2016-07-24T07:13:00.000Z</time>
      </trkpt>
      <trkpt lat="47.47909" lon="6.76435">
        <ele>311</ele>
        <time>2016-07-24T07:13:01.000Z</time>
      </trkpt>
      <trkpt lat="47.47907" lon="6.76427">
        <ele>311</ele>
        <time>2016-07-24T07:13:02.000Z</time>
      </trkpt>
      <trkpt lat="47.47903" lon="6.76418">
        <ele>311</ele>
        <time>2016-07-24T07:13:03.000Z</time>
      </trkpt>
      <trkpt lat="47.479" lon="6.7641">
        <ele>311</ele>
        <time>2016-07-24T07:13:04.000Z</time>
      </trkpt>
      <trkpt lat="47.47897" lon="6.76402">
        <ele>311</ele>
        <time>2016-07-24T07:13:05.000Z</time>
      </trkpt>
      <trkpt lat="47.47894" lon="6.76395">
        <ele>311</ele>
        <time>2016-07-24T07:13:06.000Z</time>
      </trkpt>
      <trkpt lat="47.4789" lon="6.76387">
        <ele>311</ele>
        <time>2016-07-24T07:13:07.000Z</time>
      </trkpt>
      <trkpt lat="47.47887" lon="6.7638">
        <ele>311</ele>
        <time>2016-07-24T07:13:08.000Z</time>
      </trkpt>
      <trkpt lat="47.47883" lon="6.76373">
        <ele>311</ele>
        <time>2016-07-24T07:13:08.998Z</time>
      </trkpt>
      <trkpt lat="47.47881" lon="6.76367">
        <ele>311</ele>
        <time>2016-07-24T07:13:10.000Z</time>
      </trkpt>
      <trkpt lat="47.47877" lon="6.76359">
        <ele>311</ele>
        <time>2016-07-24T07:13:11.000Z</time>
      </trkpt>
      <trkpt lat="47.47874" lon="6.76353">
        <ele>311</ele>
        <time>2016-07-24T07:13:12.000Z</time>
      </trkpt>
      <trkpt lat="47.4787" lon="6.76346">
        <ele>311</ele>
        <time>2016-07-24T07:13:13.000Z</time>
      </trkpt>
      <trkpt lat="47.47867" lon="6.76339">
        <ele>311</ele>
        <time>2016-07-24T07:13:14.000Z</time>
      </trkpt>
      <trkpt lat="47.47863" lon="6.76333">
        <ele>310</ele>
        <time>2016-07-24T07:13:15.000Z</time>
      </trkpt>
      <trkpt lat="47.47859" lon="6.76327">
        <ele>311</ele>
        <time>2016-07-24T07:13:16.000Z</time>
      </trkpt>
      <trkpt lat="47.47856" lon="6.76319">
        <ele>311</ele>
        <time>2016-07-24T07:13:17.000Z</time>
      </trkpt>
      <trkpt lat="47.47853" lon="6.76312">
        <ele>311</ele>
        <time>2016-07-24T07:13:18.000Z</time>
      </trkpt>
      <trkpt lat="47.47849" lon="6.76305">
        <ele>311</ele>
        <time>2016-07-24T07:13:19.000Z</time>
      </trkpt>
      <trkpt lat="47.47845" lon="6.76298">
        <ele>311</ele>
        <time>2016-07-24T07:13:20.000Z</time>
      </trkpt>
      <trkpt lat="47.47841" lon="6.76292">
        <ele>311</ele>
        <time>2016-07-24T07:13:21.000Z</time>
      </trkpt>
      <trkpt lat="47.47837" lon="6.76286">
        <ele>311</ele>
        <time>2016-07-24T07:13:22.000Z</time>
      </trkpt>
      <trkpt lat="47.47832" lon="6.76281">
        <ele>310</ele>
        <time>2016-07-24T07:13:23.000Z</time>
      </trkpt>
      <trkpt lat="47.47827" lon="6.76277">
        <ele>310</ele>
        <time>2016-07-24T07:13:24.000Z</time>
      </trkpt>
      <trkpt lat="47.47822" lon="6.76273">
        <ele>310</ele>
        <time>2016-07-24T07:13:25.000Z</time>
      </trkpt>
      <trkpt lat="47.47817" lon="6.7627">
        <ele>310</ele>
        <time>2016-07-24T07:13:26.000Z</time>
      </trkpt>
      <trkpt lat="47.47812" lon="6.76266">
        <ele>310</ele>
        <time>2016-07-24T07:13:27.000Z</time>
      </trkpt>
      <trkpt lat="47.47807" lon="6.76264">
        <ele>310</ele>
        <time>2016-07-24T07:13:28.000Z</time>
      </trkpt>
      <trkpt lat="47.47802" lon="6.76259">
        <ele>310</ele>
        <time>2016-07-24T07:13:29.000Z</time>
      </trkpt>
      <trkpt lat="47.47796" lon="6.76257">
        <ele>310</ele>
        <time>2016-07-24T07:13:30.000Z</time>
      </trkpt>
      <trkpt lat="47.47791" lon="6.76254">
        <ele>310</ele>
        <time>2016-07-24T07:13:31.000Z</time>
      </trkpt>
      <trkpt lat="47.47785" lon="6.7625">
        <ele>310</ele>
        <time>2016-07-24T07:13:32.000Z</time>
      </trkpt>
      <trkpt lat="47.47782" lon="6.76246">
        <ele>309</ele>
        <time>2016-07-24T07:13:33.000Z</time>
      </trkpt>
      <trkpt lat="47.47777" lon="6.7624">
        <ele>309</ele>
        <time>2016-07-24T07:13:34.000Z</time>
      </trkpt>
      <trkpt lat="47.47772" lon="6.76234">
        <ele>309</ele>
        <time>2016-07-24T07:13:35.000Z</time>
      </trkpt>
      <trkpt lat="47.47768" lon="6.76228">
        <ele>309</ele>
        <time>2016-07-24T07:13:36.000Z</time>
      </trkpt>
      <trkpt lat="47.47764" lon="6.76221">
        <ele>309</ele>
        <time>2016-07-24T07:13:37.000Z</time>
      </trkpt>
      <trkpt lat="47.47761" lon="6.76215">
        <ele>309</ele>
        <time>2016-07-24T07:13:38.000Z</time>
      </trkpt>
      <trkpt lat="47.47757" lon="6.76209">
        <ele>309</ele>
        <time>2016-07-24T07:13:39.000Z</time>
      </trkpt>
      <trkpt lat="47.47753" lon="6.76203">
        <ele>309</ele>
        <time>2016-07-24T07:13:40.000Z</time>
      </trkpt>
      <trkpt lat="47.47749" lon="6.76197">
        <ele>309</ele>
        <time>2016-07-24T07:13:41.000Z</time>
      </trkpt>
      <trkpt lat="47.47745" lon="6.76191">
        <ele>309</ele>
        <time>2016-07-24T07:13:42.000Z</time>
      </trkpt>
      <trkpt lat="47.47741" lon="6.76186">
        <ele>308</ele>
        <time>2016-07-24T07:13:43.000Z</time>
      </trkpt>
      <trkpt lat="47.47737" lon="6.76179">
        <ele>308</ele>
        <time>2016-07-24T07:13:44.000Z</time>
      </trkpt>
      <trkpt lat="47.47733" lon="6.76174">
        <ele>308</ele>
        <time>2016-07-24T07:13:45.000Z</time>
      </trkpt>
      <trkpt lat="47.47729" lon="6.76169">
        <ele>308</ele>
        <time>2016-07-24T07:13:46.000Z</time>
      </trkpt>
      <trkpt lat="47.47726" lon="6.76162">
        <ele>309</ele>
        <time>2016-07-24T07:13:47.000Z</time>
      </trkpt>
      <trkpt lat="47.47722" lon="6.76156">
        <ele>309</ele>
        <time>2016-07-24T07:13:48.000Z</time>
      </trkpt>
      <trkpt lat="47.47718" lon="6.76149">
        <ele>309</ele>
        <time>2016-07-24T07:13:49.000Z</time>
      </trkpt>
      <trkpt lat="47.47714" lon="6.76144">
        <ele>309</ele>
        <time>2016-07-24T07:13:50.000Z</time>
      </trkpt>
      <trkpt lat="47.47709" lon="6.76138">
        <ele>309</ele>
        <time>2016-07-24T07:13:51.000Z</time>
      </trkpt>
      <trkpt lat="47.47705" lon="6.76133">
        <ele>310</ele>
        <time>2016-07-24T07:13:52.000Z</time>
      </trkpt>
      <trkpt lat="47.47702" lon="6.76126">
        <ele>310</ele>
        <time>2016-07-24T07:13:53.000Z</time>
      </trkpt>
      <trkpt lat="47.47697" lon="6.7612">
        <ele>310</ele>
        <time>2016-07-24T07:13:54.000Z</time>
      </trkpt>
      <trkpt lat="47.47694" lon="6.76114">
        <ele>310</ele>
        <time>2016-07-24T07:13:55.000Z</time>
      </trkpt>
      <trkpt lat="47.47689" lon="6.76107">
        <ele>310</ele>
        <time>2016-07-24T07:13:56.000Z</time>
      </trkpt>
      <trkpt lat="47.47685" lon="6.761">
        <ele>310</ele>
        <time>2016-07-24T07:13:57.000Z</time>
      </trkpt>
      <trkpt lat="47.47681" lon="6.76094">
        <ele>310</ele>
        <time>2016-07-24T07:13:58.000Z</time>
      </trkpt>
      <trkpt lat="47.47677" lon="6.76088">
        <ele>310</ele>
        <time>2016-07-24T07:13:59.000Z</time>
      </trkpt>
      <trkpt lat="47.47673" lon="6.76082">
        <ele>311</ele>
        <time>2016-07-24T07:14:00.000Z</time>
      </trkpt>
      <trkpt lat="47.4767" lon="6.76075">
        <ele>311</ele>
        <time>2016-07-24T07:14:01.000Z</time>
      </trkpt>
      <trkpt lat="47.47667" lon="6.76068">
        <ele>311</ele>
        <time>2016-07-24T07:14:02.000Z</time>
      </trkpt>
      <trkpt lat="47.47665" lon="6.7606">
        <ele>311</ele>
        <time>2016-07-24T07:14:03.000Z</time>
      </trkpt>
      <trkpt lat="47.47662" lon="6.76052">
        <ele>311</ele>
        <time>2016-07-24T07:14:04.000Z</time>
      </trkpt>
      <trkpt lat="47.47661" lon="6.76043">
        <ele>311</ele>
        <time>2016-07-24T07:14:05.000Z</time>
      </trkpt>
      <trkpt lat="47.47663" lon="6.76034">
        <ele>311</ele>
        <time>2016-07-24T07:14:06.000Z</time>
      </trkpt>
      <trkpt lat="47.47663" lon="6.76025">
        <ele>311</ele>
        <time>2016-07-24T07:14:07.000Z</time>
      </trkpt>
      <trkpt lat="47.47664" lon="6.76017">
        <ele>311</ele>
        <time>2016-07-24T07:14:08.000Z</time>
      </trkpt>
      <trkpt lat="47.47665" lon="6.76008">
        <ele>312</ele>
        <time>2016-07-24T07:14:09.000Z</time>
      </trkpt>
      <trkpt lat="47.47666" lon="6.76">
        <ele>312</ele>
        <time>2016-07-24T07:14:10.000Z</time>
      </trkpt>
      <trkpt lat="47.47669" lon="6.75992">
        <ele>312</ele>
        <time>2016-07-24T07:14:11.000Z</time>
      </trkpt>
      <trkpt lat="47.47672" lon="6.75985">
        <ele>312</ele>
        <time>2016-07-24T07:14:12.000Z</time>
      </trkpt>
      <trkpt lat="47.47675" lon="6.75979">
        <ele>312</ele>
        <time>2016-07-24T07:14:13.000Z</time>
      </trkpt>
      <trkpt lat="47.47678" lon="6.75973">
        <ele>311</ele>
        <time>2016-07-24T07:14:14.000Z</time>
      </trkpt>
      <trkpt lat="47.47682" lon="6.75967">
        <ele>311</ele>
        <time>2016-07-24T07:14:15.000Z</time>
      </trkpt>
      <trkpt lat="47.47685" lon="6.7596">
        <ele>311</ele>
        <time>2016-07-24T07:14:16.000Z</time>
      </trkpt>
      <trkpt lat="47.47688" lon="6.75952">
        <ele>311</ele>
        <time>2016-07-24T07:14:17.000Z</time>
      </trkpt>
      <trkpt lat="47.4769" lon="6.75944">
        <ele>311</ele>
        <time>2016-07-24T07:14:18.000Z</time>
      </trkpt>
      <trkpt lat="47.47692" lon="6.75936">
        <ele>311</ele>
        <time>2016-07-24T07:14:19.000Z</time>
      </trkpt>
      <trkpt lat="47.47694" lon="6.75927">
        <ele>311</ele>
        <time>2016-07-24T07:14:20.000Z</time>
      </trkpt>
      <trkpt lat="47.47693" lon="6.75917">
        <ele>311</ele>
        <time>2016-07-24T07:14:21.000Z</time>
      </trkpt>
      <trkpt lat="47.47694" lon="6.75908">
        <ele>311</ele>
        <time>2016-07-24T07:14:22.000Z</time>
      </trkpt>
      <trkpt lat="47.47694" lon="6.75899">
        <ele>311</ele>
        <time>2016-07-24T07:14:23.000Z</time>
      </trkpt>
      <trkpt lat="47.47694" lon="6.7589">
        <ele>311</ele>
        <time>2016-07-24T07:14:24.000Z</time>
      </trkpt>
      <trkpt lat="47.47694" lon="6.7588">
        <ele>311</ele>
        <time>2016-07-24T07:14:25.000Z</time>
      </trkpt>
      <trkpt lat="47.47694" lon="6.7587">
        <ele>311</ele>
        <time>2016-07-24T07:14:26.000Z</time>
      </trkpt>
      <trkpt lat="47.47694" lon="6.75862">
        <ele>311</ele>
        <time>2016-07-24T07:14:27.000Z</time>
      </trkpt>
      <trkpt lat="47.47694" lon="6.75854">
        <ele>311</ele>
        <time>2016-07-24T07:14:28.000Z</time>
      </trkpt>
      <trkpt lat="47.47694" lon="6.75845">
        <ele>311</ele>
        <time>2016-07-24T07:14:29.000Z</time>
      </trkpt>
      <trkpt lat="47.47694" lon="6.75838">
        <ele>311</ele>
        <time>2016-07-24T07:14:30.000Z</time>
      </trkpt>
      <trkpt lat="47.47695" lon="6.75831">
        <ele>310</ele>
        <time>2016-07-24T07:14:31.000Z</time>
      </trkpt>
      <trkpt lat="47.47695" lon="6.75823">
        <ele>310</ele>
        <time>2016-07-24T07:14:32.000Z</time>
      </trkpt>
      <trkpt lat="47.47696" lon="6.75817">
        <ele>310</ele>
        <time>2016-07-24T07:14:33.000Z</time>
      </trkpt>
      <trkpt lat="47.47696" lon="6.75811">
        <ele>310</ele>
        <time>2016-07-24T07:14:34.000Z</time>
      </trkpt>
      <trkpt lat="47.47697" lon="6.75806">
        <ele>310</ele>
        <time>2016-07-24T07:14:35.000Z</time>
      </trkpt>
      <trkpt lat="47.47697" lon="6.75803">
        <ele>310</ele>
        <time>2016-07-24T07:14:36.000Z</time>
      </trkpt>
      <trkpt lat="47.47698" lon="6.75797">
        <ele>310</ele>
        <time>2016-07-24T07:14:37.000Z</time>
      </trkpt>
      <trkpt lat="47.477" lon="6.75793">
        <ele>310</ele>
        <time>2016-07-24T07:14:38.000Z</time>
      </trkpt>
      <trkpt lat="47.477" lon="6.75787">
        <ele>310</ele>
        <time>2016-07-24T07:14:39.000Z</time>
      </trkpt>
      <trkpt lat="47.477" lon="6.75783">
        <ele>310</ele>
        <time>2016-07-24T07:14:40.000Z</time>
      </trkpt>
      <trkpt lat="47.47701" lon="6.75775">
        <ele>310</ele>
        <time>2016-07-24T07:14:41.000Z</time>
      </trkpt>
      <trkpt lat="47.47701" lon="6.75766">
        <ele>310</ele>
        <time>2016-07-24T07:14:42.000Z</time>
      </trkpt>
      <trkpt lat="47.47701" lon="6.75758">
        <ele>310</ele>
        <time>2016-07-24T07:14:43.000Z</time>
      </trkpt>
      <trkpt lat="47.47702" lon="6.7575">
        <ele>310</ele>
        <time>2016-07-24T07:14:44.000Z</time>
      </trkpt>
      <trkpt lat="47.47702" lon="6.75741">
        <ele>310</ele>
        <time>2016-07-24T07:14:45.000Z</time>
      </trkpt>
      <trkpt lat="47.47702" lon="6.75733">
        <ele>310</ele>
        <time>2016-07-24T07:14:46.000Z</time>
      </trkpt>
      <trkpt lat="47.47702" lon="6.75726">
        <ele>310</ele>
        <time>2016-07-24T07:14:47.000Z</time>
      </trkpt>
      <trkpt lat="47.47703" lon="6.7572">
        <ele>310</ele>
        <time>2016-07-24T07:14:48.000Z</time>
      </trkpt>
      <trkpt lat="47.47704" lon="6.75713">
        <ele>310</ele>
        <time>2016-07-24T07:14:49.000Z</time>
      </trkpt>
      <trkpt lat="47.47703" lon="6.75707">
        <ele>310</ele>
        <time>2016-07-24T07:14:50.000Z</time>
      </trkpt>
      <trkpt lat="47.47702" lon="6.75696">
        <ele>310</ele>
        <time>2016-07-24T07:14:51.000Z</time>
      </trkpt>
      <trkpt lat="47.47702" lon="6.75687">
        <ele>310</ele>
        <time>2016-07-24T07:14:52.000Z</time>
      </trkpt>
      <trkpt lat="47.47702" lon="6.75678">
        <ele>310</ele>
        <time>2016-07-24T07:14:53.000Z</time>
      </trkpt>
      <trkpt lat="47.47703" lon="6.75668">
        <ele>310</ele>
        <time>2016-07-24T07:14:54.000Z</time>
      </trkpt>
      <trkpt lat="47.47703" lon="6.75658">
        <ele>309</ele>
        <time>2016-07-24T07:14:55.000Z</time>
      </trkpt>
      <trkpt lat="47.47703" lon="6.75648">
        <ele>309</ele>
        <time>2016-07-24T07:14:56.000Z</time>
      </trkpt>
      <trkpt lat="47.47703" lon="6.75637">
        <ele>309</ele>
        <time>2016-07-24T07:14:57.000Z</time>
      </trkpt>
      <trkpt lat="47.47703" lon="6.75627">
        <ele>309</ele>
        <time>2016-07-24T07:14:58.000Z</time>
      </trkpt>
      <trkpt lat="47.47703" lon="6.75617">
        <ele>309</ele>
        <time>2016-07-24T07:14:59.000Z</time>
      </trkpt>
      <trkpt lat="47.47703" lon="6.75606">
        <ele>309</ele>
        <time>2016-07-24T07:15:00.000Z</time>
      </trkpt>
      <trkpt lat="47.47702" lon="6.75595">
        <ele>309</ele>
        <time>2016-07-24T07:15:01.000Z</time>
      </trkpt>
      <trkpt lat="47.47702" lon="6.75586">
        <ele>309</ele>
        <time>2016-07-24T07:15:02.000Z</time>
      </trkpt>
      <trkpt lat="47.47702" lon="6.75575">
        <ele>309</ele>
        <time>2016-07-24T07:15:03.000Z</time>
      </trkpt>
      <trkpt lat="47.47702" lon="6.75565">
        <ele>309</ele>
        <time>2016-07-24T07:15:04.000Z</time>
      </trkpt>
      <trkpt lat="47.47702" lon="6.75555">
        <ele>309</ele>
        <time>2016-07-24T07:15:05.000Z</time>
      </trkpt>
      <trkpt lat="47.47703" lon="6.75546">
        <ele>309</ele>
        <time>2016-07-24T07:15:06.000Z</time>
      </trkpt>
      <trkpt lat="47.47704" lon="6.75537">
        <ele>309</ele>
        <time>2016-07-24T07:15:07.000Z</time>
      </trkpt>
      <trkpt lat="47.47704" lon="6.75527">
        <ele>309</ele>
        <time>2016-07-24T07:15:08.000Z</time>
      </trkpt>
      <trkpt lat="47.47703" lon="6.75518">
        <ele>309</ele>
        <time>2016-07-24T07:15:09.000Z</time>
      </trkpt>
      <trkpt lat="47.47703" lon="6.75509">
        <ele>309</ele>
        <time>2016-07-24T07:15:10.000Z</time>
      </trkpt>
      <trkpt lat="47.47703" lon="6.75499">
        <ele>309</ele>
        <time>2016-07-24T07:15:11.000Z</time>
      </trkpt>
      <trkpt lat="47.47704" lon="6.7549">
        <ele>309</ele>
        <time>2016-07-24T07:15:12.000Z</time>
      </trkpt>
      <trkpt lat="47.47704" lon="6.75481">
        <ele>309</ele>
        <time>2016-07-24T07:15:13.000Z</time>
      </trkpt>
      <trkpt lat="47.47704" lon="6.75472">
        <ele>309</ele>
        <time>2016-07-24T07:15:14.000Z</time>
      </trkpt>
      <trkpt lat="47.47704" lon="6.75463">
        <ele>309</ele>
        <time>2016-07-24T07:15:15.000Z</time>
      </trkpt>
      <trkpt lat="47.47704" lon="6.75454">
        <ele>309</ele>
        <time>2016-07-24T07:15:16.000Z</time>
      </trkpt>
      <trkpt lat="47.47704" lon="6.75444">
        <ele>309</ele>
        <time>2016-07-24T07:15:17.000Z</time>
      </trkpt>
      <trkpt lat="47.47705" lon="6.75435">
        <ele>309</ele>
        <time>2016-07-24T07:15:18.000Z</time>
      </trkpt>
      <trkpt lat="47.47705" lon="6.75425">
        <ele>309</ele>
        <time>2016-07-24T07:15:19.000Z</time>
      </trkpt>
      <trkpt lat="47.47705" lon="6.75416">
        <ele>309</ele>
        <time>2016-07-24T07:15:20.000Z</time>
      </trkpt>
      <trkpt lat="47.47705" lon="6.75406">
        <ele>309</ele>
        <time>2016-07-24T07:15:21.000Z</time>
      </trkpt>
      <trkpt lat="47.47706" lon="6.75396">
        <ele>309</ele>
        <time>2016-07-24T07:15:22.000Z</time>
      </trkpt>
      <trkpt lat="47.47706" lon="6.75387">
        <ele>309</ele>
        <time>2016-07-24T07:15:23.000Z</time>
      </trkpt>
      <trkpt lat="47.47705" lon="6.75377">
        <ele>309</ele>
        <time>2016-07-24T07:15:24.000Z</time>
      </trkpt>
      <trkpt lat="47.47705" lon="6.7537">
        <ele>309</ele>
        <time>2016-07-24T07:15:25.000Z</time>
      </trkpt>
      <trkpt lat="47.47705" lon="6.75361">
        <ele>309</ele>
        <time>2016-07-24T07:15:26.000Z</time>
      </trkpt>
      <trkpt lat="47.47705" lon="6.75351">
        <ele>309</ele>
        <time>2016-07-24T07:15:27.000Z</time>
      </trkpt>
      <trkpt lat="47.47705" lon="6.75342">
        <ele>309</ele>
        <time>2016-07-24T07:15:28.000Z</time>
      </trkpt>
      <trkpt lat="47.47706" lon="6.75332">
        <ele>310</ele>
        <time>2016-07-24T07:15:29.000Z</time>
      </trkpt>
      <trkpt lat="47.47706" lon="6.75323">
        <ele>310</ele>
        <time>2016-07-24T07:15:30.000Z</time>
      </trkpt>
      <trkpt lat="47.47706" lon="6.75314">
        <ele>310</ele>
        <time>2016-07-24T07:15:31.000Z</time>
      </trkpt>
      <trkpt lat="47.47707" lon="6.75306">
        <ele>310</ele>
        <time>2016-07-24T07:15:32.000Z</time>
      </trkpt>
      <trkpt lat="47.47707" lon="6.75296">
        <ele>310</ele>
        <time>2016-07-24T07:15:33.000Z</time>
      </trkpt>
      <trkpt lat="47.47707" lon="6.75285">
        <ele>310</ele>
        <time>2016-07-24T07:15:34.000Z</time>
      </trkpt>
      <trkpt lat="47.47707" lon="6.75274">
        <ele>310</ele>
        <time>2016-07-24T07:15:35.000Z</time>
      </trkpt>
      <trkpt lat="47.47706" lon="6.75263">
        <ele>310</ele>
        <time>2016-07-24T07:15:36.000Z</time>
      </trkpt>
      <trkpt lat="47.47706" lon="6.75253">
        <ele>310</ele>
        <time>2016-07-24T07:15:37.000Z</time>
      </trkpt>
      <trkpt lat="47.47706" lon="6.75243">
        <ele>311</ele>
        <time>2016-07-24T07:15:38.000Z</time>
      </trkpt>
      <trkpt lat="47.47706" lon="6.75233">
        <ele>311</ele>
        <time>2016-07-24T07:15:39.000Z</time>
      </trkpt>
      <trkpt lat="47.47705" lon="6.75222">
        <ele>311</ele>
        <time>2016-07-24T07:15:40.000Z</time>
      </trkpt>
      <trkpt lat="47.47705" lon="6.75213">
        <ele>311</ele>
        <time>2016-07-24T07:15:41.000Z</time>
      </trkpt>
      <trkpt lat="47.47705" lon="6.75203">
        <ele>311</ele>
        <time>2016-07-24T07:15:42.000Z</time>
      </trkpt>
      <trkpt lat="47.47705" lon="6.75192">
        <ele>311</ele>
        <time>2016-07-24T07:15:43.000Z</time>
      </trkpt>
      <trkpt lat="47.47705" lon="6.75182">
        <ele>311</ele>
        <time>2016-07-24T07:15:44.000Z</time>
      </trkpt>
      <trkpt lat="47.47705" lon="6.75172">
        <ele>311</ele>
        <time>2016-07-24T07:15:45.000Z</time>
      </trkpt>
      <trkpt lat="47.47705" lon="6.75162">
        <ele>310</ele>
        <time>2016-07-24T07:15:46.000Z</time>
      </trkpt>
      <trkpt lat="47.47705" lon="6.75153">
        <ele>310</ele>
        <time>2016-07-24T07:15:47.000Z</time>
      </trkpt>
      <trkpt lat="47.47705" lon="6.75143">
        <ele>310</ele>
        <time>2016-07-24T07:15:48.000Z</time>
      </trkpt>
      <trkpt lat="47.47706" lon="6.75134">
        <ele>310</ele>
        <time>2016-07-24T07:15:49.000Z</time>
      </trkpt>
      <trkpt lat="47.47706" lon="6.75124">
        <ele>310</ele>
        <time>2016-07-24T07:15:50.000Z</time>
      </trkpt>
      <trkpt lat="47.47706" lon="6.75114">
        <ele>310</ele>
        <time>2016-07-24T07:15:51.000Z</time>
      </trkpt>
      <trkpt lat="47.47706" lon="6.75105">
        <ele>310</ele>
        <time>2016-07-24T07:15:52.000Z</time>
      </trkpt>
      <trkpt lat="47.47707" lon="6.75096">
        <ele>310</ele>
        <time>2016-07-24T07:15:53.000Z</time>
      </trkpt>
      <trkpt lat="47.47707" lon="6.75087">
        <ele>310</ele>
        <time>2016-07-24T07:15:54.000Z</time>
      </trkpt>
      <trkpt lat="47.47707" lon="6.75078">
        <ele>310</ele>
        <time>2016-07-24T07:15:55.000Z</time>
      </trkpt>
      <trkpt lat="47.47708" lon="6.75068">
        <ele>310</ele>
        <time>2016-07-24T07:15:56.000Z</time>
      </trkpt>
      <trkpt lat="47.47709" lon="6.75058">
        <ele>310</ele>
        <time>2016-07-24T07:15:57.000Z</time>
      </trkpt>
      <trkpt lat="47.47709" lon="6.75048">
        <ele>310</ele>
        <time>2016-07-24T07:15:58.000Z</time>
      </trkpt>
      <trkpt lat="47.4771" lon="6.75037">
        <ele>310</ele>
        <time>2016-07-24T07:15:59.000Z</time>
      </trkpt>
      <trkpt lat="47.47711" lon="6.75028">
        <ele>310</ele>
        <time>2016-07-24T07:16:00.000Z</time>
      </trkpt>
      <trkpt lat="47.47712" lon="6.75019">
        <ele>310</ele>
        <time>2016-07-24T07:16:01.000Z</time>
      </trkpt>
      <trkpt lat="47.47712" lon="6.75009">
        <ele>310</ele>
        <time>2016-07-24T07:16:02.000Z</time>
      </trkpt>
      <trkpt lat="47.47713" lon="6.75">
        <ele>310</ele>
        <time>2016-07-24T07:16:03.000Z</time>
      </trkpt>
      <trkpt lat="47.47714" lon="6.74992">
        <ele>310</ele>
        <time>2016-07-24T07:16:04.000Z</time>
      </trkpt>
      <trkpt lat="47.47716" lon="6.74984">
        <ele>310</ele>
        <time>2016-07-24T07:16:05.000Z</time>
      </trkpt>
      <trkpt lat="47.47716" lon="6.74975">
        <ele>310</ele>
        <time>2016-07-24T07:16:06.000Z</time>
      </trkpt>
      <trkpt lat="47.47717" lon="6.74965">
        <ele>310</ele>
        <time>2016-07-24T07:16:07.000Z</time>
      </trkpt>
      <trkpt lat="47.47718" lon="6.74957">
        <ele>310</ele>
        <time>2016-07-24T07:16:08.000Z</time>
      </trkpt>
      <trkpt lat="47.47718" lon="6.74948">
        <ele>310</ele>
        <time>2016-07-24T07:16:09.000Z</time>
      </trkpt>
      <trkpt lat="47.47718" lon="6.74939">
        <ele>310</ele>
        <time>2016-07-24T07:16:10.000Z</time>
      </trkpt>
      <trkpt lat="47.47718" lon="6.7493">
        <ele>310</ele>
        <time>2016-07-24T07:16:11.000Z</time>
      </trkpt>
      <trkpt lat="47.47718" lon="6.74921">
        <ele>310</ele>
        <time>2016-07-24T07:16:12.000Z</time>
      </trkpt>
      <trkpt lat="47.47718" lon="6.74912">
        <ele>309</ele>
        <time>2016-07-24T07:16:13.000Z</time>
      </trkpt>
      <trkpt lat="47.47719" lon="6.74905">
        <ele>309</ele>
        <time>2016-07-24T07:16:14.000Z</time>
      </trkpt>
      <trkpt lat="47.47719" lon="6.74896">
        <ele>309</ele>
        <time>2016-07-24T07:16:15.000Z</time>
      </trkpt>
      <trkpt lat="47.4772" lon="6.74888">
        <ele>309</ele>
        <time>2016-07-24T07:16:16.000Z</time>
      </trkpt>
      <trkpt lat="47.4772" lon="6.74879">
        <ele>309</ele>
        <time>2016-07-24T07:16:17.000Z</time>
      </trkpt>
      <trkpt lat="47.4772" lon="6.74871">
        <ele>309</ele>
        <time>2016-07-24T07:16:18.000Z</time>
      </trkpt>
      <trkpt lat="47.4772" lon="6.74862">
        <ele>309</ele>
        <time>2016-07-24T07:16:19.000Z</time>
      </trkpt>
      <trkpt lat="47.47721" lon="6.74853">
        <ele>309</ele>
        <time>2016-07-24T07:16:20.000Z</time>
      </trkpt>
      <trkpt lat="47.47721" lon="6.74844">
        <ele>309</ele>
        <time>2016-07-24T07:16:21.000Z</time>
      </trkpt>
      <trkpt lat="47.47722" lon="6.74836">
        <ele>309</ele>
        <time>2016-07-24T07:16:22.000Z</time>
      </trkpt>
      <trkpt lat="47.47723" lon="6.74828">
        <ele>309</ele>
        <time>2016-07-24T07:16:23.000Z</time>
      </trkpt>
      <trkpt lat="47.47723" lon="6.74818">
        <ele>309</ele>
        <time>2016-07-24T07:16:24.000Z</time>
      </trkpt>
      <trkpt lat="47.47723" lon="6.74809">
        <ele>309</ele>
        <time>2016-07-24T07:16:25.000Z</time>
      </trkpt>
      <trkpt lat="47.47724" lon="6.748">
        <ele>309</ele>
        <time>2016-07-24T07:16:26.000Z</time>
      </trkpt>
      <trkpt lat="47.47725" lon="6.74791">
        <ele>309</ele>
        <time>2016-07-24T07:16:27.000Z</time>
      </trkpt>
      <trkpt lat="47.47725" lon="6.74782">
        <ele>309</ele>
        <time>2016-07-24T07:16:28.000Z</time>
      </trkpt>
      <trkpt lat="47.47725" lon="6.74773">
        <ele>309</ele>
        <time>2016-07-24T07:16:29.000Z</time>
      </trkpt>
      <trkpt lat="47.47726" lon="6.74764">
        <ele>309</ele>
        <time>2016-07-24T07:16:30.000Z</time>
      </trkpt>
      <trkpt lat="47.47726" lon="6.74755">
        <ele>309</ele>
        <time>2016-07-24T07:16:31.000Z</time>
      </trkpt>
      <trkpt lat="47.47727" lon="6.74746">
        <ele>309</ele>
        <time>2016-07-24T07:16:32.000Z</time>
      </trkpt>
      <trkpt lat="47.47727" lon="6.74737">
        <ele>309</ele>
        <time>2016-07-24T07:16:33.000Z</time>
      </trkpt>
      <trkpt lat="47.47727" lon="6.74727">
        <ele>309</ele>
        <time>2016-07-24T07:16:34.000Z</time>
      </trkpt>
      <trkpt lat="47.47727" lon="6.74717">
        <ele>309</ele>
        <time>2016-07-24T07:16:35.000Z</time>
      </trkpt>
      <trkpt lat="47.47727" lon="6.74708">
        <ele>309</ele>
        <time>2016-07-24T07:16:36.000Z</time>
      </trkpt>
      <trkpt lat="47.47727" lon="6.74699">
        <ele>309</ele>
        <time>2016-07-24T07:16:37.000Z</time>
      </trkpt>
      <trkpt lat="47.47728" lon="6.74691">
        <ele>308</ele>
        <time>2016-07-24T07:16:38.000Z</time>
      </trkpt>
      <trkpt lat="47.47727" lon="6.74682">
        <ele>308</ele>
        <time>2016-07-24T07:16:39.000Z</time>
      </trkpt>
      <trkpt lat="47.47728" lon="6.74673">
        <ele>308</ele>
        <time>2016-07-24T07:16:40.000Z</time>
      </trkpt>
      <trkpt lat="47.47728" lon="6.74664">
        <ele>308</ele>
        <time>2016-07-24T07:16:41.000Z</time>
      </trkpt>
      <trkpt lat="47.47728" lon="6.74656">
        <ele>308</ele>
        <time>2016-07-24T07:16:42.000Z</time>
      </trkpt>
      <trkpt lat="47.47729" lon="6.74647">
        <ele>308</ele>
        <time>2016-07-24T07:16:43.000Z</time>
      </trkpt>
      <trkpt lat="47.47729" lon="6.74638">
        <ele>308</ele>
        <time>2016-07-24T07:16:44.000Z</time>
      </trkpt>
      <trkpt lat="47.47729" lon="6.7463">
        <ele>308</ele>
        <time>2016-07-24T07:16:45.000Z</time>
      </trkpt>
      <trkpt lat="47.47728" lon="6.74622">
        <ele>308</ele>
        <time>2016-07-24T07:16:46.000Z</time>
      </trkpt>
      <trkpt lat="47.47728" lon="6.74614">
        <ele>308</ele>
        <time>2016-07-24T07:16:47.000Z</time>
      </trkpt>
      <trkpt lat="47.47728" lon="6.74606">
        <ele>308</ele>
        <time>2016-07-24T07:16:48.000Z</time>
      </trkpt>
      <trkpt lat="47.47728" lon="6.74597">
        <ele>308</ele>
        <time>2016-07-24T07:16:49.000Z</time>
      </trkpt>
      <trkpt lat="47.47728" lon="6.74589">
        <ele>308</ele>
        <time>2016-07-24T07:16:50.000Z</time>
      </trkpt>
      <trkpt lat="47.47728" lon="6.7458">
        <ele>308</ele>
        <time>2016-07-24T07:16:51.000Z</time>
      </trkpt>
      <trkpt lat="47.47728" lon="6.74572">
        <ele>308</ele>
        <time>2016-07-24T07:16:52.000Z</time>
      </trkpt>
      <trkpt lat="47.47727" lon="6.74563">
        <ele>308</ele>
        <time>2016-07-24T07:16:53.000Z</time>
      </trkpt>
      <trkpt lat="47.47727" lon="6.74555">
        <ele>308</ele>
        <time>2016-07-24T07:16:54.000Z</time>
      </trkpt>
      <trkpt lat="47.47725" lon="6.74546">
        <ele>308</ele>
        <time>2016-07-24T07:16:55.000Z</time>
      </trkpt>
      <trkpt lat="47.47723" lon="6.74539">
        <ele>308</ele>
        <time>2016-07-24T07:16:56.000Z</time>
      </trkpt>
      <trkpt lat="47.47721" lon="6.7453">
        <ele>308</ele>
        <time>2016-07-24T07:16:57.000Z</time>
      </trkpt>
      <trkpt lat="47.4772" lon="6.74522">
        <ele>308</ele>
        <time>2016-07-24T07:16:58.000Z</time>
      </trkpt>
      <trkpt lat="47.47718" lon="6.74514">
        <ele>308</ele>
        <time>2016-07-24T07:16:59.000Z</time>
      </trkpt>
      <trkpt lat="47.47717" lon="6.74506">
        <ele>308</ele>
        <time>2016-07-24T07:17:00.000Z</time>
      </trkpt>
      <trkpt lat="47.47716" lon="6.74497">
        <ele>308</ele>
        <time>2016-07-24T07:17:01.000Z</time>
      </trkpt>
      <trkpt lat="47.47716" lon="6.7449">
        <ele>308</ele>
        <time>2016-07-24T07:17:02.000Z</time>
      </trkpt>
      <trkpt lat="47.47715" lon="6.74482">
        <ele>308</ele>
        <time>2016-07-24T07:17:03.000Z</time>
      </trkpt>
      <trkpt lat="47.47714" lon="6.74473">
        <ele>308</ele>
        <time>2016-07-24T07:17:04.000Z</time>
      </trkpt>
      <trkpt lat="47.47714" lon="6.74466">
        <ele>308</ele>
        <time>2016-07-24T07:17:05.000Z</time>
      </trkpt>
      <trkpt lat="47.47713" lon="6.74459">
        <ele>308</ele>
        <time>2016-07-24T07:17:06.000Z</time>
      </trkpt>
      <trkpt lat="47.47714" lon="6.74451">
        <ele>308</ele>
        <time>2016-07-24T07:17:07.000Z</time>
      </trkpt>
      <trkpt lat="47.47716" lon="6.74444">
        <ele>308</ele>
        <time>2016-07-24T07:17:08.000Z</time>
      </trkpt>
      <trkpt lat="47.47719" lon="6.74438">
        <ele>308</ele>
        <time>2016-07-24T07:17:09.000Z</time>
      </trkpt>
      <trkpt lat="47.47721" lon="6.7443">
        <ele>308</ele>
        <time>2016-07-24T07:17:10.000Z</time>
      </trkpt>
      <trkpt lat="47.4772" lon="6.74422">
        <ele>308</ele>
        <time>2016-07-24T07:17:11.000Z</time>
      </trkpt>
      <trkpt lat="47.47719" lon="6.74413">
        <ele>309</ele>
        <time>2016-07-24T07:17:12.000Z</time>
      </trkpt>
      <trkpt lat="47.47718" lon="6.74405">
        <ele>309</ele>
        <time>2016-07-24T07:17:13.000Z</time>
      </trkpt>
      <trkpt lat="47.47716" lon="6.74398">
        <ele>309</ele>
        <time>2016-07-24T07:17:14.000Z</time>
      </trkpt>
      <trkpt lat="47.47717" lon="6.74389">
        <ele>309</ele>
        <time>2016-07-24T07:17:15.000Z</time>
      </trkpt>
      <trkpt lat="47.47715" lon="6.74381">
        <ele>309</ele>
        <time>2016-07-24T07:17:16.000Z</time>
      </trkpt>
      <trkpt lat="47.47714" lon="6.74372">
        <ele>309</ele>
        <time>2016-07-24T07:17:17.000Z</time>
      </trkpt>
      <trkpt lat="47.47713" lon="6.74363">
        <ele>309</ele>
        <time>2016-07-24T07:17:18.000Z</time>
      </trkpt>
      <trkpt lat="47.47712" lon="6.74355">
        <ele>309</ele>
        <time>2016-07-24T07:17:19.000Z</time>
      </trkpt>
      <trkpt lat="47.47711" lon="6.74346">
        <ele>309</ele>
        <time>2016-07-24T07:17:20.000Z</time>
      </trkpt>
      <trkpt lat="47.4771" lon="6.74338">
        <ele>309</ele>
        <time>2016-07-24T07:17:21.000Z</time>
      </trkpt>
      <trkpt lat="47.47709" lon="6.7433">
        <ele>310</ele>
        <time>2016-07-24T07:17:22.000Z</time>
      </trkpt>
      <trkpt lat="47.47708" lon="6.74321">
        <ele>310</ele>
        <time>2016-07-24T07:17:23.000Z</time>
      </trkpt>
      <trkpt lat="47.47708" lon="6.74313">
        <ele>310</ele>
        <time>2016-07-24T07:17:24.000Z</time>
      </trkpt>
      <trkpt lat="47.47707" lon="6.74305">
        <ele>310</ele>
        <time>2016-07-24T07:17:25.000Z</time>
      </trkpt>
      <trkpt lat="47.47706" lon="6.74297">
        <ele>310</ele>
        <time>2016-07-24T07:17:26.000Z</time>
      </trkpt>
      <trkpt lat="47.47704" lon="6.74289">
        <ele>310</ele>
        <time>2016-07-24T07:17:27.000Z</time>
      </trkpt>
      <trkpt lat="47.47703" lon="6.7428">
        <ele>310</ele>
        <time>2016-07-24T07:17:28.000Z</time>
      </trkpt>
      <trkpt lat="47.47702" lon="6.74272">
        <ele>310</ele>
        <time>2016-07-24T07:17:29.000Z</time>
      </trkpt>
      <trkpt lat="47.47701" lon="6.74264">
        <ele>310</ele>
        <time>2016-07-24T07:17:30.000Z</time>
      </trkpt>
      <trkpt lat="47.47699" lon="6.74255">
        <ele>310</ele>
        <time>2016-07-24T07:17:31.000Z</time>
      </trkpt>
      <trkpt lat="47.47698" lon="6.74247">
        <ele>310</ele>
        <time>2016-07-24T07:17:32.000Z</time>
      </trkpt>
      <trkpt lat="47.47697" lon="6.74238">
        <ele>310</ele>
        <time>2016-07-24T07:17:33.000Z</time>
      </trkpt>
      <trkpt lat="47.47695" lon="6.7423">
        <ele>310</ele>
        <time>2016-07-24T07:17:34.000Z</time>
      </trkpt>
      <trkpt lat="47.47694" lon="6.74221">
        <ele>310</ele>
        <time>2016-07-24T07:17:35.000Z</time>
      </trkpt>
      <trkpt lat="47.47693" lon="6.74213">
        <ele>310</ele>
        <time>2016-07-24T07:17:36.000Z</time>
      </trkpt>
      <trkpt lat="47.47692" lon="6.74204">
        <ele>310</ele>
        <time>2016-07-24T07:17:37.000Z</time>
      </trkpt>
      <trkpt lat="47.4769" lon="6.74196">
        <ele>310</ele>
        <time>2016-07-24T07:17:38.000Z</time>
      </trkpt>
      <trkpt lat="47.47688" lon="6.74187">
        <ele>310</ele>
        <time>2016-07-24T07:17:39.000Z</time>
      </trkpt>
      <trkpt lat="47.47687" lon="6.74179">
        <ele>310</ele>
        <time>2016-07-24T07:17:40.000Z</time>
      </trkpt>
      <trkpt lat="47.47686" lon="6.74172">
        <ele>310</ele>
        <time>2016-07-24T07:17:41.000Z</time>
      </trkpt>
      <trkpt lat="47.47684" lon="6.74164">
        <ele>310</ele>
        <time>2016-07-24T07:17:42.000Z</time>
      </trkpt>
      <trkpt lat="47.47682" lon="6.74156">
        <ele>310</ele>
        <time>2016-07-24T07:17:43.000Z</time>
      </trkpt>
      <trkpt lat="47.47681" lon="6.74148">
        <ele>310</ele>
        <time>2016-07-24T07:17:44.000Z</time>
      </trkpt>
      <trkpt lat="47.47679" lon="6.74141">
        <ele>310</ele>
        <time>2016-07-24T07:17:45.000Z</time>
      </trkpt>
      <trkpt lat="47.47677" lon="6.74133">
        <ele>310</ele>
        <time>2016-07-24T07:17:46.000Z</time>
      </trkpt>
      <trkpt lat="47.47675" lon="6.74126">
        <ele>310</ele>
        <time>2016-07-24T07:17:47.000Z</time>
      </trkpt>
      <trkpt lat="47.47674" lon="6.74119">
        <ele>310</ele>
        <time>2016-07-24T07:17:48.000Z</time>
      </trkpt>
      <trkpt lat="47.47672" lon="6.74113">
        <ele>310</ele>
        <time>2016-07-24T07:17:49.000Z</time>
      </trkpt>
      <trkpt lat="47.47666" lon="6.74112">
        <ele>309</ele>
        <time>2016-07-24T07:17:50.000Z</time>
      </trkpt>
      <trkpt lat="47.47661" lon="6.74109">
        <ele>309</ele>
        <time>2016-07-24T07:17:51.000Z</time>
      </trkpt>
      <trkpt lat="47.47658" lon="6.74105">
        <ele>309</ele>
        <time>2016-07-24T07:17:52.000Z</time>
      </trkpt>
      <trkpt lat="47.47654" lon="6.74099">
        <ele>309</ele>
        <time>2016-07-24T07:17:53.000Z</time>
      </trkpt>
      <trkpt lat="47.4765" lon="6.74092">
        <ele>309</ele>
        <time>2016-07-24T07:17:54.000Z</time>
      </trkpt>
      <trkpt lat="47.47646" lon="6.74086">
        <ele>309</ele>
        <time>2016-07-24T07:17:55.000Z</time>
      </trkpt>
      <trkpt lat="47.47641" lon="6.74079">
        <ele>310</ele>
        <time>2016-07-24T07:17:56.000Z</time>
      </trkpt>
      <trkpt lat="47.47637" lon="6.74072">
        <ele>310</ele>
        <time>2016-07-24T07:17:57.000Z</time>
      </trkpt>
      <trkpt lat="47.47634" lon="6.74065">
        <ele>310</ele>
        <time>2016-07-24T07:17:58.000Z</time>
      </trkpt>
      <trkpt lat="47.4763" lon="6.74059">
        <ele>310</ele>
        <time>2016-07-24T07:17:59.000Z</time>
      </trkpt>
      <trkpt lat="47.47625" lon="6.74055">
        <ele>309</ele>
        <time>2016-07-24T07:18:00.000Z</time>
      </trkpt>
      <trkpt lat="47.47619" lon="6.74052">
        <ele>309</ele>
        <time>2016-07-24T07:18:01.000Z</time>
      </trkpt>
      <trkpt lat="47.47613" lon="6.74052">
        <ele>309</ele>
        <time>2016-07-24T07:18:02.000Z</time>
      </trkpt>
      <trkpt lat="47.47607" lon="6.74053">
        <ele>309</ele>
        <time>2016-07-24T07:18:03.000Z</time>
      </trkpt>
      <trkpt lat="47.47601" lon="6.74056">
        <ele>309</ele>
        <time>2016-07-24T07:18:04.000Z</time>
      </trkpt>
      <trkpt lat="47.47596" lon="6.7406">
        <ele>309</ele>
        <time>2016-07-24T07:18:05.000Z</time>
      </trkpt>
      <trkpt lat="47.47591" lon="6.74064">
        <ele>309</ele>
        <time>2016-07-24T07:18:06.000Z</time>
      </trkpt>
      <trkpt lat="47.47586" lon="6.74069">
        <ele>309</ele>
        <time>2016-07-24T07:18:07.000Z</time>
      </trkpt>
      <trkpt lat="47.47581" lon="6.74072">
        <ele>309</ele>
        <time>2016-07-24T07:18:08.000Z</time>
      </trkpt>
      <trkpt lat="47.47576" lon="6.74077">
        <ele>309</ele>
        <time>2016-07-24T07:18:09.000Z</time>
      </trkpt>
      <trkpt lat="47.47571" lon="6.74082">
        <ele>309</ele>
        <time>2016-07-24T07:18:10.000Z</time>
      </trkpt>
      <trkpt lat="47.47566" lon="6.74087">
        <ele>309</ele>
        <time>2016-07-24T07:18:11.000Z</time>
      </trkpt>
      <trkpt lat="47.47561" lon="6.74092">
        <ele>309</ele>
        <time>2016-07-24T07:18:12.000Z</time>
      </trkpt>
      <trkpt lat="47.47556" lon="6.74096">
        <ele>309</ele>
        <time>2016-07-24T07:18:13.000Z</time>
      </trkpt>
      <trkpt lat="47.47551" lon="6.74099">
        <ele>309</ele>
        <time>2016-07-24T07:18:14.000Z</time>
      </trkpt>
      <trkpt lat="47.47546" lon="6.74103">
        <ele>309</ele>
        <time>2016-07-24T07:18:15.000Z</time>
      </trkpt>
      <trkpt lat="47.47541" lon="6.74107">
        <ele>308</ele>
        <time>2016-07-24T07:18:16.000Z</time>
      </trkpt>
      <trkpt lat="47.47536" lon="6.74112">
        <ele>308</ele>
        <time>2016-07-24T07:18:17.000Z</time>
      </trkpt>
      <trkpt lat="47.4753" lon="6.74116">
        <ele>308</ele>
        <time>2016-07-24T07:18:18.000Z</time>
      </trkpt>
      <trkpt lat="47.47525" lon="6.74118">
        <ele>308</ele>
        <time>2016-07-24T07:18:19.000Z</time>
      </trkpt>
      <trkpt lat="47.47521" lon="6.74122">
        <ele>308</ele>
        <time>2016-07-24T07:18:20.000Z</time>
      </trkpt>
      <trkpt lat="47.47516" lon="6.74126">
        <ele>309</ele>
        <time>2016-07-24T07:18:21.000Z</time>
      </trkpt>
      <trkpt lat="47.47512" lon="6.74131">
        <ele>309</ele>
        <time>2016-07-24T07:18:22.000Z</time>
      </trkpt>
      <trkpt lat="47.47508" lon="6.74137">
        <ele>309</ele>
        <time>2016-07-24T07:18:23.000Z</time>
      </trkpt>
      <trkpt lat="47.47504" lon="6.74141">
        <ele>309</ele>
        <time>2016-07-24T07:18:24.000Z</time>
      </trkpt>
      <trkpt lat="47.475" lon="6.74144">
        <ele>309</ele>
        <time>2016-07-24T07:18:25.000Z</time>
      </trkpt>
      <trkpt lat="47.47497" lon="6.74147">
        <ele>309</ele>
        <time>2016-07-24T07:18:26.000Z</time>
      </trkpt>
      <trkpt lat="47.47493" lon="6.7415">
        <ele>309</ele>
        <time>2016-07-24T07:18:27.000Z</time>
      </trkpt>
      <trkpt lat="47.4749" lon="6.74153">
        <ele>309</ele>
        <time>2016-07-24T07:18:28.000Z</time>
      </trkpt>
      <trkpt lat="47.47487" lon="6.74156">
        <ele>309</ele>
        <time>2016-07-24T07:18:29.000Z</time>
      </trkpt>
      <trkpt lat="47.47485" lon="6.74158">
        <ele>309</ele>
        <time>2016-07-24T07:18:30.000Z</time>
      </trkpt>
      <trkpt lat="47.47482" lon="6.74158">
        <ele>309</ele>
        <time>2016-07-24T07:18:33.000Z</time>
      </trkpt>
      <trkpt lat="47.4748" lon="6.74163">
        <ele>309</ele>
        <time>2016-07-24T07:18:34.000Z</time>
      </trkpt>
      <trkpt lat="47.47477" lon="6.74166">
        <ele>309</ele>
        <time>2016-07-24T07:18:38.000Z</time>
      </trkpt>
      <trkpt lat="47.47476" lon="6.74167">
        <ele>309</ele>
        <time>2016-07-24T07:18:39.000Z</time>
      </trkpt>
      <trkpt lat="47.47472" lon="6.74169">
        <ele>309</ele>
        <time>2016-07-24T07:18:41.000Z</time>
      </trkpt>
      <trkpt lat="47.47469" lon="6.7417">
        <ele>309</ele>
        <time>2016-07-24T07:18:42.000Z</time>
      </trkpt>
      <trkpt lat="47.47466" lon="6.74171">
        <ele>309</ele>
        <time>2016-07-24T07:18:43.000Z</time>
      </trkpt>
      <trkpt lat="47.47463" lon="6.74173">
        <ele>309</ele>
        <time>2016-07-24T07:18:44.000Z</time>
      </trkpt>
      <trkpt lat="47.47456" lon="6.74176">
        <ele>309</ele>
        <time>2016-07-24T07:18:45.000Z</time>
      </trkpt>
      <trkpt lat="47.47451" lon="6.74178">
        <ele>309</ele>
        <time>2016-07-24T07:18:46.000Z</time>
      </trkpt>
      <trkpt lat="47.47446" lon="6.74181">
        <ele>309</ele>
        <time>2016-07-24T07:18:47.000Z</time>
      </trkpt>
      <trkpt lat="47.47441" lon="6.74183">
        <ele>309</ele>
        <time>2016-07-24T07:18:48.000Z</time>
      </trkpt>
      <trkpt lat="47.47436" lon="6.74186">
        <ele>309</ele>
        <time>2016-07-24T07:18:49.000Z</time>
      </trkpt>
      <trkpt lat="47.4743" lon="6.74188">
        <ele>309</ele>
        <time>2016-07-24T07:18:50.000Z</time>
      </trkpt>
      <trkpt lat="47.47425" lon="6.7419">
        <ele>309</ele>
        <time>2016-07-24T07:18:51.000Z</time>
      </trkpt>
      <trkpt lat="47.4742" lon="6.74191">
        <ele>309</ele>
        <time>2016-07-24T07:18:52.000Z</time>
      </trkpt>
      <trkpt lat="47.47416" lon="6.74194">
        <ele>310</ele>
        <time>2016-07-24T07:18:53.000Z</time>
      </trkpt>
      <trkpt lat="47.47412" lon="6.74195">
        <ele>310</ele>
        <time>2016-07-24T07:18:54.000Z</time>
      </trkpt>
      <trkpt lat="47.47406" lon="6.74197">
        <ele>310</ele>
        <time>2016-07-24T07:18:55.000Z</time>
      </trkpt>
      <trkpt lat="47.47403" lon="6.74199">
        <ele>310</ele>
        <time>2016-07-24T07:18:56.000Z</time>
      </trkpt>
      <trkpt lat="47.47398" lon="6.74201">
        <ele>310</ele>
        <time>2016-07-24T07:18:57.000Z</time>
      </trkpt>
      <trkpt lat="47.47393" lon="6.74203">
        <ele>310</ele>
        <time>2016-07-24T07:18:58.000Z</time>
      </trkpt>
      <trkpt lat="47.47388" lon="6.74205">
        <ele>310</ele>
        <time>2016-07-24T07:18:59.000Z</time>
      </trkpt>
      <trkpt lat="47.47384" lon="6.74208">
        <ele>310</ele>
        <time>2016-07-24T07:19:00.000Z</time>
      </trkpt>
      <trkpt lat="47.4738" lon="6.7421">
        <ele>310</ele>
        <time>2016-07-24T07:19:01.000Z</time>
      </trkpt>
      <trkpt lat="47.47376" lon="6.74212">
        <ele>310</ele>
        <time>2016-07-24T07:19:02.000Z</time>
      </trkpt>
      <trkpt lat="47.47371" lon="6.74215">
        <ele>310</ele>
        <time>2016-07-24T07:19:03.000Z</time>
      </trkpt>
      <trkpt lat="47.47365" lon="6.74218">
        <ele>310</ele>
        <time>2016-07-24T07:19:04.000Z</time>
      </trkpt>
      <trkpt lat="47.4736" lon="6.74221">
        <ele>310</ele>
        <time>2016-07-24T07:19:05.000Z</time>
      </trkpt>
      <trkpt lat="47.47355" lon="6.74223">
        <ele>310</ele>
        <time>2016-07-24T07:19:06.000Z</time>
      </trkpt>
      <trkpt lat="47.47352" lon="6.74225">
        <ele>310</ele>
        <time>2016-07-24T07:19:07.000Z</time>
      </trkpt>
      <trkpt lat="47.47347" lon="6.74228">
        <ele>310</ele>
        <time>2016-07-24T07:19:08.000Z</time>
      </trkpt>
      <trkpt lat="47.47342" lon="6.7423">
        <ele>310</ele>
        <time>2016-07-24T07:19:09.000Z</time>
      </trkpt>
      <trkpt lat="47.47337" lon="6.74233">
        <ele>310</ele>
        <time>2016-07-24T07:19:10.000Z</time>
      </trkpt>
      <trkpt lat="47.47332" lon="6.74234">
        <ele>311</ele>
        <time>2016-07-24T07:19:11.000Z</time>
      </trkpt>
      <trkpt lat="47.47326" lon="6.74237">
        <ele>311</ele>
        <time>2016-07-24T07:19:12.000Z</time>
      </trkpt>
      <trkpt lat="47.47322" lon="6.7424">
        <ele>311</ele>
        <time>2016-07-24T07:19:13.000Z</time>
      </trkpt>
      <trkpt lat="47.47317" lon="6.74243">
        <ele>311</ele>
        <time>2016-07-24T07:19:14.000Z</time>
      </trkpt>
      <trkpt lat="47.47312" lon="6.74244">
        <ele>312</ele>
        <time>2016-07-24T07:19:15.000Z</time>
      </trkpt>
      <trkpt lat="47.47306" lon="6.74247">
        <ele>312</ele>
        <time>2016-07-24T07:19:16.000Z</time>
      </trkpt>
      <trkpt lat="47.47302" lon="6.74249">
        <ele>312</ele>
        <time>2016-07-24T07:19:17.000Z</time>
      </trkpt>
      <trkpt lat="47.47297" lon="6.7425">
        <ele>312</ele>
        <time>2016-07-24T07:19:18.000Z</time>
      </trkpt>
      <trkpt lat="47.47293" lon="6.74252">
        <ele>312</ele>
        <time>2016-07-24T07:19:19.000Z</time>
      </trkpt>
      <trkpt lat="47.47289" lon="6.74253">
        <ele>312</ele>
        <time>2016-07-24T07:19:20.000Z</time>
      </trkpt>
      <trkpt lat="47.47285" lon="6.74254">
        <ele>312</ele>
        <time>2016-07-24T07:19:21.000Z</time>
      </trkpt>
      <trkpt lat="47.4728" lon="6.74255">
        <ele>313</ele>
        <time>2016-07-24T07:19:22.000Z</time>
      </trkpt>
      <trkpt lat="47.47276" lon="6.74256">
        <ele>313</ele>
        <time>2016-07-24T07:19:23.000Z</time>
      </trkpt>
      <trkpt lat="47.47272" lon="6.74258">
        <ele>313</ele>
        <time>2016-07-24T07:19:24.000Z</time>
      </trkpt>
      <trkpt lat="47.47266" lon="6.74259">
        <ele>313</ele>
        <time>2016-07-24T07:19:25.000Z</time>
      </trkpt>
      <trkpt lat="47.47262" lon="6.7426">
        <ele>313</ele>
        <time>2016-07-24T07:19:26.000Z</time>
      </trkpt>
      <trkpt lat="47.47258" lon="6.74264">
        <ele>313</ele>
        <time>2016-07-24T07:19:27.000Z</time>
      </trkpt>
      <trkpt lat="47.47256" lon="6.7427">
        <ele>313</ele>
        <time>2016-07-24T07:19:28.000Z</time>
      </trkpt>
      <trkpt lat="47.47253" lon="6.74277">
        <ele>313</ele>
        <time>2016-07-24T07:19:29.000Z</time>
      </trkpt>
      <trkpt lat="47.47251" lon="6.74283">
        <ele>313</ele>
        <time>2016-07-24T07:19:30.000Z</time>
      </trkpt>
      <trkpt lat="47.47251" lon="6.74291">
        <ele>313</ele>
        <time>2016-07-24T07:19:31.000Z</time>
      </trkpt>
      <trkpt lat="47.47249" lon="6.74299">
        <ele>315</ele>
        <time>2016-07-24T07:19:32.000Z</time>
      </trkpt>
      <trkpt lat="47.47249" lon="6.74305">
        <ele>315</ele>
        <time>2016-07-24T07:19:33.000Z</time>
      </trkpt>
      <trkpt lat="47.47247" lon="6.7431">
        <ele>315</ele>
        <time>2016-07-24T07:19:34.000Z</time>
      </trkpt>
      <trkpt lat="47.47246" lon="6.74314">
        <ele>315</ele>
        <time>2016-07-24T07:19:35.000Z</time>
      </trkpt>
      <trkpt lat="47.47242" lon="6.7432">
        <ele>315</ele>
        <time>2016-07-24T07:19:36.000Z</time>
      </trkpt>
      <trkpt lat="47.4724" lon="6.74324">
        <ele>315</ele>
        <time>2016-07-24T07:19:37.000Z</time>
      </trkpt>
      <trkpt lat="47.47237" lon="6.7433">
        <ele>315</ele>
        <time>2016-07-24T07:19:38.000Z</time>
      </trkpt>
      <trkpt lat="47.47234" lon="6.74333">
        <ele>315</ele>
        <time>2016-07-24T07:19:39.000Z</time>
      </trkpt>
      <trkpt lat="47.47232" lon="6.74337">
        <ele>316</ele>
        <time>2016-07-24T07:19:40.000Z</time>
      </trkpt>
      <trkpt lat="47.47229" lon="6.74342">
        <ele>317</ele>
        <time>2016-07-24T07:19:41.000Z</time>
      </trkpt>
      <trkpt lat="47.47226" lon="6.74345">
        <ele>317</ele>
        <time>2016-07-24T07:19:42.000Z</time>
      </trkpt>
      <trkpt lat="47.47224" lon="6.7435">
        <ele>317</ele>
        <time>2016-07-24T07:19:43.000Z</time>
      </trkpt>
      <trkpt lat="47.47221" lon="6.74353">
        <ele>318</ele>
        <time>2016-07-24T07:19:44.000Z</time>
      </trkpt>
      <trkpt lat="47.47217" lon="6.74356">
        <ele>318</ele>
        <time>2016-07-24T07:19:45.000Z</time>
      </trkpt>
      <trkpt lat="47.47214" lon="6.74358">
        <ele>318</ele>
        <time>2016-07-24T07:19:46.000Z</time>
      </trkpt>
      <trkpt lat="47.4721" lon="6.7436">
        <ele>318</ele>
        <time>2016-07-24T07:19:47.000Z</time>
      </trkpt>
      <trkpt lat="47.47208" lon="6.74361">
        <ele>318</ele>
        <time>2016-07-24T07:19:48.000Z</time>
      </trkpt>
      <trkpt lat="47.47205" lon="6.74362">
        <ele>319</ele>
        <time>2016-07-24T07:19:49.000Z</time>
      </trkpt>
      <trkpt lat="47.47203" lon="6.74362">
        <ele>319</ele>
        <time>2016-07-24T07:19:50.000Z</time>
      </trkpt>
      <trkpt lat="47.47201" lon="6.74362">
        <ele>319</ele>
        <time>2016-07-24T07:19:51.000Z</time>
      </trkpt>
      <trkpt lat="47.47198" lon="6.74361">
        <ele>319</ele>
        <time>2016-07-24T07:19:52.000Z</time>
      </trkpt>
      <trkpt lat="47.47194" lon="6.7436">
        <ele>319</ele>
        <time>2016-07-24T07:19:54.000Z</time>
      </trkpt>
      <trkpt lat="47.47191" lon="6.74361">
        <ele>319</ele>
        <time>2016-07-24T07:19:55.000Z</time>
      </trkpt>
      <trkpt lat="47.47188" lon="6.74361">
        <ele>319</ele>
        <time>2016-07-24T07:19:56.000Z</time>
      </trkpt>
      <trkpt lat="47.47186" lon="6.74362">
        <ele>319</ele>
        <time>2016-07-24T07:19:57.000Z</time>
      </trkpt>
      <trkpt lat="47.47183" lon="6.74363">
        <ele>319</ele>
        <time>2016-07-24T07:19:58.000Z</time>
      </trkpt>
      <trkpt lat="47.4718" lon="6.74363">
        <ele>319</ele>
        <time>2016-07-24T07:19:59.000Z</time>
      </trkpt>
      <trkpt lat="47.47178" lon="6.74363">
        <ele>319</ele>
        <time>2016-07-24T07:20:00.000Z</time>
      </trkpt>
      <trkpt lat="47.47175" lon="6.74363">
        <ele>319</ele>
        <time>2016-07-24T07:20:01.000Z</time>
      </trkpt>
      <trkpt lat="47.47171" lon="6.74362">
        <ele>319</ele>
        <time>2016-07-24T07:20:03.000Z</time>
      </trkpt>
      <trkpt lat="47.47168" lon="6.74362">
        <ele>319</ele>
        <time>2016-07-24T07:20:04.000Z</time>
      </trkpt>
      <trkpt lat="47.47165" lon="6.74362">
        <ele>323</ele>
        <time>2016-07-24T07:20:05.000Z</time>
      </trkpt>
      <trkpt lat="47.47162" lon="6.74362">
        <ele>324</ele>
        <time>2016-07-24T07:20:06.000Z</time>
      </trkpt>
      <trkpt lat="47.47159" lon="6.74362">
        <ele>324</ele>
        <time>2016-07-24T07:20:07.000Z</time>
      </trkpt>
      <trkpt lat="47.47157" lon="6.74363">
        <ele>324</ele>
        <time>2016-07-24T07:20:08.000Z</time>
      </trkpt>
      <trkpt lat="47.47153" lon="6.74363">
        <ele>324</ele>
        <time>2016-07-24T07:20:10.000Z</time>
      </trkpt>
      <trkpt lat="47.4715" lon="6.74362">
        <ele>324</ele>
        <time>2016-07-24T07:20:11.000Z</time>
      </trkpt>
      <trkpt lat="47.47148" lon="6.74362">
        <ele>324</ele>
        <time>2016-07-24T07:20:12.000Z</time>
      </trkpt>
      <trkpt lat="47.47145" lon="6.74362">
        <ele>324</ele>
        <time>2016-07-24T07:20:13.000Z</time>
      </trkpt>
      <trkpt lat="47.47143" lon="6.74362">
        <ele>324</ele>
        <time>2016-07-24T07:20:14.000Z</time>
      </trkpt>
      <trkpt lat="47.47141" lon="6.74361">
        <ele>324</ele>
        <time>2016-07-24T07:20:15.000Z</time>
      </trkpt>
      <trkpt lat="47.47136" lon="6.74361">
        <ele>325</ele>
        <time>2016-07-24T07:20:17.000Z</time>
      </trkpt>
      <trkpt lat="47.47133" lon="6.74362">
        <ele>325</ele>
        <time>2016-07-24T07:20:18.000Z</time>
      </trkpt>
      <trkpt lat="47.47131" lon="6.74363">
        <ele>325</ele>
        <time>2016-07-24T07:20:19.000Z</time>
      </trkpt>
      <trkpt lat="47.47129" lon="6.74363">
        <ele>325</ele>
        <time>2016-07-24T07:20:20.000Z</time>
      </trkpt>
      <trkpt lat="47.47126" lon="6.74363">
        <ele>325</ele>
        <time>2016-07-24T07:20:21.000Z</time>
      </trkpt>
      <trkpt lat="47.47124" lon="6.74363">
        <ele>325</ele>
        <time>2016-07-24T07:20:22.000Z</time>
      </trkpt>
      <trkpt lat="47.47122" lon="6.74363">
        <ele>326</ele>
        <time>2016-07-24T07:20:23.000Z</time>
      </trkpt>
      <trkpt lat="47.47119" lon="6.74363">
        <ele>326</ele>
        <time>2016-07-24T07:20:24.000Z</time>
      </trkpt>
      <trkpt lat="47.47115" lon="6.74363">
        <ele>326</ele>
        <time>2016-07-24T07:20:26.000Z</time>
      </trkpt>
      <trkpt lat="47.47113" lon="6.74364">
        <ele>326</ele>
        <time>2016-07-24T07:20:27.000Z</time>
      </trkpt>
      <trkpt lat="47.4711" lon="6.74367">
        <ele>326</ele>
        <time>2016-07-24T07:20:29.000Z</time>
      </trkpt>
      <trkpt lat="47.47109" lon="6.74368">
        <ele>326</ele>
        <time>2016-07-24T07:20:30.000Z</time>
      </trkpt>
      <trkpt lat="47.47105" lon="6.74366">
        <ele>326</ele>
        <time>2016-07-24T07:20:34.000Z</time>
      </trkpt>
      <trkpt lat="47.47103" lon="6.74366">
        <ele>326</ele>
        <time>2016-07-24T07:20:35.000Z</time>
      </trkpt>
      <trkpt lat="47.471" lon="6.74368">
        <ele>327</ele>
        <time>2016-07-24T07:20:37.000Z</time>
      </trkpt>
      <trkpt lat="47.47098" lon="6.74369">
        <ele>327</ele>
        <time>2016-07-24T07:20:38.000Z</time>
      </trkpt>
      <trkpt lat="47.47095" lon="6.7437">
        <ele>327</ele>
        <time>2016-07-24T07:20:40.000Z</time>
      </trkpt>
      <trkpt lat="47.47093" lon="6.7437">
        <ele>327</ele>
        <time>2016-07-24T07:20:41.000Z</time>
      </trkpt>
      <trkpt lat="47.4709" lon="6.7437">
        <ele>327</ele>
        <time>2016-07-24T07:20:43.000Z</time>
      </trkpt>
      <trkpt lat="47.47088" lon="6.7437">
        <ele>327</ele>
        <time>2016-07-24T07:20:44.000Z</time>
      </trkpt>
      <trkpt lat="47.47084" lon="6.74371">
        <ele>327</ele>
        <time>2016-07-24T07:20:46.000Z</time>
      </trkpt>
      <trkpt lat="47.47083" lon="6.74372">
        <ele>334</ele>
        <time>2016-07-24T07:20:47.000Z</time>
      </trkpt>
      <trkpt lat="47.4708" lon="6.74373">
        <ele>334</ele>
        <time>2016-07-24T07:20:49.000Z</time>
      </trkpt>
      <trkpt lat="47.47078" lon="6.74374">
        <ele>334</ele>
        <time>2016-07-24T07:20:50.000Z</time>
      </trkpt>
      <trkpt lat="47.47075" lon="6.74375">
        <ele>334</ele>
        <time>2016-07-24T07:20:52.000Z</time>
      </trkpt>
      <trkpt lat="47.47073" lon="6.74375">
        <ele>334</ele>
        <time>2016-07-24T07:20:53.000Z</time>
      </trkpt>
      <trkpt lat="47.47069" lon="6.74377">
        <ele>335</ele>
        <time>2016-07-24T07:20:55.000Z</time>
      </trkpt>
      <trkpt lat="47.47068" lon="6.74378">
        <ele>335</ele>
        <time>2016-07-24T07:20:56.000Z</time>
      </trkpt>
      <trkpt lat="47.47063" lon="6.74381">
        <ele>335</ele>
        <time>2016-07-24T07:20:59.000Z</time>
      </trkpt>
      <trkpt lat="47.47062" lon="6.74381">
        <ele>335</ele>
        <time>2016-07-24T07:21:00.000Z</time>
      </trkpt>
      <trkpt lat="47.47058" lon="6.74383">
        <ele>336</ele>
        <time>2016-07-24T07:21:02.000Z</time>
      </trkpt>
      <trkpt lat="47.47056" lon="6.74384">
        <ele>336</ele>
        <time>2016-07-24T07:21:03.000Z</time>
      </trkpt>
      <trkpt lat="47.47053" lon="6.74385">
        <ele>336</ele>
        <time>2016-07-24T07:21:05.000Z</time>
      </trkpt>
      <trkpt lat="47.47051" lon="6.74386">
        <ele>336</ele>
        <time>2016-07-24T07:21:06.000Z</time>
      </trkpt>
      <trkpt lat="47.47047" lon="6.74389">
        <ele>337</ele>
        <time>2016-07-24T07:21:09.000Z</time>
      </trkpt>
      <trkpt lat="47.47046" lon="6.7439">
        <ele>337</ele>
        <time>2016-07-24T07:21:10.000Z</time>
      </trkpt>
      <trkpt lat="47.47042" lon="6.74393">
        <ele>337</ele>
        <time>2016-07-24T07:21:12.000Z</time>
      </trkpt>
      <trkpt lat="47.47041" lon="6.74395">
        <ele>337</ele>
        <time>2016-07-24T07:21:13.000Z</time>
      </trkpt>
      <trkpt lat="47.47038" lon="6.74399">
        <ele>338</ele>
        <time>2016-07-24T07:21:15.000Z</time>
      </trkpt>
      <trkpt lat="47.47038" lon="6.74401">
        <ele>338</ele>
        <time>2016-07-24T07:21:16.000Z</time>
      </trkpt>
      <trkpt lat="47.47035" lon="6.74405">
        <ele>338</ele>
        <time>2016-07-24T07:21:19.000Z</time>
      </trkpt>
      <trkpt lat="47.47035" lon="6.74407">
        <ele>339</ele>
        <time>2016-07-24T07:21:20.000Z</time>
      </trkpt>
      <trkpt lat="47.47032" lon="6.7441">
        <ele>339</ele>
        <time>2016-07-24T07:21:22.000Z</time>
      </trkpt>
      <trkpt lat="47.4703" lon="6.74412">
        <ele>339</ele>
        <time>2016-07-24T07:21:23.000Z</time>
      </trkpt>
      <trkpt lat="47.47027" lon="6.74416">
        <ele>340</ele>
        <time>2016-07-24T07:21:25.000Z</time>
      </trkpt>
      <trkpt lat="47.47027" lon="6.74418">
        <ele>343</ele>
        <time>2016-07-24T07:21:26.000Z</time>
      </trkpt>
      <trkpt lat="47.47025" lon="6.74424">
        <ele>343</ele>
        <time>2016-07-24T07:21:29.000Z</time>
      </trkpt>
      <trkpt lat="47.47024" lon="6.74427">
        <ele>343</ele>
        <time>2016-07-24T07:21:30.000Z</time>
      </trkpt>
      <trkpt lat="47.47021" lon="6.74431">
        <ele>343</ele>
        <time>2016-07-24T07:21:32.000Z</time>
      </trkpt>
      <trkpt lat="47.47019" lon="6.74433">
        <ele>343</ele>
        <time>2016-07-24T07:21:33.000Z</time>
      </trkpt>
      <trkpt lat="47.47015" lon="6.74436">
        <ele>343</ele>
        <time>2016-07-24T07:21:35.000Z</time>
      </trkpt>
      <trkpt lat="47.47014" lon="6.74438">
        <ele>343</ele>
        <time>2016-07-24T07:21:36.000Z</time>
      </trkpt>
      <trkpt lat="47.47011" lon="6.74442">
        <ele>343</ele>
        <time>2016-07-24T07:21:39.000Z</time>
      </trkpt>
      <trkpt lat="47.4701" lon="6.74443">
        <ele>343</ele>
        <time>2016-07-24T07:21:40.000Z</time>
      </trkpt>
      <trkpt lat="47.47008" lon="6.74446">
        <ele>343</ele>
        <time>2016-07-24T07:21:42.000Z</time>
      </trkpt>
      <trkpt lat="47.47007" lon="6.74448">
        <ele>343</ele>
        <time>2016-07-24T07:21:43.000Z</time>
      </trkpt>
      <trkpt lat="47.47005" lon="6.74452">
        <ele>343</ele>
        <time>2016-07-24T07:21:45.000Z</time>
      </trkpt>
      <trkpt lat="47.47003" lon="6.74454">
        <ele>343</ele>
        <time>2016-07-24T07:21:46.000Z</time>
      </trkpt>
      <trkpt lat="47.47" lon="6.74458">
        <ele>343</ele>
        <time>2016-07-24T07:21:48.000Z</time>
      </trkpt>
      <trkpt lat="47.46999" lon="6.74459">
        <ele>349</ele>
        <time>2016-07-24T07:21:49.000Z</time>
      </trkpt>
      <trkpt lat="47.46996" lon="6.74463">
        <ele>349</ele>
        <time>2016-07-24T07:21:51.000Z</time>
      </trkpt>
      <trkpt lat="47.46995" lon="6.74465">
        <ele>349</ele>
        <time>2016-07-24T07:21:52.000Z</time>
      </trkpt>
      <trkpt lat="47.46993" lon="6.74468">
        <ele>349</ele>
        <time>2016-07-24T07:21:54.000Z</time>
      </trkpt>
      <trkpt lat="47.46992" lon="6.7447">
        <ele>349</ele>
        <time>2016-07-24T07:21:55.000Z</time>
      </trkpt>
      <trkpt lat="47.46988" lon="6.74473">
        <ele>349</ele>
        <time>2016-07-24T07:21:58.000Z</time>
      </trkpt>
      <trkpt lat="47.46987" lon="6.74474">
        <ele>349</ele>
        <time>2016-07-24T07:21:59.000Z</time>
      </trkpt>
      <trkpt lat="47.46984" lon="6.74478">
        <ele>349</ele>
        <time>2016-07-24T07:22:02.000Z</time>
      </trkpt>
      <trkpt lat="47.46982" lon="6.74479">
        <ele>349</ele>
        <time>2016-07-24T07:22:03.000Z</time>
      </trkpt>
      <trkpt lat="47.46978" lon="6.74482">
        <ele>349</ele>
        <time>2016-07-24T07:22:06.000Z</time>
      </trkpt>
      <trkpt lat="47.46977" lon="6.74483">
        <ele>349</ele>
        <time>2016-07-24T07:22:07.000Z</time>
      </trkpt>
      <trkpt lat="47.46975" lon="6.74488">
        <ele>349</ele>
        <time>2016-07-24T07:22:11.000Z</time>
      </trkpt>
      <trkpt lat="47.46974" lon="6.74489">
        <ele>350</ele>
        <time>2016-07-24T07:22:12.000Z</time>
      </trkpt>
      <trkpt lat="47.46972" lon="6.74492">
        <ele>350</ele>
        <time>2016-07-24T07:22:16.000Z</time>
      </trkpt>
      <trkpt lat="47.46971" lon="6.74493">
        <ele>350</ele>
        <time>2016-07-24T07:22:17.000Z</time>
      </trkpt>
      <trkpt lat="47.46967" lon="6.74496">
        <ele>350</ele>
        <time>2016-07-24T07:22:21.000Z</time>
      </trkpt>
      <trkpt lat="47.46966" lon="6.74496">
        <ele>350</ele>
        <time>2016-07-24T07:22:22.000Z</time>
      </trkpt>
      <trkpt lat="47.46963" lon="6.74497">
        <ele>350</ele>
        <time>2016-07-24T07:22:26.000Z</time>
      </trkpt>
      <trkpt lat="47.46962" lon="6.74497">
        <ele>350</ele>
        <time>2016-07-24T07:22:27.000Z</time>
      </trkpt>
      <trkpt lat="47.46959" lon="6.74497">
        <ele>350</ele>
        <time>2016-07-24T07:22:31.000Z</time>
      </trkpt>
      <trkpt lat="47.46957" lon="6.74499">
        <ele>350</ele>
        <time>2016-07-24T07:22:32.000Z</time>
      </trkpt>
      <trkpt lat="47.46955" lon="6.745">
        <ele>348</ele>
        <time>2016-07-24T07:22:33.000Z</time>
      </trkpt>
      <trkpt lat="47.46953" lon="6.74502">
        <ele>349</ele>
        <time>2016-07-24T07:22:34.000Z</time>
      </trkpt>
      <trkpt lat="47.4695" lon="6.74505">
        <ele>349</ele>
        <time>2016-07-24T07:22:35.000Z</time>
      </trkpt>
      <trkpt lat="47.46947" lon="6.74507">
        <ele>349</ele>
        <time>2016-07-24T07:22:36.000Z</time>
      </trkpt>
      <trkpt lat="47.46945" lon="6.74509">
        <ele>349</ele>
        <time>2016-07-24T07:22:37.000Z</time>
      </trkpt>
      <trkpt lat="47.46942" lon="6.74511">
        <ele>349</ele>
        <time>2016-07-24T07:22:38.000Z</time>
      </trkpt>
      <trkpt lat="47.4694" lon="6.74513">
        <ele>349</ele>
        <time>2016-07-24T07:22:39.000Z</time>
      </trkpt>
      <trkpt lat="47.46937" lon="6.74515">
        <ele>349</ele>
        <time>2016-07-24T07:22:40.000Z</time>
      </trkpt>
      <trkpt lat="47.46935" lon="6.74516">
        <ele>349</ele>
        <time>2016-07-24T07:22:41.000Z</time>
      </trkpt>
      <trkpt lat="47.46933" lon="6.74515">
        <ele>349</ele>
        <time>2016-07-24T07:22:42.000Z</time>
      </trkpt>
      <trkpt lat="47.46929" lon="6.74511">
        <ele>350</ele>
        <time>2016-07-24T07:22:44.000Z</time>
      </trkpt>
      <trkpt lat="47.46928" lon="6.74508">
        <ele>350</ele>
        <time>2016-07-24T07:22:45.000Z</time>
      </trkpt>
      <trkpt lat="47.46926" lon="6.74505">
        <ele>350</ele>
        <time>2016-07-24T07:22:46.000Z</time>
      </trkpt>
      <trkpt lat="47.46925" lon="6.74502">
        <ele>351</ele>
        <time>2016-07-24T07:22:47.000Z</time>
      </trkpt>
      <trkpt lat="47.46922" lon="6.74498">
        <ele>352</ele>
        <time>2016-07-24T07:22:49.000Z</time>
      </trkpt>
      <trkpt lat="47.46921" lon="6.74495">
        <ele>352</ele>
        <time>2016-07-24T07:22:50.000Z</time>
      </trkpt>
      <trkpt lat="47.46918" lon="6.7449">
        <ele>352</ele>
        <time>2016-07-24T07:22:52.000Z</time>
      </trkpt>
      <trkpt lat="47.46917" lon="6.74487">
        <ele>357</ele>
        <time>2016-07-24T07:22:53.000Z</time>
      </trkpt>
      <trkpt lat="47.46915" lon="6.74484">
        <ele>358</ele>
        <time>2016-07-24T07:22:54.000Z</time>
      </trkpt>
      <trkpt lat="47.46914" lon="6.74481">
        <ele>359</ele>
        <time>2016-07-24T07:22:55.000Z</time>
      </trkpt>
      <trkpt lat="47.46912" lon="6.74475">
        <ele>360</ele>
        <time>2016-07-24T07:22:57.000Z</time>
      </trkpt>
      <trkpt lat="47.46911" lon="6.74472">
        <ele>360</ele>
        <time>2016-07-24T07:22:58.000Z</time>
      </trkpt>
      <trkpt lat="47.46909" lon="6.74467">
        <ele>361</ele>
        <time>2016-07-24T07:23:00.000Z</time>
      </trkpt>
      <trkpt lat="47.46908" lon="6.74464">
        <ele>361</ele>
        <time>2016-07-24T07:23:01.000Z</time>
      </trkpt>
      <trkpt lat="47.46906" lon="6.74459">
        <ele>362</ele>
        <time>2016-07-24T07:23:03.000Z</time>
      </trkpt>
      <trkpt lat="47.46905" lon="6.74456">
        <ele>362</ele>
        <time>2016-07-24T07:23:04.000Z</time>
      </trkpt>
      <trkpt lat="47.46904" lon="6.74451">
        <ele>362</ele>
        <time>2016-07-24T07:23:06.000Z</time>
      </trkpt>
      <trkpt lat="47.46903" lon="6.74448">
        <ele>362</ele>
        <time>2016-07-24T07:23:07.000Z</time>
      </trkpt>
      <trkpt lat="47.46902" lon="6.74442">
        <ele>362</ele>
        <time>2016-07-24T07:23:09.000Z</time>
      </trkpt>
      <trkpt lat="47.46902" lon="6.74439">
        <ele>362</ele>
        <time>2016-07-24T07:23:10.000Z</time>
      </trkpt>
      <trkpt lat="47.46901" lon="6.74433">
        <ele>362</ele>
        <time>2016-07-24T07:23:12.000Z</time>
      </trkpt>
      <trkpt lat="47.469" lon="6.74431">
        <ele>362</ele>
        <time>2016-07-24T07:23:13.000Z</time>
      </trkpt>
      <trkpt lat="47.46899" lon="6.74426">
        <ele>362</ele>
        <time>2016-07-24T07:23:15.000Z</time>
      </trkpt>
      <trkpt lat="47.46898" lon="6.74423">
        <ele>362</ele>
        <time>2016-07-24T07:23:16.000Z</time>
      </trkpt>
      <trkpt lat="47.46897" lon="6.7442">
        <ele>362</ele>
        <time>2016-07-24T07:23:17.000Z</time>
      </trkpt>
      <trkpt lat="47.46896" lon="6.74417">
        <ele>363</ele>
        <time>2016-07-24T07:23:18.000Z</time>
      </trkpt>
      <trkpt lat="47.46894" lon="6.74411">
        <ele>368</ele>
        <time>2016-07-24T07:23:20.000Z</time>
      </trkpt>
      <trkpt lat="47.46894" lon="6.74409">
        <ele>368</ele>
        <time>2016-07-24T07:23:21.000Z</time>
      </trkpt>
      <trkpt lat="47.46894" lon="6.74403">
        <ele>369</ele>
        <time>2016-07-24T07:23:23.000Z</time>
      </trkpt>
      <trkpt lat="47.46894" lon="6.744">
        <ele>370</ele>
        <time>2016-07-24T07:23:24.000Z</time>
      </trkpt>
      <trkpt lat="47.46892" lon="6.74394">
        <ele>371</ele>
        <time>2016-07-24T07:23:26.000Z</time>
      </trkpt>
      <trkpt lat="47.46891" lon="6.7439">
        <ele>371</ele>
        <time>2016-07-24T07:23:27.000Z</time>
      </trkpt>
      <trkpt lat="47.4689" lon="6.74386">
        <ele>372</ele>
        <time>2016-07-24T07:23:30.000Z</time>
      </trkpt>
      <trkpt lat="47.46889" lon="6.74382">
        <ele>372</ele>
        <time>2016-07-24T07:23:31.000Z</time>
      </trkpt>
      <trkpt lat="47.46888" lon="6.7438">
        <ele>373</ele>
        <time>2016-07-24T07:23:32.000Z</time>
      </trkpt>
      <trkpt lat="47.46887" lon="6.74376">
        <ele>373</ele>
        <time>2016-07-24T07:23:33.000Z</time>
      </trkpt>
      <trkpt lat="47.46887" lon="6.74373">
        <ele>374</ele>
        <time>2016-07-24T07:23:34.000Z</time>
      </trkpt>
      <trkpt lat="47.46886" lon="6.74369">
        <ele>374</ele>
        <time>2016-07-24T07:23:35.000Z</time>
      </trkpt>
      <trkpt lat="47.46886" lon="6.74364">
        <ele>374</ele>
        <time>2016-07-24T07:23:37.000Z</time>
      </trkpt>
      <trkpt lat="47.46886" lon="6.74362">
        <ele>374</ele>
        <time>2016-07-24T07:23:38.000Z</time>
      </trkpt>
      <trkpt lat="47.46888" lon="6.74356">
        <ele>374</ele>
        <time>2016-07-24T07:23:41.000Z</time>
      </trkpt>
      <trkpt lat="47.46889" lon="6.74354">
        <ele>374</ele>
        <time>2016-07-24T07:23:42.000Z</time>
      </trkpt>
      <trkpt lat="47.46892" lon="6.74351">
        <ele>373</ele>
        <time>2016-07-24T07:23:46.000Z</time>
      </trkpt>
      <trkpt lat="47.46893" lon="6.7435">
        <ele>373</ele>
        <time>2016-07-24T07:23:47.000Z</time>
      </trkpt>
      <trkpt lat="47.46894" lon="6.74344">
        <ele>373</ele>
        <time>2016-07-24T07:23:51.000Z</time>
      </trkpt>
      <trkpt lat="47.46894" lon="6.74341">
        <ele>373</ele>
        <time>2016-07-24T07:23:52.000Z</time>
      </trkpt>
      <trkpt lat="47.46894" lon="6.74335">
        <ele>373</ele>
        <time>2016-07-24T07:23:55.000Z</time>
      </trkpt>
      <trkpt lat="47.46894" lon="6.74333">
        <ele>378</ele>
        <time>2016-07-24T07:23:56.000Z</time>
      </trkpt>
      <trkpt lat="47.46893" lon="6.74327">
        <ele>378</ele>
        <time>2016-07-24T07:23:59.000Z</time>
      </trkpt>
      <trkpt lat="47.46894" lon="6.74325">
        <ele>378</ele>
        <time>2016-07-24T07:24:00.000Z</time>
      </trkpt>
      <trkpt lat="47.46895" lon="6.7432">
        <ele>379</ele>
        <time>2016-07-24T07:24:11.000Z</time>
      </trkpt>
      <trkpt lat="47.46895" lon="6.74319">
        <ele>379</ele>
        <time>2016-07-24T07:24:12.000Z</time>
      </trkpt>
      <trkpt lat="47.46896" lon="6.74315">
        <ele>379</ele>
        <time>2016-07-24T07:24:14.000Z</time>
      </trkpt>
      <trkpt lat="47.46896" lon="6.74312">
        <ele>379</ele>
        <time>2016-07-24T07:24:15.000Z</time>
      </trkpt>
      <trkpt lat="47.46896" lon="6.74307">
        <ele>380</ele>
        <time>2016-07-24T07:24:17.000Z</time>
      </trkpt>
      <trkpt lat="47.46896" lon="6.74305">
        <ele>380</ele>
        <time>2016-07-24T07:24:18.000Z</time>
      </trkpt>
      <trkpt lat="47.46896" lon="6.74299">
        <ele>381</ele>
        <time>2016-07-24T07:24:21.000Z</time>
      </trkpt>
      <trkpt lat="47.46896" lon="6.74297">
        <ele>381</ele>
        <time>2016-07-24T07:24:22.000Z</time>
      </trkpt>
      <trkpt lat="47.46895" lon="6.74291">
        <ele>382</ele>
        <time>2016-07-24T07:24:28.000Z</time>
      </trkpt>
      <trkpt lat="47.46895" lon="6.74289">
        <ele>382</ele>
        <time>2016-07-24T07:24:29.000Z</time>
      </trkpt>
      <trkpt lat="47.46896" lon="6.74285">
        <ele>382</ele>
        <time>2016-07-24T07:24:31.000Z</time>
      </trkpt>
      <trkpt lat="47.46897" lon="6.74282">
        <ele>382</ele>
        <time>2016-07-24T07:24:32.000Z</time>
      </trkpt>
      <trkpt lat="47.46898" lon="6.74277">
        <ele>382</ele>
        <time>2016-07-24T07:24:34.000Z</time>
      </trkpt>
      <trkpt lat="47.46899" lon="6.74275">
        <ele>382</ele>
        <time>2016-07-24T07:24:35.000Z</time>
      </trkpt>
      <trkpt lat="47.46901" lon="6.7427">
        <ele>381</ele>
        <time>2016-07-24T07:24:38.000Z</time>
      </trkpt>
      <trkpt lat="47.46902" lon="6.74268">
        <ele>381</ele>
        <time>2016-07-24T07:24:39.000Z</time>
      </trkpt>
      <trkpt lat="47.46903" lon="6.74263">
        <ele>380</ele>
        <time>2016-07-24T07:24:42.000Z</time>
      </trkpt>
      <trkpt lat="47.46903" lon="6.7426">
        <ele>380</ele>
        <time>2016-07-24T07:24:43.000Z</time>
      </trkpt>
      <trkpt lat="47.46902" lon="6.74257">
        <ele>380</ele>
        <time>2016-07-24T07:24:44.000Z</time>
      </trkpt>
      <trkpt lat="47.46902" lon="6.74253">
        <ele>380</ele>
        <time>2016-07-24T07:24:45.000Z</time>
      </trkpt>
      <trkpt lat="47.46902" lon="6.74247">
        <ele>382</ele>
        <time>2016-07-24T07:24:47.000Z</time>
      </trkpt>
      <trkpt lat="47.46902" lon="6.74244">
        <ele>383</ele>
        <time>2016-07-24T07:24:48.000Z</time>
      </trkpt>
      <trkpt lat="47.46902" lon="6.74239">
        <ele>383</ele>
        <time>2016-07-24T07:24:50.000Z</time>
      </trkpt>
      <trkpt lat="47.46901" lon="6.74236">
        <ele>384</ele>
        <time>2016-07-24T07:24:51.000Z</time>
      </trkpt>
      <trkpt lat="47.46899" lon="6.74231">
        <ele>386</ele>
        <time>2016-07-24T07:24:53.000Z</time>
      </trkpt>
      <trkpt lat="47.46898" lon="6.74228">
        <ele>386</ele>
        <time>2016-07-24T07:24:54.000Z</time>
      </trkpt>
      <trkpt lat="47.46898" lon="6.74222">
        <ele>387</ele>
        <time>2016-07-24T07:24:58.000Z</time>
      </trkpt>
      <trkpt lat="47.46899" lon="6.74221">
        <ele>387</ele>
        <time>2016-07-24T07:24:59.000Z</time>
      </trkpt>
      <trkpt lat="47.46899" lon="6.74216">
        <ele>387</ele>
        <time>2016-07-24T07:25:01.000Z</time>
      </trkpt>
      <trkpt lat="47.46898" lon="6.74214">
        <ele>387</ele>
        <time>2016-07-24T07:25:02.000Z</time>
      </trkpt>
      <trkpt lat="47.46897" lon="6.74209">
        <ele>388</ele>
        <time>2016-07-24T07:25:04.000Z</time>
      </trkpt>
      <trkpt lat="47.46897" lon="6.74206">
        <ele>388</ele>
        <time>2016-07-24T07:25:05.000Z</time>
      </trkpt>
      <trkpt lat="47.46898" lon="6.74201">
        <ele>388</ele>
        <time>2016-07-24T07:25:07.000Z</time>
      </trkpt>
      <trkpt lat="47.46898" lon="6.74199">
        <ele>388</ele>
        <time>2016-07-24T07:25:08.000Z</time>
      </trkpt>
      <trkpt lat="47.469" lon="6.74194">
        <ele>388</ele>
        <time>2016-07-24T07:25:11.000Z</time>
      </trkpt>
      <trkpt lat="47.46899" lon="6.74192">
        <ele>388</ele>
        <time>2016-07-24T07:25:12.000Z</time>
      </trkpt>
      <trkpt lat="47.46898" lon="6.74187">
        <ele>388</ele>
        <time>2016-07-24T07:25:14.000Z</time>
      </trkpt>
      <trkpt lat="47.46898" lon="6.74185">
        <ele>388</ele>
        <time>2016-07-24T07:25:15.000Z</time>
      </trkpt>
      <trkpt lat="47.46897" lon="6.74179">
        <ele>388</ele>
        <time>2016-07-24T07:25:17.000Z</time>
      </trkpt>
      <trkpt lat="47.46897" lon="6.74176">
        <ele>388</ele>
        <time>2016-07-24T07:25:18.000Z</time>
      </trkpt>
      <trkpt lat="47.46896" lon="6.74173">
        <ele>388</ele>
        <time>2016-07-24T07:25:19.000Z</time>
      </trkpt>
      <trkpt lat="47.46895" lon="6.7417">
        <ele>388</ele>
        <time>2016-07-24T07:25:20.000Z</time>
      </trkpt>
      <trkpt lat="47.46894" lon="6.74165">
        <ele>390</ele>
        <time>2016-07-24T07:25:22.000Z</time>
      </trkpt>
      <trkpt lat="47.46895" lon="6.74163">
        <ele>390</ele>
        <time>2016-07-24T07:25:23.000Z</time>
      </trkpt>
      <trkpt lat="47.46896" lon="6.74157">
        <ele>390</ele>
        <time>2016-07-24T07:25:25.000Z</time>
      </trkpt>
      <trkpt lat="47.46896" lon="6.74154">
        <ele>390</ele>
        <time>2016-07-24T07:25:26.000Z</time>
      </trkpt>
      <trkpt lat="47.46897" lon="6.74149">
        <ele>390</ele>
        <time>2016-07-24T07:25:28.000Z</time>
      </trkpt>
      <trkpt lat="47.46898" lon="6.74147">
        <ele>390</ele>
        <time>2016-07-24T07:25:29.000Z</time>
      </trkpt>
      <trkpt lat="47.46899" lon="6.74142">
        <ele>391</ele>
        <time>2016-07-24T07:25:31.000Z</time>
      </trkpt>
      <trkpt lat="47.46899" lon="6.74139">
        <ele>391</ele>
        <time>2016-07-24T07:25:32.000Z</time>
      </trkpt>
      <trkpt lat="47.46899" lon="6.74133">
        <ele>391</ele>
        <time>2016-07-24T07:25:34.000Z</time>
      </trkpt>
      <trkpt lat="47.46899" lon="6.74131">
        <ele>391</ele>
        <time>2016-07-24T07:25:35.000Z</time>
      </trkpt>
      <trkpt lat="47.469" lon="6.74125">
        <ele>391</ele>
        <time>2016-07-24T07:25:37.000Z</time>
      </trkpt>
      <trkpt lat="47.469" lon="6.74122">
        <ele>392</ele>
        <time>2016-07-24T07:25:38.000Z</time>
      </trkpt>
      <trkpt lat="47.46901" lon="6.74116">
        <ele>391</ele>
        <time>2016-07-24T07:25:40.000Z</time>
      </trkpt>
      <trkpt lat="47.46901" lon="6.74113">
        <ele>391</ele>
        <time>2016-07-24T07:25:41.000Z</time>
      </trkpt>
      <trkpt lat="47.46903" lon="6.74108">
        <ele>391</ele>
        <time>2016-07-24T07:25:43.000Z</time>
      </trkpt>
      <trkpt lat="47.46905" lon="6.74105">
        <ele>391</ele>
        <time>2016-07-24T07:25:44.000Z</time>
      </trkpt>
      <trkpt lat="47.46906" lon="6.74099">
        <ele>390</ele>
        <time>2016-07-24T07:25:46.000Z</time>
      </trkpt>
      <trkpt lat="47.46906" lon="6.74097">
        <ele>390</ele>
        <time>2016-07-24T07:25:47.000Z</time>
      </trkpt>
      <trkpt lat="47.46905" lon="6.74091">
        <ele>390</ele>
        <time>2016-07-24T07:25:50.000Z</time>
      </trkpt>
      <trkpt lat="47.46905" lon="6.7409">
        <ele>389</ele>
        <time>2016-07-24T07:25:51.000Z</time>
      </trkpt>
      <trkpt lat="47.46903" lon="6.74084">
        <ele>390</ele>
        <time>2016-07-24T07:25:54.000Z</time>
      </trkpt>
      <trkpt lat="47.46903" lon="6.74082">
        <ele>390</ele>
        <time>2016-07-24T07:25:55.000Z</time>
      </trkpt>
      <trkpt lat="47.46903" lon="6.74077">
        <ele>390</ele>
        <time>2016-07-24T07:25:57.000Z</time>
      </trkpt>
      <trkpt lat="47.46902" lon="6.74075">
        <ele>391</ele>
        <time>2016-07-24T07:25:58.000Z</time>
      </trkpt>
      <trkpt lat="47.469" lon="6.74071">
        <ele>391</ele>
        <time>2016-07-24T07:26:00.000Z</time>
      </trkpt>
      <trkpt lat="47.469" lon="6.74068">
        <ele>391</ele>
        <time>2016-07-24T07:26:01.000Z</time>
      </trkpt>
      <trkpt lat="47.46899" lon="6.74064">
        <ele>392</ele>
        <time>2016-07-24T07:26:02.000Z</time>
      </trkpt>
      <trkpt lat="47.46899" lon="6.74061">
        <ele>392</ele>
        <time>2016-07-24T07:26:03.000Z</time>
      </trkpt>
      <trkpt lat="47.46899" lon="6.74054">
        <ele>392</ele>
        <time>2016-07-24T07:26:05.000Z</time>
      </trkpt>
      <trkpt lat="47.46898" lon="6.74051">
        <ele>393</ele>
        <time>2016-07-24T07:26:06.000Z</time>
      </trkpt>
      <trkpt lat="47.46897" lon="6.74047">
        <ele>393</ele>
        <time>2016-07-24T07:26:08.000Z</time>
      </trkpt>
      <trkpt lat="47.46896" lon="6.74045">
        <ele>393</ele>
        <time>2016-07-24T07:26:09.000Z</time>
      </trkpt>
      <trkpt lat="47.46894" lon="6.7404">
        <ele>393</ele>
        <time>2016-07-24T07:26:12.000Z</time>
      </trkpt>
      <trkpt lat="47.46894" lon="6.74038">
        <ele>393</ele>
        <time>2016-07-24T07:26:13.000Z</time>
      </trkpt>
      <trkpt lat="47.46892" lon="6.74032">
        <ele>393</ele>
        <time>2016-07-24T07:26:18.000Z</time>
      </trkpt>
      <trkpt lat="47.46891" lon="6.7403">
        <ele>393</ele>
        <time>2016-07-24T07:26:19.000Z</time>
      </trkpt>
      <trkpt lat="47.46889" lon="6.74026">
        <ele>393</ele>
        <time>2016-07-24T07:26:21.000Z</time>
      </trkpt>
      <trkpt lat="47.46889" lon="6.74024">
        <ele>393</ele>
        <time>2016-07-24T07:26:22.000Z</time>
      </trkpt>
      <trkpt lat="47.46889" lon="6.74018">
        <ele>393</ele>
        <time>2016-07-24T07:26:24.000Z</time>
      </trkpt>
      <trkpt lat="47.46889" lon="6.74015">
        <ele>393</ele>
        <time>2016-07-24T07:26:25.000Z</time>
      </trkpt>
      <trkpt lat="47.46889" lon="6.74012">
        <ele>393</ele>
        <time>2016-07-24T07:26:26.000Z</time>
      </trkpt>
      <trkpt lat="47.46888" lon="6.74008">
        <ele>393</ele>
        <time>2016-07-24T07:26:27.000Z</time>
      </trkpt>
      <trkpt lat="47.46887" lon="6.74005">
        <ele>393</ele>
        <time>2016-07-24T07:26:28.000Z</time>
      </trkpt>
      <trkpt lat="47.46885" lon="6.74001">
        <ele>393</ele>
        <time>2016-07-24T07:26:29.000Z</time>
      </trkpt>
      <trkpt lat="47.46884" lon="6.73997">
        <ele>394</ele>
        <time>2016-07-24T07:26:30.000Z</time>
      </trkpt>
      <trkpt lat="47.46883" lon="6.73994">
        <ele>394</ele>
        <time>2016-07-24T07:26:31.000Z</time>
      </trkpt>
      <trkpt lat="47.4688" lon="6.73988">
        <ele>395</ele>
        <time>2016-07-24T07:26:33.000Z</time>
      </trkpt>
      <trkpt lat="47.46879" lon="6.73986">
        <ele>395</ele>
        <time>2016-07-24T07:26:34.000Z</time>
      </trkpt>
      <trkpt lat="47.46878" lon="6.7398">
        <ele>395</ele>
        <time>2016-07-24T07:26:36.000Z</time>
      </trkpt>
      <trkpt lat="47.46877" lon="6.73977">
        <ele>395</ele>
        <time>2016-07-24T07:26:37.000Z</time>
      </trkpt>
      <trkpt lat="47.46876" lon="6.73973">
        <ele>395</ele>
        <time>2016-07-24T07:26:39.000Z</time>
      </trkpt>
      <trkpt lat="47.46875" lon="6.73971">
        <ele>395</ele>
        <time>2016-07-24T07:26:40.000Z</time>
      </trkpt>
      <trkpt lat="47.46873" lon="6.73966">
        <ele>395</ele>
        <time>2016-07-24T07:26:42.000Z</time>
      </trkpt>
      <trkpt lat="47.46872" lon="6.73964">
        <ele>396</ele>
        <time>2016-07-24T07:26:43.000Z</time>
      </trkpt>
      <trkpt lat="47.46871" lon="6.73959">
        <ele>396</ele>
        <time>2016-07-24T07:26:45.000Z</time>
      </trkpt>
      <trkpt lat="47.46871" lon="6.73957">
        <ele>396</ele>
        <time>2016-07-24T07:26:46.000Z</time>
      </trkpt>
      <trkpt lat="47.46869" lon="6.73951">
        <ele>396</ele>
        <time>2016-07-24T07:26:49.000Z</time>
      </trkpt>
      <trkpt lat="47.46868" lon="6.73949">
        <ele>396</ele>
        <time>2016-07-24T07:26:50.000Z</time>
      </trkpt>
      <trkpt lat="47.46865" lon="6.73945">
        <ele>396</ele>
        <time>2016-07-24T07:26:52.000Z</time>
      </trkpt>
      <trkpt lat="47.46864" lon="6.73943">
        <ele>396</ele>
        <time>2016-07-24T07:26:53.000Z</time>
      </trkpt>
      <trkpt lat="47.46861" lon="6.73939">
        <ele>397</ele>
        <time>2016-07-24T07:26:55.000Z</time>
      </trkpt>
      <trkpt lat="47.46861" lon="6.73937">
        <ele>397</ele>
        <time>2016-07-24T07:26:56.000Z</time>
      </trkpt>
      <trkpt lat="47.46859" lon="6.73933">
        <ele>397</ele>
        <time>2016-07-24T07:26:58.000Z</time>
      </trkpt>
      <trkpt lat="47.46859" lon="6.73931">
        <ele>397</ele>
        <time>2016-07-24T07:26:59.000Z</time>
      </trkpt>
      <trkpt lat="47.46858" lon="6.73926">
        <ele>397</ele>
        <time>2016-07-24T07:27:01.000Z</time>
      </trkpt>
      <trkpt lat="47.46858" lon="6.73924">
        <ele>397</ele>
        <time>2016-07-24T07:27:02.000Z</time>
      </trkpt>
      <trkpt lat="47.46857" lon="6.7392">
        <ele>398</ele>
        <time>2016-07-24T07:27:03.000Z</time>
      </trkpt>
      <trkpt lat="47.46856" lon="6.73916">
        <ele>399</ele>
        <time>2016-07-24T07:27:04.000Z</time>
      </trkpt>
      <trkpt lat="47.46854" lon="6.73912">
        <ele>399</ele>
        <time>2016-07-24T07:27:05.000Z</time>
      </trkpt>
      <trkpt lat="47.46853" lon="6.73908">
        <ele>399</ele>
        <time>2016-07-24T07:27:06.000Z</time>
      </trkpt>
      <trkpt lat="47.46852" lon="6.73904">
        <ele>399</ele>
        <time>2016-07-24T07:27:07.000Z</time>
      </trkpt>
      <trkpt lat="47.4685" lon="6.73901">
        <ele>400</ele>
        <time>2016-07-24T07:27:08.000Z</time>
      </trkpt>
      <trkpt lat="47.46849" lon="6.73897">
        <ele>400</ele>
        <time>2016-07-24T07:27:09.000Z</time>
      </trkpt>
      <trkpt lat="47.46848" lon="6.73894">
        <ele>400</ele>
        <time>2016-07-24T07:27:10.000Z</time>
      </trkpt>
      <trkpt lat="47.46847" lon="6.73889">
        <ele>400</ele>
        <time>2016-07-24T07:27:11.000Z</time>
      </trkpt>
      <trkpt lat="47.46846" lon="6.73885">
        <ele>400</ele>
        <time>2016-07-24T07:27:12.000Z</time>
      </trkpt>
      <trkpt lat="47.46845" lon="6.73881">
        <ele>400</ele>
        <time>2016-07-24T07:27:13.000Z</time>
      </trkpt>
      <trkpt lat="47.46845" lon="6.73878">
        <ele>400</ele>
        <time>2016-07-24T07:27:14.000Z</time>
      </trkpt>
      <trkpt lat="47.46844" lon="6.73874">
        <ele>400</ele>
        <time>2016-07-24T07:27:15.000Z</time>
      </trkpt>
      <trkpt lat="47.46844" lon="6.73871">
        <ele>400</ele>
        <time>2016-07-24T07:27:16.000Z</time>
      </trkpt>
      <trkpt lat="47.46844" lon="6.73867">
        <ele>400</ele>
        <time>2016-07-24T07:27:17.000Z</time>
      </trkpt>
      <trkpt lat="47.46843" lon="6.73864">
        <ele>400</ele>
        <time>2016-07-24T07:27:18.000Z</time>
      </trkpt>
      <trkpt lat="47.46843" lon="6.73861">
        <ele>401</ele>
        <time>2016-07-24T07:27:19.000Z</time>
      </trkpt>
      <trkpt lat="47.46843" lon="6.73856">
        <ele>401</ele>
        <time>2016-07-24T07:27:20.000Z</time>
      </trkpt>
      <trkpt lat="47.46843" lon="6.73852">
        <ele>401</ele>
        <time>2016-07-24T07:27:21.000Z</time>
      </trkpt>
      <trkpt lat="47.46842" lon="6.73847">
        <ele>402</ele>
        <time>2016-07-24T07:27:22.000Z</time>
      </trkpt>
      <trkpt lat="47.46842" lon="6.73842">
        <ele>403</ele>
        <time>2016-07-24T07:27:23.000Z</time>
      </trkpt>
      <trkpt lat="47.46842" lon="6.73836">
        <ele>403</ele>
        <time>2016-07-24T07:27:24.000Z</time>
      </trkpt>
      <trkpt lat="47.46841" lon="6.73831">
        <ele>403</ele>
        <time>2016-07-24T07:27:25.000Z</time>
      </trkpt>
      <trkpt lat="47.46841" lon="6.73825">
        <ele>403</ele>
        <time>2016-07-24T07:27:26.000Z</time>
      </trkpt>
      <trkpt lat="47.46841" lon="6.73818">
        <ele>402</ele>
        <time>2016-07-24T07:27:27.000Z</time>
      </trkpt>
      <trkpt lat="47.4684" lon="6.73812">
        <ele>401</ele>
        <time>2016-07-24T07:27:28.000Z</time>
      </trkpt>
      <trkpt lat="47.46838" lon="6.73806">
        <ele>401</ele>
        <time>2016-07-24T07:27:29.000Z</time>
      </trkpt>
      <trkpt lat="47.46836" lon="6.73801">
        <ele>401</ele>
        <time>2016-07-24T07:27:30.000Z</time>
      </trkpt>
      <trkpt lat="47.46833" lon="6.73798">
        <ele>402</ele>
        <time>2016-07-24T07:27:31.000Z</time>
      </trkpt>
      <trkpt lat="47.46829" lon="6.73794">
        <ele>402</ele>
        <time>2016-07-24T07:27:32.000Z</time>
      </trkpt>
      <trkpt lat="47.46825" lon="6.73792">
        <ele>402</ele>
        <time>2016-07-24T07:27:33.000Z</time>
      </trkpt>
      <trkpt lat="47.4682" lon="6.73789">
        <ele>401</ele>
        <time>2016-07-24T07:27:34.000Z</time>
      </trkpt>
      <trkpt lat="47.46815" lon="6.73787">
        <ele>401</ele>
        <time>2016-07-24T07:27:35.000Z</time>
      </trkpt>
      <trkpt lat="47.46812" lon="6.73786">
        <ele>401</ele>
        <time>2016-07-24T07:27:36.100Z</time>
      </trkpt>
      <trkpt lat="47.46806" lon="6.73784">
        <ele>401</ele>
        <time>2016-07-24T07:27:37.000Z</time>
      </trkpt>
      <trkpt lat="47.46802" lon="6.73784">
        <ele>401</ele>
        <time>2016-07-24T07:27:38.000Z</time>
      </trkpt>
      <trkpt lat="47.46798" lon="6.73783">
        <ele>401</ele>
        <time>2016-07-24T07:27:39.000Z</time>
      </trkpt>
      <trkpt lat="47.46794" lon="6.73783">
        <ele>401</ele>
        <time>2016-07-24T07:27:40.000Z</time>
      </trkpt>
      <trkpt lat="47.4679" lon="6.73783">
        <ele>400</ele>
        <time>2016-07-24T07:27:41.000Z</time>
      </trkpt>
      <trkpt lat="47.46785" lon="6.73783">
        <ele>400</ele>
        <time>2016-07-24T07:27:42.000Z</time>
      </trkpt>
      <trkpt lat="47.4678" lon="6.73783">
        <ele>400</ele>
        <time>2016-07-24T07:27:43.000Z</time>
      </trkpt>
      <trkpt lat="47.46775" lon="6.73784">
        <ele>400</ele>
        <time>2016-07-24T07:27:44.000Z</time>
      </trkpt>
      <trkpt lat="47.46769" lon="6.73786">
        <ele>400</ele>
        <time>2016-07-24T07:27:45.000Z</time>
      </trkpt>
      <trkpt lat="47.46764" lon="6.73788">
        <ele>400</ele>
        <time>2016-07-24T07:27:46.000Z</time>
      </trkpt>
      <trkpt lat="47.46758" lon="6.73791">
        <ele>400</ele>
        <time>2016-07-24T07:27:47.000Z</time>
      </trkpt>
      <trkpt lat="47.46753" lon="6.73794">
        <ele>400</ele>
        <time>2016-07-24T07:27:48.000Z</time>
      </trkpt>
      <trkpt lat="47.46748" lon="6.73799">
        <ele>399</ele>
        <time>2016-07-24T07:27:49.000Z</time>
      </trkpt>
      <trkpt lat="47.46744" lon="6.73803">
        <ele>399</ele>
        <time>2016-07-24T07:27:50.000Z</time>
      </trkpt>
      <trkpt lat="47.46739" lon="6.73807">
        <ele>399</ele>
        <time>2016-07-24T07:27:51.000Z</time>
      </trkpt>
      <trkpt lat="47.46735" lon="6.73811">
        <ele>400</ele>
        <time>2016-07-24T07:27:52.000Z</time>
      </trkpt>
      <trkpt lat="47.4673" lon="6.73814">
        <ele>400</ele>
        <time>2016-07-24T07:27:53.000Z</time>
      </trkpt>
      <trkpt lat="47.46724" lon="6.73819">
        <ele>400</ele>
        <time>2016-07-24T07:27:54.000Z</time>
      </trkpt>
      <trkpt lat="47.46719" lon="6.73824">
        <ele>400</ele>
        <time>2016-07-24T07:27:55.000Z</time>
      </trkpt>
      <trkpt lat="47.46713" lon="6.73827">
        <ele>400</ele>
        <time>2016-07-24T07:27:56.000Z</time>
      </trkpt>
      <trkpt lat="47.46695" lon="6.73834">
        <ele>401</ele>
        <time>2016-07-24T07:27:57.000Z</time>
      </trkpt>
      <trkpt lat="47.46691" lon="6.73832">
        <ele>400</ele>
        <time>2016-07-24T07:27:58.000Z</time>
      </trkpt>
      <trkpt lat="47.46688" lon="6.73832">
        <ele>400</ele>
        <time>2016-07-24T07:27:59.000Z</time>
      </trkpt>
      <trkpt lat="47.46685" lon="6.73827">
        <ele>400</ele>
        <time>2016-07-24T07:28:01.000Z</time>
      </trkpt>
      <trkpt lat="47.46683" lon="6.73825">
        <ele>400</ele>
        <time>2016-07-24T07:28:02.000Z</time>
      </trkpt>
      <trkpt lat="47.46682" lon="6.73821">
        <ele>400</ele>
        <time>2016-07-24T07:28:03.000Z</time>
      </trkpt>
      <trkpt lat="47.46681" lon="6.73818">
        <ele>400</ele>
        <time>2016-07-24T07:28:04.000Z</time>
      </trkpt>
      <trkpt lat="47.46679" lon="6.73812">
        <ele>399</ele>
        <time>2016-07-24T07:28:06.000Z</time>
      </trkpt>
      <trkpt lat="47.46678" lon="6.7381">
        <ele>399</ele>
        <time>2016-07-24T07:28:07.000Z</time>
      </trkpt>
      <trkpt lat="47.46678" lon="6.73806">
        <ele>399</ele>
        <time>2016-07-24T07:28:08.000Z</time>
      </trkpt>
      <trkpt lat="47.46676" lon="6.73803">
        <ele>399</ele>
        <time>2016-07-24T07:28:09.000Z</time>
      </trkpt>
      <trkpt lat="47.46675" lon="6.738">
        <ele>399</ele>
        <time>2016-07-24T07:28:10.000Z</time>
      </trkpt>
      <trkpt lat="47.46674" lon="6.73797">
        <ele>399</ele>
        <time>2016-07-24T07:28:11.000Z</time>
      </trkpt>
      <trkpt lat="47.46673" lon="6.73794">
        <ele>399</ele>
        <time>2016-07-24T07:28:12.000Z</time>
      </trkpt>
      <trkpt lat="47.46671" lon="6.7379">
        <ele>398</ele>
        <time>2016-07-24T07:28:13.000Z</time>
      </trkpt>
      <trkpt lat="47.4667" lon="6.73787">
        <ele>398</ele>
        <time>2016-07-24T07:28:14.000Z</time>
      </trkpt>
      <trkpt lat="47.46668" lon="6.73783">
        <ele>398</ele>
        <time>2016-07-24T07:28:15.000Z</time>
      </trkpt>
      <trkpt lat="47.46665" lon="6.73779">
        <ele>400</ele>
        <time>2016-07-24T07:28:16.000Z</time>
      </trkpt>
      <trkpt lat="47.46663" lon="6.73776">
        <ele>400</ele>
        <time>2016-07-24T07:28:17.000Z</time>
      </trkpt>
      <trkpt lat="47.4666" lon="6.73772">
        <ele>400</ele>
        <time>2016-07-24T07:28:18.000Z</time>
      </trkpt>
      <trkpt lat="47.46657" lon="6.7377">
        <ele>399</ele>
        <time>2016-07-24T07:28:19.000Z</time>
      </trkpt>
      <trkpt lat="47.46655" lon="6.73767">
        <ele>399</ele>
        <time>2016-07-24T07:28:20.000Z</time>
      </trkpt>
      <trkpt lat="47.46652" lon="6.73764">
        <ele>399</ele>
        <time>2016-07-24T07:28:21.000Z</time>
      </trkpt>
      <trkpt lat="47.4665" lon="6.73761">
        <ele>399</ele>
        <time>2016-07-24T07:28:22.000Z</time>
      </trkpt>
      <trkpt lat="47.46647" lon="6.73759">
        <ele>399</ele>
        <time>2016-07-24T07:28:23.000Z</time>
      </trkpt>
      <trkpt lat="47.46645" lon="6.73756">
        <ele>400</ele>
        <time>2016-07-24T07:28:24.000Z</time>
      </trkpt>
      <trkpt lat="47.46641" lon="6.73753">
        <ele>400</ele>
        <time>2016-07-24T07:28:25.000Z</time>
      </trkpt>
      <trkpt lat="47.46637" lon="6.7375">
        <ele>400</ele>
        <time>2016-07-24T07:28:26.000Z</time>
      </trkpt>
      <trkpt lat="47.46633" lon="6.73748">
        <ele>395</ele>
        <time>2016-07-24T07:28:27.000Z</time>
      </trkpt>
      <trkpt lat="47.46629" lon="6.73746">
        <ele>395</ele>
        <time>2016-07-24T07:28:28.000Z</time>
      </trkpt>
      <trkpt lat="47.46625" lon="6.73744">
        <ele>395</ele>
        <time>2016-07-24T07:28:29.000Z</time>
      </trkpt>
      <trkpt lat="47.4662" lon="6.73742">
        <ele>395</ele>
        <time>2016-07-24T07:28:30.000Z</time>
      </trkpt>
      <trkpt lat="47.46616" lon="6.73741">
        <ele>396</ele>
        <time>2016-07-24T07:28:31.000Z</time>
      </trkpt>
      <trkpt lat="47.46613" lon="6.7374">
        <ele>396</ele>
        <time>2016-07-24T07:28:32.000Z</time>
      </trkpt>
      <trkpt lat="47.46611" lon="6.73739">
        <ele>396</ele>
        <time>2016-07-24T07:28:33.000Z</time>
      </trkpt>
      <trkpt lat="47.46608" lon="6.73738">
        <ele>396</ele>
        <time>2016-07-24T07:28:34.000Z</time>
      </trkpt>
      <trkpt lat="47.46604" lon="6.73737">
        <ele>397</ele>
        <time>2016-07-24T07:28:36.000Z</time>
      </trkpt>
      <trkpt lat="47.46602" lon="6.73736">
        <ele>397</ele>
        <time>2016-07-24T07:28:37.000Z</time>
      </trkpt>
      <trkpt lat="47.46599" lon="6.73734">
        <ele>397</ele>
        <time>2016-07-24T07:28:39.000Z</time>
      </trkpt>
      <trkpt lat="47.46598" lon="6.73733">
        <ele>397</ele>
        <time>2016-07-24T07:28:40.000Z</time>
      </trkpt>
      <trkpt lat="47.46595" lon="6.7373">
        <ele>397</ele>
        <time>2016-07-24T07:28:42.000Z</time>
      </trkpt>
      <trkpt lat="47.46593" lon="6.73729">
        <ele>397</ele>
        <time>2016-07-24T07:28:43.000Z</time>
      </trkpt>
      <trkpt lat="47.46589" lon="6.73727">
        <ele>397</ele>
        <time>2016-07-24T07:28:45.000Z</time>
      </trkpt>
      <trkpt lat="47.46587" lon="6.73725">
        <ele>397</ele>
        <time>2016-07-24T07:28:46.000Z</time>
      </trkpt>
      <trkpt lat="47.46585" lon="6.73724">
        <ele>396</ele>
        <time>2016-07-24T07:28:47.000Z</time>
      </trkpt>
      <trkpt lat="47.46583" lon="6.73722">
        <ele>401</ele>
        <time>2016-07-24T07:28:48.000Z</time>
      </trkpt>
      <trkpt lat="47.4658" lon="6.7372">
        <ele>401</ele>
        <time>2016-07-24T07:28:49.000Z</time>
      </trkpt>
      <trkpt lat="47.46577" lon="6.73718">
        <ele>401</ele>
        <time>2016-07-24T07:28:50.000Z</time>
      </trkpt>
      <trkpt lat="47.46574" lon="6.73717">
        <ele>401</ele>
        <time>2016-07-24T07:28:51.000Z</time>
      </trkpt>
      <trkpt lat="47.4657" lon="6.73715">
        <ele>401</ele>
        <time>2016-07-24T07:28:52.000Z</time>
      </trkpt>
      <trkpt lat="47.46566" lon="6.73714">
        <ele>401</ele>
        <time>2016-07-24T07:28:53.000Z</time>
      </trkpt>
      <trkpt lat="47.46562" lon="6.73714">
        <ele>401</ele>
        <time>2016-07-24T07:28:54.000Z</time>
      </trkpt>
      <trkpt lat="47.46558" lon="6.73713">
        <ele>401</ele>
        <time>2016-07-24T07:28:55.000Z</time>
      </trkpt>
      <trkpt lat="47.46554" lon="6.73713">
        <ele>401</ele>
        <time>2016-07-24T07:28:56.000Z</time>
      </trkpt>
      <trkpt lat="47.46549" lon="6.73713">
        <ele>401</ele>
        <time>2016-07-24T07:28:57.000Z</time>
      </trkpt>
      <trkpt lat="47.46545" lon="6.73712">
        <ele>401</ele>
        <time>2016-07-24T07:28:58.000Z</time>
      </trkpt>
      <trkpt lat="47.4654" lon="6.7371">
        <ele>401</ele>
        <time>2016-07-24T07:28:59.000Z</time>
      </trkpt>
      <trkpt lat="47.46535" lon="6.73707">
        <ele>402</ele>
        <time>2016-07-24T07:29:00.000Z</time>
      </trkpt>
      <trkpt lat="47.46529" lon="6.73704">
        <ele>402</ele>
        <time>2016-07-24T07:29:01.000Z</time>
      </trkpt>
      <trkpt lat="47.46523" lon="6.73703">
        <ele>402</ele>
        <time>2016-07-24T07:29:02.000Z</time>
      </trkpt>
      <trkpt lat="47.46517" lon="6.73702">
        <ele>402</ele>
        <time>2016-07-24T07:29:03.000Z</time>
      </trkpt>
      <trkpt lat="47.46511" lon="6.73703">
        <ele>402</ele>
        <time>2016-07-24T07:29:04.000Z</time>
      </trkpt>
      <trkpt lat="47.46506" lon="6.73705">
        <ele>403</ele>
        <time>2016-07-24T07:29:05.000Z</time>
      </trkpt>
      <trkpt lat="47.46501" lon="6.73708">
        <ele>403</ele>
        <time>2016-07-24T07:29:06.000Z</time>
      </trkpt>
      <trkpt lat="47.46497" lon="6.7371">
        <ele>409</ele>
        <time>2016-07-24T07:29:07.000Z</time>
      </trkpt>
      <trkpt lat="47.46493" lon="6.73713">
        <ele>409</ele>
        <time>2016-07-24T07:29:08.000Z</time>
      </trkpt>
      <trkpt lat="47.46491" lon="6.73715">
        <ele>409</ele>
        <time>2016-07-24T07:29:09.000Z</time>
      </trkpt>
      <trkpt lat="47.46488" lon="6.73716">
        <ele>409</ele>
        <time>2016-07-24T07:29:10.000Z</time>
      </trkpt>
      <trkpt lat="47.46484" lon="6.73719">
        <ele>409</ele>
        <time>2016-07-24T07:29:12.000Z</time>
      </trkpt>
      <trkpt lat="47.46483" lon="6.7372">
        <ele>409</ele>
        <time>2016-07-24T07:29:13.000Z</time>
      </trkpt>
      <trkpt lat="47.4648" lon="6.73723">
        <ele>410</ele>
        <time>2016-07-24T07:29:15.000Z</time>
      </trkpt>
      <trkpt lat="47.46478" lon="6.73725">
        <ele>410</ele>
        <time>2016-07-24T07:29:16.000Z</time>
      </trkpt>
      <trkpt lat="47.46475" lon="6.7373">
        <ele>410</ele>
        <time>2016-07-24T07:29:18.000Z</time>
      </trkpt>
      <trkpt lat="47.46474" lon="6.73732">
        <ele>410</ele>
        <time>2016-07-24T07:29:19.000Z</time>
      </trkpt>
      <trkpt lat="47.46471" lon="6.73736">
        <ele>410</ele>
        <time>2016-07-24T07:29:21.000Z</time>
      </trkpt>
      <trkpt lat="47.46469" lon="6.73737">
        <ele>410</ele>
        <time>2016-07-24T07:29:22.000Z</time>
      </trkpt>
      <trkpt lat="47.46466" lon="6.7374">
        <ele>410</ele>
        <time>2016-07-24T07:29:24.000Z</time>
      </trkpt>
      <trkpt lat="47.46464" lon="6.73741">
        <ele>411</ele>
        <time>2016-07-24T07:29:25.000Z</time>
      </trkpt>
      <trkpt lat="47.46459" lon="6.73742">
        <ele>411</ele>
        <time>2016-07-24T07:29:27.000Z</time>
      </trkpt>
      <trkpt lat="47.46457" lon="6.73742">
        <ele>411</ele>
        <time>2016-07-24T07:29:28.000Z</time>
      </trkpt>
      <trkpt lat="47.46455" lon="6.73741">
        <ele>411</ele>
        <time>2016-07-24T07:29:29.000Z</time>
      </trkpt>
      <trkpt lat="47.46453" lon="6.73742">
        <ele>411</ele>
        <time>2016-07-24T07:29:30.000Z</time>
      </trkpt>
      <trkpt lat="47.4645" lon="6.73742">
        <ele>412</ele>
        <time>2016-07-24T07:29:31.000Z</time>
      </trkpt>
      <trkpt lat="47.46448" lon="6.73743">
        <ele>412</ele>
        <time>2016-07-24T07:29:32.000Z</time>
      </trkpt>
      <trkpt lat="47.46445" lon="6.73742">
        <ele>412</ele>
        <time>2016-07-24T07:29:33.000Z</time>
      </trkpt>
      <trkpt lat="47.46443" lon="6.73742">
        <ele>412</ele>
        <time>2016-07-24T07:29:34.000Z</time>
      </trkpt>
      <trkpt lat="47.46439" lon="6.73741">
        <ele>413</ele>
        <time>2016-07-24T07:29:36.000Z</time>
      </trkpt>
      <trkpt lat="47.46437" lon="6.7374">
        <ele>413</ele>
        <time>2016-07-24T07:29:37.000Z</time>
      </trkpt>
      <trkpt lat="47.46433" lon="6.7374">
        <ele>413</ele>
        <time>2016-07-24T07:29:39.000Z</time>
      </trkpt>
      <trkpt lat="47.46432" lon="6.7374">
        <ele>413</ele>
        <time>2016-07-24T07:29:40.000Z</time>
      </trkpt>
      <trkpt lat="47.46428" lon="6.73738">
        <ele>413</ele>
        <time>2016-07-24T07:29:44.000Z</time>
      </trkpt>
      <trkpt lat="47.46427" lon="6.73738">
        <ele>413</ele>
        <time>2016-07-24T07:29:45.000Z</time>
      </trkpt>
      <trkpt lat="47.46424" lon="6.73736">
        <ele>414</ele>
        <time>2016-07-24T07:29:47.000Z</time>
      </trkpt>
      <trkpt lat="47.46422" lon="6.73735">
        <ele>414</ele>
        <time>2016-07-24T07:29:48.000Z</time>
      </trkpt>
      <trkpt lat="47.46419" lon="6.73734">
        <ele>414</ele>
        <time>2016-07-24T07:29:49.000Z</time>
      </trkpt>
      <trkpt lat="47.46416" lon="6.73733">
        <ele>417</ele>
        <time>2016-07-24T07:29:50.000Z</time>
      </trkpt>
      <trkpt lat="47.46413" lon="6.73733">
        <ele>417</ele>
        <time>2016-07-24T07:29:51.000Z</time>
      </trkpt>
      <trkpt lat="47.4641" lon="6.73733">
        <ele>417</ele>
        <time>2016-07-24T07:29:52.000Z</time>
      </trkpt>
      <trkpt lat="47.46408" lon="6.73732">
        <ele>417</ele>
        <time>2016-07-24T07:29:53.000Z</time>
      </trkpt>
      <trkpt lat="47.46406" lon="6.73732">
        <ele>417</ele>
        <time>2016-07-24T07:29:54.000Z</time>
      </trkpt>
      <trkpt lat="47.46402" lon="6.73731">
        <ele>417</ele>
        <time>2016-07-24T07:29:56.000Z</time>
      </trkpt>
      <trkpt lat="47.464" lon="6.73731">
        <ele>417</ele>
        <time>2016-07-24T07:29:57.000Z</time>
      </trkpt>
      <trkpt lat="47.46396" lon="6.73731">
        <ele>417</ele>
        <time>2016-07-24T07:29:59.000Z</time>
      </trkpt>
      <trkpt lat="47.46394" lon="6.7373">
        <ele>417</ele>
        <time>2016-07-24T07:30:00.000Z</time>
      </trkpt>
      <trkpt lat="47.46392" lon="6.7373">
        <ele>417</ele>
        <time>2016-07-24T07:30:01.000Z</time>
      </trkpt>
      <trkpt lat="47.46389" lon="6.7373">
        <ele>417</ele>
        <time>2016-07-24T07:30:02.000Z</time>
      </trkpt>
      <trkpt lat="47.46387" lon="6.73729">
        <ele>417</ele>
        <time>2016-07-24T07:30:03.000Z</time>
      </trkpt>
      <trkpt lat="47.46384" lon="6.73728">
        <ele>417</ele>
        <time>2016-07-24T07:30:04.000Z</time>
      </trkpt>
      <trkpt lat="47.46381" lon="6.73725">
        <ele>417</ele>
        <time>2016-07-24T07:30:06.000Z</time>
      </trkpt>
      <trkpt lat="47.46379" lon="6.73724">
        <ele>418</ele>
        <time>2016-07-24T07:30:07.000Z</time>
      </trkpt>
      <trkpt lat="47.46375" lon="6.73722">
        <ele>418</ele>
        <time>2016-07-24T07:30:09.000Z</time>
      </trkpt>
      <trkpt lat="47.46372" lon="6.73721">
        <ele>418</ele>
        <time>2016-07-24T07:30:10.000Z</time>
      </trkpt>
      <trkpt lat="47.4637" lon="6.73721">
        <ele>418</ele>
        <time>2016-07-24T07:30:11.000Z</time>
      </trkpt>
      <trkpt lat="47.46367" lon="6.7372">
        <ele>418</ele>
        <time>2016-07-24T07:30:12.000Z</time>
      </trkpt>
      <trkpt lat="47.46364" lon="6.7372">
        <ele>418</ele>
        <time>2016-07-24T07:30:13.000Z</time>
      </trkpt>
      <trkpt lat="47.46361" lon="6.73719">
        <ele>418</ele>
        <time>2016-07-24T07:30:14.000Z</time>
      </trkpt>
      <trkpt lat="47.46359" lon="6.73719">
        <ele>418</ele>
        <time>2016-07-24T07:30:15.000Z</time>
      </trkpt>
      <trkpt lat="47.46356" lon="6.73718">
        <ele>418</ele>
        <time>2016-07-24T07:30:16.000Z</time>
      </trkpt>
      <trkpt lat="47.46353" lon="6.73717">
        <ele>418</ele>
        <time>2016-07-24T07:30:17.000Z</time>
      </trkpt>
      <trkpt lat="47.4635" lon="6.73717">
        <ele>418</ele>
        <time>2016-07-24T07:30:18.000Z</time>
      </trkpt>
      <trkpt lat="47.46347" lon="6.73717">
        <ele>418</ele>
        <time>2016-07-24T07:30:19.000Z</time>
      </trkpt>
      <trkpt lat="47.46345" lon="6.73716">
        <ele>418</ele>
        <time>2016-07-24T07:30:20.000Z</time>
      </trkpt>
      <trkpt lat="47.46342" lon="6.73715">
        <ele>418</ele>
        <time>2016-07-24T07:30:21.000Z</time>
      </trkpt>
      <trkpt lat="47.4634" lon="6.73713">
        <ele>418</ele>
        <time>2016-07-24T07:30:22.000Z</time>
      </trkpt>
      <trkpt lat="47.46338" lon="6.73712">
        <ele>418</ele>
        <time>2016-07-24T07:30:23.000Z</time>
      </trkpt>
      <trkpt lat="47.46336" lon="6.73712">
        <ele>418</ele>
        <time>2016-07-24T07:30:24.000Z</time>
      </trkpt>
      <trkpt lat="47.46333" lon="6.7371">
        <ele>420</ele>
        <time>2016-07-24T07:30:26.000Z</time>
      </trkpt>
      <trkpt lat="47.46331" lon="6.73709">
        <ele>420</ele>
        <time>2016-07-24T07:30:27.000Z</time>
      </trkpt>
      <trkpt lat="47.46328" lon="6.73708">
        <ele>420</ele>
        <time>2016-07-24T07:30:31.000Z</time>
      </trkpt>
      <trkpt lat="47.46327" lon="6.73708">
        <ele>420</ele>
        <time>2016-07-24T07:30:32.000Z</time>
      </trkpt>
      <trkpt lat="47.46327" lon="6.73702">
        <ele>420</ele>
        <time>2016-07-24T07:30:45.000Z</time>
      </trkpt>
      <trkpt lat="47.46327" lon="6.73701">
        <ele>420</ele>
        <time>2016-07-24T07:30:46.000Z</time>
      </trkpt>
      <trkpt lat="47.4633" lon="6.73704">
        <ele>420</ele>
        <time>2016-07-24T07:30:55.000Z</time>
      </trkpt>
      <trkpt lat="47.4633" lon="6.73706">
        <ele>420</ele>
        <time>2016-07-24T07:30:56.000Z</time>
      </trkpt>
      <trkpt lat="47.46328" lon="6.73709">
        <ele>420</ele>
        <time>2016-07-24T07:30:58.000Z</time>
      </trkpt>
      <trkpt lat="47.46326" lon="6.7371">
        <ele>420</ele>
        <time>2016-07-24T07:30:59.000Z</time>
      </trkpt>
      <trkpt lat="47.46322" lon="6.73709">
        <ele>420</ele>
        <time>2016-07-24T07:31:02.000Z</time>
      </trkpt>
      <trkpt lat="47.4632" lon="6.73705">
        <ele>420</ele>
        <time>2016-07-24T07:31:03.000Z</time>
      </trkpt>
      <trkpt lat="47.46323" lon="6.737">
        <ele>420</ele>
        <time>2016-07-24T07:33:56.001Z</time>
      </trkpt>
      <trkpt lat="47.46322" lon="6.73697">
        <ele>420</ele>
        <time>2016-07-24T07:33:57.000Z</time>
      </trkpt>
      <trkpt lat="47.46321" lon="6.73691">
        <ele>421</ele>
        <time>2016-07-24T07:33:59.000Z</time>
      </trkpt>
      <trkpt lat="47.4632" lon="6.73689">
        <ele>421</ele>
        <time>2016-07-24T07:34:00.000Z</time>
      </trkpt>
      <trkpt lat="47.46319" lon="6.73683">
        <ele>421</ele>
        <time>2016-07-24T07:34:02.000Z</time>
      </trkpt>
      <trkpt lat="47.46318" lon="6.7368">
        <ele>421</ele>
        <time>2016-07-24T07:34:03.000Z</time>
      </trkpt>
      <trkpt lat="47.46317" lon="6.73676">
        <ele>421</ele>
        <time>2016-07-24T07:34:04.000Z</time>
      </trkpt>
      <trkpt lat="47.46316" lon="6.73673">
        <ele>421</ele>
        <time>2016-07-24T07:34:05.000Z</time>
      </trkpt>
      <trkpt lat="47.46316" lon="6.73668">
        <ele>421</ele>
        <time>2016-07-24T07:34:06.000Z</time>
      </trkpt>
      <trkpt lat="47.46315" lon="6.73664">
        <ele>422</ele>
        <time>2016-07-24T07:34:07.000Z</time>
      </trkpt>
      <trkpt lat="47.46316" lon="6.73659">
        <ele>422</ele>
        <time>2016-07-24T07:34:08.000Z</time>
      </trkpt>
      <trkpt lat="47.46316" lon="6.73655">
        <ele>423</ele>
        <time>2016-07-24T07:34:09.000Z</time>
      </trkpt>
      <trkpt lat="47.46316" lon="6.7365">
        <ele>423</ele>
        <time>2016-07-24T07:34:10.000Z</time>
      </trkpt>
      <trkpt lat="47.46316" lon="6.73646">
        <ele>423</ele>
        <time>2016-07-24T07:34:11.000Z</time>
      </trkpt>
      <trkpt lat="47.46316" lon="6.73642">
        <ele>423</ele>
        <time>2016-07-24T07:34:12.000Z</time>
      </trkpt>
      <trkpt lat="47.46316" lon="6.73639">
        <ele>423</ele>
        <time>2016-07-24T07:34:13.000Z</time>
      </trkpt>
      <trkpt lat="47.46316" lon="6.73633">
        <ele>423</ele>
        <time>2016-07-24T07:34:15.000Z</time>
      </trkpt>
      <trkpt lat="47.46316" lon="6.7363">
        <ele>423</ele>
        <time>2016-07-24T07:34:16.000Z</time>
      </trkpt>
      <trkpt lat="47.46316" lon="6.73624">
        <ele>423</ele>
        <time>2016-07-24T07:34:18.000Z</time>
      </trkpt>
      <trkpt lat="47.46317" lon="6.73621">
        <ele>423</ele>
        <time>2016-07-24T07:34:19.000Z</time>
      </trkpt>
      <trkpt lat="47.46317" lon="6.73618">
        <ele>423</ele>
        <time>2016-07-24T07:34:20.000Z</time>
      </trkpt>
      <trkpt lat="47.46318" lon="6.73615">
        <ele>423</ele>
        <time>2016-07-24T07:34:21.000Z</time>
      </trkpt>
      <trkpt lat="47.46319" lon="6.73611">
        <ele>424</ele>
        <time>2016-07-24T07:34:22.000Z</time>
      </trkpt>
      <trkpt lat="47.46319" lon="6.73606">
        <ele>424</ele>
        <time>2016-07-24T07:34:23.000Z</time>
      </trkpt>
      <trkpt lat="47.4632" lon="6.73601">
        <ele>424</ele>
        <time>2016-07-24T07:34:24.000Z</time>
      </trkpt>
      <trkpt lat="47.46321" lon="6.73596">
        <ele>424</ele>
        <time>2016-07-24T07:34:25.000Z</time>
      </trkpt>
      <trkpt lat="47.46322" lon="6.73591">
        <ele>424</ele>
        <time>2016-07-24T07:34:26.000Z</time>
      </trkpt>
      <trkpt lat="47.46323" lon="6.73586">
        <ele>424</ele>
        <time>2016-07-24T07:34:27.000Z</time>
      </trkpt>
      <trkpt lat="47.46324" lon="6.73581">
        <ele>425</ele>
        <time>2016-07-24T07:34:28.000Z</time>
      </trkpt>
      <trkpt lat="47.46324" lon="6.73577">
        <ele>425</ele>
        <time>2016-07-24T07:34:29.000Z</time>
      </trkpt>
      <trkpt lat="47.46324" lon="6.73574">
        <ele>425</ele>
        <time>2016-07-24T07:34:30.000Z</time>
      </trkpt>
      <trkpt lat="47.46324" lon="6.73569">
        <ele>425</ele>
        <time>2016-07-24T07:34:31.000Z</time>
      </trkpt>
      <trkpt lat="47.46324" lon="6.73565">
        <ele>425</ele>
        <time>2016-07-24T07:34:32.000Z</time>
      </trkpt>
      <trkpt lat="47.46324" lon="6.73561">
        <ele>425</ele>
        <time>2016-07-24T07:34:33.000Z</time>
      </trkpt>
      <trkpt lat="47.46324" lon="6.73556">
        <ele>425</ele>
        <time>2016-07-24T07:34:34.000Z</time>
      </trkpt>
      <trkpt lat="47.46324" lon="6.73551">
        <ele>425</ele>
        <time>2016-07-24T07:34:35.000Z</time>
      </trkpt>
      <trkpt lat="47.46324" lon="6.73547">
        <ele>425</ele>
        <time>2016-07-24T07:34:36.000Z</time>
      </trkpt>
      <trkpt lat="47.46323" lon="6.73542">
        <ele>425</ele>
        <time>2016-07-24T07:34:37.000Z</time>
      </trkpt>
      <trkpt lat="47.46323" lon="6.73537">
        <ele>425</ele>
        <time>2016-07-24T07:34:38.000Z</time>
      </trkpt>
      <trkpt lat="47.46323" lon="6.73533">
        <ele>425</ele>
        <time>2016-07-24T07:34:39.001Z</time>
      </trkpt>
      <trkpt lat="47.46322" lon="6.73529">
        <ele>425</ele>
        <time>2016-07-24T07:34:40.000Z</time>
      </trkpt>
      <trkpt lat="47.46322" lon="6.73525">
        <ele>425</ele>
        <time>2016-07-24T07:34:41.000Z</time>
      </trkpt>
      <trkpt lat="47.46322" lon="6.73521">
        <ele>425</ele>
        <time>2016-07-24T07:34:42.000Z</time>
      </trkpt>
      <trkpt lat="47.46322" lon="6.73517">
        <ele>425</ele>
        <time>2016-07-24T07:34:43.000Z</time>
      </trkpt>
      <trkpt lat="47.46322" lon="6.73513">
        <ele>425</ele>
        <time>2016-07-24T07:34:44.000Z</time>
      </trkpt>
      <trkpt lat="47.46322" lon="6.73509">
        <ele>425</ele>
        <time>2016-07-24T07:34:45.000Z</time>
      </trkpt>
      <trkpt lat="47.46321" lon="6.73505">
        <ele>425</ele>
        <time>2016-07-24T07:34:46.000Z</time>
      </trkpt>
      <trkpt lat="47.4632" lon="6.73501">
        <ele>425</ele>
        <time>2016-07-24T07:34:47.000Z</time>
      </trkpt>
      <trkpt lat="47.46319" lon="6.73496">
        <ele>426</ele>
        <time>2016-07-24T07:34:48.000Z</time>
      </trkpt>
      <trkpt lat="47.46318" lon="6.73492">
        <ele>426</ele>
        <time>2016-07-24T07:34:49.000Z</time>
      </trkpt>
      <trkpt lat="47.46319" lon="6.73488">
        <ele>426</ele>
        <time>2016-07-24T07:34:50.000Z</time>
      </trkpt>
      <trkpt lat="47.46319" lon="6.73485">
        <ele>426</ele>
        <time>2016-07-24T07:34:51.000Z</time>
      </trkpt>
      <trkpt lat="47.4632" lon="6.73482">
        <ele>426</ele>
        <time>2016-07-24T07:34:52.000Z</time>
      </trkpt>
      <trkpt lat="47.4632" lon="6.73478">
        <ele>426</ele>
        <time>2016-07-24T07:34:53.000Z</time>
      </trkpt>
      <trkpt lat="47.4632" lon="6.73474">
        <ele>426</ele>
        <time>2016-07-24T07:34:54.001Z</time>
      </trkpt>
      <trkpt lat="47.4632" lon="6.7347">
        <ele>426</ele>
        <time>2016-07-24T07:34:55.000Z</time>
      </trkpt>
      <trkpt lat="47.4632" lon="6.73466">
        <ele>426</ele>
        <time>2016-07-24T07:34:56.000Z</time>
      </trkpt>
      <trkpt lat="47.46319" lon="6.73462">
        <ele>426</ele>
        <time>2016-07-24T07:34:57.000Z</time>
      </trkpt>
      <trkpt lat="47.46319" lon="6.73457">
        <ele>426</ele>
        <time>2016-07-24T07:34:58.000Z</time>
      </trkpt>
      <trkpt lat="47.46318" lon="6.73453">
        <ele>426</ele>
        <time>2016-07-24T07:34:59.000Z</time>
      </trkpt>
      <trkpt lat="47.46318" lon="6.73449">
        <ele>426</ele>
        <time>2016-07-24T07:35:00.000Z</time>
      </trkpt>
      <trkpt lat="47.46318" lon="6.73445">
        <ele>426</ele>
        <time>2016-07-24T07:35:01.000Z</time>
      </trkpt>
      <trkpt lat="47.46318" lon="6.73441">
        <ele>426</ele>
        <time>2016-07-24T07:35:02.000Z</time>
      </trkpt>
      <trkpt lat="47.46318" lon="6.73437">
        <ele>426</ele>
        <time>2016-07-24T07:35:03.000Z</time>
      </trkpt>
      <trkpt lat="47.46318" lon="6.73433">
        <ele>426</ele>
        <time>2016-07-24T07:35:04.000Z</time>
      </trkpt>
      <trkpt lat="47.46317" lon="6.73427">
        <ele>426</ele>
        <time>2016-07-24T07:35:05.000Z</time>
      </trkpt>
      <trkpt lat="47.46317" lon="6.73422">
        <ele>426</ele>
        <time>2016-07-24T07:35:06.000Z</time>
      </trkpt>
      <trkpt lat="47.46318" lon="6.73417">
        <ele>426</ele>
        <time>2016-07-24T07:35:07.000Z</time>
      </trkpt>
      <trkpt lat="47.46318" lon="6.73412">
        <ele>427</ele>
        <time>2016-07-24T07:35:08.000Z</time>
      </trkpt>
      <trkpt lat="47.46318" lon="6.73408">
        <ele>427</ele>
        <time>2016-07-24T07:35:09.000Z</time>
      </trkpt>
      <trkpt lat="47.46318" lon="6.73404">
        <ele>427</ele>
        <time>2016-07-24T07:35:09.999Z</time>
      </trkpt>
      <trkpt lat="47.46319" lon="6.734">
        <ele>427</ele>
        <time>2016-07-24T07:35:11.000Z</time>
      </trkpt>
      <trkpt lat="47.46319" lon="6.73395">
        <ele>427</ele>
        <time>2016-07-24T07:35:12.000Z</time>
      </trkpt>
      <trkpt lat="47.46319" lon="6.73391">
        <ele>427</ele>
        <time>2016-07-24T07:35:13.000Z</time>
      </trkpt>
      <trkpt lat="47.4632" lon="6.73386">
        <ele>427</ele>
        <time>2016-07-24T07:35:14.000Z</time>
      </trkpt>
      <trkpt lat="47.4632" lon="6.73382">
        <ele>427</ele>
        <time>2016-07-24T07:35:15.000Z</time>
      </trkpt>
      <trkpt lat="47.4632" lon="6.73379">
        <ele>428</ele>
        <time>2016-07-24T07:35:15.999Z</time>
      </trkpt>
      <trkpt lat="47.46321" lon="6.73375">
        <ele>428</ele>
        <time>2016-07-24T07:35:17.000Z</time>
      </trkpt>
      <trkpt lat="47.46321" lon="6.73372">
        <ele>428</ele>
        <time>2016-07-24T07:35:18.000Z</time>
      </trkpt>
      <trkpt lat="47.46321" lon="6.73367">
        <ele>428</ele>
        <time>2016-07-24T07:35:19.000Z</time>
      </trkpt>
      <trkpt lat="47.46322" lon="6.73363">
        <ele>428</ele>
        <time>2016-07-24T07:35:20.000Z</time>
      </trkpt>
      <trkpt lat="47.46322" lon="6.73358">
        <ele>428</ele>
        <time>2016-07-24T07:35:21.000Z</time>
      </trkpt>
      <trkpt lat="47.46323" lon="6.73353">
        <ele>428</ele>
        <time>2016-07-24T07:35:22.000Z</time>
      </trkpt>
      <trkpt lat="47.46323" lon="6.73348">
        <ele>428</ele>
        <time>2016-07-24T07:35:23.000Z</time>
      </trkpt>
      <trkpt lat="47.46323" lon="6.73344">
        <ele>428</ele>
        <time>2016-07-24T07:35:24.000Z</time>
      </trkpt>
      <trkpt lat="47.46322" lon="6.7334">
        <ele>428</ele>
        <time>2016-07-24T07:35:25.000Z</time>
      </trkpt>
      <trkpt lat="47.46322" lon="6.73336">
        <ele>427</ele>
        <time>2016-07-24T07:35:26.000Z</time>
      </trkpt>
      <trkpt lat="47.46322" lon="6.73332">
        <ele>428</ele>
        <time>2016-07-24T07:35:27.000Z</time>
      </trkpt>
      <trkpt lat="47.46321" lon="6.73328">
        <ele>429</ele>
        <time>2016-07-24T07:35:28.000Z</time>
      </trkpt>
      <trkpt lat="47.46321" lon="6.73323">
        <ele>429</ele>
        <time>2016-07-24T07:35:29.000Z</time>
      </trkpt>
      <trkpt lat="47.46321" lon="6.73318">
        <ele>429</ele>
        <time>2016-07-24T07:35:30.000Z</time>
      </trkpt>
      <trkpt lat="47.46321" lon="6.73313">
        <ele>429</ele>
        <time>2016-07-24T07:35:31.000Z</time>
      </trkpt>
      <trkpt lat="47.46322" lon="6.73308">
        <ele>430</ele>
        <time>2016-07-24T07:35:32.000Z</time>
      </trkpt>
      <trkpt lat="47.46322" lon="6.73302">
        <ele>430</ele>
        <time>2016-07-24T07:35:33.000Z</time>
      </trkpt>
      <trkpt lat="47.46323" lon="6.73297">
        <ele>430</ele>
        <time>2016-07-24T07:35:34.000Z</time>
      </trkpt>
      <trkpt lat="47.46323" lon="6.73291">
        <ele>430</ele>
        <time>2016-07-24T07:35:35.000Z</time>
      </trkpt>
      <trkpt lat="47.46323" lon="6.73287">
        <ele>431</ele>
        <time>2016-07-24T07:35:36.000Z</time>
      </trkpt>
      <trkpt lat="47.46322" lon="6.73282">
        <ele>431</ele>
        <time>2016-07-24T07:35:37.000Z</time>
      </trkpt>
      <trkpt lat="47.46322" lon="6.73278">
        <ele>431</ele>
        <time>2016-07-24T07:35:38.000Z</time>
      </trkpt>
      <trkpt lat="47.46321" lon="6.73275">
        <ele>431</ele>
        <time>2016-07-24T07:35:39.000Z</time>
      </trkpt>
      <trkpt lat="47.46321" lon="6.73271">
        <ele>431</ele>
        <time>2016-07-24T07:35:40.000Z</time>
      </trkpt>
      <trkpt lat="47.46321" lon="6.73267">
        <ele>431</ele>
        <time>2016-07-24T07:35:41.000Z</time>
      </trkpt>
      <trkpt lat="47.46322" lon="6.73263">
        <ele>431</ele>
        <time>2016-07-24T07:35:42.000Z</time>
      </trkpt>
      <trkpt lat="47.46323" lon="6.73259">
        <ele>431</ele>
        <time>2016-07-24T07:35:43.000Z</time>
      </trkpt>
      <trkpt lat="47.46323" lon="6.73254">
        <ele>432</ele>
        <time>2016-07-24T07:35:44.000Z</time>
      </trkpt>
      <trkpt lat="47.46323" lon="6.7325">
        <ele>433</ele>
        <time>2016-07-24T07:35:44.999Z</time>
      </trkpt>
      <trkpt lat="47.46323" lon="6.73246">
        <ele>433</ele>
        <time>2016-07-24T07:35:46.000Z</time>
      </trkpt>
      <trkpt lat="47.46323" lon="6.73242">
        <ele>433</ele>
        <time>2016-07-24T07:35:46.999Z</time>
      </trkpt>
      <trkpt lat="47.46323" lon="6.73238">
        <ele>433</ele>
        <time>2016-07-24T07:35:50.000Z</time>
      </trkpt>
      <trkpt lat="47.46323" lon="6.73235">
        <ele>433</ele>
        <time>2016-07-24T07:35:51.000Z</time>
      </trkpt>
      <trkpt lat="47.46322" lon="6.73229">
        <ele>433</ele>
        <time>2016-07-24T07:35:53.000Z</time>
      </trkpt>
      <trkpt lat="47.46322" lon="6.73224">
        <ele>433</ele>
        <time>2016-07-24T07:35:54.000Z</time>
      </trkpt>
      <trkpt lat="47.46321" lon="6.73221">
        <ele>433</ele>
        <time>2016-07-24T07:35:55.000Z</time>
      </trkpt>
      <trkpt lat="47.46321" lon="6.73218">
        <ele>433</ele>
        <time>2016-07-24T07:35:56.000Z</time>
      </trkpt>
      <trkpt lat="47.4632" lon="6.73214">
        <ele>434</ele>
        <time>2016-07-24T07:35:57.000Z</time>
      </trkpt>
      <trkpt lat="47.4632" lon="6.73211">
        <ele>434</ele>
        <time>2016-07-24T07:35:58.000Z</time>
      </trkpt>
      <trkpt lat="47.4632" lon="6.73206">
        <ele>434</ele>
        <time>2016-07-24T07:35:59.001Z</time>
      </trkpt>
      <trkpt lat="47.46321" lon="6.73193">
        <ele>434</ele>
        <time>2016-07-24T07:36:01.000Z</time>
      </trkpt>
      <trkpt lat="47.46321" lon="6.73188">
        <ele>434</ele>
        <time>2016-07-24T07:36:02.000Z</time>
      </trkpt>
      <trkpt lat="47.46321" lon="6.73182">
        <ele>434</ele>
        <time>2016-07-24T07:36:03.000Z</time>
      </trkpt>
      <trkpt lat="47.46322" lon="6.73177">
        <ele>434</ele>
        <time>2016-07-24T07:36:04.000Z</time>
      </trkpt>
      <trkpt lat="47.46322" lon="6.73172">
        <ele>435</ele>
        <time>2016-07-24T07:36:04.999Z</time>
      </trkpt>
      <trkpt lat="47.46323" lon="6.73167">
        <ele>435</ele>
        <time>2016-07-24T07:36:06.000Z</time>
      </trkpt>
      <trkpt lat="47.46323" lon="6.73163">
        <ele>435</ele>
        <time>2016-07-24T07:36:07.000Z</time>
      </trkpt>
      <trkpt lat="47.46323" lon="6.73158">
        <ele>435</ele>
        <time>2016-07-24T07:36:08.000Z</time>
      </trkpt>
      <trkpt lat="47.46323" lon="6.73154">
        <ele>435</ele>
        <time>2016-07-24T07:36:09.000Z</time>
      </trkpt>
      <trkpt lat="47.46323" lon="6.7315">
        <ele>435</ele>
        <time>2016-07-24T07:36:10.000Z</time>
      </trkpt>
      <trkpt lat="47.46322" lon="6.73145">
        <ele>435</ele>
        <time>2016-07-24T07:36:11.000Z</time>
      </trkpt>
      <trkpt lat="47.46322" lon="6.73141">
        <ele>435</ele>
        <time>2016-07-24T07:36:12.000Z</time>
      </trkpt>
      <trkpt lat="47.46323" lon="6.73136">
        <ele>435</ele>
        <time>2016-07-24T07:36:13.000Z</time>
      </trkpt>
      <trkpt lat="47.46323" lon="6.73132">
        <ele>435</ele>
        <time>2016-07-24T07:36:14.000Z</time>
      </trkpt>
      <trkpt lat="47.46323" lon="6.73127">
        <ele>435</ele>
        <time>2016-07-24T07:36:15.000Z</time>
      </trkpt>
      <trkpt lat="47.46324" lon="6.73123">
        <ele>435</ele>
        <time>2016-07-24T07:36:16.000Z</time>
      </trkpt>
      <trkpt lat="47.46324" lon="6.73118">
        <ele>435</ele>
        <time>2016-07-24T07:36:17.000Z</time>
      </trkpt>
      <trkpt lat="47.46324" lon="6.73114">
        <ele>435</ele>
        <time>2016-07-24T07:36:18.000Z</time>
      </trkpt>
      <trkpt lat="47.46324" lon="6.73109">
        <ele>435</ele>
        <time>2016-07-24T07:36:19.000Z</time>
      </trkpt>
      <trkpt lat="47.46324" lon="6.73105">
        <ele>435</ele>
        <time>2016-07-24T07:36:20.000Z</time>
      </trkpt>
      <trkpt lat="47.46324" lon="6.73101">
        <ele>435</ele>
        <time>2016-07-24T07:36:21.000Z</time>
      </trkpt>
      <trkpt lat="47.46324" lon="6.73097">
        <ele>435</ele>
        <time>2016-07-24T07:36:22.000Z</time>
      </trkpt>
      <trkpt lat="47.46324" lon="6.73093">
        <ele>435</ele>
        <time>2016-07-24T07:36:23.001Z</time>
      </trkpt>
      <trkpt lat="47.46324" lon="6.73089">
        <ele>435</ele>
        <time>2016-07-24T07:36:24.000Z</time>
      </trkpt>
      <trkpt lat="47.46324" lon="6.73085">
        <ele>435</ele>
        <time>2016-07-24T07:36:25.000Z</time>
      </trkpt>
      <trkpt lat="47.46325" lon="6.7308">
        <ele>435</ele>
        <time>2016-07-24T07:36:26.000Z</time>
      </trkpt>
      <trkpt lat="47.46325" lon="6.73076">
        <ele>435</ele>
        <time>2016-07-24T07:36:27.000Z</time>
      </trkpt>
      <trkpt lat="47.46326" lon="6.73071">
        <ele>435</ele>
        <time>2016-07-24T07:36:28.000Z</time>
      </trkpt>
      <trkpt lat="47.46326" lon="6.73065">
        <ele>435</ele>
        <time>2016-07-24T07:36:29.000Z</time>
      </trkpt>
      <trkpt lat="47.46326" lon="6.7306">
        <ele>435</ele>
        <time>2016-07-24T07:36:30.000Z</time>
      </trkpt>
      <trkpt lat="47.46326" lon="6.73054">
        <ele>436</ele>
        <time>2016-07-24T07:36:31.000Z</time>
      </trkpt>
      <trkpt lat="47.46326" lon="6.73044">
        <ele>436</ele>
        <time>2016-07-24T07:36:33.000Z</time>
      </trkpt>
      <trkpt lat="47.46325" lon="6.73039">
        <ele>436</ele>
        <time>2016-07-24T07:36:34.000Z</time>
      </trkpt>
      <trkpt lat="47.46325" lon="6.73034">
        <ele>436</ele>
        <time>2016-07-24T07:36:35.000Z</time>
      </trkpt>
      <trkpt lat="47.46325" lon="6.73029">
        <ele>436</ele>
        <time>2016-07-24T07:36:36.000Z</time>
      </trkpt>
      <trkpt lat="47.46326" lon="6.73024">
        <ele>436</ele>
        <time>2016-07-24T07:36:37.000Z</time>
      </trkpt>
      <trkpt lat="47.46326" lon="6.73018">
        <ele>436</ele>
        <time>2016-07-24T07:36:38.000Z</time>
      </trkpt>
      <trkpt lat="47.46326" lon="6.73011">
        <ele>436</ele>
        <time>2016-07-24T07:36:39.000Z</time>
      </trkpt>
      <trkpt lat="47.46326" lon="6.73005">
        <ele>435</ele>
        <time>2016-07-24T07:36:40.000Z</time>
      </trkpt>
      <trkpt lat="47.46326" lon="6.73">
        <ele>435</ele>
        <time>2016-07-24T07:36:41.000Z</time>
      </trkpt>
      <trkpt lat="47.46326" lon="6.72994">
        <ele>435</ele>
        <time>2016-07-24T07:36:42.000Z</time>
      </trkpt>
      <trkpt lat="47.46327" lon="6.72989">
        <ele>435</ele>
        <time>2016-07-24T07:36:43.000Z</time>
      </trkpt>
      <trkpt lat="47.46327" lon="6.72983">
        <ele>436</ele>
        <time>2016-07-24T07:36:44.000Z</time>
      </trkpt>
      <trkpt lat="47.46326" lon="6.72977">
        <ele>436</ele>
        <time>2016-07-24T07:36:45.000Z</time>
      </trkpt>
      <trkpt lat="47.46326" lon="6.72971">
        <ele>436</ele>
        <time>2016-07-24T07:36:46.000Z</time>
      </trkpt>
      <trkpt lat="47.46326" lon="6.72966">
        <ele>436</ele>
        <time>2016-07-24T07:36:47.000Z</time>
      </trkpt>
      <trkpt lat="47.46326" lon="6.7296">
        <ele>436</ele>
        <time>2016-07-24T07:36:48.000Z</time>
      </trkpt>
      <trkpt lat="47.46325" lon="6.72954">
        <ele>435</ele>
        <time>2016-07-24T07:36:49.000Z</time>
      </trkpt>
      <trkpt lat="47.46325" lon="6.72947">
        <ele>435</ele>
        <time>2016-07-24T07:36:50.000Z</time>
      </trkpt>
      <trkpt lat="47.46325" lon="6.72941">
        <ele>435</ele>
        <time>2016-07-24T07:36:51.000Z</time>
      </trkpt>
      <trkpt lat="47.46324" lon="6.72934">
        <ele>435</ele>
        <time>2016-07-24T07:36:52.000Z</time>
      </trkpt>
      <trkpt lat="47.46323" lon="6.72928">
        <ele>434</ele>
        <time>2016-07-24T07:36:53.000Z</time>
      </trkpt>
      <trkpt lat="47.46322" lon="6.72922">
        <ele>434</ele>
        <time>2016-07-24T07:36:54.000Z</time>
      </trkpt>
      <trkpt lat="47.46321" lon="6.72916">
        <ele>433</ele>
        <time>2016-07-24T07:36:55.000Z</time>
      </trkpt>
      <trkpt lat="47.4632" lon="6.7291">
        <ele>433</ele>
        <time>2016-07-24T07:36:56.000Z</time>
      </trkpt>
      <trkpt lat="47.46319" lon="6.72904">
        <ele>433</ele>
        <time>2016-07-24T07:36:57.000Z</time>
      </trkpt>
      <trkpt lat="47.46318" lon="6.72899">
        <ele>433</ele>
        <time>2016-07-24T07:36:58.000Z</time>
      </trkpt>
      <trkpt lat="47.46316" lon="6.72892">
        <ele>433</ele>
        <time>2016-07-24T07:36:59.000Z</time>
      </trkpt>
      <trkpt lat="47.46315" lon="6.72887">
        <ele>433</ele>
        <time>2016-07-24T07:37:00.000Z</time>
      </trkpt>
      <trkpt lat="47.46314" lon="6.72881">
        <ele>433</ele>
        <time>2016-07-24T07:37:01.000Z</time>
      </trkpt>
      <trkpt lat="47.46311" lon="6.72874">
        <ele>433</ele>
        <time>2016-07-24T07:37:02.000Z</time>
      </trkpt>
      <trkpt lat="47.46309" lon="6.72869">
        <ele>432</ele>
        <time>2016-07-24T07:37:03.000Z</time>
      </trkpt>
      <trkpt lat="47.46308" lon="6.72863">
        <ele>432</ele>
        <time>2016-07-24T07:37:04.000Z</time>
      </trkpt>
      <trkpt lat="47.46305" lon="6.72856">
        <ele>432</ele>
        <time>2016-07-24T07:37:05.000Z</time>
      </trkpt>
      <trkpt lat="47.46302" lon="6.72851">
        <ele>432</ele>
        <time>2016-07-24T07:37:06.000Z</time>
      </trkpt>
      <trkpt lat="47.463" lon="6.72847">
        <ele>432</ele>
        <time>2016-07-24T07:37:07.000Z</time>
      </trkpt>
      <trkpt lat="47.46297" lon="6.72843">
        <ele>432</ele>
        <time>2016-07-24T07:37:08.000Z</time>
      </trkpt>
      <trkpt lat="47.46293" lon="6.72845">
        <ele>433</ele>
        <time>2016-07-24T07:37:09.000Z</time>
      </trkpt>
      <trkpt lat="47.4629" lon="6.72846">
        <ele>433</ele>
        <time>2016-07-24T07:37:10.000Z</time>
      </trkpt>
      <trkpt lat="47.46289" lon="6.72852">
        <ele>433</ele>
        <time>2016-07-24T07:37:12.000Z</time>
      </trkpt>
      <trkpt lat="47.46287" lon="6.72854">
        <ele>433</ele>
        <time>2016-07-24T07:37:13.000Z</time>
      </trkpt>
      <trkpt lat="47.46285" lon="6.72856">
        <ele>434</ele>
        <time>2016-07-24T07:37:14.000Z</time>
      </trkpt>
      <trkpt lat="47.46283" lon="6.72858">
        <ele>434</ele>
        <time>2016-07-24T07:37:15.000Z</time>
      </trkpt>
      <trkpt lat="47.4628" lon="6.72861">
        <ele>434</ele>
        <time>2016-07-24T07:37:17.000Z</time>
      </trkpt>
      <trkpt lat="47.46278" lon="6.72863">
        <ele>434</ele>
        <time>2016-07-24T07:37:18.000Z</time>
      </trkpt>
      <trkpt lat="47.46276" lon="6.72865">
        <ele>434</ele>
        <time>2016-07-24T07:37:19.000Z</time>
      </trkpt>
      <trkpt lat="47.46274" lon="6.72866">
        <ele>434</ele>
        <time>2016-07-24T07:37:20.000Z</time>
      </trkpt>
      <trkpt lat="47.46271" lon="6.72868">
        <ele>434</ele>
        <time>2016-07-24T07:37:21.000Z</time>
      </trkpt>
      <trkpt lat="47.46269" lon="6.7287">
        <ele>434</ele>
        <time>2016-07-24T07:37:22.000Z</time>
      </trkpt>
      <trkpt lat="47.46266" lon="6.72872">
        <ele>435</ele>
        <time>2016-07-24T07:37:23.000Z</time>
      </trkpt>
      <trkpt lat="47.46264" lon="6.72874">
        <ele>435</ele>
        <time>2016-07-24T07:37:24.000Z</time>
      </trkpt>
      <trkpt lat="47.46262" lon="6.72875">
        <ele>435</ele>
        <time>2016-07-24T07:37:25.000Z</time>
      </trkpt>
      <trkpt lat="47.4626" lon="6.72877">
        <ele>435</ele>
        <time>2016-07-24T07:37:26.000Z</time>
      </trkpt>
      <trkpt lat="47.46257" lon="6.72879">
        <ele>435</ele>
        <time>2016-07-24T07:37:27.000Z</time>
      </trkpt>
      <trkpt lat="47.46255" lon="6.72881">
        <ele>435</ele>
        <time>2016-07-24T07:37:28.000Z</time>
      </trkpt>
      <trkpt lat="47.46253" lon="6.72884">
        <ele>435</ele>
        <time>2016-07-24T07:37:29.000Z</time>
      </trkpt>
      <trkpt lat="47.46251" lon="6.72886">
        <ele>435</ele>
        <time>2016-07-24T07:37:30.000Z</time>
      </trkpt>
      <trkpt lat="47.46249" lon="6.72888">
        <ele>439</ele>
        <time>2016-07-24T07:37:31.000Z</time>
      </trkpt>
      <trkpt lat="47.46247" lon="6.7289">
        <ele>439</ele>
        <time>2016-07-24T07:37:32.000Z</time>
      </trkpt>
      <trkpt lat="47.46244" lon="6.72892">
        <ele>439</ele>
        <time>2016-07-24T07:37:33.000Z</time>
      </trkpt>
      <trkpt lat="47.46242" lon="6.72895">
        <ele>439</ele>
        <time>2016-07-24T07:37:34.000Z</time>
      </trkpt>
      <trkpt lat="47.4624" lon="6.72897">
        <ele>439</ele>
        <time>2016-07-24T07:37:35.000Z</time>
      </trkpt>
      <trkpt lat="47.46237" lon="6.729">
        <ele>439</ele>
        <time>2016-07-24T07:37:36.000Z</time>
      </trkpt>
      <trkpt lat="47.46235" lon="6.72902">
        <ele>439</ele>
        <time>2016-07-24T07:37:37.000Z</time>
      </trkpt>
      <trkpt lat="47.46232" lon="6.72904">
        <ele>439</ele>
        <time>2016-07-24T07:37:38.000Z</time>
      </trkpt>
      <trkpt lat="47.4623" lon="6.72905">
        <ele>439</ele>
        <time>2016-07-24T07:37:39.000Z</time>
      </trkpt>
      <trkpt lat="47.46227" lon="6.72907">
        <ele>439</ele>
        <time>2016-07-24T07:37:40.000Z</time>
      </trkpt>
      <trkpt lat="47.46224" lon="6.72908">
        <ele>439</ele>
        <time>2016-07-24T07:37:41.000Z</time>
      </trkpt>
      <trkpt lat="47.46222" lon="6.72908">
        <ele>439</ele>
        <time>2016-07-24T07:37:42.000Z</time>
      </trkpt>
      <trkpt lat="47.46219" lon="6.72907">
        <ele>439</ele>
        <time>2016-07-24T07:37:43.000Z</time>
      </trkpt>
      <trkpt lat="47.46217" lon="6.72905">
        <ele>440</ele>
        <time>2016-07-24T07:37:44.000Z</time>
      </trkpt>
      <trkpt lat="47.46216" lon="6.72902">
        <ele>440</ele>
        <time>2016-07-24T07:37:45.000Z</time>
      </trkpt>
      <trkpt lat="47.46215" lon="6.72898">
        <ele>440</ele>
        <time>2016-07-24T07:37:46.000Z</time>
      </trkpt>
      <trkpt lat="47.46214" lon="6.72893">
        <ele>440</ele>
        <time>2016-07-24T07:37:47.000Z</time>
      </trkpt>
      <trkpt lat="47.46214" lon="6.72888">
        <ele>440</ele>
        <time>2016-07-24T07:37:48.000Z</time>
      </trkpt>
      <trkpt lat="47.46213" lon="6.72883">
        <ele>440</ele>
        <time>2016-07-24T07:37:49.000Z</time>
      </trkpt>
      <trkpt lat="47.46212" lon="6.72878">
        <ele>440</ele>
        <time>2016-07-24T07:37:50.000Z</time>
      </trkpt>
      <trkpt lat="47.46211" lon="6.72873">
        <ele>440</ele>
        <time>2016-07-24T07:37:51.000Z</time>
      </trkpt>
      <trkpt lat="47.46211" lon="6.72868">
        <ele>440</ele>
        <time>2016-07-24T07:37:52.000Z</time>
      </trkpt>
      <trkpt lat="47.4621" lon="6.72863">
        <ele>440</ele>
        <time>2016-07-24T07:37:53.000Z</time>
      </trkpt>
      <trkpt lat="47.46209" lon="6.72858">
        <ele>440</ele>
        <time>2016-07-24T07:37:54.000Z</time>
      </trkpt>
      <trkpt lat="47.46208" lon="6.72854">
        <ele>440</ele>
        <time>2016-07-24T07:37:55.000Z</time>
      </trkpt>
      <trkpt lat="47.46207" lon="6.72849">
        <ele>440</ele>
        <time>2016-07-24T07:37:56.000Z</time>
      </trkpt>
      <trkpt lat="47.46206" lon="6.72845">
        <ele>440</ele>
        <time>2016-07-24T07:37:57.000Z</time>
      </trkpt>
      <trkpt lat="47.46205" lon="6.72839">
        <ele>440</ele>
        <time>2016-07-24T07:37:58.000Z</time>
      </trkpt>
      <trkpt lat="47.46204" lon="6.72834">
        <ele>440</ele>
        <time>2016-07-24T07:37:59.000Z</time>
      </trkpt>
      <trkpt lat="47.46203" lon="6.72828">
        <ele>439</ele>
        <time>2016-07-24T07:38:00.000Z</time>
      </trkpt>
      <trkpt lat="47.46202" lon="6.72822">
        <ele>439</ele>
        <time>2016-07-24T07:38:01.000Z</time>
      </trkpt>
      <trkpt lat="47.46201" lon="6.72817">
        <ele>439</ele>
        <time>2016-07-24T07:38:02.000Z</time>
      </trkpt>
      <trkpt lat="47.462" lon="6.72812">
        <ele>439</ele>
        <time>2016-07-24T07:38:03.000Z</time>
      </trkpt>
      <trkpt lat="47.46199" lon="6.72807">
        <ele>439</ele>
        <time>2016-07-24T07:38:04.000Z</time>
      </trkpt>
      <trkpt lat="47.46198" lon="6.72801">
        <ele>439</ele>
        <time>2016-07-24T07:38:05.000Z</time>
      </trkpt>
      <trkpt lat="47.46196" lon="6.72795">
        <ele>439</ele>
        <time>2016-07-24T07:38:06.000Z</time>
      </trkpt>
      <trkpt lat="47.46195" lon="6.7279">
        <ele>439</ele>
        <time>2016-07-24T07:38:07.000Z</time>
      </trkpt>
      <trkpt lat="47.46194" lon="6.72784">
        <ele>439</ele>
        <time>2016-07-24T07:38:08.000Z</time>
      </trkpt>
      <trkpt lat="47.46191" lon="6.72779">
        <ele>439</ele>
        <time>2016-07-24T07:38:09.000Z</time>
      </trkpt>
      <trkpt lat="47.46188" lon="6.72774">
        <ele>439</ele>
        <time>2016-07-24T07:38:10.000Z</time>
      </trkpt>
      <trkpt lat="47.46185" lon="6.7277">
        <ele>439</ele>
        <time>2016-07-24T07:38:11.000Z</time>
      </trkpt>
      <trkpt lat="47.46181" lon="6.72767">
        <ele>440</ele>
        <time>2016-07-24T07:38:12.000Z</time>
      </trkpt>
      <trkpt lat="47.46177" lon="6.72763">
        <ele>440</ele>
        <time>2016-07-24T07:38:13.000Z</time>
      </trkpt>
      <trkpt lat="47.46173" lon="6.7276">
        <ele>441</ele>
        <time>2016-07-24T07:38:14.000Z</time>
      </trkpt>
      <trkpt lat="47.4617" lon="6.72757">
        <ele>441</ele>
        <time>2016-07-24T07:38:15.000Z</time>
      </trkpt>
      <trkpt lat="47.46168" lon="6.72753">
        <ele>442</ele>
        <time>2016-07-24T07:38:16.000Z</time>
      </trkpt>
      <trkpt lat="47.46165" lon="6.72749">
        <ele>442</ele>
        <time>2016-07-24T07:38:17.000Z</time>
      </trkpt>
      <trkpt lat="47.46161" lon="6.72746">
        <ele>442</ele>
        <time>2016-07-24T07:38:18.000Z</time>
      </trkpt>
      <trkpt lat="47.46158" lon="6.72743">
        <ele>442</ele>
        <time>2016-07-24T07:38:19.000Z</time>
      </trkpt>
      <trkpt lat="47.46154" lon="6.7274">
        <ele>442</ele>
        <time>2016-07-24T07:38:20.000Z</time>
      </trkpt>
      <trkpt lat="47.4615" lon="6.72736">
        <ele>442</ele>
        <time>2016-07-24T07:38:21.000Z</time>
      </trkpt>
      <trkpt lat="47.46146" lon="6.72732">
        <ele>441</ele>
        <time>2016-07-24T07:38:22.000Z</time>
      </trkpt>
      <trkpt lat="47.46143" lon="6.72727">
        <ele>441</ele>
        <time>2016-07-24T07:38:23.000Z</time>
      </trkpt>
      <trkpt lat="47.46139" lon="6.72723">
        <ele>441</ele>
        <time>2016-07-24T07:38:24.000Z</time>
      </trkpt>
      <trkpt lat="47.46136" lon="6.72719">
        <ele>441</ele>
        <time>2016-07-24T07:38:25.000Z</time>
      </trkpt>
      <trkpt lat="47.46133" lon="6.72714">
        <ele>441</ele>
        <time>2016-07-24T07:38:26.000Z</time>
      </trkpt>
      <trkpt lat="47.4613" lon="6.7271">
        <ele>441</ele>
        <time>2016-07-24T07:38:27.000Z</time>
      </trkpt>
      <trkpt lat="47.46128" lon="6.72706">
        <ele>441</ele>
        <time>2016-07-24T07:38:28.000Z</time>
      </trkpt>
      <trkpt lat="47.46126" lon="6.72703">
        <ele>441</ele>
        <time>2016-07-24T07:38:29.000Z</time>
      </trkpt>
      <trkpt lat="47.46124" lon="6.72699">
        <ele>441</ele>
        <time>2016-07-24T07:38:30.000Z</time>
      </trkpt>
      <trkpt lat="47.46122" lon="6.72696">
        <ele>441</ele>
        <time>2016-07-24T07:38:31.000Z</time>
      </trkpt>
      <trkpt lat="47.46119" lon="6.72692">
        <ele>441</ele>
        <time>2016-07-24T07:38:32.000Z</time>
      </trkpt>
      <trkpt lat="47.46117" lon="6.72688">
        <ele>441</ele>
        <time>2016-07-24T07:38:33.000Z</time>
      </trkpt>
      <trkpt lat="47.46114" lon="6.72684">
        <ele>441</ele>
        <time>2016-07-24T07:38:34.000Z</time>
      </trkpt>
      <trkpt lat="47.4611" lon="6.7268">
        <ele>441</ele>
        <time>2016-07-24T07:38:35.000Z</time>
      </trkpt>
      <trkpt lat="47.46107" lon="6.72675">
        <ele>441</ele>
        <time>2016-07-24T07:38:36.000Z</time>
      </trkpt>
      <trkpt lat="47.46103" lon="6.7267">
        <ele>441</ele>
        <time>2016-07-24T07:38:37.000Z</time>
      </trkpt>
      <trkpt lat="47.46092" lon="6.72651">
        <ele>440</ele>
        <time>2016-07-24T07:38:38.000Z</time>
      </trkpt>
      <trkpt lat="47.46089" lon="6.72645">
        <ele>439</ele>
        <time>2016-07-24T07:38:39.000Z</time>
      </trkpt>
      <trkpt lat="47.46085" lon="6.72639">
        <ele>439</ele>
        <time>2016-07-24T07:38:40.000Z</time>
      </trkpt>
      <trkpt lat="47.46081" lon="6.72634">
        <ele>441</ele>
        <time>2016-07-24T07:38:41.000Z</time>
      </trkpt>
      <trkpt lat="47.46076" lon="6.72628">
        <ele>441</ele>
        <time>2016-07-24T07:38:42.000Z</time>
      </trkpt>
      <trkpt lat="47.46073" lon="6.72624">
        <ele>440</ele>
        <time>2016-07-24T07:38:43.000Z</time>
      </trkpt>
      <trkpt lat="47.4607" lon="6.72619">
        <ele>440</ele>
        <time>2016-07-24T07:38:44.000Z</time>
      </trkpt>
      <trkpt lat="47.46068" lon="6.72616">
        <ele>440</ele>
        <time>2016-07-24T07:38:45.000Z</time>
      </trkpt>
      <trkpt lat="47.46064" lon="6.7261">
        <ele>440</ele>
        <time>2016-07-24T07:38:46.000Z</time>
      </trkpt>
      <trkpt lat="47.46061" lon="6.72604">
        <ele>440</ele>
        <time>2016-07-24T07:38:47.000Z</time>
      </trkpt>
      <trkpt lat="47.46057" lon="6.72599">
        <ele>440</ele>
        <time>2016-07-24T07:38:48.000Z</time>
      </trkpt>
      <trkpt lat="47.46053" lon="6.72594">
        <ele>440</ele>
        <time>2016-07-24T07:38:49.000Z</time>
      </trkpt>
      <trkpt lat="47.4605" lon="6.72589">
        <ele>440</ele>
        <time>2016-07-24T07:38:50.000Z</time>
      </trkpt>
      <trkpt lat="47.46049" lon="6.72584">
        <ele>440</ele>
        <time>2016-07-24T07:38:51.000Z</time>
      </trkpt>
      <trkpt lat="47.46046" lon="6.7258">
        <ele>438</ele>
        <time>2016-07-24T07:38:52.000Z</time>
      </trkpt>
      <trkpt lat="47.46044" lon="6.72575">
        <ele>438</ele>
        <time>2016-07-24T07:38:53.000Z</time>
      </trkpt>
      <trkpt lat="47.46035" lon="6.72568">
        <ele>438</ele>
        <time>2016-07-24T07:38:54.000Z</time>
      </trkpt>
      <trkpt lat="47.4603" lon="6.72564">
        <ele>438</ele>
        <time>2016-07-24T07:38:55.000Z</time>
      </trkpt>
      <trkpt lat="47.46025" lon="6.72557">
        <ele>438</ele>
        <time>2016-07-24T07:38:56.000Z</time>
      </trkpt>
      <trkpt lat="47.46021" lon="6.72552">
        <ele>438</ele>
        <time>2016-07-24T07:38:57.000Z</time>
      </trkpt>
      <trkpt lat="47.46015" lon="6.72548">
        <ele>438</ele>
        <time>2016-07-24T07:38:58.000Z</time>
      </trkpt>
      <trkpt lat="47.4601" lon="6.72544">
        <ele>438</ele>
        <time>2016-07-24T07:38:59.000Z</time>
      </trkpt>
      <trkpt lat="47.46005" lon="6.7254">
        <ele>438</ele>
        <time>2016-07-24T07:39:00.000Z</time>
      </trkpt>
      <trkpt lat="47.46001" lon="6.72537">
        <ele>438</ele>
        <time>2016-07-24T07:39:01.000Z</time>
      </trkpt>
      <trkpt lat="47.45998" lon="6.72535">
        <ele>439</ele>
        <time>2016-07-24T07:39:02.000Z</time>
      </trkpt>
      <trkpt lat="47.45993" lon="6.72535">
        <ele>439</ele>
        <time>2016-07-24T07:39:03.000Z</time>
      </trkpt>
      <trkpt lat="47.45986" lon="6.72531">
        <ele>439</ele>
        <time>2016-07-24T07:39:04.000Z</time>
      </trkpt>
      <trkpt lat="47.45981" lon="6.72528">
        <ele>439</ele>
        <time>2016-07-24T07:39:05.000Z</time>
      </trkpt>
      <trkpt lat="47.45977" lon="6.72523">
        <ele>439</ele>
        <time>2016-07-24T07:39:06.000Z</time>
      </trkpt>
      <trkpt lat="47.45975" lon="6.72519">
        <ele>439</ele>
        <time>2016-07-24T07:39:07.000Z</time>
      </trkpt>
      <trkpt lat="47.45972" lon="6.72515">
        <ele>439</ele>
        <time>2016-07-24T07:39:08.000Z</time>
      </trkpt>
      <trkpt lat="47.4597" lon="6.72512">
        <ele>439</ele>
        <time>2016-07-24T07:39:09.000Z</time>
      </trkpt>
      <trkpt lat="47.45968" lon="6.72508">
        <ele>439</ele>
        <time>2016-07-24T07:39:10.000Z</time>
      </trkpt>
      <trkpt lat="47.45967" lon="6.72504">
        <ele>439</ele>
        <time>2016-07-24T07:39:11.000Z</time>
      </trkpt>
      <trkpt lat="47.45966" lon="6.725">
        <ele>439</ele>
        <time>2016-07-24T07:39:12.000Z</time>
      </trkpt>
      <trkpt lat="47.45965" lon="6.72495">
        <ele>439</ele>
        <time>2016-07-24T07:39:13.000Z</time>
      </trkpt>
      <trkpt lat="47.45962" lon="6.72489">
        <ele>439</ele>
        <time>2016-07-24T07:39:14.000Z</time>
      </trkpt>
      <trkpt lat="47.4596" lon="6.72484">
        <ele>439</ele>
        <time>2016-07-24T07:39:15.000Z</time>
      </trkpt>
      <trkpt lat="47.45959" lon="6.72481">
        <ele>439</ele>
        <time>2016-07-24T07:39:16.000Z</time>
      </trkpt>
      <trkpt lat="47.45961" lon="6.72476">
        <ele>439</ele>
        <time>2016-07-24T07:39:18.000Z</time>
      </trkpt>
      <trkpt lat="47.45962" lon="6.72473">
        <ele>439</ele>
        <time>2016-07-24T07:39:19.000Z</time>
      </trkpt>
      <trkpt lat="47.45963" lon="6.72468">
        <ele>439</ele>
        <time>2016-07-24T07:39:20.000Z</time>
      </trkpt>
      <trkpt lat="47.45964" lon="6.72463">
        <ele>439</ele>
        <time>2016-07-24T07:39:21.000Z</time>
      </trkpt>
      <trkpt lat="47.45965" lon="6.72459">
        <ele>439</ele>
        <time>2016-07-24T07:39:22.000Z</time>
      </trkpt>
      <trkpt lat="47.45966" lon="6.72456">
        <ele>439</ele>
        <time>2016-07-24T07:39:23.000Z</time>
      </trkpt>
      <trkpt lat="47.45968" lon="6.7245">
        <ele>439</ele>
        <time>2016-07-24T07:39:25.000Z</time>
      </trkpt>
      <trkpt lat="47.45968" lon="6.72447">
        <ele>439</ele>
        <time>2016-07-24T07:39:26.000Z</time>
      </trkpt>
      <trkpt lat="47.45968" lon="6.72443">
        <ele>439</ele>
        <time>2016-07-24T07:39:27.000Z</time>
      </trkpt>
      <trkpt lat="47.45967" lon="6.7244">
        <ele>439</ele>
        <time>2016-07-24T07:39:28.000Z</time>
      </trkpt>
      <trkpt lat="47.45966" lon="6.72436">
        <ele>439</ele>
        <time>2016-07-24T07:39:29.000Z</time>
      </trkpt>
      <trkpt lat="47.45965" lon="6.72432">
        <ele>439</ele>
        <time>2016-07-24T07:39:30.000Z</time>
      </trkpt>
      <trkpt lat="47.45963" lon="6.72428">
        <ele>439</ele>
        <time>2016-07-24T07:39:31.000Z</time>
      </trkpt>
      <trkpt lat="47.45962" lon="6.72425">
        <ele>439</ele>
        <time>2016-07-24T07:39:32.000Z</time>
      </trkpt>
      <trkpt lat="47.45961" lon="6.72422">
        <ele>439</ele>
        <time>2016-07-24T07:39:33.000Z</time>
      </trkpt>
      <trkpt lat="47.45959" lon="6.72419">
        <ele>439</ele>
        <time>2016-07-24T07:39:34.000Z</time>
      </trkpt>
      <trkpt lat="47.45958" lon="6.72416">
        <ele>438</ele>
        <time>2016-07-24T07:39:35.000Z</time>
      </trkpt>
      <trkpt lat="47.45956" lon="6.72413">
        <ele>438</ele>
        <time>2016-07-24T07:39:36.000Z</time>
      </trkpt>
      <trkpt lat="47.45955" lon="6.72407">
        <ele>438</ele>
        <time>2016-07-24T07:39:38.000Z</time>
      </trkpt>
      <trkpt lat="47.45954" lon="6.72404">
        <ele>438</ele>
        <time>2016-07-24T07:39:39.000Z</time>
      </trkpt>
      <trkpt lat="47.45953" lon="6.724">
        <ele>438</ele>
        <time>2016-07-24T07:39:41.000Z</time>
      </trkpt>
      <trkpt lat="47.45952" lon="6.72398">
        <ele>438</ele>
        <time>2016-07-24T07:39:42.000Z</time>
      </trkpt>
      <trkpt lat="47.45951" lon="6.72393">
        <ele>438</ele>
        <time>2016-07-24T07:39:44.000Z</time>
      </trkpt>
      <trkpt lat="47.4595" lon="6.7239">
        <ele>438</ele>
        <time>2016-07-24T07:39:45.000Z</time>
      </trkpt>
      <trkpt lat="47.45948" lon="6.72386">
        <ele>438</ele>
        <time>2016-07-24T07:39:47.000Z</time>
      </trkpt>
      <trkpt lat="47.45948" lon="6.72383">
        <ele>438</ele>
        <time>2016-07-24T07:39:48.000Z</time>
      </trkpt>
      <trkpt lat="47.45947" lon="6.7238">
        <ele>438</ele>
        <time>2016-07-24T07:39:49.000Z</time>
      </trkpt>
      <trkpt lat="47.45947" lon="6.72376">
        <ele>438</ele>
        <time>2016-07-24T07:39:50.000Z</time>
      </trkpt>
      <trkpt lat="47.45946" lon="6.72372">
        <ele>438</ele>
        <time>2016-07-24T07:39:51.000Z</time>
      </trkpt>
      <trkpt lat="47.45945" lon="6.72368">
        <ele>438</ele>
        <time>2016-07-24T07:39:52.000Z</time>
      </trkpt>
      <trkpt lat="47.45944" lon="6.72364">
        <ele>438</ele>
        <time>2016-07-24T07:39:53.000Z</time>
      </trkpt>
      <trkpt lat="47.45944" lon="6.7236">
        <ele>438</ele>
        <time>2016-07-24T07:39:54.000Z</time>
      </trkpt>
      <trkpt lat="47.45943" lon="6.72356">
        <ele>438</ele>
        <time>2016-07-24T07:39:55.000Z</time>
      </trkpt>
      <trkpt lat="47.45943" lon="6.72352">
        <ele>438</ele>
        <time>2016-07-24T07:39:56.000Z</time>
      </trkpt>
      <trkpt lat="47.45943" lon="6.72347">
        <ele>438</ele>
        <time>2016-07-24T07:39:57.000Z</time>
      </trkpt>
      <trkpt lat="47.45944" lon="6.72343">
        <ele>438</ele>
        <time>2016-07-24T07:39:58.000Z</time>
      </trkpt>
      <trkpt lat="47.45945" lon="6.7234">
        <ele>438</ele>
        <time>2016-07-24T07:39:59.000Z</time>
      </trkpt>
      <trkpt lat="47.45946" lon="6.72337">
        <ele>438</ele>
        <time>2016-07-24T07:40:00.000Z</time>
      </trkpt>
      <trkpt lat="47.45948" lon="6.72332">
        <ele>437</ele>
        <time>2016-07-24T07:40:02.000Z</time>
      </trkpt>
      <trkpt lat="47.45949" lon="6.72327">
        <ele>437</ele>
        <time>2016-07-24T07:40:03.000Z</time>
      </trkpt>
      <trkpt lat="47.45949" lon="6.72322">
        <ele>437</ele>
        <time>2016-07-24T07:40:04.000Z</time>
      </trkpt>
      <trkpt lat="47.45948" lon="6.72316">
        <ele>437</ele>
        <time>2016-07-24T07:40:05.000Z</time>
      </trkpt>
      <trkpt lat="47.45946" lon="6.72311">
        <ele>437</ele>
        <time>2016-07-24T07:40:06.000Z</time>
      </trkpt>
      <trkpt lat="47.45944" lon="6.72306">
        <ele>437</ele>
        <time>2016-07-24T07:40:07.000Z</time>
      </trkpt>
      <trkpt lat="47.45942" lon="6.72302">
        <ele>437</ele>
        <time>2016-07-24T07:40:08.000Z</time>
      </trkpt>
      <trkpt lat="47.45941" lon="6.72299">
        <ele>437</ele>
        <time>2016-07-24T07:40:09.000Z</time>
      </trkpt>
      <trkpt lat="47.45939" lon="6.72296">
        <ele>437</ele>
        <time>2016-07-24T07:40:10.000Z</time>
      </trkpt>
      <trkpt lat="47.45937" lon="6.72294">
        <ele>437</ele>
        <time>2016-07-24T07:40:11.000Z</time>
      </trkpt>
      <trkpt lat="47.45936" lon="6.72292">
        <ele>437</ele>
        <time>2016-07-24T07:40:12.000Z</time>
      </trkpt>
      <trkpt lat="47.45932" lon="6.72291">
        <ele>438</ele>
        <time>2016-07-24T07:40:13.000Z</time>
      </trkpt>
      <trkpt lat="47.45928" lon="6.72291">
        <ele>438</ele>
        <time>2016-07-24T07:40:17.000Z</time>
      </trkpt>
      <trkpt lat="47.45927" lon="6.72291">
        <ele>438</ele>
        <time>2016-07-24T07:40:18.000Z</time>
      </trkpt>
      <trkpt lat="47.45931" lon="6.72291">
        <ele>438</ele>
        <time>2016-07-24T07:40:26.000Z</time>
      </trkpt>
      <trkpt lat="47.45933" lon="6.72292">
        <ele>438</ele>
        <time>2016-07-24T07:40:27.000Z</time>
      </trkpt>
      <trkpt lat="47.45937" lon="6.72293">
        <ele>437</ele>
        <time>2016-07-24T07:40:31.000Z</time>
      </trkpt>
      <trkpt lat="47.45937" lon="6.72293">
        <ele>437</ele>
        <time>2016-07-24T07:40:32.000Z</time>
      </trkpt>
      <trkpt lat="47.45939" lon="6.72289">
        <ele>437</ele>
        <time>2016-07-24T07:40:36.000Z</time>
      </trkpt>
      <trkpt lat="47.4594" lon="6.72288">
        <ele>437</ele>
        <time>2016-07-24T07:40:37.000Z</time>
      </trkpt>
      <trkpt lat="47.45943" lon="6.72289">
        <ele>437</ele>
        <time>2016-07-24T07:40:39.000Z</time>
      </trkpt>
      <trkpt lat="47.45945" lon="6.7229">
        <ele>437</ele>
        <time>2016-07-24T07:40:40.000Z</time>
      </trkpt>
      <trkpt lat="47.45949" lon="6.72291">
        <ele>437</ele>
        <time>2016-07-24T07:40:42.000Z</time>
      </trkpt>
      <trkpt lat="47.45951" lon="6.7229">
        <ele>437</ele>
        <time>2016-07-24T07:40:43.000Z</time>
      </trkpt>
      <trkpt lat="47.45955" lon="6.72288">
        <ele>437</ele>
        <time>2016-07-24T07:40:45.000Z</time>
      </trkpt>
      <trkpt lat="47.45956" lon="6.72288">
        <ele>437</ele>
        <time>2016-07-24T07:40:46.000Z</time>
      </trkpt>
      <trkpt lat="47.45958" lon="6.72286">
        <ele>437</ele>
        <time>2016-07-24T07:40:47.000Z</time>
      </trkpt>
      <trkpt lat="47.45961" lon="6.72284">
        <ele>437</ele>
        <time>2016-07-24T07:40:48.000Z</time>
      </trkpt>
      <trkpt lat="47.45964" lon="6.72283">
        <ele>437</ele>
        <time>2016-07-24T07:40:49.000Z</time>
      </trkpt>
      <trkpt lat="47.45967" lon="6.72281">
        <ele>436</ele>
        <time>2016-07-24T07:40:50.000Z</time>
      </trkpt>
      <trkpt lat="47.4597" lon="6.72279">
        <ele>436</ele>
        <time>2016-07-24T07:40:51.000Z</time>
      </trkpt>
      <trkpt lat="47.45973" lon="6.72277">
        <ele>436</ele>
        <time>2016-07-24T07:40:52.000Z</time>
      </trkpt>
      <trkpt lat="47.45975" lon="6.72274">
        <ele>436</ele>
        <time>2016-07-24T07:40:53.000Z</time>
      </trkpt>
      <trkpt lat="47.45976" lon="6.7227">
        <ele>436</ele>
        <time>2016-07-24T07:40:54.000Z</time>
      </trkpt>
      <trkpt lat="47.45977" lon="6.72266">
        <ele>436</ele>
        <time>2016-07-24T07:40:55.000Z</time>
      </trkpt>
      <trkpt lat="47.45978" lon="6.7226">
        <ele>436</ele>
        <time>2016-07-24T07:40:56.000Z</time>
      </trkpt>
      <trkpt lat="47.45979" lon="6.72254">
        <ele>436</ele>
        <time>2016-07-24T07:40:57.000Z</time>
      </trkpt>
      <trkpt lat="47.4598" lon="6.72247">
        <ele>436</ele>
        <time>2016-07-24T07:40:58.000Z</time>
      </trkpt>
      <trkpt lat="47.4598" lon="6.72242">
        <ele>436</ele>
        <time>2016-07-24T07:40:59.000Z</time>
      </trkpt>
      <trkpt lat="47.45981" lon="6.72236">
        <ele>436</ele>
        <time>2016-07-24T07:41:00.000Z</time>
      </trkpt>
      <trkpt lat="47.45981" lon="6.7223">
        <ele>436</ele>
        <time>2016-07-24T07:41:01.000Z</time>
      </trkpt>
      <trkpt lat="47.45982" lon="6.72225">
        <ele>436</ele>
        <time>2016-07-24T07:41:02.000Z</time>
      </trkpt>
      <trkpt lat="47.45983" lon="6.72219">
        <ele>436</ele>
        <time>2016-07-24T07:41:03.000Z</time>
      </trkpt>
      <trkpt lat="47.45983" lon="6.72214">
        <ele>436</ele>
        <time>2016-07-24T07:41:04.000Z</time>
      </trkpt>
      <trkpt lat="47.45984" lon="6.72209">
        <ele>436</ele>
        <time>2016-07-24T07:41:05.000Z</time>
      </trkpt>
      <trkpt lat="47.45984" lon="6.72204">
        <ele>436</ele>
        <time>2016-07-24T07:41:06.000Z</time>
      </trkpt>
      <trkpt lat="47.45984" lon="6.72198">
        <ele>436</ele>
        <time>2016-07-24T07:41:07.000Z</time>
      </trkpt>
      <trkpt lat="47.45983" lon="6.72193">
        <ele>436</ele>
        <time>2016-07-24T07:41:08.000Z</time>
      </trkpt>
      <trkpt lat="47.45983" lon="6.72187">
        <ele>436</ele>
        <time>2016-07-24T07:41:09.000Z</time>
      </trkpt>
      <trkpt lat="47.45982" lon="6.72181">
        <ele>436</ele>
        <time>2016-07-24T07:41:10.000Z</time>
      </trkpt>
      <trkpt lat="47.45981" lon="6.72177">
        <ele>436</ele>
        <time>2016-07-24T07:41:11.000Z</time>
      </trkpt>
      <trkpt lat="47.4598" lon="6.72166">
        <ele>436</ele>
        <time>2016-07-24T07:41:12.000Z</time>
      </trkpt>
      <trkpt lat="47.4598" lon="6.72161">
        <ele>436</ele>
        <time>2016-07-24T07:41:13.000Z</time>
      </trkpt>
      <trkpt lat="47.4598" lon="6.72158">
        <ele>436</ele>
        <time>2016-07-24T07:41:14.000Z</time>
      </trkpt>
      <trkpt lat="47.4598" lon="6.72152">
        <ele>436</ele>
        <time>2016-07-24T07:41:18.000Z</time>
      </trkpt>
      <trkpt lat="47.4598" lon="6.72151">
        <ele>436</ele>
        <time>2016-07-24T07:41:19.000Z</time>
      </trkpt>
      <trkpt lat="47.4598" lon="6.72145">
        <ele>436</ele>
        <time>2016-07-24T07:41:23.000Z</time>
      </trkpt>
      <trkpt lat="47.45979" lon="6.72143">
        <ele>436</ele>
        <time>2016-07-24T07:41:24.000Z</time>
      </trkpt>
      <trkpt lat="47.45976" lon="6.7214">
        <ele>436</ele>
        <time>2016-07-24T07:41:29.000Z</time>
      </trkpt>
      <trkpt lat="47.45976" lon="6.72139">
        <ele>436</ele>
        <time>2016-07-24T07:41:30.000Z</time>
      </trkpt>
      <trkpt lat="47.45976" lon="6.72133">
        <ele>436</ele>
        <time>2016-07-24T07:41:33.000Z</time>
      </trkpt>
      <trkpt lat="47.45976" lon="6.72131">
        <ele>436</ele>
        <time>2016-07-24T07:41:34.000Z</time>
      </trkpt>
      <trkpt lat="47.45975" lon="6.72124">
        <ele>436</ele>
        <time>2016-07-24T07:41:36.000Z</time>
      </trkpt>
      <trkpt lat="47.45975" lon="6.72121">
        <ele>436</ele>
        <time>2016-07-24T07:41:37.000Z</time>
      </trkpt>
      <trkpt lat="47.45974" lon="6.72115">
        <ele>436</ele>
        <time>2016-07-24T07:41:39.000Z</time>
      </trkpt>
      <trkpt lat="47.45974" lon="6.72112">
        <ele>436</ele>
        <time>2016-07-24T07:41:40.000Z</time>
      </trkpt>
      <trkpt lat="47.45975" lon="6.72108">
        <ele>436</ele>
        <time>2016-07-24T07:41:41.000Z</time>
      </trkpt>
      <trkpt lat="47.45975" lon="6.72104">
        <ele>436</ele>
        <time>2016-07-24T07:41:42.000Z</time>
      </trkpt>
      <trkpt lat="47.45975" lon="6.721">
        <ele>436</ele>
        <time>2016-07-24T07:41:43.000Z</time>
      </trkpt>
      <trkpt lat="47.45975" lon="6.72096">
        <ele>436</ele>
        <time>2016-07-24T07:41:44.000Z</time>
      </trkpt>
      <trkpt lat="47.45975" lon="6.72092">
        <ele>436</ele>
        <time>2016-07-24T07:41:45.000Z</time>
      </trkpt>
      <trkpt lat="47.45974" lon="6.72087">
        <ele>436</ele>
        <time>2016-07-24T07:41:46.000Z</time>
      </trkpt>
      <trkpt lat="47.45974" lon="6.72082">
        <ele>435</ele>
        <time>2016-07-24T07:41:47.000Z</time>
      </trkpt>
      <trkpt lat="47.45974" lon="6.72076">
        <ele>435</ele>
        <time>2016-07-24T07:41:48.000Z</time>
      </trkpt>
      <trkpt lat="47.45974" lon="6.72071">
        <ele>435</ele>
        <time>2016-07-24T07:41:49.000Z</time>
      </trkpt>
      <trkpt lat="47.45974" lon="6.72068">
        <ele>435</ele>
        <time>2016-07-24T07:41:50.000Z</time>
      </trkpt>
      <trkpt lat="47.45974" lon="6.72062">
        <ele>435</ele>
        <time>2016-07-24T07:41:52.000Z</time>
      </trkpt>
      <trkpt lat="47.45974" lon="6.72059">
        <ele>435</ele>
        <time>2016-07-24T07:41:53.000Z</time>
      </trkpt>
      <trkpt lat="47.45973" lon="6.72052">
        <ele>435</ele>
        <time>2016-07-24T07:41:55.000Z</time>
      </trkpt>
      <trkpt lat="47.45973" lon="6.72049">
        <ele>435</ele>
        <time>2016-07-24T07:41:56.000Z</time>
      </trkpt>
      <trkpt lat="47.45973" lon="6.72045">
        <ele>435</ele>
        <time>2016-07-24T07:41:57.000Z</time>
      </trkpt>
      <trkpt lat="47.45973" lon="6.72042">
        <ele>435</ele>
        <time>2016-07-24T07:41:58.000Z</time>
      </trkpt>
      <trkpt lat="47.45971" lon="6.72038">
        <ele>435</ele>
        <time>2016-07-24T07:41:59.000Z</time>
      </trkpt>
      <trkpt lat="47.45969" lon="6.72034">
        <ele>436</ele>
        <time>2016-07-24T07:42:00.000Z</time>
      </trkpt>
      <trkpt lat="47.45967" lon="6.7203">
        <ele>436</ele>
        <time>2016-07-24T07:42:01.000Z</time>
      </trkpt>
      <trkpt lat="47.45966" lon="6.72026">
        <ele>436</ele>
        <time>2016-07-24T07:42:02.000Z</time>
      </trkpt>
      <trkpt lat="47.45965" lon="6.72023">
        <ele>436</ele>
        <time>2016-07-24T07:42:03.000Z</time>
      </trkpt>
      <trkpt lat="47.45964" lon="6.7202">
        <ele>436</ele>
        <time>2016-07-24T07:42:04.000Z</time>
      </trkpt>
      <trkpt lat="47.45962" lon="6.72015">
        <ele>436</ele>
        <time>2016-07-24T07:42:06.000Z</time>
      </trkpt>
      <trkpt lat="47.45961" lon="6.72013">
        <ele>436</ele>
        <time>2016-07-24T07:42:07.000Z</time>
      </trkpt>
      <trkpt lat="47.4596" lon="6.72007">
        <ele>436</ele>
        <time>2016-07-24T07:42:09.000Z</time>
      </trkpt>
      <trkpt lat="47.45959" lon="6.72004">
        <ele>436</ele>
        <time>2016-07-24T07:42:10.000Z</time>
      </trkpt>
      <trkpt lat="47.45959" lon="6.72001">
        <ele>436</ele>
        <time>2016-07-24T07:42:11.000Z</time>
      </trkpt>
      <trkpt lat="47.45959" lon="6.71997">
        <ele>434</ele>
        <time>2016-07-24T07:42:12.000Z</time>
      </trkpt>
      <trkpt lat="47.45959" lon="6.71993">
        <ele>434</ele>
        <time>2016-07-24T07:42:13.000Z</time>
      </trkpt>
      <trkpt lat="47.45959" lon="6.7199">
        <ele>434</ele>
        <time>2016-07-24T07:42:14.000Z</time>
      </trkpt>
      <trkpt lat="47.45958" lon="6.71986">
        <ele>434</ele>
        <time>2016-07-24T07:42:15.000Z</time>
      </trkpt>
      <trkpt lat="47.45958" lon="6.71983">
        <ele>434</ele>
        <time>2016-07-24T07:42:16.000Z</time>
      </trkpt>
      <trkpt lat="47.45958" lon="6.71979">
        <ele>434</ele>
        <time>2016-07-24T07:42:17.000Z</time>
      </trkpt>
      <trkpt lat="47.45957" lon="6.71974">
        <ele>434</ele>
        <time>2016-07-24T07:42:18.000Z</time>
      </trkpt>
      <trkpt lat="47.45957" lon="6.7197">
        <ele>434</ele>
        <time>2016-07-24T07:42:19.000Z</time>
      </trkpt>
      <trkpt lat="47.45958" lon="6.71965">
        <ele>434</ele>
        <time>2016-07-24T07:42:20.000Z</time>
      </trkpt>
      <trkpt lat="47.45958" lon="6.71959">
        <ele>434</ele>
        <time>2016-07-24T07:42:21.000Z</time>
      </trkpt>
      <trkpt lat="47.45958" lon="6.71953">
        <ele>434</ele>
        <time>2016-07-24T07:42:22.000Z</time>
      </trkpt>
      <trkpt lat="47.45958" lon="6.71947">
        <ele>434</ele>
        <time>2016-07-24T07:42:23.000Z</time>
      </trkpt>
      <trkpt lat="47.45958" lon="6.71942">
        <ele>433</ele>
        <time>2016-07-24T07:42:24.000Z</time>
      </trkpt>
      <trkpt lat="47.45959" lon="6.71937">
        <ele>433</ele>
        <time>2016-07-24T07:42:25.000Z</time>
      </trkpt>
      <trkpt lat="47.4596" lon="6.71932">
        <ele>433</ele>
        <time>2016-07-24T07:42:26.000Z</time>
      </trkpt>
      <trkpt lat="47.45961" lon="6.71927">
        <ele>433</ele>
        <time>2016-07-24T07:42:27.000Z</time>
      </trkpt>
      <trkpt lat="47.45963" lon="6.71922">
        <ele>432</ele>
        <time>2016-07-24T07:42:28.000Z</time>
      </trkpt>
      <trkpt lat="47.45964" lon="6.71916">
        <ele>429</ele>
        <time>2016-07-24T07:42:29.000Z</time>
      </trkpt>
      <trkpt lat="47.45964" lon="6.7191">
        <ele>429</ele>
        <time>2016-07-24T07:42:30.000Z</time>
      </trkpt>
      <trkpt lat="47.45965" lon="6.71904">
        <ele>429</ele>
        <time>2016-07-24T07:42:31.000Z</time>
      </trkpt>
      <trkpt lat="47.45965" lon="6.71896">
        <ele>429</ele>
        <time>2016-07-24T07:42:32.000Z</time>
      </trkpt>
      <trkpt lat="47.45965" lon="6.71889">
        <ele>429</ele>
        <time>2016-07-24T07:42:33.000Z</time>
      </trkpt>
      <trkpt lat="47.45964" lon="6.71882">
        <ele>429</ele>
        <time>2016-07-24T07:42:34.000Z</time>
      </trkpt>
      <trkpt lat="47.45964" lon="6.71875">
        <ele>429</ele>
        <time>2016-07-24T07:42:35.000Z</time>
      </trkpt>
      <trkpt lat="47.45964" lon="6.71869">
        <ele>429</ele>
        <time>2016-07-24T07:42:36.000Z</time>
      </trkpt>
      <trkpt lat="47.45963" lon="6.71863">
        <ele>428</ele>
        <time>2016-07-24T07:42:37.000Z</time>
      </trkpt>
      <trkpt lat="47.45963" lon="6.71858">
        <ele>428</ele>
        <time>2016-07-24T07:42:38.000Z</time>
      </trkpt>
      <trkpt lat="47.45962" lon="6.71852">
        <ele>428</ele>
        <time>2016-07-24T07:42:39.000Z</time>
      </trkpt>
      <trkpt lat="47.45962" lon="6.71847">
        <ele>428</ele>
        <time>2016-07-24T07:42:40.000Z</time>
      </trkpt>
      <trkpt lat="47.45962" lon="6.71842">
        <ele>428</ele>
        <time>2016-07-24T07:42:41.000Z</time>
      </trkpt>
      <trkpt lat="47.45961" lon="6.71837">
        <ele>428</ele>
        <time>2016-07-24T07:42:42.000Z</time>
      </trkpt>
      <trkpt lat="47.45961" lon="6.71832">
        <ele>426</ele>
        <time>2016-07-24T07:42:43.000Z</time>
      </trkpt>
      <trkpt lat="47.4596" lon="6.71826">
        <ele>426</ele>
        <time>2016-07-24T07:42:44.000Z</time>
      </trkpt>
      <trkpt lat="47.4596" lon="6.7182">
        <ele>426</ele>
        <time>2016-07-24T07:42:45.000Z</time>
      </trkpt>
      <trkpt lat="47.4596" lon="6.71815">
        <ele>426</ele>
        <time>2016-07-24T07:42:46.000Z</time>
      </trkpt>
      <trkpt lat="47.4596" lon="6.7181">
        <ele>426</ele>
        <time>2016-07-24T07:42:47.000Z</time>
      </trkpt>
      <trkpt lat="47.45961" lon="6.71804">
        <ele>426</ele>
        <time>2016-07-24T07:42:48.000Z</time>
      </trkpt>
      <trkpt lat="47.45961" lon="6.71797">
        <ele>426</ele>
        <time>2016-07-24T07:42:49.000Z</time>
      </trkpt>
      <trkpt lat="47.4596" lon="6.7179">
        <ele>426</ele>
        <time>2016-07-24T07:42:50.000Z</time>
      </trkpt>
      <trkpt lat="47.45959" lon="6.71784">
        <ele>426</ele>
        <time>2016-07-24T07:42:51.000Z</time>
      </trkpt>
      <trkpt lat="47.45958" lon="6.71777">
        <ele>426</ele>
        <time>2016-07-24T07:42:52.000Z</time>
      </trkpt>
      <trkpt lat="47.45957" lon="6.71772">
        <ele>426</ele>
        <time>2016-07-24T07:42:53.000Z</time>
      </trkpt>
      <trkpt lat="47.45956" lon="6.71766">
        <ele>426</ele>
        <time>2016-07-24T07:42:54.000Z</time>
      </trkpt>
      <trkpt lat="47.45955" lon="6.71761">
        <ele>426</ele>
        <time>2016-07-24T07:42:55.000Z</time>
      </trkpt>
      <trkpt lat="47.45954" lon="6.71757">
        <ele>426</ele>
        <time>2016-07-24T07:42:56.000Z</time>
      </trkpt>
      <trkpt lat="47.45953" lon="6.71753">
        <ele>426</ele>
        <time>2016-07-24T07:42:57.000Z</time>
      </trkpt>
      <trkpt lat="47.45951" lon="6.71748">
        <ele>424</ele>
        <time>2016-07-24T07:42:59.000Z</time>
      </trkpt>
      <trkpt lat="47.45951" lon="6.71746">
        <ele>424</ele>
        <time>2016-07-24T07:43:00.000Z</time>
      </trkpt>
      <trkpt lat="47.45947" lon="6.71743">
        <ele>425</ele>
        <time>2016-07-24T07:43:03.000Z</time>
      </trkpt>
      <trkpt lat="47.45947" lon="6.71742">
        <ele>425</ele>
        <time>2016-07-24T07:43:04.000Z</time>
      </trkpt>
      <trkpt lat="47.45945" lon="6.71738">
        <ele>425</ele>
        <time>2016-07-24T07:43:06.000Z</time>
      </trkpt>
      <trkpt lat="47.45944" lon="6.71736">
        <ele>425</ele>
        <time>2016-07-24T07:43:07.000Z</time>
      </trkpt>
      <trkpt lat="47.45942" lon="6.71731">
        <ele>425</ele>
        <time>2016-07-24T07:45:22.000Z</time>
      </trkpt>
      <trkpt lat="47.45942" lon="6.71729">
        <ele>425</ele>
        <time>2016-07-24T07:45:23.000Z</time>
      </trkpt>
      <trkpt lat="47.45943" lon="6.71725">
        <ele>425</ele>
        <time>2016-07-24T07:45:25.000Z</time>
      </trkpt>
      <trkpt lat="47.45944" lon="6.71722">
        <ele>424</ele>
        <time>2016-07-24T07:45:26.000Z</time>
      </trkpt>
      <trkpt lat="47.45945" lon="6.71718">
        <ele>424</ele>
        <time>2016-07-24T07:45:27.000Z</time>
      </trkpt>
      <trkpt lat="47.45945" lon="6.71713">
        <ele>424</ele>
        <time>2016-07-24T07:45:28.000Z</time>
      </trkpt>
      <trkpt lat="47.45945" lon="6.71708">
        <ele>424</ele>
        <time>2016-07-24T07:45:29.000Z</time>
      </trkpt>
      <trkpt lat="47.45945" lon="6.71703">
        <ele>423</ele>
        <time>2016-07-24T07:45:30.000Z</time>
      </trkpt>
      <trkpt lat="47.45944" lon="6.71696">
        <ele>423</ele>
        <time>2016-07-24T07:45:31.000Z</time>
      </trkpt>
      <trkpt lat="47.45944" lon="6.71689">
        <ele>423</ele>
        <time>2016-07-24T07:45:32.000Z</time>
      </trkpt>
      <trkpt lat="47.45943" lon="6.71681">
        <ele>423</ele>
        <time>2016-07-24T07:45:33.000Z</time>
      </trkpt>
      <trkpt lat="47.45942" lon="6.71673">
        <ele>423</ele>
        <time>2016-07-24T07:45:34.000Z</time>
      </trkpt>
      <trkpt lat="47.45941" lon="6.71666">
        <ele>420</ele>
        <time>2016-07-24T07:45:35.000Z</time>
      </trkpt>
      <trkpt lat="47.45941" lon="6.71659">
        <ele>420</ele>
        <time>2016-07-24T07:45:36.000Z</time>
      </trkpt>
      <trkpt lat="47.4594" lon="6.71652">
        <ele>419</ele>
        <time>2016-07-24T07:45:37.000Z</time>
      </trkpt>
      <trkpt lat="47.45939" lon="6.71646">
        <ele>419</ele>
        <time>2016-07-24T07:45:38.000Z</time>
      </trkpt>
      <trkpt lat="47.45938" lon="6.71639">
        <ele>418</ele>
        <time>2016-07-24T07:45:39.000Z</time>
      </trkpt>
      <trkpt lat="47.45937" lon="6.71633">
        <ele>418</ele>
        <time>2016-07-24T07:45:40.000Z</time>
      </trkpt>
      <trkpt lat="47.45936" lon="6.71627">
        <ele>417</ele>
        <time>2016-07-24T07:45:41.000Z</time>
      </trkpt>
      <trkpt lat="47.45935" lon="6.71621">
        <ele>417</ele>
        <time>2016-07-24T07:45:42.000Z</time>
      </trkpt>
      <trkpt lat="47.45935" lon="6.71614">
        <ele>417</ele>
        <time>2016-07-24T07:45:43.000Z</time>
      </trkpt>
      <trkpt lat="47.45933" lon="6.71607">
        <ele>416</ele>
        <time>2016-07-24T07:45:44.000Z</time>
      </trkpt>
      <trkpt lat="47.45929" lon="6.71602">
        <ele>416</ele>
        <time>2016-07-24T07:45:45.000Z</time>
      </trkpt>
      <trkpt lat="47.45924" lon="6.71599">
        <ele>416</ele>
        <time>2016-07-24T07:45:46.000Z</time>
      </trkpt>
      <trkpt lat="47.45918" lon="6.71598">
        <ele>416</ele>
        <time>2016-07-24T07:45:47.000Z</time>
      </trkpt>
      <trkpt lat="47.45913" lon="6.71598">
        <ele>419</ele>
        <time>2016-07-24T07:45:48.000Z</time>
      </trkpt>
      <trkpt lat="47.45909" lon="6.71598">
        <ele>419</ele>
        <time>2016-07-24T07:45:49.000Z</time>
      </trkpt>
      <trkpt lat="47.45905" lon="6.71598">
        <ele>420</ele>
        <time>2016-07-24T07:45:50.000Z</time>
      </trkpt>
      <trkpt lat="47.459" lon="6.71598">
        <ele>420</ele>
        <time>2016-07-24T07:45:51.000Z</time>
      </trkpt>
      <trkpt lat="47.45896" lon="6.71599">
        <ele>420</ele>
        <time>2016-07-24T07:45:52.000Z</time>
      </trkpt>
      <trkpt lat="47.45892" lon="6.71598">
        <ele>421</ele>
        <time>2016-07-24T07:45:53.000Z</time>
      </trkpt>
      <trkpt lat="47.45888" lon="6.71598">
        <ele>421</ele>
        <time>2016-07-24T07:45:54.000Z</time>
      </trkpt>
      <trkpt lat="47.45885" lon="6.71596">
        <ele>421</ele>
        <time>2016-07-24T07:45:55.000Z</time>
      </trkpt>
      <trkpt lat="47.45882" lon="6.71595">
        <ele>421</ele>
        <time>2016-07-24T07:45:56.000Z</time>
      </trkpt>
      <trkpt lat="47.45878" lon="6.71593">
        <ele>421</ele>
        <time>2016-07-24T07:45:57.000Z</time>
      </trkpt>
      <trkpt lat="47.45875" lon="6.71593">
        <ele>421</ele>
        <time>2016-07-24T07:45:58.000Z</time>
      </trkpt>
      <trkpt lat="47.45872" lon="6.71593">
        <ele>421</ele>
        <time>2016-07-24T07:45:59.000Z</time>
      </trkpt>
      <trkpt lat="47.45868" lon="6.71593">
        <ele>421</ele>
        <time>2016-07-24T07:46:00.000Z</time>
      </trkpt>
      <trkpt lat="47.45865" lon="6.71595">
        <ele>421</ele>
        <time>2016-07-24T07:46:01.000Z</time>
      </trkpt>
      <trkpt lat="47.45861" lon="6.71596">
        <ele>421</ele>
        <time>2016-07-24T07:46:02.000Z</time>
      </trkpt>
      <trkpt lat="47.45857" lon="6.71598">
        <ele>421</ele>
        <time>2016-07-24T07:46:03.000Z</time>
      </trkpt>
      <trkpt lat="47.45854" lon="6.71599">
        <ele>421</ele>
        <time>2016-07-24T07:46:04.000Z</time>
      </trkpt>
      <trkpt lat="47.4585" lon="6.71599">
        <ele>421</ele>
        <time>2016-07-24T07:46:05.000Z</time>
      </trkpt>
      <trkpt lat="47.45846" lon="6.716">
        <ele>421</ele>
        <time>2016-07-24T07:46:06.000Z</time>
      </trkpt>
      <trkpt lat="47.45842" lon="6.71601">
        <ele>421</ele>
        <time>2016-07-24T07:46:07.000Z</time>
      </trkpt>
      <trkpt lat="47.45839" lon="6.71602">
        <ele>421</ele>
        <time>2016-07-24T07:46:08.000Z</time>
      </trkpt>
      <trkpt lat="47.45836" lon="6.71603">
        <ele>421</ele>
        <time>2016-07-24T07:46:09.000Z</time>
      </trkpt>
      <trkpt lat="47.45832" lon="6.71604">
        <ele>422</ele>
        <time>2016-07-24T07:46:10.000Z</time>
      </trkpt>
      <trkpt lat="47.45829" lon="6.71605">
        <ele>422</ele>
        <time>2016-07-24T07:46:11.000Z</time>
      </trkpt>
      <trkpt lat="47.45825" lon="6.71607">
        <ele>422</ele>
        <time>2016-07-24T07:46:12.000Z</time>
      </trkpt>
      <trkpt lat="47.45822" lon="6.71607">
        <ele>422</ele>
        <time>2016-07-24T07:46:13.000Z</time>
      </trkpt>
      <trkpt lat="47.45819" lon="6.71607">
        <ele>422</ele>
        <time>2016-07-24T07:46:14.000Z</time>
      </trkpt>
      <trkpt lat="47.45816" lon="6.71607">
        <ele>422</ele>
        <time>2016-07-24T07:46:15.000Z</time>
      </trkpt>
      <trkpt lat="47.45813" lon="6.71607">
        <ele>422</ele>
        <time>2016-07-24T07:46:16.000Z</time>
      </trkpt>
      <trkpt lat="47.45811" lon="6.71607">
        <ele>422</ele>
        <time>2016-07-24T07:46:17.000Z</time>
      </trkpt>
      <trkpt lat="47.45808" lon="6.71608">
        <ele>422</ele>
        <time>2016-07-24T07:46:18.000Z</time>
      </trkpt>
      <trkpt lat="47.45804" lon="6.71609">
        <ele>422</ele>
        <time>2016-07-24T07:46:19.000Z</time>
      </trkpt>
      <trkpt lat="47.45801" lon="6.7161">
        <ele>422</ele>
        <time>2016-07-24T07:46:20.000Z</time>
      </trkpt>
      <trkpt lat="47.45797" lon="6.7161">
        <ele>422</ele>
        <time>2016-07-24T07:46:21.000Z</time>
      </trkpt>
      <trkpt lat="47.45794" lon="6.71609">
        <ele>422</ele>
        <time>2016-07-24T07:46:22.000Z</time>
      </trkpt>
      <trkpt lat="47.45791" lon="6.71609">
        <ele>422</ele>
        <time>2016-07-24T07:46:23.000Z</time>
      </trkpt>
      <trkpt lat="47.45788" lon="6.71609">
        <ele>422</ele>
        <time>2016-07-24T07:46:24.000Z</time>
      </trkpt>
      <trkpt lat="47.45785" lon="6.71611">
        <ele>422</ele>
        <time>2016-07-24T07:46:25.000Z</time>
      </trkpt>
      <trkpt lat="47.45782" lon="6.71614">
        <ele>422</ele>
        <time>2016-07-24T07:46:26.000Z</time>
      </trkpt>
      <trkpt lat="47.45778" lon="6.71617">
        <ele>422</ele>
        <time>2016-07-24T07:46:27.000Z</time>
      </trkpt>
      <trkpt lat="47.45775" lon="6.7162">
        <ele>422</ele>
        <time>2016-07-24T07:46:28.000Z</time>
      </trkpt>
      <trkpt lat="47.45772" lon="6.71622">
        <ele>422</ele>
        <time>2016-07-24T07:46:29.000Z</time>
      </trkpt>
      <trkpt lat="47.45769" lon="6.71625">
        <ele>423</ele>
        <time>2016-07-24T07:46:30.000Z</time>
      </trkpt>
      <trkpt lat="47.45765" lon="6.71629">
        <ele>423</ele>
        <time>2016-07-24T07:46:31.000Z</time>
      </trkpt>
      <trkpt lat="47.45761" lon="6.71631">
        <ele>423</ele>
        <time>2016-07-24T07:46:32.000Z</time>
      </trkpt>
      <trkpt lat="47.45758" lon="6.71633">
        <ele>423</ele>
        <time>2016-07-24T07:46:33.000Z</time>
      </trkpt>
      <trkpt lat="47.45754" lon="6.71635">
        <ele>423</ele>
        <time>2016-07-24T07:46:34.000Z</time>
      </trkpt>
      <trkpt lat="47.45751" lon="6.71636">
        <ele>423</ele>
        <time>2016-07-24T07:46:35.000Z</time>
      </trkpt>
      <trkpt lat="47.45748" lon="6.71638">
        <ele>422</ele>
        <time>2016-07-24T07:46:36.000Z</time>
      </trkpt>
      <trkpt lat="47.45744" lon="6.71641">
        <ele>422</ele>
        <time>2016-07-24T07:46:37.000Z</time>
      </trkpt>
      <trkpt lat="47.45741" lon="6.71644">
        <ele>423</ele>
        <time>2016-07-24T07:46:38.000Z</time>
      </trkpt>
      <trkpt lat="47.45738" lon="6.71646">
        <ele>423</ele>
        <time>2016-07-24T07:46:39.000Z</time>
      </trkpt>
      <trkpt lat="47.45735" lon="6.71648">
        <ele>423</ele>
        <time>2016-07-24T07:46:40.000Z</time>
      </trkpt>
      <trkpt lat="47.45731" lon="6.7165">
        <ele>423</ele>
        <time>2016-07-24T07:46:41.000Z</time>
      </trkpt>
      <trkpt lat="47.45728" lon="6.71652">
        <ele>423</ele>
        <time>2016-07-24T07:46:42.000Z</time>
      </trkpt>
      <trkpt lat="47.45725" lon="6.71654">
        <ele>423</ele>
        <time>2016-07-24T07:46:43.000Z</time>
      </trkpt>
      <trkpt lat="47.45723" lon="6.71656">
        <ele>423</ele>
        <time>2016-07-24T07:46:44.000Z</time>
      </trkpt>
      <trkpt lat="47.4572" lon="6.71659">
        <ele>423</ele>
        <time>2016-07-24T07:46:45.000Z</time>
      </trkpt>
      <trkpt lat="47.45717" lon="6.71661">
        <ele>423</ele>
        <time>2016-07-24T07:46:46.000Z</time>
      </trkpt>
      <trkpt lat="47.45714" lon="6.71663">
        <ele>423</ele>
        <time>2016-07-24T07:46:47.000Z</time>
      </trkpt>
      <trkpt lat="47.45711" lon="6.71665">
        <ele>423</ele>
        <time>2016-07-24T07:46:48.000Z</time>
      </trkpt>
      <trkpt lat="47.45707" lon="6.71668">
        <ele>426</ele>
        <time>2016-07-24T07:46:49.000Z</time>
      </trkpt>
      <trkpt lat="47.45703" lon="6.7167">
        <ele>426</ele>
        <time>2016-07-24T07:46:50.000Z</time>
      </trkpt>
      <trkpt lat="47.45699" lon="6.71673">
        <ele>426</ele>
        <time>2016-07-24T07:46:51.000Z</time>
      </trkpt>
      <trkpt lat="47.45695" lon="6.71675">
        <ele>426</ele>
        <time>2016-07-24T07:46:52.000Z</time>
      </trkpt>
      <trkpt lat="47.45692" lon="6.71678">
        <ele>426</ele>
        <time>2016-07-24T07:46:53.000Z</time>
      </trkpt>
      <trkpt lat="47.45689" lon="6.7168">
        <ele>426</ele>
        <time>2016-07-24T07:46:54.000Z</time>
      </trkpt>
      <trkpt lat="47.45686" lon="6.71682">
        <ele>426</ele>
        <time>2016-07-24T07:46:55.000Z</time>
      </trkpt>
      <trkpt lat="47.45683" lon="6.71684">
        <ele>426</ele>
        <time>2016-07-24T07:46:56.000Z</time>
      </trkpt>
      <trkpt lat="47.4568" lon="6.71685">
        <ele>426</ele>
        <time>2016-07-24T07:46:57.000Z</time>
      </trkpt>
      <trkpt lat="47.45678" lon="6.71687">
        <ele>426</ele>
        <time>2016-07-24T07:46:58.000Z</time>
      </trkpt>
      <trkpt lat="47.45675" lon="6.71689">
        <ele>426</ele>
        <time>2016-07-24T07:46:59.000Z</time>
      </trkpt>
      <trkpt lat="47.45672" lon="6.71692">
        <ele>426</ele>
        <time>2016-07-24T07:47:00.000Z</time>
      </trkpt>
      <trkpt lat="47.45669" lon="6.71694">
        <ele>426</ele>
        <time>2016-07-24T07:47:01.000Z</time>
      </trkpt>
      <trkpt lat="47.45667" lon="6.71696">
        <ele>426</ele>
        <time>2016-07-24T07:47:02.000Z</time>
      </trkpt>
      <trkpt lat="47.45665" lon="6.71698">
        <ele>425</ele>
        <time>2016-07-24T07:47:03.000Z</time>
      </trkpt>
      <trkpt lat="47.45662" lon="6.71701">
        <ele>425</ele>
        <time>2016-07-24T07:47:05.000Z</time>
      </trkpt>
      <trkpt lat="47.4566" lon="6.71702">
        <ele>425</ele>
        <time>2016-07-24T07:47:06.000Z</time>
      </trkpt>
      <trkpt lat="47.45657" lon="6.71705">
        <ele>425</ele>
        <time>2016-07-24T07:47:08.000Z</time>
      </trkpt>
      <trkpt lat="47.45653" lon="6.71707">
        <ele>425</ele>
        <time>2016-07-24T07:47:09.000Z</time>
      </trkpt>
      <trkpt lat="47.45648" lon="6.71711">
        <ele>426</ele>
        <time>2016-07-24T07:47:10.000Z</time>
      </trkpt>
      <trkpt lat="47.45643" lon="6.71715">
        <ele>426</ele>
        <time>2016-07-24T07:47:11.000Z</time>
      </trkpt>
      <trkpt lat="47.45638" lon="6.7172">
        <ele>426</ele>
        <time>2016-07-24T07:47:12.000Z</time>
      </trkpt>
      <trkpt lat="47.45634" lon="6.71724">
        <ele>426</ele>
        <time>2016-07-24T07:47:13.000Z</time>
      </trkpt>
      <trkpt lat="47.45629" lon="6.71729">
        <ele>426</ele>
        <time>2016-07-24T07:47:14.000Z</time>
      </trkpt>
      <trkpt lat="47.45624" lon="6.71733">
        <ele>426</ele>
        <time>2016-07-24T07:47:15.000Z</time>
      </trkpt>
      <trkpt lat="47.45619" lon="6.71736">
        <ele>426</ele>
        <time>2016-07-24T07:47:16.000Z</time>
      </trkpt>
      <trkpt lat="47.45614" lon="6.7174">
        <ele>426</ele>
        <time>2016-07-24T07:47:17.000Z</time>
      </trkpt>
      <trkpt lat="47.45609" lon="6.71743">
        <ele>425</ele>
        <time>2016-07-24T07:47:18.000Z</time>
      </trkpt>
      <trkpt lat="47.45604" lon="6.71745">
        <ele>425</ele>
        <time>2016-07-24T07:47:19.000Z</time>
      </trkpt>
      <trkpt lat="47.45599" lon="6.71748">
        <ele>425</ele>
        <time>2016-07-24T07:47:20.000Z</time>
      </trkpt>
      <trkpt lat="47.45581" lon="6.71756">
        <ele>426</ele>
        <time>2016-07-24T07:47:21.000Z</time>
      </trkpt>
      <trkpt lat="47.45569" lon="6.71761">
        <ele>426</ele>
        <time>2016-07-24T07:47:22.000Z</time>
      </trkpt>
      <trkpt lat="47.45563" lon="6.71764">
        <ele>427</ele>
        <time>2016-07-24T07:47:23.000Z</time>
      </trkpt>
      <trkpt lat="47.45556" lon="6.71778">
        <ele>427</ele>
        <time>2016-07-24T07:47:24.000Z</time>
      </trkpt>
      <trkpt lat="47.45552" lon="6.71778">
        <ele>427</ele>
        <time>2016-07-24T07:47:25.000Z</time>
      </trkpt>
      <trkpt lat="47.45548" lon="6.71779">
        <ele>427</ele>
        <time>2016-07-24T07:47:26.000Z</time>
      </trkpt>
      <trkpt lat="47.45543" lon="6.7178">
        <ele>427</ele>
        <time>2016-07-24T07:47:27.000Z</time>
      </trkpt>
      <trkpt lat="47.45539" lon="6.71781">
        <ele>427</ele>
        <time>2016-07-24T07:47:28.000Z</time>
      </trkpt>
      <trkpt lat="47.45535" lon="6.71781">
        <ele>427</ele>
        <time>2016-07-24T07:47:29.000Z</time>
      </trkpt>
      <trkpt lat="47.45532" lon="6.71777">
        <ele>427</ele>
        <time>2016-07-24T07:47:30.000Z</time>
      </trkpt>
      <trkpt lat="47.45526" lon="6.71777">
        <ele>428</ele>
        <time>2016-07-24T07:47:31.000Z</time>
      </trkpt>
      <trkpt lat="47.45522" lon="6.71773">
        <ele>428</ele>
        <time>2016-07-24T07:47:32.000Z</time>
      </trkpt>
      <trkpt lat="47.45522" lon="6.71769">
        <ele>428</ele>
        <time>2016-07-24T07:47:33.000Z</time>
      </trkpt>
      <trkpt lat="47.45522" lon="6.71764">
        <ele>428</ele>
        <time>2016-07-24T07:47:34.000Z</time>
      </trkpt>
      <trkpt lat="47.45521" lon="6.7176">
        <ele>428</ele>
        <time>2016-07-24T07:47:35.000Z</time>
      </trkpt>
      <trkpt lat="47.45522" lon="6.71756">
        <ele>428</ele>
        <time>2016-07-24T07:47:36.000Z</time>
      </trkpt>
      <trkpt lat="47.45522" lon="6.71752">
        <ele>428</ele>
        <time>2016-07-24T07:47:37.000Z</time>
      </trkpt>
      <trkpt lat="47.45521" lon="6.71748">
        <ele>428</ele>
        <time>2016-07-24T07:47:38.000Z</time>
      </trkpt>
      <trkpt lat="47.45521" lon="6.71744">
        <ele>428</ele>
        <time>2016-07-24T07:47:39.000Z</time>
      </trkpt>
      <trkpt lat="47.4552" lon="6.7174">
        <ele>428</ele>
        <time>2016-07-24T07:47:40.000Z</time>
      </trkpt>
      <trkpt lat="47.4552" lon="6.71736">
        <ele>428</ele>
        <time>2016-07-24T07:47:41.000Z</time>
      </trkpt>
      <trkpt lat="47.45519" lon="6.71732">
        <ele>428</ele>
        <time>2016-07-24T07:47:42.000Z</time>
      </trkpt>
      <trkpt lat="47.45518" lon="6.71728">
        <ele>428</ele>
        <time>2016-07-24T07:47:43.000Z</time>
      </trkpt>
      <trkpt lat="47.45517" lon="6.71723">
        <ele>428</ele>
        <time>2016-07-24T07:47:44.000Z</time>
      </trkpt>
      <trkpt lat="47.45516" lon="6.71718">
        <ele>428</ele>
        <time>2016-07-24T07:47:45.000Z</time>
      </trkpt>
      <trkpt lat="47.45514" lon="6.71712">
        <ele>428</ele>
        <time>2016-07-24T07:47:46.000Z</time>
      </trkpt>
      <trkpt lat="47.45514" lon="6.71708">
        <ele>428</ele>
        <time>2016-07-24T07:47:47.000Z</time>
      </trkpt>
      <trkpt lat="47.45515" lon="6.71701">
        <ele>429</ele>
        <time>2016-07-24T07:47:49.000Z</time>
      </trkpt>
      <trkpt lat="47.45516" lon="6.71699">
        <ele>429</ele>
        <time>2016-07-24T07:47:50.000Z</time>
      </trkpt>
      <trkpt lat="47.45518" lon="6.71694">
        <ele>429</ele>
        <time>2016-07-24T07:47:53.000Z</time>
      </trkpt>
      <trkpt lat="47.45518" lon="6.7169">
        <ele>429</ele>
        <time>2016-07-24T07:47:54.000Z</time>
      </trkpt>
      <trkpt lat="47.45518" lon="6.71685">
        <ele>429</ele>
        <time>2016-07-24T07:47:55.000Z</time>
      </trkpt>
      <trkpt lat="47.45517" lon="6.7168">
        <ele>429</ele>
        <time>2016-07-24T07:47:56.000Z</time>
      </trkpt>
      <trkpt lat="47.45516" lon="6.71675">
        <ele>429</ele>
        <time>2016-07-24T07:47:57.000Z</time>
      </trkpt>
      <trkpt lat="47.45516" lon="6.71671">
        <ele>429</ele>
        <time>2016-07-24T07:47:58.000Z</time>
      </trkpt>
      <trkpt lat="47.45515" lon="6.71667">
        <ele>430</ele>
        <time>2016-07-24T07:47:59.000Z</time>
      </trkpt>
      <trkpt lat="47.45515" lon="6.71663">
        <ele>429</ele>
        <time>2016-07-24T07:48:00.000Z</time>
      </trkpt>
      <trkpt lat="47.45516" lon="6.71659">
        <ele>429</ele>
        <time>2016-07-24T07:48:01.000Z</time>
      </trkpt>
      <trkpt lat="47.45517" lon="6.71655">
        <ele>429</ele>
        <time>2016-07-24T07:48:02.000Z</time>
      </trkpt>
      <trkpt lat="47.45519" lon="6.7165">
        <ele>429</ele>
        <time>2016-07-24T07:48:03.000Z</time>
      </trkpt>
      <trkpt lat="47.4552" lon="6.71644">
        <ele>429</ele>
        <time>2016-07-24T07:48:04.000Z</time>
      </trkpt>
      <trkpt lat="47.45521" lon="6.7163">
        <ele>428</ele>
        <time>2016-07-24T07:48:05.000Z</time>
      </trkpt>
      <trkpt lat="47.4552" lon="6.71619">
        <ele>428</ele>
        <time>2016-07-24T07:48:06.000Z</time>
      </trkpt>
      <trkpt lat="47.4552" lon="6.71612">
        <ele>428</ele>
        <time>2016-07-24T07:48:07.000Z</time>
      </trkpt>
      <trkpt lat="47.45519" lon="6.71603">
        <ele>428</ele>
        <time>2016-07-24T07:48:08.000Z</time>
      </trkpt>
      <trkpt lat="47.45516" lon="6.7159">
        <ele>429</ele>
        <time>2016-07-24T07:48:09.000Z</time>
      </trkpt>
      <trkpt lat="47.45511" lon="6.7158">
        <ele>428</ele>
        <time>2016-07-24T07:48:10.000Z</time>
      </trkpt>
      <trkpt lat="47.45508" lon="6.7157">
        <ele>427</ele>
        <time>2016-07-24T07:48:11.000Z</time>
      </trkpt>
      <trkpt lat="47.45506" lon="6.71562">
        <ele>427</ele>
        <time>2016-07-24T07:48:12.000Z</time>
      </trkpt>
      <trkpt lat="47.45505" lon="6.71556">
        <ele>426</ele>
        <time>2016-07-24T07:48:13.000Z</time>
      </trkpt>
      <trkpt lat="47.45503" lon="6.71554">
        <ele>426</ele>
        <time>2016-07-24T07:48:14.000Z</time>
      </trkpt>
      <trkpt lat="47.45502" lon="6.71549">
        <ele>426</ele>
        <time>2016-07-24T07:48:15.000Z</time>
      </trkpt>
      <trkpt lat="47.45501" lon="6.71544">
        <ele>426</ele>
        <time>2016-07-24T07:48:16.000Z</time>
      </trkpt>
      <trkpt lat="47.45499" lon="6.71542">
        <ele>432</ele>
        <time>2016-07-24T07:48:17.000Z</time>
      </trkpt>
      <trkpt lat="47.45501" lon="6.71537">
        <ele>426</ele>
        <time>2016-07-24T07:48:19.000Z</time>
      </trkpt>
      <trkpt lat="47.45501" lon="6.71532">
        <ele>426</ele>
        <time>2016-07-24T07:48:20.000Z</time>
      </trkpt>
      <trkpt lat="47.45503" lon="6.71528">
        <ele>426</ele>
        <time>2016-07-24T07:48:21.000Z</time>
      </trkpt>
      <trkpt lat="47.45504" lon="6.71525">
        <ele>426</ele>
        <time>2016-07-24T07:48:22.000Z</time>
      </trkpt>
      <trkpt lat="47.45503" lon="6.71521">
        <ele>426</ele>
        <time>2016-07-24T07:48:23.000Z</time>
      </trkpt>
      <trkpt lat="47.45503" lon="6.71517">
        <ele>427</ele>
        <time>2016-07-24T07:48:24.000Z</time>
      </trkpt>
      <trkpt lat="47.45502" lon="6.71513">
        <ele>427</ele>
        <time>2016-07-24T07:48:25.000Z</time>
      </trkpt>
      <trkpt lat="47.45502" lon="6.71509">
        <ele>427</ele>
        <time>2016-07-24T07:48:26.000Z</time>
      </trkpt>
      <trkpt lat="47.45501" lon="6.71505">
        <ele>428</ele>
        <time>2016-07-24T07:48:27.000Z</time>
      </trkpt>
      <trkpt lat="47.45501" lon="6.71499">
        <ele>428</ele>
        <time>2016-07-24T07:48:28.000Z</time>
      </trkpt>
      <trkpt lat="47.45501" lon="6.71494">
        <ele>426</ele>
        <time>2016-07-24T07:48:29.000Z</time>
      </trkpt>
      <trkpt lat="47.45501" lon="6.71488">
        <ele>424</ele>
        <time>2016-07-24T07:48:30.000Z</time>
      </trkpt>
      <trkpt lat="47.45501" lon="6.71481">
        <ele>423</ele>
        <time>2016-07-24T07:48:31.000Z</time>
      </trkpt>
      <trkpt lat="47.455" lon="6.71475">
        <ele>429</ele>
        <time>2016-07-24T07:48:32.000Z</time>
      </trkpt>
      <trkpt lat="47.45499" lon="6.71467">
        <ele>429</ele>
        <time>2016-07-24T07:48:33.000Z</time>
      </trkpt>
      <trkpt lat="47.45498" lon="6.71461">
        <ele>429</ele>
        <time>2016-07-24T07:48:34.000Z</time>
      </trkpt>
      <trkpt lat="47.45497" lon="6.71453">
        <ele>429</ele>
        <time>2016-07-24T07:48:35.000Z</time>
      </trkpt>
      <trkpt lat="47.45496" lon="6.71446">
        <ele>428</ele>
        <time>2016-07-24T07:48:36.000Z</time>
      </trkpt>
      <trkpt lat="47.45495" lon="6.71438">
        <ele>427</ele>
        <time>2016-07-24T07:48:37.000Z</time>
      </trkpt>
      <trkpt lat="47.45494" lon="6.71431">
        <ele>427</ele>
        <time>2016-07-24T07:48:38.000Z</time>
      </trkpt>
      <trkpt lat="47.45493" lon="6.71425">
        <ele>426</ele>
        <time>2016-07-24T07:48:39.000Z</time>
      </trkpt>
      <trkpt lat="47.45492" lon="6.71419">
        <ele>425</ele>
        <time>2016-07-24T07:48:40.000Z</time>
      </trkpt>
      <trkpt lat="47.45491" lon="6.71414">
        <ele>424</ele>
        <time>2016-07-24T07:48:41.000Z</time>
      </trkpt>
      <trkpt lat="47.45489" lon="6.71408">
        <ele>424</ele>
        <time>2016-07-24T07:48:42.000Z</time>
      </trkpt>
      <trkpt lat="47.45487" lon="6.71401">
        <ele>424</ele>
        <time>2016-07-24T07:48:43.000Z</time>
      </trkpt>
      <trkpt lat="47.45485" lon="6.71395">
        <ele>424</ele>
        <time>2016-07-24T07:48:44.000Z</time>
      </trkpt>
      <trkpt lat="47.45483" lon="6.71389">
        <ele>424</ele>
        <time>2016-07-24T07:48:45.000Z</time>
      </trkpt>
      <trkpt lat="47.45481" lon="6.71382">
        <ele>424</ele>
        <time>2016-07-24T07:48:46.000Z</time>
      </trkpt>
      <trkpt lat="47.4548" lon="6.71376">
        <ele>424</ele>
        <time>2016-07-24T07:48:47.000Z</time>
      </trkpt>
      <trkpt lat="47.45478" lon="6.7137">
        <ele>424</ele>
        <time>2016-07-24T07:48:48.000Z</time>
      </trkpt>
      <trkpt lat="47.45477" lon="6.71365">
        <ele>423</ele>
        <time>2016-07-24T07:48:49.000Z</time>
      </trkpt>
      <trkpt lat="47.45475" lon="6.7136">
        <ele>423</ele>
        <time>2016-07-24T07:48:50.000Z</time>
      </trkpt>
      <trkpt lat="47.45474" lon="6.71357">
        <ele>423</ele>
        <time>2016-07-24T07:48:51.000Z</time>
      </trkpt>
      <trkpt lat="47.45472" lon="6.71353">
        <ele>423</ele>
        <time>2016-07-24T07:48:52.000Z</time>
      </trkpt>
      <trkpt lat="47.45471" lon="6.7135">
        <ele>423</ele>
        <time>2016-07-24T07:48:53.000Z</time>
      </trkpt>
      <trkpt lat="47.45469" lon="6.71348">
        <ele>423</ele>
        <time>2016-07-24T07:48:54.000Z</time>
      </trkpt>
      <trkpt lat="47.45467" lon="6.71345">
        <ele>423</ele>
        <time>2016-07-24T07:48:55.000Z</time>
      </trkpt>
      <trkpt lat="47.45465" lon="6.71343">
        <ele>424</ele>
        <time>2016-07-24T07:48:56.000Z</time>
      </trkpt>
      <trkpt lat="47.45463" lon="6.7134">
        <ele>424</ele>
        <time>2016-07-24T07:48:57.000Z</time>
      </trkpt>
      <trkpt lat="47.45461" lon="6.71338">
        <ele>424</ele>
        <time>2016-07-24T07:48:58.000Z</time>
      </trkpt>
      <trkpt lat="47.45458" lon="6.71334">
        <ele>425</ele>
        <time>2016-07-24T07:49:00.000Z</time>
      </trkpt>
      <trkpt lat="47.45456" lon="6.71333">
        <ele>420</ele>
        <time>2016-07-24T07:49:01.000Z</time>
      </trkpt>
      <trkpt lat="47.45457" lon="6.71329">
        <ele>419</ele>
        <time>2016-07-24T07:49:03.000Z</time>
      </trkpt>
      <trkpt lat="47.45457" lon="6.71326">
        <ele>419</ele>
        <time>2016-07-24T07:49:04.000Z</time>
      </trkpt>
      <trkpt lat="47.45458" lon="6.71321">
        <ele>419</ele>
        <time>2016-07-24T07:49:06.000Z</time>
      </trkpt>
      <trkpt lat="47.45459" lon="6.71318">
        <ele>419</ele>
        <time>2016-07-24T07:49:07.000Z</time>
      </trkpt>
      <trkpt lat="47.4546" lon="6.71313">
        <ele>418</ele>
        <time>2016-07-24T07:49:09.000Z</time>
      </trkpt>
      <trkpt lat="47.4546" lon="6.71311">
        <ele>418</ele>
        <time>2016-07-24T07:49:10.000Z</time>
      </trkpt>
      <trkpt lat="47.45457" lon="6.71306">
        <ele>418</ele>
        <time>2016-07-24T07:49:12.000Z</time>
      </trkpt>
      <trkpt lat="47.45456" lon="6.71303">
        <ele>418</ele>
        <time>2016-07-24T07:49:13.000Z</time>
      </trkpt>
      <trkpt lat="47.45455" lon="6.71299">
        <ele>418</ele>
        <time>2016-07-24T07:49:14.000Z</time>
      </trkpt>
      <trkpt lat="47.45454" lon="6.71295">
        <ele>418</ele>
        <time>2016-07-24T07:49:15.000Z</time>
      </trkpt>
      <trkpt lat="47.45452" lon="6.71292">
        <ele>418</ele>
        <time>2016-07-24T07:49:16.000Z</time>
      </trkpt>
      <trkpt lat="47.4545" lon="6.71289">
        <ele>418</ele>
        <time>2016-07-24T07:49:17.000Z</time>
      </trkpt>
      <trkpt lat="47.45448" lon="6.71285">
        <ele>418</ele>
        <time>2016-07-24T07:49:18.000Z</time>
      </trkpt>
      <trkpt lat="47.45446" lon="6.71282">
        <ele>419</ele>
        <time>2016-07-24T07:49:19.000Z</time>
      </trkpt>
      <trkpt lat="47.45445" lon="6.71279">
        <ele>419</ele>
        <time>2016-07-24T07:49:20.000Z</time>
      </trkpt>
      <trkpt lat="47.45443" lon="6.71277">
        <ele>419</ele>
        <time>2016-07-24T07:49:21.000Z</time>
      </trkpt>
      <trkpt lat="47.45442" lon="6.71274">
        <ele>419</ele>
        <time>2016-07-24T07:49:22.000Z</time>
      </trkpt>
      <trkpt lat="47.4544" lon="6.7127">
        <ele>419</ele>
        <time>2016-07-24T07:49:23.000Z</time>
      </trkpt>
      <trkpt lat="47.45438" lon="6.71266">
        <ele>420</ele>
        <time>2016-07-24T07:49:24.000Z</time>
      </trkpt>
      <trkpt lat="47.45437" lon="6.71262">
        <ele>420</ele>
        <time>2016-07-24T07:49:25.000Z</time>
      </trkpt>
      <trkpt lat="47.45435" lon="6.71258">
        <ele>421</ele>
        <time>2016-07-24T07:49:26.000Z</time>
      </trkpt>
      <trkpt lat="47.45432" lon="6.71254">
        <ele>421</ele>
        <time>2016-07-24T07:49:27.000Z</time>
      </trkpt>
      <trkpt lat="47.45431" lon="6.7125">
        <ele>417</ele>
        <time>2016-07-24T07:49:28.000Z</time>
      </trkpt>
      <trkpt lat="47.45429" lon="6.71246">
        <ele>417</ele>
        <time>2016-07-24T07:49:29.000Z</time>
      </trkpt>
      <trkpt lat="47.45427" lon="6.71241">
        <ele>417</ele>
        <time>2016-07-24T07:49:30.000Z</time>
      </trkpt>
      <trkpt lat="47.45426" lon="6.71236">
        <ele>416</ele>
        <time>2016-07-24T07:49:31.000Z</time>
      </trkpt>
      <trkpt lat="47.45424" lon="6.71231">
        <ele>415</ele>
        <time>2016-07-24T07:49:32.000Z</time>
      </trkpt>
      <trkpt lat="47.45422" lon="6.71226">
        <ele>413</ele>
        <time>2016-07-24T07:49:33.000Z</time>
      </trkpt>
      <trkpt lat="47.4542" lon="6.71219">
        <ele>412</ele>
        <time>2016-07-24T07:49:34.000Z</time>
      </trkpt>
      <trkpt lat="47.45417" lon="6.71212">
        <ele>411</ele>
        <time>2016-07-24T07:49:35.000Z</time>
      </trkpt>
      <trkpt lat="47.45415" lon="6.71205">
        <ele>424</ele>
        <time>2016-07-24T07:49:36.000Z</time>
      </trkpt>
      <trkpt lat="47.45413" lon="6.71197">
        <ele>423</ele>
        <time>2016-07-24T07:49:37.000Z</time>
      </trkpt>
      <trkpt lat="47.4541" lon="6.71191">
        <ele>422</ele>
        <time>2016-07-24T07:49:38.000Z</time>
      </trkpt>
      <trkpt lat="47.45407" lon="6.71185">
        <ele>421</ele>
        <time>2016-07-24T07:49:39.000Z</time>
      </trkpt>
      <trkpt lat="47.45404" lon="6.71179">
        <ele>420</ele>
        <time>2016-07-24T07:49:40.000Z</time>
      </trkpt>
      <trkpt lat="47.45401" lon="6.71173">
        <ele>420</ele>
        <time>2016-07-24T07:49:41.000Z</time>
      </trkpt>
      <trkpt lat="47.45398" lon="6.71168">
        <ele>420</ele>
        <time>2016-07-24T07:49:42.000Z</time>
      </trkpt>
      <trkpt lat="47.45395" lon="6.71162">
        <ele>417</ele>
        <time>2016-07-24T07:49:43.000Z</time>
      </trkpt>
      <trkpt lat="47.45392" lon="6.71157">
        <ele>417</ele>
        <time>2016-07-24T07:49:44.000Z</time>
      </trkpt>
      <trkpt lat="47.45389" lon="6.71151">
        <ele>417</ele>
        <time>2016-07-24T07:49:45.000Z</time>
      </trkpt>
      <trkpt lat="47.45386" lon="6.71144">
        <ele>418</ele>
        <time>2016-07-24T07:49:46.000Z</time>
      </trkpt>
      <trkpt lat="47.45374" lon="6.71124">
        <ele>418</ele>
        <time>2016-07-24T07:49:47.000Z</time>
      </trkpt>
      <trkpt lat="47.45369" lon="6.71115">
        <ele>418</ele>
        <time>2016-07-24T07:49:48.000Z</time>
      </trkpt>
      <trkpt lat="47.45365" lon="6.71108">
        <ele>419</ele>
        <time>2016-07-24T07:49:49.000Z</time>
      </trkpt>
      <trkpt lat="47.45359" lon="6.71103">
        <ele>420</ele>
        <time>2016-07-24T07:49:50.000Z</time>
      </trkpt>
      <trkpt lat="47.45356" lon="6.71097">
        <ele>420</ele>
        <time>2016-07-24T07:49:51.000Z</time>
      </trkpt>
      <trkpt lat="47.45355" lon="6.71093">
        <ele>421</ele>
        <time>2016-07-24T07:49:52.000Z</time>
      </trkpt>
      <trkpt lat="47.45352" lon="6.71089">
        <ele>422</ele>
        <time>2016-07-24T07:49:53.000Z</time>
      </trkpt>
      <trkpt lat="47.45347" lon="6.71083">
        <ele>419</ele>
        <time>2016-07-24T07:49:54.000Z</time>
      </trkpt>
      <trkpt lat="47.45344" lon="6.71078">
        <ele>420</ele>
        <time>2016-07-24T07:49:55.000Z</time>
      </trkpt>
      <trkpt lat="47.45339" lon="6.71075">
        <ele>421</ele>
        <time>2016-07-24T07:49:56.000Z</time>
      </trkpt>
      <trkpt lat="47.45337" lon="6.7107">
        <ele>419</ele>
        <time>2016-07-24T07:49:57.000Z</time>
      </trkpt>
      <trkpt lat="47.45334" lon="6.71065">
        <ele>418</ele>
        <time>2016-07-24T07:49:58.000Z</time>
      </trkpt>
      <trkpt lat="47.45332" lon="6.71061">
        <ele>427</ele>
        <time>2016-07-24T07:49:59.000Z</time>
      </trkpt>
      <trkpt lat="47.45329" lon="6.71057">
        <ele>427</ele>
        <time>2016-07-24T07:50:00.000Z</time>
      </trkpt>
      <trkpt lat="47.45327" lon="6.71053">
        <ele>427</ele>
        <time>2016-07-24T07:50:01.000Z</time>
      </trkpt>
      <trkpt lat="47.45324" lon="6.71049">
        <ele>427</ele>
        <time>2016-07-24T07:50:02.000Z</time>
      </trkpt>
      <trkpt lat="47.45322" lon="6.71045">
        <ele>427</ele>
        <time>2016-07-24T07:50:03.000Z</time>
      </trkpt>
      <trkpt lat="47.45319" lon="6.71041">
        <ele>426</ele>
        <time>2016-07-24T07:50:04.000Z</time>
      </trkpt>
      <trkpt lat="47.45316" lon="6.71037">
        <ele>426</ele>
        <time>2016-07-24T07:50:05.000Z</time>
      </trkpt>
      <trkpt lat="47.45313" lon="6.71034">
        <ele>426</ele>
        <time>2016-07-24T07:50:06.000Z</time>
      </trkpt>
      <trkpt lat="47.4531" lon="6.71031">
        <ele>426</ele>
        <time>2016-07-24T07:50:07.000Z</time>
      </trkpt>
      <trkpt lat="47.45306" lon="6.71029">
        <ele>427</ele>
        <time>2016-07-24T07:50:08.000Z</time>
      </trkpt>
      <trkpt lat="47.45303" lon="6.71028">
        <ele>427</ele>
        <time>2016-07-24T07:50:09.000Z</time>
      </trkpt>
      <trkpt lat="47.45299" lon="6.71026">
        <ele>427</ele>
        <time>2016-07-24T07:50:10.000Z</time>
      </trkpt>
      <trkpt lat="47.45295" lon="6.71025">
        <ele>428</ele>
        <time>2016-07-24T07:50:11.000Z</time>
      </trkpt>
      <trkpt lat="47.45293" lon="6.71025">
        <ele>428</ele>
        <time>2016-07-24T07:50:12.000Z</time>
      </trkpt>
      <trkpt lat="47.4529" lon="6.71024">
        <ele>428</ele>
        <time>2016-07-24T07:50:13.000Z</time>
      </trkpt>
      <trkpt lat="47.45288" lon="6.71024">
        <ele>429</ele>
        <time>2016-07-24T07:50:14.000Z</time>
      </trkpt>
      <trkpt lat="47.45286" lon="6.71022">
        <ele>429</ele>
        <time>2016-07-24T07:50:15.000Z</time>
      </trkpt>
      <trkpt lat="47.45284" lon="6.7102">
        <ele>429</ele>
        <time>2016-07-24T07:50:16.000Z</time>
      </trkpt>
      <trkpt lat="47.45282" lon="6.71018">
        <ele>429</ele>
        <time>2016-07-24T07:50:17.000Z</time>
      </trkpt>
      <trkpt lat="47.45279" lon="6.71016">
        <ele>430</ele>
        <time>2016-07-24T07:50:18.000Z</time>
      </trkpt>
      <trkpt lat="47.45275" lon="6.71015">
        <ele>430</ele>
        <time>2016-07-24T07:50:19.000Z</time>
      </trkpt>
      <trkpt lat="47.45271" lon="6.71014">
        <ele>431</ele>
        <time>2016-07-24T07:50:20.000Z</time>
      </trkpt>
      <trkpt lat="47.45268" lon="6.71013">
        <ele>431</ele>
        <time>2016-07-24T07:50:21.000Z</time>
      </trkpt>
      <trkpt lat="47.45265" lon="6.71013">
        <ele>432</ele>
        <time>2016-07-24T07:50:22.000Z</time>
      </trkpt>
      <trkpt lat="47.45262" lon="6.71012">
        <ele>432</ele>
        <time>2016-07-24T07:50:23.000Z</time>
      </trkpt>
      <trkpt lat="47.4526" lon="6.71012">
        <ele>432</ele>
        <time>2016-07-24T07:50:24.000Z</time>
      </trkpt>
      <trkpt lat="47.45256" lon="6.71013">
        <ele>433</ele>
        <time>2016-07-24T07:50:26.000Z</time>
      </trkpt>
      <trkpt lat="47.45254" lon="6.71014">
        <ele>433</ele>
        <time>2016-07-24T07:50:27.000Z</time>
      </trkpt>
      <trkpt lat="47.4525" lon="6.71016">
        <ele>436</ele>
        <time>2016-07-24T07:50:29.000Z</time>
      </trkpt>
      <trkpt lat="47.45248" lon="6.71017">
        <ele>436</ele>
        <time>2016-07-24T07:50:30.000Z</time>
      </trkpt>
      <trkpt lat="47.45244" lon="6.71019">
        <ele>436</ele>
        <time>2016-07-24T07:50:32.000Z</time>
      </trkpt>
      <trkpt lat="47.45242" lon="6.71021">
        <ele>436</ele>
        <time>2016-07-24T07:50:33.000Z</time>
      </trkpt>
      <trkpt lat="47.45239" lon="6.71024">
        <ele>436</ele>
        <time>2016-07-24T07:50:35.000Z</time>
      </trkpt>
      <trkpt lat="47.45237" lon="6.71027">
        <ele>436</ele>
        <time>2016-07-24T07:50:36.000Z</time>
      </trkpt>
      <trkpt lat="47.45235" lon="6.71031">
        <ele>436</ele>
        <time>2016-07-24T07:50:38.000Z</time>
      </trkpt>
      <trkpt lat="47.45234" lon="6.71032">
        <ele>436</ele>
        <time>2016-07-24T07:50:39.000Z</time>
      </trkpt>
      <trkpt lat="47.4523" lon="6.71035">
        <ele>436</ele>
        <time>2016-07-24T07:50:42.000Z</time>
      </trkpt>
      <trkpt lat="47.45229" lon="6.71036">
        <ele>436</ele>
        <time>2016-07-24T07:50:43.000Z</time>
      </trkpt>
      <trkpt lat="47.45226" lon="6.71036">
        <ele>435</ele>
        <time>2016-07-24T07:50:45.000Z</time>
      </trkpt>
      <trkpt lat="47.45224" lon="6.71036">
        <ele>435</ele>
        <time>2016-07-24T07:50:46.000Z</time>
      </trkpt>
      <trkpt lat="47.45221" lon="6.71033">
        <ele>435</ele>
        <time>2016-07-24T07:50:48.000Z</time>
      </trkpt>
      <trkpt lat="47.4522" lon="6.71031">
        <ele>435</ele>
        <time>2016-07-24T07:50:49.000Z</time>
      </trkpt>
      <trkpt lat="47.45218" lon="6.71026">
        <ele>435</ele>
        <time>2016-07-24T07:50:52.000Z</time>
      </trkpt>
      <trkpt lat="47.45218" lon="6.71024">
        <ele>435</ele>
        <time>2016-07-24T07:50:53.000Z</time>
      </trkpt>
      <trkpt lat="47.45217" lon="6.71018">
        <ele>435</ele>
        <time>2016-07-24T07:50:56.000Z</time>
      </trkpt>
      <trkpt lat="47.45217" lon="6.71016">
        <ele>435</ele>
        <time>2016-07-24T07:50:57.000Z</time>
      </trkpt>
      <trkpt lat="47.45216" lon="6.7101">
        <ele>435</ele>
        <time>2016-07-24T07:51:00.000Z</time>
      </trkpt>
      <trkpt lat="47.45216" lon="6.71008">
        <ele>435</ele>
        <time>2016-07-24T07:51:01.000Z</time>
      </trkpt>
      <trkpt lat="47.45214" lon="6.71003">
        <ele>435</ele>
        <time>2016-07-24T07:51:03.000Z</time>
      </trkpt>
      <trkpt lat="47.45213" lon="6.71">
        <ele>435</ele>
        <time>2016-07-24T07:51:04.000Z</time>
      </trkpt>
      <trkpt lat="47.45214" lon="6.70994">
        <ele>435</ele>
        <time>2016-07-24T07:51:06.000Z</time>
      </trkpt>
      <trkpt lat="47.45214" lon="6.70991">
        <ele>435</ele>
        <time>2016-07-24T07:51:07.000Z</time>
      </trkpt>
      <trkpt lat="47.45214" lon="6.70988">
        <ele>435</ele>
        <time>2016-07-24T07:51:08.000Z</time>
      </trkpt>
      <trkpt lat="47.45213" lon="6.70982">
        <ele>435</ele>
        <time>2016-07-24T07:51:10.000Z</time>
      </trkpt>
      <trkpt lat="47.45212" lon="6.70978">
        <ele>435</ele>
        <time>2016-07-24T07:51:11.000Z</time>
      </trkpt>
      <trkpt lat="47.45211" lon="6.70975">
        <ele>435</ele>
        <time>2016-07-24T07:51:12.000Z</time>
      </trkpt>
      <trkpt lat="47.4521" lon="6.70971">
        <ele>435</ele>
        <time>2016-07-24T07:51:13.000Z</time>
      </trkpt>
      <trkpt lat="47.45209" lon="6.70967">
        <ele>435</ele>
        <time>2016-07-24T07:51:14.000Z</time>
      </trkpt>
      <trkpt lat="47.45208" lon="6.70961">
        <ele>435</ele>
        <time>2016-07-24T07:51:16.000Z</time>
      </trkpt>
      <trkpt lat="47.45207" lon="6.70959">
        <ele>435</ele>
        <time>2016-07-24T07:51:17.000Z</time>
      </trkpt>
      <trkpt lat="47.45206" lon="6.70954">
        <ele>435</ele>
        <time>2016-07-24T07:51:19.000Z</time>
      </trkpt>
      <trkpt lat="47.45205" lon="6.70952">
        <ele>435</ele>
        <time>2016-07-24T07:51:20.000Z</time>
      </trkpt>
      <trkpt lat="47.45205" lon="6.70946">
        <ele>435</ele>
        <time>2016-07-24T07:51:22.000Z</time>
      </trkpt>
      <trkpt lat="47.45204" lon="6.70943">
        <ele>435</ele>
        <time>2016-07-24T07:51:23.000Z</time>
      </trkpt>
      <trkpt lat="47.45203" lon="6.7094">
        <ele>435</ele>
        <time>2016-07-24T07:51:24.000Z</time>
      </trkpt>
      <trkpt lat="47.45203" lon="6.70937">
        <ele>435</ele>
        <time>2016-07-24T07:51:25.000Z</time>
      </trkpt>
      <trkpt lat="47.45202" lon="6.70933">
        <ele>435</ele>
        <time>2016-07-24T07:51:26.000Z</time>
      </trkpt>
      <trkpt lat="47.45201" lon="6.70929">
        <ele>435</ele>
        <time>2016-07-24T07:51:27.000Z</time>
      </trkpt>
      <trkpt lat="47.452" lon="6.70926">
        <ele>435</ele>
        <time>2016-07-24T07:51:28.000Z</time>
      </trkpt>
      <trkpt lat="47.45199" lon="6.70922">
        <ele>435</ele>
        <time>2016-07-24T07:51:29.000Z</time>
      </trkpt>
      <trkpt lat="47.45197" lon="6.70918">
        <ele>435</ele>
        <time>2016-07-24T07:51:30.000Z</time>
      </trkpt>
      <trkpt lat="47.45196" lon="6.70915">
        <ele>434</ele>
        <time>2016-07-24T07:51:31.000Z</time>
      </trkpt>
      <trkpt lat="47.45194" lon="6.70912">
        <ele>434</ele>
        <time>2016-07-24T07:51:32.000Z</time>
      </trkpt>
      <trkpt lat="47.45192" lon="6.70909">
        <ele>434</ele>
        <time>2016-07-24T07:51:33.000Z</time>
      </trkpt>
      <trkpt lat="47.4519" lon="6.70904">
        <ele>434</ele>
        <time>2016-07-24T07:51:35.000Z</time>
      </trkpt>
      <trkpt lat="47.45189" lon="6.70901">
        <ele>434</ele>
        <time>2016-07-24T07:51:36.000Z</time>
      </trkpt>
      <trkpt lat="47.45188" lon="6.70895">
        <ele>434</ele>
        <time>2016-07-24T07:51:38.000Z</time>
      </trkpt>
      <trkpt lat="47.45186" lon="6.70891">
        <ele>434</ele>
        <time>2016-07-24T07:51:39.000Z</time>
      </trkpt>
      <trkpt lat="47.45185" lon="6.70888">
        <ele>434</ele>
        <time>2016-07-24T07:51:40.000Z</time>
      </trkpt>
      <trkpt lat="47.45183" lon="6.70884">
        <ele>434</ele>
        <time>2016-07-24T07:51:41.000Z</time>
      </trkpt>
      <trkpt lat="47.45181" lon="6.7088">
        <ele>434</ele>
        <time>2016-07-24T07:51:42.000Z</time>
      </trkpt>
      <trkpt lat="47.4518" lon="6.70876">
        <ele>434</ele>
        <time>2016-07-24T07:51:43.000Z</time>
      </trkpt>
      <trkpt lat="47.45178" lon="6.70873">
        <ele>434</ele>
        <time>2016-07-24T07:51:44.000Z</time>
      </trkpt>
      <trkpt lat="47.45177" lon="6.70869">
        <ele>434</ele>
        <time>2016-07-24T07:51:45.000Z</time>
      </trkpt>
      <trkpt lat="47.45175" lon="6.70864">
        <ele>433</ele>
        <time>2016-07-24T07:51:46.000Z</time>
      </trkpt>
      <trkpt lat="47.45174" lon="6.70857">
        <ele>433</ele>
        <time>2016-07-24T07:51:47.000Z</time>
      </trkpt>
      <trkpt lat="47.45172" lon="6.70849">
        <ele>434</ele>
        <time>2016-07-24T07:51:48.000Z</time>
      </trkpt>
      <trkpt lat="47.4517" lon="6.70841">
        <ele>434</ele>
        <time>2016-07-24T07:51:49.000Z</time>
      </trkpt>
      <trkpt lat="47.45162" lon="6.70827">
        <ele>433</ele>
        <time>2016-07-24T07:51:50.000Z</time>
      </trkpt>
      <trkpt lat="47.45157" lon="6.70819">
        <ele>432</ele>
        <time>2016-07-24T07:51:51.000Z</time>
      </trkpt>
      <trkpt lat="47.45155" lon="6.70812">
        <ele>431</ele>
        <time>2016-07-24T07:51:52.000Z</time>
      </trkpt>
      <trkpt lat="47.45151" lon="6.70806">
        <ele>431</ele>
        <time>2016-07-24T07:51:53.000Z</time>
      </trkpt>
      <trkpt lat="47.45149" lon="6.70798">
        <ele>430</ele>
        <time>2016-07-24T07:51:54.000Z</time>
      </trkpt>
      <trkpt lat="47.45146" lon="6.7079">
        <ele>430</ele>
        <time>2016-07-24T07:51:55.000Z</time>
      </trkpt>
      <trkpt lat="47.45136" lon="6.70774">
        <ele>429</ele>
        <time>2016-07-24T07:51:56.000Z</time>
      </trkpt>
      <trkpt lat="47.45132" lon="6.70764">
        <ele>429</ele>
        <time>2016-07-24T07:51:57.000Z</time>
      </trkpt>
      <trkpt lat="47.45127" lon="6.70753">
        <ele>429</ele>
        <time>2016-07-24T07:51:58.000Z</time>
      </trkpt>
      <trkpt lat="47.45123" lon="6.70744">
        <ele>427</ele>
        <time>2016-07-24T07:51:59.000Z</time>
      </trkpt>
      <trkpt lat="47.45121" lon="6.70735">
        <ele>426</ele>
        <time>2016-07-24T07:52:00.000Z</time>
      </trkpt>
      <trkpt lat="47.45118" lon="6.70724">
        <ele>426</ele>
        <time>2016-07-24T07:52:01.000Z</time>
      </trkpt>
      <trkpt lat="47.45113" lon="6.70717">
        <ele>426</ele>
        <time>2016-07-24T07:52:02.000Z</time>
      </trkpt>
      <trkpt lat="47.4511" lon="6.70711">
        <ele>426</ele>
        <time>2016-07-24T07:52:03.000Z</time>
      </trkpt>
      <trkpt lat="47.4511" lon="6.70705">
        <ele>426</ele>
        <time>2016-07-24T07:52:04.000Z</time>
      </trkpt>
      <trkpt lat="47.45109" lon="6.707">
        <ele>425</ele>
        <time>2016-07-24T07:52:05.000Z</time>
      </trkpt>
      <trkpt lat="47.45108" lon="6.70695">
        <ele>425</ele>
        <time>2016-07-24T07:52:06.000Z</time>
      </trkpt>
      <trkpt lat="47.45106" lon="6.70692">
        <ele>425</ele>
        <time>2016-07-24T07:52:07.000Z</time>
      </trkpt>
      <trkpt lat="47.45102" lon="6.70688">
        <ele>425</ele>
        <time>2016-07-24T07:52:08.000Z</time>
      </trkpt>
      <trkpt lat="47.45101" lon="6.70686">
        <ele>425</ele>
        <time>2016-07-24T07:52:09.000Z</time>
      </trkpt>
      <trkpt lat="47.451" lon="6.70681">
        <ele>424</ele>
        <time>2016-07-24T07:52:11.000Z</time>
      </trkpt>
      <trkpt lat="47.45099" lon="6.70679">
        <ele>424</ele>
        <time>2016-07-24T07:52:12.000Z</time>
      </trkpt>
      <trkpt lat="47.45096" lon="6.70675">
        <ele>424</ele>
        <time>2016-07-24T07:52:16.000Z</time>
      </trkpt>
      <trkpt lat="47.45095" lon="6.70675">
        <ele>424</ele>
        <time>2016-07-24T07:52:17.000Z</time>
      </trkpt>
      <trkpt lat="47.45091" lon="6.70672">
        <ele>423</ele>
        <time>2016-07-24T07:52:24.000Z</time>
      </trkpt>
      <trkpt lat="47.45091" lon="6.70672">
        <ele>423</ele>
        <time>2016-07-24T07:52:25.000Z</time>
      </trkpt>
      <trkpt lat="47.45088" lon="6.70667">
        <ele>423</ele>
        <time>2016-07-24T07:52:41.000Z</time>
      </trkpt>
      <trkpt lat="47.45088" lon="6.70666">
        <ele>422</ele>
        <time>2016-07-24T07:52:42.000Z</time>
      </trkpt>
      <trkpt lat="47.45087" lon="6.70663">
        <ele>422</ele>
        <time>2016-07-24T07:52:43.000Z</time>
      </trkpt>
      <trkpt lat="47.45085" lon="6.70658">
        <ele>422</ele>
        <time>2016-07-24T07:52:44.000Z</time>
      </trkpt>
      <trkpt lat="47.45083" lon="6.70655">
        <ele>422</ele>
        <time>2016-07-24T07:52:45.000Z</time>
      </trkpt>
      <trkpt lat="47.45082" lon="6.7065">
        <ele>421</ele>
        <time>2016-07-24T07:52:46.000Z</time>
      </trkpt>
      <trkpt lat="47.45082" lon="6.70647">
        <ele>420</ele>
        <time>2016-07-24T07:52:47.000Z</time>
      </trkpt>
      <trkpt lat="47.45081" lon="6.70643">
        <ele>420</ele>
        <time>2016-07-24T07:52:48.000Z</time>
      </trkpt>
      <trkpt lat="47.45079" lon="6.70638">
        <ele>420</ele>
        <time>2016-07-24T07:52:51.000Z</time>
      </trkpt>
      <trkpt lat="47.45078" lon="6.70637">
        <ele>420</ele>
        <time>2016-07-24T07:52:52.000Z</time>
      </trkpt>
      <trkpt lat="47.45076" lon="6.70643">
        <ele>420</ele>
        <time>2016-07-24T07:53:02.000Z</time>
      </trkpt>
      <trkpt lat="47.45077" lon="6.70644">
        <ele>420</ele>
        <time>2016-07-24T07:53:03.000Z</time>
      </trkpt>
      <trkpt lat="47.45078" lon="6.70649">
        <ele>420</ele>
        <time>2016-07-24T07:53:09.000Z</time>
      </trkpt>
      <trkpt lat="47.4508" lon="6.7065">
        <ele>420</ele>
        <time>2016-07-24T07:53:10.000Z</time>
      </trkpt>
      <trkpt lat="47.45083" lon="6.70648">
        <ele>422</ele>
        <time>2016-07-24T07:53:13.000Z</time>
      </trkpt>
      <trkpt lat="47.45084" lon="6.70647">
        <ele>422</ele>
        <time>2016-07-24T07:53:14.000Z</time>
      </trkpt>
      <trkpt lat="47.45086" lon="6.70645">
        <ele>422</ele>
        <time>2016-07-24T07:53:15.000Z</time>
      </trkpt>
      <trkpt lat="47.45088" lon="6.70643">
        <ele>422</ele>
        <time>2016-07-24T07:53:16.000Z</time>
      </trkpt>
      <trkpt lat="47.4509" lon="6.7064">
        <ele>422</ele>
        <time>2016-07-24T07:53:17.000Z</time>
      </trkpt>
      <trkpt lat="47.45094" lon="6.70637">
        <ele>422</ele>
        <time>2016-07-24T07:53:18.000Z</time>
      </trkpt>
      <trkpt lat="47.45098" lon="6.70636">
        <ele>422</ele>
        <time>2016-07-24T07:53:19.000Z</time>
      </trkpt>
      <trkpt lat="47.45102" lon="6.70635">
        <ele>421</ele>
        <time>2016-07-24T07:53:20.000Z</time>
      </trkpt>
      <trkpt lat="47.45105" lon="6.70633">
        <ele>421</ele>
        <time>2016-07-24T07:53:21.000Z</time>
      </trkpt>
      <trkpt lat="47.45108" lon="6.70631">
        <ele>421</ele>
        <time>2016-07-24T07:53:22.000Z</time>
      </trkpt>
      <trkpt lat="47.45111" lon="6.70628">
        <ele>421</ele>
        <time>2016-07-24T07:53:23.000Z</time>
      </trkpt>
      <trkpt lat="47.45114" lon="6.70627">
        <ele>421</ele>
        <time>2016-07-24T07:53:24.000Z</time>
      </trkpt>
      <trkpt lat="47.45118" lon="6.70625">
        <ele>421</ele>
        <time>2016-07-24T07:53:25.000Z</time>
      </trkpt>
      <trkpt lat="47.4512" lon="6.70624">
        <ele>421</ele>
        <time>2016-07-24T07:53:26.000Z</time>
      </trkpt>
      <trkpt lat="47.45123" lon="6.70623">
        <ele>421</ele>
        <time>2016-07-24T07:53:28.000Z</time>
      </trkpt>
      <trkpt lat="47.45125" lon="6.70623">
        <ele>421</ele>
        <time>2016-07-24T07:53:29.000Z</time>
      </trkpt>
      <trkpt lat="47.45128" lon="6.70624">
        <ele>421</ele>
        <time>2016-07-24T07:53:31.000Z</time>
      </trkpt>
      <trkpt lat="47.45131" lon="6.70623">
        <ele>422</ele>
        <time>2016-07-24T07:53:32.000Z</time>
      </trkpt>
      <trkpt lat="47.45135" lon="6.70622">
        <ele>422</ele>
        <time>2016-07-24T07:53:33.000Z</time>
      </trkpt>
      <trkpt lat="47.4514" lon="6.7062">
        <ele>421</ele>
        <time>2016-07-24T07:53:34.000Z</time>
      </trkpt>
      <trkpt lat="47.45145" lon="6.70619">
        <ele>421</ele>
        <time>2016-07-24T07:53:35.000Z</time>
      </trkpt>
      <trkpt lat="47.4515" lon="6.70617">
        <ele>421</ele>
        <time>2016-07-24T07:53:36.000Z</time>
      </trkpt>
      <trkpt lat="47.45154" lon="6.70617">
        <ele>421</ele>
        <time>2016-07-24T07:53:37.000Z</time>
      </trkpt>
      <trkpt lat="47.45158" lon="6.70617">
        <ele>421</ele>
        <time>2016-07-24T07:53:38.000Z</time>
      </trkpt>
      <trkpt lat="47.45162" lon="6.70617">
        <ele>421</ele>
        <time>2016-07-24T07:53:39.000Z</time>
      </trkpt>
      <trkpt lat="47.45167" lon="6.70618">
        <ele>422</ele>
        <time>2016-07-24T07:53:40.000Z</time>
      </trkpt>
      <trkpt lat="47.45176" lon="6.70617">
        <ele>421</ele>
        <time>2016-07-24T07:53:41.000Z</time>
      </trkpt>
      <trkpt lat="47.45179" lon="6.70618">
        <ele>421</ele>
        <time>2016-07-24T07:53:42.000Z</time>
      </trkpt>
      <trkpt lat="47.4518" lon="6.70624">
        <ele>422</ele>
        <time>2016-07-24T07:53:43.000Z</time>
      </trkpt>
      <trkpt lat="47.45184" lon="6.70626">
        <ele>422</ele>
        <time>2016-07-24T07:53:44.000Z</time>
      </trkpt>
      <trkpt lat="47.45186" lon="6.7063">
        <ele>422</ele>
        <time>2016-07-24T07:53:45.000Z</time>
      </trkpt>
      <trkpt lat="47.45192" lon="6.70626">
        <ele>422</ele>
        <time>2016-07-24T07:53:46.000Z</time>
      </trkpt>
      <trkpt lat="47.45196" lon="6.70627">
        <ele>422</ele>
        <time>2016-07-24T07:53:47.000Z</time>
      </trkpt>
      <trkpt lat="47.452" lon="6.7063">
        <ele>422</ele>
        <time>2016-07-24T07:53:48.000Z</time>
      </trkpt>
      <trkpt lat="47.45204" lon="6.70634">
        <ele>422</ele>
        <time>2016-07-24T07:53:49.000Z</time>
      </trkpt>
      <trkpt lat="47.45208" lon="6.70637">
        <ele>422</ele>
        <time>2016-07-24T07:53:50.000Z</time>
      </trkpt>
      <trkpt lat="47.45212" lon="6.7064">
        <ele>422</ele>
        <time>2016-07-24T07:53:51.000Z</time>
      </trkpt>
      <trkpt lat="47.45217" lon="6.70642">
        <ele>422</ele>
        <time>2016-07-24T07:53:52.000Z</time>
      </trkpt>
      <trkpt lat="47.45222" lon="6.70644">
        <ele>422</ele>
        <time>2016-07-24T07:53:53.000Z</time>
      </trkpt>
      <trkpt lat="47.45225" lon="6.70647">
        <ele>422</ele>
        <time>2016-07-24T07:53:54.000Z</time>
      </trkpt>
      <trkpt lat="47.45229" lon="6.7065">
        <ele>422</ele>
        <time>2016-07-24T07:53:55.000Z</time>
      </trkpt>
      <trkpt lat="47.45233" lon="6.70654">
        <ele>421</ele>
        <time>2016-07-24T07:53:56.000Z</time>
      </trkpt>
      <trkpt lat="47.45237" lon="6.70658">
        <ele>421</ele>
        <time>2016-07-24T07:53:57.000Z</time>
      </trkpt>
      <trkpt lat="47.4524" lon="6.70664">
        <ele>421</ele>
        <time>2016-07-24T07:53:58.000Z</time>
      </trkpt>
      <trkpt lat="47.45244" lon="6.7067">
        <ele>422</ele>
        <time>2016-07-24T07:53:59.000Z</time>
      </trkpt>
      <trkpt lat="47.45248" lon="6.70673">
        <ele>422</ele>
        <time>2016-07-24T07:54:00.000Z</time>
      </trkpt>
      <trkpt lat="47.45251" lon="6.70676">
        <ele>422</ele>
        <time>2016-07-24T07:54:01.000Z</time>
      </trkpt>
      <trkpt lat="47.45254" lon="6.70677">
        <ele>422</ele>
        <time>2016-07-24T07:54:02.000Z</time>
      </trkpt>
      <trkpt lat="47.45256" lon="6.70675">
        <ele>422</ele>
        <time>2016-07-24T07:54:05.000Z</time>
      </trkpt>
      <trkpt lat="47.45258" lon="6.70676">
        <ele>422</ele>
        <time>2016-07-24T07:54:06.000Z</time>
      </trkpt>
      <trkpt lat="47.45261" lon="6.70676">
        <ele>422</ele>
        <time>2016-07-24T07:54:07.000Z</time>
      </trkpt>
      <trkpt lat="47.45262" lon="6.70679">
        <ele>422</ele>
        <time>2016-07-24T07:54:08.000Z</time>
      </trkpt>
      <trkpt lat="47.45264" lon="6.70683">
        <ele>422</ele>
        <time>2016-07-24T07:54:09.000Z</time>
      </trkpt>
      <trkpt lat="47.45265" lon="6.70686">
        <ele>422</ele>
        <time>2016-07-24T07:54:10.000Z</time>
      </trkpt>
      <trkpt lat="47.45267" lon="6.7069">
        <ele>422</ele>
        <time>2016-07-24T07:54:11.000Z</time>
      </trkpt>
      <trkpt lat="47.45268" lon="6.70694">
        <ele>422</ele>
        <time>2016-07-24T07:54:12.000Z</time>
      </trkpt>
      <trkpt lat="47.45269" lon="6.70697">
        <ele>422</ele>
        <time>2016-07-24T07:54:13.000Z</time>
      </trkpt>
      <trkpt lat="47.4527" lon="6.70702">
        <ele>422</ele>
        <time>2016-07-24T07:54:14.000Z</time>
      </trkpt>
      <trkpt lat="47.45272" lon="6.70708">
        <ele>422</ele>
        <time>2016-07-24T07:54:15.000Z</time>
      </trkpt>
      <trkpt lat="47.45274" lon="6.70715">
        <ele>423</ele>
        <time>2016-07-24T07:54:16.000Z</time>
      </trkpt>
      <trkpt lat="47.45276" lon="6.70723">
        <ele>423</ele>
        <time>2016-07-24T07:54:17.000Z</time>
      </trkpt>
      <trkpt lat="47.45278" lon="6.7073">
        <ele>423</ele>
        <time>2016-07-24T07:54:18.000Z</time>
      </trkpt>
      <trkpt lat="47.45279" lon="6.70736">
        <ele>423</ele>
        <time>2016-07-24T07:54:19.000Z</time>
      </trkpt>
      <trkpt lat="47.45281" lon="6.70742">
        <ele>423</ele>
        <time>2016-07-24T07:54:20.000Z</time>
      </trkpt>
      <trkpt lat="47.45282" lon="6.70746">
        <ele>423</ele>
        <time>2016-07-24T07:54:21.000Z</time>
      </trkpt>
      <trkpt lat="47.45283" lon="6.70751">
        <ele>422</ele>
        <time>2016-07-24T07:54:22.000Z</time>
      </trkpt>
      <trkpt lat="47.45286" lon="6.70757">
        <ele>422</ele>
        <time>2016-07-24T07:54:23.000Z</time>
      </trkpt>
      <trkpt lat="47.45289" lon="6.70762">
        <ele>422</ele>
        <time>2016-07-24T07:54:24.000Z</time>
      </trkpt>
      <trkpt lat="47.45293" lon="6.70769">
        <ele>421</ele>
        <time>2016-07-24T07:54:25.000Z</time>
      </trkpt>
      <trkpt lat="47.45297" lon="6.70777">
        <ele>421</ele>
        <time>2016-07-24T07:54:26.000Z</time>
      </trkpt>
      <trkpt lat="47.45302" lon="6.70784">
        <ele>421</ele>
        <time>2016-07-24T07:54:27.000Z</time>
      </trkpt>
      <trkpt lat="47.45307" lon="6.70791">
        <ele>420</ele>
        <time>2016-07-24T07:54:28.000Z</time>
      </trkpt>
      <trkpt lat="47.4531" lon="6.70798">
        <ele>420</ele>
        <time>2016-07-24T07:54:29.000Z</time>
      </trkpt>
      <trkpt lat="47.45313" lon="6.70804">
        <ele>420</ele>
        <time>2016-07-24T07:54:30.000Z</time>
      </trkpt>
      <trkpt lat="47.45316" lon="6.7081">
        <ele>419</ele>
        <time>2016-07-24T07:54:31.000Z</time>
      </trkpt>
      <trkpt lat="47.4532" lon="6.70823">
        <ele>417</ele>
        <time>2016-07-24T07:54:33.000Z</time>
      </trkpt>
      <trkpt lat="47.45322" lon="6.70831">
        <ele>416</ele>
        <time>2016-07-24T07:54:34.000Z</time>
      </trkpt>
      <trkpt lat="47.45323" lon="6.70839">
        <ele>416</ele>
        <time>2016-07-24T07:54:35.000Z</time>
      </trkpt>
      <trkpt lat="47.45328" lon="6.70869">
        <ele>417</ele>
        <time>2016-07-24T07:54:36.000Z</time>
      </trkpt>
      <trkpt lat="47.45331" lon="6.70875">
        <ele>416</ele>
        <time>2016-07-24T07:54:37.000Z</time>
      </trkpt>
      <trkpt lat="47.45334" lon="6.70879">
        <ele>410</ele>
        <time>2016-07-24T07:54:38.000Z</time>
      </trkpt>
      <trkpt lat="47.45334" lon="6.70885">
        <ele>409</ele>
        <time>2016-07-24T07:54:39.000Z</time>
      </trkpt>
      <trkpt lat="47.45334" lon="6.70891">
        <ele>409</ele>
        <time>2016-07-24T07:54:40.000Z</time>
      </trkpt>
      <trkpt lat="47.45336" lon="6.70897">
        <ele>408</ele>
        <time>2016-07-24T07:54:41.000Z</time>
      </trkpt>
      <trkpt lat="47.45337" lon="6.70905">
        <ele>408</ele>
        <time>2016-07-24T07:54:42.000Z</time>
      </trkpt>
      <trkpt lat="47.45336" lon="6.70913">
        <ele>407</ele>
        <time>2016-07-24T07:54:43.000Z</time>
      </trkpt>
      <trkpt lat="47.4534" lon="6.70918">
        <ele>406</ele>
        <time>2016-07-24T07:54:44.000Z</time>
      </trkpt>
      <trkpt lat="47.45342" lon="6.70924">
        <ele>406</ele>
        <time>2016-07-24T07:54:45.000Z</time>
      </trkpt>
      <trkpt lat="47.45345" lon="6.70929">
        <ele>406</ele>
        <time>2016-07-24T07:54:46.000Z</time>
      </trkpt>
      <trkpt lat="47.45348" lon="6.70935">
        <ele>405</ele>
        <time>2016-07-24T07:54:47.000Z</time>
      </trkpt>
      <trkpt lat="47.45351" lon="6.70941">
        <ele>405</ele>
        <time>2016-07-24T07:54:48.000Z</time>
      </trkpt>
      <trkpt lat="47.45354" lon="6.70948">
        <ele>405</ele>
        <time>2016-07-24T07:54:49.000Z</time>
      </trkpt>
      <trkpt lat="47.45357" lon="6.70955">
        <ele>405</ele>
        <time>2016-07-24T07:54:50.000Z</time>
      </trkpt>
      <trkpt lat="47.4536" lon="6.70963">
        <ele>405</ele>
        <time>2016-07-24T07:54:51.000Z</time>
      </trkpt>
      <trkpt lat="47.45364" lon="6.7097">
        <ele>405</ele>
        <time>2016-07-24T07:54:52.000Z</time>
      </trkpt>
      <trkpt lat="47.45369" lon="6.70978">
        <ele>405</ele>
        <time>2016-07-24T07:54:53.000Z</time>
      </trkpt>
      <trkpt lat="47.45374" lon="6.70986">
        <ele>405</ele>
        <time>2016-07-24T07:54:54.000Z</time>
      </trkpt>
      <trkpt lat="47.45379" lon="6.70992">
        <ele>404</ele>
        <time>2016-07-24T07:54:55.000Z</time>
      </trkpt>
      <trkpt lat="47.45384" lon="6.70999">
        <ele>403</ele>
        <time>2016-07-24T07:54:56.000Z</time>
      </trkpt>
      <trkpt lat="47.45389" lon="6.71005">
        <ele>404</ele>
        <time>2016-07-24T07:54:57.000Z</time>
      </trkpt>
      <trkpt lat="47.45394" lon="6.71012">
        <ele>404</ele>
        <time>2016-07-24T07:54:58.000Z</time>
      </trkpt>
      <trkpt lat="47.45399" lon="6.71019">
        <ele>403</ele>
        <time>2016-07-24T07:54:59.000Z</time>
      </trkpt>
      <trkpt lat="47.45403" lon="6.71025">
        <ele>404</ele>
        <time>2016-07-24T07:55:00.000Z</time>
      </trkpt>
      <trkpt lat="47.45406" lon="6.7103">
        <ele>404</ele>
        <time>2016-07-24T07:55:01.000Z</time>
      </trkpt>
      <trkpt lat="47.45409" lon="6.71034">
        <ele>404</ele>
        <time>2016-07-24T07:55:02.000Z</time>
      </trkpt>
      <trkpt lat="47.45411" lon="6.71037">
        <ele>404</ele>
        <time>2016-07-24T07:55:03.000Z</time>
      </trkpt>
      <trkpt lat="47.45415" lon="6.7104">
        <ele>404</ele>
        <time>2016-07-24T07:55:05.000Z</time>
      </trkpt>
      <trkpt lat="47.45417" lon="6.71042">
        <ele>404</ele>
        <time>2016-07-24T07:55:06.000Z</time>
      </trkpt>
      <trkpt lat="47.4542" lon="6.71043">
        <ele>395</ele>
        <time>2016-07-24T07:55:08.000Z</time>
      </trkpt>
      <trkpt lat="47.45422" lon="6.71044">
        <ele>395</ele>
        <time>2016-07-24T07:55:09.000Z</time>
      </trkpt>
      <trkpt lat="47.45423" lon="6.71045">
        <ele>395</ele>
        <time>2016-07-24T07:55:10.000Z</time>
      </trkpt>
      <trkpt lat="47.45427" lon="6.71048">
        <ele>395</ele>
        <time>2016-07-24T07:55:11.000Z</time>
      </trkpt>
      <trkpt lat="47.45429" lon="6.71052">
        <ele>395</ele>
        <time>2016-07-24T07:55:12.000Z</time>
      </trkpt>
      <trkpt lat="47.45432" lon="6.71055">
        <ele>395</ele>
        <time>2016-07-24T07:55:13.000Z</time>
      </trkpt>
      <trkpt lat="47.45437" lon="6.71058">
        <ele>395</ele>
        <time>2016-07-24T07:55:14.000Z</time>
      </trkpt>
      <trkpt lat="47.45441" lon="6.71062">
        <ele>395</ele>
        <time>2016-07-24T07:55:15.000Z</time>
      </trkpt>
      <trkpt lat="47.45445" lon="6.71065">
        <ele>394</ele>
        <time>2016-07-24T07:55:16.000Z</time>
      </trkpt>
      <trkpt lat="47.45448" lon="6.71066">
        <ele>394</ele>
        <time>2016-07-24T07:55:17.000Z</time>
      </trkpt>
      <trkpt lat="47.45451" lon="6.71068">
        <ele>394</ele>
        <time>2016-07-24T07:55:18.000Z</time>
      </trkpt>
      <trkpt lat="47.45455" lon="6.7107">
        <ele>393</ele>
        <time>2016-07-24T07:55:19.000Z</time>
      </trkpt>
      <trkpt lat="47.45458" lon="6.71072">
        <ele>393</ele>
        <time>2016-07-24T07:55:20.000Z</time>
      </trkpt>
      <trkpt lat="47.45462" lon="6.71075">
        <ele>393</ele>
        <time>2016-07-24T07:55:21.000Z</time>
      </trkpt>
      <trkpt lat="47.45465" lon="6.71078">
        <ele>392</ele>
        <time>2016-07-24T07:55:22.000Z</time>
      </trkpt>
      <trkpt lat="47.45468" lon="6.71081">
        <ele>392</ele>
        <time>2016-07-24T07:55:23.000Z</time>
      </trkpt>
      <trkpt lat="47.45472" lon="6.71083">
        <ele>391</ele>
        <time>2016-07-24T07:55:24.000Z</time>
      </trkpt>
      <trkpt lat="47.45475" lon="6.71086">
        <ele>391</ele>
        <time>2016-07-24T07:55:25.000Z</time>
      </trkpt>
      <trkpt lat="47.45477" lon="6.71088">
        <ele>390</ele>
        <time>2016-07-24T07:55:26.000Z</time>
      </trkpt>
      <trkpt lat="47.4548" lon="6.71091">
        <ele>390</ele>
        <time>2016-07-24T07:55:27.000Z</time>
      </trkpt>
      <trkpt lat="47.45483" lon="6.71094">
        <ele>390</ele>
        <time>2016-07-24T07:55:28.000Z</time>
      </trkpt>
      <trkpt lat="47.45487" lon="6.71096">
        <ele>389</ele>
        <time>2016-07-24T07:55:29.000Z</time>
      </trkpt>
      <trkpt lat="47.45491" lon="6.71099">
        <ele>389</ele>
        <time>2016-07-24T07:55:30.000Z</time>
      </trkpt>
      <trkpt lat="47.45495" lon="6.71102">
        <ele>389</ele>
        <time>2016-07-24T07:55:31.000Z</time>
      </trkpt>
      <trkpt lat="47.45502" lon="6.71106">
        <ele>382</ele>
        <time>2016-07-24T07:55:33.000Z</time>
      </trkpt>
      <trkpt lat="47.45506" lon="6.71109">
        <ele>382</ele>
        <time>2016-07-24T07:55:34.000Z</time>
      </trkpt>
      <trkpt lat="47.4551" lon="6.71112">
        <ele>381</ele>
        <time>2016-07-24T07:55:35.000Z</time>
      </trkpt>
      <trkpt lat="47.45514" lon="6.71115">
        <ele>381</ele>
        <time>2016-07-24T07:55:36.000Z</time>
      </trkpt>
      <trkpt lat="47.45517" lon="6.71117">
        <ele>381</ele>
        <time>2016-07-24T07:55:37.000Z</time>
      </trkpt>
      <trkpt lat="47.4552" lon="6.7112">
        <ele>381</ele>
        <time>2016-07-24T07:55:38.000Z</time>
      </trkpt>
      <trkpt lat="47.45524" lon="6.71123">
        <ele>381</ele>
        <time>2016-07-24T07:55:39.000Z</time>
      </trkpt>
      <trkpt lat="47.45527" lon="6.71126">
        <ele>380</ele>
        <time>2016-07-24T07:55:40.000Z</time>
      </trkpt>
      <trkpt lat="47.4553" lon="6.7113">
        <ele>380</ele>
        <time>2016-07-24T07:55:41.000Z</time>
      </trkpt>
      <trkpt lat="47.45533" lon="6.71133">
        <ele>380</ele>
        <time>2016-07-24T07:55:42.000Z</time>
      </trkpt>
      <trkpt lat="47.45537" lon="6.71137">
        <ele>379</ele>
        <time>2016-07-24T07:55:43.000Z</time>
      </trkpt>
      <trkpt lat="47.45541" lon="6.71139">
        <ele>379</ele>
        <time>2016-07-24T07:55:44.000Z</time>
      </trkpt>
      <trkpt lat="47.45545" lon="6.71142">
        <ele>379</ele>
        <time>2016-07-24T07:55:45.000Z</time>
      </trkpt>
      <trkpt lat="47.45549" lon="6.71144">
        <ele>378</ele>
        <time>2016-07-24T07:55:46.000Z</time>
      </trkpt>
      <trkpt lat="47.45553" lon="6.71147">
        <ele>377</ele>
        <time>2016-07-24T07:55:47.000Z</time>
      </trkpt>
      <trkpt lat="47.45557" lon="6.71149">
        <ele>377</ele>
        <time>2016-07-24T07:55:48.000Z</time>
      </trkpt>
      <trkpt lat="47.45561" lon="6.71152">
        <ele>376</ele>
        <time>2016-07-24T07:55:49.000Z</time>
      </trkpt>
      <trkpt lat="47.45567" lon="6.71154">
        <ele>375</ele>
        <time>2016-07-24T07:55:50.000Z</time>
      </trkpt>
      <trkpt lat="47.45572" lon="6.71156">
        <ele>373</ele>
        <time>2016-07-24T07:55:51.000Z</time>
      </trkpt>
      <trkpt lat="47.45578" lon="6.71158">
        <ele>372</ele>
        <time>2016-07-24T07:55:52.000Z</time>
      </trkpt>
      <trkpt lat="47.45584" lon="6.71159">
        <ele>369</ele>
        <time>2016-07-24T07:55:53.000Z</time>
      </trkpt>
      <trkpt lat="47.45591" lon="6.7116">
        <ele>369</ele>
        <time>2016-07-24T07:55:54.000Z</time>
      </trkpt>
      <trkpt lat="47.45597" lon="6.71161">
        <ele>370</ele>
        <time>2016-07-24T07:55:55.000Z</time>
      </trkpt>
      <trkpt lat="47.45615" lon="6.71158">
        <ele>371</ele>
        <time>2016-07-24T07:55:56.000Z</time>
      </trkpt>
      <trkpt lat="47.45622" lon="6.71158">
        <ele>371</ele>
        <time>2016-07-24T07:55:57.000Z</time>
      </trkpt>
      <trkpt lat="47.45628" lon="6.71159">
        <ele>370</ele>
        <time>2016-07-24T07:55:58.000Z</time>
      </trkpt>
      <trkpt lat="47.45634" lon="6.7116">
        <ele>370</ele>
        <time>2016-07-24T07:55:59.000Z</time>
      </trkpt>
      <trkpt lat="47.45639" lon="6.71157">
        <ele>369</ele>
        <time>2016-07-24T07:56:00.000Z</time>
      </trkpt>
      <trkpt lat="47.45643" lon="6.71156">
        <ele>369</ele>
        <time>2016-07-24T07:56:01.000Z</time>
      </trkpt>
      <trkpt lat="47.4565" lon="6.71151">
        <ele>369</ele>
        <time>2016-07-24T07:56:02.000Z</time>
      </trkpt>
      <trkpt lat="47.45654" lon="6.71149">
        <ele>369</ele>
        <time>2016-07-24T07:56:03.000Z</time>
      </trkpt>
      <trkpt lat="47.45658" lon="6.71147">
        <ele>369</ele>
        <time>2016-07-24T07:56:04.000Z</time>
      </trkpt>
      <trkpt lat="47.45663" lon="6.71145">
        <ele>369</ele>
        <time>2016-07-24T07:56:05.000Z</time>
      </trkpt>
      <trkpt lat="47.45667" lon="6.71142">
        <ele>369</ele>
        <time>2016-07-24T07:56:06.000Z</time>
      </trkpt>
      <trkpt lat="47.45673" lon="6.71138">
        <ele>365</ele>
        <time>2016-07-24T07:56:07.000Z</time>
      </trkpt>
      <trkpt lat="47.45678" lon="6.71135">
        <ele>365</ele>
        <time>2016-07-24T07:56:08.000Z</time>
      </trkpt>
      <trkpt lat="47.45685" lon="6.71131">
        <ele>365</ele>
        <time>2016-07-24T07:56:09.000Z</time>
      </trkpt>
      <trkpt lat="47.4569" lon="6.71124">
        <ele>366</ele>
        <time>2016-07-24T07:56:10.000Z</time>
      </trkpt>
      <trkpt lat="47.45694" lon="6.7112">
        <ele>366</ele>
        <time>2016-07-24T07:56:11.000Z</time>
      </trkpt>
      <trkpt lat="47.45698" lon="6.71115">
        <ele>366</ele>
        <time>2016-07-24T07:56:12.000Z</time>
      </trkpt>
      <trkpt lat="47.45701" lon="6.71113">
        <ele>366</ele>
        <time>2016-07-24T07:56:13.000Z</time>
      </trkpt>
      <trkpt lat="47.45706" lon="6.71112">
        <ele>366</ele>
        <time>2016-07-24T07:56:14.000Z</time>
      </trkpt>
      <trkpt lat="47.45711" lon="6.71107">
        <ele>366</ele>
        <time>2016-07-24T07:56:15.000Z</time>
      </trkpt>
      <trkpt lat="47.45714" lon="6.71105">
        <ele>365</ele>
        <time>2016-07-24T07:56:16.000Z</time>
      </trkpt>
      <trkpt lat="47.45717" lon="6.711">
        <ele>365</ele>
        <time>2016-07-24T07:56:17.000Z</time>
      </trkpt>
      <trkpt lat="47.45722" lon="6.71097">
        <ele>365</ele>
        <time>2016-07-24T07:56:18.000Z</time>
      </trkpt>
      <trkpt lat="47.45726" lon="6.71091">
        <ele>364</ele>
        <time>2016-07-24T07:56:19.000Z</time>
      </trkpt>
      <trkpt lat="47.4573" lon="6.71088">
        <ele>364</ele>
        <time>2016-07-24T07:56:20.000Z</time>
      </trkpt>
      <trkpt lat="47.45734" lon="6.71085">
        <ele>364</ele>
        <time>2016-07-24T07:56:21.000Z</time>
      </trkpt>
      <trkpt lat="47.45737" lon="6.71081">
        <ele>370</ele>
        <time>2016-07-24T07:56:22.000Z</time>
      </trkpt>
      <trkpt lat="47.4574" lon="6.71078">
        <ele>369</ele>
        <time>2016-07-24T07:56:23.000Z</time>
      </trkpt>
      <trkpt lat="47.45743" lon="6.71074">
        <ele>370</ele>
        <time>2016-07-24T07:56:24.000Z</time>
      </trkpt>
      <trkpt lat="47.45746" lon="6.71071">
        <ele>370</ele>
        <time>2016-07-24T07:56:25.000Z</time>
      </trkpt>
      <trkpt lat="47.45749" lon="6.71068">
        <ele>371</ele>
        <time>2016-07-24T07:56:26.000Z</time>
      </trkpt>
      <trkpt lat="47.45752" lon="6.71065">
        <ele>362</ele>
        <time>2016-07-24T07:56:27.000Z</time>
      </trkpt>
      <trkpt lat="47.45756" lon="6.71063">
        <ele>362</ele>
        <time>2016-07-24T07:56:28.000Z</time>
      </trkpt>
      <trkpt lat="47.4576" lon="6.7106">
        <ele>362</ele>
        <time>2016-07-24T07:56:29.000Z</time>
      </trkpt>
      <trkpt lat="47.45763" lon="6.71057">
        <ele>362</ele>
        <time>2016-07-24T07:56:30.000Z</time>
      </trkpt>
      <trkpt lat="47.45767" lon="6.71054">
        <ele>361</ele>
        <time>2016-07-24T07:56:31.000Z</time>
      </trkpt>
      <trkpt lat="47.45771" lon="6.71051">
        <ele>361</ele>
        <time>2016-07-24T07:56:32.000Z</time>
      </trkpt>
      <trkpt lat="47.45774" lon="6.71047">
        <ele>361</ele>
        <time>2016-07-24T07:56:33.000Z</time>
      </trkpt>
      <trkpt lat="47.45778" lon="6.71043">
        <ele>361</ele>
        <time>2016-07-24T07:56:34.000Z</time>
      </trkpt>
      <trkpt lat="47.45782" lon="6.71038">
        <ele>361</ele>
        <time>2016-07-24T07:56:35.000Z</time>
      </trkpt>
      <trkpt lat="47.45786" lon="6.71034">
        <ele>361</ele>
        <time>2016-07-24T07:56:36.000Z</time>
      </trkpt>
      <trkpt lat="47.45791" lon="6.7103">
        <ele>360</ele>
        <time>2016-07-24T07:56:37.000Z</time>
      </trkpt>
      <trkpt lat="47.45795" lon="6.71027">
        <ele>360</ele>
        <time>2016-07-24T07:56:38.000Z</time>
      </trkpt>
      <trkpt lat="47.458" lon="6.71024">
        <ele>359</ele>
        <time>2016-07-24T07:56:39.000Z</time>
      </trkpt>
      <trkpt lat="47.45815" lon="6.71017">
        <ele>357</ele>
        <time>2016-07-24T07:56:40.000Z</time>
      </trkpt>
      <trkpt lat="47.4582" lon="6.71016">
        <ele>356</ele>
        <time>2016-07-24T07:56:41.000Z</time>
      </trkpt>
      <trkpt lat="47.45825" lon="6.71006">
        <ele>354</ele>
        <time>2016-07-24T07:56:42.000Z</time>
      </trkpt>
      <trkpt lat="47.45833" lon="6.70997">
        <ele>353</ele>
        <time>2016-07-24T07:56:43.000Z</time>
      </trkpt>
      <trkpt lat="47.45838" lon="6.70984">
        <ele>350</ele>
        <time>2016-07-24T07:56:44.000Z</time>
      </trkpt>
      <trkpt lat="47.45843" lon="6.70975">
        <ele>350</ele>
        <time>2016-07-24T07:56:45.000Z</time>
      </trkpt>
      <trkpt lat="47.45849" lon="6.70965">
        <ele>350</ele>
        <time>2016-07-24T07:56:46.000Z</time>
      </trkpt>
      <trkpt lat="47.45852" lon="6.70961">
        <ele>350</ele>
        <time>2016-07-24T07:56:47.000Z</time>
      </trkpt>
      <trkpt lat="47.45854" lon="6.70953">
        <ele>351</ele>
        <time>2016-07-24T07:56:48.000Z</time>
      </trkpt>
      <trkpt lat="47.45856" lon="6.70945">
        <ele>352</ele>
        <time>2016-07-24T07:56:49.000Z</time>
      </trkpt>
      <trkpt lat="47.45857" lon="6.70939">
        <ele>352</ele>
        <time>2016-07-24T07:56:50.000Z</time>
      </trkpt>
      <trkpt lat="47.45857" lon="6.70934">
        <ele>353</ele>
        <time>2016-07-24T07:56:51.000Z</time>
      </trkpt>
      <trkpt lat="47.45862" lon="6.70931">
        <ele>352</ele>
        <time>2016-07-24T07:56:52.000Z</time>
      </trkpt>
      <trkpt lat="47.45864" lon="6.70923">
        <ele>352</ele>
        <time>2016-07-24T07:56:53.000Z</time>
      </trkpt>
      <trkpt lat="47.45865" lon="6.70914">
        <ele>358</ele>
        <time>2016-07-24T07:56:54.000Z</time>
      </trkpt>
      <trkpt lat="47.45867" lon="6.70905">
        <ele>358</ele>
        <time>2016-07-24T07:56:55.000Z</time>
      </trkpt>
      <trkpt lat="47.45868" lon="6.70896">
        <ele>357</ele>
        <time>2016-07-24T07:56:56.000Z</time>
      </trkpt>
      <trkpt lat="47.45869" lon="6.70888">
        <ele>358</ele>
        <time>2016-07-24T07:56:57.000Z</time>
      </trkpt>
      <trkpt lat="47.4587" lon="6.70882">
        <ele>358</ele>
        <time>2016-07-24T07:56:58.000Z</time>
      </trkpt>
      <trkpt lat="47.45871" lon="6.70877">
        <ele>358</ele>
        <time>2016-07-24T07:56:59.000Z</time>
      </trkpt>
      <trkpt lat="47.45872" lon="6.70872">
        <ele>358</ele>
        <time>2016-07-24T07:57:00.000Z</time>
      </trkpt>
      <trkpt lat="47.45872" lon="6.70868">
        <ele>358</ele>
        <time>2016-07-24T07:57:01.000Z</time>
      </trkpt>
      <trkpt lat="47.45872" lon="6.70864">
        <ele>358</ele>
        <time>2016-07-24T07:57:02.000Z</time>
      </trkpt>
      <trkpt lat="47.45873" lon="6.7086">
        <ele>358</ele>
        <time>2016-07-24T07:57:03.000Z</time>
      </trkpt>
      <trkpt lat="47.45874" lon="6.70855">
        <ele>359</ele>
        <time>2016-07-24T07:57:04.000Z</time>
      </trkpt>
      <trkpt lat="47.45875" lon="6.70851">
        <ele>359</ele>
        <time>2016-07-24T07:57:05.000Z</time>
      </trkpt>
      <trkpt lat="47.45875" lon="6.70846">
        <ele>359</ele>
        <time>2016-07-24T07:57:06.000Z</time>
      </trkpt>
      <trkpt lat="47.45876" lon="6.7084">
        <ele>359</ele>
        <time>2016-07-24T07:57:07.000Z</time>
      </trkpt>
      <trkpt lat="47.45877" lon="6.70834">
        <ele>359</ele>
        <time>2016-07-24T07:57:08.000Z</time>
      </trkpt>
      <trkpt lat="47.45877" lon="6.70827">
        <ele>361</ele>
        <time>2016-07-24T07:57:09.000Z</time>
      </trkpt>
      <trkpt lat="47.45877" lon="6.70821">
        <ele>361</ele>
        <time>2016-07-24T07:57:10.000Z</time>
      </trkpt>
      <trkpt lat="47.45877" lon="6.70815">
        <ele>361</ele>
        <time>2016-07-24T07:57:11.000Z</time>
      </trkpt>
      <trkpt lat="47.45877" lon="6.70809">
        <ele>361</ele>
        <time>2016-07-24T07:57:12.000Z</time>
      </trkpt>
      <trkpt lat="47.45875" lon="6.70794">
        <ele>362</ele>
        <time>2016-07-24T07:57:13.000Z</time>
      </trkpt>
      <trkpt lat="47.45873" lon="6.70787">
        <ele>362</ele>
        <time>2016-07-24T07:57:14.000Z</time>
      </trkpt>
      <trkpt lat="47.45873" lon="6.70782">
        <ele>362</ele>
        <time>2016-07-24T07:57:15.000Z</time>
      </trkpt>
      <trkpt lat="47.45873" lon="6.70778">
        <ele>362</ele>
        <time>2016-07-24T07:57:16.000Z</time>
      </trkpt>
      <trkpt lat="47.45873" lon="6.70773">
        <ele>362</ele>
        <time>2016-07-24T07:57:17.000Z</time>
      </trkpt>
      <trkpt lat="47.45872" lon="6.70769">
        <ele>362</ele>
        <time>2016-07-24T07:57:18.000Z</time>
      </trkpt>
      <trkpt lat="47.45872" lon="6.70761">
        <ele>362</ele>
        <time>2016-07-24T07:57:19.000Z</time>
      </trkpt>
      <trkpt lat="47.45872" lon="6.70755">
        <ele>362</ele>
        <time>2016-07-24T07:57:20.000Z</time>
      </trkpt>
      <trkpt lat="47.45873" lon="6.70751">
        <ele>362</ele>
        <time>2016-07-24T07:57:21.000Z</time>
      </trkpt>
      <trkpt lat="47.45874" lon="6.70742">
        <ele>359</ele>
        <time>2016-07-24T07:57:22.000Z</time>
      </trkpt>
      <trkpt lat="47.45875" lon="6.70736">
        <ele>359</ele>
        <time>2016-07-24T07:57:23.000Z</time>
      </trkpt>
      <trkpt lat="47.45875" lon="6.70732">
        <ele>359</ele>
        <time>2016-07-24T07:57:24.000Z</time>
      </trkpt>
      <trkpt lat="47.45876" lon="6.70728">
        <ele>358</ele>
        <time>2016-07-24T07:57:25.000Z</time>
      </trkpt>
      <trkpt lat="47.45876" lon="6.70722">
        <ele>358</ele>
        <time>2016-07-24T07:57:26.000Z</time>
      </trkpt>
      <trkpt lat="47.45875" lon="6.70717">
        <ele>358</ele>
        <time>2016-07-24T07:57:27.000Z</time>
      </trkpt>
      <trkpt lat="47.45874" lon="6.70712">
        <ele>358</ele>
        <time>2016-07-24T07:57:28.000Z</time>
      </trkpt>
      <trkpt lat="47.45873" lon="6.70707">
        <ele>358</ele>
        <time>2016-07-24T07:57:29.000Z</time>
      </trkpt>
      <trkpt lat="47.45872" lon="6.70701">
        <ele>358</ele>
        <time>2016-07-24T07:57:30.000Z</time>
      </trkpt>
      <trkpt lat="47.4587" lon="6.70694">
        <ele>358</ele>
        <time>2016-07-24T07:57:31.000Z</time>
      </trkpt>
      <trkpt lat="47.45869" lon="6.70688">
        <ele>358</ele>
        <time>2016-07-24T07:57:32.000Z</time>
      </trkpt>
      <trkpt lat="47.45867" lon="6.70681">
        <ele>359</ele>
        <time>2016-07-24T07:57:33.000Z</time>
      </trkpt>
      <trkpt lat="47.45865" lon="6.70674">
        <ele>359</ele>
        <time>2016-07-24T07:57:34.000Z</time>
      </trkpt>
      <trkpt lat="47.45864" lon="6.70667">
        <ele>356</ele>
        <time>2016-07-24T07:57:35.000Z</time>
      </trkpt>
      <trkpt lat="47.45862" lon="6.70659">
        <ele>356</ele>
        <time>2016-07-24T07:57:36.000Z</time>
      </trkpt>
      <trkpt lat="47.45862" lon="6.70651">
        <ele>356</ele>
        <time>2016-07-24T07:57:37.000Z</time>
      </trkpt>
      <trkpt lat="47.45862" lon="6.70644">
        <ele>355</ele>
        <time>2016-07-24T07:57:38.000Z</time>
      </trkpt>
      <trkpt lat="47.45862" lon="6.70638">
        <ele>355</ele>
        <time>2016-07-24T07:57:39.000Z</time>
      </trkpt>
      <trkpt lat="47.45862" lon="6.70634">
        <ele>354</ele>
        <time>2016-07-24T07:57:40.000Z</time>
      </trkpt>
      <trkpt lat="47.45861" lon="6.70628">
        <ele>354</ele>
        <time>2016-07-24T07:57:44.000Z</time>
      </trkpt>
      <trkpt lat="47.45861" lon="6.70627">
        <ele>354</ele>
        <time>2016-07-24T07:57:45.000Z</time>
      </trkpt>
      <trkpt lat="47.45862" lon="6.70623">
        <ele>354</ele>
        <time>2016-07-24T07:57:51.000Z</time>
      </trkpt>
      <trkpt lat="47.45864" lon="6.7062">
        <ele>353</ele>
        <time>2016-07-24T07:57:52.000Z</time>
      </trkpt>
      <trkpt lat="47.45865" lon="6.70617">
        <ele>353</ele>
        <time>2016-07-24T07:57:53.000Z</time>
      </trkpt>
      <trkpt lat="47.45866" lon="6.70614">
        <ele>353</ele>
        <time>2016-07-24T07:57:54.000Z</time>
      </trkpt>
      <trkpt lat="47.45868" lon="6.70611">
        <ele>352</ele>
        <time>2016-07-24T07:57:55.000Z</time>
      </trkpt>
      <trkpt lat="47.4587" lon="6.70608">
        <ele>352</ele>
        <time>2016-07-24T07:57:56.000Z</time>
      </trkpt>
      <trkpt lat="47.45871" lon="6.70605">
        <ele>352</ele>
        <time>2016-07-24T07:57:57.000Z</time>
      </trkpt>
      <trkpt lat="47.45875" lon="6.70594">
        <ele>351</ele>
        <time>2016-07-24T07:57:58.000Z</time>
      </trkpt>
      <trkpt lat="47.45877" lon="6.70588">
        <ele>350</ele>
        <time>2016-07-24T07:57:59.000Z</time>
      </trkpt>
      <trkpt lat="47.45879" lon="6.70586">
        <ele>349</ele>
        <time>2016-07-24T07:58:00.000Z</time>
      </trkpt>
      <trkpt lat="47.45881" lon="6.70581">
        <ele>345</ele>
        <time>2016-07-24T07:58:01.000Z</time>
      </trkpt>
      <trkpt lat="47.45882" lon="6.70577">
        <ele>345</ele>
        <time>2016-07-24T07:58:02.000Z</time>
      </trkpt>
      <trkpt lat="47.45885" lon="6.70573">
        <ele>344</ele>
        <time>2016-07-24T07:58:03.000Z</time>
      </trkpt>
      <trkpt lat="47.45886" lon="6.70567">
        <ele>344</ele>
        <time>2016-07-24T07:58:04.000Z</time>
      </trkpt>
      <trkpt lat="47.45888" lon="6.70562">
        <ele>344</ele>
        <time>2016-07-24T07:58:05.000Z</time>
      </trkpt>
      <trkpt lat="47.45889" lon="6.70549">
        <ele>344</ele>
        <time>2016-07-24T07:58:06.000Z</time>
      </trkpt>
      <trkpt lat="47.4589" lon="6.70535">
        <ele>343</ele>
        <time>2016-07-24T07:58:07.000Z</time>
      </trkpt>
      <trkpt lat="47.45889" lon="6.70521">
        <ele>342</ele>
        <time>2016-07-24T07:58:08.000Z</time>
      </trkpt>
      <trkpt lat="47.4589" lon="6.70498">
        <ele>338</ele>
        <time>2016-07-24T07:58:09.000Z</time>
      </trkpt>
      <trkpt lat="47.45887" lon="6.70485">
        <ele>338</ele>
        <time>2016-07-24T07:58:10.000Z</time>
      </trkpt>
      <trkpt lat="47.45886" lon="6.70475">
        <ele>338</ele>
        <time>2016-07-24T07:58:11.000Z</time>
      </trkpt>
      <trkpt lat="47.45885" lon="6.70463">
        <ele>338</ele>
        <time>2016-07-24T07:58:12.000Z</time>
      </trkpt>
      <trkpt lat="47.45882" lon="6.70454">
        <ele>338</ele>
        <time>2016-07-24T07:58:13.000Z</time>
      </trkpt>
      <trkpt lat="47.45878" lon="6.70439">
        <ele>337</ele>
        <time>2016-07-24T07:58:14.000Z</time>
      </trkpt>
      <trkpt lat="47.45877" lon="6.70424">
        <ele>337</ele>
        <time>2016-07-24T07:58:15.000Z</time>
      </trkpt>
      <trkpt lat="47.45875" lon="6.70407">
        <ele>333</ele>
        <time>2016-07-24T07:58:16.000Z</time>
      </trkpt>
      <trkpt lat="47.45873" lon="6.70391">
        <ele>332</ele>
        <time>2016-07-24T07:58:17.000Z</time>
      </trkpt>
      <trkpt lat="47.4587" lon="6.70373">
        <ele>332</ele>
        <time>2016-07-24T07:58:18.000Z</time>
      </trkpt>
      <trkpt lat="47.45865" lon="6.70364">
        <ele>332</ele>
        <time>2016-07-24T07:58:19.000Z</time>
      </trkpt>
      <trkpt lat="47.45862" lon="6.70353">
        <ele>331</ele>
        <time>2016-07-24T07:58:20.000Z</time>
      </trkpt>
      <trkpt lat="47.45857" lon="6.70345">
        <ele>331</ele>
        <time>2016-07-24T07:58:21.000Z</time>
      </trkpt>
      <trkpt lat="47.45858" lon="6.70335">
        <ele>331</ele>
        <time>2016-07-24T07:58:22.000Z</time>
      </trkpt>
      <trkpt lat="47.45855" lon="6.70326">
        <ele>328</ele>
        <time>2016-07-24T07:58:23.000Z</time>
      </trkpt>
      <trkpt lat="47.45853" lon="6.7032">
        <ele>328</ele>
        <time>2016-07-24T07:58:24.000Z</time>
      </trkpt>
      <trkpt lat="47.45849" lon="6.7031">
        <ele>328</ele>
        <time>2016-07-24T07:58:25.000Z</time>
      </trkpt>
      <trkpt lat="47.45845" lon="6.703">
        <ele>327</ele>
        <time>2016-07-24T07:58:26.000Z</time>
      </trkpt>
      <trkpt lat="47.45842" lon="6.70292">
        <ele>327</ele>
        <time>2016-07-24T07:58:27.000Z</time>
      </trkpt>
      <trkpt lat="47.45839" lon="6.70285">
        <ele>327</ele>
        <time>2016-07-24T07:58:28.000Z</time>
      </trkpt>
      <trkpt lat="47.45836" lon="6.70278">
        <ele>326</ele>
        <time>2016-07-24T07:58:29.000Z</time>
      </trkpt>
      <trkpt lat="47.45835" lon="6.70273">
        <ele>326</ele>
        <time>2016-07-24T07:58:30.000Z</time>
      </trkpt>
      <trkpt lat="47.45832" lon="6.70267">
        <ele>328</ele>
        <time>2016-07-24T07:58:31.000Z</time>
      </trkpt>
      <trkpt lat="47.4583" lon="6.70262">
        <ele>327</ele>
        <time>2016-07-24T07:58:32.000Z</time>
      </trkpt>
      <trkpt lat="47.45828" lon="6.70256">
        <ele>327</ele>
        <time>2016-07-24T07:58:33.000Z</time>
      </trkpt>
      <trkpt lat="47.45826" lon="6.70251">
        <ele>326</ele>
        <time>2016-07-24T07:58:34.000Z</time>
      </trkpt>
      <trkpt lat="47.45824" lon="6.70245">
        <ele>325</ele>
        <time>2016-07-24T07:58:35.000Z</time>
      </trkpt>
      <trkpt lat="47.45822" lon="6.70239">
        <ele>325</ele>
        <time>2016-07-24T07:58:36.000Z</time>
      </trkpt>
      <trkpt lat="47.45821" lon="6.70234">
        <ele>325</ele>
        <time>2016-07-24T07:58:37.000Z</time>
      </trkpt>
      <trkpt lat="47.45819" lon="6.70225">
        <ele>325</ele>
        <time>2016-07-24T07:58:38.000Z</time>
      </trkpt>
      <trkpt lat="47.45817" lon="6.70214">
        <ele>325</ele>
        <time>2016-07-24T07:58:39.000Z</time>
      </trkpt>
      <trkpt lat="47.45813" lon="6.70207">
        <ele>325</ele>
        <time>2016-07-24T07:58:40.000Z</time>
      </trkpt>
      <trkpt lat="47.45808" lon="6.702">
        <ele>325</ele>
        <time>2016-07-24T07:58:41.000Z</time>
      </trkpt>
      <trkpt lat="47.45804" lon="6.70192">
        <ele>325</ele>
        <time>2016-07-24T07:58:42.000Z</time>
      </trkpt>
      <trkpt lat="47.45799" lon="6.70184">
        <ele>325</ele>
        <time>2016-07-24T07:58:43.000Z</time>
      </trkpt>
      <trkpt lat="47.45797" lon="6.70177">
        <ele>325</ele>
        <time>2016-07-24T07:58:44.000Z</time>
      </trkpt>
      <trkpt lat="47.45795" lon="6.7017">
        <ele>325</ele>
        <time>2016-07-24T07:58:45.000Z</time>
      </trkpt>
      <trkpt lat="47.45791" lon="6.70164">
        <ele>323</ele>
        <time>2016-07-24T07:58:46.000Z</time>
      </trkpt>
      <trkpt lat="47.45789" lon="6.70157">
        <ele>323</ele>
        <time>2016-07-24T07:58:47.000Z</time>
      </trkpt>
      <trkpt lat="47.45785" lon="6.70151">
        <ele>323</ele>
        <time>2016-07-24T07:58:48.000Z</time>
      </trkpt>
      <trkpt lat="47.45781" lon="6.70145">
        <ele>323</ele>
        <time>2016-07-24T07:58:49.000Z</time>
      </trkpt>
      <trkpt lat="47.45778" lon="6.70139">
        <ele>323</ele>
        <time>2016-07-24T07:58:50.000Z</time>
      </trkpt>
      <trkpt lat="47.45775" lon="6.70132">
        <ele>323</ele>
        <time>2016-07-24T07:58:51.000Z</time>
      </trkpt>
      <trkpt lat="47.45774" lon="6.70126">
        <ele>323</ele>
        <time>2016-07-24T07:58:52.000Z</time>
      </trkpt>
      <trkpt lat="47.45773" lon="6.7012">
        <ele>323</ele>
        <time>2016-07-24T07:58:53.000Z</time>
      </trkpt>
      <trkpt lat="47.45768" lon="6.70113">
        <ele>323</ele>
        <time>2016-07-24T07:58:54.000Z</time>
      </trkpt>
      <trkpt lat="47.45766" lon="6.70108">
        <ele>323</ele>
        <time>2016-07-24T07:58:55.000Z</time>
      </trkpt>
      <trkpt lat="47.45763" lon="6.70103">
        <ele>323</ele>
        <time>2016-07-24T07:58:56.000Z</time>
      </trkpt>
      <trkpt lat="47.45761" lon="6.70098">
        <ele>323</ele>
        <time>2016-07-24T07:58:57.000Z</time>
      </trkpt>
      <trkpt lat="47.45754" lon="6.70092">
        <ele>323</ele>
        <time>2016-07-24T07:58:58.000Z</time>
      </trkpt>
      <trkpt lat="47.45753" lon="6.70085">
        <ele>323</ele>
        <time>2016-07-24T07:58:59.000Z</time>
      </trkpt>
      <trkpt lat="47.45751" lon="6.70079">
        <ele>322</ele>
        <time>2016-07-24T07:59:00.000Z</time>
      </trkpt>
      <trkpt lat="47.45749" lon="6.70072">
        <ele>325</ele>
        <time>2016-07-24T07:59:01.000Z</time>
      </trkpt>
      <trkpt lat="47.45747" lon="6.70064">
        <ele>326</ele>
        <time>2016-07-24T07:59:02.000Z</time>
      </trkpt>
      <trkpt lat="47.45744" lon="6.70056">
        <ele>326</ele>
        <time>2016-07-24T07:59:03.000Z</time>
      </trkpt>
      <trkpt lat="47.45741" lon="6.70048">
        <ele>326</ele>
        <time>2016-07-24T07:59:04.000Z</time>
      </trkpt>
      <trkpt lat="47.45737" lon="6.70041">
        <ele>326</ele>
        <time>2016-07-24T07:59:05.000Z</time>
      </trkpt>
      <trkpt lat="47.45735" lon="6.70034">
        <ele>326</ele>
        <time>2016-07-24T07:59:06.000Z</time>
      </trkpt>
      <trkpt lat="47.45733" lon="6.70027">
        <ele>326</ele>
        <time>2016-07-24T07:59:07.000Z</time>
      </trkpt>
      <trkpt lat="47.45731" lon="6.70018">
        <ele>325</ele>
        <time>2016-07-24T07:59:08.000Z</time>
      </trkpt>
      <trkpt lat="47.45727" lon="6.7001">
        <ele>325</ele>
        <time>2016-07-24T07:59:09.000Z</time>
      </trkpt>
      <trkpt lat="47.45725" lon="6.70002">
        <ele>325</ele>
        <time>2016-07-24T07:59:10.000Z</time>
      </trkpt>
      <trkpt lat="47.45723" lon="6.69994">
        <ele>323</ele>
        <time>2016-07-24T07:59:11.000Z</time>
      </trkpt>
      <trkpt lat="47.45722" lon="6.69986">
        <ele>323</ele>
        <time>2016-07-24T07:59:12.000Z</time>
      </trkpt>
      <trkpt lat="47.4572" lon="6.69978">
        <ele>323</ele>
        <time>2016-07-24T07:59:13.000Z</time>
      </trkpt>
      <trkpt lat="47.45718" lon="6.69971">
        <ele>323</ele>
        <time>2016-07-24T07:59:14.000Z</time>
      </trkpt>
      <trkpt lat="47.45715" lon="6.69963">
        <ele>324</ele>
        <time>2016-07-24T07:59:15.000Z</time>
      </trkpt>
      <trkpt lat="47.45712" lon="6.69955">
        <ele>324</ele>
        <time>2016-07-24T07:59:16.000Z</time>
      </trkpt>
      <trkpt lat="47.45711" lon="6.69948">
        <ele>324</ele>
        <time>2016-07-24T07:59:17.000Z</time>
      </trkpt>
      <trkpt lat="47.45709" lon="6.6994">
        <ele>324</ele>
        <time>2016-07-24T07:59:18.000Z</time>
      </trkpt>
      <trkpt lat="47.45706" lon="6.69933">
        <ele>324</ele>
        <time>2016-07-24T07:59:19.000Z</time>
      </trkpt>
      <trkpt lat="47.45703" lon="6.69926">
        <ele>324</ele>
        <time>2016-07-24T07:59:20.000Z</time>
      </trkpt>
      <trkpt lat="47.457" lon="6.69918">
        <ele>324</ele>
        <time>2016-07-24T07:59:21.000Z</time>
      </trkpt>
      <trkpt lat="47.45697" lon="6.6991">
        <ele>322</ele>
        <time>2016-07-24T07:59:22.000Z</time>
      </trkpt>
      <trkpt lat="47.45694" lon="6.69902">
        <ele>322</ele>
        <time>2016-07-24T07:59:23.000Z</time>
      </trkpt>
      <trkpt lat="47.45691" lon="6.69895">
        <ele>322</ele>
        <time>2016-07-24T07:59:24.000Z</time>
      </trkpt>
      <trkpt lat="47.45688" lon="6.69887">
        <ele>322</ele>
        <time>2016-07-24T07:59:25.000Z</time>
      </trkpt>
      <trkpt lat="47.45685" lon="6.69879">
        <ele>322</ele>
        <time>2016-07-24T07:59:26.000Z</time>
      </trkpt>
      <trkpt lat="47.45682" lon="6.69872">
        <ele>321</ele>
        <time>2016-07-24T07:59:27.000Z</time>
      </trkpt>
      <trkpt lat="47.4568" lon="6.69865">
        <ele>321</ele>
        <time>2016-07-24T07:59:28.000Z</time>
      </trkpt>
      <trkpt lat="47.45677" lon="6.69858">
        <ele>321</ele>
        <time>2016-07-24T07:59:29.000Z</time>
      </trkpt>
      <trkpt lat="47.45674" lon="6.69851">
        <ele>321</ele>
        <time>2016-07-24T07:59:30.000Z</time>
      </trkpt>
      <trkpt lat="47.45672" lon="6.69844">
        <ele>321</ele>
        <time>2016-07-24T07:59:31.000Z</time>
      </trkpt>
      <trkpt lat="47.45668" lon="6.69838">
        <ele>322</ele>
        <time>2016-07-24T07:59:32.000Z</time>
      </trkpt>
      <trkpt lat="47.45665" lon="6.69832">
        <ele>322</ele>
        <time>2016-07-24T07:59:33.000Z</time>
      </trkpt>
      <trkpt lat="47.45662" lon="6.69826">
        <ele>321</ele>
        <time>2016-07-24T07:59:34.000Z</time>
      </trkpt>
      <trkpt lat="47.45657" lon="6.6982">
        <ele>321</ele>
        <time>2016-07-24T07:59:35.000Z</time>
      </trkpt>
      <trkpt lat="47.45653" lon="6.69813">
        <ele>321</ele>
        <time>2016-07-24T07:59:36.000Z</time>
      </trkpt>
      <trkpt lat="47.45651" lon="6.69807">
        <ele>320</ele>
        <time>2016-07-24T07:59:37.000Z</time>
      </trkpt>
      <trkpt lat="47.45649" lon="6.69801">
        <ele>320</ele>
        <time>2016-07-24T07:59:38.000Z</time>
      </trkpt>
      <trkpt lat="47.45643" lon="6.69795">
        <ele>320</ele>
        <time>2016-07-24T07:59:39.000Z</time>
      </trkpt>
      <trkpt lat="47.45638" lon="6.6979">
        <ele>320</ele>
        <time>2016-07-24T07:59:40.000Z</time>
      </trkpt>
      <trkpt lat="47.45634" lon="6.69784">
        <ele>320</ele>
        <time>2016-07-24T07:59:41.000Z</time>
      </trkpt>
      <trkpt lat="47.4563" lon="6.6978">
        <ele>320</ele>
        <time>2016-07-24T07:59:42.000Z</time>
      </trkpt>
      <trkpt lat="47.45626" lon="6.69776">
        <ele>319</ele>
        <time>2016-07-24T07:59:43.000Z</time>
      </trkpt>
      <trkpt lat="47.45623" lon="6.69772">
        <ele>319</ele>
        <time>2016-07-24T07:59:44.000Z</time>
      </trkpt>
      <trkpt lat="47.45621" lon="6.6977">
        <ele>319</ele>
        <time>2016-07-24T07:59:45.000Z</time>
      </trkpt>
      <trkpt lat="47.45619" lon="6.69767">
        <ele>319</ele>
        <time>2016-07-24T07:59:47.000Z</time>
      </trkpt>
      <trkpt lat="47.45617" lon="6.69765">
        <ele>319</ele>
        <time>2016-07-24T07:59:48.000Z</time>
      </trkpt>
      <trkpt lat="47.45616" lon="6.69761">
        <ele>319</ele>
        <time>2016-07-24T07:59:51.000Z</time>
      </trkpt>
      <trkpt lat="47.45615" lon="6.69759">
        <ele>319</ele>
        <time>2016-07-24T07:59:52.000Z</time>
      </trkpt>
      <trkpt lat="47.45613" lon="6.69758">
        <ele>319</ele>
        <time>2016-07-24T07:59:53.000Z</time>
      </trkpt>
      <trkpt lat="47.45611" lon="6.69756">
        <ele>319</ele>
        <time>2016-07-24T07:59:54.000Z</time>
      </trkpt>
      <trkpt lat="47.45608" lon="6.69755">
        <ele>319</ele>
        <time>2016-07-24T07:59:55.000Z</time>
      </trkpt>
      <trkpt lat="47.45606" lon="6.69754">
        <ele>319</ele>
        <time>2016-07-24T07:59:56.000Z</time>
      </trkpt>
      <trkpt lat="47.45603" lon="6.69752">
        <ele>319</ele>
        <time>2016-07-24T07:59:57.000Z</time>
      </trkpt>
      <trkpt lat="47.456" lon="6.6975">
        <ele>317</ele>
        <time>2016-07-24T07:59:58.000Z</time>
      </trkpt>
      <trkpt lat="47.45596" lon="6.69747">
        <ele>317</ele>
        <time>2016-07-24T07:59:59.000Z</time>
      </trkpt>
      <trkpt lat="47.45592" lon="6.69745">
        <ele>317</ele>
        <time>2016-07-24T08:00:00.000Z</time>
      </trkpt>
      <trkpt lat="47.45587" lon="6.69742">
        <ele>317</ele>
        <time>2016-07-24T08:00:01.000Z</time>
      </trkpt>
      <trkpt lat="47.45583" lon="6.69738">
        <ele>317</ele>
        <time>2016-07-24T08:00:02.000Z</time>
      </trkpt>
      <trkpt lat="47.45575" lon="6.69734">
        <ele>317</ele>
        <time>2016-07-24T08:00:03.000Z</time>
      </trkpt>
      <trkpt lat="47.45571" lon="6.69731">
        <ele>317</ele>
        <time>2016-07-24T08:00:04.000Z</time>
      </trkpt>
      <trkpt lat="47.45568" lon="6.69728">
        <ele>317</ele>
        <time>2016-07-24T08:00:05.000Z</time>
      </trkpt>
      <trkpt lat="47.45563" lon="6.69725">
        <ele>317</ele>
        <time>2016-07-24T08:00:06.000Z</time>
      </trkpt>
      <trkpt lat="47.45559" lon="6.69722">
        <ele>317</ele>
        <time>2016-07-24T08:00:07.000Z</time>
      </trkpt>
      <trkpt lat="47.45555" lon="6.69719">
        <ele>317</ele>
        <time>2016-07-24T08:00:08.000Z</time>
      </trkpt>
      <trkpt lat="47.45551" lon="6.69714">
        <ele>317</ele>
        <time>2016-07-24T08:00:09.000Z</time>
      </trkpt>
      <trkpt lat="47.45548" lon="6.6971">
        <ele>317</ele>
        <time>2016-07-24T08:00:10.000Z</time>
      </trkpt>
      <trkpt lat="47.45544" lon="6.69706">
        <ele>316</ele>
        <time>2016-07-24T08:00:11.000Z</time>
      </trkpt>
      <trkpt lat="47.45539" lon="6.69702">
        <ele>316</ele>
        <time>2016-07-24T08:00:12.000Z</time>
      </trkpt>
      <trkpt lat="47.45535" lon="6.69698">
        <ele>316</ele>
        <time>2016-07-24T08:00:13.000Z</time>
      </trkpt>
      <trkpt lat="47.4553" lon="6.69694">
        <ele>316</ele>
        <time>2016-07-24T08:00:14.000Z</time>
      </trkpt>
      <trkpt lat="47.45525" lon="6.6969">
        <ele>316</ele>
        <time>2016-07-24T08:00:15.000Z</time>
      </trkpt>
      <trkpt lat="47.45521" lon="6.69685">
        <ele>316</ele>
        <time>2016-07-24T08:00:16.000Z</time>
      </trkpt>
      <trkpt lat="47.45516" lon="6.69681">
        <ele>316</ele>
        <time>2016-07-24T08:00:17.000Z</time>
      </trkpt>
      <trkpt lat="47.4551" lon="6.69676">
        <ele>316</ele>
        <time>2016-07-24T08:00:18.000Z</time>
      </trkpt>
      <trkpt lat="47.45506" lon="6.69671">
        <ele>315</ele>
        <time>2016-07-24T08:00:19.000Z</time>
      </trkpt>
      <trkpt lat="47.45502" lon="6.69667">
        <ele>315</ele>
        <time>2016-07-24T08:00:20.000Z</time>
      </trkpt>
      <trkpt lat="47.45498" lon="6.69663">
        <ele>315</ele>
        <time>2016-07-24T08:00:21.000Z</time>
      </trkpt>
      <trkpt lat="47.45494" lon="6.69658">
        <ele>315</ele>
        <time>2016-07-24T08:00:22.000Z</time>
      </trkpt>
      <trkpt lat="47.4549" lon="6.69653">
        <ele>315</ele>
        <time>2016-07-24T08:00:23.000Z</time>
      </trkpt>
      <trkpt lat="47.45486" lon="6.69648">
        <ele>315</ele>
        <time>2016-07-24T08:00:24.000Z</time>
      </trkpt>
      <trkpt lat="47.45482" lon="6.69643">
        <ele>315</ele>
        <time>2016-07-24T08:00:25.000Z</time>
      </trkpt>
      <trkpt lat="47.45478" lon="6.69637">
        <ele>315</ele>
        <time>2016-07-24T08:00:26.000Z</time>
      </trkpt>
      <trkpt lat="47.45474" lon="6.69632">
        <ele>315</ele>
        <time>2016-07-24T08:00:27.000Z</time>
      </trkpt>
      <trkpt lat="47.45471" lon="6.69627">
        <ele>315</ele>
        <time>2016-07-24T08:00:28.000Z</time>
      </trkpt>
      <trkpt lat="47.45467" lon="6.69622">
        <ele>315</ele>
        <time>2016-07-24T08:00:29.000Z</time>
      </trkpt>
      <trkpt lat="47.45462" lon="6.69617">
        <ele>315</ele>
        <time>2016-07-24T08:00:30.000Z</time>
      </trkpt>
      <trkpt lat="47.45457" lon="6.69612">
        <ele>315</ele>
        <time>2016-07-24T08:00:31.000Z</time>
      </trkpt>
      <trkpt lat="47.45453" lon="6.69606">
        <ele>315</ele>
        <time>2016-07-24T08:00:32.000Z</time>
      </trkpt>
      <trkpt lat="47.45449" lon="6.69601">
        <ele>315</ele>
        <time>2016-07-24T08:00:33.000Z</time>
      </trkpt>
      <trkpt lat="47.45445" lon="6.69596">
        <ele>315</ele>
        <time>2016-07-24T08:00:34.000Z</time>
      </trkpt>
      <trkpt lat="47.45441" lon="6.69591">
        <ele>315</ele>
        <time>2016-07-24T08:00:35.000Z</time>
      </trkpt>
      <trkpt lat="47.45437" lon="6.69585">
        <ele>315</ele>
        <time>2016-07-24T08:00:36.000Z</time>
      </trkpt>
      <trkpt lat="47.45433" lon="6.6958">
        <ele>313</ele>
        <time>2016-07-24T08:00:37.000Z</time>
      </trkpt>
      <trkpt lat="47.45429" lon="6.69576">
        <ele>313</ele>
        <time>2016-07-24T08:00:38.000Z</time>
      </trkpt>
      <trkpt lat="47.45424" lon="6.69571">
        <ele>313</ele>
        <time>2016-07-24T08:00:39.000Z</time>
      </trkpt>
      <trkpt lat="47.4542" lon="6.69565">
        <ele>312</ele>
        <time>2016-07-24T08:00:40.000Z</time>
      </trkpt>
      <trkpt lat="47.45416" lon="6.6956">
        <ele>314</ele>
        <time>2016-07-24T08:00:41.000Z</time>
      </trkpt>
      <trkpt lat="47.45412" lon="6.69554">
        <ele>314</ele>
        <time>2016-07-24T08:00:42.000Z</time>
      </trkpt>
      <trkpt lat="47.45407" lon="6.69549">
        <ele>314</ele>
        <time>2016-07-24T08:00:43.000Z</time>
      </trkpt>
      <trkpt lat="47.45403" lon="6.69543">
        <ele>313</ele>
        <time>2016-07-24T08:00:44.000Z</time>
      </trkpt>
      <trkpt lat="47.45398" lon="6.69538">
        <ele>313</ele>
        <time>2016-07-24T08:00:45.000Z</time>
      </trkpt>
      <trkpt lat="47.45394" lon="6.69532">
        <ele>313</ele>
        <time>2016-07-24T08:00:46.000Z</time>
      </trkpt>
      <trkpt lat="47.4539" lon="6.69527">
        <ele>313</ele>
        <time>2016-07-24T08:00:47.000Z</time>
      </trkpt>
      <trkpt lat="47.45386" lon="6.69522">
        <ele>313</ele>
        <time>2016-07-24T08:00:48.000Z</time>
      </trkpt>
      <trkpt lat="47.45382" lon="6.69517">
        <ele>313</ele>
        <time>2016-07-24T08:00:49.000Z</time>
      </trkpt>
      <trkpt lat="47.45378" lon="6.69512">
        <ele>313</ele>
        <time>2016-07-24T08:00:50.000Z</time>
      </trkpt>
      <trkpt lat="47.45374" lon="6.69507">
        <ele>313</ele>
        <time>2016-07-24T08:00:51.000Z</time>
      </trkpt>
      <trkpt lat="47.45369" lon="6.69501">
        <ele>313</ele>
        <time>2016-07-24T08:00:52.000Z</time>
      </trkpt>
      <trkpt lat="47.45366" lon="6.69496">
        <ele>310</ele>
        <time>2016-07-24T08:00:53.000Z</time>
      </trkpt>
      <trkpt lat="47.45362" lon="6.6949">
        <ele>311</ele>
        <time>2016-07-24T08:00:54.000Z</time>
      </trkpt>
      <trkpt lat="47.45358" lon="6.69484">
        <ele>311</ele>
        <time>2016-07-24T08:00:55.000Z</time>
      </trkpt>
      <trkpt lat="47.45354" lon="6.69477">
        <ele>310</ele>
        <time>2016-07-24T08:00:56.000Z</time>
      </trkpt>
      <trkpt lat="47.4535" lon="6.6947">
        <ele>310</ele>
        <time>2016-07-24T08:00:57.000Z</time>
      </trkpt>
      <trkpt lat="47.45346" lon="6.69464">
        <ele>310</ele>
        <time>2016-07-24T08:00:58.000Z</time>
      </trkpt>
      <trkpt lat="47.45342" lon="6.69457">
        <ele>310</ele>
        <time>2016-07-24T08:00:59.000Z</time>
      </trkpt>
      <trkpt lat="47.45338" lon="6.6945">
        <ele>310</ele>
        <time>2016-07-24T08:01:00.000Z</time>
      </trkpt>
      <trkpt lat="47.45334" lon="6.69444">
        <ele>310</ele>
        <time>2016-07-24T08:01:01.000Z</time>
      </trkpt>
      <trkpt lat="47.45331" lon="6.69437">
        <ele>312</ele>
        <time>2016-07-24T08:01:02.000Z</time>
      </trkpt>
      <trkpt lat="47.45327" lon="6.6943">
        <ele>312</ele>
        <time>2016-07-24T08:01:03.000Z</time>
      </trkpt>
      <trkpt lat="47.45323" lon="6.69424">
        <ele>311</ele>
        <time>2016-07-24T08:01:04.000Z</time>
      </trkpt>
      <trkpt lat="47.4532" lon="6.69417">
        <ele>312</ele>
        <time>2016-07-24T08:01:05.000Z</time>
      </trkpt>
      <trkpt lat="47.45317" lon="6.69411">
        <ele>310</ele>
        <time>2016-07-24T08:01:06.000Z</time>
      </trkpt>
      <trkpt lat="47.45314" lon="6.69406">
        <ele>310</ele>
        <time>2016-07-24T08:01:07.000Z</time>
      </trkpt>
      <trkpt lat="47.45311" lon="6.694">
        <ele>310</ele>
        <time>2016-07-24T08:01:08.000Z</time>
      </trkpt>
      <trkpt lat="47.45309" lon="6.69395">
        <ele>310</ele>
        <time>2016-07-24T08:01:09.000Z</time>
      </trkpt>
      <trkpt lat="47.45307" lon="6.69389">
        <ele>310</ele>
        <time>2016-07-24T08:01:10.000Z</time>
      </trkpt>
      <trkpt lat="47.45304" lon="6.69384">
        <ele>310</ele>
        <time>2016-07-24T08:01:11.000Z</time>
      </trkpt>
      <trkpt lat="47.45301" lon="6.69378">
        <ele>310</ele>
        <time>2016-07-24T08:01:12.000Z</time>
      </trkpt>
      <trkpt lat="47.45298" lon="6.69372">
        <ele>310</ele>
        <time>2016-07-24T08:01:13.000Z</time>
      </trkpt>
      <trkpt lat="47.45295" lon="6.69367">
        <ele>310</ele>
        <time>2016-07-24T08:01:14.000Z</time>
      </trkpt>
      <trkpt lat="47.45292" lon="6.69361">
        <ele>310</ele>
        <time>2016-07-24T08:01:15.000Z</time>
      </trkpt>
      <trkpt lat="47.4529" lon="6.69356">
        <ele>310</ele>
        <time>2016-07-24T08:01:16.000Z</time>
      </trkpt>
      <trkpt lat="47.45287" lon="6.69351">
        <ele>310</ele>
        <time>2016-07-24T08:01:17.000Z</time>
      </trkpt>
      <trkpt lat="47.45285" lon="6.69345">
        <ele>310</ele>
        <time>2016-07-24T08:01:18.000Z</time>
      </trkpt>
      <trkpt lat="47.45282" lon="6.69339">
        <ele>310</ele>
        <time>2016-07-24T08:01:19.000Z</time>
      </trkpt>
      <trkpt lat="47.45278" lon="6.69333">
        <ele>308</ele>
        <time>2016-07-24T08:01:20.000Z</time>
      </trkpt>
      <trkpt lat="47.45276" lon="6.69327">
        <ele>308</ele>
        <time>2016-07-24T08:01:21.000Z</time>
      </trkpt>
      <trkpt lat="47.45273" lon="6.69321">
        <ele>308</ele>
        <time>2016-07-24T08:01:22.000Z</time>
      </trkpt>
      <trkpt lat="47.45271" lon="6.69316">
        <ele>308</ele>
        <time>2016-07-24T08:01:23.000Z</time>
      </trkpt>
      <trkpt lat="47.45267" lon="6.69311">
        <ele>308</ele>
        <time>2016-07-24T08:01:24.000Z</time>
      </trkpt>
      <trkpt lat="47.45263" lon="6.69305">
        <ele>308</ele>
        <time>2016-07-24T08:01:25.000Z</time>
      </trkpt>
      <trkpt lat="47.45261" lon="6.69299">
        <ele>308</ele>
        <time>2016-07-24T08:01:26.000Z</time>
      </trkpt>
      <trkpt lat="47.45257" lon="6.69292">
        <ele>308</ele>
        <time>2016-07-24T08:01:27.000Z</time>
      </trkpt>
      <trkpt lat="47.45255" lon="6.69285">
        <ele>308</ele>
        <time>2016-07-24T08:01:28.000Z</time>
      </trkpt>
      <trkpt lat="47.45253" lon="6.69279">
        <ele>308</ele>
        <time>2016-07-24T08:01:29.000Z</time>
      </trkpt>
      <trkpt lat="47.4525" lon="6.69273">
        <ele>310</ele>
        <time>2016-07-24T08:01:30.000Z</time>
      </trkpt>
      <trkpt lat="47.45247" lon="6.69267">
        <ele>310</ele>
        <time>2016-07-24T08:01:31.000Z</time>
      </trkpt>
      <trkpt lat="47.45244" lon="6.69262">
        <ele>310</ele>
        <time>2016-07-24T08:01:32.000Z</time>
      </trkpt>
      <trkpt lat="47.45242" lon="6.69256">
        <ele>309</ele>
        <time>2016-07-24T08:01:33.000Z</time>
      </trkpt>
      <trkpt lat="47.45239" lon="6.69251">
        <ele>309</ele>
        <time>2016-07-24T08:01:34.000Z</time>
      </trkpt>
      <trkpt lat="47.45235" lon="6.69247">
        <ele>308</ele>
        <time>2016-07-24T08:01:35.000Z</time>
      </trkpt>
      <trkpt lat="47.4523" lon="6.69245">
        <ele>308</ele>
        <time>2016-07-24T08:01:36.000Z</time>
      </trkpt>
      <trkpt lat="47.45226" lon="6.69244">
        <ele>308</ele>
        <time>2016-07-24T08:01:37.000Z</time>
      </trkpt>
      <trkpt lat="47.45222" lon="6.69246">
        <ele>308</ele>
        <time>2016-07-24T08:01:38.000Z</time>
      </trkpt>
      <trkpt lat="47.45219" lon="6.69247">
        <ele>309</ele>
        <time>2016-07-24T08:01:39.000Z</time>
      </trkpt>
      <trkpt lat="47.45216" lon="6.6925">
        <ele>309</ele>
        <time>2016-07-24T08:01:40.000Z</time>
      </trkpt>
      <trkpt lat="47.45213" lon="6.69253">
        <ele>311</ele>
        <time>2016-07-24T08:01:41.000Z</time>
      </trkpt>
      <trkpt lat="47.4521" lon="6.69254">
        <ele>311</ele>
        <time>2016-07-24T08:01:42.000Z</time>
      </trkpt>
      <trkpt lat="47.45208" lon="6.69256">
        <ele>311</ele>
        <time>2016-07-24T08:01:43.000Z</time>
      </trkpt>
      <trkpt lat="47.45205" lon="6.69258">
        <ele>311</ele>
        <time>2016-07-24T08:01:44.000Z</time>
      </trkpt>
      <trkpt lat="47.45202" lon="6.69261">
        <ele>312</ele>
        <time>2016-07-24T08:01:45.000Z</time>
      </trkpt>
      <trkpt lat="47.452" lon="6.69263">
        <ele>312</ele>
        <time>2016-07-24T08:01:46.000Z</time>
      </trkpt>
      <trkpt lat="47.45197" lon="6.69265">
        <ele>312</ele>
        <time>2016-07-24T08:01:47.000Z</time>
      </trkpt>
      <trkpt lat="47.45194" lon="6.69267">
        <ele>312</ele>
        <time>2016-07-24T08:01:48.000Z</time>
      </trkpt>
      <trkpt lat="47.45192" lon="6.69269">
        <ele>312</ele>
        <time>2016-07-24T08:01:49.000Z</time>
      </trkpt>
      <trkpt lat="47.4519" lon="6.69271">
        <ele>312</ele>
        <time>2016-07-24T08:01:50.000Z</time>
      </trkpt>
      <trkpt lat="47.45187" lon="6.69275">
        <ele>312</ele>
        <time>2016-07-24T08:01:52.000Z</time>
      </trkpt>
      <trkpt lat="47.45185" lon="6.69276">
        <ele>312</ele>
        <time>2016-07-24T08:01:53.000Z</time>
      </trkpt>
      <trkpt lat="47.45183" lon="6.69275">
        <ele>312</ele>
        <time>2016-07-24T08:01:54.000Z</time>
      </trkpt>
      <trkpt lat="47.45181" lon="6.69272">
        <ele>312</ele>
        <time>2016-07-24T08:01:55.000Z</time>
      </trkpt>
      <trkpt lat="47.45178" lon="6.69267">
        <ele>312</ele>
        <time>2016-07-24T08:01:56.000Z</time>
      </trkpt>
      <trkpt lat="47.45176" lon="6.69262">
        <ele>312</ele>
        <time>2016-07-24T08:01:57.000Z</time>
      </trkpt>
      <trkpt lat="47.45173" lon="6.69257">
        <ele>312</ele>
        <time>2016-07-24T08:01:58.000Z</time>
      </trkpt>
      <trkpt lat="47.45171" lon="6.69253">
        <ele>312</ele>
        <time>2016-07-24T08:01:59.000Z</time>
      </trkpt>
      <trkpt lat="47.4517" lon="6.69248">
        <ele>311</ele>
        <time>2016-07-24T08:02:00.000Z</time>
      </trkpt>
      <trkpt lat="47.45168" lon="6.69243">
        <ele>311</ele>
        <time>2016-07-24T08:02:01.000Z</time>
      </trkpt>
      <trkpt lat="47.45167" lon="6.69238">
        <ele>311</ele>
        <time>2016-07-24T08:02:02.000Z</time>
      </trkpt>
      <trkpt lat="47.45165" lon="6.69232">
        <ele>315</ele>
        <time>2016-07-24T08:02:03.000Z</time>
      </trkpt>
      <trkpt lat="47.45163" lon="6.69224">
        <ele>316</ele>
        <time>2016-07-24T08:02:04.000Z</time>
      </trkpt>
      <trkpt lat="47.45161" lon="6.69219">
        <ele>316</ele>
        <time>2016-07-24T08:02:05.000Z</time>
      </trkpt>
      <trkpt lat="47.45159" lon="6.69214">
        <ele>316</ele>
        <time>2016-07-24T08:02:06.000Z</time>
      </trkpt>
      <trkpt lat="47.45156" lon="6.6921">
        <ele>316</ele>
        <time>2016-07-24T08:02:07.000Z</time>
      </trkpt>
      <trkpt lat="47.45155" lon="6.69206">
        <ele>316</ele>
        <time>2016-07-24T08:02:08.000Z</time>
      </trkpt>
      <trkpt lat="47.45153" lon="6.69202">
        <ele>316</ele>
        <time>2016-07-24T08:02:10.000Z</time>
      </trkpt>
      <trkpt lat="47.45151" lon="6.69199">
        <ele>316</ele>
        <time>2016-07-24T08:02:11.000Z</time>
      </trkpt>
      <trkpt lat="47.45149" lon="6.69196">
        <ele>316</ele>
        <time>2016-07-24T08:02:13.000Z</time>
      </trkpt>
      <trkpt lat="47.45147" lon="6.69194">
        <ele>316</ele>
        <time>2016-07-24T08:02:14.000Z</time>
      </trkpt>
      <trkpt lat="47.45144" lon="6.69191">
        <ele>316</ele>
        <time>2016-07-24T08:02:15.000Z</time>
      </trkpt>
      <trkpt lat="47.45141" lon="6.69187">
        <ele>316</ele>
        <time>2016-07-24T08:02:16.000Z</time>
      </trkpt>
      <trkpt lat="47.45138" lon="6.69183">
        <ele>316</ele>
        <time>2016-07-24T08:02:17.000Z</time>
      </trkpt>
      <trkpt lat="47.45134" lon="6.69179">
        <ele>316</ele>
        <time>2016-07-24T08:02:18.000Z</time>
      </trkpt>
      <trkpt lat="47.45131" lon="6.69175">
        <ele>317</ele>
        <time>2016-07-24T08:02:19.000Z</time>
      </trkpt>
      <trkpt lat="47.45128" lon="6.69173">
        <ele>317</ele>
        <time>2016-07-24T08:02:20.000Z</time>
      </trkpt>
      <trkpt lat="47.45125" lon="6.6917">
        <ele>317</ele>
        <time>2016-07-24T08:02:22.000Z</time>
      </trkpt>
      <trkpt lat="47.45124" lon="6.69169">
        <ele>317</ele>
        <time>2016-07-24T08:02:23.000Z</time>
      </trkpt>
      <trkpt lat="47.45126" lon="6.69164">
        <ele>313</ele>
        <time>2016-07-24T08:02:25.000Z</time>
      </trkpt>
      <trkpt lat="47.45128" lon="6.6916">
        <ele>313</ele>
        <time>2016-07-24T08:02:26.000Z</time>
      </trkpt>
      <trkpt lat="47.45129" lon="6.69156">
        <ele>313</ele>
        <time>2016-07-24T08:02:27.000Z</time>
      </trkpt>
      <trkpt lat="47.4513" lon="6.69151">
        <ele>313</ele>
        <time>2016-07-24T08:02:28.000Z</time>
      </trkpt>
      <trkpt lat="47.45131" lon="6.69145">
        <ele>312</ele>
        <time>2016-07-24T08:02:29.000Z</time>
      </trkpt>
      <trkpt lat="47.45131" lon="6.69139">
        <ele>312</ele>
        <time>2016-07-24T08:02:30.000Z</time>
      </trkpt>
      <trkpt lat="47.45132" lon="6.69132">
        <ele>312</ele>
        <time>2016-07-24T08:02:31.000Z</time>
      </trkpt>
      <trkpt lat="47.45132" lon="6.69125">
        <ele>312</ele>
        <time>2016-07-24T08:02:32.000Z</time>
      </trkpt>
      <trkpt lat="47.45132" lon="6.69118">
        <ele>312</ele>
        <time>2016-07-24T08:02:33.000Z</time>
      </trkpt>
      <trkpt lat="47.45131" lon="6.69112">
        <ele>311</ele>
        <time>2016-07-24T08:02:34.000Z</time>
      </trkpt>
      <trkpt lat="47.4513" lon="6.69106">
        <ele>311</ele>
        <time>2016-07-24T08:02:35.000Z</time>
      </trkpt>
      <trkpt lat="47.45126" lon="6.69097">
        <ele>311</ele>
        <time>2016-07-24T08:02:36.000Z</time>
      </trkpt>
      <trkpt lat="47.45123" lon="6.69093">
        <ele>311</ele>
        <time>2016-07-24T08:02:37.000Z</time>
      </trkpt>
      <trkpt lat="47.4512" lon="6.69087">
        <ele>312</ele>
        <time>2016-07-24T08:02:38.000Z</time>
      </trkpt>
      <trkpt lat="47.45118" lon="6.69082">
        <ele>308</ele>
        <time>2016-07-24T08:02:39.000Z</time>
      </trkpt>
      <trkpt lat="47.45121" lon="6.69078">
        <ele>308</ele>
        <time>2016-07-24T08:02:40.000Z</time>
      </trkpt>
      <trkpt lat="47.4512" lon="6.69073">
        <ele>308</ele>
        <time>2016-07-24T08:02:41.000Z</time>
      </trkpt>
      <trkpt lat="47.45116" lon="6.69069">
        <ele>308</ele>
        <time>2016-07-24T08:02:42.000Z</time>
      </trkpt>
      <trkpt lat="47.45112" lon="6.69064">
        <ele>308</ele>
        <time>2016-07-24T08:02:43.000Z</time>
      </trkpt>
      <trkpt lat="47.45109" lon="6.69058">
        <ele>308</ele>
        <time>2016-07-24T08:02:44.000Z</time>
      </trkpt>
      <trkpt lat="47.45106" lon="6.69054">
        <ele>308</ele>
        <time>2016-07-24T08:02:45.000Z</time>
      </trkpt>
      <trkpt lat="47.45102" lon="6.69048">
        <ele>308</ele>
        <time>2016-07-24T08:02:46.000Z</time>
      </trkpt>
      <trkpt lat="47.45099" lon="6.69044">
        <ele>308</ele>
        <time>2016-07-24T08:02:47.000Z</time>
      </trkpt>
      <trkpt lat="47.45096" lon="6.69039">
        <ele>308</ele>
        <time>2016-07-24T08:02:48.000Z</time>
      </trkpt>
      <trkpt lat="47.45093" lon="6.69034">
        <ele>307</ele>
        <time>2016-07-24T08:02:49.000Z</time>
      </trkpt>
      <trkpt lat="47.45089" lon="6.69029">
        <ele>307</ele>
        <time>2016-07-24T08:02:50.000Z</time>
      </trkpt>
      <trkpt lat="47.45086" lon="6.69025">
        <ele>307</ele>
        <time>2016-07-24T08:02:51.000Z</time>
      </trkpt>
      <trkpt lat="47.45082" lon="6.69021">
        <ele>315</ele>
        <time>2016-07-24T08:02:52.000Z</time>
      </trkpt>
      <trkpt lat="47.45078" lon="6.69016">
        <ele>314</ele>
        <time>2016-07-24T08:02:53.000Z</time>
      </trkpt>
      <trkpt lat="47.45074" lon="6.69012">
        <ele>313</ele>
        <time>2016-07-24T08:02:54.000Z</time>
      </trkpt>
      <trkpt lat="47.4507" lon="6.69009">
        <ele>314</ele>
        <time>2016-07-24T08:02:55.000Z</time>
      </trkpt>
      <trkpt lat="47.45069" lon="6.69006">
        <ele>314</ele>
        <time>2016-07-24T08:02:56.000Z</time>
      </trkpt>
      <trkpt lat="47.45065" lon="6.69002">
        <ele>315</ele>
        <time>2016-07-24T08:02:57.000Z</time>
      </trkpt>
      <trkpt lat="47.45061" lon="6.68999">
        <ele>309</ele>
        <time>2016-07-24T08:02:58.000Z</time>
      </trkpt>
      <trkpt lat="47.45058" lon="6.68997">
        <ele>310</ele>
        <time>2016-07-24T08:02:59.000Z</time>
      </trkpt>
      <trkpt lat="47.45053" lon="6.68993">
        <ele>310</ele>
        <time>2016-07-24T08:03:00.000Z</time>
      </trkpt>
      <trkpt lat="47.45049" lon="6.6899">
        <ele>311</ele>
        <time>2016-07-24T08:03:01.000Z</time>
      </trkpt>
      <trkpt lat="47.45044" lon="6.68986">
        <ele>311</ele>
        <time>2016-07-24T08:03:02.000Z</time>
      </trkpt>
      <trkpt lat="47.45037" lon="6.68982">
        <ele>312</ele>
        <time>2016-07-24T08:03:03.000Z</time>
      </trkpt>
      <trkpt lat="47.45036" lon="6.68978">
        <ele>312</ele>
        <time>2016-07-24T08:03:04.000Z</time>
      </trkpt>
      <trkpt lat="47.4503" lon="6.68975">
        <ele>312</ele>
        <time>2016-07-24T08:03:05.000Z</time>
      </trkpt>
      <trkpt lat="47.45026" lon="6.68972">
        <ele>313</ele>
        <time>2016-07-24T08:03:06.000Z</time>
      </trkpt>
      <trkpt lat="47.45021" lon="6.68969">
        <ele>313</ele>
        <time>2016-07-24T08:03:07.000Z</time>
      </trkpt>
      <trkpt lat="47.45017" lon="6.68966">
        <ele>313</ele>
        <time>2016-07-24T08:03:08.000Z</time>
      </trkpt>
      <trkpt lat="47.45013" lon="6.68963">
        <ele>312</ele>
        <time>2016-07-24T08:03:09.000Z</time>
      </trkpt>
      <trkpt lat="47.4501" lon="6.6896">
        <ele>312</ele>
        <time>2016-07-24T08:03:10.000Z</time>
      </trkpt>
      <trkpt lat="47.45006" lon="6.68958">
        <ele>312</ele>
        <time>2016-07-24T08:03:11.000Z</time>
      </trkpt>
      <trkpt lat="47.45003" lon="6.68954">
        <ele>312</ele>
        <time>2016-07-24T08:03:12.000Z</time>
      </trkpt>
      <trkpt lat="47.45" lon="6.68951">
        <ele>320</ele>
        <time>2016-07-24T08:03:13.000Z</time>
      </trkpt>
      <trkpt lat="47.44997" lon="6.68949">
        <ele>319</ele>
        <time>2016-07-24T08:03:14.000Z</time>
      </trkpt>
      <trkpt lat="47.44993" lon="6.68946">
        <ele>319</ele>
        <time>2016-07-24T08:03:15.000Z</time>
      </trkpt>
      <trkpt lat="47.4499" lon="6.68944">
        <ele>318</ele>
        <time>2016-07-24T08:03:16.000Z</time>
      </trkpt>
      <trkpt lat="47.44987" lon="6.68941">
        <ele>318</ele>
        <time>2016-07-24T08:03:17.000Z</time>
      </trkpt>
      <trkpt lat="47.44984" lon="6.68939">
        <ele>318</ele>
        <time>2016-07-24T08:03:18.000Z</time>
      </trkpt>
      <trkpt lat="47.4498" lon="6.68937">
        <ele>318</ele>
        <time>2016-07-24T08:03:19.000Z</time>
      </trkpt>
      <trkpt lat="47.44977" lon="6.68934">
        <ele>318</ele>
        <time>2016-07-24T08:03:20.000Z</time>
      </trkpt>
      <trkpt lat="47.44974" lon="6.68932">
        <ele>319</ele>
        <time>2016-07-24T08:03:21.000Z</time>
      </trkpt>
      <trkpt lat="47.44971" lon="6.68929">
        <ele>319</ele>
        <time>2016-07-24T08:03:22.000Z</time>
      </trkpt>
      <trkpt lat="47.44968" lon="6.68927">
        <ele>319</ele>
        <time>2016-07-24T08:03:23.000Z</time>
      </trkpt>
      <trkpt lat="47.44965" lon="6.68925">
        <ele>319</ele>
        <time>2016-07-24T08:03:24.000Z</time>
      </trkpt>
      <trkpt lat="47.44962" lon="6.68922">
        <ele>320</ele>
        <time>2016-07-24T08:03:25.000Z</time>
      </trkpt>
      <trkpt lat="47.4496" lon="6.6892">
        <ele>320</ele>
        <time>2016-07-24T08:03:26.000Z</time>
      </trkpt>
      <trkpt lat="47.44957" lon="6.68917">
        <ele>320</ele>
        <time>2016-07-24T08:03:27.000Z</time>
      </trkpt>
      <trkpt lat="47.44956" lon="6.68915">
        <ele>311</ele>
        <time>2016-07-24T08:03:28.000Z</time>
      </trkpt>
      <trkpt lat="47.44954" lon="6.68912">
        <ele>311</ele>
        <time>2016-07-24T08:03:29.000Z</time>
      </trkpt>
      <trkpt lat="47.44953" lon="6.68909">
        <ele>312</ele>
        <time>2016-07-24T08:03:30.000Z</time>
      </trkpt>
      <trkpt lat="47.44951" lon="6.68906">
        <ele>312</ele>
        <time>2016-07-24T08:03:31.000Z</time>
      </trkpt>
      <trkpt lat="47.44948" lon="6.68903">
        <ele>312</ele>
        <time>2016-07-24T08:03:32.000Z</time>
      </trkpt>
      <trkpt lat="47.44945" lon="6.689">
        <ele>312</ele>
        <time>2016-07-24T08:03:33.000Z</time>
      </trkpt>
      <trkpt lat="47.44943" lon="6.68897">
        <ele>312</ele>
        <time>2016-07-24T08:03:34.000Z</time>
      </trkpt>
      <trkpt lat="47.4494" lon="6.68894">
        <ele>312</ele>
        <time>2016-07-24T08:03:35.000Z</time>
      </trkpt>
      <trkpt lat="47.44937" lon="6.68891">
        <ele>312</ele>
        <time>2016-07-24T08:03:36.000Z</time>
      </trkpt>
      <trkpt lat="47.44935" lon="6.68887">
        <ele>312</ele>
        <time>2016-07-24T08:03:37.000Z</time>
      </trkpt>
      <trkpt lat="47.44932" lon="6.68884">
        <ele>312</ele>
        <time>2016-07-24T08:03:38.000Z</time>
      </trkpt>
      <trkpt lat="47.44929" lon="6.68881">
        <ele>312</ele>
        <time>2016-07-24T08:03:39.000Z</time>
      </trkpt>
      <trkpt lat="47.44927" lon="6.68877">
        <ele>311</ele>
        <time>2016-07-24T08:03:40.000Z</time>
      </trkpt>
      <trkpt lat="47.44924" lon="6.68872">
        <ele>311</ele>
        <time>2016-07-24T08:03:41.000Z</time>
      </trkpt>
      <trkpt lat="47.4492" lon="6.68868">
        <ele>311</ele>
        <time>2016-07-24T08:03:42.000Z</time>
      </trkpt>
      <trkpt lat="47.44917" lon="6.68864">
        <ele>318</ele>
        <time>2016-07-24T08:03:43.000Z</time>
      </trkpt>
      <trkpt lat="47.44913" lon="6.6886">
        <ele>317</ele>
        <time>2016-07-24T08:03:44.000Z</time>
      </trkpt>
      <trkpt lat="47.44909" lon="6.68856">
        <ele>317</ele>
        <time>2016-07-24T08:03:45.000Z</time>
      </trkpt>
      <trkpt lat="47.44905" lon="6.68852">
        <ele>317</ele>
        <time>2016-07-24T08:03:46.000Z</time>
      </trkpt>
      <trkpt lat="47.44901" lon="6.68848">
        <ele>317</ele>
        <time>2016-07-24T08:03:47.000Z</time>
      </trkpt>
      <trkpt lat="47.44897" lon="6.68844">
        <ele>317</ele>
        <time>2016-07-24T08:03:48.000Z</time>
      </trkpt>
      <trkpt lat="47.44894" lon="6.68841">
        <ele>317</ele>
        <time>2016-07-24T08:03:49.000Z</time>
      </trkpt>
      <trkpt lat="47.44892" lon="6.68838">
        <ele>318</ele>
        <time>2016-07-24T08:03:50.000Z</time>
      </trkpt>
      <trkpt lat="47.4489" lon="6.68835">
        <ele>318</ele>
        <time>2016-07-24T08:03:51.000Z</time>
      </trkpt>
      <trkpt lat="47.44889" lon="6.68833">
        <ele>313</ele>
        <time>2016-07-24T08:03:52.000Z</time>
      </trkpt>
      <trkpt lat="47.44886" lon="6.68829">
        <ele>313</ele>
        <time>2016-07-24T08:03:54.000Z</time>
      </trkpt>
      <trkpt lat="47.44885" lon="6.68826">
        <ele>313</ele>
        <time>2016-07-24T08:03:55.000Z</time>
      </trkpt>
      <trkpt lat="47.44884" lon="6.68822">
        <ele>313</ele>
        <time>2016-07-24T08:03:57.000Z</time>
      </trkpt>
      <trkpt lat="47.44883" lon="6.6882">
        <ele>313</ele>
        <time>2016-07-24T08:03:58.000Z</time>
      </trkpt>
      <trkpt lat="47.4488" lon="6.68816">
        <ele>313</ele>
        <time>2016-07-24T08:04:01.000Z</time>
      </trkpt>
      <trkpt lat="47.4488" lon="6.68815">
        <ele>313</ele>
        <time>2016-07-24T08:04:02.000Z</time>
      </trkpt>
      <trkpt lat="47.4488" lon="6.68809">
        <ele>313</ele>
        <time>2016-07-24T08:04:08.000Z</time>
      </trkpt>
      <trkpt lat="47.44879" lon="6.68808">
        <ele>313</ele>
        <time>2016-07-24T08:04:09.000Z</time>
      </trkpt>
      <trkpt lat="47.44875" lon="6.68806">
        <ele>314</ele>
        <time>2016-07-24T08:04:11.000Z</time>
      </trkpt>
      <trkpt lat="47.44873" lon="6.68805">
        <ele>314</ele>
        <time>2016-07-24T08:04:12.000Z</time>
      </trkpt>
      <trkpt lat="47.4487" lon="6.68804">
        <ele>314</ele>
        <time>2016-07-24T08:04:14.000Z</time>
      </trkpt>
      <trkpt lat="47.44868" lon="6.68804">
        <ele>314</ele>
        <time>2016-07-24T08:04:15.000Z</time>
      </trkpt>
      <trkpt lat="47.44865" lon="6.68802">
        <ele>314</ele>
        <time>2016-07-24T08:04:17.000Z</time>
      </trkpt>
      <trkpt lat="47.44864" lon="6.68802">
        <ele>315</ele>
        <time>2016-07-24T08:04:18.000Z</time>
      </trkpt>
      <trkpt lat="47.4486" lon="6.68803">
        <ele>315</ele>
        <time>2016-07-24T08:04:20.000Z</time>
      </trkpt>
      <trkpt lat="47.44858" lon="6.68803">
        <ele>315</ele>
        <time>2016-07-24T08:04:21.000Z</time>
      </trkpt>
      <trkpt lat="47.44854" lon="6.68803">
        <ele>316</ele>
        <time>2016-07-24T08:04:23.000Z</time>
      </trkpt>
      <trkpt lat="47.44851" lon="6.68802">
        <ele>316</ele>
        <time>2016-07-24T08:04:24.000Z</time>
      </trkpt>
      <trkpt lat="47.44847" lon="6.688">
        <ele>316</ele>
        <time>2016-07-24T08:04:26.000Z</time>
      </trkpt>
      <trkpt lat="47.44845" lon="6.688">
        <ele>316</ele>
        <time>2016-07-24T08:04:27.000Z</time>
      </trkpt>
      <trkpt lat="47.44841" lon="6.68799">
        <ele>316</ele>
        <time>2016-07-24T08:04:29.000Z</time>
      </trkpt>
      <trkpt lat="47.44839" lon="6.68798">
        <ele>316</ele>
        <time>2016-07-24T08:04:30.000Z</time>
      </trkpt>
      <trkpt lat="47.44836" lon="6.68798">
        <ele>316</ele>
        <time>2016-07-24T08:04:31.000Z</time>
      </trkpt>
      <trkpt lat="47.44833" lon="6.68797">
        <ele>316</ele>
        <time>2016-07-24T08:04:32.000Z</time>
      </trkpt>
      <trkpt lat="47.44831" lon="6.68796">
        <ele>328</ele>
        <time>2016-07-24T08:04:33.000Z</time>
      </trkpt>
      <trkpt lat="47.44828" lon="6.68796">
        <ele>328</ele>
        <time>2016-07-24T08:04:34.000Z</time>
      </trkpt>
      <trkpt lat="47.44825" lon="6.68795">
        <ele>328</ele>
        <time>2016-07-24T08:04:36.000Z</time>
      </trkpt>
      <trkpt lat="47.44824" lon="6.68795">
        <ele>328</ele>
        <time>2016-07-24T08:04:37.000Z</time>
      </trkpt>
      <trkpt lat="47.4482" lon="6.68791">
        <ele>328</ele>
        <time>2016-07-24T08:04:40.000Z</time>
      </trkpt>
      <trkpt lat="47.44819" lon="6.6879">
        <ele>328</ele>
        <time>2016-07-24T08:04:41.000Z</time>
      </trkpt>
      <trkpt lat="47.44815" lon="6.68787">
        <ele>328</ele>
        <time>2016-07-24T08:04:44.000Z</time>
      </trkpt>
      <trkpt lat="47.44814" lon="6.68785">
        <ele>328</ele>
        <time>2016-07-24T08:04:45.000Z</time>
      </trkpt>
      <trkpt lat="47.44812" lon="6.6878">
        <ele>328</ele>
        <time>2016-07-24T08:04:48.000Z</time>
      </trkpt>
      <trkpt lat="47.44811" lon="6.68778">
        <ele>328</ele>
        <time>2016-07-24T08:04:49.000Z</time>
      </trkpt>
      <trkpt lat="47.44811" lon="6.68771">
        <ele>327</ele>
        <time>2016-07-24T08:04:52.000Z</time>
      </trkpt>
      <trkpt lat="47.44811" lon="6.68768">
        <ele>327</ele>
        <time>2016-07-24T08:04:53.000Z</time>
      </trkpt>
      <trkpt lat="47.4481" lon="6.68764">
        <ele>326</ele>
        <time>2016-07-24T08:04:54.000Z</time>
      </trkpt>
      <trkpt lat="47.4481" lon="6.68759">
        <ele>326</ele>
        <time>2016-07-24T08:04:55.000Z</time>
      </trkpt>
      <trkpt lat="47.4481" lon="6.68754">
        <ele>325</ele>
        <time>2016-07-24T08:04:56.000Z</time>
      </trkpt>
      <trkpt lat="47.44811" lon="6.68748">
        <ele>320</ele>
        <time>2016-07-24T08:04:57.000Z</time>
      </trkpt>
      <trkpt lat="47.4481" lon="6.68742">
        <ele>320</ele>
        <time>2016-07-24T08:04:58.000Z</time>
      </trkpt>
      <trkpt lat="47.4481" lon="6.68736">
        <ele>320</ele>
        <time>2016-07-24T08:04:59.000Z</time>
      </trkpt>
      <trkpt lat="47.44809" lon="6.68731">
        <ele>320</ele>
        <time>2016-07-24T08:05:00.000Z</time>
      </trkpt>
      <trkpt lat="47.44809" lon="6.68728">
        <ele>320</ele>
        <time>2016-07-24T08:05:01.000Z</time>
      </trkpt>
      <trkpt lat="47.44807" lon="6.68722">
        <ele>321</ele>
        <time>2016-07-24T08:05:03.000Z</time>
      </trkpt>
      <trkpt lat="47.44807" lon="6.68719">
        <ele>321</ele>
        <time>2016-07-24T08:05:04.000Z</time>
      </trkpt>
      <trkpt lat="47.44806" lon="6.68713">
        <ele>320</ele>
        <time>2016-07-24T08:05:07.000Z</time>
      </trkpt>
      <trkpt lat="47.44806" lon="6.68712">
        <ele>320</ele>
        <time>2016-07-24T08:05:08.000Z</time>
      </trkpt>
      <trkpt lat="47.44805" lon="6.68707">
        <ele>320</ele>
        <time>2016-07-24T08:05:13.000Z</time>
      </trkpt>
      <trkpt lat="47.44804" lon="6.68705">
        <ele>320</ele>
        <time>2016-07-24T08:05:14.000Z</time>
      </trkpt>
      <trkpt lat="47.44801" lon="6.68701">
        <ele>320</ele>
        <time>2016-07-24T08:05:33.000Z</time>
      </trkpt>
      <trkpt lat="47.44801" lon="6.687">
        <ele>320</ele>
        <time>2016-07-24T08:05:34.000Z</time>
      </trkpt>
      <trkpt lat="47.44797" lon="6.68696">
        <ele>321</ele>
        <time>2016-07-24T08:05:36.000Z</time>
      </trkpt>
      <trkpt lat="47.44796" lon="6.68693">
        <ele>321</ele>
        <time>2016-07-24T08:05:37.000Z</time>
      </trkpt>
      <trkpt lat="47.44794" lon="6.68691">
        <ele>321</ele>
        <time>2016-07-24T08:05:38.000Z</time>
      </trkpt>
      <trkpt lat="47.44793" lon="6.68687">
        <ele>321</ele>
        <time>2016-07-24T08:05:39.000Z</time>
      </trkpt>
      <trkpt lat="47.44792" lon="6.68681">
        <ele>321</ele>
        <time>2016-07-24T08:05:40.000Z</time>
      </trkpt>
      <trkpt lat="47.44791" lon="6.68675">
        <ele>321</ele>
        <time>2016-07-24T08:05:41.000Z</time>
      </trkpt>
      <trkpt lat="47.44789" lon="6.68669">
        <ele>321</ele>
        <time>2016-07-24T08:05:42.000Z</time>
      </trkpt>
      <trkpt lat="47.44788" lon="6.68663">
        <ele>316</ele>
        <time>2016-07-24T08:05:43.000Z</time>
      </trkpt>
      <trkpt lat="47.44786" lon="6.68657">
        <ele>316</ele>
        <time>2016-07-24T08:05:44.000Z</time>
      </trkpt>
      <trkpt lat="47.44786" lon="6.68651">
        <ele>316</ele>
        <time>2016-07-24T08:05:45.000Z</time>
      </trkpt>
      <trkpt lat="47.44785" lon="6.68645">
        <ele>316</ele>
        <time>2016-07-24T08:05:46.000Z</time>
      </trkpt>
      <trkpt lat="47.44784" lon="6.6864">
        <ele>316</ele>
        <time>2016-07-24T08:05:47.000Z</time>
      </trkpt>
      <trkpt lat="47.44783" lon="6.68634">
        <ele>315</ele>
        <time>2016-07-24T08:05:48.000Z</time>
      </trkpt>
      <trkpt lat="47.44782" lon="6.68627">
        <ele>315</ele>
        <time>2016-07-24T08:05:49.000Z</time>
      </trkpt>
      <trkpt lat="47.44782" lon="6.6862">
        <ele>315</ele>
        <time>2016-07-24T08:05:50.000Z</time>
      </trkpt>
      <trkpt lat="47.44782" lon="6.68613">
        <ele>315</ele>
        <time>2016-07-24T08:05:51.000Z</time>
      </trkpt>
      <trkpt lat="47.44781" lon="6.68605">
        <ele>314</ele>
        <time>2016-07-24T08:05:52.000Z</time>
      </trkpt>
      <trkpt lat="47.44782" lon="6.68599">
        <ele>314</ele>
        <time>2016-07-24T08:05:53.000Z</time>
      </trkpt>
      <trkpt lat="47.44782" lon="6.68594">
        <ele>314</ele>
        <time>2016-07-24T08:05:54.000Z</time>
      </trkpt>
      <trkpt lat="47.44782" lon="6.68589">
        <ele>314</ele>
        <time>2016-07-24T08:05:55.000Z</time>
      </trkpt>
      <trkpt lat="47.44781" lon="6.68585">
        <ele>314</ele>
        <time>2016-07-24T08:05:56.000Z</time>
      </trkpt>
      <trkpt lat="47.4478" lon="6.68579">
        <ele>311</ele>
        <time>2016-07-24T08:05:57.000Z</time>
      </trkpt>
      <trkpt lat="47.44778" lon="6.68573">
        <ele>311</ele>
        <time>2016-07-24T08:05:58.000Z</time>
      </trkpt>
      <trkpt lat="47.44776" lon="6.68567">
        <ele>311</ele>
        <time>2016-07-24T08:05:59.000Z</time>
      </trkpt>
      <trkpt lat="47.44774" lon="6.68562">
        <ele>311</ele>
        <time>2016-07-24T08:06:00.000Z</time>
      </trkpt>
      <trkpt lat="47.44771" lon="6.68557">
        <ele>311</ele>
        <time>2016-07-24T08:06:01.000Z</time>
      </trkpt>
      <trkpt lat="47.44769" lon="6.68553">
        <ele>311</ele>
        <time>2016-07-24T08:06:02.000Z</time>
      </trkpt>
      <trkpt lat="47.44767" lon="6.68549">
        <ele>311</ele>
        <time>2016-07-24T08:06:03.000Z</time>
      </trkpt>
      <trkpt lat="47.44765" lon="6.68546">
        <ele>311</ele>
        <time>2016-07-24T08:06:04.000Z</time>
      </trkpt>
      <trkpt lat="47.44763" lon="6.68541">
        <ele>311</ele>
        <time>2016-07-24T08:06:05.000Z</time>
      </trkpt>
      <trkpt lat="47.44761" lon="6.68537">
        <ele>311</ele>
        <time>2016-07-24T08:06:06.000Z</time>
      </trkpt>
      <trkpt lat="47.44758" lon="6.68532">
        <ele>310</ele>
        <time>2016-07-24T08:06:07.000Z</time>
      </trkpt>
      <trkpt lat="47.44756" lon="6.68527">
        <ele>310</ele>
        <time>2016-07-24T08:06:08.000Z</time>
      </trkpt>
      <trkpt lat="47.44754" lon="6.68522">
        <ele>311</ele>
        <time>2016-07-24T08:06:09.000Z</time>
      </trkpt>
      <trkpt lat="47.44752" lon="6.68517">
        <ele>311</ele>
        <time>2016-07-24T08:06:10.000Z</time>
      </trkpt>
      <trkpt lat="47.44751" lon="6.68512">
        <ele>311</ele>
        <time>2016-07-24T08:06:11.000Z</time>
      </trkpt>
      <trkpt lat="47.44749" lon="6.68507">
        <ele>317</ele>
        <time>2016-07-24T08:06:12.000Z</time>
      </trkpt>
      <trkpt lat="47.44748" lon="6.68502">
        <ele>314</ele>
        <time>2016-07-24T08:06:13.000Z</time>
      </trkpt>
      <trkpt lat="47.44745" lon="6.68497">
        <ele>314</ele>
        <time>2016-07-24T08:06:14.000Z</time>
      </trkpt>
      <trkpt lat="47.44743" lon="6.68492">
        <ele>316</ele>
        <time>2016-07-24T08:06:15.000Z</time>
      </trkpt>
      <trkpt lat="47.44741" lon="6.68487">
        <ele>317</ele>
        <time>2016-07-24T08:06:16.000Z</time>
      </trkpt>
      <trkpt lat="47.4474" lon="6.68481">
        <ele>318</ele>
        <time>2016-07-24T08:06:17.000Z</time>
      </trkpt>
      <trkpt lat="47.44738" lon="6.68475">
        <ele>318</ele>
        <time>2016-07-24T08:06:18.000Z</time>
      </trkpt>
      <trkpt lat="47.44737" lon="6.68469">
        <ele>318</ele>
        <time>2016-07-24T08:06:19.000Z</time>
      </trkpt>
      <trkpt lat="47.44736" lon="6.68463">
        <ele>318</ele>
        <time>2016-07-24T08:06:20.000Z</time>
      </trkpt>
      <trkpt lat="47.44734" lon="6.68457">
        <ele>318</ele>
        <time>2016-07-24T08:06:21.000Z</time>
      </trkpt>
      <trkpt lat="47.44733" lon="6.68451">
        <ele>318</ele>
        <time>2016-07-24T08:06:22.000Z</time>
      </trkpt>
      <trkpt lat="47.44731" lon="6.68445">
        <ele>318</ele>
        <time>2016-07-24T08:06:23.000Z</time>
      </trkpt>
      <trkpt lat="47.44729" lon="6.6844">
        <ele>317</ele>
        <time>2016-07-24T08:06:24.000Z</time>
      </trkpt>
      <trkpt lat="47.44728" lon="6.68434">
        <ele>317</ele>
        <time>2016-07-24T08:06:25.000Z</time>
      </trkpt>
      <trkpt lat="47.44726" lon="6.68428">
        <ele>317</ele>
        <time>2016-07-24T08:06:26.000Z</time>
      </trkpt>
      <trkpt lat="47.44724" lon="6.68422">
        <ele>317</ele>
        <time>2016-07-24T08:06:27.000Z</time>
      </trkpt>
      <trkpt lat="47.44722" lon="6.68416">
        <ele>312</ele>
        <time>2016-07-24T08:06:28.000Z</time>
      </trkpt>
      <trkpt lat="47.44719" lon="6.68411">
        <ele>313</ele>
        <time>2016-07-24T08:06:29.000Z</time>
      </trkpt>
      <trkpt lat="47.44716" lon="6.68407">
        <ele>313</ele>
        <time>2016-07-24T08:06:30.000Z</time>
      </trkpt>
      <trkpt lat="47.44714" lon="6.68404">
        <ele>314</ele>
        <time>2016-07-24T08:06:31.000Z</time>
      </trkpt>
      <trkpt lat="47.44711" lon="6.68401">
        <ele>314</ele>
        <time>2016-07-24T08:06:32.000Z</time>
      </trkpt>
      <trkpt lat="47.44709" lon="6.68398">
        <ele>314</ele>
        <time>2016-07-24T08:06:33.000Z</time>
      </trkpt>
      <trkpt lat="47.44708" lon="6.68395">
        <ele>314</ele>
        <time>2016-07-24T08:06:34.000Z</time>
      </trkpt>
      <trkpt lat="47.44705" lon="6.68389">
        <ele>315</ele>
        <time>2016-07-24T08:06:36.000Z</time>
      </trkpt>
      <trkpt lat="47.44704" lon="6.68387">
        <ele>315</ele>
        <time>2016-07-24T08:06:37.000Z</time>
      </trkpt>
      <trkpt lat="47.44702" lon="6.68384">
        <ele>315</ele>
        <time>2016-07-24T08:06:38.000Z</time>
      </trkpt>
      <trkpt lat="47.44701" lon="6.68381">
        <ele>315</ele>
        <time>2016-07-24T08:06:39.000Z</time>
      </trkpt>
      <trkpt lat="47.44699" lon="6.68378">
        <ele>315</ele>
        <time>2016-07-24T08:06:40.000Z</time>
      </trkpt>
      <trkpt lat="47.44698" lon="6.68375">
        <ele>314</ele>
        <time>2016-07-24T08:06:41.000Z</time>
      </trkpt>
      <trkpt lat="47.44696" lon="6.68372">
        <ele>314</ele>
        <time>2016-07-24T08:06:42.000Z</time>
      </trkpt>
      <trkpt lat="47.44695" lon="6.68367">
        <ele>314</ele>
        <time>2016-07-24T08:06:43.000Z</time>
      </trkpt>
      <trkpt lat="47.44694" lon="6.68363">
        <ele>314</ele>
        <time>2016-07-24T08:06:44.000Z</time>
      </trkpt>
      <trkpt lat="47.44693" lon="6.68358">
        <ele>314</ele>
        <time>2016-07-24T08:06:45.000Z</time>
      </trkpt>
      <trkpt lat="47.44692" lon="6.68353">
        <ele>314</ele>
        <time>2016-07-24T08:06:46.000Z</time>
      </trkpt>
      <trkpt lat="47.4469" lon="6.68348">
        <ele>314</ele>
        <time>2016-07-24T08:06:47.000Z</time>
      </trkpt>
      <trkpt lat="47.44688" lon="6.68343">
        <ele>314</ele>
        <time>2016-07-24T08:06:48.000Z</time>
      </trkpt>
      <trkpt lat="47.44687" lon="6.6834">
        <ele>314</ele>
        <time>2016-07-24T08:06:49.000Z</time>
      </trkpt>
      <trkpt lat="47.44685" lon="6.68337">
        <ele>314</ele>
        <time>2016-07-24T08:06:50.000Z</time>
      </trkpt>
      <trkpt lat="47.44681" lon="6.68335">
        <ele>314</ele>
        <time>2016-07-24T08:06:51.000Z</time>
      </trkpt>
      <trkpt lat="47.44677" lon="6.68334">
        <ele>314</ele>
        <time>2016-07-24T08:06:52.000Z</time>
      </trkpt>
      <trkpt lat="47.44672" lon="6.68331">
        <ele>313</ele>
        <time>2016-07-24T08:06:53.000Z</time>
      </trkpt>
      <trkpt lat="47.44668" lon="6.68327">
        <ele>313</ele>
        <time>2016-07-24T08:06:54.000Z</time>
      </trkpt>
      <trkpt lat="47.44664" lon="6.68322">
        <ele>319</ele>
        <time>2016-07-24T08:06:55.000Z</time>
      </trkpt>
      <trkpt lat="47.44661" lon="6.68316">
        <ele>321</ele>
        <time>2016-07-24T08:06:56.000Z</time>
      </trkpt>
      <trkpt lat="47.44659" lon="6.6831">
        <ele>321</ele>
        <time>2016-07-24T08:06:57.000Z</time>
      </trkpt>
      <trkpt lat="47.44658" lon="6.68304">
        <ele>322</ele>
        <time>2016-07-24T08:06:58.000Z</time>
      </trkpt>
      <trkpt lat="47.44651" lon="6.68289">
        <ele>322</ele>
        <time>2016-07-24T08:06:59.000Z</time>
      </trkpt>
      <trkpt lat="47.44648" lon="6.68283">
        <ele>322</ele>
        <time>2016-07-24T08:07:00.000Z</time>
      </trkpt>
      <trkpt lat="47.44645" lon="6.68277">
        <ele>321</ele>
        <time>2016-07-24T08:07:01.000Z</time>
      </trkpt>
      <trkpt lat="47.44641" lon="6.68271">
        <ele>321</ele>
        <time>2016-07-24T08:07:02.000Z</time>
      </trkpt>
      <trkpt lat="47.44638" lon="6.68265">
        <ele>321</ele>
        <time>2016-07-24T08:07:03.000Z</time>
      </trkpt>
      <trkpt lat="47.44636" lon="6.68259">
        <ele>322</ele>
        <time>2016-07-24T08:07:04.000Z</time>
      </trkpt>
      <trkpt lat="47.44634" lon="6.68253">
        <ele>322</ele>
        <time>2016-07-24T08:07:05.000Z</time>
      </trkpt>
      <trkpt lat="47.44632" lon="6.68248">
        <ele>316</ele>
        <time>2016-07-24T08:07:06.000Z</time>
      </trkpt>
      <trkpt lat="47.4463" lon="6.68245">
        <ele>316</ele>
        <time>2016-07-24T08:07:07.000Z</time>
      </trkpt>
      <trkpt lat="47.44628" lon="6.6824">
        <ele>316</ele>
        <time>2016-07-24T08:07:08.000Z</time>
      </trkpt>
      <trkpt lat="47.44626" lon="6.68235">
        <ele>317</ele>
        <time>2016-07-24T08:07:09.000Z</time>
      </trkpt>
      <trkpt lat="47.44624" lon="6.6823">
        <ele>317</ele>
        <time>2016-07-24T08:07:10.000Z</time>
      </trkpt>
      <trkpt lat="47.44622" lon="6.68225">
        <ele>317</ele>
        <time>2016-07-24T08:07:11.000Z</time>
      </trkpt>
      <trkpt lat="47.44619" lon="6.6822">
        <ele>317</ele>
        <time>2016-07-24T08:07:12.000Z</time>
      </trkpt>
      <trkpt lat="47.44617" lon="6.68215">
        <ele>317</ele>
        <time>2016-07-24T08:07:13.000Z</time>
      </trkpt>
      <trkpt lat="47.44615" lon="6.6821">
        <ele>317</ele>
        <time>2016-07-24T08:07:14.000Z</time>
      </trkpt>
      <trkpt lat="47.44612" lon="6.68206">
        <ele>317</ele>
        <time>2016-07-24T08:07:15.000Z</time>
      </trkpt>
      <trkpt lat="47.44609" lon="6.68201">
        <ele>317</ele>
        <time>2016-07-24T08:07:16.000Z</time>
      </trkpt>
      <trkpt lat="47.44606" lon="6.68197">
        <ele>318</ele>
        <time>2016-07-24T08:07:17.000Z</time>
      </trkpt>
      <trkpt lat="47.44602" lon="6.68192">
        <ele>318</ele>
        <time>2016-07-24T08:07:18.000Z</time>
      </trkpt>
      <trkpt lat="47.446" lon="6.68187">
        <ele>318</ele>
        <time>2016-07-24T08:07:19.000Z</time>
      </trkpt>
      <trkpt lat="47.44597" lon="6.68182">
        <ele>318</ele>
        <time>2016-07-24T08:07:20.000Z</time>
      </trkpt>
      <trkpt lat="47.44595" lon="6.68177">
        <ele>318</ele>
        <time>2016-07-24T08:07:21.000Z</time>
      </trkpt>
      <trkpt lat="47.44593" lon="6.68171">
        <ele>319</ele>
        <time>2016-07-24T08:07:22.000Z</time>
      </trkpt>
      <trkpt lat="47.44592" lon="6.68166">
        <ele>317</ele>
        <time>2016-07-24T08:07:23.000Z</time>
      </trkpt>
      <trkpt lat="47.4459" lon="6.68162">
        <ele>316</ele>
        <time>2016-07-24T08:07:24.000Z</time>
      </trkpt>
      <trkpt lat="47.44589" lon="6.68158">
        <ele>316</ele>
        <time>2016-07-24T08:07:25.000Z</time>
      </trkpt>
      <trkpt lat="47.44589" lon="6.68155">
        <ele>315</ele>
        <time>2016-07-24T08:07:26.000Z</time>
      </trkpt>
      <trkpt lat="47.44588" lon="6.68151">
        <ele>314</ele>
        <time>2016-07-24T08:07:27.000Z</time>
      </trkpt>
      <trkpt lat="47.44587" lon="6.68146">
        <ele>313</ele>
        <time>2016-07-24T08:07:28.000Z</time>
      </trkpt>
      <trkpt lat="47.44586" lon="6.68141">
        <ele>312</ele>
        <time>2016-07-24T08:07:29.000Z</time>
      </trkpt>
      <trkpt lat="47.44585" lon="6.68135">
        <ele>311</ele>
        <time>2016-07-24T08:07:30.000Z</time>
      </trkpt>
      <trkpt lat="47.44585" lon="6.68128">
        <ele>311</ele>
        <time>2016-07-24T08:07:31.000Z</time>
      </trkpt>
      <trkpt lat="47.44584" lon="6.68122">
        <ele>310</ele>
        <time>2016-07-24T08:07:32.000Z</time>
      </trkpt>
      <trkpt lat="47.44581" lon="6.68116">
        <ele>322</ele>
        <time>2016-07-24T08:07:33.000Z</time>
      </trkpt>
      <trkpt lat="47.44578" lon="6.6811">
        <ele>321</ele>
        <time>2016-07-24T08:07:34.000Z</time>
      </trkpt>
      <trkpt lat="47.44575" lon="6.68103">
        <ele>319</ele>
        <time>2016-07-24T08:07:35.000Z</time>
      </trkpt>
      <trkpt lat="47.44571" lon="6.68095">
        <ele>318</ele>
        <time>2016-07-24T08:07:36.000Z</time>
      </trkpt>
      <trkpt lat="47.44567" lon="6.68088">
        <ele>318</ele>
        <time>2016-07-24T08:07:37.000Z</time>
      </trkpt>
      <trkpt lat="47.44564" lon="6.6808">
        <ele>313</ele>
        <time>2016-07-24T08:07:38.000Z</time>
      </trkpt>
      <trkpt lat="47.44562" lon="6.68072">
        <ele>314</ele>
        <time>2016-07-24T08:07:39.000Z</time>
      </trkpt>
      <trkpt lat="47.44559" lon="6.68065">
        <ele>314</ele>
        <time>2016-07-24T08:07:40.000Z</time>
      </trkpt>
      <trkpt lat="47.44548" lon="6.6805">
        <ele>316</ele>
        <time>2016-07-24T08:07:41.000Z</time>
      </trkpt>
      <trkpt lat="47.44545" lon="6.68043">
        <ele>316</ele>
        <time>2016-07-24T08:07:42.000Z</time>
      </trkpt>
      <trkpt lat="47.44542" lon="6.68037">
        <ele>316</ele>
        <time>2016-07-24T08:07:43.000Z</time>
      </trkpt>
      <trkpt lat="47.44538" lon="6.68032">
        <ele>316</ele>
        <time>2016-07-24T08:07:44.000Z</time>
      </trkpt>
      <trkpt lat="47.44534" lon="6.68025">
        <ele>317</ele>
        <time>2016-07-24T08:07:45.000Z</time>
      </trkpt>
      <trkpt lat="47.44528" lon="6.68017">
        <ele>317</ele>
        <time>2016-07-24T08:07:46.000Z</time>
      </trkpt>
      <trkpt lat="47.44526" lon="6.68008">
        <ele>317</ele>
        <time>2016-07-24T08:07:47.000Z</time>
      </trkpt>
      <trkpt lat="47.44522" lon="6.68001">
        <ele>317</ele>
        <time>2016-07-24T08:07:48.000Z</time>
      </trkpt>
      <trkpt lat="47.4452" lon="6.67994">
        <ele>313</ele>
        <time>2016-07-24T08:07:49.000Z</time>
      </trkpt>
      <trkpt lat="47.44517" lon="6.67988">
        <ele>313</ele>
        <time>2016-07-24T08:07:50.000Z</time>
      </trkpt>
      <trkpt lat="47.44515" lon="6.67983">
        <ele>312</ele>
        <time>2016-07-24T08:07:51.000Z</time>
      </trkpt>
      <trkpt lat="47.44513" lon="6.67977">
        <ele>312</ele>
        <time>2016-07-24T08:07:52.000Z</time>
      </trkpt>
      <trkpt lat="47.44513" lon="6.67973">
        <ele>311</ele>
        <time>2016-07-24T08:07:53.000Z</time>
      </trkpt>
      <trkpt lat="47.44511" lon="6.67967">
        <ele>311</ele>
        <time>2016-07-24T08:07:54.000Z</time>
      </trkpt>
      <trkpt lat="47.44507" lon="6.67964">
        <ele>310</ele>
        <time>2016-07-24T08:07:55.000Z</time>
      </trkpt>
      <trkpt lat="47.44506" lon="6.67959">
        <ele>310</ele>
        <time>2016-07-24T08:07:56.000Z</time>
      </trkpt>
      <trkpt lat="47.44504" lon="6.67956">
        <ele>310</ele>
        <time>2016-07-24T08:07:57.000Z</time>
      </trkpt>
      <trkpt lat="47.44502" lon="6.67954">
        <ele>309</ele>
        <time>2016-07-24T08:07:58.000Z</time>
      </trkpt>
      <trkpt lat="47.44502" lon="6.67947">
        <ele>309</ele>
        <time>2016-07-24T08:08:00.000Z</time>
      </trkpt>
      <trkpt lat="47.44501" lon="6.67944">
        <ele>309</ele>
        <time>2016-07-24T08:08:01.000Z</time>
      </trkpt>
      <trkpt lat="47.44499" lon="6.67941">
        <ele>320</ele>
        <time>2016-07-24T08:08:02.000Z</time>
      </trkpt>
      <trkpt lat="47.44497" lon="6.67936">
        <ele>319</ele>
        <time>2016-07-24T08:08:03.000Z</time>
      </trkpt>
      <trkpt lat="47.44494" lon="6.67932">
        <ele>317</ele>
        <time>2016-07-24T08:08:04.000Z</time>
      </trkpt>
      <trkpt lat="47.44491" lon="6.67927">
        <ele>316</ele>
        <time>2016-07-24T08:08:05.000Z</time>
      </trkpt>
      <trkpt lat="47.44489" lon="6.67922">
        <ele>316</ele>
        <time>2016-07-24T08:08:06.000Z</time>
      </trkpt>
      <trkpt lat="47.44486" lon="6.67918">
        <ele>317</ele>
        <time>2016-07-24T08:08:07.000Z</time>
      </trkpt>
      <trkpt lat="47.44483" lon="6.67915">
        <ele>314</ele>
        <time>2016-07-24T08:08:08.000Z</time>
      </trkpt>
      <trkpt lat="47.44481" lon="6.67911">
        <ele>315</ele>
        <time>2016-07-24T08:08:09.000Z</time>
      </trkpt>
      <trkpt lat="47.44479" lon="6.67907">
        <ele>316</ele>
        <time>2016-07-24T08:08:10.000Z</time>
      </trkpt>
      <trkpt lat="47.44477" lon="6.67902">
        <ele>317</ele>
        <time>2016-07-24T08:08:11.000Z</time>
      </trkpt>
      <trkpt lat="47.44468" lon="6.67889">
        <ele>319</ele>
        <time>2016-07-24T08:08:12.000Z</time>
      </trkpt>
      <trkpt lat="47.44465" lon="6.67883">
        <ele>319</ele>
        <time>2016-07-24T08:08:13.000Z</time>
      </trkpt>
      <trkpt lat="47.44461" lon="6.67879">
        <ele>320</ele>
        <time>2016-07-24T08:08:14.000Z</time>
      </trkpt>
      <trkpt lat="47.44458" lon="6.67874">
        <ele>320</ele>
        <time>2016-07-24T08:08:15.000Z</time>
      </trkpt>
      <trkpt lat="47.44456" lon="6.67866">
        <ele>320</ele>
        <time>2016-07-24T08:08:16.000Z</time>
      </trkpt>
      <trkpt lat="47.44454" lon="6.67859">
        <ele>320</ele>
        <time>2016-07-24T08:08:17.000Z</time>
      </trkpt>
      <trkpt lat="47.44452" lon="6.67853">
        <ele>320</ele>
        <time>2016-07-24T08:08:18.000Z</time>
      </trkpt>
      <trkpt lat="47.44449" lon="6.67848">
        <ele>321</ele>
        <time>2016-07-24T08:08:19.000Z</time>
      </trkpt>
      <trkpt lat="47.44447" lon="6.67843">
        <ele>321</ele>
        <time>2016-07-24T08:08:20.000Z</time>
      </trkpt>
      <trkpt lat="47.44444" lon="6.67838">
        <ele>322</ele>
        <time>2016-07-24T08:08:21.000Z</time>
      </trkpt>
      <trkpt lat="47.44442" lon="6.67835">
        <ele>322</ele>
        <time>2016-07-24T08:08:22.000Z</time>
      </trkpt>
      <trkpt lat="47.4444" lon="6.67829">
        <ele>318</ele>
        <time>2016-07-24T08:08:23.000Z</time>
      </trkpt>
      <trkpt lat="47.4444" lon="6.67825">
        <ele>317</ele>
        <time>2016-07-24T08:08:24.000Z</time>
      </trkpt>
      <trkpt lat="47.44438" lon="6.6782">
        <ele>317</ele>
        <time>2016-07-24T08:08:25.000Z</time>
      </trkpt>
      <trkpt lat="47.44439" lon="6.67813">
        <ele>316</ele>
        <time>2016-07-24T08:08:26.000Z</time>
      </trkpt>
      <trkpt lat="47.44435" lon="6.67805">
        <ele>316</ele>
        <time>2016-07-24T08:08:27.000Z</time>
      </trkpt>
      <trkpt lat="47.44433" lon="6.678">
        <ele>315</ele>
        <time>2016-07-24T08:08:28.000Z</time>
      </trkpt>
      <trkpt lat="47.44431" lon="6.67795">
        <ele>315</ele>
        <time>2016-07-24T08:08:29.000Z</time>
      </trkpt>
      <trkpt lat="47.44429" lon="6.67789">
        <ele>314</ele>
        <time>2016-07-24T08:08:30.000Z</time>
      </trkpt>
      <trkpt lat="47.44428" lon="6.67784">
        <ele>314</ele>
        <time>2016-07-24T08:08:31.000Z</time>
      </trkpt>
      <trkpt lat="47.44428" lon="6.67779">
        <ele>314</ele>
        <time>2016-07-24T08:08:32.000Z</time>
      </trkpt>
      <trkpt lat="47.44427" lon="6.67774">
        <ele>314</ele>
        <time>2016-07-24T08:08:33.000Z</time>
      </trkpt>
      <trkpt lat="47.44426" lon="6.67768">
        <ele>314</ele>
        <time>2016-07-24T08:08:34.000Z</time>
      </trkpt>
      <trkpt lat="47.44425" lon="6.67762">
        <ele>314</ele>
        <time>2016-07-24T08:08:35.000Z</time>
      </trkpt>
      <trkpt lat="47.44424" lon="6.67757">
        <ele>315</ele>
        <time>2016-07-24T08:08:36.000Z</time>
      </trkpt>
      <trkpt lat="47.44423" lon="6.67751">
        <ele>315</ele>
        <time>2016-07-24T08:08:37.000Z</time>
      </trkpt>
      <trkpt lat="47.44421" lon="6.67744">
        <ele>313</ele>
        <time>2016-07-24T08:08:38.000Z</time>
      </trkpt>
      <trkpt lat="47.44419" lon="6.67737">
        <ele>312</ele>
        <time>2016-07-24T08:08:39.000Z</time>
      </trkpt>
      <trkpt lat="47.44417" lon="6.67731">
        <ele>310</ele>
        <time>2016-07-24T08:08:40.000Z</time>
      </trkpt>
      <trkpt lat="47.44415" lon="6.67724">
        <ele>324</ele>
        <time>2016-07-24T08:08:41.000Z</time>
      </trkpt>
      <trkpt lat="47.44413" lon="6.67718">
        <ele>324</ele>
        <time>2016-07-24T08:08:42.000Z</time>
      </trkpt>
      <trkpt lat="47.44411" lon="6.67711">
        <ele>324</ele>
        <time>2016-07-24T08:08:43.000Z</time>
      </trkpt>
      <trkpt lat="47.44409" lon="6.67705">
        <ele>324</ele>
        <time>2016-07-24T08:08:44.000Z</time>
      </trkpt>
      <trkpt lat="47.44408" lon="6.67699">
        <ele>323</ele>
        <time>2016-07-24T08:08:45.000Z</time>
      </trkpt>
      <trkpt lat="47.44406" lon="6.67693">
        <ele>322</ele>
        <time>2016-07-24T08:08:46.000Z</time>
      </trkpt>
      <trkpt lat="47.44405" lon="6.67687">
        <ele>321</ele>
        <time>2016-07-24T08:08:47.000Z</time>
      </trkpt>
      <trkpt lat="47.44403" lon="6.67682">
        <ele>320</ele>
        <time>2016-07-24T08:08:48.000Z</time>
      </trkpt>
      <trkpt lat="47.44403" lon="6.67677">
        <ele>319</ele>
        <time>2016-07-24T08:08:49.000Z</time>
      </trkpt>
      <trkpt lat="47.44402" lon="6.67671">
        <ele>318</ele>
        <time>2016-07-24T08:08:50.000Z</time>
      </trkpt>
      <trkpt lat="47.44401" lon="6.67664">
        <ele>314</ele>
        <time>2016-07-24T08:08:51.000Z</time>
      </trkpt>
      <trkpt lat="47.44401" lon="6.67657">
        <ele>315</ele>
        <time>2016-07-24T08:08:52.000Z</time>
      </trkpt>
      <trkpt lat="47.444" lon="6.67651">
        <ele>316</ele>
        <time>2016-07-24T08:08:53.000Z</time>
      </trkpt>
      <trkpt lat="47.44399" lon="6.67645">
        <ele>316</ele>
        <time>2016-07-24T08:08:54.000Z</time>
      </trkpt>
      <trkpt lat="47.44398" lon="6.67639">
        <ele>317</ele>
        <time>2016-07-24T08:08:55.000Z</time>
      </trkpt>
      <trkpt lat="47.44396" lon="6.67632">
        <ele>317</ele>
        <time>2016-07-24T08:08:56.000Z</time>
      </trkpt>
      <trkpt lat="47.44393" lon="6.67626">
        <ele>318</ele>
        <time>2016-07-24T08:08:57.000Z</time>
      </trkpt>
      <trkpt lat="47.44391" lon="6.67619">
        <ele>318</ele>
        <time>2016-07-24T08:08:58.000Z</time>
      </trkpt>
      <trkpt lat="47.44389" lon="6.67612">
        <ele>317</ele>
        <time>2016-07-24T08:08:59.000Z</time>
      </trkpt>
      <trkpt lat="47.44388" lon="6.67605">
        <ele>317</ele>
        <time>2016-07-24T08:09:00.000Z</time>
      </trkpt>
      <trkpt lat="47.44386" lon="6.67599">
        <ele>317</ele>
        <time>2016-07-24T08:09:01.000Z</time>
      </trkpt>
      <trkpt lat="47.44384" lon="6.67593">
        <ele>317</ele>
        <time>2016-07-24T08:09:02.000Z</time>
      </trkpt>
      <trkpt lat="47.44382" lon="6.67588">
        <ele>317</ele>
        <time>2016-07-24T08:09:03.000Z</time>
      </trkpt>
      <trkpt lat="47.4438" lon="6.67584">
        <ele>318</ele>
        <time>2016-07-24T08:09:04.000Z</time>
      </trkpt>
      <trkpt lat="47.44379" lon="6.6758">
        <ele>313</ele>
        <time>2016-07-24T08:09:05.000Z</time>
      </trkpt>
      <trkpt lat="47.44377" lon="6.67577">
        <ele>314</ele>
        <time>2016-07-24T08:09:06.000Z</time>
      </trkpt>
      <trkpt lat="47.44376" lon="6.67574">
        <ele>314</ele>
        <time>2016-07-24T08:09:07.000Z</time>
      </trkpt>
      <trkpt lat="47.44374" lon="6.67571">
        <ele>314</ele>
        <time>2016-07-24T08:09:08.000Z</time>
      </trkpt>
      <trkpt lat="47.44373" lon="6.67567">
        <ele>314</ele>
        <time>2016-07-24T08:09:09.000Z</time>
      </trkpt>
      <trkpt lat="47.44372" lon="6.67564">
        <ele>315</ele>
        <time>2016-07-24T08:09:10.000Z</time>
      </trkpt>
      <trkpt lat="47.4437" lon="6.67559">
        <ele>315</ele>
        <time>2016-07-24T08:09:11.000Z</time>
      </trkpt>
      <trkpt lat="47.44369" lon="6.67555">
        <ele>315</ele>
        <time>2016-07-24T08:09:12.000Z</time>
      </trkpt>
      <trkpt lat="47.44368" lon="6.67549">
        <ele>314</ele>
        <time>2016-07-24T08:09:13.000Z</time>
      </trkpt>
      <trkpt lat="47.44367" lon="6.67543">
        <ele>314</ele>
        <time>2016-07-24T08:09:14.000Z</time>
      </trkpt>
      <trkpt lat="47.44367" lon="6.67537">
        <ele>314</ele>
        <time>2016-07-24T08:09:15.000Z</time>
      </trkpt>
      <trkpt lat="47.44366" lon="6.6753">
        <ele>314</ele>
        <time>2016-07-24T08:09:16.000Z</time>
      </trkpt>
      <trkpt lat="47.44366" lon="6.67524">
        <ele>314</ele>
        <time>2016-07-24T08:09:17.000Z</time>
      </trkpt>
      <trkpt lat="47.44365" lon="6.67518">
        <ele>313</ele>
        <time>2016-07-24T08:09:18.000Z</time>
      </trkpt>
      <trkpt lat="47.44364" lon="6.67512">
        <ele>314</ele>
        <time>2016-07-24T08:09:19.000Z</time>
      </trkpt>
      <trkpt lat="47.44364" lon="6.67507">
        <ele>314</ele>
        <time>2016-07-24T08:09:20.000Z</time>
      </trkpt>
      <trkpt lat="47.44363" lon="6.67501">
        <ele>314</ele>
        <time>2016-07-24T08:09:21.000Z</time>
      </trkpt>
      <trkpt lat="47.44362" lon="6.67496">
        <ele>310</ele>
        <time>2016-07-24T08:09:22.000Z</time>
      </trkpt>
      <trkpt lat="47.44361" lon="6.6749">
        <ele>310</ele>
        <time>2016-07-24T08:09:23.000Z</time>
      </trkpt>
      <trkpt lat="47.4436" lon="6.67486">
        <ele>310</ele>
        <time>2016-07-24T08:09:24.000Z</time>
      </trkpt>
      <trkpt lat="47.44359" lon="6.67483">
        <ele>310</ele>
        <time>2016-07-24T08:09:25.000Z</time>
      </trkpt>
      <trkpt lat="47.44357" lon="6.67478">
        <ele>310</ele>
        <time>2016-07-24T08:09:27.000Z</time>
      </trkpt>
      <trkpt lat="47.44356" lon="6.67476">
        <ele>310</ele>
        <time>2016-07-24T08:09:28.000Z</time>
      </trkpt>
      <trkpt lat="47.44354" lon="6.67472">
        <ele>310</ele>
        <time>2016-07-24T08:09:31.000Z</time>
      </trkpt>
      <trkpt lat="47.44353" lon="6.6747">
        <ele>310</ele>
        <time>2016-07-24T08:09:32.000Z</time>
      </trkpt>
      <trkpt lat="47.44351" lon="6.67465">
        <ele>310</ele>
        <time>2016-07-24T08:09:35.000Z</time>
      </trkpt>
      <trkpt lat="47.44349" lon="6.67464">
        <ele>310</ele>
        <time>2016-07-24T08:09:36.000Z</time>
      </trkpt>
      <trkpt lat="47.44346" lon="6.6746">
        <ele>310</ele>
        <time>2016-07-24T08:09:38.000Z</time>
      </trkpt>
      <trkpt lat="47.44344" lon="6.67458">
        <ele>310</ele>
        <time>2016-07-24T08:09:39.000Z</time>
      </trkpt>
      <trkpt lat="47.44342" lon="6.67456">
        <ele>310</ele>
        <time>2016-07-24T08:09:40.000Z</time>
      </trkpt>
      <trkpt lat="47.44341" lon="6.67453">
        <ele>310</ele>
        <time>2016-07-24T08:09:41.000Z</time>
      </trkpt>
      <trkpt lat="47.44341" lon="6.67449">
        <ele>310</ele>
        <time>2016-07-24T08:09:42.000Z</time>
      </trkpt>
      <trkpt lat="47.4434" lon="6.67445">
        <ele>310</ele>
        <time>2016-07-24T08:09:43.000Z</time>
      </trkpt>
      <trkpt lat="47.44339" lon="6.67441">
        <ele>310</ele>
        <time>2016-07-24T08:09:44.000Z</time>
      </trkpt>
      <trkpt lat="47.44338" lon="6.67436">
        <ele>310</ele>
        <time>2016-07-24T08:09:45.000Z</time>
      </trkpt>
      <trkpt lat="47.44337" lon="6.67431">
        <ele>310</ele>
        <time>2016-07-24T08:09:46.000Z</time>
      </trkpt>
      <trkpt lat="47.44337" lon="6.67427">
        <ele>310</ele>
        <time>2016-07-24T08:09:47.000Z</time>
      </trkpt>
      <trkpt lat="47.44337" lon="6.67423">
        <ele>310</ele>
        <time>2016-07-24T08:09:48.000Z</time>
      </trkpt>
      <trkpt lat="47.44337" lon="6.67418">
        <ele>311</ele>
        <time>2016-07-24T08:09:49.000Z</time>
      </trkpt>
      <trkpt lat="47.44338" lon="6.67414">
        <ele>310</ele>
        <time>2016-07-24T08:09:50.000Z</time>
      </trkpt>
      <trkpt lat="47.44339" lon="6.6741">
        <ele>310</ele>
        <time>2016-07-24T08:09:51.000Z</time>
      </trkpt>
      <trkpt lat="47.44339" lon="6.67406">
        <ele>309</ele>
        <time>2016-07-24T08:09:52.000Z</time>
      </trkpt>
      <trkpt lat="47.44339" lon="6.67403">
        <ele>309</ele>
        <time>2016-07-24T08:09:53.000Z</time>
      </trkpt>
      <trkpt lat="47.44339" lon="6.67399">
        <ele>308</ele>
        <time>2016-07-24T08:09:54.000Z</time>
      </trkpt>
      <trkpt lat="47.44339" lon="6.67395">
        <ele>308</ele>
        <time>2016-07-24T08:09:55.000Z</time>
      </trkpt>
      <trkpt lat="47.44338" lon="6.67392">
        <ele>308</ele>
        <time>2016-07-24T08:09:56.000Z</time>
      </trkpt>
      <trkpt lat="47.44338" lon="6.67388">
        <ele>308</ele>
        <time>2016-07-24T08:09:57.000Z</time>
      </trkpt>
      <trkpt lat="47.44337" lon="6.67386">
        <ele>308</ele>
        <time>2016-07-24T08:09:58.000Z</time>
      </trkpt>
      <trkpt lat="47.44336" lon="6.67382">
        <ele>308</ele>
        <time>2016-07-24T08:09:59.000Z</time>
      </trkpt>
      <trkpt lat="47.44335" lon="6.67376">
        <ele>308</ele>
        <time>2016-07-24T08:10:00.000Z</time>
      </trkpt>
      <trkpt lat="47.44334" lon="6.67371">
        <ele>308</ele>
        <time>2016-07-24T08:10:01.000Z</time>
      </trkpt>
      <trkpt lat="47.44334" lon="6.67365">
        <ele>308</ele>
        <time>2016-07-24T08:10:02.000Z</time>
      </trkpt>
      <trkpt lat="47.44333" lon="6.67359">
        <ele>308</ele>
        <time>2016-07-24T08:10:03.000Z</time>
      </trkpt>
      <trkpt lat="47.44334" lon="6.67353">
        <ele>309</ele>
        <time>2016-07-24T08:10:04.000Z</time>
      </trkpt>
      <trkpt lat="47.44334" lon="6.67347">
        <ele>310</ele>
        <time>2016-07-24T08:10:05.000Z</time>
      </trkpt>
      <trkpt lat="47.44334" lon="6.67341">
        <ele>310</ele>
        <time>2016-07-24T08:10:06.000Z</time>
      </trkpt>
      <trkpt lat="47.44334" lon="6.67335">
        <ele>312</ele>
        <time>2016-07-24T08:10:07.000Z</time>
      </trkpt>
      <trkpt lat="47.44334" lon="6.6733">
        <ele>311</ele>
        <time>2016-07-24T08:10:08.000Z</time>
      </trkpt>
      <trkpt lat="47.44334" lon="6.67325">
        <ele>310</ele>
        <time>2016-07-24T08:10:09.000Z</time>
      </trkpt>
      <trkpt lat="47.44334" lon="6.67321">
        <ele>309</ele>
        <time>2016-07-24T08:10:10.000Z</time>
      </trkpt>
      <trkpt lat="47.44334" lon="6.67316">
        <ele>309</ele>
        <time>2016-07-24T08:10:11.000Z</time>
      </trkpt>
      <trkpt lat="47.44334" lon="6.67311">
        <ele>308</ele>
        <time>2016-07-24T08:10:12.000Z</time>
      </trkpt>
      <trkpt lat="47.44332" lon="6.67304">
        <ele>322</ele>
        <time>2016-07-24T08:10:13.000Z</time>
      </trkpt>
      <trkpt lat="47.44331" lon="6.67298">
        <ele>323</ele>
        <time>2016-07-24T08:10:14.000Z</time>
      </trkpt>
      <trkpt lat="47.4433" lon="6.67291">
        <ele>323</ele>
        <time>2016-07-24T08:10:15.000Z</time>
      </trkpt>
      <trkpt lat="47.44329" lon="6.67284">
        <ele>323</ele>
        <time>2016-07-24T08:10:16.000Z</time>
      </trkpt>
      <trkpt lat="47.44327" lon="6.67277">
        <ele>322</ele>
        <time>2016-07-24T08:10:17.000Z</time>
      </trkpt>
      <trkpt lat="47.44325" lon="6.6727">
        <ele>321</ele>
        <time>2016-07-24T08:10:18.000Z</time>
      </trkpt>
      <trkpt lat="47.44324" lon="6.67262">
        <ele>319</ele>
        <time>2016-07-24T08:10:19.000Z</time>
      </trkpt>
      <trkpt lat="47.44323" lon="6.67255">
        <ele>318</ele>
        <time>2016-07-24T08:10:20.000Z</time>
      </trkpt>
      <trkpt lat="47.44322" lon="6.67247">
        <ele>319</ele>
        <time>2016-07-24T08:10:21.000Z</time>
      </trkpt>
      <trkpt lat="47.4432" lon="6.6724">
        <ele>321</ele>
        <time>2016-07-24T08:10:22.000Z</time>
      </trkpt>
      <trkpt lat="47.44319" lon="6.67234">
        <ele>323</ele>
        <time>2016-07-24T08:10:23.000Z</time>
      </trkpt>
      <trkpt lat="47.44318" lon="6.67227">
        <ele>325</ele>
        <time>2016-07-24T08:10:24.000Z</time>
      </trkpt>
      <trkpt lat="47.44318" lon="6.67222">
        <ele>326</ele>
        <time>2016-07-24T08:10:25.000Z</time>
      </trkpt>
      <trkpt lat="47.44318" lon="6.67216">
        <ele>326</ele>
        <time>2016-07-24T08:10:26.000Z</time>
      </trkpt>
      <trkpt lat="47.44318" lon="6.67211">
        <ele>327</ele>
        <time>2016-07-24T08:10:27.000Z</time>
      </trkpt>
      <trkpt lat="47.44319" lon="6.67205">
        <ele>327</ele>
        <time>2016-07-24T08:10:28.000Z</time>
      </trkpt>
      <trkpt lat="47.44321" lon="6.67199">
        <ele>326</ele>
        <time>2016-07-24T08:10:29.000Z</time>
      </trkpt>
      <trkpt lat="47.44321" lon="6.67193">
        <ele>325</ele>
        <time>2016-07-24T08:10:30.000Z</time>
      </trkpt>
      <trkpt lat="47.44322" lon="6.67186">
        <ele>324</ele>
        <time>2016-07-24T08:10:31.000Z</time>
      </trkpt>
      <trkpt lat="47.44322" lon="6.67179">
        <ele>323</ele>
        <time>2016-07-24T08:10:32.000Z</time>
      </trkpt>
      <trkpt lat="47.44321" lon="6.67173">
        <ele>321</ele>
        <time>2016-07-24T08:10:33.000Z</time>
      </trkpt>
      <trkpt lat="47.44321" lon="6.67167">
        <ele>321</ele>
        <time>2016-07-24T08:10:34.000Z</time>
      </trkpt>
      <trkpt lat="47.4432" lon="6.67161">
        <ele>323</ele>
        <time>2016-07-24T08:10:35.000Z</time>
      </trkpt>
      <trkpt lat="47.44319" lon="6.67156">
        <ele>325</ele>
        <time>2016-07-24T08:10:36.000Z</time>
      </trkpt>
      <trkpt lat="47.44318" lon="6.6715">
        <ele>327</ele>
        <time>2016-07-24T08:10:37.000Z</time>
      </trkpt>
      <trkpt lat="47.44317" lon="6.67144">
        <ele>328</ele>
        <time>2016-07-24T08:10:38.000Z</time>
      </trkpt>
      <trkpt lat="47.44316" lon="6.67137">
        <ele>329</ele>
        <time>2016-07-24T08:10:39.000Z</time>
      </trkpt>
      <trkpt lat="47.44315" lon="6.6713">
        <ele>330</ele>
        <time>2016-07-24T08:10:40.000Z</time>
      </trkpt>
      <trkpt lat="47.44314" lon="6.67123">
        <ele>330</ele>
        <time>2016-07-24T08:10:41.000Z</time>
      </trkpt>
      <trkpt lat="47.44314" lon="6.67115">
        <ele>330</ele>
        <time>2016-07-24T08:10:42.000Z</time>
      </trkpt>
      <trkpt lat="47.44314" lon="6.67107">
        <ele>329</ele>
        <time>2016-07-24T08:10:43.000Z</time>
      </trkpt>
      <trkpt lat="47.44314" lon="6.67099">
        <ele>328</ele>
        <time>2016-07-24T08:10:44.000Z</time>
      </trkpt>
      <trkpt lat="47.44314" lon="6.6709">
        <ele>326</ele>
        <time>2016-07-24T08:10:45.000Z</time>
      </trkpt>
      <trkpt lat="47.44314" lon="6.67082">
        <ele>327</ele>
        <time>2016-07-24T08:10:46.000Z</time>
      </trkpt>
      <trkpt lat="47.44315" lon="6.67073">
        <ele>328</ele>
        <time>2016-07-24T08:10:47.000Z</time>
      </trkpt>
      <trkpt lat="47.44316" lon="6.67066">
        <ele>330</ele>
        <time>2016-07-24T08:10:48.000Z</time>
      </trkpt>
      <trkpt lat="47.44316" lon="6.67059">
        <ele>331</ele>
        <time>2016-07-24T08:10:49.000Z</time>
      </trkpt>
      <trkpt lat="47.44317" lon="6.67053">
        <ele>332</ele>
        <time>2016-07-24T08:10:50.000Z</time>
      </trkpt>
      <trkpt lat="47.44317" lon="6.67047">
        <ele>333</ele>
        <time>2016-07-24T08:10:51.000Z</time>
      </trkpt>
      <trkpt lat="47.44318" lon="6.67041">
        <ele>333</ele>
        <time>2016-07-24T08:10:52.000Z</time>
      </trkpt>
      <trkpt lat="47.44319" lon="6.67035">
        <ele>333</ele>
        <time>2016-07-24T08:10:53.000Z</time>
      </trkpt>
      <trkpt lat="47.44321" lon="6.67028">
        <ele>332</ele>
        <time>2016-07-24T08:10:54.000Z</time>
      </trkpt>
      <trkpt lat="47.44321" lon="6.67021">
        <ele>330</ele>
        <time>2016-07-24T08:10:55.000Z</time>
      </trkpt>
      <trkpt lat="47.44322" lon="6.67014">
        <ele>328</ele>
        <time>2016-07-24T08:10:56.000Z</time>
      </trkpt>
      <trkpt lat="47.44323" lon="6.67008">
        <ele>326</ele>
        <time>2016-07-24T08:10:57.000Z</time>
      </trkpt>
      <trkpt lat="47.44324" lon="6.67002">
        <ele>324</ele>
        <time>2016-07-24T08:10:58.000Z</time>
      </trkpt>
      <trkpt lat="47.44324" lon="6.66997">
        <ele>326</ele>
        <time>2016-07-24T08:10:59.000Z</time>
      </trkpt>
      <trkpt lat="47.44325" lon="6.66991">
        <ele>328</ele>
        <time>2016-07-24T08:11:00.000Z</time>
      </trkpt>
      <trkpt lat="47.44326" lon="6.66985">
        <ele>331</ele>
        <time>2016-07-24T08:11:01.000Z</time>
      </trkpt>
      <trkpt lat="47.44327" lon="6.66979">
        <ele>333</ele>
        <time>2016-07-24T08:11:02.000Z</time>
      </trkpt>
      <trkpt lat="47.44328" lon="6.66973">
        <ele>335</ele>
        <time>2016-07-24T08:11:03.000Z</time>
      </trkpt>
      <trkpt lat="47.4433" lon="6.66967">
        <ele>336</ele>
        <time>2016-07-24T08:11:04.000Z</time>
      </trkpt>
      <trkpt lat="47.44332" lon="6.66962">
        <ele>337</ele>
        <time>2016-07-24T08:11:05.000Z</time>
      </trkpt>
      <trkpt lat="47.44334" lon="6.66956">
        <ele>314</ele>
        <time>2016-07-24T08:11:06.000Z</time>
      </trkpt>
      <trkpt lat="47.44335" lon="6.66951">
        <ele>315</ele>
        <time>2016-07-24T08:11:07.000Z</time>
      </trkpt>
      <trkpt lat="47.44337" lon="6.66945">
        <ele>316</ele>
        <time>2016-07-24T08:11:08.000Z</time>
      </trkpt>
      <trkpt lat="47.44338" lon="6.66939">
        <ele>317</ele>
        <time>2016-07-24T08:11:09.000Z</time>
      </trkpt>
      <trkpt lat="47.44339" lon="6.66932">
        <ele>318</ele>
        <time>2016-07-24T08:11:10.000Z</time>
      </trkpt>
      <trkpt lat="47.44341" lon="6.66925">
        <ele>320</ele>
        <time>2016-07-24T08:11:11.000Z</time>
      </trkpt>
      <trkpt lat="47.44342" lon="6.66919">
        <ele>320</ele>
        <time>2016-07-24T08:11:12.000Z</time>
      </trkpt>
      <trkpt lat="47.44344" lon="6.66912">
        <ele>321</ele>
        <time>2016-07-24T08:11:13.000Z</time>
      </trkpt>
      <trkpt lat="47.44346" lon="6.66905">
        <ele>320</ele>
        <time>2016-07-24T08:11:14.000Z</time>
      </trkpt>
      <trkpt lat="47.44347" lon="6.66897">
        <ele>319</ele>
        <time>2016-07-24T08:11:15.000Z</time>
      </trkpt>
      <trkpt lat="47.44347" lon="6.66887">
        <ele>318</ele>
        <time>2016-07-24T08:11:16.000Z</time>
      </trkpt>
      <trkpt lat="47.44348" lon="6.66878">
        <ele>318</ele>
        <time>2016-07-24T08:11:17.000Z</time>
      </trkpt>
      <trkpt lat="47.44348" lon="6.6687">
        <ele>319</ele>
        <time>2016-07-24T08:11:18.000Z</time>
      </trkpt>
      <trkpt lat="47.44349" lon="6.66862">
        <ele>319</ele>
        <time>2016-07-24T08:11:19.000Z</time>
      </trkpt>
      <trkpt lat="47.44349" lon="6.66854">
        <ele>320</ele>
        <time>2016-07-24T08:11:20.000Z</time>
      </trkpt>
      <trkpt lat="47.44349" lon="6.66847">
        <ele>321</ele>
        <time>2016-07-24T08:11:21.000Z</time>
      </trkpt>
      <trkpt lat="47.4435" lon="6.6684">
        <ele>322</ele>
        <time>2016-07-24T08:11:22.000Z</time>
      </trkpt>
      <trkpt lat="47.44351" lon="6.66833">
        <ele>324</ele>
        <time>2016-07-24T08:11:23.000Z</time>
      </trkpt>
      <trkpt lat="47.44352" lon="6.66827">
        <ele>324</ele>
        <time>2016-07-24T08:11:24.000Z</time>
      </trkpt>
      <trkpt lat="47.44354" lon="6.66821">
        <ele>323</ele>
        <time>2016-07-24T08:11:25.000Z</time>
      </trkpt>
      <trkpt lat="47.44355" lon="6.66815">
        <ele>322</ele>
        <time>2016-07-24T08:11:26.000Z</time>
      </trkpt>
      <trkpt lat="47.44357" lon="6.66809">
        <ele>322</ele>
        <time>2016-07-24T08:11:27.000Z</time>
      </trkpt>
      <trkpt lat="47.44358" lon="6.66801">
        <ele>321</ele>
        <time>2016-07-24T08:11:28.000Z</time>
      </trkpt>
      <trkpt lat="47.44358" lon="6.66793">
        <ele>322</ele>
        <time>2016-07-24T08:11:29.000Z</time>
      </trkpt>
      <trkpt lat="47.44359" lon="6.66785">
        <ele>322</ele>
        <time>2016-07-24T08:11:30.000Z</time>
      </trkpt>
      <trkpt lat="47.44359" lon="6.66776">
        <ele>323</ele>
        <time>2016-07-24T08:11:31.000Z</time>
      </trkpt>
      <trkpt lat="47.4436" lon="6.66768">
        <ele>323</ele>
        <time>2016-07-24T08:11:32.000Z</time>
      </trkpt>
      <trkpt lat="47.4436" lon="6.6676">
        <ele>324</ele>
        <time>2016-07-24T08:11:33.000Z</time>
      </trkpt>
      <trkpt lat="47.44361" lon="6.66752">
        <ele>324</ele>
        <time>2016-07-24T08:11:34.000Z</time>
      </trkpt>
      <trkpt lat="47.44362" lon="6.66745">
        <ele>327</ele>
        <time>2016-07-24T08:11:35.000Z</time>
      </trkpt>
      <trkpt lat="47.44364" lon="6.66739">
        <ele>326</ele>
        <time>2016-07-24T08:11:36.000Z</time>
      </trkpt>
      <trkpt lat="47.44365" lon="6.66733">
        <ele>326</ele>
        <time>2016-07-24T08:11:37.000Z</time>
      </trkpt>
      <trkpt lat="47.44366" lon="6.66728">
        <ele>325</ele>
        <time>2016-07-24T08:11:38.000Z</time>
      </trkpt>
      <trkpt lat="47.44368" lon="6.66722">
        <ele>325</ele>
        <time>2016-07-24T08:11:39.000Z</time>
      </trkpt>
      <trkpt lat="47.4437" lon="6.66702">
        <ele>325</ele>
        <time>2016-07-24T08:11:40.000Z</time>
      </trkpt>
      <trkpt lat="47.4437" lon="6.66693">
        <ele>325</ele>
        <time>2016-07-24T08:11:41.000Z</time>
      </trkpt>
      <trkpt lat="47.44371" lon="6.66686">
        <ele>325</ele>
        <time>2016-07-24T08:11:42.000Z</time>
      </trkpt>
      <trkpt lat="47.44372" lon="6.66678">
        <ele>325</ele>
        <time>2016-07-24T08:11:43.000Z</time>
      </trkpt>
      <trkpt lat="47.44372" lon="6.6667">
        <ele>325</ele>
        <time>2016-07-24T08:11:44.000Z</time>
      </trkpt>
      <trkpt lat="47.44372" lon="6.66663">
        <ele>328</ele>
        <time>2016-07-24T08:11:45.000Z</time>
      </trkpt>
      <trkpt lat="47.44372" lon="6.66655">
        <ele>328</ele>
        <time>2016-07-24T08:11:46.000Z</time>
      </trkpt>
      <trkpt lat="47.44371" lon="6.66647">
        <ele>328</ele>
        <time>2016-07-24T08:11:47.000Z</time>
      </trkpt>
      <trkpt lat="47.44371" lon="6.66638">
        <ele>328</ele>
        <time>2016-07-24T08:11:48.000Z</time>
      </trkpt>
      <trkpt lat="47.44371" lon="6.6663">
        <ele>328</ele>
        <time>2016-07-24T08:11:49.000Z</time>
      </trkpt>
      <trkpt lat="47.44372" lon="6.66624">
        <ele>328</ele>
        <time>2016-07-24T08:11:50.000Z</time>
      </trkpt>
      <trkpt lat="47.44373" lon="6.66618">
        <ele>329</ele>
        <time>2016-07-24T08:11:51.000Z</time>
      </trkpt>
      <trkpt lat="47.44373" lon="6.66612">
        <ele>329</ele>
        <time>2016-07-24T08:11:52.000Z</time>
      </trkpt>
      <trkpt lat="47.44374" lon="6.66607">
        <ele>329</ele>
        <time>2016-07-24T08:11:53.000Z</time>
      </trkpt>
      <trkpt lat="47.44374" lon="6.66602">
        <ele>329</ele>
        <time>2016-07-24T08:11:54.000Z</time>
      </trkpt>
      <trkpt lat="47.44375" lon="6.66597">
        <ele>329</ele>
        <time>2016-07-24T08:11:55.000Z</time>
      </trkpt>
      <trkpt lat="47.44376" lon="6.6659">
        <ele>328</ele>
        <time>2016-07-24T08:11:56.000Z</time>
      </trkpt>
      <trkpt lat="47.4438" lon="6.66577">
        <ele>328</ele>
        <time>2016-07-24T08:11:57.000Z</time>
      </trkpt>
      <trkpt lat="47.4438" lon="6.66568">
        <ele>328</ele>
        <time>2016-07-24T08:11:58.000Z</time>
      </trkpt>
      <trkpt lat="47.4438" lon="6.66561">
        <ele>328</ele>
        <time>2016-07-24T08:11:59.000Z</time>
      </trkpt>
      <trkpt lat="47.44381" lon="6.66553">
        <ele>328</ele>
        <time>2016-07-24T08:12:00.000Z</time>
      </trkpt>
      <trkpt lat="47.44381" lon="6.66546">
        <ele>328</ele>
        <time>2016-07-24T08:12:01.000Z</time>
      </trkpt>
      <trkpt lat="47.44384" lon="6.66538">
        <ele>327</ele>
        <time>2016-07-24T08:12:02.000Z</time>
      </trkpt>
      <trkpt lat="47.44384" lon="6.66531">
        <ele>327</ele>
        <time>2016-07-24T08:12:03.000Z</time>
      </trkpt>
      <trkpt lat="47.44386" lon="6.66524">
        <ele>326</ele>
        <time>2016-07-24T08:12:04.000Z</time>
      </trkpt>
      <trkpt lat="47.44386" lon="6.6652">
        <ele>326</ele>
        <time>2016-07-24T08:12:05.000Z</time>
      </trkpt>
      <trkpt lat="47.44387" lon="6.66516">
        <ele>325</ele>
        <time>2016-07-24T08:12:06.000Z</time>
      </trkpt>
      <trkpt lat="47.44388" lon="6.6651">
        <ele>325</ele>
        <time>2016-07-24T08:12:07.000Z</time>
      </trkpt>
      <trkpt lat="47.44388" lon="6.66506">
        <ele>325</ele>
        <time>2016-07-24T08:12:08.000Z</time>
      </trkpt>
      <trkpt lat="47.44388" lon="6.66502">
        <ele>325</ele>
        <time>2016-07-24T08:12:09.000Z</time>
      </trkpt>
      <trkpt lat="47.44387" lon="6.66498">
        <ele>325</ele>
        <time>2016-07-24T08:12:10.000Z</time>
      </trkpt>
      <trkpt lat="47.44386" lon="6.66493">
        <ele>325</ele>
        <time>2016-07-24T08:12:11.000Z</time>
      </trkpt>
      <trkpt lat="47.44385" lon="6.6649">
        <ele>326</ele>
        <time>2016-07-24T08:12:12.000Z</time>
      </trkpt>
      <trkpt lat="47.44385" lon="6.66486">
        <ele>326</ele>
        <time>2016-07-24T08:12:13.000Z</time>
      </trkpt>
      <trkpt lat="47.44385" lon="6.66483">
        <ele>326</ele>
        <time>2016-07-24T08:12:14.000Z</time>
      </trkpt>
      <trkpt lat="47.44386" lon="6.66478">
        <ele>326</ele>
        <time>2016-07-24T08:12:15.000Z</time>
      </trkpt>
      <trkpt lat="47.44387" lon="6.66473">
        <ele>326</ele>
        <time>2016-07-24T08:12:16.000Z</time>
      </trkpt>
      <trkpt lat="47.44389" lon="6.66467">
        <ele>326</ele>
        <time>2016-07-24T08:12:17.000Z</time>
      </trkpt>
      <trkpt lat="47.4439" lon="6.66462">
        <ele>326</ele>
        <time>2016-07-24T08:12:18.000Z</time>
      </trkpt>
      <trkpt lat="47.44398" lon="6.66452">
        <ele>324</ele>
        <time>2016-07-24T08:12:19.000Z</time>
      </trkpt>
      <trkpt lat="47.44399" lon="6.66446">
        <ele>324</ele>
        <time>2016-07-24T08:12:20.000Z</time>
      </trkpt>
      <trkpt lat="47.44401" lon="6.66437">
        <ele>323</ele>
        <time>2016-07-24T08:12:21.000Z</time>
      </trkpt>
      <trkpt lat="47.44402" lon="6.66432">
        <ele>321</ele>
        <time>2016-07-24T08:12:22.000Z</time>
      </trkpt>
      <trkpt lat="47.44404" lon="6.66428">
        <ele>320</ele>
        <time>2016-07-24T08:12:23.000Z</time>
      </trkpt>
      <trkpt lat="47.44405" lon="6.66423">
        <ele>319</ele>
        <time>2016-07-24T08:12:25.000Z</time>
      </trkpt>
      <trkpt lat="47.44404" lon="6.66419">
        <ele>318</ele>
        <time>2016-07-24T08:12:26.000Z</time>
      </trkpt>
      <trkpt lat="47.44404" lon="6.66415">
        <ele>320</ele>
        <time>2016-07-24T08:12:27.000Z</time>
      </trkpt>
      <trkpt lat="47.44406" lon="6.66411">
        <ele>320</ele>
        <time>2016-07-24T08:12:28.000Z</time>
      </trkpt>
      <trkpt lat="47.44408" lon="6.66405">
        <ele>321</ele>
        <time>2016-07-24T08:12:30.000Z</time>
      </trkpt>
      <trkpt lat="47.44409" lon="6.66401">
        <ele>322</ele>
        <time>2016-07-24T08:12:31.000Z</time>
      </trkpt>
      <trkpt lat="47.4441" lon="6.66396">
        <ele>323</ele>
        <time>2016-07-24T08:12:32.000Z</time>
      </trkpt>
      <trkpt lat="47.44411" lon="6.66389">
        <ele>324</ele>
        <time>2016-07-24T08:12:33.000Z</time>
      </trkpt>
      <trkpt lat="47.44412" lon="6.66382">
        <ele>325</ele>
        <time>2016-07-24T08:12:34.000Z</time>
      </trkpt>
      <trkpt lat="47.44413" lon="6.66375">
        <ele>325</ele>
        <time>2016-07-24T08:12:35.000Z</time>
      </trkpt>
      <trkpt lat="47.44414" lon="6.66368">
        <ele>325</ele>
        <time>2016-07-24T08:12:36.000Z</time>
      </trkpt>
      <trkpt lat="47.44415" lon="6.66362">
        <ele>324</ele>
        <time>2016-07-24T08:12:37.000Z</time>
      </trkpt>
      <trkpt lat="47.44416" lon="6.66353">
        <ele>323</ele>
        <time>2016-07-24T08:12:38.000Z</time>
      </trkpt>
      <trkpt lat="47.44416" lon="6.66345">
        <ele>320</ele>
        <time>2016-07-24T08:12:39.000Z</time>
      </trkpt>
      <trkpt lat="47.44417" lon="6.66336">
        <ele>311</ele>
        <time>2016-07-24T08:12:40.000Z</time>
      </trkpt>
      <trkpt lat="47.44418" lon="6.66329">
        <ele>311</ele>
        <time>2016-07-24T08:12:41.000Z</time>
      </trkpt>
      <trkpt lat="47.4442" lon="6.66321">
        <ele>310</ele>
        <time>2016-07-24T08:12:42.000Z</time>
      </trkpt>
      <trkpt lat="47.44421" lon="6.66315">
        <ele>309</ele>
        <time>2016-07-24T08:12:43.000Z</time>
      </trkpt>
      <trkpt lat="47.44421" lon="6.66309">
        <ele>308</ele>
        <time>2016-07-24T08:12:44.000Z</time>
      </trkpt>
      <trkpt lat="47.44421" lon="6.66305">
        <ele>308</ele>
        <time>2016-07-24T08:12:45.000Z</time>
      </trkpt>
      <trkpt lat="47.4442" lon="6.663">
        <ele>308</ele>
        <time>2016-07-24T08:12:46.000Z</time>
      </trkpt>
      <trkpt lat="47.44419" lon="6.66296">
        <ele>308</ele>
        <time>2016-07-24T08:12:47.000Z</time>
      </trkpt>
      <trkpt lat="47.44418" lon="6.66292">
        <ele>308</ele>
        <time>2016-07-24T08:12:48.000Z</time>
      </trkpt>
      <trkpt lat="47.44417" lon="6.66288">
        <ele>308</ele>
        <time>2016-07-24T08:12:49.000Z</time>
      </trkpt>
      <trkpt lat="47.44417" lon="6.66284">
        <ele>329</ele>
        <time>2016-07-24T08:12:50.000Z</time>
      </trkpt>
      <trkpt lat="47.44415" lon="6.66279">
        <ele>328</ele>
        <time>2016-07-24T08:12:52.000Z</time>
      </trkpt>
      <trkpt lat="47.44415" lon="6.66277">
        <ele>328</ele>
        <time>2016-07-24T08:12:53.000Z</time>
      </trkpt>
      <trkpt lat="47.44413" lon="6.66272">
        <ele>327</ele>
        <time>2016-07-24T08:13:01.000Z</time>
      </trkpt>
      <trkpt lat="47.44413" lon="6.66271">
        <ele>327</ele>
        <time>2016-07-24T08:13:02.000Z</time>
      </trkpt>
      <trkpt lat="47.44412" lon="6.66266">
        <ele>325</ele>
        <time>2016-07-24T08:14:21.000Z</time>
      </trkpt>
      <trkpt lat="47.44412" lon="6.66264">
        <ele>324</ele>
        <time>2016-07-24T08:14:22.000Z</time>
      </trkpt>
      <trkpt lat="47.44412" lon="6.66259">
        <ele>321</ele>
        <time>2016-07-24T08:14:25.000Z</time>
      </trkpt>
      <trkpt lat="47.44413" lon="6.66257">
        <ele>320</ele>
        <time>2016-07-24T08:14:26.000Z</time>
      </trkpt>
      <trkpt lat="47.44414" lon="6.66251">
        <ele>315</ele>
        <time>2016-07-24T08:14:29.000Z</time>
      </trkpt>
      <trkpt lat="47.44416" lon="6.66249">
        <ele>315</ele>
        <time>2016-07-24T08:14:30.000Z</time>
      </trkpt>
      <trkpt lat="47.44418" lon="6.66243">
        <ele>312</ele>
        <time>2016-07-24T08:14:32.000Z</time>
      </trkpt>
      <trkpt lat="47.44419" lon="6.66239">
        <ele>311</ele>
        <time>2016-07-24T08:14:33.000Z</time>
      </trkpt>
      <trkpt lat="47.44419" lon="6.66235">
        <ele>311</ele>
        <time>2016-07-24T08:14:34.000Z</time>
      </trkpt>
      <trkpt lat="47.4442" lon="6.66229">
        <ele>311</ele>
        <time>2016-07-24T08:14:35.000Z</time>
      </trkpt>
      <trkpt lat="47.4442" lon="6.66224">
        <ele>311</ele>
        <time>2016-07-24T08:14:36.000Z</time>
      </trkpt>
      <trkpt lat="47.44421" lon="6.66217">
        <ele>311</ele>
        <time>2016-07-24T08:14:37.000Z</time>
      </trkpt>
      <trkpt lat="47.44422" lon="6.66211">
        <ele>311</ele>
        <time>2016-07-24T08:14:38.000Z</time>
      </trkpt>
      <trkpt lat="47.44423" lon="6.66206">
        <ele>311</ele>
        <time>2016-07-24T08:14:39.000Z</time>
      </trkpt>
      <trkpt lat="47.44424" lon="6.662">
        <ele>312</ele>
        <time>2016-07-24T08:14:40.000Z</time>
      </trkpt>
      <trkpt lat="47.44425" lon="6.66196">
        <ele>312</ele>
        <time>2016-07-24T08:14:41.000Z</time>
      </trkpt>
      <trkpt lat="47.44427" lon="6.66192">
        <ele>313</ele>
        <time>2016-07-24T08:14:42.000Z</time>
      </trkpt>
      <trkpt lat="47.44428" lon="6.66188">
        <ele>313</ele>
        <time>2016-07-24T08:14:43.000Z</time>
      </trkpt>
      <trkpt lat="47.44428" lon="6.66184">
        <ele>314</ele>
        <time>2016-07-24T08:14:44.000Z</time>
      </trkpt>
      <trkpt lat="47.44429" lon="6.6618">
        <ele>314</ele>
        <time>2016-07-24T08:14:45.000Z</time>
      </trkpt>
      <trkpt lat="47.4443" lon="6.66177">
        <ele>315</ele>
        <time>2016-07-24T08:14:46.000Z</time>
      </trkpt>
      <trkpt lat="47.44432" lon="6.66174">
        <ele>315</ele>
        <time>2016-07-24T08:14:47.000Z</time>
      </trkpt>
      <trkpt lat="47.44434" lon="6.66171">
        <ele>314</ele>
        <time>2016-07-24T08:14:48.000Z</time>
      </trkpt>
      <trkpt lat="47.44435" lon="6.66168">
        <ele>314</ele>
        <time>2016-07-24T08:14:49.000Z</time>
      </trkpt>
      <trkpt lat="47.44436" lon="6.66165">
        <ele>316</ele>
        <time>2016-07-24T08:14:50.000Z</time>
      </trkpt>
      <trkpt lat="47.44436" lon="6.66162">
        <ele>316</ele>
        <time>2016-07-24T08:14:51.000Z</time>
      </trkpt>
      <trkpt lat="47.44436" lon="6.66157">
        <ele>316</ele>
        <time>2016-07-24T08:14:52.000Z</time>
      </trkpt>
      <trkpt lat="47.44436" lon="6.66153">
        <ele>316</ele>
        <time>2016-07-24T08:14:53.000Z</time>
      </trkpt>
      <trkpt lat="47.44436" lon="6.66149">
        <ele>316</ele>
        <time>2016-07-24T08:14:54.000Z</time>
      </trkpt>
      <trkpt lat="47.44436" lon="6.66146">
        <ele>316</ele>
        <time>2016-07-24T08:14:55.000Z</time>
      </trkpt>
      <trkpt lat="47.44437" lon="6.66139">
        <ele>315</ele>
        <time>2016-07-24T08:14:58.000Z</time>
      </trkpt>
      <trkpt lat="47.44437" lon="6.66138">
        <ele>315</ele>
        <time>2016-07-24T08:14:59.000Z</time>
      </trkpt>
      <trkpt lat="47.44436" lon="6.66132">
        <ele>316</ele>
        <time>2016-07-24T08:15:05.000Z</time>
      </trkpt>
      <trkpt lat="47.44436" lon="6.6613">
        <ele>316</ele>
        <time>2016-07-24T08:15:06.000Z</time>
      </trkpt>
      <trkpt lat="47.44435" lon="6.66124">
        <ele>316</ele>
        <time>2016-07-24T08:15:09.000Z</time>
      </trkpt>
      <trkpt lat="47.44435" lon="6.66123">
        <ele>316</ele>
        <time>2016-07-24T08:15:10.000Z</time>
      </trkpt>
      <trkpt lat="47.44435" lon="6.66117">
        <ele>317</ele>
        <time>2016-07-24T08:15:35.000Z</time>
      </trkpt>
      <trkpt lat="47.44435" lon="6.66117">
        <ele>317</ele>
        <time>2016-07-24T08:15:36.000Z</time>
      </trkpt>
      <trkpt lat="47.44435" lon="6.6611">
        <ele>317</ele>
        <time>2016-07-24T08:16:21.000Z</time>
      </trkpt>
      <trkpt lat="47.44435" lon="6.66109">
        <ele>318</ele>
        <time>2016-07-24T08:16:22.000Z</time>
      </trkpt>
      <trkpt lat="47.44435" lon="6.66104">
        <ele>318</ele>
        <time>2016-07-24T08:16:25.000Z</time>
      </trkpt>
      <trkpt lat="47.44436" lon="6.66102">
        <ele>318</ele>
        <time>2016-07-24T08:16:26.000Z</time>
      </trkpt>
      <trkpt lat="47.44436" lon="6.66096">
        <ele>319</ele>
        <time>2016-07-24T08:16:33.000Z</time>
      </trkpt>
      <trkpt lat="47.44437" lon="6.66095">
        <ele>319</ele>
        <time>2016-07-24T08:16:34.000Z</time>
      </trkpt>
      <trkpt lat="47.44437" lon="6.66089">
        <ele>320</ele>
        <time>2016-07-24T08:16:37.000Z</time>
      </trkpt>
      <trkpt lat="47.44438" lon="6.66087">
        <ele>320</ele>
        <time>2016-07-24T08:16:38.000Z</time>
      </trkpt>
      <trkpt lat="47.44438" lon="6.66082">
        <ele>323</ele>
        <time>2016-07-24T08:16:40.000Z</time>
      </trkpt>
      <trkpt lat="47.44439" lon="6.6608">
        <ele>323</ele>
        <time>2016-07-24T08:16:41.000Z</time>
      </trkpt>
      <trkpt lat="47.4444" lon="6.66074">
        <ele>322</ele>
        <time>2016-07-24T08:16:43.000Z</time>
      </trkpt>
      <trkpt lat="47.4444" lon="6.6607">
        <ele>322</ele>
        <time>2016-07-24T08:16:44.000Z</time>
      </trkpt>
      <trkpt lat="47.44441" lon="6.66066">
        <ele>322</ele>
        <time>2016-07-24T08:16:45.000Z</time>
      </trkpt>
      <trkpt lat="47.44442" lon="6.66063">
        <ele>321</ele>
        <time>2016-07-24T08:16:46.000Z</time>
      </trkpt>
      <trkpt lat="47.44443" lon="6.66059">
        <ele>321</ele>
        <time>2016-07-24T08:16:47.000Z</time>
      </trkpt>
      <trkpt lat="47.44444" lon="6.66056">
        <ele>321</ele>
        <time>2016-07-24T08:16:48.000Z</time>
      </trkpt>
      <trkpt lat="47.44446" lon="6.66051">
        <ele>320</ele>
        <time>2016-07-24T08:16:50.000Z</time>
      </trkpt>
      <trkpt lat="47.44447" lon="6.66049">
        <ele>320</ele>
        <time>2016-07-24T08:16:51.000Z</time>
      </trkpt>
      <trkpt lat="47.44448" lon="6.66043">
        <ele>320</ele>
        <time>2016-07-24T08:16:53.000Z</time>
      </trkpt>
      <trkpt lat="47.44449" lon="6.66038">
        <ele>321</ele>
        <time>2016-07-24T08:16:54.000Z</time>
      </trkpt>
      <trkpt lat="47.44449" lon="6.66034">
        <ele>321</ele>
        <time>2016-07-24T08:16:55.000Z</time>
      </trkpt>
      <trkpt lat="47.44449" lon="6.66029">
        <ele>321</ele>
        <time>2016-07-24T08:16:56.000Z</time>
      </trkpt>
      <trkpt lat="47.4445" lon="6.66024">
        <ele>321</ele>
        <time>2016-07-24T08:16:57.000Z</time>
      </trkpt>
      <trkpt lat="47.44451" lon="6.6602">
        <ele>321</ele>
        <time>2016-07-24T08:16:58.000Z</time>
      </trkpt>
      <trkpt lat="47.44452" lon="6.66015">
        <ele>321</ele>
        <time>2016-07-24T08:16:59.000Z</time>
      </trkpt>
      <trkpt lat="47.44453" lon="6.66009">
        <ele>321</ele>
        <time>2016-07-24T08:17:00.000Z</time>
      </trkpt>
      <trkpt lat="47.44454" lon="6.66004">
        <ele>321</ele>
        <time>2016-07-24T08:17:01.000Z</time>
      </trkpt>
      <trkpt lat="47.44455" lon="6.65999">
        <ele>325</ele>
        <time>2016-07-24T08:17:02.000Z</time>
      </trkpt>
      <trkpt lat="47.44456" lon="6.65994">
        <ele>325</ele>
        <time>2016-07-24T08:17:03.000Z</time>
      </trkpt>
      <trkpt lat="47.44457" lon="6.6599">
        <ele>325</ele>
        <time>2016-07-24T08:17:04.000Z</time>
      </trkpt>
      <trkpt lat="47.44458" lon="6.65987">
        <ele>325</ele>
        <time>2016-07-24T08:17:05.000Z</time>
      </trkpt>
      <trkpt lat="47.44459" lon="6.65983">
        <ele>324</ele>
        <time>2016-07-24T08:17:06.000Z</time>
      </trkpt>
      <trkpt lat="47.44459" lon="6.65979">
        <ele>324</ele>
        <time>2016-07-24T08:17:07.000Z</time>
      </trkpt>
      <trkpt lat="47.4446" lon="6.65975">
        <ele>324</ele>
        <time>2016-07-24T08:17:08.000Z</time>
      </trkpt>
      <trkpt lat="47.4446" lon="6.65971">
        <ele>324</ele>
        <time>2016-07-24T08:17:09.000Z</time>
      </trkpt>
      <trkpt lat="47.44461" lon="6.65967">
        <ele>324</ele>
        <time>2016-07-24T08:17:10.000Z</time>
      </trkpt>
      <trkpt lat="47.44463" lon="6.65963">
        <ele>324</ele>
        <time>2016-07-24T08:17:11.000Z</time>
      </trkpt>
      <trkpt lat="47.44464" lon="6.65958">
        <ele>324</ele>
        <time>2016-07-24T08:17:12.000Z</time>
      </trkpt>
      <trkpt lat="47.44466" lon="6.65954">
        <ele>324</ele>
        <time>2016-07-24T08:17:13.000Z</time>
      </trkpt>
      <trkpt lat="47.44468" lon="6.65949">
        <ele>324</ele>
        <time>2016-07-24T08:17:14.000Z</time>
      </trkpt>
      <trkpt lat="47.4447" lon="6.65945">
        <ele>323</ele>
        <time>2016-07-24T08:17:15.000Z</time>
      </trkpt>
      <trkpt lat="47.44472" lon="6.65941">
        <ele>323</ele>
        <time>2016-07-24T08:17:16.000Z</time>
      </trkpt>
      <trkpt lat="47.44474" lon="6.65937">
        <ele>322</ele>
        <time>2016-07-24T08:17:17.000Z</time>
      </trkpt>
      <trkpt lat="47.44475" lon="6.65932">
        <ele>321</ele>
        <time>2016-07-24T08:17:18.000Z</time>
      </trkpt>
      <trkpt lat="47.44477" lon="6.65926">
        <ele>320</ele>
        <time>2016-07-24T08:17:19.000Z</time>
      </trkpt>
      <trkpt lat="47.44478" lon="6.6592">
        <ele>320</ele>
        <time>2016-07-24T08:17:20.000Z</time>
      </trkpt>
      <trkpt lat="47.44479" lon="6.65914">
        <ele>322</ele>
        <time>2016-07-24T08:17:21.000Z</time>
      </trkpt>
      <trkpt lat="47.44479" lon="6.65908">
        <ele>322</ele>
        <time>2016-07-24T08:17:22.000Z</time>
      </trkpt>
      <trkpt lat="47.44479" lon="6.65904">
        <ele>323</ele>
        <time>2016-07-24T08:17:23.000Z</time>
      </trkpt>
      <trkpt lat="47.44479" lon="6.659">
        <ele>324</ele>
        <time>2016-07-24T08:17:24.000Z</time>
      </trkpt>
      <trkpt lat="47.4448" lon="6.65894">
        <ele>324</ele>
        <time>2016-07-24T08:17:26.000Z</time>
      </trkpt>
      <trkpt lat="47.44481" lon="6.6589">
        <ele>324</ele>
        <time>2016-07-24T08:17:27.000Z</time>
      </trkpt>
      <trkpt lat="47.44483" lon="6.65887">
        <ele>325</ele>
        <time>2016-07-24T08:17:28.000Z</time>
      </trkpt>
      <trkpt lat="47.44485" lon="6.65882">
        <ele>325</ele>
        <time>2016-07-24T08:17:29.000Z</time>
      </trkpt>
      <trkpt lat="47.44486" lon="6.65878">
        <ele>325</ele>
        <time>2016-07-24T08:17:30.000Z</time>
      </trkpt>
      <trkpt lat="47.44488" lon="6.65875">
        <ele>325</ele>
        <time>2016-07-24T08:17:31.000Z</time>
      </trkpt>
      <trkpt lat="47.44489" lon="6.65871">
        <ele>325</ele>
        <time>2016-07-24T08:17:32.000Z</time>
      </trkpt>
      <trkpt lat="47.4449" lon="6.65868">
        <ele>324</ele>
        <time>2016-07-24T08:17:33.000Z</time>
      </trkpt>
      <trkpt lat="47.44491" lon="6.65863">
        <ele>324</ele>
        <time>2016-07-24T08:17:34.000Z</time>
      </trkpt>
      <trkpt lat="47.44492" lon="6.65859">
        <ele>323</ele>
        <time>2016-07-24T08:17:35.000Z</time>
      </trkpt>
      <trkpt lat="47.44493" lon="6.65855">
        <ele>323</ele>
        <time>2016-07-24T08:17:36.000Z</time>
      </trkpt>
      <trkpt lat="47.44494" lon="6.65851">
        <ele>322</ele>
        <time>2016-07-24T08:17:37.000Z</time>
      </trkpt>
      <trkpt lat="47.44494" lon="6.65848">
        <ele>321</ele>
        <time>2016-07-24T08:17:38.000Z</time>
      </trkpt>
      <trkpt lat="47.44494" lon="6.65844">
        <ele>320</ele>
        <time>2016-07-24T08:17:39.000Z</time>
      </trkpt>
      <trkpt lat="47.44495" lon="6.6584">
        <ele>318</ele>
        <time>2016-07-24T08:17:40.000Z</time>
      </trkpt>
      <trkpt lat="47.44495" lon="6.65836">
        <ele>316</ele>
        <time>2016-07-24T08:17:41.000Z</time>
      </trkpt>
      <trkpt lat="47.44496" lon="6.65832">
        <ele>317</ele>
        <time>2016-07-24T08:17:42.000Z</time>
      </trkpt>
      <trkpt lat="47.44496" lon="6.65828">
        <ele>318</ele>
        <time>2016-07-24T08:17:43.000Z</time>
      </trkpt>
      <trkpt lat="47.44497" lon="6.65825">
        <ele>320</ele>
        <time>2016-07-24T08:17:44.000Z</time>
      </trkpt>
      <trkpt lat="47.44498" lon="6.65821">
        <ele>321</ele>
        <time>2016-07-24T08:17:45.000Z</time>
      </trkpt>
      <trkpt lat="47.44499" lon="6.65818">
        <ele>322</ele>
        <time>2016-07-24T08:17:46.000Z</time>
      </trkpt>
      <trkpt lat="47.44499" lon="6.65814">
        <ele>324</ele>
        <time>2016-07-24T08:17:47.000Z</time>
      </trkpt>
      <trkpt lat="47.445" lon="6.6581">
        <ele>325</ele>
        <time>2016-07-24T08:17:48.000Z</time>
      </trkpt>
      <trkpt lat="47.445" lon="6.65806">
        <ele>326</ele>
        <time>2016-07-24T08:17:49.000Z</time>
      </trkpt>
      <trkpt lat="47.445" lon="6.65802">
        <ele>312</ele>
        <time>2016-07-24T08:17:50.000Z</time>
      </trkpt>
      <trkpt lat="47.44501" lon="6.65798">
        <ele>312</ele>
        <time>2016-07-24T08:17:51.000Z</time>
      </trkpt>
      <trkpt lat="47.44502" lon="6.65792">
        <ele>312</ele>
        <time>2016-07-24T08:17:53.000Z</time>
      </trkpt>
      <trkpt lat="47.44502" lon="6.6579">
        <ele>313</ele>
        <time>2016-07-24T08:17:54.000Z</time>
      </trkpt>
      <trkpt lat="47.44504" lon="6.65784">
        <ele>313</ele>
        <time>2016-07-24T08:17:57.000Z</time>
      </trkpt>
      <trkpt lat="47.44505" lon="6.65783">
        <ele>313</ele>
        <time>2016-07-24T08:17:58.000Z</time>
      </trkpt>
      <trkpt lat="47.44507" lon="6.6578">
        <ele>313</ele>
        <time>2016-07-24T08:18:01.000Z</time>
      </trkpt>
      <trkpt lat="47.44508" lon="6.65778">
        <ele>313</ele>
        <time>2016-07-24T08:18:02.000Z</time>
      </trkpt>
      <trkpt lat="47.44509" lon="6.65773">
        <ele>314</ele>
        <time>2016-07-24T08:18:05.000Z</time>
      </trkpt>
      <trkpt lat="47.44511" lon="6.65772">
        <ele>314</ele>
        <time>2016-07-24T08:18:06.000Z</time>
      </trkpt>
      <trkpt lat="47.44515" lon="6.65771">
        <ele>313</ele>
        <time>2016-07-24T08:18:08.000Z</time>
      </trkpt>
      <trkpt lat="47.44516" lon="6.6577">
        <ele>313</ele>
        <time>2016-07-24T08:18:09.000Z</time>
      </trkpt>
      <trkpt lat="47.4452" lon="6.65769">
        <ele>313</ele>
        <time>2016-07-24T08:18:11.000Z</time>
      </trkpt>
      <trkpt lat="47.44522" lon="6.6577">
        <ele>313</ele>
        <time>2016-07-24T08:18:12.000Z</time>
      </trkpt>
      <trkpt lat="47.44525" lon="6.65771">
        <ele>312</ele>
        <time>2016-07-24T08:18:14.000Z</time>
      </trkpt>
      <trkpt lat="47.44527" lon="6.65771">
        <ele>312</ele>
        <time>2016-07-24T08:18:15.000Z</time>
      </trkpt>
      <trkpt lat="47.4453" lon="6.65768">
        <ele>312</ele>
        <time>2016-07-24T08:18:17.000Z</time>
      </trkpt>
      <trkpt lat="47.44532" lon="6.65767">
        <ele>312</ele>
        <time>2016-07-24T08:18:18.000Z</time>
      </trkpt>
      <trkpt lat="47.44535" lon="6.65765">
        <ele>312</ele>
        <time>2016-07-24T08:18:20.000Z</time>
      </trkpt>
      <trkpt lat="47.44537" lon="6.65764">
        <ele>311</ele>
        <time>2016-07-24T08:18:21.000Z</time>
      </trkpt>
      <trkpt lat="47.44541" lon="6.65761">
        <ele>311</ele>
        <time>2016-07-24T08:18:23.000Z</time>
      </trkpt>
      <trkpt lat="47.44544" lon="6.65759">
        <ele>311</ele>
        <time>2016-07-24T08:18:24.000Z</time>
      </trkpt>
      <trkpt lat="47.44546" lon="6.65757">
        <ele>311</ele>
        <time>2016-07-24T08:18:25.000Z</time>
      </trkpt>
      <trkpt lat="47.44549" lon="6.65755">
        <ele>310</ele>
        <time>2016-07-24T08:18:26.000Z</time>
      </trkpt>
      <trkpt lat="47.44552" lon="6.65753">
        <ele>310</ele>
        <time>2016-07-24T08:18:27.000Z</time>
      </trkpt>
      <trkpt lat="47.44554" lon="6.65751">
        <ele>310</ele>
        <time>2016-07-24T08:18:28.000Z</time>
      </trkpt>
      <trkpt lat="47.44557" lon="6.65749">
        <ele>311</ele>
        <time>2016-07-24T08:18:29.000Z</time>
      </trkpt>
      <trkpt lat="47.44559" lon="6.65746">
        <ele>311</ele>
        <time>2016-07-24T08:18:30.000Z</time>
      </trkpt>
      <trkpt lat="47.44562" lon="6.65743">
        <ele>310</ele>
        <time>2016-07-24T08:18:31.000Z</time>
      </trkpt>
      <trkpt lat="47.44566" lon="6.65737">
        <ele>310</ele>
        <time>2016-07-24T08:18:33.000Z</time>
      </trkpt>
      <trkpt lat="47.44568" lon="6.65735">
        <ele>310</ele>
        <time>2016-07-24T08:18:34.000Z</time>
      </trkpt>
      <trkpt lat="47.44571" lon="6.65733">
        <ele>310</ele>
        <time>2016-07-24T08:18:35.000Z</time>
      </trkpt>
      <trkpt lat="47.44574" lon="6.65732">
        <ele>310</ele>
        <time>2016-07-24T08:18:36.000Z</time>
      </trkpt>
      <trkpt lat="47.44577" lon="6.6573">
        <ele>310</ele>
        <time>2016-07-24T08:18:37.000Z</time>
      </trkpt>
      <trkpt lat="47.4458" lon="6.65729">
        <ele>310</ele>
        <time>2016-07-24T08:18:38.000Z</time>
      </trkpt>
      <trkpt lat="47.44582" lon="6.65729">
        <ele>310</ele>
        <time>2016-07-24T08:18:39.000Z</time>
      </trkpt>
      <trkpt lat="47.44585" lon="6.65728">
        <ele>305</ele>
        <time>2016-07-24T08:18:40.000Z</time>
      </trkpt>
      <trkpt lat="47.44588" lon="6.65728">
        <ele>305</ele>
        <time>2016-07-24T08:18:41.000Z</time>
      </trkpt>
      <trkpt lat="47.4459" lon="6.65727">
        <ele>305</ele>
        <time>2016-07-24T08:18:42.000Z</time>
      </trkpt>
      <trkpt lat="47.44593" lon="6.65726">
        <ele>305</ele>
        <time>2016-07-24T08:18:43.000Z</time>
      </trkpt>
      <trkpt lat="47.44596" lon="6.65726">
        <ele>305</ele>
        <time>2016-07-24T08:18:44.000Z</time>
      </trkpt>
      <trkpt lat="47.44599" lon="6.65725">
        <ele>305</ele>
        <time>2016-07-24T08:18:45.000Z</time>
      </trkpt>
      <trkpt lat="47.44602" lon="6.65724">
        <ele>305</ele>
        <time>2016-07-24T08:18:46.000Z</time>
      </trkpt>
      <trkpt lat="47.44606" lon="6.65722">
        <ele>304</ele>
        <time>2016-07-24T08:18:47.000Z</time>
      </trkpt>
      <trkpt lat="47.44611" lon="6.65719">
        <ele>304</ele>
        <time>2016-07-24T08:18:48.000Z</time>
      </trkpt>
      <trkpt lat="47.44616" lon="6.65716">
        <ele>304</ele>
        <time>2016-07-24T08:18:49.000Z</time>
      </trkpt>
      <trkpt lat="47.44619" lon="6.65713">
        <ele>304</ele>
        <time>2016-07-24T08:18:50.000Z</time>
      </trkpt>
      <trkpt lat="47.44623" lon="6.65708">
        <ele>304</ele>
        <time>2016-07-24T08:18:51.000Z</time>
      </trkpt>
      <trkpt lat="47.44626" lon="6.65704">
        <ele>304</ele>
        <time>2016-07-24T08:18:52.000Z</time>
      </trkpt>
      <trkpt lat="47.44629" lon="6.65701">
        <ele>304</ele>
        <time>2016-07-24T08:18:53.000Z</time>
      </trkpt>
      <trkpt lat="47.44633" lon="6.65699">
        <ele>304</ele>
        <time>2016-07-24T08:18:54.000Z</time>
      </trkpt>
      <trkpt lat="47.44637" lon="6.65697">
        <ele>304</ele>
        <time>2016-07-24T08:18:55.000Z</time>
      </trkpt>
      <trkpt lat="47.44641" lon="6.65696">
        <ele>304</ele>
        <time>2016-07-24T08:18:56.000Z</time>
      </trkpt>
      <trkpt lat="47.44645" lon="6.65695">
        <ele>304</ele>
        <time>2016-07-24T08:18:57.000Z</time>
      </trkpt>
      <trkpt lat="47.44649" lon="6.65694">
        <ele>304</ele>
        <time>2016-07-24T08:18:58.000Z</time>
      </trkpt>
      <trkpt lat="47.44652" lon="6.65694">
        <ele>304</ele>
        <time>2016-07-24T08:18:59.000Z</time>
      </trkpt>
      <trkpt lat="47.44655" lon="6.65694">
        <ele>303</ele>
        <time>2016-07-24T08:19:00.000Z</time>
      </trkpt>
      <trkpt lat="47.44658" lon="6.65693">
        <ele>303</ele>
        <time>2016-07-24T08:19:01.000Z</time>
      </trkpt>
      <trkpt lat="47.4466" lon="6.65691">
        <ele>303</ele>
        <time>2016-07-24T08:19:02.000Z</time>
      </trkpt>
      <trkpt lat="47.44662" lon="6.65689">
        <ele>303</ele>
        <time>2016-07-24T08:19:03.000Z</time>
      </trkpt>
      <trkpt lat="47.44664" lon="6.65687">
        <ele>303</ele>
        <time>2016-07-24T08:19:04.000Z</time>
      </trkpt>
      <trkpt lat="47.44665" lon="6.65684">
        <ele>303</ele>
        <time>2016-07-24T08:19:05.000Z</time>
      </trkpt>
      <trkpt lat="47.44666" lon="6.6568">
        <ele>303</ele>
        <time>2016-07-24T08:19:06.000Z</time>
      </trkpt>
      <trkpt lat="47.44667" lon="6.65677">
        <ele>302</ele>
        <time>2016-07-24T08:19:07.000Z</time>
      </trkpt>
      <trkpt lat="47.44668" lon="6.65673">
        <ele>302</ele>
        <time>2016-07-24T08:19:08.000Z</time>
      </trkpt>
      <trkpt lat="47.44669" lon="6.6567">
        <ele>303</ele>
        <time>2016-07-24T08:19:09.000Z</time>
      </trkpt>
      <trkpt lat="47.4467" lon="6.65666">
        <ele>303</ele>
        <time>2016-07-24T08:19:10.000Z</time>
      </trkpt>
      <trkpt lat="47.44671" lon="6.65663">
        <ele>303</ele>
        <time>2016-07-24T08:19:11.000Z</time>
      </trkpt>
      <trkpt lat="47.44672" lon="6.65659">
        <ele>303</ele>
        <time>2016-07-24T08:19:12.000Z</time>
      </trkpt>
      <trkpt lat="47.44673" lon="6.65656">
        <ele>303</ele>
        <time>2016-07-24T08:19:13.000Z</time>
      </trkpt>
      <trkpt lat="47.44675" lon="6.65651">
        <ele>303</ele>
        <time>2016-07-24T08:19:16.000Z</time>
      </trkpt>
      <trkpt lat="47.44675" lon="6.6565">
        <ele>303</ele>
        <time>2016-07-24T08:19:17.000Z</time>
      </trkpt>
      <trkpt lat="47.44678" lon="6.65645">
        <ele>303</ele>
        <time>2016-07-24T08:19:36.000Z</time>
      </trkpt>
      <trkpt lat="47.44677" lon="6.65644">
        <ele>303</ele>
        <time>2016-07-24T08:19:37.000Z</time>
      </trkpt>
      <trkpt lat="47.44677" lon="6.65638">
        <ele>303</ele>
        <time>2016-07-24T08:19:40.000Z</time>
      </trkpt>
      <trkpt lat="47.44678" lon="6.65635">
        <ele>303</ele>
        <time>2016-07-24T08:19:41.000Z</time>
      </trkpt>
      <trkpt lat="47.44678" lon="6.65632">
        <ele>303</ele>
        <time>2016-07-24T08:19:42.000Z</time>
      </trkpt>
      <trkpt lat="47.44678" lon="6.65628">
        <ele>303</ele>
        <time>2016-07-24T08:19:43.000Z</time>
      </trkpt>
      <trkpt lat="47.44678" lon="6.65624">
        <ele>304</ele>
        <time>2016-07-24T08:19:44.000Z</time>
      </trkpt>
      <trkpt lat="47.44678" lon="6.6562">
        <ele>304</ele>
        <time>2016-07-24T08:19:45.000Z</time>
      </trkpt>
      <trkpt lat="47.44677" lon="6.65615">
        <ele>304</ele>
        <time>2016-07-24T08:19:46.000Z</time>
      </trkpt>
      <trkpt lat="47.44678" lon="6.6561">
        <ele>304</ele>
        <time>2016-07-24T08:19:47.000Z</time>
      </trkpt>
      <trkpt lat="47.44678" lon="6.65605">
        <ele>304</ele>
        <time>2016-07-24T08:19:48.000Z</time>
      </trkpt>
      <trkpt lat="47.44679" lon="6.656">
        <ele>304</ele>
        <time>2016-07-24T08:19:49.000Z</time>
      </trkpt>
      <trkpt lat="47.4468" lon="6.65594">
        <ele>304</ele>
        <time>2016-07-24T08:19:50.000Z</time>
      </trkpt>
      <trkpt lat="47.44681" lon="6.65589">
        <ele>305</ele>
        <time>2016-07-24T08:19:51.000Z</time>
      </trkpt>
      <trkpt lat="47.44681" lon="6.65582">
        <ele>305</ele>
        <time>2016-07-24T08:19:52.000Z</time>
      </trkpt>
      <trkpt lat="47.44682" lon="6.65575">
        <ele>305</ele>
        <time>2016-07-24T08:19:53.000Z</time>
      </trkpt>
      <trkpt lat="47.44682" lon="6.65568">
        <ele>304</ele>
        <time>2016-07-24T08:19:54.000Z</time>
      </trkpt>
      <trkpt lat="47.44683" lon="6.6556">
        <ele>304</ele>
        <time>2016-07-24T08:19:55.000Z</time>
      </trkpt>
      <trkpt lat="47.44683" lon="6.65553">
        <ele>304</ele>
        <time>2016-07-24T08:19:56.000Z</time>
      </trkpt>
      <trkpt lat="47.44684" lon="6.65546">
        <ele>304</ele>
        <time>2016-07-24T08:19:57.000Z</time>
      </trkpt>
      <trkpt lat="47.44685" lon="6.65538">
        <ele>304</ele>
        <time>2016-07-24T08:19:58.000Z</time>
      </trkpt>
      <trkpt lat="47.44685" lon="6.6553">
        <ele>303</ele>
        <time>2016-07-24T08:19:59.000Z</time>
      </trkpt>
      <trkpt lat="47.44686" lon="6.65523">
        <ele>303</ele>
        <time>2016-07-24T08:20:00.000Z</time>
      </trkpt>
      <trkpt lat="47.44687" lon="6.65516">
        <ele>303</ele>
        <time>2016-07-24T08:20:01.000Z</time>
      </trkpt>
      <trkpt lat="47.44688" lon="6.6551">
        <ele>303</ele>
        <time>2016-07-24T08:20:02.000Z</time>
      </trkpt>
      <trkpt lat="47.44689" lon="6.65505">
        <ele>303</ele>
        <time>2016-07-24T08:20:03.000Z</time>
      </trkpt>
      <trkpt lat="47.44689" lon="6.65501">
        <ele>303</ele>
        <time>2016-07-24T08:20:04.000Z</time>
      </trkpt>
      <trkpt lat="47.4469" lon="6.65496">
        <ele>303</ele>
        <time>2016-07-24T08:20:05.000Z</time>
      </trkpt>
      <trkpt lat="47.44691" lon="6.65491">
        <ele>303</ele>
        <time>2016-07-24T08:20:06.000Z</time>
      </trkpt>
      <trkpt lat="47.44692" lon="6.65485">
        <ele>303</ele>
        <time>2016-07-24T08:20:07.000Z</time>
      </trkpt>
      <trkpt lat="47.44694" lon="6.65478">
        <ele>303</ele>
        <time>2016-07-24T08:20:08.000Z</time>
      </trkpt>
      <trkpt lat="47.44695" lon="6.6547">
        <ele>303</ele>
        <time>2016-07-24T08:20:09.000Z</time>
      </trkpt>
      <trkpt lat="47.44695" lon="6.65463">
        <ele>303</ele>
        <time>2016-07-24T08:20:10.000Z</time>
      </trkpt>
      <trkpt lat="47.44696" lon="6.65456">
        <ele>302</ele>
        <time>2016-07-24T08:20:11.000Z</time>
      </trkpt>
      <trkpt lat="47.44696" lon="6.65449">
        <ele>302</ele>
        <time>2016-07-24T08:20:12.000Z</time>
      </trkpt>
      <trkpt lat="47.44697" lon="6.65442">
        <ele>302</ele>
        <time>2016-07-24T08:20:13.000Z</time>
      </trkpt>
      <trkpt lat="47.44698" lon="6.65436">
        <ele>302</ele>
        <time>2016-07-24T08:20:14.000Z</time>
      </trkpt>
      <trkpt lat="47.44699" lon="6.65429">
        <ele>302</ele>
        <time>2016-07-24T08:20:15.000Z</time>
      </trkpt>
      <trkpt lat="47.447" lon="6.65423">
        <ele>302</ele>
        <time>2016-07-24T08:20:16.000Z</time>
      </trkpt>
      <trkpt lat="47.44702" lon="6.65417">
        <ele>302</ele>
        <time>2016-07-24T08:20:17.000Z</time>
      </trkpt>
      <trkpt lat="47.44703" lon="6.6541">
        <ele>302</ele>
        <time>2016-07-24T08:20:18.000Z</time>
      </trkpt>
      <trkpt lat="47.44704" lon="6.65402">
        <ele>302</ele>
        <time>2016-07-24T08:20:19.000Z</time>
      </trkpt>
      <trkpt lat="47.44705" lon="6.65394">
        <ele>302</ele>
        <time>2016-07-24T08:20:20.000Z</time>
      </trkpt>
      <trkpt lat="47.44706" lon="6.65386">
        <ele>302</ele>
        <time>2016-07-24T08:20:21.000Z</time>
      </trkpt>
      <trkpt lat="47.44707" lon="6.65378">
        <ele>302</ele>
        <time>2016-07-24T08:20:22.000Z</time>
      </trkpt>
      <trkpt lat="47.44708" lon="6.6537">
        <ele>302</ele>
        <time>2016-07-24T08:20:23.000Z</time>
      </trkpt>
      <trkpt lat="47.44709" lon="6.6535">
        <ele>302</ele>
        <time>2016-07-24T08:20:24.000Z</time>
      </trkpt>
      <trkpt lat="47.44711" lon="6.65341">
        <ele>302</ele>
        <time>2016-07-24T08:20:25.000Z</time>
      </trkpt>
      <trkpt lat="47.44711" lon="6.65329">
        <ele>302</ele>
        <time>2016-07-24T08:20:26.000Z</time>
      </trkpt>
      <trkpt lat="47.44712" lon="6.6532">
        <ele>302</ele>
        <time>2016-07-24T08:20:27.000Z</time>
      </trkpt>
      <trkpt lat="47.44713" lon="6.6531">
        <ele>302</ele>
        <time>2016-07-24T08:20:28.000Z</time>
      </trkpt>
      <trkpt lat="47.44712" lon="6.65301">
        <ele>302</ele>
        <time>2016-07-24T08:20:29.000Z</time>
      </trkpt>
      <trkpt lat="47.44712" lon="6.65292">
        <ele>302</ele>
        <time>2016-07-24T08:20:30.000Z</time>
      </trkpt>
      <trkpt lat="47.44713" lon="6.65282">
        <ele>302</ele>
        <time>2016-07-24T08:20:31.000Z</time>
      </trkpt>
      <trkpt lat="47.44713" lon="6.65263">
        <ele>302</ele>
        <time>2016-07-24T08:20:33.000Z</time>
      </trkpt>
      <trkpt lat="47.44713" lon="6.65254">
        <ele>302</ele>
        <time>2016-07-24T08:20:34.000Z</time>
      </trkpt>
      <trkpt lat="47.44713" lon="6.65245">
        <ele>303</ele>
        <time>2016-07-24T08:20:35.000Z</time>
      </trkpt>
      <trkpt lat="47.44713" lon="6.65236">
        <ele>303</ele>
        <time>2016-07-24T08:20:36.000Z</time>
      </trkpt>
      <trkpt lat="47.44712" lon="6.65227">
        <ele>303</ele>
        <time>2016-07-24T08:20:37.000Z</time>
      </trkpt>
      <trkpt lat="47.44712" lon="6.65218">
        <ele>303</ele>
        <time>2016-07-24T08:20:38.000Z</time>
      </trkpt>
      <trkpt lat="47.4471" lon="6.65209">
        <ele>303</ele>
        <time>2016-07-24T08:20:39.000Z</time>
      </trkpt>
      <trkpt lat="47.44709" lon="6.652">
        <ele>303</ele>
        <time>2016-07-24T08:20:40.000Z</time>
      </trkpt>
      <trkpt lat="47.44709" lon="6.65191">
        <ele>303</ele>
        <time>2016-07-24T08:20:41.000Z</time>
      </trkpt>
      <trkpt lat="47.44707" lon="6.65183">
        <ele>303</ele>
        <time>2016-07-24T08:20:42.000Z</time>
      </trkpt>
      <trkpt lat="47.44707" lon="6.65173">
        <ele>303</ele>
        <time>2016-07-24T08:20:43.000Z</time>
      </trkpt>
      <trkpt lat="47.44706" lon="6.65164">
        <ele>303</ele>
        <time>2016-07-24T08:20:44.000Z</time>
      </trkpt>
      <trkpt lat="47.44703" lon="6.65154">
        <ele>303</ele>
        <time>2016-07-24T08:20:45.000Z</time>
      </trkpt>
      <trkpt lat="47.44702" lon="6.65145">
        <ele>303</ele>
        <time>2016-07-24T08:20:46.000Z</time>
      </trkpt>
      <trkpt lat="47.447" lon="6.65136">
        <ele>303</ele>
        <time>2016-07-24T08:20:47.000Z</time>
      </trkpt>
      <trkpt lat="47.44698" lon="6.65128">
        <ele>303</ele>
        <time>2016-07-24T08:20:48.000Z</time>
      </trkpt>
      <trkpt lat="47.44695" lon="6.65119">
        <ele>303</ele>
        <time>2016-07-24T08:20:49.000Z</time>
      </trkpt>
      <trkpt lat="47.44692" lon="6.65111">
        <ele>303</ele>
        <time>2016-07-24T08:20:50.000Z</time>
      </trkpt>
      <trkpt lat="47.4469" lon="6.65102">
        <ele>302</ele>
        <time>2016-07-24T08:20:51.000Z</time>
      </trkpt>
      <trkpt lat="47.44688" lon="6.65094">
        <ele>302</ele>
        <time>2016-07-24T08:20:52.000Z</time>
      </trkpt>
      <trkpt lat="47.44683" lon="6.65087">
        <ele>302</ele>
        <time>2016-07-24T08:20:53.000Z</time>
      </trkpt>
      <trkpt lat="47.44681" lon="6.6508">
        <ele>301</ele>
        <time>2016-07-24T08:20:54.000Z</time>
      </trkpt>
      <trkpt lat="47.44678" lon="6.65073">
        <ele>301</ele>
        <time>2016-07-24T08:20:55.000Z</time>
      </trkpt>
      <trkpt lat="47.44674" lon="6.65068">
        <ele>301</ele>
        <time>2016-07-24T08:20:56.000Z</time>
      </trkpt>
      <trkpt lat="47.44671" lon="6.65062">
        <ele>301</ele>
        <time>2016-07-24T08:20:57.000Z</time>
      </trkpt>
      <trkpt lat="47.44668" lon="6.65057">
        <ele>301</ele>
        <time>2016-07-24T08:20:58.000Z</time>
      </trkpt>
      <trkpt lat="47.44665" lon="6.65051">
        <ele>309</ele>
        <time>2016-07-24T08:20:59.000Z</time>
      </trkpt>
      <trkpt lat="47.44662" lon="6.65045">
        <ele>309</ele>
        <time>2016-07-24T08:21:00.000Z</time>
      </trkpt>
      <trkpt lat="47.4466" lon="6.6504">
        <ele>309</ele>
        <time>2016-07-24T08:21:01.000Z</time>
      </trkpt>
      <trkpt lat="47.44656" lon="6.65035">
        <ele>309</ele>
        <time>2016-07-24T08:21:02.000Z</time>
      </trkpt>
      <trkpt lat="47.44654" lon="6.6503">
        <ele>309</ele>
        <time>2016-07-24T08:21:03.000Z</time>
      </trkpt>
      <trkpt lat="47.44651" lon="6.65026">
        <ele>309</ele>
        <time>2016-07-24T08:21:04.000Z</time>
      </trkpt>
      <trkpt lat="47.44648" lon="6.65024">
        <ele>309</ele>
        <time>2016-07-24T08:21:05.000Z</time>
      </trkpt>
      <trkpt lat="47.44644" lon="6.6502">
        <ele>310</ele>
        <time>2016-07-24T08:21:06.000Z</time>
      </trkpt>
      <trkpt lat="47.44641" lon="6.65017">
        <ele>310</ele>
        <time>2016-07-24T08:21:07.000Z</time>
      </trkpt>
      <trkpt lat="47.44637" lon="6.65013">
        <ele>311</ele>
        <time>2016-07-24T08:21:08.000Z</time>
      </trkpt>
      <trkpt lat="47.44633" lon="6.65009">
        <ele>311</ele>
        <time>2016-07-24T08:21:09.000Z</time>
      </trkpt>
      <trkpt lat="47.44631" lon="6.65005">
        <ele>312</ele>
        <time>2016-07-24T08:21:10.000Z</time>
      </trkpt>
      <trkpt lat="47.44629" lon="6.65001">
        <ele>312</ele>
        <time>2016-07-24T08:21:11.000Z</time>
      </trkpt>
      <trkpt lat="47.44627" lon="6.64998">
        <ele>310</ele>
        <time>2016-07-24T08:21:12.000Z</time>
      </trkpt>
      <trkpt lat="47.44624" lon="6.64994">
        <ele>310</ele>
        <time>2016-07-24T08:21:13.000Z</time>
      </trkpt>
      <trkpt lat="47.44621" lon="6.6499">
        <ele>311</ele>
        <time>2016-07-24T08:21:14.000Z</time>
      </trkpt>
      <trkpt lat="47.44617" lon="6.64987">
        <ele>311</ele>
        <time>2016-07-24T08:21:15.000Z</time>
      </trkpt>
      <trkpt lat="47.44614" lon="6.64984">
        <ele>312</ele>
        <time>2016-07-24T08:21:16.000Z</time>
      </trkpt>
      <trkpt lat="47.44611" lon="6.64981">
        <ele>312</ele>
        <time>2016-07-24T08:21:17.000Z</time>
      </trkpt>
      <trkpt lat="47.44609" lon="6.64977">
        <ele>312</ele>
        <time>2016-07-24T08:21:18.000Z</time>
      </trkpt>
      <trkpt lat="47.44607" lon="6.64974">
        <ele>312</ele>
        <time>2016-07-24T08:21:19.000Z</time>
      </trkpt>
      <trkpt lat="47.44605" lon="6.64971">
        <ele>312</ele>
        <time>2016-07-24T08:21:20.000Z</time>
      </trkpt>
      <trkpt lat="47.44603" lon="6.64967">
        <ele>312</ele>
        <time>2016-07-24T08:21:21.000Z</time>
      </trkpt>
      <trkpt lat="47.44601" lon="6.64963">
        <ele>312</ele>
        <time>2016-07-24T08:21:22.000Z</time>
      </trkpt>
      <trkpt lat="47.44599" lon="6.6496">
        <ele>312</ele>
        <time>2016-07-24T08:21:23.000Z</time>
      </trkpt>
      <trkpt lat="47.44597" lon="6.64956">
        <ele>312</ele>
        <time>2016-07-24T08:21:24.000Z</time>
      </trkpt>
      <trkpt lat="47.44595" lon="6.64952">
        <ele>312</ele>
        <time>2016-07-24T08:21:25.000Z</time>
      </trkpt>
      <trkpt lat="47.44594" lon="6.64949">
        <ele>312</ele>
        <time>2016-07-24T08:21:26.000Z</time>
      </trkpt>
      <trkpt lat="47.44592" lon="6.64945">
        <ele>312</ele>
        <time>2016-07-24T08:21:27.000Z</time>
      </trkpt>
      <trkpt lat="47.4459" lon="6.64942">
        <ele>312</ele>
        <time>2016-07-24T08:21:28.000Z</time>
      </trkpt>
      <trkpt lat="47.44588" lon="6.64938">
        <ele>312</ele>
        <time>2016-07-24T08:21:29.000Z</time>
      </trkpt>
      <trkpt lat="47.44587" lon="6.64935">
        <ele>312</ele>
        <time>2016-07-24T08:21:30.000Z</time>
      </trkpt>
      <trkpt lat="47.44586" lon="6.64932">
        <ele>312</ele>
        <time>2016-07-24T08:21:31.000Z</time>
      </trkpt>
      <trkpt lat="47.44586" lon="6.64925">
        <ele>313</ele>
        <time>2016-07-24T08:21:33.000Z</time>
      </trkpt>
      <trkpt lat="47.44587" lon="6.64922">
        <ele>313</ele>
        <time>2016-07-24T08:21:34.000Z</time>
      </trkpt>
      <trkpt lat="47.44587" lon="6.64917">
        <ele>313</ele>
        <time>2016-07-24T08:21:36.000Z</time>
      </trkpt>
      <trkpt lat="47.44587" lon="6.64915">
        <ele>313</ele>
        <time>2016-07-24T08:21:37.000Z</time>
      </trkpt>
      <trkpt lat="47.44587" lon="6.6491">
        <ele>311</ele>
        <time>2016-07-24T08:21:39.000Z</time>
      </trkpt>
      <trkpt lat="47.44587" lon="6.64908">
        <ele>311</ele>
        <time>2016-07-24T08:21:40.000Z</time>
      </trkpt>
      <trkpt lat="47.44588" lon="6.64902">
        <ele>310</ele>
        <time>2016-07-24T08:21:42.000Z</time>
      </trkpt>
      <trkpt lat="47.44587" lon="6.64899">
        <ele>309</ele>
        <time>2016-07-24T08:21:43.000Z</time>
      </trkpt>
      <trkpt lat="47.44587" lon="6.64894">
        <ele>308</ele>
        <time>2016-07-24T08:21:45.000Z</time>
      </trkpt>
      <trkpt lat="47.44586" lon="6.64891">
        <ele>308</ele>
        <time>2016-07-24T08:21:46.000Z</time>
      </trkpt>
      <trkpt lat="47.44586" lon="6.64885">
        <ele>307</ele>
        <time>2016-07-24T08:21:48.000Z</time>
      </trkpt>
      <trkpt lat="47.44586" lon="6.64882">
        <ele>307</ele>
        <time>2016-07-24T08:21:49.000Z</time>
      </trkpt>
      <trkpt lat="47.44586" lon="6.64875">
        <ele>306</ele>
        <time>2016-07-24T08:21:51.000Z</time>
      </trkpt>
      <trkpt lat="47.44586" lon="6.64872">
        <ele>306</ele>
        <time>2016-07-24T08:21:52.000Z</time>
      </trkpt>
      <trkpt lat="47.44585" lon="6.64868">
        <ele>306</ele>
        <time>2016-07-24T08:21:54.000Z</time>
      </trkpt>
      <trkpt lat="47.44585" lon="6.64866">
        <ele>306</ele>
        <time>2016-07-24T08:21:55.000Z</time>
      </trkpt>
      <trkpt lat="47.44583" lon="6.64861">
        <ele>318</ele>
        <time>2016-07-24T08:21:57.000Z</time>
      </trkpt>
      <trkpt lat="47.44582" lon="6.64858">
        <ele>317</ele>
        <time>2016-07-24T08:21:58.000Z</time>
      </trkpt>
      <trkpt lat="47.44579" lon="6.64853">
        <ele>316</ele>
        <time>2016-07-24T08:22:00.000Z</time>
      </trkpt>
      <trkpt lat="47.44578" lon="6.6485">
        <ele>316</ele>
        <time>2016-07-24T08:22:01.000Z</time>
      </trkpt>
      <trkpt lat="47.44575" lon="6.64845">
        <ele>315</ele>
        <time>2016-07-24T08:22:03.000Z</time>
      </trkpt>
      <trkpt lat="47.44574" lon="6.64842">
        <ele>314</ele>
        <time>2016-07-24T08:22:04.000Z</time>
      </trkpt>
      <trkpt lat="47.44572" lon="6.64839">
        <ele>314</ele>
        <time>2016-07-24T08:22:05.000Z</time>
      </trkpt>
      <trkpt lat="47.44572" lon="6.64835">
        <ele>313</ele>
        <time>2016-07-24T08:22:06.000Z</time>
      </trkpt>
      <trkpt lat="47.44571" lon="6.6483">
        <ele>312</ele>
        <time>2016-07-24T08:22:07.000Z</time>
      </trkpt>
      <trkpt lat="47.44571" lon="6.64825">
        <ele>312</ele>
        <time>2016-07-24T08:22:08.000Z</time>
      </trkpt>
      <trkpt lat="47.44569" lon="6.6482">
        <ele>313</ele>
        <time>2016-07-24T08:22:09.000Z</time>
      </trkpt>
      <trkpt lat="47.44568" lon="6.64815">
        <ele>314</ele>
        <time>2016-07-24T08:22:10.000Z</time>
      </trkpt>
      <trkpt lat="47.44566" lon="6.6481">
        <ele>315</ele>
        <time>2016-07-24T08:22:11.000Z</time>
      </trkpt>
      <trkpt lat="47.44564" lon="6.64805">
        <ele>316</ele>
        <time>2016-07-24T08:22:12.000Z</time>
      </trkpt>
      <trkpt lat="47.44562" lon="6.64801">
        <ele>316</ele>
        <time>2016-07-24T08:22:13.000Z</time>
      </trkpt>
      <trkpt lat="47.44561" lon="6.64797">
        <ele>316</ele>
        <time>2016-07-24T08:22:14.000Z</time>
      </trkpt>
      <trkpt lat="47.4456" lon="6.64794">
        <ele>316</ele>
        <time>2016-07-24T08:22:15.000Z</time>
      </trkpt>
      <trkpt lat="47.44559" lon="6.6479">
        <ele>316</ele>
        <time>2016-07-24T08:22:16.000Z</time>
      </trkpt>
      <trkpt lat="47.44557" lon="6.64787">
        <ele>316</ele>
        <time>2016-07-24T08:22:17.000Z</time>
      </trkpt>
      <trkpt lat="47.44556" lon="6.64784">
        <ele>316</ele>
        <time>2016-07-24T08:22:18.000Z</time>
      </trkpt>
      <trkpt lat="47.44554" lon="6.6478">
        <ele>316</ele>
        <time>2016-07-24T08:22:19.000Z</time>
      </trkpt>
      <trkpt lat="47.44551" lon="6.64776">
        <ele>317</ele>
        <time>2016-07-24T08:22:20.000Z</time>
      </trkpt>
      <trkpt lat="47.44548" lon="6.64772">
        <ele>317</ele>
        <time>2016-07-24T08:22:21.000Z</time>
      </trkpt>
      <trkpt lat="47.44545" lon="6.64767">
        <ele>318</ele>
        <time>2016-07-24T08:22:22.000Z</time>
      </trkpt>
      <trkpt lat="47.44543" lon="6.64763">
        <ele>318</ele>
        <time>2016-07-24T08:22:23.000Z</time>
      </trkpt>
      <trkpt lat="47.44541" lon="6.6476">
        <ele>319</ele>
        <time>2016-07-24T08:22:24.000Z</time>
      </trkpt>
      <trkpt lat="47.44539" lon="6.64754">
        <ele>319</ele>
        <time>2016-07-24T08:22:26.000Z</time>
      </trkpt>
      <trkpt lat="47.44539" lon="6.64751">
        <ele>319</ele>
        <time>2016-07-24T08:22:27.000Z</time>
      </trkpt>
      <trkpt lat="47.44539" lon="6.64745">
        <ele>316</ele>
        <time>2016-07-24T08:22:29.000Z</time>
      </trkpt>
      <trkpt lat="47.44539" lon="6.64742">
        <ele>316</ele>
        <time>2016-07-24T08:22:30.000Z</time>
      </trkpt>
      <trkpt lat="47.44537" lon="6.64738">
        <ele>316</ele>
        <time>2016-07-24T08:22:31.000Z</time>
      </trkpt>
      <trkpt lat="47.44536" lon="6.64734">
        <ele>316</ele>
        <time>2016-07-24T08:22:32.000Z</time>
      </trkpt>
      <trkpt lat="47.44536" lon="6.64731">
        <ele>316</ele>
        <time>2016-07-24T08:22:33.000Z</time>
      </trkpt>
      <trkpt lat="47.44535" lon="6.64727">
        <ele>316</ele>
        <time>2016-07-24T08:22:34.000Z</time>
      </trkpt>
      <trkpt lat="47.44534" lon="6.64721">
        <ele>316</ele>
        <time>2016-07-24T08:22:36.000Z</time>
      </trkpt>
      <trkpt lat="47.44533" lon="6.64718">
        <ele>316</ele>
        <time>2016-07-24T08:22:37.000Z</time>
      </trkpt>
      <trkpt lat="47.44532" lon="6.64712">
        <ele>316</ele>
        <time>2016-07-24T08:22:39.000Z</time>
      </trkpt>
      <trkpt lat="47.44532" lon="6.64709">
        <ele>316</ele>
        <time>2016-07-24T08:22:40.000Z</time>
      </trkpt>
      <trkpt lat="47.44531" lon="6.64705">
        <ele>316</ele>
        <time>2016-07-24T08:22:41.000Z</time>
      </trkpt>
      <trkpt lat="47.4453" lon="6.64701">
        <ele>316</ele>
        <time>2016-07-24T08:22:42.000Z</time>
      </trkpt>
      <trkpt lat="47.44529" lon="6.64697">
        <ele>316</ele>
        <time>2016-07-24T08:22:43.000Z</time>
      </trkpt>
      <trkpt lat="47.44527" lon="6.64693">
        <ele>317</ele>
        <time>2016-07-24T08:22:44.000Z</time>
      </trkpt>
      <trkpt lat="47.44525" lon="6.64689">
        <ele>317</ele>
        <time>2016-07-24T08:22:45.000Z</time>
      </trkpt>
      <trkpt lat="47.44524" lon="6.64685">
        <ele>317</ele>
        <time>2016-07-24T08:22:46.000Z</time>
      </trkpt>
      <trkpt lat="47.44522" lon="6.64681">
        <ele>317</ele>
        <time>2016-07-24T08:22:47.000Z</time>
      </trkpt>
      <trkpt lat="47.4452" lon="6.64677">
        <ele>318</ele>
        <time>2016-07-24T08:22:48.000Z</time>
      </trkpt>
      <trkpt lat="47.44518" lon="6.64674">
        <ele>318</ele>
        <time>2016-07-24T08:22:49.000Z</time>
      </trkpt>
      <trkpt lat="47.44516" lon="6.6467">
        <ele>319</ele>
        <time>2016-07-24T08:22:50.000Z</time>
      </trkpt>
      <trkpt lat="47.44514" lon="6.64666">
        <ele>318</ele>
        <time>2016-07-24T08:22:51.000Z</time>
      </trkpt>
      <trkpt lat="47.44513" lon="6.64662">
        <ele>318</ele>
        <time>2016-07-24T08:22:52.000Z</time>
      </trkpt>
      <trkpt lat="47.44512" lon="6.64658">
        <ele>318</ele>
        <time>2016-07-24T08:22:53.000Z</time>
      </trkpt>
      <trkpt lat="47.44511" lon="6.64655">
        <ele>317</ele>
        <time>2016-07-24T08:22:54.000Z</time>
      </trkpt>
      <trkpt lat="47.44509" lon="6.64651">
        <ele>317</ele>
        <time>2016-07-24T08:22:55.000Z</time>
      </trkpt>
      <trkpt lat="47.44507" lon="6.64647">
        <ele>317</ele>
        <time>2016-07-24T08:22:56.000Z</time>
      </trkpt>
      <trkpt lat="47.44505" lon="6.64644">
        <ele>317</ele>
        <time>2016-07-24T08:22:57.000Z</time>
      </trkpt>
      <trkpt lat="47.44502" lon="6.6464">
        <ele>316</ele>
        <time>2016-07-24T08:22:58.000Z</time>
      </trkpt>
      <trkpt lat="47.44499" lon="6.64637">
        <ele>324</ele>
        <time>2016-07-24T08:22:59.000Z</time>
      </trkpt>
      <trkpt lat="47.44497" lon="6.64634">
        <ele>324</ele>
        <time>2016-07-24T08:23:00.000Z</time>
      </trkpt>
      <trkpt lat="47.44496" lon="6.64631">
        <ele>324</ele>
        <time>2016-07-24T08:23:01.000Z</time>
      </trkpt>
      <trkpt lat="47.44494" lon="6.64627">
        <ele>324</ele>
        <time>2016-07-24T08:23:02.000Z</time>
      </trkpt>
      <trkpt lat="47.44493" lon="6.64624">
        <ele>324</ele>
        <time>2016-07-24T08:23:03.000Z</time>
      </trkpt>
      <trkpt lat="47.44491" lon="6.6462">
        <ele>324</ele>
        <time>2016-07-24T08:23:04.000Z</time>
      </trkpt>
      <trkpt lat="47.4449" lon="6.64617">
        <ele>324</ele>
        <time>2016-07-24T08:23:05.000Z</time>
      </trkpt>
      <trkpt lat="47.44489" lon="6.64613">
        <ele>323</ele>
        <time>2016-07-24T08:23:06.000Z</time>
      </trkpt>
      <trkpt lat="47.44488" lon="6.64608">
        <ele>323</ele>
        <time>2016-07-24T08:23:08.000Z</time>
      </trkpt>
      <trkpt lat="47.44488" lon="6.64605">
        <ele>323</ele>
        <time>2016-07-24T08:23:09.000Z</time>
      </trkpt>
      <trkpt lat="47.44486" lon="6.64599">
        <ele>322</ele>
        <time>2016-07-24T08:23:11.000Z</time>
      </trkpt>
      <trkpt lat="47.44485" lon="6.64596">
        <ele>322</ele>
        <time>2016-07-24T08:23:12.000Z</time>
      </trkpt>
      <trkpt lat="47.44484" lon="6.64592">
        <ele>322</ele>
        <time>2016-07-24T08:23:13.000Z</time>
      </trkpt>
      <trkpt lat="47.44483" lon="6.64588">
        <ele>322</ele>
        <time>2016-07-24T08:23:14.000Z</time>
      </trkpt>
      <trkpt lat="47.44481" lon="6.64584">
        <ele>322</ele>
        <time>2016-07-24T08:23:15.000Z</time>
      </trkpt>
      <trkpt lat="47.4448" lon="6.6458">
        <ele>321</ele>
        <time>2016-07-24T08:23:16.000Z</time>
      </trkpt>
      <trkpt lat="47.44478" lon="6.64576">
        <ele>322</ele>
        <time>2016-07-24T08:23:17.000Z</time>
      </trkpt>
      <trkpt lat="47.44476" lon="6.64572">
        <ele>322</ele>
        <time>2016-07-24T08:23:18.000Z</time>
      </trkpt>
      <trkpt lat="47.44474" lon="6.64568">
        <ele>322</ele>
        <time>2016-07-24T08:23:19.000Z</time>
      </trkpt>
      <trkpt lat="47.44472" lon="6.64564">
        <ele>323</ele>
        <time>2016-07-24T08:23:20.000Z</time>
      </trkpt>
      <trkpt lat="47.44469" lon="6.6456">
        <ele>323</ele>
        <time>2016-07-24T08:23:21.000Z</time>
      </trkpt>
      <trkpt lat="47.44467" lon="6.64557">
        <ele>323</ele>
        <time>2016-07-24T08:23:22.000Z</time>
      </trkpt>
      <trkpt lat="47.44464" lon="6.64554">
        <ele>324</ele>
        <time>2016-07-24T08:23:23.000Z</time>
      </trkpt>
      <trkpt lat="47.44461" lon="6.64552">
        <ele>324</ele>
        <time>2016-07-24T08:23:24.000Z</time>
      </trkpt>
      <trkpt lat="47.44459" lon="6.64549">
        <ele>324</ele>
        <time>2016-07-24T08:23:25.000Z</time>
      </trkpt>
      <trkpt lat="47.44456" lon="6.64548">
        <ele>324</ele>
        <time>2016-07-24T08:23:26.000Z</time>
      </trkpt>
      <trkpt lat="47.44454" lon="6.64547">
        <ele>324</ele>
        <time>2016-07-24T08:23:27.000Z</time>
      </trkpt>
      <trkpt lat="47.44451" lon="6.64547">
        <ele>325</ele>
        <time>2016-07-24T08:23:28.000Z</time>
      </trkpt>
      <trkpt lat="47.44449" lon="6.64547">
        <ele>325</ele>
        <time>2016-07-24T08:23:29.000Z</time>
      </trkpt>
      <trkpt lat="47.44446" lon="6.64548">
        <ele>325</ele>
        <time>2016-07-24T08:23:30.000Z</time>
      </trkpt>
      <trkpt lat="47.44443" lon="6.64549">
        <ele>325</ele>
        <time>2016-07-24T08:23:31.000Z</time>
      </trkpt>
      <trkpt lat="47.44439" lon="6.64551">
        <ele>326</ele>
        <time>2016-07-24T08:23:32.000Z</time>
      </trkpt>
      <trkpt lat="47.44435" lon="6.64552">
        <ele>326</ele>
        <time>2016-07-24T08:23:33.000Z</time>
      </trkpt>
      <trkpt lat="47.44431" lon="6.64554">
        <ele>326</ele>
        <time>2016-07-24T08:23:34.000Z</time>
      </trkpt>
      <trkpt lat="47.44427" lon="6.64555">
        <ele>326</ele>
        <time>2016-07-24T08:23:35.000Z</time>
      </trkpt>
      <trkpt lat="47.44423" lon="6.64557">
        <ele>327</ele>
        <time>2016-07-24T08:23:36.000Z</time>
      </trkpt>
      <trkpt lat="47.4442" lon="6.64558">
        <ele>327</ele>
        <time>2016-07-24T08:23:37.000Z</time>
      </trkpt>
      <trkpt lat="47.44416" lon="6.64559">
        <ele>328</ele>
        <time>2016-07-24T08:23:38.000Z</time>
      </trkpt>
      <trkpt lat="47.44412" lon="6.6456">
        <ele>328</ele>
        <time>2016-07-24T08:23:39.000Z</time>
      </trkpt>
      <trkpt lat="47.44408" lon="6.64562">
        <ele>328</ele>
        <time>2016-07-24T08:23:40.000Z</time>
      </trkpt>
      <trkpt lat="47.44404" lon="6.64565">
        <ele>328</ele>
        <time>2016-07-24T08:23:41.000Z</time>
      </trkpt>
      <trkpt lat="47.44395" lon="6.64573">
        <ele>327</ele>
        <time>2016-07-24T08:23:42.000Z</time>
      </trkpt>
      <trkpt lat="47.44388" lon="6.64576">
        <ele>327</ele>
        <time>2016-07-24T08:23:43.000Z</time>
      </trkpt>
      <trkpt lat="47.44382" lon="6.64579">
        <ele>326</ele>
        <time>2016-07-24T08:23:44.000Z</time>
      </trkpt>
      <trkpt lat="47.44379" lon="6.64585">
        <ele>328</ele>
        <time>2016-07-24T08:23:45.000Z</time>
      </trkpt>
      <trkpt lat="47.44373" lon="6.64585">
        <ele>328</ele>
        <time>2016-07-24T08:23:46.000Z</time>
      </trkpt>
      <trkpt lat="47.44368" lon="6.64584">
        <ele>327</ele>
        <time>2016-07-24T08:23:47.000Z</time>
      </trkpt>
      <trkpt lat="47.44362" lon="6.64582">
        <ele>325</ele>
        <time>2016-07-24T08:23:48.000Z</time>
      </trkpt>
      <trkpt lat="47.4436" lon="6.64582">
        <ele>324</ele>
        <time>2016-07-24T08:23:49.000Z</time>
      </trkpt>
      <trkpt lat="47.44357" lon="6.64581">
        <ele>324</ele>
        <time>2016-07-24T08:23:50.000Z</time>
      </trkpt>
      <trkpt lat="47.44354" lon="6.64581">
        <ele>324</ele>
        <time>2016-07-24T08:23:51.000Z</time>
      </trkpt>
      <trkpt lat="47.44346" lon="6.64583">
        <ele>323</ele>
        <time>2016-07-24T08:23:52.000Z</time>
      </trkpt>
      <trkpt lat="47.44341" lon="6.64581">
        <ele>323</ele>
        <time>2016-07-24T08:23:53.000Z</time>
      </trkpt>
      <trkpt lat="47.44338" lon="6.64578">
        <ele>323</ele>
        <time>2016-07-24T08:23:54.000Z</time>
      </trkpt>
      <trkpt lat="47.44337" lon="6.64572">
        <ele>323</ele>
        <time>2016-07-24T08:23:55.000Z</time>
      </trkpt>
      <trkpt lat="47.44337" lon="6.64567">
        <ele>323</ele>
        <time>2016-07-24T08:23:56.000Z</time>
      </trkpt>
      <trkpt lat="47.44337" lon="6.64561">
        <ele>323</ele>
        <time>2016-07-24T08:23:57.000Z</time>
      </trkpt>
      <trkpt lat="47.44335" lon="6.64556">
        <ele>324</ele>
        <time>2016-07-24T08:23:58.000Z</time>
      </trkpt>
      <trkpt lat="47.44334" lon="6.64551">
        <ele>323</ele>
        <time>2016-07-24T08:23:59.000Z</time>
      </trkpt>
      <trkpt lat="47.44332" lon="6.64548">
        <ele>317</ele>
        <time>2016-07-24T08:24:00.000Z</time>
      </trkpt>
      <trkpt lat="47.44329" lon="6.64544">
        <ele>317</ele>
        <time>2016-07-24T08:24:01.000Z</time>
      </trkpt>
      <trkpt lat="47.44326" lon="6.64542">
        <ele>317</ele>
        <time>2016-07-24T08:24:02.000Z</time>
      </trkpt>
      <trkpt lat="47.44322" lon="6.6454">
        <ele>316</ele>
        <time>2016-07-24T08:24:03.000Z</time>
      </trkpt>
      <trkpt lat="47.4432" lon="6.64537">
        <ele>316</ele>
        <time>2016-07-24T08:24:04.000Z</time>
      </trkpt>
      <trkpt lat="47.44317" lon="6.64534">
        <ele>316</ele>
        <time>2016-07-24T08:24:05.000Z</time>
      </trkpt>
      <trkpt lat="47.44315" lon="6.6453">
        <ele>316</ele>
        <time>2016-07-24T08:24:06.000Z</time>
      </trkpt>
      <trkpt lat="47.44313" lon="6.64527">
        <ele>316</ele>
        <time>2016-07-24T08:24:07.000Z</time>
      </trkpt>
      <trkpt lat="47.4431" lon="6.64523">
        <ele>316</ele>
        <time>2016-07-24T08:24:08.000Z</time>
      </trkpt>
      <trkpt lat="47.44303" lon="6.6452">
        <ele>315</ele>
        <time>2016-07-24T08:24:09.000Z</time>
      </trkpt>
      <trkpt lat="47.443" lon="6.64516">
        <ele>315</ele>
        <time>2016-07-24T08:24:10.000Z</time>
      </trkpt>
      <trkpt lat="47.44292" lon="6.64511">
        <ele>314</ele>
        <time>2016-07-24T08:24:11.000Z</time>
      </trkpt>
      <trkpt lat="47.44286" lon="6.64507">
        <ele>314</ele>
        <time>2016-07-24T08:24:12.000Z</time>
      </trkpt>
      <trkpt lat="47.44281" lon="6.64503">
        <ele>313</ele>
        <time>2016-07-24T08:24:13.000Z</time>
      </trkpt>
      <trkpt lat="47.44274" lon="6.64496">
        <ele>311</ele>
        <time>2016-07-24T08:24:14.000Z</time>
      </trkpt>
      <trkpt lat="47.44268" lon="6.6449">
        <ele>311</ele>
        <time>2016-07-24T08:24:15.000Z</time>
      </trkpt>
      <trkpt lat="47.44262" lon="6.64484">
        <ele>310</ele>
        <time>2016-07-24T08:24:16.000Z</time>
      </trkpt>
      <trkpt lat="47.44255" lon="6.64478">
        <ele>310</ele>
        <time>2016-07-24T08:24:17.000Z</time>
      </trkpt>
      <trkpt lat="47.44248" lon="6.64472">
        <ele>307</ele>
        <time>2016-07-24T08:24:18.000Z</time>
      </trkpt>
      <trkpt lat="47.44242" lon="6.64465">
        <ele>307</ele>
        <time>2016-07-24T08:24:19.000Z</time>
      </trkpt>
      <trkpt lat="47.44236" lon="6.6446">
        <ele>307</ele>
        <time>2016-07-24T08:24:20.000Z</time>
      </trkpt>
      <trkpt lat="47.44229" lon="6.64454">
        <ele>307</ele>
        <time>2016-07-24T08:24:21.000Z</time>
      </trkpt>
      <trkpt lat="47.44225" lon="6.64451">
        <ele>307</ele>
        <time>2016-07-24T08:24:22.000Z</time>
      </trkpt>
      <trkpt lat="47.44218" lon="6.64445">
        <ele>307</ele>
        <time>2016-07-24T08:24:23.000Z</time>
      </trkpt>
      <trkpt lat="47.44212" lon="6.64439">
        <ele>307</ele>
        <time>2016-07-24T08:24:24.000Z</time>
      </trkpt>
      <trkpt lat="47.44207" lon="6.64434">
        <ele>307</ele>
        <time>2016-07-24T08:24:25.000Z</time>
      </trkpt>
      <trkpt lat="47.44203" lon="6.64431">
        <ele>307</ele>
        <time>2016-07-24T08:24:26.000Z</time>
      </trkpt>
      <trkpt lat="47.44197" lon="6.64429">
        <ele>307</ele>
        <time>2016-07-24T08:24:27.000Z</time>
      </trkpt>
      <trkpt lat="47.44194" lon="6.64427">
        <ele>307</ele>
        <time>2016-07-24T08:24:28.000Z</time>
      </trkpt>
      <trkpt lat="47.4419" lon="6.64425">
        <ele>307</ele>
        <time>2016-07-24T08:24:29.000Z</time>
      </trkpt>
      <trkpt lat="47.44186" lon="6.64422">
        <ele>307</ele>
        <time>2016-07-24T08:24:30.000Z</time>
      </trkpt>
      <trkpt lat="47.44183" lon="6.64417">
        <ele>307</ele>
        <time>2016-07-24T08:24:31.000Z</time>
      </trkpt>
      <trkpt lat="47.44182" lon="6.64411">
        <ele>307</ele>
        <time>2016-07-24T08:24:33.000Z</time>
      </trkpt>
      <trkpt lat="47.44177" lon="6.64409">
        <ele>307</ele>
        <time>2016-07-24T08:24:34.000Z</time>
      </trkpt>
      <trkpt lat="47.44175" lon="6.64407">
        <ele>307</ele>
        <time>2016-07-24T08:24:35.000Z</time>
      </trkpt>
      <trkpt lat="47.44173" lon="6.64406">
        <ele>307</ele>
        <time>2016-07-24T08:24:36.000Z</time>
      </trkpt>
      <trkpt lat="47.4417" lon="6.64405">
        <ele>307</ele>
        <time>2016-07-24T08:24:37.000Z</time>
      </trkpt>
      <trkpt lat="47.44167" lon="6.64403">
        <ele>307</ele>
        <time>2016-07-24T08:24:38.000Z</time>
      </trkpt>
      <trkpt lat="47.44164" lon="6.64401">
        <ele>308</ele>
        <time>2016-07-24T08:24:39.000Z</time>
      </trkpt>
      <trkpt lat="47.44162" lon="6.64399">
        <ele>309</ele>
        <time>2016-07-24T08:24:40.000Z</time>
      </trkpt>
      <trkpt lat="47.44159" lon="6.64396">
        <ele>309</ele>
        <time>2016-07-24T08:24:41.000Z</time>
      </trkpt>
      <trkpt lat="47.44156" lon="6.64393">
        <ele>309</ele>
        <time>2016-07-24T08:24:42.000Z</time>
      </trkpt>
      <trkpt lat="47.44152" lon="6.6439">
        <ele>309</ele>
        <time>2016-07-24T08:24:43.000Z</time>
      </trkpt>
      <trkpt lat="47.44149" lon="6.64388">
        <ele>309</ele>
        <time>2016-07-24T08:24:44.000Z</time>
      </trkpt>
      <trkpt lat="47.44146" lon="6.64385">
        <ele>309</ele>
        <time>2016-07-24T08:24:45.000Z</time>
      </trkpt>
      <trkpt lat="47.44142" lon="6.64383">
        <ele>309</ele>
        <time>2016-07-24T08:24:46.000Z</time>
      </trkpt>
      <trkpt lat="47.44139" lon="6.6438">
        <ele>310</ele>
        <time>2016-07-24T08:24:47.000Z</time>
      </trkpt>
      <trkpt lat="47.44136" lon="6.64377">
        <ele>310</ele>
        <time>2016-07-24T08:24:48.000Z</time>
      </trkpt>
      <trkpt lat="47.44133" lon="6.64374">
        <ele>310</ele>
        <time>2016-07-24T08:24:49.000Z</time>
      </trkpt>
      <trkpt lat="47.4413" lon="6.64371">
        <ele>310</ele>
        <time>2016-07-24T08:24:50.000Z</time>
      </trkpt>
      <trkpt lat="47.44128" lon="6.64368">
        <ele>310</ele>
        <time>2016-07-24T08:24:51.000Z</time>
      </trkpt>
      <trkpt lat="47.44125" lon="6.64365">
        <ele>310</ele>
        <time>2016-07-24T08:24:52.000Z</time>
      </trkpt>
      <trkpt lat="47.44123" lon="6.64362">
        <ele>310</ele>
        <time>2016-07-24T08:24:53.000Z</time>
      </trkpt>
      <trkpt lat="47.4412" lon="6.64359">
        <ele>310</ele>
        <time>2016-07-24T08:24:54.000Z</time>
      </trkpt>
      <trkpt lat="47.44116" lon="6.64356">
        <ele>310</ele>
        <time>2016-07-24T08:24:55.000Z</time>
      </trkpt>
      <trkpt lat="47.44111" lon="6.64354">
        <ele>310</ele>
        <time>2016-07-24T08:24:56.000Z</time>
      </trkpt>
      <trkpt lat="47.44107" lon="6.64352">
        <ele>310</ele>
        <time>2016-07-24T08:24:57.000Z</time>
      </trkpt>
      <trkpt lat="47.44104" lon="6.6435">
        <ele>310</ele>
        <time>2016-07-24T08:24:58.000Z</time>
      </trkpt>
      <trkpt lat="47.44101" lon="6.64348">
        <ele>310</ele>
        <time>2016-07-24T08:24:59.000Z</time>
      </trkpt>
      <trkpt lat="47.44098" lon="6.64345">
        <ele>311</ele>
        <time>2016-07-24T08:25:00.000Z</time>
      </trkpt>
      <trkpt lat="47.44096" lon="6.64342">
        <ele>311</ele>
        <time>2016-07-24T08:25:01.000Z</time>
      </trkpt>
      <trkpt lat="47.44093" lon="6.64339">
        <ele>311</ele>
        <time>2016-07-24T08:25:02.000Z</time>
      </trkpt>
      <trkpt lat="47.44091" lon="6.64335">
        <ele>311</ele>
        <time>2016-07-24T08:25:03.000Z</time>
      </trkpt>
      <trkpt lat="47.4409" lon="6.64332">
        <ele>310</ele>
        <time>2016-07-24T08:25:04.000Z</time>
      </trkpt>
      <trkpt lat="47.44088" lon="6.64328">
        <ele>310</ele>
        <time>2016-07-24T08:25:05.000Z</time>
      </trkpt>
      <trkpt lat="47.44087" lon="6.64325">
        <ele>310</ele>
        <time>2016-07-24T08:25:06.000Z</time>
      </trkpt>
      <trkpt lat="47.44086" lon="6.64321">
        <ele>310</ele>
        <time>2016-07-24T08:25:07.000Z</time>
      </trkpt>
      <trkpt lat="47.44085" lon="6.64317">
        <ele>309</ele>
        <time>2016-07-24T08:25:08.000Z</time>
      </trkpt>
      <trkpt lat="47.44084" lon="6.64314">
        <ele>309</ele>
        <time>2016-07-24T08:25:09.000Z</time>
      </trkpt>
      <trkpt lat="47.44083" lon="6.6431">
        <ele>315</ele>
        <time>2016-07-24T08:25:10.000Z</time>
      </trkpt>
      <trkpt lat="47.44082" lon="6.64306">
        <ele>316</ele>
        <time>2016-07-24T08:25:11.000Z</time>
      </trkpt>
      <trkpt lat="47.44081" lon="6.64302">
        <ele>316</ele>
        <time>2016-07-24T08:25:12.000Z</time>
      </trkpt>
      <trkpt lat="47.4408" lon="6.64298">
        <ele>316</ele>
        <time>2016-07-24T08:25:13.000Z</time>
      </trkpt>
      <trkpt lat="47.44079" lon="6.64294">
        <ele>316</ele>
        <time>2016-07-24T08:25:14.000Z</time>
      </trkpt>
      <trkpt lat="47.44078" lon="6.64291">
        <ele>316</ele>
        <time>2016-07-24T08:25:15.000Z</time>
      </trkpt>
      <trkpt lat="47.44076" lon="6.64287">
        <ele>316</ele>
        <time>2016-07-24T08:25:16.000Z</time>
      </trkpt>
      <trkpt lat="47.44075" lon="6.64283">
        <ele>316</ele>
        <time>2016-07-24T08:25:17.000Z</time>
      </trkpt>
      <trkpt lat="47.44073" lon="6.64279">
        <ele>316</ele>
        <time>2016-07-24T08:25:18.000Z</time>
      </trkpt>
      <trkpt lat="47.44072" lon="6.64275">
        <ele>315</ele>
        <time>2016-07-24T08:25:19.000Z</time>
      </trkpt>
      <trkpt lat="47.4407" lon="6.64271">
        <ele>315</ele>
        <time>2016-07-24T08:25:20.000Z</time>
      </trkpt>
      <trkpt lat="47.44069" lon="6.64267">
        <ele>315</ele>
        <time>2016-07-24T08:25:21.000Z</time>
      </trkpt>
      <trkpt lat="47.44068" lon="6.64264">
        <ele>315</ele>
        <time>2016-07-24T08:25:22.000Z</time>
      </trkpt>
      <trkpt lat="47.44067" lon="6.6426">
        <ele>314</ele>
        <time>2016-07-24T08:25:23.000Z</time>
      </trkpt>
      <trkpt lat="47.44066" lon="6.64257">
        <ele>314</ele>
        <time>2016-07-24T08:25:24.000Z</time>
      </trkpt>
      <trkpt lat="47.44064" lon="6.64251">
        <ele>314</ele>
        <time>2016-07-24T08:25:26.000Z</time>
      </trkpt>
      <trkpt lat="47.44063" lon="6.64248">
        <ele>314</ele>
        <time>2016-07-24T08:25:27.000Z</time>
      </trkpt>
      <trkpt lat="47.44061" lon="6.64243">
        <ele>314</ele>
        <time>2016-07-24T08:25:29.000Z</time>
      </trkpt>
      <trkpt lat="47.4406" lon="6.64241">
        <ele>314</ele>
        <time>2016-07-24T08:25:30.000Z</time>
      </trkpt>
      <trkpt lat="47.44056" lon="6.64236">
        <ele>315</ele>
        <time>2016-07-24T08:25:32.000Z</time>
      </trkpt>
      <trkpt lat="47.44055" lon="6.64234">
        <ele>315</ele>
        <time>2016-07-24T08:25:33.000Z</time>
      </trkpt>
      <trkpt lat="47.44053" lon="6.64228">
        <ele>316</ele>
        <time>2016-07-24T08:25:35.000Z</time>
      </trkpt>
      <trkpt lat="47.44051" lon="6.64225">
        <ele>316</ele>
        <time>2016-07-24T08:25:36.000Z</time>
      </trkpt>
      <trkpt lat="47.44049" lon="6.64223">
        <ele>316</ele>
        <time>2016-07-24T08:25:37.000Z</time>
      </trkpt>
      <trkpt lat="47.44048" lon="6.6422">
        <ele>317</ele>
        <time>2016-07-24T08:25:38.000Z</time>
      </trkpt>
      <trkpt lat="47.44046" lon="6.64214">
        <ele>317</ele>
        <time>2016-07-24T08:25:40.000Z</time>
      </trkpt>
      <trkpt lat="47.44046" lon="6.64212">
        <ele>317</ele>
        <time>2016-07-24T08:25:41.000Z</time>
      </trkpt>
      <trkpt lat="47.44045" lon="6.64205">
        <ele>317</ele>
        <time>2016-07-24T08:25:44.000Z</time>
      </trkpt>
      <trkpt lat="47.44044" lon="6.64203">
        <ele>317</ele>
        <time>2016-07-24T08:25:45.000Z</time>
      </trkpt>
      <trkpt lat="47.44042" lon="6.64198">
        <ele>317</ele>
        <time>2016-07-24T08:25:47.000Z</time>
      </trkpt>
      <trkpt lat="47.44041" lon="6.64195">
        <ele>317</ele>
        <time>2016-07-24T08:25:48.000Z</time>
      </trkpt>
      <trkpt lat="47.4404" lon="6.64192">
        <ele>317</ele>
        <time>2016-07-24T08:25:50.000Z</time>
      </trkpt>
      <trkpt lat="47.44039" lon="6.6419">
        <ele>317</ele>
        <time>2016-07-24T08:25:51.000Z</time>
      </trkpt>
      <trkpt lat="47.44036" lon="6.64188">
        <ele>318</ele>
        <time>2016-07-24T08:25:53.000Z</time>
      </trkpt>
      <trkpt lat="47.44034" lon="6.64187">
        <ele>318</ele>
        <time>2016-07-24T08:25:54.000Z</time>
      </trkpt>
      <trkpt lat="47.44031" lon="6.64185">
        <ele>318</ele>
        <time>2016-07-24T08:25:56.000Z</time>
      </trkpt>
      <trkpt lat="47.4403" lon="6.64184">
        <ele>319</ele>
        <time>2016-07-24T08:25:57.000Z</time>
      </trkpt>
      <trkpt lat="47.44027" lon="6.6418">
        <ele>319</ele>
        <time>2016-07-24T08:26:00.000Z</time>
      </trkpt>
      <trkpt lat="47.44025" lon="6.64179">
        <ele>319</ele>
        <time>2016-07-24T08:26:01.000Z</time>
      </trkpt>
      <trkpt lat="47.44023" lon="6.64176">
        <ele>320</ele>
        <time>2016-07-24T08:26:04.000Z</time>
      </trkpt>
      <trkpt lat="47.44022" lon="6.64175">
        <ele>320</ele>
        <time>2016-07-24T08:26:05.000Z</time>
      </trkpt>
      <trkpt lat="47.44021" lon="6.6417">
        <ele>320</ele>
        <time>2016-07-24T08:26:07.000Z</time>
      </trkpt>
      <trkpt lat="47.44021" lon="6.64167">
        <ele>320</ele>
        <time>2016-07-24T08:26:08.000Z</time>
      </trkpt>
      <trkpt lat="47.44021" lon="6.64164">
        <ele>319</ele>
        <time>2016-07-24T08:26:09.000Z</time>
      </trkpt>
      <trkpt lat="47.44019" lon="6.64161">
        <ele>319</ele>
        <time>2016-07-24T08:26:10.000Z</time>
      </trkpt>
      <trkpt lat="47.44018" lon="6.64158">
        <ele>319</ele>
        <time>2016-07-24T08:26:11.000Z</time>
      </trkpt>
      <trkpt lat="47.44016" lon="6.64155">
        <ele>319</ele>
        <time>2016-07-24T08:26:12.000Z</time>
      </trkpt>
      <trkpt lat="47.44013" lon="6.64151">
        <ele>319</ele>
        <time>2016-07-24T08:26:14.000Z</time>
      </trkpt>
      <trkpt lat="47.44012" lon="6.64149">
        <ele>319</ele>
        <time>2016-07-24T08:26:15.000Z</time>
      </trkpt>
      <trkpt lat="47.44011" lon="6.64145">
        <ele>319</ele>
        <time>2016-07-24T08:26:17.000Z</time>
      </trkpt>
      <trkpt lat="47.4401" lon="6.64143">
        <ele>319</ele>
        <time>2016-07-24T08:26:18.000Z</time>
      </trkpt>
      <trkpt lat="47.44008" lon="6.64138">
        <ele>318</ele>
        <time>2016-07-24T08:26:20.000Z</time>
      </trkpt>
      <trkpt lat="47.44007" lon="6.64135">
        <ele>318</ele>
        <time>2016-07-24T08:26:21.000Z</time>
      </trkpt>
      <trkpt lat="47.44004" lon="6.6413">
        <ele>318</ele>
        <time>2016-07-24T08:26:23.000Z</time>
      </trkpt>
      <trkpt lat="47.44003" lon="6.64129">
        <ele>318</ele>
        <time>2016-07-24T08:26:24.000Z</time>
      </trkpt>
      <trkpt lat="47.44" lon="6.64125">
        <ele>318</ele>
        <time>2016-07-24T08:26:26.000Z</time>
      </trkpt>
      <trkpt lat="47.43999" lon="6.64123">
        <ele>326</ele>
        <time>2016-07-24T08:26:27.000Z</time>
      </trkpt>
      <trkpt lat="47.43996" lon="6.64119">
        <ele>326</ele>
        <time>2016-07-24T08:26:29.000Z</time>
      </trkpt>
      <trkpt lat="47.43995" lon="6.64118">
        <ele>326</ele>
        <time>2016-07-24T08:26:30.000Z</time>
      </trkpt>
      <trkpt lat="47.43994" lon="6.64114">
        <ele>326</ele>
        <time>2016-07-24T08:26:32.000Z</time>
      </trkpt>
      <trkpt lat="47.43993" lon="6.64112">
        <ele>326</ele>
        <time>2016-07-24T08:26:33.000Z</time>
      </trkpt>
      <trkpt lat="47.43991" lon="6.64109">
        <ele>326</ele>
        <time>2016-07-24T08:26:35.000Z</time>
      </trkpt>
      <trkpt lat="47.4399" lon="6.64107">
        <ele>326</ele>
        <time>2016-07-24T08:26:36.000Z</time>
      </trkpt>
      <trkpt lat="47.43986" lon="6.64105">
        <ele>326</ele>
        <time>2016-07-24T08:26:39.000Z</time>
      </trkpt>
      <trkpt lat="47.43985" lon="6.64104">
        <ele>326</ele>
        <time>2016-07-24T08:26:40.000Z</time>
      </trkpt>
      <trkpt lat="47.43982" lon="6.64099">
        <ele>326</ele>
        <time>2016-07-24T08:26:43.000Z</time>
      </trkpt>
      <trkpt lat="47.43981" lon="6.64098">
        <ele>326</ele>
        <time>2016-07-24T08:26:44.000Z</time>
      </trkpt>
      <trkpt lat="47.43977" lon="6.64094">
        <ele>326</ele>
        <time>2016-07-24T08:26:48.000Z</time>
      </trkpt>
      <trkpt lat="47.43977" lon="6.64093">
        <ele>326</ele>
        <time>2016-07-24T08:26:49.000Z</time>
      </trkpt>
      <trkpt lat="47.43973" lon="6.64091">
        <ele>327</ele>
        <time>2016-07-24T08:26:55.000Z</time>
      </trkpt>
      <trkpt lat="47.43971" lon="6.6409">
        <ele>327</ele>
        <time>2016-07-24T08:26:56.000Z</time>
      </trkpt>
      <trkpt lat="47.43969" lon="6.64089">
        <ele>327</ele>
        <time>2016-07-24T08:26:57.000Z</time>
      </trkpt>
      <trkpt lat="47.43967" lon="6.64088">
        <ele>327</ele>
        <time>2016-07-24T08:26:58.000Z</time>
      </trkpt>
      <trkpt lat="47.43964" lon="6.64087">
        <ele>327</ele>
        <time>2016-07-24T08:26:59.000Z</time>
      </trkpt>
      <trkpt lat="47.43962" lon="6.64086">
        <ele>328</ele>
        <time>2016-07-24T08:27:00.000Z</time>
      </trkpt>
      <trkpt lat="47.4396" lon="6.64085">
        <ele>328</ele>
        <time>2016-07-24T08:27:01.000Z</time>
      </trkpt>
      <trkpt lat="47.43958" lon="6.64084">
        <ele>328</ele>
        <time>2016-07-24T08:27:02.000Z</time>
      </trkpt>
      <trkpt lat="47.43954" lon="6.64083">
        <ele>326</ele>
        <time>2016-07-24T08:27:04.000Z</time>
      </trkpt>
      <trkpt lat="47.43953" lon="6.64082">
        <ele>327</ele>
        <time>2016-07-24T08:27:05.000Z</time>
      </trkpt>
      <trkpt lat="47.4395" lon="6.64081">
        <ele>327</ele>
        <time>2016-07-24T08:27:07.000Z</time>
      </trkpt>
      <trkpt lat="47.43948" lon="6.6408">
        <ele>327</ele>
        <time>2016-07-24T08:27:08.000Z</time>
      </trkpt>
      <trkpt lat="47.43944" lon="6.64079">
        <ele>328</ele>
        <time>2016-07-24T08:27:10.000Z</time>
      </trkpt>
      <trkpt lat="47.43942" lon="6.64079">
        <ele>328</ele>
        <time>2016-07-24T08:27:11.000Z</time>
      </trkpt>
      <trkpt lat="47.43938" lon="6.64077">
        <ele>328</ele>
        <time>2016-07-24T08:27:13.000Z</time>
      </trkpt>
      <trkpt lat="47.43936" lon="6.64076">
        <ele>328</ele>
        <time>2016-07-24T08:27:14.000Z</time>
      </trkpt>
      <trkpt lat="47.43934" lon="6.64073">
        <ele>329</ele>
        <time>2016-07-24T08:27:15.000Z</time>
      </trkpt>
      <trkpt lat="47.43932" lon="6.64071">
        <ele>329</ele>
        <time>2016-07-24T08:27:16.000Z</time>
      </trkpt>
      <trkpt lat="47.4393" lon="6.64068">
        <ele>329</ele>
        <time>2016-07-24T08:27:17.000Z</time>
      </trkpt>
      <trkpt lat="47.43928" lon="6.64065">
        <ele>329</ele>
        <time>2016-07-24T08:27:18.000Z</time>
      </trkpt>
      <trkpt lat="47.43925" lon="6.64062">
        <ele>328</ele>
        <time>2016-07-24T08:27:19.000Z</time>
      </trkpt>
      <trkpt lat="47.43923" lon="6.64059">
        <ele>328</ele>
        <time>2016-07-24T08:27:20.000Z</time>
      </trkpt>
      <trkpt lat="47.4392" lon="6.64056">
        <ele>328</ele>
        <time>2016-07-24T08:27:21.000Z</time>
      </trkpt>
      <trkpt lat="47.43917" lon="6.64053">
        <ele>328</ele>
        <time>2016-07-24T08:27:22.000Z</time>
      </trkpt>
      <trkpt lat="47.43914" lon="6.64051">
        <ele>332</ele>
        <time>2016-07-24T08:27:23.000Z</time>
      </trkpt>
      <trkpt lat="47.43912" lon="6.64048">
        <ele>332</ele>
        <time>2016-07-24T08:27:24.000Z</time>
      </trkpt>
      <trkpt lat="47.43909" lon="6.64045">
        <ele>331</ele>
        <time>2016-07-24T08:27:25.000Z</time>
      </trkpt>
      <trkpt lat="47.43906" lon="6.64042">
        <ele>331</ele>
        <time>2016-07-24T08:27:26.000Z</time>
      </trkpt>
      <trkpt lat="47.43904" lon="6.64039">
        <ele>331</ele>
        <time>2016-07-24T08:27:27.000Z</time>
      </trkpt>
      <trkpt lat="47.43901" lon="6.64036">
        <ele>331</ele>
        <time>2016-07-24T08:27:28.000Z</time>
      </trkpt>
      <trkpt lat="47.43899" lon="6.64033">
        <ele>331</ele>
        <time>2016-07-24T08:27:29.000Z</time>
      </trkpt>
      <trkpt lat="47.43897" lon="6.6403">
        <ele>331</ele>
        <time>2016-07-24T08:27:30.000Z</time>
      </trkpt>
      <trkpt lat="47.43894" lon="6.64027">
        <ele>331</ele>
        <time>2016-07-24T08:27:31.000Z</time>
      </trkpt>
      <trkpt lat="47.43891" lon="6.64024">
        <ele>331</ele>
        <time>2016-07-24T08:27:32.000Z</time>
      </trkpt>
      <trkpt lat="47.43889" lon="6.6402">
        <ele>331</ele>
        <time>2016-07-24T08:27:33.000Z</time>
      </trkpt>
      <trkpt lat="47.43885" lon="6.64017">
        <ele>331</ele>
        <time>2016-07-24T08:27:34.000Z</time>
      </trkpt>
      <trkpt lat="47.43882" lon="6.64014">
        <ele>331</ele>
        <time>2016-07-24T08:27:35.000Z</time>
      </trkpt>
      <trkpt lat="47.43879" lon="6.6401">
        <ele>331</ele>
        <time>2016-07-24T08:27:36.000Z</time>
      </trkpt>
      <trkpt lat="47.43876" lon="6.64006">
        <ele>331</ele>
        <time>2016-07-24T08:27:37.000Z</time>
      </trkpt>
      <trkpt lat="47.43873" lon="6.64001">
        <ele>331</ele>
        <time>2016-07-24T08:27:38.000Z</time>
      </trkpt>
      <trkpt lat="47.43869" lon="6.63997">
        <ele>330</ele>
        <time>2016-07-24T08:27:39.000Z</time>
      </trkpt>
      <trkpt lat="47.43866" lon="6.63992">
        <ele>330</ele>
        <time>2016-07-24T08:27:40.000Z</time>
      </trkpt>
      <trkpt lat="47.43863" lon="6.63988">
        <ele>330</ele>
        <time>2016-07-24T08:27:41.000Z</time>
      </trkpt>
      <trkpt lat="47.43857" lon="6.63983">
        <ele>330</ele>
        <time>2016-07-24T08:27:42.000Z</time>
      </trkpt>
      <trkpt lat="47.43854" lon="6.63979">
        <ele>330</ele>
        <time>2016-07-24T08:27:43.000Z</time>
      </trkpt>
      <trkpt lat="47.4385" lon="6.63974">
        <ele>330</ele>
        <time>2016-07-24T08:27:44.000Z</time>
      </trkpt>
      <trkpt lat="47.43847" lon="6.63969">
        <ele>330</ele>
        <time>2016-07-24T08:27:45.000Z</time>
      </trkpt>
      <trkpt lat="47.43843" lon="6.63964">
        <ele>330</ele>
        <time>2016-07-24T08:27:46.000Z</time>
      </trkpt>
      <trkpt lat="47.43839" lon="6.63959">
        <ele>330</ele>
        <time>2016-07-24T08:27:47.000Z</time>
      </trkpt>
      <trkpt lat="47.43834" lon="6.63955">
        <ele>330</ele>
        <time>2016-07-24T08:27:48.000Z</time>
      </trkpt>
      <trkpt lat="47.43829" lon="6.6395">
        <ele>332</ele>
        <time>2016-07-24T08:27:49.000Z</time>
      </trkpt>
      <trkpt lat="47.43826" lon="6.63944">
        <ele>332</ele>
        <time>2016-07-24T08:27:50.000Z</time>
      </trkpt>
      <trkpt lat="47.43822" lon="6.6394">
        <ele>332</ele>
        <time>2016-07-24T08:27:51.000Z</time>
      </trkpt>
      <trkpt lat="47.43819" lon="6.63935">
        <ele>332</ele>
        <time>2016-07-24T08:27:52.000Z</time>
      </trkpt>
      <trkpt lat="47.43815" lon="6.6393">
        <ele>332</ele>
        <time>2016-07-24T08:27:53.000Z</time>
      </trkpt>
      <trkpt lat="47.43811" lon="6.63925">
        <ele>332</ele>
        <time>2016-07-24T08:27:54.000Z</time>
      </trkpt>
      <trkpt lat="47.43808" lon="6.63922">
        <ele>332</ele>
        <time>2016-07-24T08:27:55.000Z</time>
      </trkpt>
      <trkpt lat="47.43803" lon="6.63917">
        <ele>332</ele>
        <time>2016-07-24T08:27:56.000Z</time>
      </trkpt>
      <trkpt lat="47.438" lon="6.63913">
        <ele>333</ele>
        <time>2016-07-24T08:27:57.000Z</time>
      </trkpt>
      <trkpt lat="47.43796" lon="6.63909">
        <ele>333</ele>
        <time>2016-07-24T08:27:58.000Z</time>
      </trkpt>
      <trkpt lat="47.43792" lon="6.63905">
        <ele>333</ele>
        <time>2016-07-24T08:27:59.000Z</time>
      </trkpt>
      <trkpt lat="47.43788" lon="6.639">
        <ele>333</ele>
        <time>2016-07-24T08:28:00.000Z</time>
      </trkpt>
      <trkpt lat="47.43784" lon="6.63895">
        <ele>333</ele>
        <time>2016-07-24T08:28:01.000Z</time>
      </trkpt>
      <trkpt lat="47.4378" lon="6.63891">
        <ele>333</ele>
        <time>2016-07-24T08:28:02.000Z</time>
      </trkpt>
      <trkpt lat="47.43776" lon="6.63886">
        <ele>333</ele>
        <time>2016-07-24T08:28:03.000Z</time>
      </trkpt>
      <trkpt lat="47.43771" lon="6.63882">
        <ele>333</ele>
        <time>2016-07-24T08:28:04.000Z</time>
      </trkpt>
      <trkpt lat="47.43767" lon="6.63878">
        <ele>333</ele>
        <time>2016-07-24T08:28:05.000Z</time>
      </trkpt>
      <trkpt lat="47.43764" lon="6.63873">
        <ele>333</ele>
        <time>2016-07-24T08:28:06.000Z</time>
      </trkpt>
      <trkpt lat="47.4376" lon="6.63867">
        <ele>333</ele>
        <time>2016-07-24T08:28:07.000Z</time>
      </trkpt>
      <trkpt lat="47.43757" lon="6.63862">
        <ele>333</ele>
        <time>2016-07-24T08:28:08.000Z</time>
      </trkpt>
      <trkpt lat="47.43754" lon="6.63857">
        <ele>333</ele>
        <time>2016-07-24T08:28:09.000Z</time>
      </trkpt>
      <trkpt lat="47.4375" lon="6.63851">
        <ele>333</ele>
        <time>2016-07-24T08:28:10.000Z</time>
      </trkpt>
      <trkpt lat="47.43748" lon="6.63848">
        <ele>332</ele>
        <time>2016-07-24T08:28:11.000Z</time>
      </trkpt>
      <trkpt lat="47.43745" lon="6.63843">
        <ele>332</ele>
        <time>2016-07-24T08:28:12.000Z</time>
      </trkpt>
      <trkpt lat="47.43742" lon="6.63839">
        <ele>332</ele>
        <time>2016-07-24T08:28:13.000Z</time>
      </trkpt>
      <trkpt lat="47.4374" lon="6.63835">
        <ele>332</ele>
        <time>2016-07-24T08:28:14.000Z</time>
      </trkpt>
      <trkpt lat="47.43736" lon="6.63831">
        <ele>331</ele>
        <time>2016-07-24T08:28:15.000Z</time>
      </trkpt>
      <trkpt lat="47.43734" lon="6.63828">
        <ele>331</ele>
        <time>2016-07-24T08:28:16.000Z</time>
      </trkpt>
      <trkpt lat="47.43732" lon="6.63825">
        <ele>331</ele>
        <time>2016-07-24T08:28:17.000Z</time>
      </trkpt>
      <trkpt lat="47.43729" lon="6.63821">
        <ele>331</ele>
        <time>2016-07-24T08:28:18.000Z</time>
      </trkpt>
      <trkpt lat="47.43726" lon="6.63818">
        <ele>330</ele>
        <time>2016-07-24T08:28:19.000Z</time>
      </trkpt>
      <trkpt lat="47.43723" lon="6.63815">
        <ele>330</ele>
        <time>2016-07-24T08:28:20.000Z</time>
      </trkpt>
      <trkpt lat="47.4372" lon="6.63811">
        <ele>330</ele>
        <time>2016-07-24T08:28:21.000Z</time>
      </trkpt>
      <trkpt lat="47.43717" lon="6.63807">
        <ele>330</ele>
        <time>2016-07-24T08:28:22.000Z</time>
      </trkpt>
      <trkpt lat="47.43712" lon="6.63802">
        <ele>330</ele>
        <time>2016-07-24T08:28:23.000Z</time>
      </trkpt>
      <trkpt lat="47.43708" lon="6.63797">
        <ele>330</ele>
        <time>2016-07-24T08:28:24.000Z</time>
      </trkpt>
      <trkpt lat="47.43704" lon="6.63793">
        <ele>329</ele>
        <time>2016-07-24T08:28:25.000Z</time>
      </trkpt>
      <trkpt lat="47.43701" lon="6.63788">
        <ele>329</ele>
        <time>2016-07-24T08:28:26.000Z</time>
      </trkpt>
      <trkpt lat="47.43698" lon="6.63783">
        <ele>329</ele>
        <time>2016-07-24T08:28:27.000Z</time>
      </trkpt>
      <trkpt lat="47.43694" lon="6.63778">
        <ele>329</ele>
        <time>2016-07-24T08:28:28.000Z</time>
      </trkpt>
      <trkpt lat="47.4369" lon="6.63773">
        <ele>329</ele>
        <time>2016-07-24T08:28:29.000Z</time>
      </trkpt>
      <trkpt lat="47.43686" lon="6.63767">
        <ele>329</ele>
        <time>2016-07-24T08:28:30.000Z</time>
      </trkpt>
      <trkpt lat="47.43682" lon="6.63761">
        <ele>329</ele>
        <time>2016-07-24T08:28:31.000Z</time>
      </trkpt>
      <trkpt lat="47.43678" lon="6.63756">
        <ele>329</ele>
        <time>2016-07-24T08:28:32.000Z</time>
      </trkpt>
      <trkpt lat="47.43673" lon="6.63751">
        <ele>328</ele>
        <time>2016-07-24T08:28:33.000Z</time>
      </trkpt>
      <trkpt lat="47.43669" lon="6.63747">
        <ele>328</ele>
        <time>2016-07-24T08:28:34.000Z</time>
      </trkpt>
      <trkpt lat="47.43665" lon="6.63742">
        <ele>327</ele>
        <time>2016-07-24T08:28:35.000Z</time>
      </trkpt>
      <trkpt lat="47.4366" lon="6.63738">
        <ele>326</ele>
        <time>2016-07-24T08:28:36.000Z</time>
      </trkpt>
      <trkpt lat="47.43655" lon="6.63734">
        <ele>326</ele>
        <time>2016-07-24T08:28:37.000Z</time>
      </trkpt>
      <trkpt lat="47.4365" lon="6.63731">
        <ele>325</ele>
        <time>2016-07-24T08:28:38.000Z</time>
      </trkpt>
      <trkpt lat="47.43644" lon="6.63728">
        <ele>325</ele>
        <time>2016-07-24T08:28:39.000Z</time>
      </trkpt>
      <trkpt lat="47.43637" lon="6.63726">
        <ele>325</ele>
        <time>2016-07-24T08:28:40.000Z</time>
      </trkpt>
      <trkpt lat="47.43631" lon="6.63725">
        <ele>324</ele>
        <time>2016-07-24T08:28:41.000Z</time>
      </trkpt>
      <trkpt lat="47.43624" lon="6.63724">
        <ele>324</ele>
        <time>2016-07-24T08:28:42.000Z</time>
      </trkpt>
      <trkpt lat="47.43619" lon="6.63721">
        <ele>324</ele>
        <time>2016-07-24T08:28:43.000Z</time>
      </trkpt>
      <trkpt lat="47.43612" lon="6.63718">
        <ele>324</ele>
        <time>2016-07-24T08:28:44.000Z</time>
      </trkpt>
      <trkpt lat="47.43606" lon="6.63716">
        <ele>323</ele>
        <time>2016-07-24T08:28:45.000Z</time>
      </trkpt>
      <trkpt lat="47.43601" lon="6.63712">
        <ele>323</ele>
        <time>2016-07-24T08:28:46.000Z</time>
      </trkpt>
      <trkpt lat="47.43595" lon="6.63708">
        <ele>323</ele>
        <time>2016-07-24T08:28:47.000Z</time>
      </trkpt>
      <trkpt lat="47.43589" lon="6.63704">
        <ele>323</ele>
        <time>2016-07-24T08:28:48.000Z</time>
      </trkpt>
      <trkpt lat="47.43583" lon="6.63699">
        <ele>319</ele>
        <time>2016-07-24T08:28:49.000Z</time>
      </trkpt>
      <trkpt lat="47.43577" lon="6.63694">
        <ele>319</ele>
        <time>2016-07-24T08:28:50.000Z</time>
      </trkpt>
      <trkpt lat="47.43571" lon="6.63689">
        <ele>319</ele>
        <time>2016-07-24T08:28:51.000Z</time>
      </trkpt>
      <trkpt lat="47.43564" lon="6.63684">
        <ele>319</ele>
        <time>2016-07-24T08:28:52.000Z</time>
      </trkpt>
      <trkpt lat="47.43558" lon="6.63679">
        <ele>319</ele>
        <time>2016-07-24T08:28:53.000Z</time>
      </trkpt>
      <trkpt lat="47.4355" lon="6.63674">
        <ele>319</ele>
        <time>2016-07-24T08:28:54.000Z</time>
      </trkpt>
      <trkpt lat="47.43543" lon="6.63669">
        <ele>318</ele>
        <time>2016-07-24T08:28:55.000Z</time>
      </trkpt>
      <trkpt lat="47.43537" lon="6.63663">
        <ele>316</ele>
        <time>2016-07-24T08:28:56.000Z</time>
      </trkpt>
      <trkpt lat="47.43529" lon="6.63658">
        <ele>316</ele>
        <time>2016-07-24T08:28:57.000Z</time>
      </trkpt>
      <trkpt lat="47.43521" lon="6.63653">
        <ele>316</ele>
        <time>2016-07-24T08:28:58.000Z</time>
      </trkpt>
      <trkpt lat="47.43513" lon="6.63647">
        <ele>316</ele>
        <time>2016-07-24T08:28:59.000Z</time>
      </trkpt>
      <trkpt lat="47.43505" lon="6.6364">
        <ele>315</ele>
        <time>2016-07-24T08:29:00.000Z</time>
      </trkpt>
      <trkpt lat="47.43497" lon="6.6363">
        <ele>312</ele>
        <time>2016-07-24T08:29:01.000Z</time>
      </trkpt>
      <trkpt lat="47.4349" lon="6.63618">
        <ele>312</ele>
        <time>2016-07-24T08:29:02.000Z</time>
      </trkpt>
      <trkpt lat="47.43483" lon="6.63607">
        <ele>312</ele>
        <time>2016-07-24T08:29:03.000Z</time>
      </trkpt>
      <trkpt lat="47.43476" lon="6.63595">
        <ele>311</ele>
        <time>2016-07-24T08:29:04.000Z</time>
      </trkpt>
      <trkpt lat="47.4347" lon="6.63584">
        <ele>311</ele>
        <time>2016-07-24T08:29:05.000Z</time>
      </trkpt>
      <trkpt lat="47.43464" lon="6.63573">
        <ele>308</ele>
        <time>2016-07-24T08:29:06.000Z</time>
      </trkpt>
      <trkpt lat="47.4346" lon="6.63564">
        <ele>308</ele>
        <time>2016-07-24T08:29:07.000Z</time>
      </trkpt>
      <trkpt lat="47.43456" lon="6.63558">
        <ele>308</ele>
        <time>2016-07-24T08:29:08.000Z</time>
      </trkpt>
      <trkpt lat="47.43449" lon="6.63556">
        <ele>307</ele>
        <time>2016-07-24T08:29:09.000Z</time>
      </trkpt>
      <trkpt lat="47.43444" lon="6.63555">
        <ele>307</ele>
        <time>2016-07-24T08:29:10.000Z</time>
      </trkpt>
      <trkpt lat="47.43439" lon="6.63555">
        <ele>307</ele>
        <time>2016-07-24T08:29:11.000Z</time>
      </trkpt>
      <trkpt lat="47.43433" lon="6.63557">
        <ele>307</ele>
        <time>2016-07-24T08:29:12.000Z</time>
      </trkpt>
      <trkpt lat="47.43429" lon="6.6356">
        <ele>307</ele>
        <time>2016-07-24T08:29:13.000Z</time>
      </trkpt>
      <trkpt lat="47.43423" lon="6.63562">
        <ele>307</ele>
        <time>2016-07-24T08:29:14.000Z</time>
      </trkpt>
      <trkpt lat="47.43418" lon="6.63566">
        <ele>307</ele>
        <time>2016-07-24T08:29:15.000Z</time>
      </trkpt>
      <trkpt lat="47.43412" lon="6.63566">
        <ele>305</ele>
        <time>2016-07-24T08:29:16.000Z</time>
      </trkpt>
      <trkpt lat="47.43407" lon="6.63568">
        <ele>305</ele>
        <time>2016-07-24T08:29:17.000Z</time>
      </trkpt>
      <trkpt lat="47.43402" lon="6.6357">
        <ele>305</ele>
        <time>2016-07-24T08:29:18.000Z</time>
      </trkpt>
      <trkpt lat="47.43397" lon="6.63572">
        <ele>305</ele>
        <time>2016-07-24T08:29:19.000Z</time>
      </trkpt>
      <trkpt lat="47.43393" lon="6.63573">
        <ele>305</ele>
        <time>2016-07-24T08:29:20.000Z</time>
      </trkpt>
      <trkpt lat="47.43389" lon="6.63574">
        <ele>305</ele>
        <time>2016-07-24T08:29:21.000Z</time>
      </trkpt>
      <trkpt lat="47.43384" lon="6.63576">
        <ele>305</ele>
        <time>2016-07-24T08:29:22.000Z</time>
      </trkpt>
      <trkpt lat="47.43379" lon="6.63579">
        <ele>304</ele>
        <time>2016-07-24T08:29:23.000Z</time>
      </trkpt>
      <trkpt lat="47.43374" lon="6.63583">
        <ele>304</ele>
        <time>2016-07-24T08:29:24.000Z</time>
      </trkpt>
      <trkpt lat="47.4337" lon="6.63582">
        <ele>304</ele>
        <time>2016-07-24T08:29:25.000Z</time>
      </trkpt>
      <trkpt lat="47.43365" lon="6.63587">
        <ele>306</ele>
        <time>2016-07-24T08:29:26.000Z</time>
      </trkpt>
      <trkpt lat="47.43361" lon="6.63588">
        <ele>306</ele>
        <time>2016-07-24T08:29:27.000Z</time>
      </trkpt>
      <trkpt lat="47.43357" lon="6.63593">
        <ele>306</ele>
        <time>2016-07-24T08:29:28.000Z</time>
      </trkpt>
      <trkpt lat="47.43353" lon="6.63597">
        <ele>306</ele>
        <time>2016-07-24T08:29:29.000Z</time>
      </trkpt>
      <trkpt lat="47.43349" lon="6.63601">
        <ele>306</ele>
        <time>2016-07-24T08:29:30.000Z</time>
      </trkpt>
      <trkpt lat="47.43345" lon="6.63606">
        <ele>306</ele>
        <time>2016-07-24T08:29:31.000Z</time>
      </trkpt>
      <trkpt lat="47.43339" lon="6.63614">
        <ele>307</ele>
        <time>2016-07-24T08:29:33.000Z</time>
      </trkpt>
      <trkpt lat="47.43335" lon="6.63618">
        <ele>307</ele>
        <time>2016-07-24T08:29:34.000Z</time>
      </trkpt>
      <trkpt lat="47.43333" lon="6.63623">
        <ele>305</ele>
        <time>2016-07-24T08:29:35.000Z</time>
      </trkpt>
      <trkpt lat="47.4333" lon="6.63628">
        <ele>305</ele>
        <time>2016-07-24T08:29:36.000Z</time>
      </trkpt>
      <trkpt lat="47.43329" lon="6.63634">
        <ele>305</ele>
        <time>2016-07-24T08:29:37.000Z</time>
      </trkpt>
      <trkpt lat="47.43326" lon="6.63639">
        <ele>306</ele>
        <time>2016-07-24T08:29:38.000Z</time>
      </trkpt>
      <trkpt lat="47.43325" lon="6.63644">
        <ele>306</ele>
        <time>2016-07-24T08:29:39.000Z</time>
      </trkpt>
      <trkpt lat="47.43322" lon="6.63649">
        <ele>306</ele>
        <time>2016-07-24T08:29:40.000Z</time>
      </trkpt>
      <trkpt lat="47.43319" lon="6.63654">
        <ele>306</ele>
        <time>2016-07-24T08:29:41.000Z</time>
      </trkpt>
      <trkpt lat="47.43317" lon="6.63659">
        <ele>306</ele>
        <time>2016-07-24T08:29:42.000Z</time>
      </trkpt>
      <trkpt lat="47.43314" lon="6.63664">
        <ele>306</ele>
        <time>2016-07-24T08:29:43.000Z</time>
      </trkpt>
      <trkpt lat="47.43312" lon="6.63668">
        <ele>309</ele>
        <time>2016-07-24T08:29:44.000Z</time>
      </trkpt>
      <trkpt lat="47.43309" lon="6.63672">
        <ele>309</ele>
        <time>2016-07-24T08:29:45.000Z</time>
      </trkpt>
      <trkpt lat="47.43307" lon="6.63676">
        <ele>309</ele>
        <time>2016-07-24T08:29:46.000Z</time>
      </trkpt>
      <trkpt lat="47.43304" lon="6.63679">
        <ele>309</ele>
        <time>2016-07-24T08:29:47.000Z</time>
      </trkpt>
      <trkpt lat="47.43301" lon="6.63683">
        <ele>309</ele>
        <time>2016-07-24T08:29:48.000Z</time>
      </trkpt>
      <trkpt lat="47.43298" lon="6.63685">
        <ele>309</ele>
        <time>2016-07-24T08:29:49.000Z</time>
      </trkpt>
      <trkpt lat="47.43295" lon="6.63688">
        <ele>309</ele>
        <time>2016-07-24T08:29:50.000Z</time>
      </trkpt>
      <trkpt lat="47.43293" lon="6.63691">
        <ele>309</ele>
        <time>2016-07-24T08:29:51.000Z</time>
      </trkpt>
      <trkpt lat="47.4329" lon="6.63694">
        <ele>309</ele>
        <time>2016-07-24T08:29:52.000Z</time>
      </trkpt>
      <trkpt lat="47.43287" lon="6.63697">
        <ele>309</ele>
        <time>2016-07-24T08:29:53.000Z</time>
      </trkpt>
      <trkpt lat="47.43285" lon="6.637">
        <ele>309</ele>
        <time>2016-07-24T08:29:54.000Z</time>
      </trkpt>
      <trkpt lat="47.43282" lon="6.63704">
        <ele>310</ele>
        <time>2016-07-24T08:29:55.000Z</time>
      </trkpt>
      <trkpt lat="47.4328" lon="6.63708">
        <ele>310</ele>
        <time>2016-07-24T08:29:56.000Z</time>
      </trkpt>
      <trkpt lat="47.43278" lon="6.63712">
        <ele>310</ele>
        <time>2016-07-24T08:29:57.000Z</time>
      </trkpt>
      <trkpt lat="47.43276" lon="6.63716">
        <ele>310</ele>
        <time>2016-07-24T08:29:58.000Z</time>
      </trkpt>
      <trkpt lat="47.43274" lon="6.63721">
        <ele>310</ele>
        <time>2016-07-24T08:29:59.000Z</time>
      </trkpt>
      <trkpt lat="47.43273" lon="6.63726">
        <ele>310</ele>
        <time>2016-07-24T08:30:00.000Z</time>
      </trkpt>
      <trkpt lat="47.43272" lon="6.6373">
        <ele>310</ele>
        <time>2016-07-24T08:30:01.000Z</time>
      </trkpt>
      <trkpt lat="47.43271" lon="6.63735">
        <ele>311</ele>
        <time>2016-07-24T08:30:02.000Z</time>
      </trkpt>
      <trkpt lat="47.4327" lon="6.63739">
        <ele>311</ele>
        <time>2016-07-24T08:30:03.000Z</time>
      </trkpt>
      <trkpt lat="47.43268" lon="6.63743">
        <ele>311</ele>
        <time>2016-07-24T08:30:04.000Z</time>
      </trkpt>
      <trkpt lat="47.43267" lon="6.63747">
        <ele>311</ele>
        <time>2016-07-24T08:30:05.000Z</time>
      </trkpt>
      <trkpt lat="47.43265" lon="6.63752">
        <ele>313</ele>
        <time>2016-07-24T08:30:06.000Z</time>
      </trkpt>
      <trkpt lat="47.43263" lon="6.63755">
        <ele>313</ele>
        <time>2016-07-24T08:30:07.000Z</time>
      </trkpt>
      <trkpt lat="47.43262" lon="6.63759">
        <ele>313</ele>
        <time>2016-07-24T08:30:08.000Z</time>
      </trkpt>
      <trkpt lat="47.4326" lon="6.63762">
        <ele>313</ele>
        <time>2016-07-24T08:30:09.000Z</time>
      </trkpt>
      <trkpt lat="47.43259" lon="6.63765">
        <ele>314</ele>
        <time>2016-07-24T08:30:10.000Z</time>
      </trkpt>
      <trkpt lat="47.43257" lon="6.63769">
        <ele>314</ele>
        <time>2016-07-24T08:30:11.000Z</time>
      </trkpt>
      <trkpt lat="47.43255" lon="6.63772">
        <ele>314</ele>
        <time>2016-07-24T08:30:12.000Z</time>
      </trkpt>
      <trkpt lat="47.43254" lon="6.63775">
        <ele>314</ele>
        <time>2016-07-24T08:30:13.000Z</time>
      </trkpt>
      <trkpt lat="47.43252" lon="6.63778">
        <ele>314</ele>
        <time>2016-07-24T08:30:14.000Z</time>
      </trkpt>
      <trkpt lat="47.43251" lon="6.63781">
        <ele>315</ele>
        <time>2016-07-24T08:30:15.000Z</time>
      </trkpt>
      <trkpt lat="47.43249" lon="6.63785">
        <ele>313</ele>
        <time>2016-07-24T08:30:16.000Z</time>
      </trkpt>
      <trkpt lat="47.43248" lon="6.63788">
        <ele>313</ele>
        <time>2016-07-24T08:30:17.000Z</time>
      </trkpt>
      <trkpt lat="47.43246" lon="6.63791">
        <ele>314</ele>
        <time>2016-07-24T08:30:18.000Z</time>
      </trkpt>
      <trkpt lat="47.43244" lon="6.63795">
        <ele>314</ele>
        <time>2016-07-24T08:30:19.000Z</time>
      </trkpt>
      <trkpt lat="47.43242" lon="6.63798">
        <ele>314</ele>
        <time>2016-07-24T08:30:20.000Z</time>
      </trkpt>
      <trkpt lat="47.4324" lon="6.638">
        <ele>314</ele>
        <time>2016-07-24T08:30:21.000Z</time>
      </trkpt>
      <trkpt lat="47.43239" lon="6.63804">
        <ele>314</ele>
        <time>2016-07-24T08:30:22.000Z</time>
      </trkpt>
      <trkpt lat="47.43237" lon="6.63807">
        <ele>314</ele>
        <time>2016-07-24T08:30:23.000Z</time>
      </trkpt>
      <trkpt lat="47.43235" lon="6.63811">
        <ele>315</ele>
        <time>2016-07-24T08:30:24.000Z</time>
      </trkpt>
      <trkpt lat="47.43233" lon="6.63815">
        <ele>315</ele>
        <time>2016-07-24T08:30:25.000Z</time>
      </trkpt>
      <trkpt lat="47.43231" lon="6.6382">
        <ele>315</ele>
        <time>2016-07-24T08:30:26.000Z</time>
      </trkpt>
      <trkpt lat="47.43229" lon="6.63824">
        <ele>315</ele>
        <time>2016-07-24T08:30:27.000Z</time>
      </trkpt>
      <trkpt lat="47.43226" lon="6.63828">
        <ele>315</ele>
        <time>2016-07-24T08:30:28.000Z</time>
      </trkpt>
      <trkpt lat="47.43224" lon="6.6383">
        <ele>315</ele>
        <time>2016-07-24T08:30:29.000Z</time>
      </trkpt>
      <trkpt lat="47.43222" lon="6.63832">
        <ele>315</ele>
        <time>2016-07-24T08:30:30.000Z</time>
      </trkpt>
      <trkpt lat="47.4322" lon="6.63835">
        <ele>319</ele>
        <time>2016-07-24T08:30:31.000Z</time>
      </trkpt>
      <trkpt lat="47.43218" lon="6.63838">
        <ele>319</ele>
        <time>2016-07-24T08:30:32.000Z</time>
      </trkpt>
      <trkpt lat="47.43216" lon="6.63841">
        <ele>319</ele>
        <time>2016-07-24T08:30:33.000Z</time>
      </trkpt>
      <trkpt lat="47.43214" lon="6.63843">
        <ele>319</ele>
        <time>2016-07-24T08:30:34.000Z</time>
      </trkpt>
      <trkpt lat="47.43212" lon="6.63846">
        <ele>319</ele>
        <time>2016-07-24T08:30:35.000Z</time>
      </trkpt>
      <trkpt lat="47.4321" lon="6.63849">
        <ele>319</ele>
        <time>2016-07-24T08:30:36.000Z</time>
      </trkpt>
      <trkpt lat="47.43208" lon="6.63852">
        <ele>319</ele>
        <time>2016-07-24T08:30:37.000Z</time>
      </trkpt>
      <trkpt lat="47.43205" lon="6.63855">
        <ele>319</ele>
        <time>2016-07-24T08:30:38.000Z</time>
      </trkpt>
      <trkpt lat="47.43203" lon="6.63859">
        <ele>319</ele>
        <time>2016-07-24T08:30:39.000Z</time>
      </trkpt>
      <trkpt lat="47.432" lon="6.63862">
        <ele>320</ele>
        <time>2016-07-24T08:30:40.000Z</time>
      </trkpt>
      <trkpt lat="47.43198" lon="6.63864">
        <ele>320</ele>
        <time>2016-07-24T08:30:41.000Z</time>
      </trkpt>
      <trkpt lat="47.43196" lon="6.63866">
        <ele>320</ele>
        <time>2016-07-24T08:30:42.000Z</time>
      </trkpt>
      <trkpt lat="47.43194" lon="6.63868">
        <ele>320</ele>
        <time>2016-07-24T08:30:43.000Z</time>
      </trkpt>
      <trkpt lat="47.43192" lon="6.63869">
        <ele>320</ele>
        <time>2016-07-24T08:30:44.000Z</time>
      </trkpt>
      <trkpt lat="47.4319" lon="6.63871">
        <ele>320</ele>
        <time>2016-07-24T08:30:45.000Z</time>
      </trkpt>
      <trkpt lat="47.43188" lon="6.63874">
        <ele>320</ele>
        <time>2016-07-24T08:30:46.000Z</time>
      </trkpt>
      <trkpt lat="47.43185" lon="6.63876">
        <ele>320</ele>
        <time>2016-07-24T08:30:47.000Z</time>
      </trkpt>
      <trkpt lat="47.43183" lon="6.63879">
        <ele>320</ele>
        <time>2016-07-24T08:30:48.000Z</time>
      </trkpt>
      <trkpt lat="47.4318" lon="6.63881">
        <ele>320</ele>
        <time>2016-07-24T08:30:49.000Z</time>
      </trkpt>
      <trkpt lat="47.43178" lon="6.63883">
        <ele>321</ele>
        <time>2016-07-24T08:30:50.000Z</time>
      </trkpt>
      <trkpt lat="47.43176" lon="6.63886">
        <ele>321</ele>
        <time>2016-07-24T08:30:51.000Z</time>
      </trkpt>
      <trkpt lat="47.43174" lon="6.63888">
        <ele>321</ele>
        <time>2016-07-24T08:30:52.000Z</time>
      </trkpt>
      <trkpt lat="47.43172" lon="6.6389">
        <ele>321</ele>
        <time>2016-07-24T08:30:53.000Z</time>
      </trkpt>
      <trkpt lat="47.4317" lon="6.63892">
        <ele>321</ele>
        <time>2016-07-24T08:30:54.000Z</time>
      </trkpt>
      <trkpt lat="47.43168" lon="6.63895">
        <ele>322</ele>
        <time>2016-07-24T08:30:55.000Z</time>
      </trkpt>
      <trkpt lat="47.43166" lon="6.63898">
        <ele>322</ele>
        <time>2016-07-24T08:30:56.000Z</time>
      </trkpt>
      <trkpt lat="47.43163" lon="6.63901">
        <ele>322</ele>
        <time>2016-07-24T08:30:57.000Z</time>
      </trkpt>
      <trkpt lat="47.43161" lon="6.63904">
        <ele>322</ele>
        <time>2016-07-24T08:30:58.000Z</time>
      </trkpt>
      <trkpt lat="47.43159" lon="6.63907">
        <ele>322</ele>
        <time>2016-07-24T08:30:59.000Z</time>
      </trkpt>
      <trkpt lat="47.43158" lon="6.63909">
        <ele>322</ele>
        <time>2016-07-24T08:31:00.000Z</time>
      </trkpt>
      <trkpt lat="47.43156" lon="6.63912">
        <ele>322</ele>
        <time>2016-07-24T08:31:01.000Z</time>
      </trkpt>
      <trkpt lat="47.43154" lon="6.63914">
        <ele>322</ele>
        <time>2016-07-24T08:31:02.000Z</time>
      </trkpt>
      <trkpt lat="47.43152" lon="6.63916">
        <ele>322</ele>
        <time>2016-07-24T08:31:03.000Z</time>
      </trkpt>
      <trkpt lat="47.4315" lon="6.63919">
        <ele>325</ele>
        <time>2016-07-24T08:31:04.000Z</time>
      </trkpt>
      <trkpt lat="47.43148" lon="6.63921">
        <ele>325</ele>
        <time>2016-07-24T08:31:05.000Z</time>
      </trkpt>
      <trkpt lat="47.43146" lon="6.63923">
        <ele>325</ele>
        <time>2016-07-24T08:31:06.000Z</time>
      </trkpt>
      <trkpt lat="47.43144" lon="6.63925">
        <ele>325</ele>
        <time>2016-07-24T08:31:07.000Z</time>
      </trkpt>
      <trkpt lat="47.43143" lon="6.63927">
        <ele>325</ele>
        <time>2016-07-24T08:31:08.000Z</time>
      </trkpt>
      <trkpt lat="47.43141" lon="6.63929">
        <ele>325</ele>
        <time>2016-07-24T08:31:09.000Z</time>
      </trkpt>
      <trkpt lat="47.43139" lon="6.63931">
        <ele>325</ele>
        <time>2016-07-24T08:31:10.000Z</time>
      </trkpt>
      <trkpt lat="47.43137" lon="6.63934">
        <ele>325</ele>
        <time>2016-07-24T08:31:11.000Z</time>
      </trkpt>
      <trkpt lat="47.43134" lon="6.63937">
        <ele>325</ele>
        <time>2016-07-24T08:31:12.000Z</time>
      </trkpt>
      <trkpt lat="47.43132" lon="6.6394">
        <ele>325</ele>
        <time>2016-07-24T08:31:13.000Z</time>
      </trkpt>
      <trkpt lat="47.4313" lon="6.63944">
        <ele>326</ele>
        <time>2016-07-24T08:31:14.000Z</time>
      </trkpt>
      <trkpt lat="47.43128" lon="6.63948">
        <ele>326</ele>
        <time>2016-07-24T08:31:15.000Z</time>
      </trkpt>
      <trkpt lat="47.43126" lon="6.63951">
        <ele>326</ele>
        <time>2016-07-24T08:31:16.000Z</time>
      </trkpt>
      <trkpt lat="47.43124" lon="6.63954">
        <ele>326</ele>
        <time>2016-07-24T08:31:17.000Z</time>
      </trkpt>
      <trkpt lat="47.43122" lon="6.63956">
        <ele>326</ele>
        <time>2016-07-24T08:31:18.000Z</time>
      </trkpt>
      <trkpt lat="47.4312" lon="6.63958">
        <ele>326</ele>
        <time>2016-07-24T08:31:19.000Z</time>
      </trkpt>
      <trkpt lat="47.43118" lon="6.6396">
        <ele>326</ele>
        <time>2016-07-24T08:31:20.000Z</time>
      </trkpt>
      <trkpt lat="47.43116" lon="6.63962">
        <ele>326</ele>
        <time>2016-07-24T08:31:21.000Z</time>
      </trkpt>
      <trkpt lat="47.43114" lon="6.63964">
        <ele>326</ele>
        <time>2016-07-24T08:31:22.000Z</time>
      </trkpt>
      <trkpt lat="47.43112" lon="6.63966">
        <ele>326</ele>
        <time>2016-07-24T08:31:23.000Z</time>
      </trkpt>
      <trkpt lat="47.4311" lon="6.63968">
        <ele>326</ele>
        <time>2016-07-24T08:31:24.000Z</time>
      </trkpt>
      <trkpt lat="47.43107" lon="6.63972">
        <ele>327</ele>
        <time>2016-07-24T08:31:26.000Z</time>
      </trkpt>
      <trkpt lat="47.43105" lon="6.63974">
        <ele>327</ele>
        <time>2016-07-24T08:31:27.000Z</time>
      </trkpt>
      <trkpt lat="47.43102" lon="6.63978">
        <ele>327</ele>
        <time>2016-07-24T08:31:29.000Z</time>
      </trkpt>
      <trkpt lat="47.431" lon="6.63981">
        <ele>327</ele>
        <time>2016-07-24T08:31:30.000Z</time>
      </trkpt>
      <trkpt lat="47.43098" lon="6.63984">
        <ele>327</ele>
        <time>2016-07-24T08:31:31.000Z</time>
      </trkpt>
      <trkpt lat="47.43096" lon="6.63986">
        <ele>327</ele>
        <time>2016-07-24T08:31:32.000Z</time>
      </trkpt>
      <trkpt lat="47.43094" lon="6.63989">
        <ele>328</ele>
        <time>2016-07-24T08:31:33.000Z</time>
      </trkpt>
      <trkpt lat="47.43092" lon="6.63992">
        <ele>328</ele>
        <time>2016-07-24T08:31:34.000Z</time>
      </trkpt>
      <trkpt lat="47.4309" lon="6.63994">
        <ele>328</ele>
        <time>2016-07-24T08:31:35.000Z</time>
      </trkpt>
      <trkpt lat="47.43087" lon="6.63997">
        <ele>328</ele>
        <time>2016-07-24T08:31:36.000Z</time>
      </trkpt>
      <trkpt lat="47.43085" lon="6.63999">
        <ele>329</ele>
        <time>2016-07-24T08:31:37.000Z</time>
      </trkpt>
      <trkpt lat="47.43083" lon="6.64001">
        <ele>329</ele>
        <time>2016-07-24T08:31:38.000Z</time>
      </trkpt>
      <trkpt lat="47.4308" lon="6.64004">
        <ele>329</ele>
        <time>2016-07-24T08:31:39.000Z</time>
      </trkpt>
      <trkpt lat="47.43077" lon="6.64007">
        <ele>330</ele>
        <time>2016-07-24T08:31:40.000Z</time>
      </trkpt>
      <trkpt lat="47.43074" lon="6.6401">
        <ele>330</ele>
        <time>2016-07-24T08:31:41.000Z</time>
      </trkpt>
      <trkpt lat="47.43072" lon="6.64012">
        <ele>330</ele>
        <time>2016-07-24T08:31:42.000Z</time>
      </trkpt>
      <trkpt lat="47.43069" lon="6.64015">
        <ele>330</ele>
        <time>2016-07-24T08:31:43.000Z</time>
      </trkpt>
      <trkpt lat="47.43066" lon="6.64018">
        <ele>330</ele>
        <time>2016-07-24T08:31:44.000Z</time>
      </trkpt>
      <trkpt lat="47.43063" lon="6.64021">
        <ele>330</ele>
        <time>2016-07-24T08:31:45.000Z</time>
      </trkpt>
      <trkpt lat="47.4306" lon="6.64025">
        <ele>331</ele>
        <time>2016-07-24T08:31:46.000Z</time>
      </trkpt>
      <trkpt lat="47.43057" lon="6.64028">
        <ele>331</ele>
        <time>2016-07-24T08:31:47.000Z</time>
      </trkpt>
      <trkpt lat="47.43055" lon="6.6403">
        <ele>331</ele>
        <time>2016-07-24T08:31:48.000Z</time>
      </trkpt>
      <trkpt lat="47.43053" lon="6.64032">
        <ele>331</ele>
        <time>2016-07-24T08:31:49.000Z</time>
      </trkpt>
      <trkpt lat="47.4305" lon="6.64034">
        <ele>331</ele>
        <time>2016-07-24T08:31:50.000Z</time>
      </trkpt>
      <trkpt lat="47.43048" lon="6.64036">
        <ele>331</ele>
        <time>2016-07-24T08:31:51.000Z</time>
      </trkpt>
      <trkpt lat="47.43046" lon="6.64038">
        <ele>331</ele>
        <time>2016-07-24T08:31:52.000Z</time>
      </trkpt>
      <trkpt lat="47.43043" lon="6.6404">
        <ele>331</ele>
        <time>2016-07-24T08:31:53.000Z</time>
      </trkpt>
      <trkpt lat="47.43041" lon="6.64042">
        <ele>331</ele>
        <time>2016-07-24T08:31:54.000Z</time>
      </trkpt>
      <trkpt lat="47.43038" lon="6.64043">
        <ele>331</ele>
        <time>2016-07-24T08:31:55.000Z</time>
      </trkpt>
      <trkpt lat="47.43035" lon="6.64044">
        <ele>331</ele>
        <time>2016-07-24T08:31:56.000Z</time>
      </trkpt>
      <trkpt lat="47.43031" lon="6.64043">
        <ele>331</ele>
        <time>2016-07-24T08:31:57.000Z</time>
      </trkpt>
      <trkpt lat="47.43028" lon="6.6404">
        <ele>331</ele>
        <time>2016-07-24T08:31:58.000Z</time>
      </trkpt>
      <trkpt lat="47.43025" lon="6.64036">
        <ele>331</ele>
        <time>2016-07-24T08:31:59.000Z</time>
      </trkpt>
      <trkpt lat="47.43023" lon="6.64031">
        <ele>331</ele>
        <time>2016-07-24T08:32:00.000Z</time>
      </trkpt>
      <trkpt lat="47.4302" lon="6.64026">
        <ele>331</ele>
        <time>2016-07-24T08:32:01.000Z</time>
      </trkpt>
      <trkpt lat="47.43018" lon="6.6402">
        <ele>331</ele>
        <time>2016-07-24T08:32:02.000Z</time>
      </trkpt>
      <trkpt lat="47.43016" lon="6.64015">
        <ele>331</ele>
        <time>2016-07-24T08:32:03.000Z</time>
      </trkpt>
      <trkpt lat="47.43013" lon="6.64009">
        <ele>330</ele>
        <time>2016-07-24T08:32:04.000Z</time>
      </trkpt>
      <trkpt lat="47.43011" lon="6.64004">
        <ele>330</ele>
        <time>2016-07-24T08:32:05.000Z</time>
      </trkpt>
      <trkpt lat="47.43009" lon="6.63999">
        <ele>329</ele>
        <time>2016-07-24T08:32:06.000Z</time>
      </trkpt>
      <trkpt lat="47.43006" lon="6.63995">
        <ele>329</ele>
        <time>2016-07-24T08:32:07.000Z</time>
      </trkpt>
      <trkpt lat="47.43004" lon="6.63991">
        <ele>329</ele>
        <time>2016-07-24T08:32:08.000Z</time>
      </trkpt>
      <trkpt lat="47.43001" lon="6.63987">
        <ele>328</ele>
        <time>2016-07-24T08:32:09.000Z</time>
      </trkpt>
      <trkpt lat="47.42999" lon="6.63984">
        <ele>329</ele>
        <time>2016-07-24T08:32:10.000Z</time>
      </trkpt>
      <trkpt lat="47.42996" lon="6.63983">
        <ele>329</ele>
        <time>2016-07-24T08:32:11.000Z</time>
      </trkpt>
      <trkpt lat="47.42994" lon="6.63981">
        <ele>329</ele>
        <time>2016-07-24T08:32:12.000Z</time>
      </trkpt>
      <trkpt lat="47.4299" lon="6.63979">
        <ele>329</ele>
        <time>2016-07-24T08:32:14.000Z</time>
      </trkpt>
      <trkpt lat="47.42989" lon="6.63978">
        <ele>329</ele>
        <time>2016-07-24T08:32:15.000Z</time>
      </trkpt>
      <trkpt lat="47.42988" lon="6.63973">
        <ele>329</ele>
        <time>2016-07-24T08:33:53.000Z</time>
      </trkpt>
      <trkpt lat="47.42987" lon="6.6397">
        <ele>328</ele>
        <time>2016-07-24T08:33:54.000Z</time>
      </trkpt>
      <trkpt lat="47.42985" lon="6.63967">
        <ele>328</ele>
        <time>2016-07-24T08:33:55.000Z</time>
      </trkpt>
      <trkpt lat="47.42983" lon="6.63964">
        <ele>328</ele>
        <time>2016-07-24T08:33:56.000Z</time>
      </trkpt>
      <trkpt lat="47.4298" lon="6.63962">
        <ele>328</ele>
        <time>2016-07-24T08:33:57.000Z</time>
      </trkpt>
      <trkpt lat="47.42977" lon="6.63961">
        <ele>328</ele>
        <time>2016-07-24T08:33:58.000Z</time>
      </trkpt>
      <trkpt lat="47.42975" lon="6.6396">
        <ele>328</ele>
        <time>2016-07-24T08:33:59.000Z</time>
      </trkpt>
      <trkpt lat="47.42972" lon="6.6396">
        <ele>328</ele>
        <time>2016-07-24T08:34:00.000Z</time>
      </trkpt>
      <trkpt lat="47.42969" lon="6.63961">
        <ele>328</ele>
        <time>2016-07-24T08:34:01.000Z</time>
      </trkpt>
      <trkpt lat="47.42966" lon="6.63962">
        <ele>328</ele>
        <time>2016-07-24T08:34:02.000Z</time>
      </trkpt>
      <trkpt lat="47.42964" lon="6.63965">
        <ele>328</ele>
        <time>2016-07-24T08:34:03.000Z</time>
      </trkpt>
      <trkpt lat="47.42961" lon="6.63967">
        <ele>328</ele>
        <time>2016-07-24T08:34:04.000Z</time>
      </trkpt>
      <trkpt lat="47.42959" lon="6.6397">
        <ele>329</ele>
        <time>2016-07-24T08:34:05.000Z</time>
      </trkpt>
      <trkpt lat="47.42958" lon="6.63973">
        <ele>329</ele>
        <time>2016-07-24T08:34:06.000Z</time>
      </trkpt>
      <trkpt lat="47.42956" lon="6.63975">
        <ele>329</ele>
        <time>2016-07-24T08:34:07.000Z</time>
      </trkpt>
      <trkpt lat="47.42954" lon="6.63977">
        <ele>329</ele>
        <time>2016-07-24T08:34:08.000Z</time>
      </trkpt>
      <trkpt lat="47.4295" lon="6.63979">
        <ele>329</ele>
        <time>2016-07-24T08:34:10.000Z</time>
      </trkpt>
      <trkpt lat="47.42948" lon="6.6398">
        <ele>329</ele>
        <time>2016-07-24T08:34:11.000Z</time>
      </trkpt>
      <trkpt lat="47.42945" lon="6.63981">
        <ele>329</ele>
        <time>2016-07-24T08:34:12.000Z</time>
      </trkpt>
      <trkpt lat="47.42943" lon="6.63982">
        <ele>329</ele>
        <time>2016-07-24T08:34:13.000Z</time>
      </trkpt>
      <trkpt lat="47.42941" lon="6.63986">
        <ele>330</ele>
        <time>2016-07-24T08:34:15.000Z</time>
      </trkpt>
      <trkpt lat="47.4294" lon="6.63987">
        <ele>330</ele>
        <time>2016-07-24T08:34:16.000Z</time>
      </trkpt>
      <trkpt lat="47.42937" lon="6.63992">
        <ele>330</ele>
        <time>2016-07-24T08:34:20.000Z</time>
      </trkpt>
      <trkpt lat="47.42935" lon="6.63993">
        <ele>330</ele>
        <time>2016-07-24T08:34:21.000Z</time>
      </trkpt>
      <trkpt lat="47.42932" lon="6.63995">
        <ele>330</ele>
        <time>2016-07-24T08:34:23.000Z</time>
      </trkpt>
      <trkpt lat="47.42929" lon="6.63997">
        <ele>331</ele>
        <time>2016-07-24T08:34:24.000Z</time>
      </trkpt>
      <trkpt lat="47.42926" lon="6.63999">
        <ele>331</ele>
        <time>2016-07-24T08:34:26.000Z</time>
      </trkpt>
      <trkpt lat="47.42924" lon="6.64001">
        <ele>332</ele>
        <time>2016-07-24T08:34:27.000Z</time>
      </trkpt>
      <trkpt lat="47.42923" lon="6.64003">
        <ele>332</ele>
        <time>2016-07-24T08:34:28.000Z</time>
      </trkpt>
      <trkpt lat="47.4292" lon="6.64006">
        <ele>332</ele>
        <time>2016-07-24T08:34:29.000Z</time>
      </trkpt>
      <trkpt lat="47.42918" lon="6.64008">
        <ele>332</ele>
        <time>2016-07-24T08:34:30.000Z</time>
      </trkpt>
      <trkpt lat="47.42915" lon="6.6401">
        <ele>334</ele>
        <time>2016-07-24T08:34:31.000Z</time>
      </trkpt>
      <trkpt lat="47.42911" lon="6.64012">
        <ele>334</ele>
        <time>2016-07-24T08:34:32.000Z</time>
      </trkpt>
      <trkpt lat="47.42908" lon="6.64012">
        <ele>334</ele>
        <time>2016-07-24T08:34:33.000Z</time>
      </trkpt>
      <trkpt lat="47.42905" lon="6.64013">
        <ele>334</ele>
        <time>2016-07-24T08:34:34.000Z</time>
      </trkpt>
      <trkpt lat="47.42902" lon="6.64014">
        <ele>335</ele>
        <time>2016-07-24T08:34:35.000Z</time>
      </trkpt>
      <trkpt lat="47.429" lon="6.64016">
        <ele>335</ele>
        <time>2016-07-24T08:34:36.000Z</time>
      </trkpt>
      <trkpt lat="47.42898" lon="6.64018">
        <ele>335</ele>
        <time>2016-07-24T08:34:37.000Z</time>
      </trkpt>
      <trkpt lat="47.42896" lon="6.64019">
        <ele>335</ele>
        <time>2016-07-24T08:34:38.000Z</time>
      </trkpt>
      <trkpt lat="47.42894" lon="6.6402">
        <ele>336</ele>
        <time>2016-07-24T08:34:39.000Z</time>
      </trkpt>
      <trkpt lat="47.42891" lon="6.64021">
        <ele>336</ele>
        <time>2016-07-24T08:34:40.000Z</time>
      </trkpt>
      <trkpt lat="47.42889" lon="6.64021">
        <ele>336</ele>
        <time>2016-07-24T08:34:41.000Z</time>
      </trkpt>
      <trkpt lat="47.42885" lon="6.64021">
        <ele>336</ele>
        <time>2016-07-24T08:34:43.000Z</time>
      </trkpt>
      <trkpt lat="47.42883" lon="6.64021">
        <ele>336</ele>
        <time>2016-07-24T08:34:44.000Z</time>
      </trkpt>
      <trkpt lat="47.42881" lon="6.64024">
        <ele>336</ele>
        <time>2016-07-24T08:34:46.000Z</time>
      </trkpt>
      <trkpt lat="47.4288" lon="6.64026">
        <ele>336</ele>
        <time>2016-07-24T08:34:47.000Z</time>
      </trkpt>
      <trkpt lat="47.42878" lon="6.6403">
        <ele>337</ele>
        <time>2016-07-24T08:34:49.000Z</time>
      </trkpt>
      <trkpt lat="47.42877" lon="6.64031">
        <ele>337</ele>
        <time>2016-07-24T08:34:50.000Z</time>
      </trkpt>
      <trkpt lat="47.42874" lon="6.64035">
        <ele>337</ele>
        <time>2016-07-24T08:34:53.000Z</time>
      </trkpt>
      <trkpt lat="47.42872" lon="6.64036">
        <ele>337</ele>
        <time>2016-07-24T08:34:54.000Z</time>
      </trkpt>
      <trkpt lat="47.4287" lon="6.64041">
        <ele>337</ele>
        <time>2016-07-24T08:34:57.000Z</time>
      </trkpt>
      <trkpt lat="47.42869" lon="6.64041">
        <ele>337</ele>
        <time>2016-07-24T08:34:58.000Z</time>
      </trkpt>
      <trkpt lat="47.42867" lon="6.64043">
        <ele>338</ele>
        <time>2016-07-24T08:34:59.000Z</time>
      </trkpt>
      <trkpt lat="47.42866" lon="6.64045">
        <ele>338</ele>
        <time>2016-07-24T08:35:00.000Z</time>
      </trkpt>
      <trkpt lat="47.42861" lon="6.64047">
        <ele>338</ele>
        <time>2016-07-24T08:35:04.000Z</time>
      </trkpt>
      <trkpt lat="47.4286" lon="6.64047">
        <ele>338</ele>
        <time>2016-07-24T08:35:05.000Z</time>
      </trkpt>
      <trkpt lat="47.42856" lon="6.64048">
        <ele>338</ele>
        <time>2016-07-24T08:35:12.000Z</time>
      </trkpt>
      <trkpt lat="47.42855" lon="6.64048">
        <ele>338</ele>
        <time>2016-07-24T08:35:13.000Z</time>
      </trkpt>
      <trkpt lat="47.42852" lon="6.6405">
        <ele>339</ele>
        <time>2016-07-24T08:35:16.000Z</time>
      </trkpt>
      <trkpt lat="47.42851" lon="6.64051">
        <ele>339</ele>
        <time>2016-07-24T08:35:17.000Z</time>
      </trkpt>
      <trkpt lat="47.42847" lon="6.64054">
        <ele>339</ele>
        <time>2016-07-24T08:35:21.000Z</time>
      </trkpt>
      <trkpt lat="47.42846" lon="6.64054">
        <ele>339</ele>
        <time>2016-07-24T08:35:22.000Z</time>
      </trkpt>
      <trkpt lat="47.42842" lon="6.64058">
        <ele>340</ele>
        <time>2016-07-24T08:35:25.000Z</time>
      </trkpt>
      <trkpt lat="47.42841" lon="6.64059">
        <ele>340</ele>
        <time>2016-07-24T08:35:26.000Z</time>
      </trkpt>
      <trkpt lat="47.42838" lon="6.64063">
        <ele>341</ele>
        <time>2016-07-24T08:35:30.000Z</time>
      </trkpt>
      <trkpt lat="47.42837" lon="6.64064">
        <ele>341</ele>
        <time>2016-07-24T08:35:31.000Z</time>
      </trkpt>
      <trkpt lat="47.42833" lon="6.64067">
        <ele>345</ele>
        <time>2016-07-24T08:35:34.000Z</time>
      </trkpt>
      <trkpt lat="47.42832" lon="6.64067">
        <ele>346</ele>
        <time>2016-07-24T08:35:35.000Z</time>
      </trkpt>
      <trkpt lat="47.4283" lon="6.64072">
        <ele>346</ele>
        <time>2016-07-24T08:35:39.000Z</time>
      </trkpt>
      <trkpt lat="47.4283" lon="6.64074">
        <ele>346</ele>
        <time>2016-07-24T08:35:40.000Z</time>
      </trkpt>
      <trkpt lat="47.42826" lon="6.64077">
        <ele>346</ele>
        <time>2016-07-24T08:35:47.000Z</time>
      </trkpt>
      <trkpt lat="47.42825" lon="6.64076">
        <ele>346</ele>
        <time>2016-07-24T08:35:48.000Z</time>
      </trkpt>
      <trkpt lat="47.4282" lon="6.64077">
        <ele>346</ele>
        <time>2016-07-24T08:35:52.000Z</time>
      </trkpt>
      <trkpt lat="47.4282" lon="6.64077">
        <ele>346</ele>
        <time>2016-07-24T08:35:53.000Z</time>
      </trkpt>
      <trkpt lat="47.42815" lon="6.64077">
        <ele>346</ele>
        <time>2016-07-24T08:35:59.000Z</time>
      </trkpt>
      <trkpt lat="47.42815" lon="6.64078">
        <ele>346</ele>
        <time>2016-07-24T08:36:00.000Z</time>
      </trkpt>
      <trkpt lat="47.42812" lon="6.64079">
        <ele>346</ele>
        <time>2016-07-24T08:36:06.000Z</time>
      </trkpt>
      <trkpt lat="47.42811" lon="6.64081">
        <ele>347</ele>
        <time>2016-07-24T08:36:07.000Z</time>
      </trkpt>
      <trkpt lat="47.42807" lon="6.64084">
        <ele>354</ele>
        <time>2016-07-24T08:36:10.000Z</time>
      </trkpt>
      <trkpt lat="47.42806" lon="6.64085">
        <ele>355</ele>
        <time>2016-07-24T08:36:11.000Z</time>
      </trkpt>
      <trkpt lat="47.42802" lon="6.64084">
        <ele>355</ele>
        <time>2016-07-24T08:36:14.000Z</time>
      </trkpt>
      <trkpt lat="47.428" lon="6.64083">
        <ele>347</ele>
        <time>2016-07-24T08:36:15.000Z</time>
      </trkpt>
      <trkpt lat="47.42796" lon="6.64083">
        <ele>348</ele>
        <time>2016-07-24T08:36:20.000Z</time>
      </trkpt>
      <trkpt lat="47.42795" lon="6.64083">
        <ele>348</ele>
        <time>2016-07-24T08:36:21.000Z</time>
      </trkpt>
      <trkpt lat="47.42791" lon="6.64081">
        <ele>348</ele>
        <time>2016-07-24T08:36:25.000Z</time>
      </trkpt>
      <trkpt lat="47.4279" lon="6.64079">
        <ele>348</ele>
        <time>2016-07-24T08:36:26.000Z</time>
      </trkpt>
      <trkpt lat="47.42787" lon="6.64076">
        <ele>348</ele>
        <time>2016-07-24T08:36:28.000Z</time>
      </trkpt>
      <trkpt lat="47.42785" lon="6.64075">
        <ele>349</ele>
        <time>2016-07-24T08:36:29.000Z</time>
      </trkpt>
      <trkpt lat="47.42781" lon="6.64072">
        <ele>349</ele>
        <time>2016-07-24T08:36:32.000Z</time>
      </trkpt>
      <trkpt lat="47.42779" lon="6.64071">
        <ele>349</ele>
        <time>2016-07-24T08:36:33.000Z</time>
      </trkpt>
      <trkpt lat="47.42777" lon="6.6407">
        <ele>349</ele>
        <time>2016-07-24T08:36:34.000Z</time>
      </trkpt>
      <trkpt lat="47.42775" lon="6.64068">
        <ele>350</ele>
        <time>2016-07-24T08:36:35.000Z</time>
      </trkpt>
      <trkpt lat="47.42772" lon="6.64067">
        <ele>350</ele>
        <time>2016-07-24T08:36:36.000Z</time>
      </trkpt>
      <trkpt lat="47.4277" lon="6.64066">
        <ele>350</ele>
        <time>2016-07-24T08:36:37.000Z</time>
      </trkpt>
      <trkpt lat="47.42767" lon="6.64065">
        <ele>350</ele>
        <time>2016-07-24T08:36:38.000Z</time>
      </trkpt>
      <trkpt lat="47.42764" lon="6.64063">
        <ele>350</ele>
        <time>2016-07-24T08:36:39.000Z</time>
      </trkpt>
      <trkpt lat="47.42761" lon="6.64062">
        <ele>350</ele>
        <time>2016-07-24T08:36:40.000Z</time>
      </trkpt>
      <trkpt lat="47.42758" lon="6.64061">
        <ele>350</ele>
        <time>2016-07-24T08:36:41.000Z</time>
      </trkpt>
      <trkpt lat="47.42755" lon="6.6406">
        <ele>350</ele>
        <time>2016-07-24T08:36:42.000Z</time>
      </trkpt>
      <trkpt lat="47.42752" lon="6.64059">
        <ele>351</ele>
        <time>2016-07-24T08:36:43.000Z</time>
      </trkpt>
      <trkpt lat="47.42749" lon="6.64059">
        <ele>356</ele>
        <time>2016-07-24T08:36:44.000Z</time>
      </trkpt>
      <trkpt lat="47.42747" lon="6.64058">
        <ele>355</ele>
        <time>2016-07-24T08:36:45.000Z</time>
      </trkpt>
      <trkpt lat="47.42744" lon="6.64057">
        <ele>355</ele>
        <time>2016-07-24T08:36:46.000Z</time>
      </trkpt>
      <trkpt lat="47.42741" lon="6.64056">
        <ele>355</ele>
        <time>2016-07-24T08:36:47.000Z</time>
      </trkpt>
      <trkpt lat="47.42738" lon="6.64054">
        <ele>355</ele>
        <time>2016-07-24T08:36:48.000Z</time>
      </trkpt>
      <trkpt lat="47.42734" lon="6.64052">
        <ele>355</ele>
        <time>2016-07-24T08:36:49.000Z</time>
      </trkpt>
      <trkpt lat="47.42731" lon="6.6405">
        <ele>355</ele>
        <time>2016-07-24T08:36:50.000Z</time>
      </trkpt>
      <trkpt lat="47.42729" lon="6.64048">
        <ele>355</ele>
        <time>2016-07-24T08:36:51.000Z</time>
      </trkpt>
      <trkpt lat="47.42726" lon="6.64047">
        <ele>355</ele>
        <time>2016-07-24T08:36:52.000Z</time>
      </trkpt>
      <trkpt lat="47.42724" lon="6.64045">
        <ele>355</ele>
        <time>2016-07-24T08:36:53.000Z</time>
      </trkpt>
      <trkpt lat="47.42721" lon="6.64043">
        <ele>355</ele>
        <time>2016-07-24T08:36:54.000Z</time>
      </trkpt>
      <trkpt lat="47.42719" lon="6.64042">
        <ele>355</ele>
        <time>2016-07-24T08:36:55.000Z</time>
      </trkpt>
      <trkpt lat="47.42717" lon="6.6404">
        <ele>355</ele>
        <time>2016-07-24T08:36:56.000Z</time>
      </trkpt>
      <trkpt lat="47.42715" lon="6.64038">
        <ele>354</ele>
        <time>2016-07-24T08:36:57.000Z</time>
      </trkpt>
      <trkpt lat="47.42712" lon="6.64036">
        <ele>354</ele>
        <time>2016-07-24T08:36:59.000Z</time>
      </trkpt>
      <trkpt lat="47.4271" lon="6.64038">
        <ele>355</ele>
        <time>2016-07-24T08:37:00.000Z</time>
      </trkpt>
      <trkpt lat="47.42707" lon="6.64039">
        <ele>355</ele>
        <time>2016-07-24T08:37:03.000Z</time>
      </trkpt>
      <trkpt lat="47.42705" lon="6.64038">
        <ele>355</ele>
        <time>2016-07-24T08:37:04.000Z</time>
      </trkpt>
      <trkpt lat="47.42701" lon="6.64036">
        <ele>355</ele>
        <time>2016-07-24T08:37:06.000Z</time>
      </trkpt>
      <trkpt lat="47.42698" lon="6.64035">
        <ele>355</ele>
        <time>2016-07-24T08:37:07.000Z</time>
      </trkpt>
      <trkpt lat="47.42694" lon="6.64033">
        <ele>355</ele>
        <time>2016-07-24T08:37:09.000Z</time>
      </trkpt>
      <trkpt lat="47.42692" lon="6.64032">
        <ele>355</ele>
        <time>2016-07-24T08:37:10.000Z</time>
      </trkpt>
      <trkpt lat="47.42688" lon="6.6403">
        <ele>355</ele>
        <time>2016-07-24T08:37:12.000Z</time>
      </trkpt>
      <trkpt lat="47.42687" lon="6.64028">
        <ele>354</ele>
        <time>2016-07-24T08:37:13.000Z</time>
      </trkpt>
      <trkpt lat="47.42683" lon="6.64025">
        <ele>354</ele>
        <time>2016-07-24T08:37:15.000Z</time>
      </trkpt>
      <trkpt lat="47.42682" lon="6.64023">
        <ele>354</ele>
        <time>2016-07-24T08:37:16.000Z</time>
      </trkpt>
      <trkpt lat="47.4268" lon="6.64018">
        <ele>354</ele>
        <time>2016-07-24T08:37:18.000Z</time>
      </trkpt>
      <trkpt lat="47.42678" lon="6.64016">
        <ele>353</ele>
        <time>2016-07-24T08:37:19.000Z</time>
      </trkpt>
      <trkpt lat="47.42676" lon="6.64013">
        <ele>353</ele>
        <time>2016-07-24T08:37:20.000Z</time>
      </trkpt>
      <trkpt lat="47.42672" lon="6.6401">
        <ele>353</ele>
        <time>2016-07-24T08:37:21.000Z</time>
      </trkpt>
      <trkpt lat="47.42668" lon="6.64008">
        <ele>352</ele>
        <time>2016-07-24T08:37:22.000Z</time>
      </trkpt>
      <trkpt lat="47.42663" lon="6.64006">
        <ele>354</ele>
        <time>2016-07-24T08:37:23.000Z</time>
      </trkpt>
      <trkpt lat="47.42658" lon="6.64003">
        <ele>355</ele>
        <time>2016-07-24T08:37:24.000Z</time>
      </trkpt>
      <trkpt lat="47.42654" lon="6.64001">
        <ele>356</ele>
        <time>2016-07-24T08:37:25.000Z</time>
      </trkpt>
      <trkpt lat="47.42651" lon="6.63999">
        <ele>350</ele>
        <time>2016-07-24T08:37:26.000Z</time>
      </trkpt>
      <trkpt lat="47.42648" lon="6.63998">
        <ele>350</ele>
        <time>2016-07-24T08:37:27.000Z</time>
      </trkpt>
      <trkpt lat="47.42646" lon="6.63996">
        <ele>350</ele>
        <time>2016-07-24T08:37:28.000Z</time>
      </trkpt>
      <trkpt lat="47.42644" lon="6.63995">
        <ele>350</ele>
        <time>2016-07-24T08:37:29.000Z</time>
      </trkpt>
      <trkpt lat="47.42641" lon="6.63993">
        <ele>350</ele>
        <time>2016-07-24T08:37:30.000Z</time>
      </trkpt>
      <trkpt lat="47.42637" lon="6.6399">
        <ele>350</ele>
        <time>2016-07-24T08:37:32.000Z</time>
      </trkpt>
      <trkpt lat="47.42636" lon="6.63987">
        <ele>350</ele>
        <time>2016-07-24T08:37:33.000Z</time>
      </trkpt>
      <trkpt lat="47.42634" lon="6.63985">
        <ele>350</ele>
        <time>2016-07-24T08:37:34.000Z</time>
      </trkpt>
      <trkpt lat="47.42633" lon="6.63982">
        <ele>350</ele>
        <time>2016-07-24T08:37:35.000Z</time>
      </trkpt>
      <trkpt lat="47.4263" lon="6.6398">
        <ele>350</ele>
        <time>2016-07-24T08:37:36.000Z</time>
      </trkpt>
      <trkpt lat="47.42628" lon="6.63977">
        <ele>350</ele>
        <time>2016-07-24T08:37:37.000Z</time>
      </trkpt>
      <trkpt lat="47.42626" lon="6.63974">
        <ele>350</ele>
        <time>2016-07-24T08:37:38.000Z</time>
      </trkpt>
      <trkpt lat="47.42624" lon="6.6397">
        <ele>350</ele>
        <time>2016-07-24T08:37:39.000Z</time>
      </trkpt>
      <trkpt lat="47.42623" lon="6.63967">
        <ele>349</ele>
        <time>2016-07-24T08:37:40.000Z</time>
      </trkpt>
      <trkpt lat="47.42622" lon="6.63964">
        <ele>349</ele>
        <time>2016-07-24T08:37:41.000Z</time>
      </trkpt>
      <trkpt lat="47.4262" lon="6.6396">
        <ele>349</ele>
        <time>2016-07-24T08:37:42.000Z</time>
      </trkpt>
      <trkpt lat="47.42618" lon="6.63958">
        <ele>349</ele>
        <time>2016-07-24T08:37:43.000Z</time>
      </trkpt>
      <trkpt lat="47.42615" lon="6.63956">
        <ele>349</ele>
        <time>2016-07-24T08:37:44.000Z</time>
      </trkpt>
      <trkpt lat="47.42612" lon="6.63954">
        <ele>349</ele>
        <time>2016-07-24T08:37:45.000Z</time>
      </trkpt>
      <trkpt lat="47.4261" lon="6.63952">
        <ele>349</ele>
        <time>2016-07-24T08:37:46.000Z</time>
      </trkpt>
      <trkpt lat="47.42607" lon="6.63952">
        <ele>349</ele>
        <time>2016-07-24T08:37:47.000Z</time>
      </trkpt>
      <trkpt lat="47.42603" lon="6.63951">
        <ele>349</ele>
        <time>2016-07-24T08:37:49.000Z</time>
      </trkpt>
      <trkpt lat="47.42601" lon="6.6395">
        <ele>349</ele>
        <time>2016-07-24T08:37:50.000Z</time>
      </trkpt>
      <trkpt lat="47.42598" lon="6.63947">
        <ele>349</ele>
        <time>2016-07-24T08:37:52.000Z</time>
      </trkpt>
      <trkpt lat="47.42597" lon="6.63945">
        <ele>349</ele>
        <time>2016-07-24T08:37:53.000Z</time>
      </trkpt>
      <trkpt lat="47.42593" lon="6.63945">
        <ele>349</ele>
        <time>2016-07-24T08:37:55.000Z</time>
      </trkpt>
      <trkpt lat="47.42591" lon="6.63945">
        <ele>349</ele>
        <time>2016-07-24T08:37:56.000Z</time>
      </trkpt>
      <trkpt lat="47.42588" lon="6.63946">
        <ele>349</ele>
        <time>2016-07-24T08:37:58.000Z</time>
      </trkpt>
      <trkpt lat="47.42586" lon="6.63945">
        <ele>349</ele>
        <time>2016-07-24T08:37:59.000Z</time>
      </trkpt>
      <trkpt lat="47.42583" lon="6.63945">
        <ele>349</ele>
        <time>2016-07-24T08:38:00.000Z</time>
      </trkpt>
      <trkpt lat="47.42581" lon="6.63944">
        <ele>355</ele>
        <time>2016-07-24T08:38:01.000Z</time>
      </trkpt>
      <trkpt lat="47.42579" lon="6.63943">
        <ele>355</ele>
        <time>2016-07-24T08:38:02.000Z</time>
      </trkpt>
      <trkpt lat="47.42576" lon="6.63943">
        <ele>355</ele>
        <time>2016-07-24T08:38:03.000Z</time>
      </trkpt>
      <trkpt lat="47.42573" lon="6.63942">
        <ele>355</ele>
        <time>2016-07-24T08:38:05.000Z</time>
      </trkpt>
      <trkpt lat="47.42571" lon="6.63941">
        <ele>355</ele>
        <time>2016-07-24T08:38:06.000Z</time>
      </trkpt>
      <trkpt lat="47.42567" lon="6.63941">
        <ele>355</ele>
        <time>2016-07-24T08:38:08.000Z</time>
      </trkpt>
      <trkpt lat="47.42565" lon="6.63941">
        <ele>355</ele>
        <time>2016-07-24T08:38:09.000Z</time>
      </trkpt>
      <trkpt lat="47.42561" lon="6.63939">
        <ele>356</ele>
        <time>2016-07-24T08:38:12.000Z</time>
      </trkpt>
      <trkpt lat="47.4256" lon="6.63939">
        <ele>356</ele>
        <time>2016-07-24T08:38:13.000Z</time>
      </trkpt>
      <trkpt lat="47.42556" lon="6.6394">
        <ele>356</ele>
        <time>2016-07-24T08:39:17.000Z</time>
      </trkpt>
      <trkpt lat="47.42555" lon="6.63941">
        <ele>356</ele>
        <time>2016-07-24T08:39:18.000Z</time>
      </trkpt>
      <trkpt lat="47.42552" lon="6.63945">
        <ele>357</ele>
        <time>2016-07-24T08:39:29.000Z</time>
      </trkpt>
      <trkpt lat="47.42551" lon="6.63946">
        <ele>357</ele>
        <time>2016-07-24T08:39:30.000Z</time>
      </trkpt>
      <trkpt lat="47.42548" lon="6.63942">
        <ele>357</ele>
        <time>2016-07-24T08:39:50.000Z</time>
      </trkpt>
      <trkpt lat="47.42547" lon="6.63939">
        <ele>357</ele>
        <time>2016-07-24T08:39:51.000Z</time>
      </trkpt>
      <trkpt lat="47.42545" lon="6.63936">
        <ele>357</ele>
        <time>2016-07-24T08:39:52.000Z</time>
      </trkpt>
      <trkpt lat="47.42543" lon="6.63932">
        <ele>357</ele>
        <time>2016-07-24T08:39:53.000Z</time>
      </trkpt>
      <trkpt lat="47.42541" lon="6.63929">
        <ele>357</ele>
        <time>2016-07-24T08:39:54.000Z</time>
      </trkpt>
      <trkpt lat="47.42539" lon="6.63927">
        <ele>357</ele>
        <time>2016-07-24T08:39:55.000Z</time>
      </trkpt>
      <trkpt lat="47.42536" lon="6.63923">
        <ele>357</ele>
        <time>2016-07-24T08:39:57.000Z</time>
      </trkpt>
      <trkpt lat="47.42535" lon="6.63922">
        <ele>357</ele>
        <time>2016-07-24T08:39:58.000Z</time>
      </trkpt>
      <trkpt lat="47.42533" lon="6.63917">
        <ele>357</ele>
        <time>2016-07-24T08:40:00.000Z</time>
      </trkpt>
      <trkpt lat="47.42531" lon="6.63914">
        <ele>349</ele>
        <time>2016-07-24T08:40:01.000Z</time>
      </trkpt>
      <trkpt lat="47.4253" lon="6.63911">
        <ele>349</ele>
        <time>2016-07-24T08:40:02.000Z</time>
      </trkpt>
      <trkpt lat="47.42527" lon="6.63907">
        <ele>349</ele>
        <time>2016-07-24T08:40:03.000Z</time>
      </trkpt>
      <trkpt lat="47.42524" lon="6.63903">
        <ele>349</ele>
        <time>2016-07-24T08:40:04.000Z</time>
      </trkpt>
      <trkpt lat="47.42521" lon="6.63899">
        <ele>349</ele>
        <time>2016-07-24T08:40:05.000Z</time>
      </trkpt>
      <trkpt lat="47.42519" lon="6.63896">
        <ele>349</ele>
        <time>2016-07-24T08:40:06.000Z</time>
      </trkpt>
      <trkpt lat="47.42516" lon="6.63892">
        <ele>349</ele>
        <time>2016-07-24T08:40:07.000Z</time>
      </trkpt>
      <trkpt lat="47.42514" lon="6.63888">
        <ele>349</ele>
        <time>2016-07-24T08:40:08.000Z</time>
      </trkpt>
      <trkpt lat="47.42511" lon="6.63884">
        <ele>348</ele>
        <time>2016-07-24T08:40:09.000Z</time>
      </trkpt>
      <trkpt lat="47.42507" lon="6.6388">
        <ele>348</ele>
        <time>2016-07-24T08:40:10.000Z</time>
      </trkpt>
      <trkpt lat="47.42502" lon="6.63876">
        <ele>348</ele>
        <time>2016-07-24T08:40:11.000Z</time>
      </trkpt>
      <trkpt lat="47.42498" lon="6.63872">
        <ele>355</ele>
        <time>2016-07-24T08:40:12.000Z</time>
      </trkpt>
      <trkpt lat="47.42494" lon="6.63868">
        <ele>354</ele>
        <time>2016-07-24T08:40:13.000Z</time>
      </trkpt>
      <trkpt lat="47.4249" lon="6.63863">
        <ele>354</ele>
        <time>2016-07-24T08:40:14.000Z</time>
      </trkpt>
      <trkpt lat="47.42486" lon="6.63859">
        <ele>354</ele>
        <time>2016-07-24T08:40:15.000Z</time>
      </trkpt>
      <trkpt lat="47.42483" lon="6.63853">
        <ele>353</ele>
        <time>2016-07-24T08:40:16.000Z</time>
      </trkpt>
      <trkpt lat="47.42479" lon="6.63848">
        <ele>353</ele>
        <time>2016-07-24T08:40:17.000Z</time>
      </trkpt>
      <trkpt lat="47.42473" lon="6.63843">
        <ele>353</ele>
        <time>2016-07-24T08:40:18.000Z</time>
      </trkpt>
      <trkpt lat="47.42467" lon="6.6384">
        <ele>354</ele>
        <time>2016-07-24T08:40:19.000Z</time>
      </trkpt>
      <trkpt lat="47.42442" lon="6.63833">
        <ele>350</ele>
        <time>2016-07-24T08:40:20.000Z</time>
      </trkpt>
      <trkpt lat="47.4244" lon="6.6383">
        <ele>350</ele>
        <time>2016-07-24T08:40:21.000Z</time>
      </trkpt>
      <trkpt lat="47.42438" lon="6.63828">
        <ele>350</ele>
        <time>2016-07-24T08:40:22.000Z</time>
      </trkpt>
      <trkpt lat="47.42435" lon="6.63825">
        <ele>351</ele>
        <time>2016-07-24T08:40:23.000Z</time>
      </trkpt>
      <trkpt lat="47.42431" lon="6.63822">
        <ele>351</ele>
        <time>2016-07-24T08:40:24.000Z</time>
      </trkpt>
      <trkpt lat="47.42427" lon="6.63819">
        <ele>351</ele>
        <time>2016-07-24T08:40:25.000Z</time>
      </trkpt>
      <trkpt lat="47.42422" lon="6.63816">
        <ele>351</ele>
        <time>2016-07-24T08:40:26.000Z</time>
      </trkpt>
      <trkpt lat="47.42418" lon="6.63813">
        <ele>351</ele>
        <time>2016-07-24T08:40:27.000Z</time>
      </trkpt>
      <trkpt lat="47.42414" lon="6.63811">
        <ele>353</ele>
        <time>2016-07-24T08:40:28.000Z</time>
      </trkpt>
      <trkpt lat="47.4241" lon="6.63809">
        <ele>352</ele>
        <time>2016-07-24T08:40:29.000Z</time>
      </trkpt>
      <trkpt lat="47.42407" lon="6.63807">
        <ele>352</ele>
        <time>2016-07-24T08:40:30.000Z</time>
      </trkpt>
      <trkpt lat="47.42405" lon="6.63805">
        <ele>352</ele>
        <time>2016-07-24T08:40:31.000Z</time>
      </trkpt>
      <trkpt lat="47.42402" lon="6.638">
        <ele>351</ele>
        <time>2016-07-24T08:40:32.000Z</time>
      </trkpt>
      <trkpt lat="47.42397" lon="6.63795">
        <ele>351</ele>
        <time>2016-07-24T08:40:33.000Z</time>
      </trkpt>
      <trkpt lat="47.42393" lon="6.6379">
        <ele>350</ele>
        <time>2016-07-24T08:40:34.000Z</time>
      </trkpt>
      <trkpt lat="47.42388" lon="6.63785">
        <ele>350</ele>
        <time>2016-07-24T08:40:35.000Z</time>
      </trkpt>
      <trkpt lat="47.42384" lon="6.63781">
        <ele>350</ele>
        <time>2016-07-24T08:40:36.000Z</time>
      </trkpt>
      <trkpt lat="47.4238" lon="6.63778">
        <ele>349</ele>
        <time>2016-07-24T08:40:37.000Z</time>
      </trkpt>
      <trkpt lat="47.42377" lon="6.63775">
        <ele>349</ele>
        <time>2016-07-24T08:40:38.000Z</time>
      </trkpt>
      <trkpt lat="47.42375" lon="6.63771">
        <ele>349</ele>
        <time>2016-07-24T08:40:39.000Z</time>
      </trkpt>
      <trkpt lat="47.42373" lon="6.63766">
        <ele>349</ele>
        <time>2016-07-24T08:40:40.000Z</time>
      </trkpt>
      <trkpt lat="47.42371" lon="6.63761">
        <ele>348</ele>
        <time>2016-07-24T08:40:41.000Z</time>
      </trkpt>
      <trkpt lat="47.4237" lon="6.63754">
        <ele>348</ele>
        <time>2016-07-24T08:40:42.000Z</time>
      </trkpt>
      <trkpt lat="47.42369" lon="6.63748">
        <ele>340</ele>
        <time>2016-07-24T08:40:43.000Z</time>
      </trkpt>
      <trkpt lat="47.42369" lon="6.63741">
        <ele>340</ele>
        <time>2016-07-24T08:40:44.000Z</time>
      </trkpt>
      <trkpt lat="47.42368" lon="6.63734">
        <ele>340</ele>
        <time>2016-07-24T08:40:45.000Z</time>
      </trkpt>
      <trkpt lat="47.42368" lon="6.63727">
        <ele>340</ele>
        <time>2016-07-24T08:40:46.000Z</time>
      </trkpt>
      <trkpt lat="47.42368" lon="6.63721">
        <ele>339</ele>
        <time>2016-07-24T08:40:47.000Z</time>
      </trkpt>
      <trkpt lat="47.42369" lon="6.63714">
        <ele>339</ele>
        <time>2016-07-24T08:40:48.000Z</time>
      </trkpt>
      <trkpt lat="47.42368" lon="6.63709">
        <ele>339</ele>
        <time>2016-07-24T08:40:49.000Z</time>
      </trkpt>
      <trkpt lat="47.42368" lon="6.63704">
        <ele>338</ele>
        <time>2016-07-24T08:40:50.000Z</time>
      </trkpt>
      <trkpt lat="47.42368" lon="6.637">
        <ele>338</ele>
        <time>2016-07-24T08:40:51.000Z</time>
      </trkpt>
      <trkpt lat="47.42367" lon="6.63697">
        <ele>338</ele>
        <time>2016-07-24T08:40:52.000Z</time>
      </trkpt>
      <trkpt lat="47.42366" lon="6.63694">
        <ele>337</ele>
        <time>2016-07-24T08:40:53.000Z</time>
      </trkpt>
      <trkpt lat="47.42364" lon="6.6369">
        <ele>337</ele>
        <time>2016-07-24T08:40:54.000Z</time>
      </trkpt>
      <trkpt lat="47.42362" lon="6.63687">
        <ele>337</ele>
        <time>2016-07-24T08:40:55.000Z</time>
      </trkpt>
      <trkpt lat="47.4236" lon="6.63684">
        <ele>337</ele>
        <time>2016-07-24T08:40:56.000Z</time>
      </trkpt>
      <trkpt lat="47.42358" lon="6.63681">
        <ele>336</ele>
        <time>2016-07-24T08:40:57.000Z</time>
      </trkpt>
      <trkpt lat="47.42355" lon="6.63678">
        <ele>336</ele>
        <time>2016-07-24T08:40:58.000Z</time>
      </trkpt>
      <trkpt lat="47.42353" lon="6.63675">
        <ele>336</ele>
        <time>2016-07-24T08:40:59.000Z</time>
      </trkpt>
      <trkpt lat="47.42351" lon="6.63673">
        <ele>336</ele>
        <time>2016-07-24T08:41:00.000Z</time>
      </trkpt>
      <trkpt lat="47.42349" lon="6.63671">
        <ele>335</ele>
        <time>2016-07-24T08:41:01.000Z</time>
      </trkpt>
      <trkpt lat="47.42347" lon="6.63667">
        <ele>335</ele>
        <time>2016-07-24T08:41:03.000Z</time>
      </trkpt>
      <trkpt lat="47.42344" lon="6.63666">
        <ele>332</ele>
        <time>2016-07-24T08:41:04.000Z</time>
      </trkpt>
      <trkpt lat="47.42342" lon="6.63664">
        <ele>332</ele>
        <time>2016-07-24T08:41:09.000Z</time>
      </trkpt>
      <trkpt lat="47.42342" lon="6.6366">
        <ele>332</ele>
        <time>2016-07-24T08:41:10.000Z</time>
      </trkpt>
      <trkpt lat="47.42342" lon="6.63657">
        <ele>332</ele>
        <time>2016-07-24T08:41:11.000Z</time>
      </trkpt>
      <trkpt lat="47.42343" lon="6.63653">
        <ele>332</ele>
        <time>2016-07-24T08:41:12.000Z</time>
      </trkpt>
      <trkpt lat="47.42344" lon="6.63649">
        <ele>332</ele>
        <time>2016-07-24T08:41:13.000Z</time>
      </trkpt>
      <trkpt lat="47.42345" lon="6.63646">
        <ele>332</ele>
        <time>2016-07-24T08:41:14.000Z</time>
      </trkpt>
      <trkpt lat="47.42347" lon="6.63644">
        <ele>332</ele>
        <time>2016-07-24T08:41:15.000Z</time>
      </trkpt>
      <trkpt lat="47.4235" lon="6.63643">
        <ele>332</ele>
        <time>2016-07-24T08:41:16.000Z</time>
      </trkpt>
      <trkpt lat="47.42353" lon="6.63642">
        <ele>332</ele>
        <time>2016-07-24T08:41:17.000Z</time>
      </trkpt>
      <trkpt lat="47.42356" lon="6.63641">
        <ele>332</ele>
        <time>2016-07-24T08:41:18.000Z</time>
      </trkpt>
      <trkpt lat="47.42359" lon="6.6364">
        <ele>332</ele>
        <time>2016-07-24T08:41:19.000Z</time>
      </trkpt>
      <trkpt lat="47.42361" lon="6.63639">
        <ele>331</ele>
        <time>2016-07-24T08:41:20.000Z</time>
      </trkpt>
      <trkpt lat="47.42364" lon="6.63638">
        <ele>331</ele>
        <time>2016-07-24T08:41:21.000Z</time>
      </trkpt>
      <trkpt lat="47.42368" lon="6.63635">
        <ele>331</ele>
        <time>2016-07-24T08:41:22.000Z</time>
      </trkpt>
      <trkpt lat="47.42371" lon="6.63632">
        <ele>331</ele>
        <time>2016-07-24T08:41:23.000Z</time>
      </trkpt>
      <trkpt lat="47.42374" lon="6.63628">
        <ele>331</ele>
        <time>2016-07-24T08:41:24.000Z</time>
      </trkpt>
      <trkpt lat="47.42376" lon="6.63624">
        <ele>331</ele>
        <time>2016-07-24T08:41:25.000Z</time>
      </trkpt>
      <trkpt lat="47.42377" lon="6.63621">
        <ele>331</ele>
        <time>2016-07-24T08:41:26.000Z</time>
      </trkpt>
      <trkpt lat="47.42376" lon="6.63614">
        <ele>330</ele>
        <time>2016-07-24T08:41:28.000Z</time>
      </trkpt>
      <trkpt lat="47.42375" lon="6.63613">
        <ele>330</ele>
        <time>2016-07-24T08:41:29.000Z</time>
      </trkpt>
      <trkpt lat="47.42373" lon="6.63607">
        <ele>330</ele>
        <time>2016-07-24T08:41:41.000Z</time>
      </trkpt>
      <trkpt lat="47.42373" lon="6.63607">
        <ele>330</ele>
        <time>2016-07-24T08:41:42.000Z</time>
      </trkpt>
      <trkpt lat="47.42376" lon="6.63604">
        <ele>330</ele>
        <time>2016-07-24T08:41:49.000Z</time>
      </trkpt>
      <trkpt lat="47.42377" lon="6.63601">
        <ele>330</ele>
        <time>2016-07-24T08:41:50.000Z</time>
      </trkpt>
      <trkpt lat="47.42378" lon="6.63598">
        <ele>330</ele>
        <time>2016-07-24T08:41:51.000Z</time>
      </trkpt>
      <trkpt lat="47.42379" lon="6.63594">
        <ele>330</ele>
        <time>2016-07-24T08:41:52.000Z</time>
      </trkpt>
      <trkpt lat="47.4238" lon="6.6359">
        <ele>329</ele>
        <time>2016-07-24T08:41:53.000Z</time>
      </trkpt>
      <trkpt lat="47.42381" lon="6.63586">
        <ele>329</ele>
        <time>2016-07-24T08:41:54.000Z</time>
      </trkpt>
      <trkpt lat="47.42382" lon="6.63582">
        <ele>327</ele>
        <time>2016-07-24T08:41:55.000Z</time>
      </trkpt>
      <trkpt lat="47.42384" lon="6.63578">
        <ele>327</ele>
        <time>2016-07-24T08:41:56.000Z</time>
      </trkpt>
      <trkpt lat="47.42387" lon="6.63574">
        <ele>326</ele>
        <time>2016-07-24T08:41:57.000Z</time>
      </trkpt>
      <trkpt lat="47.42388" lon="6.63568">
        <ele>326</ele>
        <time>2016-07-24T08:41:58.000Z</time>
      </trkpt>
      <trkpt lat="47.4239" lon="6.63561">
        <ele>326</ele>
        <time>2016-07-24T08:41:59.000Z</time>
      </trkpt>
      <trkpt lat="47.42392" lon="6.63556">
        <ele>326</ele>
        <time>2016-07-24T08:42:00.000Z</time>
      </trkpt>
      <trkpt lat="47.42393" lon="6.63549">
        <ele>326</ele>
        <time>2016-07-24T08:42:01.000Z</time>
      </trkpt>
      <trkpt lat="47.42394" lon="6.63542">
        <ele>326</ele>
        <time>2016-07-24T08:42:02.000Z</time>
      </trkpt>
      <trkpt lat="47.42394" lon="6.63535">
        <ele>325</ele>
        <time>2016-07-24T08:42:03.000Z</time>
      </trkpt>
      <trkpt lat="47.42394" lon="6.63528">
        <ele>325</ele>
        <time>2016-07-24T08:42:04.000Z</time>
      </trkpt>
      <trkpt lat="47.42394" lon="6.6352">
        <ele>325</ele>
        <time>2016-07-24T08:42:05.000Z</time>
      </trkpt>
      <trkpt lat="47.42394" lon="6.63512">
        <ele>324</ele>
        <time>2016-07-24T08:42:06.000Z</time>
      </trkpt>
      <trkpt lat="47.42394" lon="6.63505">
        <ele>324</ele>
        <time>2016-07-24T08:42:07.000Z</time>
      </trkpt>
      <trkpt lat="47.42394" lon="6.63497">
        <ele>323</ele>
        <time>2016-07-24T08:42:08.000Z</time>
      </trkpt>
      <trkpt lat="47.42395" lon="6.6349">
        <ele>323</ele>
        <time>2016-07-24T08:42:09.000Z</time>
      </trkpt>
      <trkpt lat="47.42395" lon="6.63483">
        <ele>323</ele>
        <time>2016-07-24T08:42:10.000Z</time>
      </trkpt>
      <trkpt lat="47.42396" lon="6.63475">
        <ele>324</ele>
        <time>2016-07-24T08:42:11.000Z</time>
      </trkpt>
      <trkpt lat="47.42397" lon="6.63468">
        <ele>324</ele>
        <time>2016-07-24T08:42:12.000Z</time>
      </trkpt>
      <trkpt lat="47.42397" lon="6.63461">
        <ele>324</ele>
        <time>2016-07-24T08:42:13.000Z</time>
      </trkpt>
      <trkpt lat="47.42398" lon="6.63454">
        <ele>324</ele>
        <time>2016-07-24T08:42:14.000Z</time>
      </trkpt>
      <trkpt lat="47.42399" lon="6.63447">
        <ele>324</ele>
        <time>2016-07-24T08:42:15.000Z</time>
      </trkpt>
      <trkpt lat="47.42401" lon="6.63439">
        <ele>323</ele>
        <time>2016-07-24T08:42:16.000Z</time>
      </trkpt>
      <trkpt lat="47.42404" lon="6.63407">
        <ele>322</ele>
        <time>2016-07-24T08:42:17.000Z</time>
      </trkpt>
      <trkpt lat="47.42406" lon="6.63401">
        <ele>322</ele>
        <time>2016-07-24T08:42:18.000Z</time>
      </trkpt>
      <trkpt lat="47.42407" lon="6.63394">
        <ele>323</ele>
        <time>2016-07-24T08:42:19.000Z</time>
      </trkpt>
      <trkpt lat="47.42408" lon="6.63388">
        <ele>323</ele>
        <time>2016-07-24T08:42:20.000Z</time>
      </trkpt>
      <trkpt lat="47.42408" lon="6.63382">
        <ele>324</ele>
        <time>2016-07-24T08:42:21.000Z</time>
      </trkpt>
      <trkpt lat="47.42409" lon="6.63377">
        <ele>324</ele>
        <time>2016-07-24T08:42:22.000Z</time>
      </trkpt>
      <trkpt lat="47.4241" lon="6.63371">
        <ele>324</ele>
        <time>2016-07-24T08:42:23.000Z</time>
      </trkpt>
      <trkpt lat="47.42411" lon="6.63366">
        <ele>324</ele>
        <time>2016-07-24T08:42:24.000Z</time>
      </trkpt>
      <trkpt lat="47.42412" lon="6.63361">
        <ele>324</ele>
        <time>2016-07-24T08:42:25.000Z</time>
      </trkpt>
      <trkpt lat="47.42413" lon="6.63355">
        <ele>323</ele>
        <time>2016-07-24T08:42:26.000Z</time>
      </trkpt>
      <trkpt lat="47.42414" lon="6.63351">
        <ele>323</ele>
        <time>2016-07-24T08:42:27.000Z</time>
      </trkpt>
      <trkpt lat="47.42414" lon="6.63346">
        <ele>322</ele>
        <time>2016-07-24T08:42:28.000Z</time>
      </trkpt>
      <trkpt lat="47.42415" lon="6.63341">
        <ele>321</ele>
        <time>2016-07-24T08:42:29.000Z</time>
      </trkpt>
      <trkpt lat="47.42416" lon="6.63336">
        <ele>320</ele>
        <time>2016-07-24T08:42:30.000Z</time>
      </trkpt>
      <trkpt lat="47.42416" lon="6.63332">
        <ele>319</ele>
        <time>2016-07-24T08:42:31.000Z</time>
      </trkpt>
      <trkpt lat="47.42416" lon="6.63328">
        <ele>321</ele>
        <time>2016-07-24T08:42:32.000Z</time>
      </trkpt>
      <trkpt lat="47.42416" lon="6.63322">
        <ele>322</ele>
        <time>2016-07-24T08:42:33.000Z</time>
      </trkpt>
      <trkpt lat="47.42415" lon="6.63316">
        <ele>323</ele>
        <time>2016-07-24T08:42:34.000Z</time>
      </trkpt>
      <trkpt lat="47.42414" lon="6.63311">
        <ele>324</ele>
        <time>2016-07-24T08:42:35.000Z</time>
      </trkpt>
      <trkpt lat="47.42412" lon="6.63308">
        <ele>325</ele>
        <time>2016-07-24T08:42:36.000Z</time>
      </trkpt>
      <trkpt lat="47.42412" lon="6.63305">
        <ele>325</ele>
        <time>2016-07-24T08:42:37.000Z</time>
      </trkpt>
      <trkpt lat="47.42411" lon="6.633">
        <ele>325</ele>
        <time>2016-07-24T08:42:39.000Z</time>
      </trkpt>
      <trkpt lat="47.42411" lon="6.63297">
        <ele>326</ele>
        <time>2016-07-24T08:42:40.000Z</time>
      </trkpt>
      <trkpt lat="47.42411" lon="6.63291">
        <ele>326</ele>
        <time>2016-07-24T08:42:41.000Z</time>
      </trkpt>
      <trkpt lat="47.42412" lon="6.63286">
        <ele>326</ele>
        <time>2016-07-24T08:42:42.000Z</time>
      </trkpt>
      <trkpt lat="47.42411" lon="6.6328">
        <ele>326</ele>
        <time>2016-07-24T08:42:45.000Z</time>
      </trkpt>
      <trkpt lat="47.4241" lon="6.63279">
        <ele>326</ele>
        <time>2016-07-24T08:42:46.000Z</time>
      </trkpt>
      <trkpt lat="47.42407" lon="6.63275">
        <ele>326</ele>
        <time>2016-07-24T08:42:52.000Z</time>
      </trkpt>
      <trkpt lat="47.42405" lon="6.63274">
        <ele>326</ele>
        <time>2016-07-24T08:42:53.000Z</time>
      </trkpt>
      <trkpt lat="47.42402" lon="6.63272">
        <ele>327</ele>
        <time>2016-07-24T08:43:17.000Z</time>
      </trkpt>
      <trkpt lat="47.424" lon="6.63272">
        <ele>327</ele>
        <time>2016-07-24T08:43:18.000Z</time>
      </trkpt>
      <trkpt lat="47.424" lon="6.63268">
        <ele>327</ele>
        <time>2016-07-24T08:43:29.000Z</time>
      </trkpt>
      <trkpt lat="47.42399" lon="6.63265">
        <ele>327</ele>
        <time>2016-07-24T08:43:30.000Z</time>
      </trkpt>
      <trkpt lat="47.42397" lon="6.6326">
        <ele>327</ele>
        <time>2016-07-24T08:43:32.000Z</time>
      </trkpt>
      <trkpt lat="47.42396" lon="6.63258">
        <ele>327</ele>
        <time>2016-07-24T08:43:33.000Z</time>
      </trkpt>
      <trkpt lat="47.42393" lon="6.63253">
        <ele>327</ele>
        <time>2016-07-24T08:43:36.000Z</time>
      </trkpt>
      <trkpt lat="47.42392" lon="6.63252">
        <ele>327</ele>
        <time>2016-07-24T08:43:37.000Z</time>
      </trkpt>
      <trkpt lat="47.4239" lon="6.63247">
        <ele>329</ele>
        <time>2016-07-24T08:43:39.000Z</time>
      </trkpt>
      <trkpt lat="47.4239" lon="6.63245">
        <ele>329</ele>
        <time>2016-07-24T08:43:40.000Z</time>
      </trkpt>
      <trkpt lat="47.42388" lon="6.6324">
        <ele>330</ele>
        <time>2016-07-24T08:43:42.000Z</time>
      </trkpt>
      <trkpt lat="47.42388" lon="6.63238">
        <ele>330</ele>
        <time>2016-07-24T08:43:43.000Z</time>
      </trkpt>
      <trkpt lat="47.42385" lon="6.63233">
        <ele>330</ele>
        <time>2016-07-24T08:43:46.000Z</time>
      </trkpt>
      <trkpt lat="47.42385" lon="6.63232">
        <ele>330</ele>
        <time>2016-07-24T08:43:47.000Z</time>
      </trkpt>
      <trkpt lat="47.42383" lon="6.63226">
        <ele>330</ele>
        <time>2016-07-24T08:43:58.000Z</time>
      </trkpt>
      <trkpt lat="47.42384" lon="6.63226">
        <ele>330</ele>
        <time>2016-07-24T08:43:59.000Z</time>
      </trkpt>
      <trkpt lat="47.42382" lon="6.6322">
        <ele>331</ele>
        <time>2016-07-24T08:44:12.000Z</time>
      </trkpt>
      <trkpt lat="47.42382" lon="6.63218">
        <ele>331</ele>
        <time>2016-07-24T08:44:13.000Z</time>
      </trkpt>
      <trkpt lat="47.42381" lon="6.63212">
        <ele>331</ele>
        <time>2016-07-24T08:44:16.000Z</time>
      </trkpt>
      <trkpt lat="47.42381" lon="6.63209">
        <ele>331</ele>
        <time>2016-07-24T08:44:17.000Z</time>
      </trkpt>
      <trkpt lat="47.42382" lon="6.63203">
        <ele>331</ele>
        <time>2016-07-24T08:44:19.000Z</time>
      </trkpt>
      <trkpt lat="47.42382" lon="6.632">
        <ele>331</ele>
        <time>2016-07-24T08:44:20.000Z</time>
      </trkpt>
      <trkpt lat="47.42381" lon="6.63194">
        <ele>332</ele>
        <time>2016-07-24T08:44:22.000Z</time>
      </trkpt>
      <trkpt lat="47.4238" lon="6.63191">
        <ele>332</ele>
        <time>2016-07-24T08:44:23.000Z</time>
      </trkpt>
      <trkpt lat="47.42378" lon="6.63187">
        <ele>332</ele>
        <time>2016-07-24T08:44:25.000Z</time>
      </trkpt>
      <trkpt lat="47.42378" lon="6.63184">
        <ele>332</ele>
        <time>2016-07-24T08:44:26.000Z</time>
      </trkpt>
      <trkpt lat="47.42376" lon="6.63179">
        <ele>332</ele>
        <time>2016-07-24T08:44:28.000Z</time>
      </trkpt>
      <trkpt lat="47.42374" lon="6.63176">
        <ele>332</ele>
        <time>2016-07-24T08:44:29.000Z</time>
      </trkpt>
      <trkpt lat="47.42371" lon="6.63171">
        <ele>332</ele>
        <time>2016-07-24T08:44:31.000Z</time>
      </trkpt>
      <trkpt lat="47.42368" lon="6.63167">
        <ele>332</ele>
        <time>2016-07-24T08:44:33.000Z</time>
      </trkpt>
      <trkpt lat="47.42366" lon="6.63165">
        <ele>335</ele>
        <time>2016-07-24T08:44:34.000Z</time>
      </trkpt>
      <trkpt lat="47.42364" lon="6.63163">
        <ele>335</ele>
        <time>2016-07-24T08:44:35.000Z</time>
      </trkpt>
      <trkpt lat="47.42362" lon="6.63161">
        <ele>335</ele>
        <time>2016-07-24T08:44:36.000Z</time>
      </trkpt>
      <trkpt lat="47.42359" lon="6.63159">
        <ele>335</ele>
        <time>2016-07-24T08:44:37.000Z</time>
      </trkpt>
      <trkpt lat="47.42356" lon="6.63157">
        <ele>335</ele>
        <time>2016-07-24T08:44:38.000Z</time>
      </trkpt>
      <trkpt lat="47.42353" lon="6.63155">
        <ele>335</ele>
        <time>2016-07-24T08:44:39.000Z</time>
      </trkpt>
      <trkpt lat="47.4235" lon="6.63153">
        <ele>335</ele>
        <time>2016-07-24T08:44:40.000Z</time>
      </trkpt>
      <trkpt lat="47.42348" lon="6.63151">
        <ele>335</ele>
        <time>2016-07-24T08:44:41.000Z</time>
      </trkpt>
      <trkpt lat="47.42344" lon="6.63149">
        <ele>335</ele>
        <time>2016-07-24T08:44:43.000Z</time>
      </trkpt>
      <trkpt lat="47.42343" lon="6.63148">
        <ele>335</ele>
        <time>2016-07-24T08:44:44.000Z</time>
      </trkpt>
      <trkpt lat="47.4234" lon="6.63144">
        <ele>335</ele>
        <time>2016-07-24T08:44:46.000Z</time>
      </trkpt>
      <trkpt lat="47.42338" lon="6.63143">
        <ele>335</ele>
        <time>2016-07-24T08:44:47.000Z</time>
      </trkpt>
      <trkpt lat="47.42335" lon="6.63139">
        <ele>335</ele>
        <time>2016-07-24T08:44:49.000Z</time>
      </trkpt>
      <trkpt lat="47.42333" lon="6.63137">
        <ele>335</ele>
        <time>2016-07-24T08:44:50.000Z</time>
      </trkpt>
      <trkpt lat="47.4233" lon="6.63134">
        <ele>335</ele>
        <time>2016-07-24T08:44:52.000Z</time>
      </trkpt>
      <trkpt lat="47.42328" lon="6.63133">
        <ele>335</ele>
        <time>2016-07-24T08:44:53.000Z</time>
      </trkpt>
      <trkpt lat="47.42326" lon="6.63132">
        <ele>335</ele>
        <time>2016-07-24T08:44:54.000Z</time>
      </trkpt>
      <trkpt lat="47.42323" lon="6.6313">
        <ele>336</ele>
        <time>2016-07-24T08:44:55.000Z</time>
      </trkpt>
      <trkpt lat="47.42321" lon="6.63128">
        <ele>336</ele>
        <time>2016-07-24T08:44:56.000Z</time>
      </trkpt>
      <trkpt lat="47.42318" lon="6.63126">
        <ele>336</ele>
        <time>2016-07-24T08:44:57.000Z</time>
      </trkpt>
      <trkpt lat="47.42316" lon="6.63125">
        <ele>336</ele>
        <time>2016-07-24T08:44:58.000Z</time>
      </trkpt>
      <trkpt lat="47.42313" lon="6.63123">
        <ele>336</ele>
        <time>2016-07-24T08:44:59.000Z</time>
      </trkpt>
      <trkpt lat="47.42309" lon="6.63122">
        <ele>336</ele>
        <time>2016-07-24T08:45:01.000Z</time>
      </trkpt>
      <trkpt lat="47.42307" lon="6.63121">
        <ele>336</ele>
        <time>2016-07-24T08:45:02.000Z</time>
      </trkpt>
      <trkpt lat="47.42304" lon="6.63119">
        <ele>336</ele>
        <time>2016-07-24T08:45:04.000Z</time>
      </trkpt>
      <trkpt lat="47.42302" lon="6.63118">
        <ele>336</ele>
        <time>2016-07-24T08:45:05.000Z</time>
      </trkpt>
      <trkpt lat="47.42298" lon="6.63115">
        <ele>336</ele>
        <time>2016-07-24T08:45:08.000Z</time>
      </trkpt>
      <trkpt lat="47.42297" lon="6.63114">
        <ele>336</ele>
        <time>2016-07-24T08:45:09.000Z</time>
      </trkpt>
      <trkpt lat="47.42294" lon="6.6311">
        <ele>336</ele>
        <time>2016-07-24T08:45:11.000Z</time>
      </trkpt>
      <trkpt lat="47.42292" lon="6.63109">
        <ele>336</ele>
        <time>2016-07-24T08:45:12.000Z</time>
      </trkpt>
      <trkpt lat="47.42289" lon="6.63106">
        <ele>336</ele>
        <time>2016-07-24T08:45:14.000Z</time>
      </trkpt>
      <trkpt lat="47.42287" lon="6.63104">
        <ele>336</ele>
        <time>2016-07-24T08:45:15.000Z</time>
      </trkpt>
      <trkpt lat="47.42284" lon="6.63101">
        <ele>336</ele>
        <time>2016-07-24T08:45:17.000Z</time>
      </trkpt>
      <trkpt lat="47.42282" lon="6.63099">
        <ele>336</ele>
        <time>2016-07-24T08:45:18.000Z</time>
      </trkpt>
      <trkpt lat="47.42279" lon="6.63098">
        <ele>336</ele>
        <time>2016-07-24T08:45:19.000Z</time>
      </trkpt>
      <trkpt lat="47.42277" lon="6.63096">
        <ele>336</ele>
        <time>2016-07-24T08:45:20.000Z</time>
      </trkpt>
      <trkpt lat="47.42275" lon="6.63095">
        <ele>336</ele>
        <time>2016-07-24T08:45:21.000Z</time>
      </trkpt>
      <trkpt lat="47.42273" lon="6.63093">
        <ele>335</ele>
        <time>2016-07-24T08:45:22.000Z</time>
      </trkpt>
      <trkpt lat="47.42269" lon="6.63091">
        <ele>335</ele>
        <time>2016-07-24T08:45:24.000Z</time>
      </trkpt>
      <trkpt lat="47.42267" lon="6.63089">
        <ele>335</ele>
        <time>2016-07-24T08:45:25.000Z</time>
      </trkpt>
      <trkpt lat="47.42265" lon="6.63088">
        <ele>335</ele>
        <time>2016-07-24T08:45:26.000Z</time>
      </trkpt>
      <trkpt lat="47.42262" lon="6.63086">
        <ele>335</ele>
        <time>2016-07-24T08:45:27.000Z</time>
      </trkpt>
      <trkpt lat="47.4226" lon="6.63085">
        <ele>335</ele>
        <time>2016-07-24T08:45:28.000Z</time>
      </trkpt>
      <trkpt lat="47.42257" lon="6.63083">
        <ele>335</ele>
        <time>2016-07-24T08:45:29.000Z</time>
      </trkpt>
      <trkpt lat="47.42255" lon="6.63082">
        <ele>336</ele>
        <time>2016-07-24T08:45:30.000Z</time>
      </trkpt>
      <trkpt lat="47.42252" lon="6.6308">
        <ele>336</ele>
        <time>2016-07-24T08:45:31.000Z</time>
      </trkpt>
      <trkpt lat="47.42249" lon="6.63078">
        <ele>336</ele>
        <time>2016-07-24T08:45:32.000Z</time>
      </trkpt>
      <trkpt lat="47.42245" lon="6.63077">
        <ele>337</ele>
        <time>2016-07-24T08:45:33.000Z</time>
      </trkpt>
      <trkpt lat="47.42242" lon="6.63076">
        <ele>337</ele>
        <time>2016-07-24T08:45:34.000Z</time>
      </trkpt>
      <trkpt lat="47.42239" lon="6.63074">
        <ele>338</ele>
        <time>2016-07-24T08:45:35.000Z</time>
      </trkpt>
      <trkpt lat="47.42235" lon="6.63075">
        <ele>338</ele>
        <time>2016-07-24T08:45:38.000Z</time>
      </trkpt>
      <trkpt lat="47.42234" lon="6.63075">
        <ele>338</ele>
        <time>2016-07-24T08:45:39.000Z</time>
      </trkpt>
      <trkpt lat="47.42231" lon="6.63074">
        <ele>339</ele>
        <time>2016-07-24T08:45:41.000Z</time>
      </trkpt>
      <trkpt lat="47.42229" lon="6.63073">
        <ele>339</ele>
        <time>2016-07-24T08:45:42.000Z</time>
      </trkpt>
      <trkpt lat="47.42225" lon="6.63069">
        <ele>339</ele>
        <time>2016-07-24T08:45:45.000Z</time>
      </trkpt>
      <trkpt lat="47.42224" lon="6.63067">
        <ele>339</ele>
        <time>2016-07-24T08:45:46.000Z</time>
      </trkpt>
      <trkpt lat="47.42222" lon="6.63062">
        <ele>340</ele>
        <time>2016-07-24T08:45:48.000Z</time>
      </trkpt>
      <trkpt lat="47.42221" lon="6.6306">
        <ele>340</ele>
        <time>2016-07-24T08:45:49.000Z</time>
      </trkpt>
      <trkpt lat="47.42218" lon="6.63056">
        <ele>340</ele>
        <time>2016-07-24T08:45:51.000Z</time>
      </trkpt>
      <trkpt lat="47.42217" lon="6.63055">
        <ele>340</ele>
        <time>2016-07-24T08:45:52.000Z</time>
      </trkpt>
      <trkpt lat="47.42215" lon="6.63052">
        <ele>340</ele>
        <time>2016-07-24T08:45:54.000Z</time>
      </trkpt>
      <trkpt lat="47.42214" lon="6.6305">
        <ele>340</ele>
        <time>2016-07-24T08:45:55.000Z</time>
      </trkpt>
      <trkpt lat="47.42211" lon="6.63046">
        <ele>341</ele>
        <time>2016-07-24T08:45:57.000Z</time>
      </trkpt>
      <trkpt lat="47.4221" lon="6.63044">
        <ele>341</ele>
        <time>2016-07-24T08:45:58.000Z</time>
      </trkpt>
      <trkpt lat="47.42209" lon="6.63042">
        <ele>341</ele>
        <time>2016-07-24T08:45:59.000Z</time>
      </trkpt>
      <trkpt lat="47.42207" lon="6.6304">
        <ele>341</ele>
        <time>2016-07-24T08:46:00.000Z</time>
      </trkpt>
      <trkpt lat="47.42204" lon="6.63037">
        <ele>341</ele>
        <time>2016-07-24T08:46:01.000Z</time>
      </trkpt>
      <trkpt lat="47.42201" lon="6.63034">
        <ele>341</ele>
        <time>2016-07-24T08:46:02.000Z</time>
      </trkpt>
      <trkpt lat="47.42199" lon="6.63031">
        <ele>341</ele>
        <time>2016-07-24T08:46:03.000Z</time>
      </trkpt>
      <trkpt lat="47.42196" lon="6.63028">
        <ele>341</ele>
        <time>2016-07-24T08:46:04.000Z</time>
      </trkpt>
      <trkpt lat="47.42194" lon="6.63024">
        <ele>341</ele>
        <time>2016-07-24T08:46:05.000Z</time>
      </trkpt>
      <trkpt lat="47.42193" lon="6.6302">
        <ele>341</ele>
        <time>2016-07-24T08:46:06.000Z</time>
      </trkpt>
      <trkpt lat="47.42191" lon="6.63017">
        <ele>341</ele>
        <time>2016-07-24T08:46:07.000Z</time>
      </trkpt>
      <trkpt lat="47.4219" lon="6.63014">
        <ele>341</ele>
        <time>2016-07-24T08:46:08.000Z</time>
      </trkpt>
      <trkpt lat="47.42188" lon="6.63008">
        <ele>341</ele>
        <time>2016-07-24T08:46:10.000Z</time>
      </trkpt>
      <trkpt lat="47.42188" lon="6.63005">
        <ele>341</ele>
        <time>2016-07-24T08:46:11.000Z</time>
      </trkpt>
      <trkpt lat="47.42186" lon="6.62999">
        <ele>342</ele>
        <time>2016-07-24T08:46:13.000Z</time>
      </trkpt>
      <trkpt lat="47.42185" lon="6.62997">
        <ele>342</ele>
        <time>2016-07-24T08:46:14.000Z</time>
      </trkpt>
      <trkpt lat="47.42184" lon="6.62992">
        <ele>342</ele>
        <time>2016-07-24T08:46:16.000Z</time>
      </trkpt>
      <trkpt lat="47.42182" lon="6.6299">
        <ele>342</ele>
        <time>2016-07-24T08:46:17.000Z</time>
      </trkpt>
      <trkpt lat="47.42181" lon="6.62987">
        <ele>342</ele>
        <time>2016-07-24T08:46:18.000Z</time>
      </trkpt>
      <trkpt lat="47.4218" lon="6.62984">
        <ele>342</ele>
        <time>2016-07-24T08:46:19.000Z</time>
      </trkpt>
      <trkpt lat="47.42178" lon="6.6298">
        <ele>343</ele>
        <time>2016-07-24T08:46:20.000Z</time>
      </trkpt>
      <trkpt lat="47.42176" lon="6.62977">
        <ele>343</ele>
        <time>2016-07-24T08:46:21.000Z</time>
      </trkpt>
      <trkpt lat="47.42175" lon="6.62973">
        <ele>343</ele>
        <time>2016-07-24T08:46:22.000Z</time>
      </trkpt>
      <trkpt lat="47.42173" lon="6.62969">
        <ele>343</ele>
        <time>2016-07-24T08:46:23.000Z</time>
      </trkpt>
      <trkpt lat="47.42172" lon="6.62966">
        <ele>343</ele>
        <time>2016-07-24T08:46:24.000Z</time>
      </trkpt>
      <trkpt lat="47.4217" lon="6.62964">
        <ele>343</ele>
        <time>2016-07-24T08:46:25.000Z</time>
      </trkpt>
      <trkpt lat="47.42168" lon="6.62959">
        <ele>343</ele>
        <time>2016-07-24T08:46:27.000Z</time>
      </trkpt>
      <trkpt lat="47.42167" lon="6.62956">
        <ele>343</ele>
        <time>2016-07-24T08:46:28.000Z</time>
      </trkpt>
      <trkpt lat="47.42166" lon="6.62953">
        <ele>350</ele>
        <time>2016-07-24T08:46:29.000Z</time>
      </trkpt>
      <trkpt lat="47.42166" lon="6.6295">
        <ele>350</ele>
        <time>2016-07-24T08:46:30.000Z</time>
      </trkpt>
      <trkpt lat="47.42166" lon="6.62946">
        <ele>349</ele>
        <time>2016-07-24T08:46:31.000Z</time>
      </trkpt>
      <trkpt lat="47.42166" lon="6.62942">
        <ele>349</ele>
        <time>2016-07-24T08:46:32.000Z</time>
      </trkpt>
      <trkpt lat="47.42164" lon="6.62936">
        <ele>349</ele>
        <time>2016-07-24T08:46:34.000Z</time>
      </trkpt>
      <trkpt lat="47.42163" lon="6.62933">
        <ele>348</ele>
        <time>2016-07-24T08:46:35.000Z</time>
      </trkpt>
      <trkpt lat="47.42161" lon="6.62928">
        <ele>348</ele>
        <time>2016-07-24T08:46:37.000Z</time>
      </trkpt>
      <trkpt lat="47.4216" lon="6.62925">
        <ele>347</ele>
        <time>2016-07-24T08:46:38.000Z</time>
      </trkpt>
      <trkpt lat="47.42158" lon="6.62921">
        <ele>347</ele>
        <time>2016-07-24T08:46:40.000Z</time>
      </trkpt>
      <trkpt lat="47.42157" lon="6.62919">
        <ele>347</ele>
        <time>2016-07-24T08:46:41.000Z</time>
      </trkpt>
      <trkpt lat="47.42155" lon="6.62914">
        <ele>348</ele>
        <time>2016-07-24T08:46:44.000Z</time>
      </trkpt>
      <trkpt lat="47.42154" lon="6.62912">
        <ele>348</ele>
        <time>2016-07-24T08:46:45.000Z</time>
      </trkpt>
      <trkpt lat="47.42152" lon="6.62911">
        <ele>348</ele>
        <time>2016-07-24T08:46:46.000Z</time>
      </trkpt>
      <trkpt lat="47.4215" lon="6.62909">
        <ele>349</ele>
        <time>2016-07-24T08:46:47.000Z</time>
      </trkpt>
      <trkpt lat="47.42148" lon="6.62907">
        <ele>350</ele>
        <time>2016-07-24T08:46:48.000Z</time>
      </trkpt>
      <trkpt lat="47.42146" lon="6.62905">
        <ele>350</ele>
        <time>2016-07-24T08:46:49.000Z</time>
      </trkpt>
      <trkpt lat="47.42143" lon="6.62902">
        <ele>351</ele>
        <time>2016-07-24T08:46:51.000Z</time>
      </trkpt>
      <trkpt lat="47.42142" lon="6.629">
        <ele>351</ele>
        <time>2016-07-24T08:46:52.000Z</time>
      </trkpt>
      <trkpt lat="47.4214" lon="6.62897">
        <ele>351</ele>
        <time>2016-07-24T08:46:54.000Z</time>
      </trkpt>
      <trkpt lat="47.42138" lon="6.62895">
        <ele>351</ele>
        <time>2016-07-24T08:46:55.000Z</time>
      </trkpt>
      <trkpt lat="47.42137" lon="6.62891">
        <ele>352</ele>
        <time>2016-07-24T08:46:57.000Z</time>
      </trkpt>
      <trkpt lat="47.42136" lon="6.62888">
        <ele>352</ele>
        <time>2016-07-24T08:46:58.000Z</time>
      </trkpt>
      <trkpt lat="47.42133" lon="6.62882">
        <ele>352</ele>
        <time>2016-07-24T08:47:00.000Z</time>
      </trkpt>
      <trkpt lat="47.42132" lon="6.62879">
        <ele>352</ele>
        <time>2016-07-24T08:47:01.000Z</time>
      </trkpt>
      <trkpt lat="47.4213" lon="6.62877">
        <ele>353</ele>
        <time>2016-07-24T08:47:02.000Z</time>
      </trkpt>
      <trkpt lat="47.42129" lon="6.62874">
        <ele>353</ele>
        <time>2016-07-24T08:47:03.000Z</time>
      </trkpt>
      <trkpt lat="47.42127" lon="6.62871">
        <ele>353</ele>
        <time>2016-07-24T08:47:04.000Z</time>
      </trkpt>
      <trkpt lat="47.42125" lon="6.62868">
        <ele>353</ele>
        <time>2016-07-24T08:47:05.000Z</time>
      </trkpt>
      <trkpt lat="47.42123" lon="6.62866">
        <ele>353</ele>
        <time>2016-07-24T08:47:06.000Z</time>
      </trkpt>
      <trkpt lat="47.42121" lon="6.62863">
        <ele>353</ele>
        <time>2016-07-24T08:47:07.000Z</time>
      </trkpt>
      <trkpt lat="47.42119" lon="6.6286">
        <ele>353</ele>
        <time>2016-07-24T08:47:08.000Z</time>
      </trkpt>
      <trkpt lat="47.42117" lon="6.62857">
        <ele>354</ele>
        <time>2016-07-24T08:47:09.000Z</time>
      </trkpt>
      <trkpt lat="47.42115" lon="6.62853">
        <ele>354</ele>
        <time>2016-07-24T08:47:10.000Z</time>
      </trkpt>
      <trkpt lat="47.42113" lon="6.6285">
        <ele>354</ele>
        <time>2016-07-24T08:47:11.000Z</time>
      </trkpt>
      <trkpt lat="47.4211" lon="6.62847">
        <ele>354</ele>
        <time>2016-07-24T08:47:12.000Z</time>
      </trkpt>
      <trkpt lat="47.42108" lon="6.62844">
        <ele>354</ele>
        <time>2016-07-24T08:47:13.000Z</time>
      </trkpt>
      <trkpt lat="47.42105" lon="6.62841">
        <ele>355</ele>
        <time>2016-07-24T08:47:14.000Z</time>
      </trkpt>
      <trkpt lat="47.42102" lon="6.62839">
        <ele>355</ele>
        <time>2016-07-24T08:47:15.000Z</time>
      </trkpt>
      <trkpt lat="47.421" lon="6.62836">
        <ele>355</ele>
        <time>2016-07-24T08:47:16.000Z</time>
      </trkpt>
      <trkpt lat="47.42098" lon="6.62834">
        <ele>355</ele>
        <time>2016-07-24T08:47:17.000Z</time>
      </trkpt>
      <trkpt lat="47.42095" lon="6.62831">
        <ele>355</ele>
        <time>2016-07-24T08:47:18.000Z</time>
      </trkpt>
      <trkpt lat="47.42094" lon="6.6283">
        <ele>355</ele>
        <time>2016-07-24T08:47:19.000Z</time>
      </trkpt>
      <trkpt lat="47.4209" lon="6.62826">
        <ele>355</ele>
        <time>2016-07-24T08:47:25.000Z</time>
      </trkpt>
      <trkpt lat="47.4209" lon="6.62826">
        <ele>355</ele>
        <time>2016-07-24T08:47:26.000Z</time>
      </trkpt>
      <trkpt lat="47.42087" lon="6.62823">
        <ele>355</ele>
        <time>2016-07-24T08:47:29.000Z</time>
      </trkpt>
      <trkpt lat="47.42086" lon="6.62822">
        <ele>355</ele>
        <time>2016-07-24T08:47:30.000Z</time>
      </trkpt>
      <trkpt lat="47.42081" lon="6.62821">
        <ele>357</ele>
        <time>2016-07-24T08:47:35.000Z</time>
      </trkpt>
      <trkpt lat="47.4208" lon="6.62821">
        <ele>357</ele>
        <time>2016-07-24T08:47:36.000Z</time>
      </trkpt>
      <trkpt lat="47.42077" lon="6.62821">
        <ele>357</ele>
        <time>2016-07-24T08:47:38.000Z</time>
      </trkpt>
      <trkpt lat="47.42075" lon="6.62821">
        <ele>358</ele>
        <time>2016-07-24T08:47:39.000Z</time>
      </trkpt>
      <trkpt lat="47.4207" lon="6.62821">
        <ele>358</ele>
        <time>2016-07-24T08:47:41.000Z</time>
      </trkpt>
      <trkpt lat="47.42068" lon="6.62822">
        <ele>358</ele>
        <time>2016-07-24T08:47:42.000Z</time>
      </trkpt>
      <trkpt lat="47.42066" lon="6.62823">
        <ele>358</ele>
        <time>2016-07-24T08:47:43.000Z</time>
      </trkpt>
      <trkpt lat="47.42063" lon="6.62823">
        <ele>358</ele>
        <time>2016-07-24T08:47:44.000Z</time>
      </trkpt>
      <trkpt lat="47.42061" lon="6.62824">
        <ele>358</ele>
        <time>2016-07-24T08:47:45.000Z</time>
      </trkpt>
      <trkpt lat="47.42058" lon="6.62825">
        <ele>358</ele>
        <time>2016-07-24T08:47:46.000Z</time>
      </trkpt>
      <trkpt lat="47.42056" lon="6.62826">
        <ele>358</ele>
        <time>2016-07-24T08:47:47.000Z</time>
      </trkpt>
      <trkpt lat="47.42053" lon="6.62827">
        <ele>358</ele>
        <time>2016-07-24T08:47:48.000Z</time>
      </trkpt>
      <trkpt lat="47.42049" lon="6.62828">
        <ele>359</ele>
        <time>2016-07-24T08:47:50.000Z</time>
      </trkpt>
      <trkpt lat="47.42048" lon="6.62829">
        <ele>359</ele>
        <time>2016-07-24T08:47:51.000Z</time>
      </trkpt>
      <trkpt lat="47.42044" lon="6.62832">
        <ele>359</ele>
        <time>2016-07-24T08:47:54.000Z</time>
      </trkpt>
      <trkpt lat="47.42043" lon="6.62834">
        <ele>362</ele>
        <time>2016-07-24T08:47:55.000Z</time>
      </trkpt>
      <trkpt lat="47.42042" lon="6.62839">
        <ele>362</ele>
        <time>2016-07-24T08:47:57.000Z</time>
      </trkpt>
      <trkpt lat="47.4204" lon="6.62842">
        <ele>362</ele>
        <time>2016-07-24T08:47:58.000Z</time>
      </trkpt>
      <trkpt lat="47.42038" lon="6.62847">
        <ele>362</ele>
        <time>2016-07-24T08:48:00.000Z</time>
      </trkpt>
      <trkpt lat="47.42036" lon="6.62849">
        <ele>363</ele>
        <time>2016-07-24T08:48:01.000Z</time>
      </trkpt>
      <trkpt lat="47.42033" lon="6.62852">
        <ele>363</ele>
        <time>2016-07-24T08:48:03.000Z</time>
      </trkpt>
      <trkpt lat="47.42031" lon="6.62853">
        <ele>363</ele>
        <time>2016-07-24T08:48:04.000Z</time>
      </trkpt>
      <trkpt lat="47.42028" lon="6.62858">
        <ele>363</ele>
        <time>2016-07-24T08:48:06.000Z</time>
      </trkpt>
      <trkpt lat="47.42027" lon="6.6286">
        <ele>363</ele>
        <time>2016-07-24T08:48:07.000Z</time>
      </trkpt>
      <trkpt lat="47.42025" lon="6.62865">
        <ele>363</ele>
        <time>2016-07-24T08:48:09.000Z</time>
      </trkpt>
      <trkpt lat="47.42024" lon="6.62867">
        <ele>363</ele>
        <time>2016-07-24T08:48:10.000Z</time>
      </trkpt>
      <trkpt lat="47.42023" lon="6.62873">
        <ele>364</ele>
        <time>2016-07-24T08:48:13.000Z</time>
      </trkpt>
      <trkpt lat="47.42023" lon="6.62874">
        <ele>364</ele>
        <time>2016-07-24T08:48:14.000Z</time>
      </trkpt>
      <trkpt lat="47.42021" lon="6.6288">
        <ele>364</ele>
        <time>2016-07-24T08:48:18.000Z</time>
      </trkpt>
      <trkpt lat="47.4202" lon="6.62882">
        <ele>364</ele>
        <time>2016-07-24T08:48:19.000Z</time>
      </trkpt>
      <trkpt lat="47.42017" lon="6.62885">
        <ele>364</ele>
        <time>2016-07-24T08:48:22.000Z</time>
      </trkpt>
      <trkpt lat="47.42015" lon="6.62887">
        <ele>364</ele>
        <time>2016-07-24T08:48:23.000Z</time>
      </trkpt>
      <trkpt lat="47.42013" lon="6.62892">
        <ele>365</ele>
        <time>2016-07-24T08:48:26.000Z</time>
      </trkpt>
      <trkpt lat="47.42012" lon="6.62894">
        <ele>365</ele>
        <time>2016-07-24T08:48:27.000Z</time>
      </trkpt>
      <trkpt lat="47.42011" lon="6.62898">
        <ele>365</ele>
        <time>2016-07-24T08:48:29.000Z</time>
      </trkpt>
      <trkpt lat="47.4201" lon="6.629">
        <ele>365</ele>
        <time>2016-07-24T08:48:30.000Z</time>
      </trkpt>
      <trkpt lat="47.42008" lon="6.62906">
        <ele>366</ele>
        <time>2016-07-24T08:48:32.000Z</time>
      </trkpt>
      <trkpt lat="47.42006" lon="6.62908">
        <ele>366</ele>
        <time>2016-07-24T08:48:33.000Z</time>
      </trkpt>
      <trkpt lat="47.42005" lon="6.62912">
        <ele>367</ele>
        <time>2016-07-24T08:48:34.000Z</time>
      </trkpt>
      <trkpt lat="47.42004" lon="6.62914">
        <ele>367</ele>
        <time>2016-07-24T08:48:35.000Z</time>
      </trkpt>
      <trkpt lat="47.42003" lon="6.6292">
        <ele>368</ele>
        <time>2016-07-24T08:48:37.000Z</time>
      </trkpt>
      <trkpt lat="47.42003" lon="6.62923">
        <ele>368</ele>
        <time>2016-07-24T08:48:38.000Z</time>
      </trkpt>
      <trkpt lat="47.42001" lon="6.62928">
        <ele>368</ele>
        <time>2016-07-24T08:48:40.000Z</time>
      </trkpt>
      <trkpt lat="47.42" lon="6.62931">
        <ele>368</ele>
        <time>2016-07-24T08:48:41.000Z</time>
      </trkpt>
      <trkpt lat="47.41998" lon="6.62935">
        <ele>371</ele>
        <time>2016-07-24T08:48:43.000Z</time>
      </trkpt>
      <trkpt lat="47.41998" lon="6.62938">
        <ele>371</ele>
        <time>2016-07-24T08:48:44.000Z</time>
      </trkpt>
      <trkpt lat="47.41999" lon="6.62942">
        <ele>372</ele>
        <time>2016-07-24T08:48:46.000Z</time>
      </trkpt>
      <trkpt lat="47.41999" lon="6.62944">
        <ele>372</ele>
        <time>2016-07-24T08:48:47.000Z</time>
      </trkpt>
      <trkpt lat="47.41999" lon="6.62951">
        <ele>372</ele>
        <time>2016-07-24T08:48:50.000Z</time>
      </trkpt>
      <trkpt lat="47.41999" lon="6.62953">
        <ele>372</ele>
        <time>2016-07-24T08:48:51.000Z</time>
      </trkpt>
      <trkpt lat="47.42" lon="6.62959">
        <ele>368</ele>
        <time>2016-07-24T08:48:53.000Z</time>
      </trkpt>
      <trkpt lat="47.42001" lon="6.62962">
        <ele>368</ele>
        <time>2016-07-24T08:48:54.000Z</time>
      </trkpt>
      <trkpt lat="47.42002" lon="6.62967">
        <ele>368</ele>
        <time>2016-07-24T08:48:56.000Z</time>
      </trkpt>
      <trkpt lat="47.42001" lon="6.6297">
        <ele>368</ele>
        <time>2016-07-24T08:48:57.000Z</time>
      </trkpt>
      <trkpt lat="47.42001" lon="6.62976">
        <ele>368</ele>
        <time>2016-07-24T08:48:59.000Z</time>
      </trkpt>
      <trkpt lat="47.42" lon="6.62978">
        <ele>368</ele>
        <time>2016-07-24T08:49:00.000Z</time>
      </trkpt>
      <trkpt lat="47.42001" lon="6.62983">
        <ele>369</ele>
        <time>2016-07-24T08:49:02.000Z</time>
      </trkpt>
      <trkpt lat="47.42001" lon="6.62986">
        <ele>369</ele>
        <time>2016-07-24T08:49:03.000Z</time>
      </trkpt>
      <trkpt lat="47.42" lon="6.62992">
        <ele>369</ele>
        <time>2016-07-24T08:49:05.000Z</time>
      </trkpt>
      <trkpt lat="47.42" lon="6.62995">
        <ele>371</ele>
        <time>2016-07-24T08:49:06.000Z</time>
      </trkpt>
      <trkpt lat="47.41999" lon="6.63">
        <ele>370</ele>
        <time>2016-07-24T08:49:08.000Z</time>
      </trkpt>
      <trkpt lat="47.41999" lon="6.63003">
        <ele>371</ele>
        <time>2016-07-24T08:49:09.000Z</time>
      </trkpt>
      <trkpt lat="47.41999" lon="6.63007">
        <ele>372</ele>
        <time>2016-07-24T08:49:11.000Z</time>
      </trkpt>
      <trkpt lat="47.41999" lon="6.6301">
        <ele>373</ele>
        <time>2016-07-24T08:49:12.000Z</time>
      </trkpt>
      <trkpt lat="47.41998" lon="6.63016">
        <ele>374</ele>
        <time>2016-07-24T08:49:14.000Z</time>
      </trkpt>
      <trkpt lat="47.41998" lon="6.63019">
        <ele>375</ele>
        <time>2016-07-24T08:49:15.000Z</time>
      </trkpt>
      <trkpt lat="47.41997" lon="6.63025">
        <ele>375</ele>
        <time>2016-07-24T08:49:17.000Z</time>
      </trkpt>
      <trkpt lat="47.41997" lon="6.63027">
        <ele>376</ele>
        <time>2016-07-24T08:49:18.000Z</time>
      </trkpt>
      <trkpt lat="47.41997" lon="6.63032">
        <ele>376</ele>
        <time>2016-07-24T08:49:20.000Z</time>
      </trkpt>
      <trkpt lat="47.41997" lon="6.63035">
        <ele>376</ele>
        <time>2016-07-24T08:49:21.000Z</time>
      </trkpt>
      <trkpt lat="47.41996" lon="6.63038">
        <ele>376</ele>
        <time>2016-07-24T08:49:25.000Z</time>
      </trkpt>
      <trkpt lat="47.41996" lon="6.63041">
        <ele>377</ele>
        <time>2016-07-24T08:49:26.000Z</time>
      </trkpt>
      <trkpt lat="47.41996" lon="6.63045">
        <ele>377</ele>
        <time>2016-07-24T08:49:27.000Z</time>
      </trkpt>
      <trkpt lat="47.41997" lon="6.63048">
        <ele>377</ele>
        <time>2016-07-24T08:49:28.000Z</time>
      </trkpt>
      <trkpt lat="47.41998" lon="6.63053">
        <ele>377</ele>
        <time>2016-07-24T08:49:30.000Z</time>
      </trkpt>
      <trkpt lat="47.41999" lon="6.63056">
        <ele>377</ele>
        <time>2016-07-24T08:49:31.000Z</time>
      </trkpt>
      <trkpt lat="47.42" lon="6.63061">
        <ele>377</ele>
        <time>2016-07-24T08:49:33.000Z</time>
      </trkpt>
      <trkpt lat="47.42" lon="6.63063">
        <ele>372</ele>
        <time>2016-07-24T08:49:34.000Z</time>
      </trkpt>
      <trkpt lat="47.42001" lon="6.63069">
        <ele>372</ele>
        <time>2016-07-24T08:49:37.000Z</time>
      </trkpt>
      <trkpt lat="47.42001" lon="6.63071">
        <ele>373</ele>
        <time>2016-07-24T08:49:38.000Z</time>
      </trkpt>
      <trkpt lat="47.42" lon="6.63076">
        <ele>373</ele>
        <time>2016-07-24T08:49:40.000Z</time>
      </trkpt>
      <trkpt lat="47.42" lon="6.63078">
        <ele>373</ele>
        <time>2016-07-24T08:49:41.000Z</time>
      </trkpt>
      <trkpt lat="47.41999" lon="6.63084">
        <ele>374</ele>
        <time>2016-07-24T08:49:46.000Z</time>
      </trkpt>
      <trkpt lat="47.41999" lon="6.63086">
        <ele>375</ele>
        <time>2016-07-24T08:49:47.000Z</time>
      </trkpt>
      <trkpt lat="47.41998" lon="6.6309">
        <ele>376</ele>
        <time>2016-07-24T08:49:49.000Z</time>
      </trkpt>
      <trkpt lat="47.41998" lon="6.63092">
        <ele>377</ele>
        <time>2016-07-24T08:49:50.000Z</time>
      </trkpt>
      <trkpt lat="47.41998" lon="6.63097">
        <ele>378</ele>
        <time>2016-07-24T08:49:52.000Z</time>
      </trkpt>
      <trkpt lat="47.41997" lon="6.631">
        <ele>378</ele>
        <time>2016-07-24T08:49:53.000Z</time>
      </trkpt>
      <trkpt lat="47.41996" lon="6.63104">
        <ele>379</ele>
        <time>2016-07-24T08:49:55.000Z</time>
      </trkpt>
      <trkpt lat="47.41994" lon="6.63106">
        <ele>379</ele>
        <time>2016-07-24T08:49:56.000Z</time>
      </trkpt>
      <trkpt lat="47.41991" lon="6.63107">
        <ele>380</ele>
        <time>2016-07-24T08:49:58.000Z</time>
      </trkpt>
      <trkpt lat="47.4199" lon="6.63107">
        <ele>380</ele>
        <time>2016-07-24T08:49:59.000Z</time>
      </trkpt>
      <trkpt lat="47.41988" lon="6.63111">
        <ele>380</ele>
        <time>2016-07-24T08:50:01.000Z</time>
      </trkpt>
      <trkpt lat="47.41987" lon="6.63113">
        <ele>381</ele>
        <time>2016-07-24T08:50:02.000Z</time>
      </trkpt>
      <trkpt lat="47.41986" lon="6.63119">
        <ele>381</ele>
        <time>2016-07-24T08:50:04.000Z</time>
      </trkpt>
      <trkpt lat="47.41986" lon="6.63121">
        <ele>381</ele>
        <time>2016-07-24T08:50:05.000Z</time>
      </trkpt>
      <trkpt lat="47.41986" lon="6.63127">
        <ele>381</ele>
        <time>2016-07-24T08:50:08.000Z</time>
      </trkpt>
      <trkpt lat="47.41985" lon="6.63129">
        <ele>382</ele>
        <time>2016-07-24T08:50:09.000Z</time>
      </trkpt>
      <trkpt lat="47.41985" lon="6.63134">
        <ele>382</ele>
        <time>2016-07-24T08:50:11.000Z</time>
      </trkpt>
      <trkpt lat="47.41985" lon="6.63138">
        <ele>382</ele>
        <time>2016-07-24T08:50:12.000Z</time>
      </trkpt>
      <trkpt lat="47.41985" lon="6.63141">
        <ele>382</ele>
        <time>2016-07-24T08:50:13.000Z</time>
      </trkpt>
      <trkpt lat="47.41985" lon="6.63145">
        <ele>382</ele>
        <time>2016-07-24T08:50:14.000Z</time>
      </trkpt>
      <trkpt lat="47.41986" lon="6.63149">
        <ele>382</ele>
        <time>2016-07-24T08:50:15.000Z</time>
      </trkpt>
      <trkpt lat="47.41986" lon="6.63153">
        <ele>382</ele>
        <time>2016-07-24T08:50:16.000Z</time>
      </trkpt>
      <trkpt lat="47.41986" lon="6.63156">
        <ele>382</ele>
        <time>2016-07-24T08:50:17.000Z</time>
      </trkpt>
      <trkpt lat="47.41986" lon="6.6316">
        <ele>382</ele>
        <time>2016-07-24T08:50:18.000Z</time>
      </trkpt>
      <trkpt lat="47.41987" lon="6.63164">
        <ele>382</ele>
        <time>2016-07-24T08:50:19.000Z</time>
      </trkpt>
      <trkpt lat="47.41987" lon="6.63168">
        <ele>383</ele>
        <time>2016-07-24T08:50:20.000Z</time>
      </trkpt>
      <trkpt lat="47.41988" lon="6.63174">
        <ele>383</ele>
        <time>2016-07-24T08:50:22.000Z</time>
      </trkpt>
      <trkpt lat="47.41988" lon="6.63177">
        <ele>383</ele>
        <time>2016-07-24T08:50:23.000Z</time>
      </trkpt>
      <trkpt lat="47.41987" lon="6.63183">
        <ele>384</ele>
        <time>2016-07-24T08:50:25.000Z</time>
      </trkpt>
      <trkpt lat="47.41987" lon="6.63187">
        <ele>384</ele>
        <time>2016-07-24T08:50:26.000Z</time>
      </trkpt>
      <trkpt lat="47.41987" lon="6.6319">
        <ele>384</ele>
        <time>2016-07-24T08:50:27.000Z</time>
      </trkpt>
      <trkpt lat="47.41987" lon="6.63194">
        <ele>385</ele>
        <time>2016-07-24T08:50:28.000Z</time>
      </trkpt>
      <trkpt lat="47.41987" lon="6.63197">
        <ele>385</ele>
        <time>2016-07-24T08:50:29.000Z</time>
      </trkpt>
      <trkpt lat="47.41987" lon="6.63201">
        <ele>385</ele>
        <time>2016-07-24T08:50:30.000Z</time>
      </trkpt>
      <trkpt lat="47.41988" lon="6.63206">
        <ele>385</ele>
        <time>2016-07-24T08:50:32.000Z</time>
      </trkpt>
      <trkpt lat="47.41988" lon="6.63209">
        <ele>386</ele>
        <time>2016-07-24T08:50:33.000Z</time>
      </trkpt>
      <trkpt lat="47.41988" lon="6.63214">
        <ele>386</ele>
        <time>2016-07-24T08:50:35.000Z</time>
      </trkpt>
      <trkpt lat="47.41988" lon="6.63217">
        <ele>386</ele>
        <time>2016-07-24T08:50:36.000Z</time>
      </trkpt>
      <trkpt lat="47.41988" lon="6.63221">
        <ele>386</ele>
        <time>2016-07-24T08:50:38.000Z</time>
      </trkpt>
      <trkpt lat="47.41988" lon="6.63224">
        <ele>386</ele>
        <time>2016-07-24T08:50:39.000Z</time>
      </trkpt>
      <trkpt lat="47.41988" lon="6.63228">
        <ele>387</ele>
        <time>2016-07-24T08:50:41.000Z</time>
      </trkpt>
      <trkpt lat="47.41988" lon="6.63231">
        <ele>387</ele>
        <time>2016-07-24T08:50:42.000Z</time>
      </trkpt>
      <trkpt lat="47.41989" lon="6.63237">
        <ele>387</ele>
        <time>2016-07-24T08:50:44.000Z</time>
      </trkpt>
      <trkpt lat="47.41989" lon="6.63239">
        <ele>387</ele>
        <time>2016-07-24T08:50:45.000Z</time>
      </trkpt>
      <trkpt lat="47.4199" lon="6.63244">
        <ele>388</ele>
        <time>2016-07-24T08:50:49.000Z</time>
      </trkpt>
      <trkpt lat="47.4199" lon="6.63246">
        <ele>388</ele>
        <time>2016-07-24T08:50:50.000Z</time>
      </trkpt>
      <trkpt lat="47.41991" lon="6.63251">
        <ele>389</ele>
        <time>2016-07-24T08:50:54.000Z</time>
      </trkpt>
      <trkpt lat="47.41992" lon="6.63252">
        <ele>389</ele>
        <time>2016-07-24T08:50:55.000Z</time>
      </trkpt>
      <trkpt lat="47.41992" lon="6.63258">
        <ele>390</ele>
        <time>2016-07-24T08:50:58.000Z</time>
      </trkpt>
      <trkpt lat="47.41992" lon="6.63261">
        <ele>390</ele>
        <time>2016-07-24T08:50:59.000Z</time>
      </trkpt>
      <trkpt lat="47.41993" lon="6.63266">
        <ele>390</ele>
        <time>2016-07-24T08:51:01.000Z</time>
      </trkpt>
      <trkpt lat="47.41994" lon="6.63269">
        <ele>390</ele>
        <time>2016-07-24T08:51:02.000Z</time>
      </trkpt>
      <trkpt lat="47.41997" lon="6.63273">
        <ele>390</ele>
        <time>2016-07-24T08:51:04.000Z</time>
      </trkpt>
      <trkpt lat="47.41998" lon="6.63275">
        <ele>390</ele>
        <time>2016-07-24T08:51:05.000Z</time>
      </trkpt>
      <trkpt lat="47.42001" lon="6.6328">
        <ele>391</ele>
        <time>2016-07-24T08:51:07.000Z</time>
      </trkpt>
      <trkpt lat="47.42003" lon="6.63282">
        <ele>391</ele>
        <time>2016-07-24T08:51:08.000Z</time>
      </trkpt>
      <trkpt lat="47.42004" lon="6.63285">
        <ele>392</ele>
        <time>2016-07-24T08:51:09.000Z</time>
      </trkpt>
      <trkpt lat="47.42006" lon="6.63287">
        <ele>392</ele>
        <time>2016-07-24T08:51:10.000Z</time>
      </trkpt>
      <trkpt lat="47.42008" lon="6.63292">
        <ele>392</ele>
        <time>2016-07-24T08:51:12.000Z</time>
      </trkpt>
      <trkpt lat="47.42009" lon="6.63295">
        <ele>392</ele>
        <time>2016-07-24T08:51:13.000Z</time>
      </trkpt>
      <trkpt lat="47.42011" lon="6.633">
        <ele>393</ele>
        <time>2016-07-24T08:51:15.000Z</time>
      </trkpt>
      <trkpt lat="47.42012" lon="6.63302">
        <ele>393</ele>
        <time>2016-07-24T08:51:16.000Z</time>
      </trkpt>
      <trkpt lat="47.42014" lon="6.63305">
        <ele>393</ele>
        <time>2016-07-24T08:51:18.000Z</time>
      </trkpt>
      <trkpt lat="47.42015" lon="6.63307">
        <ele>393</ele>
        <time>2016-07-24T08:51:19.000Z</time>
      </trkpt>
      <trkpt lat="47.42017" lon="6.63312">
        <ele>393</ele>
        <time>2016-07-24T08:51:21.000Z</time>
      </trkpt>
      <trkpt lat="47.42018" lon="6.63314">
        <ele>393</ele>
        <time>2016-07-24T08:51:22.000Z</time>
      </trkpt>
      <trkpt lat="47.4202" lon="6.63319">
        <ele>393</ele>
        <time>2016-07-24T08:51:24.000Z</time>
      </trkpt>
      <trkpt lat="47.4202" lon="6.63321">
        <ele>394</ele>
        <time>2016-07-24T08:51:25.000Z</time>
      </trkpt>
      <trkpt lat="47.4202" lon="6.63326">
        <ele>394</ele>
        <time>2016-07-24T08:51:27.000Z</time>
      </trkpt>
      <trkpt lat="47.42021" lon="6.63328">
        <ele>394</ele>
        <time>2016-07-24T08:51:28.000Z</time>
      </trkpt>
      <trkpt lat="47.42023" lon="6.63333">
        <ele>394</ele>
        <time>2016-07-24T08:51:30.000Z</time>
      </trkpt>
      <trkpt lat="47.42023" lon="6.63335">
        <ele>397</ele>
        <time>2016-07-24T08:51:31.000Z</time>
      </trkpt>
      <trkpt lat="47.42026" lon="6.6334">
        <ele>397</ele>
        <time>2016-07-24T08:51:33.000Z</time>
      </trkpt>
      <trkpt lat="47.42027" lon="6.63341">
        <ele>397</ele>
        <time>2016-07-24T08:51:34.000Z</time>
      </trkpt>
      <trkpt lat="47.42028" lon="6.63347">
        <ele>398</ele>
        <time>2016-07-24T08:51:37.000Z</time>
      </trkpt>
      <trkpt lat="47.42028" lon="6.63349">
        <ele>398</ele>
        <time>2016-07-24T08:51:38.000Z</time>
      </trkpt>
      <trkpt lat="47.42028" lon="6.63353">
        <ele>398</ele>
        <time>2016-07-24T08:51:40.000Z</time>
      </trkpt>
      <trkpt lat="47.42028" lon="6.63356">
        <ele>398</ele>
        <time>2016-07-24T08:51:41.000Z</time>
      </trkpt>
      <trkpt lat="47.42029" lon="6.63362">
        <ele>398</ele>
        <time>2016-07-24T08:51:45.000Z</time>
      </trkpt>
      <trkpt lat="47.42029" lon="6.63364">
        <ele>398</ele>
        <time>2016-07-24T08:51:46.000Z</time>
      </trkpt>
      <trkpt lat="47.42029" lon="6.6337">
        <ele>398</ele>
        <time>2016-07-24T08:51:48.000Z</time>
      </trkpt>
      <trkpt lat="47.42029" lon="6.63374">
        <ele>398</ele>
        <time>2016-07-24T08:51:49.000Z</time>
      </trkpt>
      <trkpt lat="47.42031" lon="6.63379">
        <ele>398</ele>
        <time>2016-07-24T08:51:51.000Z</time>
      </trkpt>
      <trkpt lat="47.42031" lon="6.63382">
        <ele>398</ele>
        <time>2016-07-24T08:51:52.000Z</time>
      </trkpt>
      <trkpt lat="47.42033" lon="6.63386">
        <ele>399</ele>
        <time>2016-07-24T08:51:54.000Z</time>
      </trkpt>
      <trkpt lat="47.42035" lon="6.63389">
        <ele>399</ele>
        <time>2016-07-24T08:51:55.000Z</time>
      </trkpt>
      <trkpt lat="47.42036" lon="6.63394">
        <ele>399</ele>
        <time>2016-07-24T08:51:57.000Z</time>
      </trkpt>
      <trkpt lat="47.42036" lon="6.63396">
        <ele>399</ele>
        <time>2016-07-24T08:51:58.000Z</time>
      </trkpt>
      <trkpt lat="47.42035" lon="6.63401">
        <ele>399</ele>
        <time>2016-07-24T08:52:00.000Z</time>
      </trkpt>
      <trkpt lat="47.42035" lon="6.63403">
        <ele>399</ele>
        <time>2016-07-24T08:52:01.000Z</time>
      </trkpt>
      <trkpt lat="47.42036" lon="6.63408">
        <ele>399</ele>
        <time>2016-07-24T08:52:03.000Z</time>
      </trkpt>
      <trkpt lat="47.42037" lon="6.6341">
        <ele>399</ele>
        <time>2016-07-24T08:52:04.000Z</time>
      </trkpt>
      <trkpt lat="47.42039" lon="6.63415">
        <ele>399</ele>
        <time>2016-07-24T08:52:06.000Z</time>
      </trkpt>
      <trkpt lat="47.42041" lon="6.63418">
        <ele>401</ele>
        <time>2016-07-24T08:52:07.000Z</time>
      </trkpt>
      <trkpt lat="47.42042" lon="6.63421">
        <ele>401</ele>
        <time>2016-07-24T08:52:08.000Z</time>
      </trkpt>
      <trkpt lat="47.42043" lon="6.63425">
        <ele>401</ele>
        <time>2016-07-24T08:52:09.000Z</time>
      </trkpt>
      <trkpt lat="47.42044" lon="6.63428">
        <ele>401</ele>
        <time>2016-07-24T08:52:10.000Z</time>
      </trkpt>
      <trkpt lat="47.42044" lon="6.63431">
        <ele>401</ele>
        <time>2016-07-24T08:52:11.000Z</time>
      </trkpt>
      <trkpt lat="47.42046" lon="6.63434">
        <ele>401</ele>
        <time>2016-07-24T08:52:12.000Z</time>
      </trkpt>
      <trkpt lat="47.42047" lon="6.63437">
        <ele>401</ele>
        <time>2016-07-24T08:52:13.000Z</time>
      </trkpt>
      <trkpt lat="47.42049" lon="6.63441">
        <ele>401</ele>
        <time>2016-07-24T08:52:14.000Z</time>
      </trkpt>
      <trkpt lat="47.4205" lon="6.63444">
        <ele>402</ele>
        <time>2016-07-24T08:52:15.000Z</time>
      </trkpt>
      <trkpt lat="47.42051" lon="6.63447">
        <ele>402</ele>
        <time>2016-07-24T08:52:16.000Z</time>
      </trkpt>
      <trkpt lat="47.42053" lon="6.6345">
        <ele>402</ele>
        <time>2016-07-24T08:52:17.000Z</time>
      </trkpt>
      <trkpt lat="47.42055" lon="6.63454">
        <ele>402</ele>
        <time>2016-07-24T08:52:18.000Z</time>
      </trkpt>
      <trkpt lat="47.42057" lon="6.63457">
        <ele>402</ele>
        <time>2016-07-24T08:52:19.000Z</time>
      </trkpt>
      <trkpt lat="47.42059" lon="6.63461">
        <ele>402</ele>
        <time>2016-07-24T08:52:20.000Z</time>
      </trkpt>
      <trkpt lat="47.4206" lon="6.63465">
        <ele>402</ele>
        <time>2016-07-24T08:52:21.000Z</time>
      </trkpt>
      <trkpt lat="47.42062" lon="6.63468">
        <ele>402</ele>
        <time>2016-07-24T08:52:22.000Z</time>
      </trkpt>
      <trkpt lat="47.42063" lon="6.63472">
        <ele>402</ele>
        <time>2016-07-24T08:52:23.000Z</time>
      </trkpt>
      <trkpt lat="47.42065" lon="6.63476">
        <ele>403</ele>
        <time>2016-07-24T08:52:24.000Z</time>
      </trkpt>
      <trkpt lat="47.42067" lon="6.63479">
        <ele>403</ele>
        <time>2016-07-24T08:52:25.000Z</time>
      </trkpt>
      <trkpt lat="47.42069" lon="6.63482">
        <ele>403</ele>
        <time>2016-07-24T08:52:26.000Z</time>
      </trkpt>
      <trkpt lat="47.42071" lon="6.63485">
        <ele>403</ele>
        <time>2016-07-24T08:52:27.000Z</time>
      </trkpt>
      <trkpt lat="47.42073" lon="6.63489">
        <ele>403</ele>
        <time>2016-07-24T08:52:28.000Z</time>
      </trkpt>
      <trkpt lat="47.42075" lon="6.63493">
        <ele>404</ele>
        <time>2016-07-24T08:52:29.000Z</time>
      </trkpt>
      <trkpt lat="47.42076" lon="6.63497">
        <ele>404</ele>
        <time>2016-07-24T08:52:30.000Z</time>
      </trkpt>
      <trkpt lat="47.42078" lon="6.63502">
        <ele>405</ele>
        <time>2016-07-24T08:52:31.000Z</time>
      </trkpt>
      <trkpt lat="47.42079" lon="6.63507">
        <ele>405</ele>
        <time>2016-07-24T08:52:32.000Z</time>
      </trkpt>
      <trkpt lat="47.42081" lon="6.63512">
        <ele>405</ele>
        <time>2016-07-24T08:52:33.000Z</time>
      </trkpt>
      <trkpt lat="47.42082" lon="6.63516">
        <ele>405</ele>
        <time>2016-07-24T08:52:34.000Z</time>
      </trkpt>
      <trkpt lat="47.42083" lon="6.63521">
        <ele>405</ele>
        <time>2016-07-24T08:52:35.000Z</time>
      </trkpt>
      <trkpt lat="47.42084" lon="6.63526">
        <ele>402</ele>
        <time>2016-07-24T08:52:36.000Z</time>
      </trkpt>
      <trkpt lat="47.42085" lon="6.63531">
        <ele>402</ele>
        <time>2016-07-24T08:52:37.000Z</time>
      </trkpt>
      <trkpt lat="47.42086" lon="6.63535">
        <ele>402</ele>
        <time>2016-07-24T08:52:38.000Z</time>
      </trkpt>
      <trkpt lat="47.42087" lon="6.63539">
        <ele>402</ele>
        <time>2016-07-24T08:52:39.000Z</time>
      </trkpt>
      <trkpt lat="47.42088" lon="6.63542">
        <ele>402</ele>
        <time>2016-07-24T08:52:40.000Z</time>
      </trkpt>
      <trkpt lat="47.42089" lon="6.63545">
        <ele>403</ele>
        <time>2016-07-24T08:52:41.000Z</time>
      </trkpt>
      <trkpt lat="47.4209" lon="6.63548">
        <ele>403</ele>
        <time>2016-07-24T08:52:42.000Z</time>
      </trkpt>
      <trkpt lat="47.42091" lon="6.63551">
        <ele>403</ele>
        <time>2016-07-24T08:52:43.000Z</time>
      </trkpt>
      <trkpt lat="47.42092" lon="6.63554">
        <ele>403</ele>
        <time>2016-07-24T08:52:44.000Z</time>
      </trkpt>
      <trkpt lat="47.42093" lon="6.63558">
        <ele>403</ele>
        <time>2016-07-24T08:52:45.000Z</time>
      </trkpt>
      <trkpt lat="47.42094" lon="6.63564">
        <ele>404</ele>
        <time>2016-07-24T08:52:47.000Z</time>
      </trkpt>
      <trkpt lat="47.42094" lon="6.63567">
        <ele>404</ele>
        <time>2016-07-24T08:52:48.000Z</time>
      </trkpt>
      <trkpt lat="47.42094" lon="6.6357">
        <ele>405</ele>
        <time>2016-07-24T08:52:49.000Z</time>
      </trkpt>
      <trkpt lat="47.42094" lon="6.63574">
        <ele>405</ele>
        <time>2016-07-24T08:52:50.000Z</time>
      </trkpt>
      <trkpt lat="47.42095" lon="6.63578">
        <ele>406</ele>
        <time>2016-07-24T08:52:51.000Z</time>
      </trkpt>
      <trkpt lat="47.42095" lon="6.63582">
        <ele>406</ele>
        <time>2016-07-24T08:52:52.000Z</time>
      </trkpt>
      <trkpt lat="47.42095" lon="6.63586">
        <ele>408</ele>
        <time>2016-07-24T08:52:53.000Z</time>
      </trkpt>
      <trkpt lat="47.42095" lon="6.6359">
        <ele>408</ele>
        <time>2016-07-24T08:52:54.000Z</time>
      </trkpt>
      <trkpt lat="47.42095" lon="6.63594">
        <ele>407</ele>
        <time>2016-07-24T08:52:55.000Z</time>
      </trkpt>
      <trkpt lat="47.42094" lon="6.63597">
        <ele>407</ele>
        <time>2016-07-24T08:52:56.000Z</time>
      </trkpt>
      <trkpt lat="47.42094" lon="6.636">
        <ele>407</ele>
        <time>2016-07-24T08:52:57.000Z</time>
      </trkpt>
      <trkpt lat="47.42094" lon="6.63604">
        <ele>407</ele>
        <time>2016-07-24T08:52:58.000Z</time>
      </trkpt>
      <trkpt lat="47.42095" lon="6.63608">
        <ele>407</ele>
        <time>2016-07-24T08:52:59.000Z</time>
      </trkpt>
      <trkpt lat="47.42095" lon="6.63611">
        <ele>406</ele>
        <time>2016-07-24T08:53:00.000Z</time>
      </trkpt>
      <trkpt lat="47.42096" lon="6.63615">
        <ele>406</ele>
        <time>2016-07-24T08:53:01.000Z</time>
      </trkpt>
      <trkpt lat="47.42096" lon="6.63619">
        <ele>406</ele>
        <time>2016-07-24T08:53:02.000Z</time>
      </trkpt>
      <trkpt lat="47.42096" lon="6.63623">
        <ele>406</ele>
        <time>2016-07-24T08:53:03.000Z</time>
      </trkpt>
      <trkpt lat="47.42097" lon="6.63626">
        <ele>406</ele>
        <time>2016-07-24T08:53:04.000Z</time>
      </trkpt>
      <trkpt lat="47.42097" lon="6.6363">
        <ele>406</ele>
        <time>2016-07-24T08:53:05.000Z</time>
      </trkpt>
      <trkpt lat="47.42098" lon="6.63634">
        <ele>406</ele>
        <time>2016-07-24T08:53:06.000Z</time>
      </trkpt>
      <trkpt lat="47.421" lon="6.63638">
        <ele>406</ele>
        <time>2016-07-24T08:53:07.000Z</time>
      </trkpt>
      <trkpt lat="47.42101" lon="6.63643">
        <ele>406</ele>
        <time>2016-07-24T08:53:08.000Z</time>
      </trkpt>
      <trkpt lat="47.42102" lon="6.63647">
        <ele>406</ele>
        <time>2016-07-24T08:53:09.000Z</time>
      </trkpt>
      <trkpt lat="47.42104" lon="6.63653">
        <ele>407</ele>
        <time>2016-07-24T08:53:10.000Z</time>
      </trkpt>
      <trkpt lat="47.42105" lon="6.63658">
        <ele>407</ele>
        <time>2016-07-24T08:53:11.000Z</time>
      </trkpt>
      <trkpt lat="47.42107" lon="6.63663">
        <ele>407</ele>
        <time>2016-07-24T08:53:12.000Z</time>
      </trkpt>
      <trkpt lat="47.42108" lon="6.63668">
        <ele>408</ele>
        <time>2016-07-24T08:53:13.000Z</time>
      </trkpt>
      <trkpt lat="47.4211" lon="6.63674">
        <ele>407</ele>
        <time>2016-07-24T08:53:14.000Z</time>
      </trkpt>
      <trkpt lat="47.42112" lon="6.63679">
        <ele>407</ele>
        <time>2016-07-24T08:53:15.000Z</time>
      </trkpt>
      <trkpt lat="47.42113" lon="6.63684">
        <ele>407</ele>
        <time>2016-07-24T08:53:16.000Z</time>
      </trkpt>
      <trkpt lat="47.42116" lon="6.6369">
        <ele>407</ele>
        <time>2016-07-24T08:53:17.000Z</time>
      </trkpt>
      <trkpt lat="47.42119" lon="6.63695">
        <ele>407</ele>
        <time>2016-07-24T08:53:18.000Z</time>
      </trkpt>
      <trkpt lat="47.42122" lon="6.637">
        <ele>407</ele>
        <time>2016-07-24T08:53:19.000Z</time>
      </trkpt>
      <trkpt lat="47.42125" lon="6.63705">
        <ele>407</ele>
        <time>2016-07-24T08:53:20.000Z</time>
      </trkpt>
      <trkpt lat="47.42129" lon="6.63711">
        <ele>407</ele>
        <time>2016-07-24T08:53:21.000Z</time>
      </trkpt>
      <trkpt lat="47.42132" lon="6.63716">
        <ele>407</ele>
        <time>2016-07-24T08:53:22.000Z</time>
      </trkpt>
      <trkpt lat="47.42134" lon="6.63722">
        <ele>407</ele>
        <time>2016-07-24T08:53:23.000Z</time>
      </trkpt>
      <trkpt lat="47.42137" lon="6.63727">
        <ele>407</ele>
        <time>2016-07-24T08:53:24.000Z</time>
      </trkpt>
      <trkpt lat="47.42139" lon="6.63732">
        <ele>407</ele>
        <time>2016-07-24T08:53:25.000Z</time>
      </trkpt>
      <trkpt lat="47.42141" lon="6.63737">
        <ele>408</ele>
        <time>2016-07-24T08:53:26.000Z</time>
      </trkpt>
      <trkpt lat="47.42143" lon="6.63742">
        <ele>408</ele>
        <time>2016-07-24T08:53:27.000Z</time>
      </trkpt>
      <trkpt lat="47.42145" lon="6.63747">
        <ele>408</ele>
        <time>2016-07-24T08:53:28.000Z</time>
      </trkpt>
      <trkpt lat="47.42147" lon="6.63753">
        <ele>408</ele>
        <time>2016-07-24T08:53:29.000Z</time>
      </trkpt>
      <trkpt lat="47.42149" lon="6.6376">
        <ele>408</ele>
        <time>2016-07-24T08:53:30.000Z</time>
      </trkpt>
      <trkpt lat="47.42152" lon="6.63767">
        <ele>408</ele>
        <time>2016-07-24T08:53:31.000Z</time>
      </trkpt>
      <trkpt lat="47.42157" lon="6.63775">
        <ele>408</ele>
        <time>2016-07-24T08:53:32.000Z</time>
      </trkpt>
      <trkpt lat="47.42161" lon="6.63784">
        <ele>408</ele>
        <time>2016-07-24T08:53:33.000Z</time>
      </trkpt>
      <trkpt lat="47.42165" lon="6.63791">
        <ele>408</ele>
        <time>2016-07-24T08:53:34.000Z</time>
      </trkpt>
      <trkpt lat="47.42169" lon="6.63797">
        <ele>401</ele>
        <time>2016-07-24T08:53:35.000Z</time>
      </trkpt>
      <trkpt lat="47.42173" lon="6.63802">
        <ele>401</ele>
        <time>2016-07-24T08:53:36.000Z</time>
      </trkpt>
      <trkpt lat="47.42176" lon="6.63806">
        <ele>401</ele>
        <time>2016-07-24T08:53:37.000Z</time>
      </trkpt>
      <trkpt lat="47.42178" lon="6.6381">
        <ele>401</ele>
        <time>2016-07-24T08:53:38.000Z</time>
      </trkpt>
      <trkpt lat="47.4218" lon="6.63814">
        <ele>401</ele>
        <time>2016-07-24T08:53:39.000Z</time>
      </trkpt>
      <trkpt lat="47.42182" lon="6.63818">
        <ele>401</ele>
        <time>2016-07-24T08:53:40.000Z</time>
      </trkpt>
      <trkpt lat="47.42185" lon="6.63821">
        <ele>401</ele>
        <time>2016-07-24T08:53:41.000Z</time>
      </trkpt>
      <trkpt lat="47.42188" lon="6.63825">
        <ele>401</ele>
        <time>2016-07-24T08:53:42.000Z</time>
      </trkpt>
      <trkpt lat="47.42191" lon="6.6383">
        <ele>400</ele>
        <time>2016-07-24T08:53:43.000Z</time>
      </trkpt>
      <trkpt lat="47.42194" lon="6.63835">
        <ele>401</ele>
        <time>2016-07-24T08:53:44.000Z</time>
      </trkpt>
      <trkpt lat="47.42196" lon="6.63841">
        <ele>401</ele>
        <time>2016-07-24T08:53:45.000Z</time>
      </trkpt>
      <trkpt lat="47.42197" lon="6.63846">
        <ele>401</ele>
        <time>2016-07-24T08:53:46.000Z</time>
      </trkpt>
      <trkpt lat="47.42197" lon="6.6385">
        <ele>401</ele>
        <time>2016-07-24T08:53:47.000Z</time>
      </trkpt>
      <trkpt lat="47.42197" lon="6.63854">
        <ele>401</ele>
        <time>2016-07-24T08:53:48.000Z</time>
      </trkpt>
      <trkpt lat="47.42197" lon="6.63859">
        <ele>400</ele>
        <time>2016-07-24T08:53:49.000Z</time>
      </trkpt>
      <trkpt lat="47.42198" lon="6.63864">
        <ele>400</ele>
        <time>2016-07-24T08:53:50.000Z</time>
      </trkpt>
      <trkpt lat="47.42199" lon="6.63869">
        <ele>400</ele>
        <time>2016-07-24T08:53:51.000Z</time>
      </trkpt>
      <trkpt lat="47.42199" lon="6.63873">
        <ele>400</ele>
        <time>2016-07-24T08:53:52.000Z</time>
      </trkpt>
      <trkpt lat="47.42201" lon="6.63876">
        <ele>400</ele>
        <time>2016-07-24T08:53:53.000Z</time>
      </trkpt>
      <trkpt lat="47.42202" lon="6.6388">
        <ele>400</ele>
        <time>2016-07-24T08:53:54.000Z</time>
      </trkpt>
      <trkpt lat="47.42205" lon="6.63885">
        <ele>400</ele>
        <time>2016-07-24T08:53:56.000Z</time>
      </trkpt>
      <trkpt lat="47.42206" lon="6.63887">
        <ele>400</ele>
        <time>2016-07-24T08:53:57.000Z</time>
      </trkpt>
      <trkpt lat="47.42206" lon="6.63888">
        <ele>400</ele>
        <time>2016-07-24T08:53:57.999Z</time>
      </trkpt>
      <trkpt lat="47.42209" lon="6.63891">
        <ele>400</ele>
        <time>2016-07-24T08:53:59.000Z</time>
      </trkpt>
      <trkpt lat="47.42211" lon="6.63894">
        <ele>400</ele>
        <time>2016-07-24T08:54:00.000Z</time>
      </trkpt>
      <trkpt lat="47.42213" lon="6.63897">
        <ele>400</ele>
        <time>2016-07-24T08:54:01.000Z</time>
      </trkpt>
      <trkpt lat="47.42214" lon="6.63899">
        <ele>400</ele>
        <time>2016-07-24T08:54:02.000Z</time>
      </trkpt>
      <trkpt lat="47.42216" lon="6.63902">
        <ele>400</ele>
        <time>2016-07-24T08:54:03.000Z</time>
      </trkpt>
      <trkpt lat="47.42217" lon="6.63905">
        <ele>400</ele>
        <time>2016-07-24T08:54:04.000Z</time>
      </trkpt>
      <trkpt lat="47.42218" lon="6.63909">
        <ele>400</ele>
        <time>2016-07-24T08:54:05.000Z</time>
      </trkpt>
      <trkpt lat="47.4222" lon="6.63912">
        <ele>400</ele>
        <time>2016-07-24T08:54:06.000Z</time>
      </trkpt>
      <trkpt lat="47.42222" lon="6.63916">
        <ele>400</ele>
        <time>2016-07-24T08:54:07.000Z</time>
      </trkpt>
      <trkpt lat="47.42223" lon="6.63919">
        <ele>401</ele>
        <time>2016-07-24T08:54:08.000Z</time>
      </trkpt>
      <trkpt lat="47.42225" lon="6.63923">
        <ele>401</ele>
        <time>2016-07-24T08:54:09.000Z</time>
      </trkpt>
      <trkpt lat="47.42226" lon="6.63926">
        <ele>401</ele>
        <time>2016-07-24T08:54:10.000Z</time>
      </trkpt>
      <trkpt lat="47.42227" lon="6.63929">
        <ele>401</ele>
        <time>2016-07-24T08:54:11.000Z</time>
      </trkpt>
      <trkpt lat="47.42229" lon="6.63934">
        <ele>401</ele>
        <time>2016-07-24T08:54:14.000Z</time>
      </trkpt>
      <trkpt lat="47.4223" lon="6.63936">
        <ele>401</ele>
        <time>2016-07-24T08:54:15.000Z</time>
      </trkpt>
      <trkpt lat="47.42232" lon="6.63938">
        <ele>401</ele>
        <time>2016-07-24T08:54:16.000Z</time>
      </trkpt>
      <trkpt lat="47.42234" lon="6.63941">
        <ele>401</ele>
        <time>2016-07-24T08:54:17.000Z</time>
      </trkpt>
      <trkpt lat="47.42236" lon="6.63944">
        <ele>401</ele>
        <time>2016-07-24T08:54:18.000Z</time>
      </trkpt>
      <trkpt lat="47.42238" lon="6.63947">
        <ele>401</ele>
        <time>2016-07-24T08:54:19.000Z</time>
      </trkpt>
      <trkpt lat="47.4224" lon="6.63949">
        <ele>401</ele>
        <time>2016-07-24T08:54:20.000Z</time>
      </trkpt>
      <trkpt lat="47.42241" lon="6.63951">
        <ele>401</ele>
        <time>2016-07-24T08:54:21.000Z</time>
      </trkpt>
      <trkpt lat="47.42245" lon="6.63954">
        <ele>401</ele>
        <time>2016-07-24T08:54:23.000Z</time>
      </trkpt>
      <trkpt lat="47.42247" lon="6.63955">
        <ele>401</ele>
        <time>2016-07-24T08:54:24.000Z</time>
      </trkpt>
      <trkpt lat="47.42249" lon="6.6396">
        <ele>401</ele>
        <time>2016-07-24T08:54:27.000Z</time>
      </trkpt>
      <trkpt lat="47.4225" lon="6.63962">
        <ele>401</ele>
        <time>2016-07-24T08:54:28.000Z</time>
      </trkpt>
      <trkpt lat="47.42251" lon="6.63966">
        <ele>398</ele>
        <time>2016-07-24T08:54:30.000Z</time>
      </trkpt>
      <trkpt lat="47.42253" lon="6.63968">
        <ele>398</ele>
        <time>2016-07-24T08:54:31.000Z</time>
      </trkpt>
      <trkpt lat="47.42255" lon="6.63973">
        <ele>398</ele>
        <time>2016-07-24T08:54:33.000Z</time>
      </trkpt>
      <trkpt lat="47.42257" lon="6.63975">
        <ele>398</ele>
        <time>2016-07-24T08:54:34.000Z</time>
      </trkpt>
      <trkpt lat="47.4226" lon="6.63979">
        <ele>398</ele>
        <time>2016-07-24T08:54:36.000Z</time>
      </trkpt>
      <trkpt lat="47.42261" lon="6.63981">
        <ele>399</ele>
        <time>2016-07-24T08:54:37.000Z</time>
      </trkpt>
      <trkpt lat="47.42264" lon="6.63985">
        <ele>399</ele>
        <time>2016-07-24T08:54:39.000Z</time>
      </trkpt>
      <trkpt lat="47.42265" lon="6.63987">
        <ele>399</ele>
        <time>2016-07-24T08:54:40.000Z</time>
      </trkpt>
      <trkpt lat="47.42268" lon="6.63992">
        <ele>399</ele>
        <time>2016-07-24T08:54:42.000Z</time>
      </trkpt>
      <trkpt lat="47.42268" lon="6.63993">
        <ele>399</ele>
        <time>2016-07-24T08:54:43.000Z</time>
      </trkpt>
      <trkpt lat="47.4227" lon="6.63999">
        <ele>399</ele>
        <time>2016-07-24T08:54:46.000Z</time>
      </trkpt>
      <trkpt lat="47.4227" lon="6.64">
        <ele>399</ele>
        <time>2016-07-24T08:54:47.000Z</time>
      </trkpt>
      <trkpt lat="47.42272" lon="6.64006">
        <ele>401</ele>
        <time>2016-07-24T08:56:54.999Z</time>
      </trkpt>
      <trkpt lat="47.42272" lon="6.64006">
        <ele>401</ele>
        <time>2016-07-24T08:56:56.000Z</time>
      </trkpt>
      <trkpt lat="47.42276" lon="6.64007">
        <ele>401</ele>
        <time>2016-07-24T08:57:11.000Z</time>
      </trkpt>
      <trkpt lat="47.42277" lon="6.64007">
        <ele>401</ele>
        <time>2016-07-24T08:57:12.000Z</time>
      </trkpt>
      <trkpt lat="47.42281" lon="6.64009">
        <ele>401</ele>
        <time>2016-07-24T08:57:14.000Z</time>
      </trkpt>
      <trkpt lat="47.42283" lon="6.64011">
        <ele>401</ele>
        <time>2016-07-24T08:57:15.000Z</time>
      </trkpt>
      <trkpt lat="47.42286" lon="6.64015">
        <ele>401</ele>
        <time>2016-07-24T08:57:17.000Z</time>
      </trkpt>
      <trkpt lat="47.42287" lon="6.64017">
        <ele>401</ele>
        <time>2016-07-24T08:57:18.000Z</time>
      </trkpt>
      <trkpt lat="47.4229" lon="6.64021">
        <ele>401</ele>
        <time>2016-07-24T08:57:20.000Z</time>
      </trkpt>
      <trkpt lat="47.42292" lon="6.64023">
        <ele>401</ele>
        <time>2016-07-24T08:57:21.000Z</time>
      </trkpt>
      <trkpt lat="47.42295" lon="6.64027">
        <ele>401</ele>
        <time>2016-07-24T08:57:23.000Z</time>
      </trkpt>
      <trkpt lat="47.42296" lon="6.64028">
        <ele>401</ele>
        <time>2016-07-24T08:57:24.000Z</time>
      </trkpt>
      <trkpt lat="47.42299" lon="6.64031">
        <ele>401</ele>
        <time>2016-07-24T08:57:27.000Z</time>
      </trkpt>
      <trkpt lat="47.423" lon="6.64033">
        <ele>401</ele>
        <time>2016-07-24T08:57:28.000Z</time>
      </trkpt>
      <trkpt lat="47.42301" lon="6.64036">
        <ele>401</ele>
        <time>2016-07-24T08:57:30.000Z</time>
      </trkpt>
      <trkpt lat="47.42302" lon="6.64038">
        <ele>401</ele>
        <time>2016-07-24T08:57:31.000Z</time>
      </trkpt>
      <trkpt lat="47.42305" lon="6.64042">
        <ele>401</ele>
        <time>2016-07-24T08:57:33.000Z</time>
      </trkpt>
      <trkpt lat="47.42307" lon="6.64043">
        <ele>401</ele>
        <time>2016-07-24T08:57:34.000Z</time>
      </trkpt>
      <trkpt lat="47.4231" lon="6.64048">
        <ele>402</ele>
        <time>2016-07-24T08:57:36.000Z</time>
      </trkpt>
      <trkpt lat="47.42311" lon="6.6405">
        <ele>402</ele>
        <time>2016-07-24T08:57:37.000Z</time>
      </trkpt>
      <trkpt lat="47.42313" lon="6.64053">
        <ele>402</ele>
        <time>2016-07-24T08:57:39.000Z</time>
      </trkpt>
      <trkpt lat="47.42314" lon="6.64055">
        <ele>402</ele>
        <time>2016-07-24T08:57:40.000Z</time>
      </trkpt>
      <trkpt lat="47.42316" lon="6.64059">
        <ele>402</ele>
        <time>2016-07-24T08:57:42.000Z</time>
      </trkpt>
      <trkpt lat="47.42317" lon="6.64061">
        <ele>403</ele>
        <time>2016-07-24T08:57:43.000Z</time>
      </trkpt>
      <trkpt lat="47.42319" lon="6.64065">
        <ele>403</ele>
        <time>2016-07-24T08:57:45.000Z</time>
      </trkpt>
      <trkpt lat="47.42321" lon="6.64066">
        <ele>403</ele>
        <time>2016-07-24T08:57:46.000Z</time>
      </trkpt>
      <trkpt lat="47.42323" lon="6.64068">
        <ele>404</ele>
        <time>2016-07-24T08:57:48.000Z</time>
      </trkpt>
      <trkpt lat="47.42325" lon="6.64069">
        <ele>404</ele>
        <time>2016-07-24T08:57:49.000Z</time>
      </trkpt>
      <trkpt lat="47.42328" lon="6.64073">
        <ele>405</ele>
        <time>2016-07-24T08:57:51.000Z</time>
      </trkpt>
      <trkpt lat="47.4233" lon="6.64076">
        <ele>405</ele>
        <time>2016-07-24T08:57:52.000Z</time>
      </trkpt>
      <trkpt lat="47.42331" lon="6.64079">
        <ele>406</ele>
        <time>2016-07-24T08:57:53.000Z</time>
      </trkpt>
      <trkpt lat="47.42332" lon="6.64082">
        <ele>407</ele>
        <time>2016-07-24T08:57:54.000Z</time>
      </trkpt>
      <trkpt lat="47.42335" lon="6.64087">
        <ele>407</ele>
        <time>2016-07-24T08:57:56.000Z</time>
      </trkpt>
      <trkpt lat="47.42336" lon="6.64088">
        <ele>407</ele>
        <time>2016-07-24T08:57:57.000Z</time>
      </trkpt>
      <trkpt lat="47.42338" lon="6.64091">
        <ele>406</ele>
        <time>2016-07-24T08:57:59.000Z</time>
      </trkpt>
      <trkpt lat="47.42339" lon="6.64093">
        <ele>406</ele>
        <time>2016-07-24T08:58:00.000Z</time>
      </trkpt>
      <trkpt lat="47.42342" lon="6.64097">
        <ele>406</ele>
        <time>2016-07-24T08:58:02.000Z</time>
      </trkpt>
      <trkpt lat="47.42343" lon="6.641">
        <ele>406</ele>
        <time>2016-07-24T08:58:03.000Z</time>
      </trkpt>
      <trkpt lat="47.42344" lon="6.64103">
        <ele>405</ele>
        <time>2016-07-24T08:58:04.000Z</time>
      </trkpt>
      <trkpt lat="47.42346" lon="6.64105">
        <ele>405</ele>
        <time>2016-07-24T08:58:05.000Z</time>
      </trkpt>
      <trkpt lat="47.42347" lon="6.64108">
        <ele>405</ele>
        <time>2016-07-24T08:58:06.000Z</time>
      </trkpt>
      <trkpt lat="47.42349" lon="6.64111">
        <ele>405</ele>
        <time>2016-07-24T08:58:07.000Z</time>
      </trkpt>
      <trkpt lat="47.42351" lon="6.64113">
        <ele>405</ele>
        <time>2016-07-24T08:58:08.000Z</time>
      </trkpt>
      <trkpt lat="47.42352" lon="6.64115">
        <ele>405</ele>
        <time>2016-07-24T08:58:09.000Z</time>
      </trkpt>
      <trkpt lat="47.42354" lon="6.64118">
        <ele>405</ele>
        <time>2016-07-24T08:58:10.000Z</time>
      </trkpt>
      <trkpt lat="47.42356" lon="6.6412">
        <ele>405</ele>
        <time>2016-07-24T08:58:11.000Z</time>
      </trkpt>
      <trkpt lat="47.42357" lon="6.64123">
        <ele>405</ele>
        <time>2016-07-24T08:58:12.000Z</time>
      </trkpt>
      <trkpt lat="47.42359" lon="6.64126">
        <ele>405</ele>
        <time>2016-07-24T08:58:13.000Z</time>
      </trkpt>
      <trkpt lat="47.4236" lon="6.64129">
        <ele>405</ele>
        <time>2016-07-24T08:58:14.000Z</time>
      </trkpt>
      <trkpt lat="47.42362" lon="6.64132">
        <ele>405</ele>
        <time>2016-07-24T08:58:15.000Z</time>
      </trkpt>
      <trkpt lat="47.42363" lon="6.64135">
        <ele>405</ele>
        <time>2016-07-24T08:58:16.000Z</time>
      </trkpt>
      <trkpt lat="47.42365" lon="6.64138">
        <ele>405</ele>
        <time>2016-07-24T08:58:17.000Z</time>
      </trkpt>
      <trkpt lat="47.42366" lon="6.64141">
        <ele>405</ele>
        <time>2016-07-24T08:58:18.000Z</time>
      </trkpt>
      <trkpt lat="47.42368" lon="6.64143">
        <ele>405</ele>
        <time>2016-07-24T08:58:19.000Z</time>
      </trkpt>
      <trkpt lat="47.42371" lon="6.64146">
        <ele>405</ele>
        <time>2016-07-24T08:58:20.000Z</time>
      </trkpt>
      <trkpt lat="47.42373" lon="6.64148">
        <ele>405</ele>
        <time>2016-07-24T08:58:21.000Z</time>
      </trkpt>
      <trkpt lat="47.42376" lon="6.64151">
        <ele>406</ele>
        <time>2016-07-24T08:58:22.000Z</time>
      </trkpt>
      <trkpt lat="47.4238" lon="6.64155">
        <ele>406</ele>
        <time>2016-07-24T08:58:23.000Z</time>
      </trkpt>
      <trkpt lat="47.42384" lon="6.64158">
        <ele>406</ele>
        <time>2016-07-24T08:58:24.000Z</time>
      </trkpt>
      <trkpt lat="47.42388" lon="6.64162">
        <ele>407</ele>
        <time>2016-07-24T08:58:25.000Z</time>
      </trkpt>
      <trkpt lat="47.42391" lon="6.64165">
        <ele>407</ele>
        <time>2016-07-24T08:58:26.000Z</time>
      </trkpt>
      <trkpt lat="47.42393" lon="6.64167">
        <ele>408</ele>
        <time>2016-07-24T08:58:26.999Z</time>
      </trkpt>
      <trkpt lat="47.42397" lon="6.64171">
        <ele>406</ele>
        <time>2016-07-24T08:58:28.000Z</time>
      </trkpt>
      <trkpt lat="47.424" lon="6.64175">
        <ele>407</ele>
        <time>2016-07-24T08:58:29.000Z</time>
      </trkpt>
      <trkpt lat="47.42404" lon="6.64178">
        <ele>407</ele>
        <time>2016-07-24T08:58:30.000Z</time>
      </trkpt>
      <trkpt lat="47.42407" lon="6.64181">
        <ele>407</ele>
        <time>2016-07-24T08:58:31.000Z</time>
      </trkpt>
      <trkpt lat="47.42411" lon="6.64184">
        <ele>407</ele>
        <time>2016-07-24T08:58:32.000Z</time>
      </trkpt>
      <trkpt lat="47.42415" lon="6.64188">
        <ele>407</ele>
        <time>2016-07-24T08:58:33.000Z</time>
      </trkpt>
      <trkpt lat="47.42435" lon="6.64198">
        <ele>411</ele>
        <time>2016-07-24T08:58:34.000Z</time>
      </trkpt>
      <trkpt lat="47.42443" lon="6.64202">
        <ele>411</ele>
        <time>2016-07-24T08:58:35.000Z</time>
      </trkpt>
      <trkpt lat="47.42449" lon="6.64213">
        <ele>411</ele>
        <time>2016-07-24T08:58:36.000Z</time>
      </trkpt>
      <trkpt lat="47.42456" lon="6.64215">
        <ele>411</ele>
        <time>2016-07-24T08:58:37.000Z</time>
      </trkpt>
      <trkpt lat="47.42463" lon="6.6422">
        <ele>411</ele>
        <time>2016-07-24T08:58:38.000Z</time>
      </trkpt>
      <trkpt lat="47.42468" lon="6.64223">
        <ele>412</ele>
        <time>2016-07-24T08:58:39.000Z</time>
      </trkpt>
      <trkpt lat="47.42472" lon="6.64228">
        <ele>412</ele>
        <time>2016-07-24T08:58:40.000Z</time>
      </trkpt>
      <trkpt lat="47.42475" lon="6.64232">
        <ele>412</ele>
        <time>2016-07-24T08:58:41.000Z</time>
      </trkpt>
      <trkpt lat="47.42478" lon="6.64237">
        <ele>413</ele>
        <time>2016-07-24T08:58:42.000Z</time>
      </trkpt>
      <trkpt lat="47.42481" lon="6.64242">
        <ele>413</ele>
        <time>2016-07-24T08:58:43.000Z</time>
      </trkpt>
      <trkpt lat="47.42485" lon="6.64245">
        <ele>414</ele>
        <time>2016-07-24T08:58:44.000Z</time>
      </trkpt>
      <trkpt lat="47.42489" lon="6.6425">
        <ele>415</ele>
        <time>2016-07-24T08:58:45.000Z</time>
      </trkpt>
      <trkpt lat="47.42492" lon="6.64255">
        <ele>414</ele>
        <time>2016-07-24T08:58:46.000Z</time>
      </trkpt>
      <trkpt lat="47.42494" lon="6.64259">
        <ele>414</ele>
        <time>2016-07-24T08:58:47.000Z</time>
      </trkpt>
      <trkpt lat="47.42497" lon="6.64264">
        <ele>413</ele>
        <time>2016-07-24T08:58:48.000Z</time>
      </trkpt>
      <trkpt lat="47.42499" lon="6.64268">
        <ele>413</ele>
        <time>2016-07-24T08:58:49.000Z</time>
      </trkpt>
      <trkpt lat="47.42502" lon="6.64271">
        <ele>414</ele>
        <time>2016-07-24T08:58:50.000Z</time>
      </trkpt>
      <trkpt lat="47.42504" lon="6.64275">
        <ele>414</ele>
        <time>2016-07-24T08:58:51.000Z</time>
      </trkpt>
      <trkpt lat="47.42507" lon="6.64278">
        <ele>413</ele>
        <time>2016-07-24T08:58:52.000Z</time>
      </trkpt>
      <trkpt lat="47.42509" lon="6.64281">
        <ele>413</ele>
        <time>2016-07-24T08:58:53.000Z</time>
      </trkpt>
      <trkpt lat="47.42512" lon="6.64284">
        <ele>413</ele>
        <time>2016-07-24T08:58:54.000Z</time>
      </trkpt>
      <trkpt lat="47.42515" lon="6.64287">
        <ele>413</ele>
        <time>2016-07-24T08:58:55.000Z</time>
      </trkpt>
      <trkpt lat="47.42517" lon="6.6429">
        <ele>413</ele>
        <time>2016-07-24T08:58:56.000Z</time>
      </trkpt>
      <trkpt lat="47.42521" lon="6.64294">
        <ele>413</ele>
        <time>2016-07-24T08:58:57.000Z</time>
      </trkpt>
      <trkpt lat="47.42526" lon="6.643">
        <ele>412</ele>
        <time>2016-07-24T08:58:58.000Z</time>
      </trkpt>
      <trkpt lat="47.4253" lon="6.64305">
        <ele>412</ele>
        <time>2016-07-24T08:58:59.000Z</time>
      </trkpt>
      <trkpt lat="47.42534" lon="6.64311">
        <ele>412</ele>
        <time>2016-07-24T08:59:00.000Z</time>
      </trkpt>
      <trkpt lat="47.42538" lon="6.64317">
        <ele>412</ele>
        <time>2016-07-24T08:59:01.000Z</time>
      </trkpt>
      <trkpt lat="47.42541" lon="6.64321">
        <ele>412</ele>
        <time>2016-07-24T08:59:02.000Z</time>
      </trkpt>
      <trkpt lat="47.42543" lon="6.64325">
        <ele>412</ele>
        <time>2016-07-24T08:59:03.000Z</time>
      </trkpt>
      <trkpt lat="47.42545" lon="6.64328">
        <ele>412</ele>
        <time>2016-07-24T08:59:04.000Z</time>
      </trkpt>
      <trkpt lat="47.42547" lon="6.64331">
        <ele>412</ele>
        <time>2016-07-24T08:59:05.000Z</time>
      </trkpt>
      <trkpt lat="47.42549" lon="6.64335">
        <ele>412</ele>
        <time>2016-07-24T08:59:06.000Z</time>
      </trkpt>
      <trkpt lat="47.42551" lon="6.6434">
        <ele>412</ele>
        <time>2016-07-24T08:59:07.000Z</time>
      </trkpt>
      <trkpt lat="47.42554" lon="6.64343">
        <ele>412</ele>
        <time>2016-07-24T08:59:08.000Z</time>
      </trkpt>
      <trkpt lat="47.42556" lon="6.64347">
        <ele>412</ele>
        <time>2016-07-24T08:59:09.000Z</time>
      </trkpt>
      <trkpt lat="47.42559" lon="6.64351">
        <ele>412</ele>
        <time>2016-07-24T08:59:10.000Z</time>
      </trkpt>
      <trkpt lat="47.42562" lon="6.64354">
        <ele>412</ele>
        <time>2016-07-24T08:59:11.000Z</time>
      </trkpt>
      <trkpt lat="47.42564" lon="6.64357">
        <ele>412</ele>
        <time>2016-07-24T08:59:12.000Z</time>
      </trkpt>
      <trkpt lat="47.42567" lon="6.64361">
        <ele>412</ele>
        <time>2016-07-24T08:59:13.000Z</time>
      </trkpt>
      <trkpt lat="47.42569" lon="6.64364">
        <ele>412</ele>
        <time>2016-07-24T08:59:14.000Z</time>
      </trkpt>
      <trkpt lat="47.42572" lon="6.64367">
        <ele>412</ele>
        <time>2016-07-24T08:59:15.000Z</time>
      </trkpt>
      <trkpt lat="47.42574" lon="6.64369">
        <ele>412</ele>
        <time>2016-07-24T08:59:16.000Z</time>
      </trkpt>
      <trkpt lat="47.42576" lon="6.64371">
        <ele>412</ele>
        <time>2016-07-24T08:59:17.000Z</time>
      </trkpt>
      <trkpt lat="47.42579" lon="6.64375">
        <ele>412</ele>
        <time>2016-07-24T08:59:19.000Z</time>
      </trkpt>
      <trkpt lat="47.4258" lon="6.64377">
        <ele>412</ele>
        <time>2016-07-24T08:59:20.000Z</time>
      </trkpt>
      <trkpt lat="47.42582" lon="6.6438">
        <ele>413</ele>
        <time>2016-07-24T08:59:21.000Z</time>
      </trkpt>
      <trkpt lat="47.42584" lon="6.64385">
        <ele>413</ele>
        <time>2016-07-24T08:59:22.000Z</time>
      </trkpt>
      <trkpt lat="47.42587" lon="6.64389">
        <ele>413</ele>
        <time>2016-07-24T08:59:23.000Z</time>
      </trkpt>
      <trkpt lat="47.42591" lon="6.64393">
        <ele>413</ele>
        <time>2016-07-24T08:59:24.000Z</time>
      </trkpt>
      <trkpt lat="47.42594" lon="6.64396">
        <ele>413</ele>
        <time>2016-07-24T08:59:25.000Z</time>
      </trkpt>
      <trkpt lat="47.42598" lon="6.64399">
        <ele>413</ele>
        <time>2016-07-24T08:59:26.000Z</time>
      </trkpt>
      <trkpt lat="47.42601" lon="6.64402">
        <ele>413</ele>
        <time>2016-07-24T08:59:27.000Z</time>
      </trkpt>
      <trkpt lat="47.42603" lon="6.64405">
        <ele>413</ele>
        <time>2016-07-24T08:59:28.000Z</time>
      </trkpt>
      <trkpt lat="47.42605" lon="6.64409">
        <ele>413</ele>
        <time>2016-07-24T08:59:29.000Z</time>
      </trkpt>
      <trkpt lat="47.42609" lon="6.64413">
        <ele>413</ele>
        <time>2016-07-24T08:59:30.000Z</time>
      </trkpt>
      <trkpt lat="47.42612" lon="6.64417">
        <ele>413</ele>
        <time>2016-07-24T08:59:31.000Z</time>
      </trkpt>
      <trkpt lat="47.42615" lon="6.64422">
        <ele>413</ele>
        <time>2016-07-24T08:59:32.000Z</time>
      </trkpt>
      <trkpt lat="47.42618" lon="6.64426">
        <ele>413</ele>
        <time>2016-07-24T08:59:33.000Z</time>
      </trkpt>
      <trkpt lat="47.4262" lon="6.64431">
        <ele>413</ele>
        <time>2016-07-24T08:59:34.000Z</time>
      </trkpt>
      <trkpt lat="47.42623" lon="6.64435">
        <ele>412</ele>
        <time>2016-07-24T08:59:35.000Z</time>
      </trkpt>
      <trkpt lat="47.42626" lon="6.6444">
        <ele>412</ele>
        <time>2016-07-24T08:59:36.000Z</time>
      </trkpt>
      <trkpt lat="47.42629" lon="6.64445">
        <ele>412</ele>
        <time>2016-07-24T08:59:37.000Z</time>
      </trkpt>
      <trkpt lat="47.42632" lon="6.64449">
        <ele>412</ele>
        <time>2016-07-24T08:59:38.000Z</time>
      </trkpt>
      <trkpt lat="47.42635" lon="6.64452">
        <ele>412</ele>
        <time>2016-07-24T08:59:39.000Z</time>
      </trkpt>
      <trkpt lat="47.42638" lon="6.64457">
        <ele>412</ele>
        <time>2016-07-24T08:59:40.000Z</time>
      </trkpt>
      <trkpt lat="47.42641" lon="6.64461">
        <ele>412</ele>
        <time>2016-07-24T08:59:41.000Z</time>
      </trkpt>
      <trkpt lat="47.42643" lon="6.64463">
        <ele>412</ele>
        <time>2016-07-24T08:59:42.000Z</time>
      </trkpt>
      <trkpt lat="47.42645" lon="6.64466">
        <ele>412</ele>
        <time>2016-07-24T08:59:43.000Z</time>
      </trkpt>
      <trkpt lat="47.42648" lon="6.64467">
        <ele>412</ele>
        <time>2016-07-24T08:59:44.000Z</time>
      </trkpt>
      <trkpt lat="47.4265" lon="6.64472">
        <ele>412</ele>
        <time>2016-07-24T08:59:46.000Z</time>
      </trkpt>
      <trkpt lat="47.42651" lon="6.64475">
        <ele>412</ele>
        <time>2016-07-24T08:59:47.000Z</time>
      </trkpt>
      <trkpt lat="47.42652" lon="6.64478">
        <ele>412</ele>
        <time>2016-07-24T08:59:48.000Z</time>
      </trkpt>
      <trkpt lat="47.42652" lon="6.64481">
        <ele>412</ele>
        <time>2016-07-24T08:59:49.000Z</time>
      </trkpt>
      <trkpt lat="47.42653" lon="6.64486">
        <ele>413</ele>
        <time>2016-07-24T08:59:50.000Z</time>
      </trkpt>
      <trkpt lat="47.42655" lon="6.6449">
        <ele>413</ele>
        <time>2016-07-24T08:59:51.000Z</time>
      </trkpt>
      <trkpt lat="47.42656" lon="6.64495">
        <ele>413</ele>
        <time>2016-07-24T08:59:52.000Z</time>
      </trkpt>
      <trkpt lat="47.42658" lon="6.64501">
        <ele>412</ele>
        <time>2016-07-24T08:59:53.000Z</time>
      </trkpt>
      <trkpt lat="47.42661" lon="6.64504">
        <ele>412</ele>
        <time>2016-07-24T08:59:54.000Z</time>
      </trkpt>
      <trkpt lat="47.42663" lon="6.64506">
        <ele>412</ele>
        <time>2016-07-24T08:59:55.000Z</time>
      </trkpt>
      <trkpt lat="47.42666" lon="6.64508">
        <ele>412</ele>
        <time>2016-07-24T08:59:56.000Z</time>
      </trkpt>
      <trkpt lat="47.42668" lon="6.64509">
        <ele>411</ele>
        <time>2016-07-24T08:59:57.000Z</time>
      </trkpt>
      <trkpt lat="47.42672" lon="6.64512">
        <ele>410</ele>
        <time>2016-07-24T09:00:37.000Z</time>
      </trkpt>
      <trkpt lat="47.42672" lon="6.64513">
        <ele>410</ele>
        <time>2016-07-24T09:00:38.000Z</time>
      </trkpt>
      <trkpt lat="47.42675" lon="6.64517">
        <ele>409</ele>
        <time>2016-07-24T09:00:47.000Z</time>
      </trkpt>
      <trkpt lat="47.42676" lon="6.64517">
        <ele>409</ele>
        <time>2016-07-24T09:00:48.000Z</time>
      </trkpt>
      <trkpt lat="47.42679" lon="6.64519">
        <ele>409</ele>
        <time>2016-07-24T09:00:52.000Z</time>
      </trkpt>
      <trkpt lat="47.4268" lon="6.64519">
        <ele>409</ele>
        <time>2016-07-24T09:00:53.000Z</time>
      </trkpt>
      <trkpt lat="47.42685" lon="6.64518">
        <ele>408</ele>
        <time>2016-07-24T09:00:58.000Z</time>
      </trkpt>
      <trkpt lat="47.42685" lon="6.64518">
        <ele>408</ele>
        <time>2016-07-24T09:00:59.000Z</time>
      </trkpt>
      <trkpt lat="47.42688" lon="6.64523">
        <ele>408</ele>
        <time>2016-07-24T09:01:58.000Z</time>
      </trkpt>
      <trkpt lat="47.42689" lon="6.64524">
        <ele>408</ele>
        <time>2016-07-24T09:01:59.000Z</time>
      </trkpt>
      <trkpt lat="47.42691" lon="6.64529">
        <ele>407</ele>
        <time>2016-07-24T09:02:02.000Z</time>
      </trkpt>
      <trkpt lat="47.42693" lon="6.6453">
        <ele>407</ele>
        <time>2016-07-24T09:02:03.000Z</time>
      </trkpt>
      <trkpt lat="47.42694" lon="6.64531">
        <ele>407</ele>
        <time>2016-07-24T09:02:04.000Z</time>
      </trkpt>
      <trkpt lat="47.42699" lon="6.64531">
        <ele>407</ele>
        <time>2016-07-24T09:02:05.000Z</time>
      </trkpt>
      <trkpt lat="47.42702" lon="6.6453">
        <ele>407</ele>
        <time>2016-07-24T09:02:06.000Z</time>
      </trkpt>
      <trkpt lat="47.42705" lon="6.6453">
        <ele>406</ele>
        <time>2016-07-24T09:02:07.000Z</time>
      </trkpt>
      <trkpt lat="47.42709" lon="6.64532">
        <ele>406</ele>
        <time>2016-07-24T09:02:09.000Z</time>
      </trkpt>
      <trkpt lat="47.42709" lon="6.64534">
        <ele>406</ele>
        <time>2016-07-24T09:02:10.000Z</time>
      </trkpt>
      <trkpt lat="47.42709" lon="6.6454">
        <ele>406</ele>
        <time>2016-07-24T09:02:12.000Z</time>
      </trkpt>
      <trkpt lat="47.42708" lon="6.64543">
        <ele>406</ele>
        <time>2016-07-24T09:02:13.000Z</time>
      </trkpt>
      <trkpt lat="47.42707" lon="6.64548">
        <ele>406</ele>
        <time>2016-07-24T09:02:15.000Z</time>
      </trkpt>
      <trkpt lat="47.42705" lon="6.6455">
        <ele>406</ele>
        <time>2016-07-24T09:02:16.000Z</time>
      </trkpt>
      <trkpt lat="47.42701" lon="6.64553">
        <ele>406</ele>
        <time>2016-07-24T09:02:18.000Z</time>
      </trkpt>
      <trkpt lat="47.42699" lon="6.64555">
        <ele>406</ele>
        <time>2016-07-24T09:02:19.000Z</time>
      </trkpt>
      <trkpt lat="47.42697" lon="6.64558">
        <ele>406</ele>
        <time>2016-07-24T09:02:20.000Z</time>
      </trkpt>
      <trkpt lat="47.42696" lon="6.64563">
        <ele>407</ele>
        <time>2016-07-24T09:02:21.000Z</time>
      </trkpt>
      <trkpt lat="47.42695" lon="6.64568">
        <ele>407</ele>
        <time>2016-07-24T09:02:22.000Z</time>
      </trkpt>
      <trkpt lat="47.42696" lon="6.64575">
        <ele>407</ele>
        <time>2016-07-24T09:02:23.000Z</time>
      </trkpt>
      <trkpt lat="47.42696" lon="6.64582">
        <ele>406</ele>
        <time>2016-07-24T09:02:24.000Z</time>
      </trkpt>
      <trkpt lat="47.42698" lon="6.64589">
        <ele>403</ele>
        <time>2016-07-24T09:02:25.000Z</time>
      </trkpt>
      <trkpt lat="47.42699" lon="6.64597">
        <ele>403</ele>
        <time>2016-07-24T09:02:26.000Z</time>
      </trkpt>
      <trkpt lat="47.427" lon="6.64603">
        <ele>403</ele>
        <time>2016-07-24T09:02:27.000Z</time>
      </trkpt>
      <trkpt lat="47.427" lon="6.64608">
        <ele>402</ele>
        <time>2016-07-24T09:02:28.000Z</time>
      </trkpt>
      <trkpt lat="47.42699" lon="6.64612">
        <ele>402</ele>
        <time>2016-07-24T09:02:29.000Z</time>
      </trkpt>
      <trkpt lat="47.42697" lon="6.64615">
        <ele>402</ele>
        <time>2016-07-24T09:02:30.000Z</time>
      </trkpt>
      <trkpt lat="47.42695" lon="6.64617">
        <ele>402</ele>
        <time>2016-07-24T09:02:31.000Z</time>
      </trkpt>
      <trkpt lat="47.42693" lon="6.64622">
        <ele>402</ele>
        <time>2016-07-24T09:02:33.000Z</time>
      </trkpt>
      <trkpt lat="47.42692" lon="6.64624">
        <ele>402</ele>
        <time>2016-07-24T09:02:34.000Z</time>
      </trkpt>
      <trkpt lat="47.42691" lon="6.64627">
        <ele>402</ele>
        <time>2016-07-24T09:02:35.000Z</time>
      </trkpt>
      <trkpt lat="47.4269" lon="6.64631">
        <ele>401</ele>
        <time>2016-07-24T09:02:36.000Z</time>
      </trkpt>
      <trkpt lat="47.42689" lon="6.64634">
        <ele>401</ele>
        <time>2016-07-24T09:02:37.000Z</time>
      </trkpt>
      <trkpt lat="47.42688" lon="6.64637">
        <ele>401</ele>
        <time>2016-07-24T09:02:38.000Z</time>
      </trkpt>
      <trkpt lat="47.42686" lon="6.6464">
        <ele>401</ele>
        <time>2016-07-24T09:02:39.000Z</time>
      </trkpt>
      <trkpt lat="47.42684" lon="6.64643">
        <ele>401</ele>
        <time>2016-07-24T09:02:40.000Z</time>
      </trkpt>
      <trkpt lat="47.42682" lon="6.64647">
        <ele>400</ele>
        <time>2016-07-24T09:02:41.000Z</time>
      </trkpt>
      <trkpt lat="47.42678" lon="6.64651">
        <ele>400</ele>
        <time>2016-07-24T09:02:42.000Z</time>
      </trkpt>
      <trkpt lat="47.42676" lon="6.64656">
        <ele>400</ele>
        <time>2016-07-24T09:02:43.000Z</time>
      </trkpt>
      <trkpt lat="47.42672" lon="6.6466">
        <ele>399</ele>
        <time>2016-07-24T09:02:44.000Z</time>
      </trkpt>
      <trkpt lat="47.42669" lon="6.64665">
        <ele>398</ele>
        <time>2016-07-24T09:02:45.000Z</time>
      </trkpt>
      <trkpt lat="47.42665" lon="6.64669">
        <ele>396</ele>
        <time>2016-07-24T09:02:46.000Z</time>
      </trkpt>
      <trkpt lat="47.4266" lon="6.64675">
        <ele>392</ele>
        <time>2016-07-24T09:02:47.000Z</time>
      </trkpt>
      <trkpt lat="47.42657" lon="6.6468">
        <ele>390</ele>
        <time>2016-07-24T09:02:48.000Z</time>
      </trkpt>
      <trkpt lat="47.42662" lon="6.64725">
        <ele>382</ele>
        <time>2016-07-24T09:02:49.000Z</time>
      </trkpt>
      <trkpt lat="47.42663" lon="6.64739">
        <ele>382</ele>
        <time>2016-07-24T09:02:50.000Z</time>
      </trkpt>
      <trkpt lat="47.42663" lon="6.64754">
        <ele>380</ele>
        <time>2016-07-24T09:02:51.000Z</time>
      </trkpt>
      <trkpt lat="47.42664" lon="6.64768">
        <ele>376</ele>
        <time>2016-07-24T09:02:52.000Z</time>
      </trkpt>
      <trkpt lat="47.42665" lon="6.64779">
        <ele>373</ele>
        <time>2016-07-24T09:02:53.000Z</time>
      </trkpt>
      <trkpt lat="47.42665" lon="6.64782">
        <ele>373</ele>
        <time>2016-07-24T09:02:54.000Z</time>
      </trkpt>
      <trkpt lat="47.42667" lon="6.64788">
        <ele>372</ele>
        <time>2016-07-24T09:02:55.000Z</time>
      </trkpt>
      <trkpt lat="47.42667" lon="6.64794">
        <ele>382</ele>
        <time>2016-07-24T09:02:56.000Z</time>
      </trkpt>
      <trkpt lat="47.42668" lon="6.64796">
        <ele>382</ele>
        <time>2016-07-24T09:02:57.000Z</time>
      </trkpt>
      <trkpt lat="47.4267" lon="6.64801">
        <ele>382</ele>
        <time>2016-07-24T09:03:15.000Z</time>
      </trkpt>
      <trkpt lat="47.42672" lon="6.64805">
        <ele>382</ele>
        <time>2016-07-24T09:03:16.000Z</time>
      </trkpt>
      <trkpt lat="47.42674" lon="6.64807">
        <ele>382</ele>
        <time>2016-07-24T09:03:17.000Z</time>
      </trkpt>
      <trkpt lat="47.42676" lon="6.64811">
        <ele>381</ele>
        <time>2016-07-24T09:03:18.000Z</time>
      </trkpt>
      <trkpt lat="47.42678" lon="6.64815">
        <ele>381</ele>
        <time>2016-07-24T09:03:19.000Z</time>
      </trkpt>
      <trkpt lat="47.4268" lon="6.64819">
        <ele>381</ele>
        <time>2016-07-24T09:03:20.000Z</time>
      </trkpt>
      <trkpt lat="47.42682" lon="6.64825">
        <ele>380</ele>
        <time>2016-07-24T09:03:21.000Z</time>
      </trkpt>
      <trkpt lat="47.42684" lon="6.64837">
        <ele>377</ele>
        <time>2016-07-24T09:03:22.000Z</time>
      </trkpt>
      <trkpt lat="47.42684" lon="6.64842">
        <ele>377</ele>
        <time>2016-07-24T09:03:23.000Z</time>
      </trkpt>
      <trkpt lat="47.42687" lon="6.64846">
        <ele>378</ele>
        <time>2016-07-24T09:03:24.000Z</time>
      </trkpt>
      <trkpt lat="47.42689" lon="6.6485">
        <ele>378</ele>
        <time>2016-07-24T09:03:25.000Z</time>
      </trkpt>
      <trkpt lat="47.42692" lon="6.64856">
        <ele>378</ele>
        <time>2016-07-24T09:03:26.000Z</time>
      </trkpt>
      <trkpt lat="47.42695" lon="6.64861">
        <ele>378</ele>
        <time>2016-07-24T09:03:27.000Z</time>
      </trkpt>
      <trkpt lat="47.42699" lon="6.64867">
        <ele>379</ele>
        <time>2016-07-24T09:03:28.000Z</time>
      </trkpt>
      <trkpt lat="47.42704" lon="6.64871">
        <ele>379</ele>
        <time>2016-07-24T09:03:29.000Z</time>
      </trkpt>
      <trkpt lat="47.42706" lon="6.64874">
        <ele>379</ele>
        <time>2016-07-24T09:03:30.000Z</time>
      </trkpt>
      <trkpt lat="47.42708" lon="6.64876">
        <ele>379</ele>
        <time>2016-07-24T09:03:31.000Z</time>
      </trkpt>
      <trkpt lat="47.4271" lon="6.6488">
        <ele>379</ele>
        <time>2016-07-24T09:03:31.999Z</time>
      </trkpt>
      <trkpt lat="47.42714" lon="6.64882">
        <ele>380</ele>
        <time>2016-07-24T09:03:33.000Z</time>
      </trkpt>
      <trkpt lat="47.42716" lon="6.64884">
        <ele>380</ele>
        <time>2016-07-24T09:03:34.000Z</time>
      </trkpt>
      <trkpt lat="47.42718" lon="6.64886">
        <ele>380</ele>
        <time>2016-07-24T09:03:35.000Z</time>
      </trkpt>
      <trkpt lat="47.42719" lon="6.64888">
        <ele>380</ele>
        <time>2016-07-24T09:03:36.000Z</time>
      </trkpt>
      <trkpt lat="47.42721" lon="6.64891">
        <ele>380</ele>
        <time>2016-07-24T09:03:37.000Z</time>
      </trkpt>
      <trkpt lat="47.42722" lon="6.64893">
        <ele>381</ele>
        <time>2016-07-24T09:03:38.000Z</time>
      </trkpt>
      <trkpt lat="47.42724" lon="6.64896">
        <ele>381</ele>
        <time>2016-07-24T09:03:39.000Z</time>
      </trkpt>
      <trkpt lat="47.42726" lon="6.64899">
        <ele>381</ele>
        <time>2016-07-24T09:03:40.000Z</time>
      </trkpt>
      <trkpt lat="47.4273" lon="6.64905">
        <ele>382</ele>
        <time>2016-07-24T09:03:41.000Z</time>
      </trkpt>
      <trkpt lat="47.42732" lon="6.6491">
        <ele>383</ele>
        <time>2016-07-24T09:03:42.000Z</time>
      </trkpt>
      <trkpt lat="47.42736" lon="6.64916">
        <ele>384</ele>
        <time>2016-07-24T09:03:43.000Z</time>
      </trkpt>
      <trkpt lat="47.4274" lon="6.64922">
        <ele>382</ele>
        <time>2016-07-24T09:03:44.000Z</time>
      </trkpt>
      <trkpt lat="47.42744" lon="6.64927">
        <ele>382</ele>
        <time>2016-07-24T09:03:45.000Z</time>
      </trkpt>
      <trkpt lat="47.42747" lon="6.64931">
        <ele>381</ele>
        <time>2016-07-24T09:03:46.000Z</time>
      </trkpt>
      <trkpt lat="47.4275" lon="6.64936">
        <ele>388</ele>
        <time>2016-07-24T09:03:47.000Z</time>
      </trkpt>
      <trkpt lat="47.42754" lon="6.64939">
        <ele>387</ele>
        <time>2016-07-24T09:03:48.000Z</time>
      </trkpt>
      <trkpt lat="47.42758" lon="6.64943">
        <ele>387</ele>
        <time>2016-07-24T09:03:49.000Z</time>
      </trkpt>
      <trkpt lat="47.42762" lon="6.64946">
        <ele>387</ele>
        <time>2016-07-24T09:03:50.000Z</time>
      </trkpt>
      <trkpt lat="47.42766" lon="6.64949">
        <ele>387</ele>
        <time>2016-07-24T09:03:51.000Z</time>
      </trkpt>
      <trkpt lat="47.42771" lon="6.64954">
        <ele>387</ele>
        <time>2016-07-24T09:03:52.000Z</time>
      </trkpt>
      <trkpt lat="47.42775" lon="6.64958">
        <ele>387</ele>
        <time>2016-07-24T09:03:53.000Z</time>
      </trkpt>
      <trkpt lat="47.42779" lon="6.64962">
        <ele>387</ele>
        <time>2016-07-24T09:03:54.000Z</time>
      </trkpt>
      <trkpt lat="47.42783" lon="6.64966">
        <ele>387</ele>
        <time>2016-07-24T09:03:55.000Z</time>
      </trkpt>
      <trkpt lat="47.42786" lon="6.64969">
        <ele>388</ele>
        <time>2016-07-24T09:03:56.000Z</time>
      </trkpt>
      <trkpt lat="47.42788" lon="6.64971">
        <ele>388</ele>
        <time>2016-07-24T09:03:57.000Z</time>
      </trkpt>
      <trkpt lat="47.42791" lon="6.64973">
        <ele>388</ele>
        <time>2016-07-24T09:03:58.000Z</time>
      </trkpt>
      <trkpt lat="47.42793" lon="6.64975">
        <ele>388</ele>
        <time>2016-07-24T09:03:59.000Z</time>
      </trkpt>
      <trkpt lat="47.42796" lon="6.64976">
        <ele>388</ele>
        <time>2016-07-24T09:04:00.000Z</time>
      </trkpt>
      <trkpt lat="47.428" lon="6.64978">
        <ele>388</ele>
        <time>2016-07-24T09:04:02.000Z</time>
      </trkpt>
      <trkpt lat="47.42801" lon="6.64978">
        <ele>388</ele>
        <time>2016-07-24T09:04:03.000Z</time>
      </trkpt>
      <trkpt lat="47.42801" lon="6.64972">
        <ele>388</ele>
        <time>2016-07-24T09:04:14.000Z</time>
      </trkpt>
      <trkpt lat="47.42801" lon="6.64971">
        <ele>388</ele>
        <time>2016-07-24T09:04:15.000Z</time>
      </trkpt>
      <trkpt lat="47.42797" lon="6.64971">
        <ele>388</ele>
        <time>2016-07-24T09:04:23.000Z</time>
      </trkpt>
      <trkpt lat="47.42796" lon="6.64973">
        <ele>388</ele>
        <time>2016-07-24T09:04:24.000Z</time>
      </trkpt>
      <trkpt lat="47.42795" lon="6.64978">
        <ele>388</ele>
        <time>2016-07-24T09:04:26.000Z</time>
      </trkpt>
      <trkpt lat="47.42795" lon="6.64981">
        <ele>388</ele>
        <time>2016-07-24T09:04:27.000Z</time>
      </trkpt>
      <trkpt lat="47.42795" lon="6.64987">
        <ele>388</ele>
        <time>2016-07-24T09:04:30.000Z</time>
      </trkpt>
      <trkpt lat="47.42794" lon="6.64989">
        <ele>388</ele>
        <time>2016-07-24T09:04:31.000Z</time>
      </trkpt>
      <trkpt lat="47.42792" lon="6.64993">
        <ele>388</ele>
        <time>2016-07-24T09:04:33.000Z</time>
      </trkpt>
      <trkpt lat="47.42791" lon="6.64995">
        <ele>388</ele>
        <time>2016-07-24T09:04:34.000Z</time>
      </trkpt>
      <trkpt lat="47.4279" lon="6.65001">
        <ele>387</ele>
        <time>2016-07-24T09:04:36.000Z</time>
      </trkpt>
      <trkpt lat="47.42789" lon="6.65004">
        <ele>387</ele>
        <time>2016-07-24T09:04:37.000Z</time>
      </trkpt>
      <trkpt lat="47.42788" lon="6.65008">
        <ele>387</ele>
        <time>2016-07-24T09:04:38.000Z</time>
      </trkpt>
      <trkpt lat="47.42787" lon="6.65011">
        <ele>387</ele>
        <time>2016-07-24T09:04:39.000Z</time>
      </trkpt>
      <trkpt lat="47.42785" lon="6.65014">
        <ele>386</ele>
        <time>2016-07-24T09:04:40.000Z</time>
      </trkpt>
      <trkpt lat="47.42783" lon="6.65018">
        <ele>386</ele>
        <time>2016-07-24T09:04:41.000Z</time>
      </trkpt>
      <trkpt lat="47.42782" lon="6.65023">
        <ele>386</ele>
        <time>2016-07-24T09:04:43.000Z</time>
      </trkpt>
      <trkpt lat="47.42782" lon="6.65025">
        <ele>386</ele>
        <time>2016-07-24T09:04:44.000Z</time>
      </trkpt>
      <trkpt lat="47.42784" lon="6.65031">
        <ele>386</ele>
        <time>2016-07-24T09:04:47.000Z</time>
      </trkpt>
      <trkpt lat="47.42785" lon="6.65032">
        <ele>386</ele>
        <time>2016-07-24T09:04:48.000Z</time>
      </trkpt>
      <trkpt lat="47.42787" lon="6.65036">
        <ele>386</ele>
        <time>2016-07-24T09:04:50.000Z</time>
      </trkpt>
      <trkpt lat="47.42788" lon="6.65037">
        <ele>386</ele>
        <time>2016-07-24T09:04:51.000Z</time>
      </trkpt>
      <trkpt lat="47.42791" lon="6.6504">
        <ele>386</ele>
        <time>2016-07-24T09:04:53.000Z</time>
      </trkpt>
      <trkpt lat="47.42792" lon="6.65042">
        <ele>387</ele>
        <time>2016-07-24T09:04:54.000Z</time>
      </trkpt>
      <trkpt lat="47.42794" lon="6.65046">
        <ele>387</ele>
        <time>2016-07-24T09:04:56.000Z</time>
      </trkpt>
      <trkpt lat="47.42795" lon="6.65048">
        <ele>387</ele>
        <time>2016-07-24T09:04:57.000Z</time>
      </trkpt>
      <trkpt lat="47.42797" lon="6.65053">
        <ele>387</ele>
        <time>2016-07-24T09:05:00.000Z</time>
      </trkpt>
      <trkpt lat="47.42798" lon="6.65055">
        <ele>387</ele>
        <time>2016-07-24T09:05:01.000Z</time>
      </trkpt>
      <trkpt lat="47.428" lon="6.6506">
        <ele>387</ele>
        <time>2016-07-24T09:05:03.000Z</time>
      </trkpt>
      <trkpt lat="47.42801" lon="6.65062">
        <ele>387</ele>
        <time>2016-07-24T09:05:04.000Z</time>
      </trkpt>
      <trkpt lat="47.42803" lon="6.65066">
        <ele>388</ele>
        <time>2016-07-24T09:05:07.000Z</time>
      </trkpt>
      <trkpt lat="47.42804" lon="6.65067">
        <ele>388</ele>
        <time>2016-07-24T09:05:08.000Z</time>
      </trkpt>
      <trkpt lat="47.42807" lon="6.6507">
        <ele>388</ele>
        <time>2016-07-24T09:05:10.000Z</time>
      </trkpt>
      <trkpt lat="47.42808" lon="6.65071">
        <ele>389</ele>
        <time>2016-07-24T09:05:11.000Z</time>
      </trkpt>
      <trkpt lat="47.42809" lon="6.65077">
        <ele>389</ele>
        <time>2016-07-24T09:05:15.000Z</time>
      </trkpt>
      <trkpt lat="47.42809" lon="6.65078">
        <ele>389</ele>
        <time>2016-07-24T09:05:16.000Z</time>
      </trkpt>
      <trkpt lat="47.42811" lon="6.65084">
        <ele>387</ele>
        <time>2016-07-24T09:05:19.000Z</time>
      </trkpt>
      <trkpt lat="47.42812" lon="6.65086">
        <ele>387</ele>
        <time>2016-07-24T09:05:20.000Z</time>
      </trkpt>
      <trkpt lat="47.42812" lon="6.65091">
        <ele>387</ele>
        <time>2016-07-24T09:05:22.000Z</time>
      </trkpt>
      <trkpt lat="47.42812" lon="6.65094">
        <ele>387</ele>
        <time>2016-07-24T09:05:23.000Z</time>
      </trkpt>
      <trkpt lat="47.42811" lon="6.65099">
        <ele>386</ele>
        <time>2016-07-24T09:05:25.000Z</time>
      </trkpt>
      <trkpt lat="47.42811" lon="6.65101">
        <ele>386</ele>
        <time>2016-07-24T09:05:26.000Z</time>
      </trkpt>
      <trkpt lat="47.42811" lon="6.65106">
        <ele>385</ele>
        <time>2016-07-24T09:05:28.000Z</time>
      </trkpt>
      <trkpt lat="47.42812" lon="6.65109">
        <ele>385</ele>
        <time>2016-07-24T09:05:29.000Z</time>
      </trkpt>
      <trkpt lat="47.42813" lon="6.65115">
        <ele>385</ele>
        <time>2016-07-24T09:05:32.000Z</time>
      </trkpt>
      <trkpt lat="47.42813" lon="6.65117">
        <ele>385</ele>
        <time>2016-07-24T09:05:33.000Z</time>
      </trkpt>
      <trkpt lat="47.42814" lon="6.65123">
        <ele>385</ele>
        <time>2016-07-24T09:05:36.000Z</time>
      </trkpt>
      <trkpt lat="47.42815" lon="6.65125">
        <ele>385</ele>
        <time>2016-07-24T09:05:37.000Z</time>
      </trkpt>
      <trkpt lat="47.42817" lon="6.65128">
        <ele>385</ele>
        <time>2016-07-24T09:05:39.000Z</time>
      </trkpt>
      <trkpt lat="47.42818" lon="6.6513">
        <ele>385</ele>
        <time>2016-07-24T09:05:40.000Z</time>
      </trkpt>
      <trkpt lat="47.4282" lon="6.65133">
        <ele>385</ele>
        <time>2016-07-24T09:05:42.000Z</time>
      </trkpt>
      <trkpt lat="47.42821" lon="6.65135">
        <ele>385</ele>
        <time>2016-07-24T09:05:43.000Z</time>
      </trkpt>
      <trkpt lat="47.42824" lon="6.6514">
        <ele>386</ele>
        <time>2016-07-24T09:05:46.000Z</time>
      </trkpt>
      <trkpt lat="47.42824" lon="6.65141">
        <ele>386</ele>
        <time>2016-07-24T09:05:47.000Z</time>
      </trkpt>
      <trkpt lat="47.42826" lon="6.65146">
        <ele>387</ele>
        <time>2016-07-24T09:05:50.000Z</time>
      </trkpt>
      <trkpt lat="47.42827" lon="6.65148">
        <ele>387</ele>
        <time>2016-07-24T09:05:51.000Z</time>
      </trkpt>
      <trkpt lat="47.42829" lon="6.65153">
        <ele>388</ele>
        <time>2016-07-24T09:05:53.000Z</time>
      </trkpt>
      <trkpt lat="47.4283" lon="6.65155">
        <ele>389</ele>
        <time>2016-07-24T09:05:54.000Z</time>
      </trkpt>
      <trkpt lat="47.42831" lon="6.6516">
        <ele>391</ele>
        <time>2016-07-24T09:05:56.000Z</time>
      </trkpt>
      <trkpt lat="47.42832" lon="6.65162">
        <ele>392</ele>
        <time>2016-07-24T09:05:57.000Z</time>
      </trkpt>
      <trkpt lat="47.42832" lon="6.65167">
        <ele>393</ele>
        <time>2016-07-24T09:05:59.000Z</time>
      </trkpt>
      <trkpt lat="47.42832" lon="6.6517">
        <ele>391</ele>
        <time>2016-07-24T09:06:00.000Z</time>
      </trkpt>
      <trkpt lat="47.42832" lon="6.65176">
        <ele>387</ele>
        <time>2016-07-24T09:06:02.000Z</time>
      </trkpt>
      <trkpt lat="47.42832" lon="6.65178">
        <ele>386</ele>
        <time>2016-07-24T09:06:03.000Z</time>
      </trkpt>
      <trkpt lat="47.42833" lon="6.65184">
        <ele>383</ele>
        <time>2016-07-24T09:06:05.000Z</time>
      </trkpt>
      <trkpt lat="47.42834" lon="6.65186">
        <ele>394</ele>
        <time>2016-07-24T09:06:06.000Z</time>
      </trkpt>
      <trkpt lat="47.42835" lon="6.65191">
        <ele>394</ele>
        <time>2016-07-24T09:06:08.000Z</time>
      </trkpt>
      <trkpt lat="47.42835" lon="6.65193">
        <ele>394</ele>
        <time>2016-07-24T09:06:09.000Z</time>
      </trkpt>
      <trkpt lat="47.42837" lon="6.65199">
        <ele>393</ele>
        <time>2016-07-24T09:06:11.000Z</time>
      </trkpt>
      <trkpt lat="47.42837" lon="6.65202">
        <ele>393</ele>
        <time>2016-07-24T09:06:12.000Z</time>
      </trkpt>
      <trkpt lat="47.42838" lon="6.65205">
        <ele>393</ele>
        <time>2016-07-24T09:06:13.000Z</time>
      </trkpt>
      <trkpt lat="47.4284" lon="6.65208">
        <ele>393</ele>
        <time>2016-07-24T09:06:14.000Z</time>
      </trkpt>
      <trkpt lat="47.42842" lon="6.6521">
        <ele>393</ele>
        <time>2016-07-24T09:06:15.000Z</time>
      </trkpt>
      <trkpt lat="47.42844" lon="6.65213">
        <ele>392</ele>
        <time>2016-07-24T09:06:16.000Z</time>
      </trkpt>
      <trkpt lat="47.42846" lon="6.65216">
        <ele>392</ele>
        <time>2016-07-24T09:06:17.000Z</time>
      </trkpt>
      <trkpt lat="47.42848" lon="6.65218">
        <ele>392</ele>
        <time>2016-07-24T09:06:18.000Z</time>
      </trkpt>
      <trkpt lat="47.42851" lon="6.65223">
        <ele>392</ele>
        <time>2016-07-24T09:06:20.000Z</time>
      </trkpt>
      <trkpt lat="47.42852" lon="6.65225">
        <ele>392</ele>
        <time>2016-07-24T09:06:21.000Z</time>
      </trkpt>
      <trkpt lat="47.42853" lon="6.6523">
        <ele>391</ele>
        <time>2016-07-24T09:06:23.000Z</time>
      </trkpt>
      <trkpt lat="47.42854" lon="6.65233">
        <ele>391</ele>
        <time>2016-07-24T09:06:24.000Z</time>
      </trkpt>
      <trkpt lat="47.42855" lon="6.65239">
        <ele>390</ele>
        <time>2016-07-24T09:06:26.000Z</time>
      </trkpt>
      <trkpt lat="47.42856" lon="6.65241">
        <ele>391</ele>
        <time>2016-07-24T09:06:27.000Z</time>
      </trkpt>
      <trkpt lat="47.42859" lon="6.65243">
        <ele>391</ele>
        <time>2016-07-24T09:06:29.000Z</time>
      </trkpt>
      <trkpt lat="47.42861" lon="6.65245">
        <ele>391</ele>
        <time>2016-07-24T09:06:30.000Z</time>
      </trkpt>
      <trkpt lat="47.42863" lon="6.6525">
        <ele>392</ele>
        <time>2016-07-24T09:06:32.000Z</time>
      </trkpt>
      <trkpt lat="47.42865" lon="6.65253">
        <ele>387</ele>
        <time>2016-07-24T09:06:33.000Z</time>
      </trkpt>
      <trkpt lat="47.42866" lon="6.65256">
        <ele>387</ele>
        <time>2016-07-24T09:06:34.000Z</time>
      </trkpt>
      <trkpt lat="47.42867" lon="6.6526">
        <ele>388</ele>
        <time>2016-07-24T09:06:35.000Z</time>
      </trkpt>
      <trkpt lat="47.42867" lon="6.65264">
        <ele>388</ele>
        <time>2016-07-24T09:06:36.000Z</time>
      </trkpt>
      <trkpt lat="47.42868" lon="6.65268">
        <ele>388</ele>
        <time>2016-07-24T09:06:37.000Z</time>
      </trkpt>
      <trkpt lat="47.42869" lon="6.65273">
        <ele>388</ele>
        <time>2016-07-24T09:06:38.000Z</time>
      </trkpt>
      <trkpt lat="47.42869" lon="6.65277">
        <ele>387</ele>
        <time>2016-07-24T09:06:39.000Z</time>
      </trkpt>
      <trkpt lat="47.42868" lon="6.65281">
        <ele>387</ele>
        <time>2016-07-24T09:06:40.000Z</time>
      </trkpt>
      <trkpt lat="47.42868" lon="6.65285">
        <ele>387</ele>
        <time>2016-07-24T09:06:41.000Z</time>
      </trkpt>
      <trkpt lat="47.42868" lon="6.6529">
        <ele>387</ele>
        <time>2016-07-24T09:06:43.000Z</time>
      </trkpt>
      <trkpt lat="47.42869" lon="6.65292">
        <ele>387</ele>
        <time>2016-07-24T09:06:44.000Z</time>
      </trkpt>
      <trkpt lat="47.4287" lon="6.65298">
        <ele>387</ele>
        <time>2016-07-24T09:06:47.000Z</time>
      </trkpt>
      <trkpt lat="47.42872" lon="6.653">
        <ele>387</ele>
        <time>2016-07-24T09:06:48.000Z</time>
      </trkpt>
      <trkpt lat="47.42874" lon="6.65303">
        <ele>387</ele>
        <time>2016-07-24T09:06:49.000Z</time>
      </trkpt>
      <trkpt lat="47.42875" lon="6.65305">
        <ele>387</ele>
        <time>2016-07-24T09:06:50.000Z</time>
      </trkpt>
      <trkpt lat="47.42877" lon="6.65311">
        <ele>387</ele>
        <time>2016-07-24T09:06:52.000Z</time>
      </trkpt>
      <trkpt lat="47.42877" lon="6.65315">
        <ele>387</ele>
        <time>2016-07-24T09:06:53.000Z</time>
      </trkpt>
      <trkpt lat="47.42878" lon="6.65319">
        <ele>387</ele>
        <time>2016-07-24T09:06:54.000Z</time>
      </trkpt>
      <trkpt lat="47.42879" lon="6.65323">
        <ele>387</ele>
        <time>2016-07-24T09:06:55.000Z</time>
      </trkpt>
      <trkpt lat="47.4288" lon="6.65326">
        <ele>387</ele>
        <time>2016-07-24T09:06:56.000Z</time>
      </trkpt>
      <trkpt lat="47.42881" lon="6.6533">
        <ele>388</ele>
        <time>2016-07-24T09:06:57.000Z</time>
      </trkpt>
      <trkpt lat="47.42882" lon="6.65333">
        <ele>388</ele>
        <time>2016-07-24T09:06:58.000Z</time>
      </trkpt>
      <trkpt lat="47.42883" lon="6.65336">
        <ele>384</ele>
        <time>2016-07-24T09:06:59.000Z</time>
      </trkpt>
      <trkpt lat="47.42884" lon="6.65339">
        <ele>384</ele>
        <time>2016-07-24T09:07:00.000Z</time>
      </trkpt>
      <trkpt lat="47.42885" lon="6.65342">
        <ele>384</ele>
        <time>2016-07-24T09:07:01.000Z</time>
      </trkpt>
      <trkpt lat="47.42885" lon="6.65345">
        <ele>384</ele>
        <time>2016-07-24T09:07:02.000Z</time>
      </trkpt>
      <trkpt lat="47.42885" lon="6.65349">
        <ele>384</ele>
        <time>2016-07-24T09:07:03.000Z</time>
      </trkpt>
      <trkpt lat="47.42885" lon="6.65353">
        <ele>383</ele>
        <time>2016-07-24T09:07:04.000Z</time>
      </trkpt>
      <trkpt lat="47.42885" lon="6.65357">
        <ele>383</ele>
        <time>2016-07-24T09:07:05.000Z</time>
      </trkpt>
      <trkpt lat="47.42886" lon="6.65361">
        <ele>383</ele>
        <time>2016-07-24T09:07:06.000Z</time>
      </trkpt>
      <trkpt lat="47.42886" lon="6.65364">
        <ele>383</ele>
        <time>2016-07-24T09:07:07.000Z</time>
      </trkpt>
      <trkpt lat="47.42886" lon="6.65368">
        <ele>383</ele>
        <time>2016-07-24T09:07:08.000Z</time>
      </trkpt>
      <trkpt lat="47.42887" lon="6.65372">
        <ele>383</ele>
        <time>2016-07-24T09:07:09.000Z</time>
      </trkpt>
      <trkpt lat="47.42888" lon="6.65376">
        <ele>383</ele>
        <time>2016-07-24T09:07:10.000Z</time>
      </trkpt>
      <trkpt lat="47.4289" lon="6.6538">
        <ele>383</ele>
        <time>2016-07-24T09:07:11.000Z</time>
      </trkpt>
      <trkpt lat="47.42891" lon="6.65384">
        <ele>383</ele>
        <time>2016-07-24T09:07:12.000Z</time>
      </trkpt>
      <trkpt lat="47.42893" lon="6.65387">
        <ele>383</ele>
        <time>2016-07-24T09:07:13.000Z</time>
      </trkpt>
      <trkpt lat="47.42894" lon="6.6539">
        <ele>384</ele>
        <time>2016-07-24T09:07:14.000Z</time>
      </trkpt>
      <trkpt lat="47.42896" lon="6.65392">
        <ele>384</ele>
        <time>2016-07-24T09:07:15.000Z</time>
      </trkpt>
      <trkpt lat="47.42897" lon="6.65396">
        <ele>384</ele>
        <time>2016-07-24T09:07:16.000Z</time>
      </trkpt>
      <trkpt lat="47.42898" lon="6.65399">
        <ele>385</ele>
        <time>2016-07-24T09:07:17.000Z</time>
      </trkpt>
      <trkpt lat="47.42898" lon="6.65403">
        <ele>385</ele>
        <time>2016-07-24T09:07:18.000Z</time>
      </trkpt>
      <trkpt lat="47.42899" lon="6.65407">
        <ele>386</ele>
        <time>2016-07-24T09:07:19.000Z</time>
      </trkpt>
      <trkpt lat="47.42899" lon="6.65411">
        <ele>386</ele>
        <time>2016-07-24T09:07:20.000Z</time>
      </trkpt>
      <trkpt lat="47.42899" lon="6.65415">
        <ele>387</ele>
        <time>2016-07-24T09:07:21.000Z</time>
      </trkpt>
      <trkpt lat="47.42899" lon="6.65421">
        <ele>383</ele>
        <time>2016-07-24T09:07:23.000Z</time>
      </trkpt>
      <trkpt lat="47.42899" lon="6.65425">
        <ele>383</ele>
        <time>2016-07-24T09:07:24.000Z</time>
      </trkpt>
      <trkpt lat="47.429" lon="6.65429">
        <ele>382</ele>
        <time>2016-07-24T09:07:25.000Z</time>
      </trkpt>
      <trkpt lat="47.429" lon="6.65433">
        <ele>381</ele>
        <time>2016-07-24T09:07:26.000Z</time>
      </trkpt>
      <trkpt lat="47.42901" lon="6.65437">
        <ele>381</ele>
        <time>2016-07-24T09:07:27.000Z</time>
      </trkpt>
      <trkpt lat="47.42902" lon="6.6544">
        <ele>380</ele>
        <time>2016-07-24T09:07:28.000Z</time>
      </trkpt>
      <trkpt lat="47.42903" lon="6.65443">
        <ele>380</ele>
        <time>2016-07-24T09:07:29.000Z</time>
      </trkpt>
      <trkpt lat="47.42906" lon="6.65444">
        <ele>380</ele>
        <time>2016-07-24T09:07:30.000Z</time>
      </trkpt>
      <trkpt lat="47.42908" lon="6.65446">
        <ele>380</ele>
        <time>2016-07-24T09:07:31.000Z</time>
      </trkpt>
      <trkpt lat="47.4291" lon="6.65447">
        <ele>380</ele>
        <time>2016-07-24T09:07:32.000Z</time>
      </trkpt>
      <trkpt lat="47.42912" lon="6.65449">
        <ele>380</ele>
        <time>2016-07-24T09:07:33.000Z</time>
      </trkpt>
      <trkpt lat="47.42914" lon="6.65451">
        <ele>380</ele>
        <time>2016-07-24T09:07:34.000Z</time>
      </trkpt>
      <trkpt lat="47.42917" lon="6.65454">
        <ele>391</ele>
        <time>2016-07-24T09:07:36.000Z</time>
      </trkpt>
      <trkpt lat="47.42918" lon="6.65457">
        <ele>391</ele>
        <time>2016-07-24T09:07:37.000Z</time>
      </trkpt>
      <trkpt lat="47.42921" lon="6.65461">
        <ele>391</ele>
        <time>2016-07-24T09:07:41.000Z</time>
      </trkpt>
      <trkpt lat="47.42921" lon="6.65462">
        <ele>391</ele>
        <time>2016-07-24T09:07:42.000Z</time>
      </trkpt>
      <trkpt lat="47.42924" lon="6.65468">
        <ele>390</ele>
        <time>2016-07-24T09:07:59.000Z</time>
      </trkpt>
      <trkpt lat="47.42924" lon="6.65469">
        <ele>390</ele>
        <time>2016-07-24T09:08:00.000Z</time>
      </trkpt>
      <trkpt lat="47.42924" lon="6.65475">
        <ele>390</ele>
        <time>2016-07-24T09:08:02.000Z</time>
      </trkpt>
      <trkpt lat="47.42925" lon="6.65478">
        <ele>389</ele>
        <time>2016-07-24T09:08:03.000Z</time>
      </trkpt>
      <trkpt lat="47.42925" lon="6.65481">
        <ele>389</ele>
        <time>2016-07-24T09:08:04.000Z</time>
      </trkpt>
      <trkpt lat="47.42926" lon="6.65485">
        <ele>389</ele>
        <time>2016-07-24T09:08:05.000Z</time>
      </trkpt>
      <trkpt lat="47.42926" lon="6.65488">
        <ele>388</ele>
        <time>2016-07-24T09:08:06.000Z</time>
      </trkpt>
      <trkpt lat="47.42927" lon="6.65492">
        <ele>388</ele>
        <time>2016-07-24T09:08:07.000Z</time>
      </trkpt>
      <trkpt lat="47.42927" lon="6.65496">
        <ele>388</ele>
        <time>2016-07-24T09:08:08.000Z</time>
      </trkpt>
      <trkpt lat="47.42928" lon="6.655">
        <ele>385</ele>
        <time>2016-07-24T09:08:09.000Z</time>
      </trkpt>
      <trkpt lat="47.42931" lon="6.65505">
        <ele>384</ele>
        <time>2016-07-24T09:08:11.000Z</time>
      </trkpt>
      <trkpt lat="47.42931" lon="6.65506">
        <ele>384</ele>
        <time>2016-07-24T09:08:12.000Z</time>
      </trkpt>
      <trkpt lat="47.42931" lon="6.65513">
        <ele>384</ele>
        <time>2016-07-24T09:08:28.000Z</time>
      </trkpt>
      <trkpt lat="47.42931" lon="6.65513">
        <ele>384</ele>
        <time>2016-07-24T09:08:29.000Z</time>
      </trkpt>
      <trkpt lat="47.42929" lon="6.65518">
        <ele>384</ele>
        <time>2016-07-24T09:08:33.000Z</time>
      </trkpt>
      <trkpt lat="47.42928" lon="6.6552">
        <ele>383</ele>
        <time>2016-07-24T09:08:34.000Z</time>
      </trkpt>
      <trkpt lat="47.42928" lon="6.65526">
        <ele>383</ele>
        <time>2016-07-24T09:08:37.000Z</time>
      </trkpt>
      <trkpt lat="47.42929" lon="6.65528">
        <ele>383</ele>
        <time>2016-07-24T09:08:38.000Z</time>
      </trkpt>
      <trkpt lat="47.4293" lon="6.65534">
        <ele>382</ele>
        <time>2016-07-24T09:08:45.000Z</time>
      </trkpt>
      <trkpt lat="47.4293" lon="6.65534">
        <ele>382</ele>
        <time>2016-07-24T09:08:46.000Z</time>
      </trkpt>
      <trkpt lat="47.42933" lon="6.65538">
        <ele>382</ele>
        <time>2016-07-24T09:08:50.000Z</time>
      </trkpt>
      <trkpt lat="47.42934" lon="6.65539">
        <ele>382</ele>
        <time>2016-07-24T09:08:51.000Z</time>
      </trkpt>
      <trkpt lat="47.42938" lon="6.65536">
        <ele>382</ele>
        <time>2016-07-24T09:09:15.000Z</time>
      </trkpt>
      <trkpt lat="47.42938" lon="6.65536">
        <ele>382</ele>
        <time>2016-07-24T09:09:16.000Z</time>
      </trkpt>
      <trkpt lat="47.42941" lon="6.6553">
        <ele>383</ele>
        <time>2016-07-24T09:09:25.000Z</time>
      </trkpt>
      <trkpt lat="47.42941" lon="6.6553">
        <ele>383</ele>
        <time>2016-07-24T09:09:26.000Z</time>
      </trkpt>
      <trkpt lat="47.42939" lon="6.65524">
        <ele>383</ele>
        <time>2016-07-24T09:09:46.000Z</time>
      </trkpt>
      <trkpt lat="47.42938" lon="6.65524">
        <ele>383</ele>
        <time>2016-07-24T09:09:47.000Z</time>
      </trkpt>
      <trkpt lat="47.42935" lon="6.65528">
        <ele>383</ele>
        <time>2016-07-24T09:09:50.000Z</time>
      </trkpt>
      <trkpt lat="47.42935" lon="6.6553">
        <ele>383</ele>
        <time>2016-07-24T09:09:51.000Z</time>
      </trkpt>
      <trkpt lat="47.42934" lon="6.65536">
        <ele>382</ele>
        <time>2016-07-24T09:09:56.000Z</time>
      </trkpt>
      <trkpt lat="47.42934" lon="6.65537">
        <ele>382</ele>
        <time>2016-07-24T09:09:57.000Z</time>
      </trkpt>
      <trkpt lat="47.42934" lon="6.65542">
        <ele>381</ele>
        <time>2016-07-24T09:10:00.000Z</time>
      </trkpt>
      <trkpt lat="47.42933" lon="6.65544">
        <ele>381</ele>
        <time>2016-07-24T09:10:01.000Z</time>
      </trkpt>
      <trkpt lat="47.42933" lon="6.65549">
        <ele>381</ele>
        <time>2016-07-24T09:10:03.000Z</time>
      </trkpt>
      <trkpt lat="47.42933" lon="6.65551">
        <ele>380</ele>
        <time>2016-07-24T09:10:04.000Z</time>
      </trkpt>
      <trkpt lat="47.42931" lon="6.65556">
        <ele>380</ele>
        <time>2016-07-24T09:10:06.000Z</time>
      </trkpt>
      <trkpt lat="47.42931" lon="6.65559">
        <ele>379</ele>
        <time>2016-07-24T09:10:07.000Z</time>
      </trkpt>
      <trkpt lat="47.42931" lon="6.65563">
        <ele>379</ele>
        <time>2016-07-24T09:10:08.000Z</time>
      </trkpt>
      <trkpt lat="47.4293" lon="6.65567">
        <ele>378</ele>
        <time>2016-07-24T09:10:09.000Z</time>
      </trkpt>
      <trkpt lat="47.4293" lon="6.65572">
        <ele>377</ele>
        <time>2016-07-24T09:10:10.000Z</time>
      </trkpt>
      <trkpt lat="47.4293" lon="6.65577">
        <ele>376</ele>
        <time>2016-07-24T09:10:11.000Z</time>
      </trkpt>
      <trkpt lat="47.42931" lon="6.65581">
        <ele>376</ele>
        <time>2016-07-24T09:10:12.000Z</time>
      </trkpt>
      <trkpt lat="47.42931" lon="6.65584">
        <ele>372</ele>
        <time>2016-07-24T09:10:13.000Z</time>
      </trkpt>
      <trkpt lat="47.42934" lon="6.65588">
        <ele>372</ele>
        <time>2016-07-24T09:10:16.000Z</time>
      </trkpt>
      <trkpt lat="47.42935" lon="6.6559">
        <ele>372</ele>
        <time>2016-07-24T09:10:17.000Z</time>
      </trkpt>
      <trkpt lat="47.42938" lon="6.65595">
        <ele>372</ele>
        <time>2016-07-24T09:10:20.000Z</time>
      </trkpt>
      <trkpt lat="47.42938" lon="6.65596">
        <ele>372</ele>
        <time>2016-07-24T09:10:21.000Z</time>
      </trkpt>
      <trkpt lat="47.42941" lon="6.65599">
        <ele>372</ele>
        <time>2016-07-24T09:10:26.000Z</time>
      </trkpt>
      <trkpt lat="47.42942" lon="6.656">
        <ele>372</ele>
        <time>2016-07-24T09:10:27.000Z</time>
      </trkpt>
      <trkpt lat="47.42945" lon="6.65603">
        <ele>372</ele>
        <time>2016-07-24T09:10:29.000Z</time>
      </trkpt>
      <trkpt lat="47.42946" lon="6.65603">
        <ele>373</ele>
        <time>2016-07-24T09:10:30.000Z</time>
      </trkpt>
      <trkpt lat="47.42951" lon="6.65604">
        <ele>373</ele>
        <time>2016-07-24T09:10:33.000Z</time>
      </trkpt>
      <trkpt lat="47.42952" lon="6.65606">
        <ele>373</ele>
        <time>2016-07-24T09:10:34.000Z</time>
      </trkpt>
      <trkpt lat="47.42955" lon="6.65608">
        <ele>373</ele>
        <time>2016-07-24T09:10:35.000Z</time>
      </trkpt>
      <trkpt lat="47.42957" lon="6.65609">
        <ele>373</ele>
        <time>2016-07-24T09:10:36.000Z</time>
      </trkpt>
      <trkpt lat="47.42959" lon="6.6561">
        <ele>373</ele>
        <time>2016-07-24T09:10:37.000Z</time>
      </trkpt>
      <trkpt lat="47.42962" lon="6.65611">
        <ele>374</ele>
        <time>2016-07-24T09:10:38.000Z</time>
      </trkpt>
      <trkpt lat="47.42964" lon="6.65612">
        <ele>374</ele>
        <time>2016-07-24T09:10:39.000Z</time>
      </trkpt>
      <trkpt lat="47.42967" lon="6.65612">
        <ele>374</ele>
        <time>2016-07-24T09:10:40.000Z</time>
      </trkpt>
      <trkpt lat="47.42969" lon="6.65613">
        <ele>374</ele>
        <time>2016-07-24T09:10:41.000Z</time>
      </trkpt>
      <trkpt lat="47.42971" lon="6.65614">
        <ele>374</ele>
        <time>2016-07-24T09:10:42.000Z</time>
      </trkpt>
      <trkpt lat="47.42975" lon="6.65616">
        <ele>375</ele>
        <time>2016-07-24T09:10:44.000Z</time>
      </trkpt>
      <trkpt lat="47.42977" lon="6.65616">
        <ele>375</ele>
        <time>2016-07-24T09:10:45.000Z</time>
      </trkpt>
      <trkpt lat="47.4298" lon="6.65617">
        <ele>375</ele>
        <time>2016-07-24T09:10:47.000Z</time>
      </trkpt>
      <trkpt lat="47.42982" lon="6.65618">
        <ele>375</ele>
        <time>2016-07-24T09:10:48.000Z</time>
      </trkpt>
      <trkpt lat="47.42986" lon="6.6562">
        <ele>375</ele>
        <time>2016-07-24T09:10:50.000Z</time>
      </trkpt>
      <trkpt lat="47.42988" lon="6.65622">
        <ele>375</ele>
        <time>2016-07-24T09:10:51.000Z</time>
      </trkpt>
      <trkpt lat="47.42992" lon="6.65622">
        <ele>375</ele>
        <time>2016-07-24T09:10:54.000Z</time>
      </trkpt>
      <trkpt lat="47.42996" lon="6.65622">
        <ele>376</ele>
        <time>2016-07-24T09:10:55.000Z</time>
      </trkpt>
      <trkpt lat="47.43" lon="6.65621">
        <ele>376</ele>
        <time>2016-07-24T09:10:57.000Z</time>
      </trkpt>
      <trkpt lat="47.43001" lon="6.65621">
        <ele>380</ele>
        <time>2016-07-24T09:10:58.000Z</time>
      </trkpt>
      <trkpt lat="47.43005" lon="6.65619">
        <ele>380</ele>
        <time>2016-07-24T09:11:03.000Z</time>
      </trkpt>
      <trkpt lat="47.43006" lon="6.65619">
        <ele>380</ele>
        <time>2016-07-24T09:11:04.000Z</time>
      </trkpt>
      <trkpt lat="47.4301" lon="6.65619">
        <ele>380</ele>
        <time>2016-07-24T09:11:21.000Z</time>
      </trkpt>
      <trkpt lat="47.43011" lon="6.6562">
        <ele>380</ele>
        <time>2016-07-24T09:11:22.000Z</time>
      </trkpt>
      <trkpt lat="47.43014" lon="6.65622">
        <ele>380</ele>
        <time>2016-07-24T09:11:26.000Z</time>
      </trkpt>
      <trkpt lat="47.43015" lon="6.65622">
        <ele>380</ele>
        <time>2016-07-24T09:11:27.000Z</time>
      </trkpt>
      <trkpt lat="47.43018" lon="6.65626">
        <ele>380</ele>
        <time>2016-07-24T09:11:31.000Z</time>
      </trkpt>
      <trkpt lat="47.43019" lon="6.65627">
        <ele>380</ele>
        <time>2016-07-24T09:11:32.000Z</time>
      </trkpt>
      <trkpt lat="47.43023" lon="6.65629">
        <ele>380</ele>
        <time>2016-07-24T09:11:35.000Z</time>
      </trkpt>
      <trkpt lat="47.43024" lon="6.65629">
        <ele>380</ele>
        <time>2016-07-24T09:11:36.000Z</time>
      </trkpt>
      <trkpt lat="47.43028" lon="6.65632">
        <ele>380</ele>
        <time>2016-07-24T09:11:39.000Z</time>
      </trkpt>
      <trkpt lat="47.4303" lon="6.65632">
        <ele>379</ele>
        <time>2016-07-24T09:11:40.000Z</time>
      </trkpt>
      <trkpt lat="47.43033" lon="6.65633">
        <ele>379</ele>
        <time>2016-07-24T09:11:42.000Z</time>
      </trkpt>
      <trkpt lat="47.43034" lon="6.65633">
        <ele>379</ele>
        <time>2016-07-24T09:11:43.000Z</time>
      </trkpt>
      <trkpt lat="47.43038" lon="6.65633">
        <ele>379</ele>
        <time>2016-07-24T09:11:45.000Z</time>
      </trkpt>
      <trkpt lat="47.43041" lon="6.65634">
        <ele>379</ele>
        <time>2016-07-24T09:11:46.000Z</time>
      </trkpt>
      <trkpt lat="47.43043" lon="6.65635">
        <ele>379</ele>
        <time>2016-07-24T09:11:47.000Z</time>
      </trkpt>
      <trkpt lat="47.43046" lon="6.65636">
        <ele>379</ele>
        <time>2016-07-24T09:11:48.000Z</time>
      </trkpt>
      <trkpt lat="47.43049" lon="6.65637">
        <ele>379</ele>
        <time>2016-07-24T09:11:49.000Z</time>
      </trkpt>
      <trkpt lat="47.43052" lon="6.65637">
        <ele>379</ele>
        <time>2016-07-24T09:11:50.000Z</time>
      </trkpt>
      <trkpt lat="47.43055" lon="6.65637">
        <ele>379</ele>
        <time>2016-07-24T09:11:51.000Z</time>
      </trkpt>
      <trkpt lat="47.43058" lon="6.65638">
        <ele>379</ele>
        <time>2016-07-24T09:11:52.000Z</time>
      </trkpt>
      <trkpt lat="47.43061" lon="6.65638">
        <ele>379</ele>
        <time>2016-07-24T09:11:53.000Z</time>
      </trkpt>
      <trkpt lat="47.43064" lon="6.65638">
        <ele>379</ele>
        <time>2016-07-24T09:11:54.000Z</time>
      </trkpt>
      <trkpt lat="47.43067" lon="6.65638">
        <ele>379</ele>
        <time>2016-07-24T09:11:55.000Z</time>
      </trkpt>
      <trkpt lat="47.43071" lon="6.65638">
        <ele>379</ele>
        <time>2016-07-24T09:11:56.000Z</time>
      </trkpt>
      <trkpt lat="47.43074" lon="6.65638">
        <ele>379</ele>
        <time>2016-07-24T09:11:57.000Z</time>
      </trkpt>
      <trkpt lat="47.43077" lon="6.65637">
        <ele>379</ele>
        <time>2016-07-24T09:11:58.000Z</time>
      </trkpt>
      <trkpt lat="47.4308" lon="6.65636">
        <ele>379</ele>
        <time>2016-07-24T09:11:59.000Z</time>
      </trkpt>
      <trkpt lat="47.43083" lon="6.65636">
        <ele>379</ele>
        <time>2016-07-24T09:12:00.000Z</time>
      </trkpt>
      <trkpt lat="47.43085" lon="6.65637">
        <ele>377</ele>
        <time>2016-07-24T09:12:01.000Z</time>
      </trkpt>
      <trkpt lat="47.43089" lon="6.65637">
        <ele>377</ele>
        <time>2016-07-24T09:12:02.000Z</time>
      </trkpt>
      <trkpt lat="47.43092" lon="6.65638">
        <ele>377</ele>
        <time>2016-07-24T09:12:03.000Z</time>
      </trkpt>
      <trkpt lat="47.43096" lon="6.65637">
        <ele>376</ele>
        <time>2016-07-24T09:12:04.000Z</time>
      </trkpt>
      <trkpt lat="47.431" lon="6.65636">
        <ele>376</ele>
        <time>2016-07-24T09:12:05.000Z</time>
      </trkpt>
      <trkpt lat="47.43104" lon="6.65633">
        <ele>376</ele>
        <time>2016-07-24T09:12:06.000Z</time>
      </trkpt>
      <trkpt lat="47.43109" lon="6.6563">
        <ele>376</ele>
        <time>2016-07-24T09:12:07.000Z</time>
      </trkpt>
      <trkpt lat="47.43114" lon="6.65628">
        <ele>376</ele>
        <time>2016-07-24T09:12:08.000Z</time>
      </trkpt>
      <trkpt lat="47.4312" lon="6.65627">
        <ele>375</ele>
        <time>2016-07-24T09:12:09.000Z</time>
      </trkpt>
      <trkpt lat="47.43137" lon="6.65625">
        <ele>375</ele>
        <time>2016-07-24T09:12:10.000Z</time>
      </trkpt>
      <trkpt lat="47.43143" lon="6.65624">
        <ele>375</ele>
        <time>2016-07-24T09:12:11.000Z</time>
      </trkpt>
      <trkpt lat="47.43149" lon="6.65622">
        <ele>374</ele>
        <time>2016-07-24T09:12:12.000Z</time>
      </trkpt>
      <trkpt lat="47.43152" lon="6.65623">
        <ele>374</ele>
        <time>2016-07-24T09:12:13.000Z</time>
      </trkpt>
      <trkpt lat="47.43159" lon="6.6562">
        <ele>374</ele>
        <time>2016-07-24T09:12:14.000Z</time>
      </trkpt>
      <trkpt lat="47.43165" lon="6.65618">
        <ele>374</ele>
        <time>2016-07-24T09:12:15.000Z</time>
      </trkpt>
      <trkpt lat="47.43171" lon="6.65617">
        <ele>371</ele>
        <time>2016-07-24T09:12:16.000Z</time>
      </trkpt>
      <trkpt lat="47.43174" lon="6.6561">
        <ele>371</ele>
        <time>2016-07-24T09:12:17.000Z</time>
      </trkpt>
      <trkpt lat="47.43182" lon="6.65603">
        <ele>371</ele>
        <time>2016-07-24T09:12:18.000Z</time>
      </trkpt>
      <trkpt lat="47.43187" lon="6.656">
        <ele>370</ele>
        <time>2016-07-24T09:12:19.000Z</time>
      </trkpt>
      <trkpt lat="47.4319" lon="6.656">
        <ele>370</ele>
        <time>2016-07-24T09:12:20.000Z</time>
      </trkpt>
      <trkpt lat="47.43195" lon="6.65598">
        <ele>370</ele>
        <time>2016-07-24T09:12:21.000Z</time>
      </trkpt>
      <trkpt lat="47.43198" lon="6.65598">
        <ele>370</ele>
        <time>2016-07-24T09:12:22.000Z</time>
      </trkpt>
      <trkpt lat="47.43203" lon="6.65596">
        <ele>370</ele>
        <time>2016-07-24T09:12:23.000Z</time>
      </trkpt>
      <trkpt lat="47.43208" lon="6.65593">
        <ele>370</ele>
        <time>2016-07-24T09:12:24.000Z</time>
      </trkpt>
      <trkpt lat="47.43213" lon="6.65593">
        <ele>370</ele>
        <time>2016-07-24T09:12:25.000Z</time>
      </trkpt>
      <trkpt lat="47.43216" lon="6.65592">
        <ele>370</ele>
        <time>2016-07-24T09:12:26.000Z</time>
      </trkpt>
      <trkpt lat="47.43223" lon="6.65587">
        <ele>370</ele>
        <time>2016-07-24T09:12:27.000Z</time>
      </trkpt>
      <trkpt lat="47.43229" lon="6.65581">
        <ele>369</ele>
        <time>2016-07-24T09:12:28.000Z</time>
      </trkpt>
      <trkpt lat="47.43234" lon="6.65576">
        <ele>368</ele>
        <time>2016-07-24T09:12:29.000Z</time>
      </trkpt>
      <trkpt lat="47.43239" lon="6.65572">
        <ele>368</ele>
        <time>2016-07-24T09:12:30.000Z</time>
      </trkpt>
      <trkpt lat="47.43245" lon="6.65568">
        <ele>368</ele>
        <time>2016-07-24T09:12:31.000Z</time>
      </trkpt>
      <trkpt lat="47.4325" lon="6.65564">
        <ele>368</ele>
        <time>2016-07-24T09:12:32.000Z</time>
      </trkpt>
      <trkpt lat="47.43256" lon="6.6556">
        <ele>366</ele>
        <time>2016-07-24T09:12:33.000Z</time>
      </trkpt>
      <trkpt lat="47.43261" lon="6.65556">
        <ele>366</ele>
        <time>2016-07-24T09:12:34.000Z</time>
      </trkpt>
      <trkpt lat="47.43265" lon="6.65553">
        <ele>366</ele>
        <time>2016-07-24T09:12:35.000Z</time>
      </trkpt>
      <trkpt lat="47.43269" lon="6.65549">
        <ele>365</ele>
        <time>2016-07-24T09:12:36.000Z</time>
      </trkpt>
      <trkpt lat="47.43273" lon="6.65546">
        <ele>365</ele>
        <time>2016-07-24T09:12:37.000Z</time>
      </trkpt>
      <trkpt lat="47.43276" lon="6.65544">
        <ele>365</ele>
        <time>2016-07-24T09:12:38.000Z</time>
      </trkpt>
      <trkpt lat="47.43279" lon="6.6554">
        <ele>365</ele>
        <time>2016-07-24T09:12:39.000Z</time>
      </trkpt>
      <trkpt lat="47.43282" lon="6.65538">
        <ele>365</ele>
        <time>2016-07-24T09:12:40.000Z</time>
      </trkpt>
      <trkpt lat="47.43284" lon="6.65535">
        <ele>365</ele>
        <time>2016-07-24T09:12:41.000Z</time>
      </trkpt>
      <trkpt lat="47.43286" lon="6.65533">
        <ele>365</ele>
        <time>2016-07-24T09:12:42.000Z</time>
      </trkpt>
      <trkpt lat="47.43288" lon="6.65527">
        <ele>364</ele>
        <time>2016-07-24T09:12:44.000Z</time>
      </trkpt>
      <trkpt lat="47.43289" lon="6.65524">
        <ele>364</ele>
        <time>2016-07-24T09:12:45.000Z</time>
      </trkpt>
      <trkpt lat="47.43289" lon="6.65518">
        <ele>364</ele>
        <time>2016-07-24T09:12:48.000Z</time>
      </trkpt>
      <trkpt lat="47.43289" lon="6.65517">
        <ele>364</ele>
        <time>2016-07-24T09:12:49.000Z</time>
      </trkpt>
      <trkpt lat="47.43292" lon="6.65514">
        <ele>364</ele>
        <time>2016-07-24T09:14:43.000Z</time>
      </trkpt>
      <trkpt lat="47.43293" lon="6.65513">
        <ele>364</ele>
        <time>2016-07-24T09:14:44.000Z</time>
      </trkpt>
      <trkpt lat="47.43296" lon="6.6551">
        <ele>364</ele>
        <time>2016-07-24T09:14:46.000Z</time>
      </trkpt>
      <trkpt lat="47.43297" lon="6.65509">
        <ele>364</ele>
        <time>2016-07-24T09:14:47.000Z</time>
      </trkpt>
      <trkpt lat="47.43299" lon="6.65507">
        <ele>363</ele>
        <time>2016-07-24T09:14:48.000Z</time>
      </trkpt>
      <trkpt lat="47.43301" lon="6.65505">
        <ele>363</ele>
        <time>2016-07-24T09:14:49.000Z</time>
      </trkpt>
      <trkpt lat="47.43304" lon="6.65503">
        <ele>363</ele>
        <time>2016-07-24T09:14:50.000Z</time>
      </trkpt>
      <trkpt lat="47.43307" lon="6.65501">
        <ele>363</ele>
        <time>2016-07-24T09:14:51.000Z</time>
      </trkpt>
      <trkpt lat="47.4331" lon="6.65499">
        <ele>363</ele>
        <time>2016-07-24T09:14:52.000Z</time>
      </trkpt>
      <trkpt lat="47.43313" lon="6.65495">
        <ele>362</ele>
        <time>2016-07-24T09:14:53.000Z</time>
      </trkpt>
      <trkpt lat="47.4332" lon="6.65481">
        <ele>362</ele>
        <time>2016-07-24T09:14:54.000Z</time>
      </trkpt>
      <trkpt lat="47.43325" lon="6.65474">
        <ele>363</ele>
        <time>2016-07-24T09:14:55.000Z</time>
      </trkpt>
      <trkpt lat="47.4333" lon="6.65469">
        <ele>363</ele>
        <time>2016-07-24T09:14:56.000Z</time>
      </trkpt>
      <trkpt lat="47.43336" lon="6.65463">
        <ele>355</ele>
        <time>2016-07-24T09:14:57.000Z</time>
      </trkpt>
      <trkpt lat="47.43341" lon="6.65458">
        <ele>355</ele>
        <time>2016-07-24T09:14:58.000Z</time>
      </trkpt>
      <trkpt lat="47.43346" lon="6.65454">
        <ele>355</ele>
        <time>2016-07-24T09:14:59.000Z</time>
      </trkpt>
      <trkpt lat="47.43351" lon="6.65448">
        <ele>355</ele>
        <time>2016-07-24T09:15:00.000Z</time>
      </trkpt>
      <trkpt lat="47.43357" lon="6.65442">
        <ele>355</ele>
        <time>2016-07-24T09:15:01.000Z</time>
      </trkpt>
      <trkpt lat="47.43363" lon="6.65435">
        <ele>355</ele>
        <time>2016-07-24T09:15:02.000Z</time>
      </trkpt>
      <trkpt lat="47.43368" lon="6.65431">
        <ele>354</ele>
        <time>2016-07-24T09:15:03.000Z</time>
      </trkpt>
      <trkpt lat="47.43374" lon="6.65425">
        <ele>354</ele>
        <time>2016-07-24T09:15:04.000Z</time>
      </trkpt>
      <trkpt lat="47.43381" lon="6.65421">
        <ele>353</ele>
        <time>2016-07-24T09:15:05.000Z</time>
      </trkpt>
      <trkpt lat="47.43386" lon="6.65417">
        <ele>352</ele>
        <time>2016-07-24T09:15:06.000Z</time>
      </trkpt>
      <trkpt lat="47.43392" lon="6.65413">
        <ele>358</ele>
        <time>2016-07-24T09:15:07.000Z</time>
      </trkpt>
      <trkpt lat="47.43398" lon="6.6541">
        <ele>356</ele>
        <time>2016-07-24T09:15:08.000Z</time>
      </trkpt>
      <trkpt lat="47.43404" lon="6.65407">
        <ele>356</ele>
        <time>2016-07-24T09:15:09.000Z</time>
      </trkpt>
      <trkpt lat="47.43412" lon="6.65405">
        <ele>354</ele>
        <time>2016-07-24T09:15:10.000Z</time>
      </trkpt>
      <trkpt lat="47.43418" lon="6.65406">
        <ele>350</ele>
        <time>2016-07-24T09:15:11.000Z</time>
      </trkpt>
      <trkpt lat="47.43425" lon="6.65407">
        <ele>350</ele>
        <time>2016-07-24T09:15:12.000Z</time>
      </trkpt>
      <trkpt lat="47.43431" lon="6.65409">
        <ele>350</ele>
        <time>2016-07-24T09:15:13.000Z</time>
      </trkpt>
      <trkpt lat="47.43438" lon="6.65414">
        <ele>350</ele>
        <time>2016-07-24T09:15:14.000Z</time>
      </trkpt>
      <trkpt lat="47.43442" lon="6.65422">
        <ele>344</ele>
        <time>2016-07-24T09:15:15.000Z</time>
      </trkpt>
      <trkpt lat="47.43447" lon="6.65424">
        <ele>343</ele>
        <time>2016-07-24T09:15:16.000Z</time>
      </trkpt>
      <trkpt lat="47.43453" lon="6.65426">
        <ele>343</ele>
        <time>2016-07-24T09:15:17.000Z</time>
      </trkpt>
      <trkpt lat="47.43458" lon="6.65428">
        <ele>342</ele>
        <time>2016-07-24T09:15:18.000Z</time>
      </trkpt>
      <trkpt lat="47.43465" lon="6.65429">
        <ele>342</ele>
        <time>2016-07-24T09:15:19.000Z</time>
      </trkpt>
      <trkpt lat="47.4347" lon="6.65427">
        <ele>342</ele>
        <time>2016-07-24T09:15:20.000Z</time>
      </trkpt>
      <trkpt lat="47.43476" lon="6.65427">
        <ele>341</ele>
        <time>2016-07-24T09:15:21.000Z</time>
      </trkpt>
      <trkpt lat="47.4348" lon="6.65424">
        <ele>341</ele>
        <time>2016-07-24T09:15:22.000Z</time>
      </trkpt>
      <trkpt lat="47.43485" lon="6.65421">
        <ele>341</ele>
        <time>2016-07-24T09:15:23.000Z</time>
      </trkpt>
      <trkpt lat="47.4349" lon="6.65417">
        <ele>344</ele>
        <time>2016-07-24T09:15:24.000Z</time>
      </trkpt>
      <trkpt lat="47.43495" lon="6.65412">
        <ele>343</ele>
        <time>2016-07-24T09:15:25.000Z</time>
      </trkpt>
      <trkpt lat="47.43499" lon="6.65408">
        <ele>343</ele>
        <time>2016-07-24T09:15:26.000Z</time>
      </trkpt>
      <trkpt lat="47.43504" lon="6.65403">
        <ele>341</ele>
        <time>2016-07-24T09:15:27.000Z</time>
      </trkpt>
      <trkpt lat="47.43508" lon="6.65399">
        <ele>342</ele>
        <time>2016-07-24T09:15:28.000Z</time>
      </trkpt>
      <trkpt lat="47.43512" lon="6.65395">
        <ele>342</ele>
        <time>2016-07-24T09:15:29.000Z</time>
      </trkpt>
      <trkpt lat="47.43516" lon="6.6539">
        <ele>342</ele>
        <time>2016-07-24T09:15:30.000Z</time>
      </trkpt>
      <trkpt lat="47.4352" lon="6.65385">
        <ele>342</ele>
        <time>2016-07-24T09:15:31.000Z</time>
      </trkpt>
      <trkpt lat="47.43524" lon="6.65381">
        <ele>342</ele>
        <time>2016-07-24T09:15:32.000Z</time>
      </trkpt>
      <trkpt lat="47.43528" lon="6.65376">
        <ele>343</ele>
        <time>2016-07-24T09:15:33.000Z</time>
      </trkpt>
      <trkpt lat="47.43532" lon="6.65372">
        <ele>343</ele>
        <time>2016-07-24T09:15:34.000Z</time>
      </trkpt>
      <trkpt lat="47.43536" lon="6.65369">
        <ele>343</ele>
        <time>2016-07-24T09:15:35.000Z</time>
      </trkpt>
      <trkpt lat="47.43541" lon="6.65365">
        <ele>343</ele>
        <time>2016-07-24T09:15:36.000Z</time>
      </trkpt>
      <trkpt lat="47.43545" lon="6.65358">
        <ele>343</ele>
        <time>2016-07-24T09:15:37.000Z</time>
      </trkpt>
      <trkpt lat="47.43549" lon="6.65353">
        <ele>343</ele>
        <time>2016-07-24T09:15:38.000Z</time>
      </trkpt>
      <trkpt lat="47.43555" lon="6.6535">
        <ele>342</ele>
        <time>2016-07-24T09:15:39.000Z</time>
      </trkpt>
      <trkpt lat="47.43559" lon="6.65345">
        <ele>342</ele>
        <time>2016-07-24T09:15:40.000Z</time>
      </trkpt>
      <trkpt lat="47.43564" lon="6.65339">
        <ele>342</ele>
        <time>2016-07-24T09:15:41.000Z</time>
      </trkpt>
      <trkpt lat="47.43569" lon="6.65334">
        <ele>342</ele>
        <time>2016-07-24T09:15:42.000Z</time>
      </trkpt>
      <trkpt lat="47.43575" lon="6.65328">
        <ele>344</ele>
        <time>2016-07-24T09:15:43.000Z</time>
      </trkpt>
      <trkpt lat="47.43579" lon="6.65323">
        <ele>344</ele>
        <time>2016-07-24T09:15:44.000Z</time>
      </trkpt>
      <trkpt lat="47.43584" lon="6.65318">
        <ele>342</ele>
        <time>2016-07-24T09:15:45.000Z</time>
      </trkpt>
      <trkpt lat="47.43589" lon="6.65311">
        <ele>342</ele>
        <time>2016-07-24T09:15:46.000Z</time>
      </trkpt>
      <trkpt lat="47.43593" lon="6.65304">
        <ele>342</ele>
        <time>2016-07-24T09:15:47.000Z</time>
      </trkpt>
      <trkpt lat="47.43597" lon="6.65298">
        <ele>342</ele>
        <time>2016-07-24T09:15:48.000Z</time>
      </trkpt>
      <trkpt lat="47.43602" lon="6.65295">
        <ele>342</ele>
        <time>2016-07-24T09:15:49.000Z</time>
      </trkpt>
      <trkpt lat="47.43608" lon="6.65291">
        <ele>342</ele>
        <time>2016-07-24T09:15:50.000Z</time>
      </trkpt>
      <trkpt lat="47.43614" lon="6.65289">
        <ele>342</ele>
        <time>2016-07-24T09:15:51.000Z</time>
      </trkpt>
      <trkpt lat="47.43619" lon="6.65288">
        <ele>342</ele>
        <time>2016-07-24T09:15:52.000Z</time>
      </trkpt>
      <trkpt lat="47.43624" lon="6.65287">
        <ele>342</ele>
        <time>2016-07-24T09:15:53.000Z</time>
      </trkpt>
      <trkpt lat="47.43628" lon="6.65286">
        <ele>342</ele>
        <time>2016-07-24T09:15:54.000Z</time>
      </trkpt>
      <trkpt lat="47.43634" lon="6.65285">
        <ele>342</ele>
        <time>2016-07-24T09:15:55.000Z</time>
      </trkpt>
      <trkpt lat="47.4364" lon="6.65284">
        <ele>342</ele>
        <time>2016-07-24T09:15:56.000Z</time>
      </trkpt>
      <trkpt lat="47.43646" lon="6.65284">
        <ele>341</ele>
        <time>2016-07-24T09:15:57.000Z</time>
      </trkpt>
      <trkpt lat="47.43651" lon="6.65284">
        <ele>341</ele>
        <time>2016-07-24T09:15:58.000Z</time>
      </trkpt>
      <trkpt lat="47.43655" lon="6.65284">
        <ele>341</ele>
        <time>2016-07-24T09:15:59.000Z</time>
      </trkpt>
      <trkpt lat="47.4366" lon="6.65283">
        <ele>341</ele>
        <time>2016-07-24T09:16:00.000Z</time>
      </trkpt>
      <trkpt lat="47.43664" lon="6.6528">
        <ele>341</ele>
        <time>2016-07-24T09:16:01.000Z</time>
      </trkpt>
      <trkpt lat="47.43667" lon="6.65278">
        <ele>338</ele>
        <time>2016-07-24T09:16:02.000Z</time>
      </trkpt>
      <trkpt lat="47.43672" lon="6.65275">
        <ele>338</ele>
        <time>2016-07-24T09:16:03.000Z</time>
      </trkpt>
      <trkpt lat="47.43679" lon="6.65274">
        <ele>338</ele>
        <time>2016-07-24T09:16:04.000Z</time>
      </trkpt>
      <trkpt lat="47.43684" lon="6.65271">
        <ele>338</ele>
        <time>2016-07-24T09:16:05.000Z</time>
      </trkpt>
      <trkpt lat="47.43688" lon="6.65268">
        <ele>338</ele>
        <time>2016-07-24T09:16:06.000Z</time>
      </trkpt>
      <trkpt lat="47.43691" lon="6.65264">
        <ele>338</ele>
        <time>2016-07-24T09:16:07.000Z</time>
      </trkpt>
      <trkpt lat="47.43695" lon="6.6526">
        <ele>338</ele>
        <time>2016-07-24T09:16:08.000Z</time>
      </trkpt>
      <trkpt lat="47.43699" lon="6.65258">
        <ele>338</ele>
        <time>2016-07-24T09:16:09.000Z</time>
      </trkpt>
      <trkpt lat="47.43702" lon="6.65255">
        <ele>338</ele>
        <time>2016-07-24T09:16:10.000Z</time>
      </trkpt>
      <trkpt lat="47.43706" lon="6.65252">
        <ele>338</ele>
        <time>2016-07-24T09:16:11.000Z</time>
      </trkpt>
      <trkpt lat="47.43709" lon="6.65248">
        <ele>342</ele>
        <time>2016-07-24T09:16:12.000Z</time>
      </trkpt>
      <trkpt lat="47.43713" lon="6.65243">
        <ele>342</ele>
        <time>2016-07-24T09:16:13.000Z</time>
      </trkpt>
      <trkpt lat="47.43717" lon="6.6524">
        <ele>342</ele>
        <time>2016-07-24T09:16:14.000Z</time>
      </trkpt>
      <trkpt lat="47.43721" lon="6.65237">
        <ele>342</ele>
        <time>2016-07-24T09:16:15.000Z</time>
      </trkpt>
      <trkpt lat="47.43725" lon="6.65232">
        <ele>342</ele>
        <time>2016-07-24T09:16:16.000Z</time>
      </trkpt>
      <trkpt lat="47.43728" lon="6.65231">
        <ele>342</ele>
        <time>2016-07-24T09:16:17.000Z</time>
      </trkpt>
      <trkpt lat="47.43731" lon="6.65232">
        <ele>342</ele>
        <time>2016-07-24T09:16:18.000Z</time>
      </trkpt>
      <trkpt lat="47.43734" lon="6.6523">
        <ele>342</ele>
        <time>2016-07-24T09:16:19.000Z</time>
      </trkpt>
      <trkpt lat="47.4374" lon="6.65225">
        <ele>342</ele>
        <time>2016-07-24T09:16:20.000Z</time>
      </trkpt>
      <trkpt lat="47.43744" lon="6.65222">
        <ele>342</ele>
        <time>2016-07-24T09:16:21.000Z</time>
      </trkpt>
      <trkpt lat="47.43749" lon="6.65215">
        <ele>342</ele>
        <time>2016-07-24T09:16:22.000Z</time>
      </trkpt>
      <trkpt lat="47.43755" lon="6.65208">
        <ele>334</ele>
        <time>2016-07-24T09:16:23.000Z</time>
      </trkpt>
      <trkpt lat="47.4376" lon="6.65202">
        <ele>334</ele>
        <time>2016-07-24T09:16:24.000Z</time>
      </trkpt>
      <trkpt lat="47.43766" lon="6.65192">
        <ele>334</ele>
        <time>2016-07-24T09:16:25.000Z</time>
      </trkpt>
      <trkpt lat="47.43772" lon="6.65179">
        <ele>334</ele>
        <time>2016-07-24T09:16:26.000Z</time>
      </trkpt>
      <trkpt lat="47.4378" lon="6.6517">
        <ele>334</ele>
        <time>2016-07-24T09:16:27.000Z</time>
      </trkpt>
      <trkpt lat="47.43785" lon="6.65162">
        <ele>336</ele>
        <time>2016-07-24T09:16:28.000Z</time>
      </trkpt>
      <trkpt lat="47.43792" lon="6.65155">
        <ele>336</ele>
        <time>2016-07-24T09:16:29.000Z</time>
      </trkpt>
      <trkpt lat="47.43798" lon="6.65149">
        <ele>335</ele>
        <time>2016-07-24T09:16:30.000Z</time>
      </trkpt>
      <trkpt lat="47.43806" lon="6.65139">
        <ele>335</ele>
        <time>2016-07-24T09:16:31.000Z</time>
      </trkpt>
      <trkpt lat="47.4382" lon="6.65121">
        <ele>335</ele>
        <time>2016-07-24T09:16:33.000Z</time>
      </trkpt>
      <trkpt lat="47.43826" lon="6.65113">
        <ele>335</ele>
        <time>2016-07-24T09:16:34.000Z</time>
      </trkpt>
      <trkpt lat="47.43833" lon="6.65106">
        <ele>335</ele>
        <time>2016-07-24T09:16:35.000Z</time>
      </trkpt>
      <trkpt lat="47.43839" lon="6.65098">
        <ele>328</ele>
        <time>2016-07-24T09:16:36.000Z</time>
      </trkpt>
      <trkpt lat="47.43846" lon="6.65092">
        <ele>328</ele>
        <time>2016-07-24T09:16:37.000Z</time>
      </trkpt>
      <trkpt lat="47.43853" lon="6.65086">
        <ele>327</ele>
        <time>2016-07-24T09:16:38.000Z</time>
      </trkpt>
      <trkpt lat="47.4386" lon="6.65079">
        <ele>330</ele>
        <time>2016-07-24T09:16:39.000Z</time>
      </trkpt>
      <trkpt lat="47.43866" lon="6.65072">
        <ele>330</ele>
        <time>2016-07-24T09:16:40.000Z</time>
      </trkpt>
      <trkpt lat="47.43872" lon="6.65063">
        <ele>329</ele>
        <time>2016-07-24T09:16:41.000Z</time>
      </trkpt>
      <trkpt lat="47.43878" lon="6.65057">
        <ele>328</ele>
        <time>2016-07-24T09:16:42.000Z</time>
      </trkpt>
      <trkpt lat="47.43884" lon="6.65051">
        <ele>328</ele>
        <time>2016-07-24T09:16:43.000Z</time>
      </trkpt>
      <trkpt lat="47.43891" lon="6.65045">
        <ele>328</ele>
        <time>2016-07-24T09:16:44.000Z</time>
      </trkpt>
      <trkpt lat="47.43897" lon="6.65037">
        <ele>328</ele>
        <time>2016-07-24T09:16:45.000Z</time>
      </trkpt>
      <trkpt lat="47.43902" lon="6.65025">
        <ele>328</ele>
        <time>2016-07-24T09:16:46.000Z</time>
      </trkpt>
      <trkpt lat="47.4391" lon="6.65018">
        <ele>328</ele>
        <time>2016-07-24T09:16:47.000Z</time>
      </trkpt>
      <trkpt lat="47.43918" lon="6.65011">
        <ele>323</ele>
        <time>2016-07-24T09:16:48.000Z</time>
      </trkpt>
      <trkpt lat="47.43923" lon="6.65003">
        <ele>324</ele>
        <time>2016-07-24T09:16:49.000Z</time>
      </trkpt>
      <trkpt lat="47.43929" lon="6.64995">
        <ele>325</ele>
        <time>2016-07-24T09:16:50.000Z</time>
      </trkpt>
      <trkpt lat="47.43935" lon="6.64989">
        <ele>325</ele>
        <time>2016-07-24T09:16:51.000Z</time>
      </trkpt>
      <trkpt lat="47.43941" lon="6.6498">
        <ele>324</ele>
        <time>2016-07-24T09:16:52.000Z</time>
      </trkpt>
      <trkpt lat="47.43947" lon="6.64971">
        <ele>324</ele>
        <time>2016-07-24T09:16:53.000Z</time>
      </trkpt>
      <trkpt lat="47.43953" lon="6.64963">
        <ele>324</ele>
        <time>2016-07-24T09:16:54.000Z</time>
      </trkpt>
      <trkpt lat="47.43958" lon="6.64955">
        <ele>323</ele>
        <time>2016-07-24T09:16:55.000Z</time>
      </trkpt>
      <trkpt lat="47.43964" lon="6.64946">
        <ele>323</ele>
        <time>2016-07-24T09:16:56.000Z</time>
      </trkpt>
      <trkpt lat="47.43972" lon="6.6494">
        <ele>322</ele>
        <time>2016-07-24T09:16:57.000Z</time>
      </trkpt>
      <trkpt lat="47.43978" lon="6.64935">
        <ele>322</ele>
        <time>2016-07-24T09:16:58.000Z</time>
      </trkpt>
      <trkpt lat="47.43984" lon="6.64929">
        <ele>321</ele>
        <time>2016-07-24T09:16:59.000Z</time>
      </trkpt>
      <trkpt lat="47.43991" lon="6.64921">
        <ele>319</ele>
        <time>2016-07-24T09:17:00.000Z</time>
      </trkpt>
      <trkpt lat="47.43997" lon="6.64914">
        <ele>319</ele>
        <time>2016-07-24T09:17:01.000Z</time>
      </trkpt>
      <trkpt lat="47.44003" lon="6.64907">
        <ele>317</ele>
        <time>2016-07-24T09:17:02.000Z</time>
      </trkpt>
      <trkpt lat="47.44009" lon="6.64898">
        <ele>317</ele>
        <time>2016-07-24T09:17:03.000Z</time>
      </trkpt>
      <trkpt lat="47.44015" lon="6.64889">
        <ele>317</ele>
        <time>2016-07-24T09:17:04.000Z</time>
      </trkpt>
      <trkpt lat="47.4402" lon="6.64882">
        <ele>317</ele>
        <time>2016-07-24T09:17:05.000Z</time>
      </trkpt>
      <trkpt lat="47.44024" lon="6.64873">
        <ele>318</ele>
        <time>2016-07-24T09:17:06.000Z</time>
      </trkpt>
      <trkpt lat="47.44029" lon="6.64866">
        <ele>318</ele>
        <time>2016-07-24T09:17:07.000Z</time>
      </trkpt>
      <trkpt lat="47.44032" lon="6.6486">
        <ele>318</ele>
        <time>2016-07-24T09:17:08.000Z</time>
      </trkpt>
      <trkpt lat="47.44036" lon="6.64853">
        <ele>317</ele>
        <time>2016-07-24T09:17:09.000Z</time>
      </trkpt>
      <trkpt lat="47.44042" lon="6.64848">
        <ele>317</ele>
        <time>2016-07-24T09:17:10.000Z</time>
      </trkpt>
      <trkpt lat="47.44046" lon="6.64842">
        <ele>316</ele>
        <time>2016-07-24T09:17:11.000Z</time>
      </trkpt>
      <trkpt lat="47.4405" lon="6.64836">
        <ele>316</ele>
        <time>2016-07-24T09:17:12.000Z</time>
      </trkpt>
      <trkpt lat="47.44054" lon="6.6483">
        <ele>318</ele>
        <time>2016-07-24T09:17:13.000Z</time>
      </trkpt>
      <trkpt lat="47.44058" lon="6.64824">
        <ele>318</ele>
        <time>2016-07-24T09:17:14.000Z</time>
      </trkpt>
      <trkpt lat="47.44062" lon="6.64818">
        <ele>318</ele>
        <time>2016-07-24T09:17:15.000Z</time>
      </trkpt>
      <trkpt lat="47.44065" lon="6.64812">
        <ele>318</ele>
        <time>2016-07-24T09:17:16.000Z</time>
      </trkpt>
      <trkpt lat="47.44068" lon="6.64807">
        <ele>318</ele>
        <time>2016-07-24T09:17:17.000Z</time>
      </trkpt>
      <trkpt lat="47.44071" lon="6.648">
        <ele>318</ele>
        <time>2016-07-24T09:17:18.000Z</time>
      </trkpt>
      <trkpt lat="47.44074" lon="6.64794">
        <ele>318</ele>
        <time>2016-07-24T09:17:19.000Z</time>
      </trkpt>
      <trkpt lat="47.44077" lon="6.64788">
        <ele>318</ele>
        <time>2016-07-24T09:17:20.000Z</time>
      </trkpt>
      <trkpt lat="47.4408" lon="6.64782">
        <ele>318</ele>
        <time>2016-07-24T09:17:21.000Z</time>
      </trkpt>
      <trkpt lat="47.44081" lon="6.64777">
        <ele>318</ele>
        <time>2016-07-24T09:17:22.000Z</time>
      </trkpt>
      <trkpt lat="47.44086" lon="6.64771">
        <ele>312</ele>
        <time>2016-07-24T09:17:23.000Z</time>
      </trkpt>
      <trkpt lat="47.44089" lon="6.64766">
        <ele>312</ele>
        <time>2016-07-24T09:17:24.000Z</time>
      </trkpt>
      <trkpt lat="47.44095" lon="6.64765">
        <ele>312</ele>
        <time>2016-07-24T09:17:25.000Z</time>
      </trkpt>
      <trkpt lat="47.441" lon="6.64763">
        <ele>312</ele>
        <time>2016-07-24T09:17:26.000Z</time>
      </trkpt>
      <trkpt lat="47.44103" lon="6.64761">
        <ele>312</ele>
        <time>2016-07-24T09:17:27.000Z</time>
      </trkpt>
      <trkpt lat="47.44105" lon="6.64761">
        <ele>312</ele>
        <time>2016-07-24T09:17:28.000Z</time>
      </trkpt>
      <trkpt lat="47.44108" lon="6.64762">
        <ele>312</ele>
        <time>2016-07-24T09:17:29.000Z</time>
      </trkpt>
      <trkpt lat="47.44115" lon="6.64763">
        <ele>312</ele>
        <time>2016-07-24T09:17:30.000Z</time>
      </trkpt>
      <trkpt lat="47.44117" lon="6.64765">
        <ele>311</ele>
        <time>2016-07-24T09:17:31.000Z</time>
      </trkpt>
      <trkpt lat="47.44121" lon="6.64769">
        <ele>311</ele>
        <time>2016-07-24T09:17:32.000Z</time>
      </trkpt>
      <trkpt lat="47.44125" lon="6.64772">
        <ele>311</ele>
        <time>2016-07-24T09:17:33.000Z</time>
      </trkpt>
      <trkpt lat="47.44128" lon="6.64774">
        <ele>311</ele>
        <time>2016-07-24T09:17:34.000Z</time>
      </trkpt>
      <trkpt lat="47.44132" lon="6.64773">
        <ele>311</ele>
        <time>2016-07-24T09:17:35.000Z</time>
      </trkpt>
      <trkpt lat="47.44136" lon="6.64773">
        <ele>311</ele>
        <time>2016-07-24T09:17:36.000Z</time>
      </trkpt>
      <trkpt lat="47.4414" lon="6.64772">
        <ele>311</ele>
        <time>2016-07-24T09:17:37.000Z</time>
      </trkpt>
      <trkpt lat="47.44147" lon="6.64763">
        <ele>310</ele>
        <time>2016-07-24T09:17:38.000Z</time>
      </trkpt>
      <trkpt lat="47.44148" lon="6.64756">
        <ele>310</ele>
        <time>2016-07-24T09:17:39.000Z</time>
      </trkpt>
      <trkpt lat="47.4415" lon="6.6475">
        <ele>311</ele>
        <time>2016-07-24T09:17:40.000Z</time>
      </trkpt>
      <trkpt lat="47.44152" lon="6.64744">
        <ele>311</ele>
        <time>2016-07-24T09:17:41.000Z</time>
      </trkpt>
      <trkpt lat="47.44154" lon="6.64736">
        <ele>311</ele>
        <time>2016-07-24T09:17:42.000Z</time>
      </trkpt>
      <trkpt lat="47.44155" lon="6.64729">
        <ele>311</ele>
        <time>2016-07-24T09:17:43.000Z</time>
      </trkpt>
      <trkpt lat="47.44156" lon="6.64723">
        <ele>311</ele>
        <time>2016-07-24T09:17:44.000Z</time>
      </trkpt>
      <trkpt lat="47.44157" lon="6.64716">
        <ele>311</ele>
        <time>2016-07-24T09:17:45.000Z</time>
      </trkpt>
      <trkpt lat="47.4416" lon="6.64707">
        <ele>311</ele>
        <time>2016-07-24T09:17:46.000Z</time>
      </trkpt>
      <trkpt lat="47.44163" lon="6.64697">
        <ele>311</ele>
        <time>2016-07-24T09:17:47.000Z</time>
      </trkpt>
      <trkpt lat="47.44163" lon="6.64691">
        <ele>311</ele>
        <time>2016-07-24T09:17:48.000Z</time>
      </trkpt>
      <trkpt lat="47.44164" lon="6.64684">
        <ele>310</ele>
        <time>2016-07-24T09:17:49.000Z</time>
      </trkpt>
      <trkpt lat="47.44165" lon="6.64678">
        <ele>310</ele>
        <time>2016-07-24T09:17:50.000Z</time>
      </trkpt>
      <trkpt lat="47.44167" lon="6.6467">
        <ele>309</ele>
        <time>2016-07-24T09:17:51.000Z</time>
      </trkpt>
      <trkpt lat="47.44168" lon="6.64662">
        <ele>308</ele>
        <time>2016-07-24T09:17:52.000Z</time>
      </trkpt>
      <trkpt lat="47.44169" lon="6.64656">
        <ele>309</ele>
        <time>2016-07-24T09:17:53.000Z</time>
      </trkpt>
      <trkpt lat="47.44171" lon="6.64648">
        <ele>309</ele>
        <time>2016-07-24T09:17:54.000Z</time>
      </trkpt>
      <trkpt lat="47.44173" lon="6.6464">
        <ele>309</ele>
        <time>2016-07-24T09:17:55.000Z</time>
      </trkpt>
      <trkpt lat="47.44173" lon="6.64635">
        <ele>309</ele>
        <time>2016-07-24T09:17:56.000Z</time>
      </trkpt>
      <trkpt lat="47.44174" lon="6.6463">
        <ele>309</ele>
        <time>2016-07-24T09:17:57.000Z</time>
      </trkpt>
      <trkpt lat="47.44175" lon="6.64626">
        <ele>309</ele>
        <time>2016-07-24T09:17:58.000Z</time>
      </trkpt>
      <trkpt lat="47.44177" lon="6.64623">
        <ele>309</ele>
        <time>2016-07-24T09:17:59.000Z</time>
      </trkpt>
      <trkpt lat="47.44175" lon="6.64619">
        <ele>309</ele>
        <time>2016-07-24T09:18:01.000Z</time>
      </trkpt>
      <trkpt lat="47.44174" lon="6.64616">
        <ele>309</ele>
        <time>2016-07-24T09:18:02.000Z</time>
      </trkpt>
      <trkpt lat="47.44174" lon="6.6461">
        <ele>309</ele>
        <time>2016-07-24T09:18:05.000Z</time>
      </trkpt>
      <trkpt lat="47.44174" lon="6.64609">
        <ele>309</ele>
        <time>2016-07-24T09:18:06.000Z</time>
      </trkpt>
      <trkpt lat="47.44175" lon="6.64614">
        <ele>309</ele>
        <time>2016-07-24T09:18:11.000Z</time>
      </trkpt>
      <trkpt lat="47.44176" lon="6.64616">
        <ele>309</ele>
        <time>2016-07-24T09:18:12.000Z</time>
      </trkpt>
      <trkpt lat="47.44179" lon="6.64618">
        <ele>309</ele>
        <time>2016-07-24T09:18:13.000Z</time>
      </trkpt>
      <trkpt lat="47.44181" lon="6.64619">
        <ele>309</ele>
        <time>2016-07-24T09:18:14.000Z</time>
      </trkpt>
      <trkpt lat="47.44183" lon="6.6462">
        <ele>309</ele>
        <time>2016-07-24T09:18:15.000Z</time>
      </trkpt>
      <trkpt lat="47.44186" lon="6.6462">
        <ele>309</ele>
        <time>2016-07-24T09:18:16.000Z</time>
      </trkpt>
      <trkpt lat="47.44189" lon="6.6462">
        <ele>310</ele>
        <time>2016-07-24T09:18:17.000Z</time>
      </trkpt>
      <trkpt lat="47.44193" lon="6.64621">
        <ele>310</ele>
        <time>2016-07-24T09:18:18.000Z</time>
      </trkpt>
      <trkpt lat="47.44197" lon="6.64621">
        <ele>310</ele>
        <time>2016-07-24T09:18:19.000Z</time>
      </trkpt>
      <trkpt lat="47.44201" lon="6.64622">
        <ele>310</ele>
        <time>2016-07-24T09:18:20.000Z</time>
      </trkpt>
      <trkpt lat="47.44205" lon="6.64623">
        <ele>310</ele>
        <time>2016-07-24T09:18:21.000Z</time>
      </trkpt>
      <trkpt lat="47.44209" lon="6.64624">
        <ele>310</ele>
        <time>2016-07-24T09:18:22.000Z</time>
      </trkpt>
      <trkpt lat="47.44212" lon="6.64624">
        <ele>310</ele>
        <time>2016-07-24T09:18:23.000Z</time>
      </trkpt>
      <trkpt lat="47.44215" lon="6.64625">
        <ele>310</ele>
        <time>2016-07-24T09:18:24.000Z</time>
      </trkpt>
      <trkpt lat="47.44217" lon="6.64626">
        <ele>311</ele>
        <time>2016-07-24T09:18:25.000Z</time>
      </trkpt>
      <trkpt lat="47.4422" lon="6.64627">
        <ele>311</ele>
        <time>2016-07-24T09:18:26.000Z</time>
      </trkpt>
      <trkpt lat="47.44222" lon="6.64628">
        <ele>311</ele>
        <time>2016-07-24T09:18:27.000Z</time>
      </trkpt>
      <trkpt lat="47.44224" lon="6.64629">
        <ele>311</ele>
        <time>2016-07-24T09:18:28.000Z</time>
      </trkpt>
      <trkpt lat="47.44228" lon="6.6463">
        <ele>311</ele>
        <time>2016-07-24T09:18:30.000Z</time>
      </trkpt>
      <trkpt lat="47.4423" lon="6.64631">
        <ele>311</ele>
        <time>2016-07-24T09:18:31.000Z</time>
      </trkpt>
      <trkpt lat="47.44233" lon="6.64633">
        <ele>311</ele>
        <time>2016-07-24T09:18:33.000Z</time>
      </trkpt>
      <trkpt lat="47.44234" lon="6.64634">
        <ele>311</ele>
        <time>2016-07-24T09:18:34.000Z</time>
      </trkpt>
      <trkpt lat="47.44239" lon="6.64634">
        <ele>311</ele>
        <time>2016-07-24T09:18:37.000Z</time>
      </trkpt>
      <trkpt lat="47.4424" lon="6.64634">
        <ele>312</ele>
        <time>2016-07-24T09:18:38.000Z</time>
      </trkpt>
      <trkpt lat="47.44243" lon="6.64635">
        <ele>312</ele>
        <time>2016-07-24T09:18:40.000Z</time>
      </trkpt>
      <trkpt lat="47.44245" lon="6.64635">
        <ele>312</ele>
        <time>2016-07-24T09:18:41.000Z</time>
      </trkpt>
      <trkpt lat="47.44247" lon="6.64635">
        <ele>312</ele>
        <time>2016-07-24T09:18:42.000Z</time>
      </trkpt>
      <trkpt lat="47.4425" lon="6.64634">
        <ele>312</ele>
        <time>2016-07-24T09:18:43.000Z</time>
      </trkpt>
      <trkpt lat="47.44252" lon="6.64633">
        <ele>317</ele>
        <time>2016-07-24T09:18:44.000Z</time>
      </trkpt>
      <trkpt lat="47.44255" lon="6.64632">
        <ele>317</ele>
        <time>2016-07-24T09:18:45.000Z</time>
      </trkpt>
      <trkpt lat="47.44259" lon="6.64629">
        <ele>317</ele>
        <time>2016-07-24T09:18:47.000Z</time>
      </trkpt>
      <trkpt lat="47.4426" lon="6.64628">
        <ele>317</ele>
        <time>2016-07-24T09:18:48.000Z</time>
      </trkpt>
      <trkpt lat="47.44262" lon="6.64625">
        <ele>317</ele>
        <time>2016-07-24T09:18:50.000Z</time>
      </trkpt>
      <trkpt lat="47.44264" lon="6.64625">
        <ele>317</ele>
        <time>2016-07-24T09:18:51.000Z</time>
      </trkpt>
      <trkpt lat="47.44266" lon="6.64624">
        <ele>317</ele>
        <time>2016-07-24T09:18:52.000Z</time>
      </trkpt>
      <trkpt lat="47.44268" lon="6.64625">
        <ele>317</ele>
        <time>2016-07-24T09:18:53.000Z</time>
      </trkpt>
      <trkpt lat="47.44273" lon="6.64625">
        <ele>318</ele>
        <time>2016-07-24T09:18:55.000Z</time>
      </trkpt>
      <trkpt lat="47.44274" lon="6.64626">
        <ele>318</ele>
        <time>2016-07-24T09:18:56.000Z</time>
      </trkpt>
      <trkpt lat="47.44278" lon="6.64624">
        <ele>318</ele>
        <time>2016-07-24T09:18:58.000Z</time>
      </trkpt>
      <trkpt lat="47.44279" lon="6.64623">
        <ele>318</ele>
        <time>2016-07-24T09:18:59.000Z</time>
      </trkpt>
      <trkpt lat="47.44283" lon="6.6462">
        <ele>318</ele>
        <time>2016-07-24T09:19:01.000Z</time>
      </trkpt>
      <trkpt lat="47.44285" lon="6.64619">
        <ele>318</ele>
        <time>2016-07-24T09:19:02.000Z</time>
      </trkpt>
      <trkpt lat="47.44289" lon="6.64618">
        <ele>318</ele>
        <time>2016-07-24T09:19:04.000Z</time>
      </trkpt>
      <trkpt lat="47.4429" lon="6.64618">
        <ele>318</ele>
        <time>2016-07-24T09:19:05.000Z</time>
      </trkpt>
      <trkpt lat="47.44294" lon="6.64615">
        <ele>319</ele>
        <time>2016-07-24T09:19:08.000Z</time>
      </trkpt>
      <trkpt lat="47.44296" lon="6.64614">
        <ele>319</ele>
        <time>2016-07-24T09:19:09.000Z</time>
      </trkpt>
      <trkpt lat="47.44299" lon="6.64611">
        <ele>319</ele>
        <time>2016-07-24T09:19:11.000Z</time>
      </trkpt>
      <trkpt lat="47.44301" lon="6.6461">
        <ele>319</ele>
        <time>2016-07-24T09:19:12.000Z</time>
      </trkpt>
      <trkpt lat="47.44304" lon="6.64607">
        <ele>319</ele>
        <time>2016-07-24T09:19:15.000Z</time>
      </trkpt>
      <trkpt lat="47.44306" lon="6.64607">
        <ele>319</ele>
        <time>2016-07-24T09:19:16.000Z</time>
      </trkpt>
      <trkpt lat="47.4431" lon="6.64605">
        <ele>320</ele>
        <time>2016-07-24T09:19:22.000Z</time>
      </trkpt>
      <trkpt lat="47.4431" lon="6.64604">
        <ele>320</ele>
        <time>2016-07-24T09:19:23.000Z</time>
      </trkpt>
      <trkpt lat="47.44314" lon="6.64606">
        <ele>320</ele>
        <time>2016-07-24T09:19:30.000Z</time>
      </trkpt>
      <trkpt lat="47.44315" lon="6.64605">
        <ele>320</ele>
        <time>2016-07-24T09:19:31.000Z</time>
      </trkpt>
      <trkpt lat="47.44317" lon="6.64598">
        <ele>320</ele>
        <time>2016-07-24T09:19:34.000Z</time>
      </trkpt>
      <trkpt lat="47.44318" lon="6.64598">
        <ele>320</ele>
        <time>2016-07-24T09:19:35.000Z</time>
      </trkpt>
      <trkpt lat="47.44321" lon="6.64598">
        <ele>320</ele>
        <time>2016-07-24T09:19:36.000Z</time>
      </trkpt>
      <trkpt lat="47.44323" lon="6.64598">
        <ele>320</ele>
        <time>2016-07-24T09:19:37.000Z</time>
      </trkpt>
      <trkpt lat="47.44326" lon="6.64599">
        <ele>321</ele>
        <time>2016-07-24T09:19:38.000Z</time>
      </trkpt>
      <trkpt lat="47.44329" lon="6.646">
        <ele>321</ele>
        <time>2016-07-24T09:19:39.000Z</time>
      </trkpt>
      <trkpt lat="47.44332" lon="6.64601">
        <ele>321</ele>
        <time>2016-07-24T09:19:40.000Z</time>
      </trkpt>
      <trkpt lat="47.44334" lon="6.64603">
        <ele>325</ele>
        <time>2016-07-24T09:19:41.000Z</time>
      </trkpt>
      <trkpt lat="47.44337" lon="6.64604">
        <ele>326</ele>
        <time>2016-07-24T09:19:42.000Z</time>
      </trkpt>
      <trkpt lat="47.4434" lon="6.64605">
        <ele>326</ele>
        <time>2016-07-24T09:19:43.000Z</time>
      </trkpt>
      <trkpt lat="47.44344" lon="6.64605">
        <ele>326</ele>
        <time>2016-07-24T09:19:45.000Z</time>
      </trkpt>
      <trkpt lat="47.44346" lon="6.64605">
        <ele>326</ele>
        <time>2016-07-24T09:19:46.000Z</time>
      </trkpt>
      <trkpt lat="47.4435" lon="6.64604">
        <ele>326</ele>
        <time>2016-07-24T09:19:48.000Z</time>
      </trkpt>
      <trkpt lat="47.44353" lon="6.64604">
        <ele>327</ele>
        <time>2016-07-24T09:19:49.000Z</time>
      </trkpt>
      <trkpt lat="47.44355" lon="6.64605">
        <ele>327</ele>
        <time>2016-07-24T09:19:50.000Z</time>
      </trkpt>
      <trkpt lat="47.44358" lon="6.64605">
        <ele>327</ele>
        <time>2016-07-24T09:19:51.000Z</time>
      </trkpt>
      <trkpt lat="47.4436" lon="6.64604">
        <ele>327</ele>
        <time>2016-07-24T09:19:52.000Z</time>
      </trkpt>
      <trkpt lat="47.44363" lon="6.64602">
        <ele>327</ele>
        <time>2016-07-24T09:19:53.000Z</time>
      </trkpt>
      <trkpt lat="47.44366" lon="6.64601">
        <ele>327</ele>
        <time>2016-07-24T09:19:54.000Z</time>
      </trkpt>
      <trkpt lat="47.44368" lon="6.64598">
        <ele>328</ele>
        <time>2016-07-24T09:19:55.000Z</time>
      </trkpt>
      <trkpt lat="47.44371" lon="6.64597">
        <ele>328</ele>
        <time>2016-07-24T09:19:56.000Z</time>
      </trkpt>
      <trkpt lat="47.44373" lon="6.64595">
        <ele>328</ele>
        <time>2016-07-24T09:19:57.000Z</time>
      </trkpt>
      <trkpt lat="47.44376" lon="6.64593">
        <ele>328</ele>
        <time>2016-07-24T09:19:58.000Z</time>
      </trkpt>
      <trkpt lat="47.44378" lon="6.64591">
        <ele>328</ele>
        <time>2016-07-24T09:19:59.000Z</time>
      </trkpt>
      <trkpt lat="47.4438" lon="6.6459">
        <ele>328</ele>
        <time>2016-07-24T09:20:00.000Z</time>
      </trkpt>
      <trkpt lat="47.44381" lon="6.64588">
        <ele>328</ele>
        <time>2016-07-24T09:20:01.000Z</time>
      </trkpt>
      <trkpt lat="47.44383" lon="6.64586">
        <ele>329</ele>
        <time>2016-07-24T09:20:02.000Z</time>
      </trkpt>
      <trkpt lat="47.44386" lon="6.64585">
        <ele>329</ele>
        <time>2016-07-24T09:20:03.000Z</time>
      </trkpt>
      <trkpt lat="47.44388" lon="6.64583">
        <ele>327</ele>
        <time>2016-07-24T09:20:04.000Z</time>
      </trkpt>
      <trkpt lat="47.44391" lon="6.64581">
        <ele>327</ele>
        <time>2016-07-24T09:20:05.000Z</time>
      </trkpt>
      <trkpt lat="47.44394" lon="6.64579">
        <ele>327</ele>
        <time>2016-07-24T09:20:06.000Z</time>
      </trkpt>
      <trkpt lat="47.44397" lon="6.64576">
        <ele>328</ele>
        <time>2016-07-24T09:20:07.000Z</time>
      </trkpt>
      <trkpt lat="47.444" lon="6.64574">
        <ele>328</ele>
        <time>2016-07-24T09:20:08.000Z</time>
      </trkpt>
      <trkpt lat="47.44402" lon="6.64571">
        <ele>328</ele>
        <time>2016-07-24T09:20:09.000Z</time>
      </trkpt>
      <trkpt lat="47.44405" lon="6.64568">
        <ele>328</ele>
        <time>2016-07-24T09:20:10.000Z</time>
      </trkpt>
      <trkpt lat="47.44408" lon="6.64566">
        <ele>328</ele>
        <time>2016-07-24T09:20:11.000Z</time>
      </trkpt>
      <trkpt lat="47.44411" lon="6.64563">
        <ele>328</ele>
        <time>2016-07-24T09:20:12.000Z</time>
      </trkpt>
      <trkpt lat="47.44414" lon="6.64561">
        <ele>328</ele>
        <time>2016-07-24T09:20:13.000Z</time>
      </trkpt>
      <trkpt lat="47.44417" lon="6.64558">
        <ele>327</ele>
        <time>2016-07-24T09:20:14.000Z</time>
      </trkpt>
      <trkpt lat="47.4442" lon="6.64556">
        <ele>327</ele>
        <time>2016-07-24T09:20:15.000Z</time>
      </trkpt>
      <trkpt lat="47.44423" lon="6.64554">
        <ele>327</ele>
        <time>2016-07-24T09:20:16.000Z</time>
      </trkpt>
      <trkpt lat="47.44426" lon="6.64553">
        <ele>326</ele>
        <time>2016-07-24T09:20:17.000Z</time>
      </trkpt>
      <trkpt lat="47.44428" lon="6.64551">
        <ele>326</ele>
        <time>2016-07-24T09:20:18.000Z</time>
      </trkpt>
      <trkpt lat="47.44431" lon="6.6455">
        <ele>326</ele>
        <time>2016-07-24T09:20:19.000Z</time>
      </trkpt>
      <trkpt lat="47.44434" lon="6.64548">
        <ele>326</ele>
        <time>2016-07-24T09:20:20.000Z</time>
      </trkpt>
      <trkpt lat="47.44436" lon="6.64547">
        <ele>326</ele>
        <time>2016-07-24T09:20:21.000Z</time>
      </trkpt>
      <trkpt lat="47.44439" lon="6.64547">
        <ele>325</ele>
        <time>2016-07-24T09:20:22.000Z</time>
      </trkpt>
      <trkpt lat="47.44443" lon="6.64547">
        <ele>325</ele>
        <time>2016-07-24T09:20:23.000Z</time>
      </trkpt>
      <trkpt lat="47.44446" lon="6.64548">
        <ele>325</ele>
        <time>2016-07-24T09:20:24.000Z</time>
      </trkpt>
      <trkpt lat="47.44449" lon="6.64551">
        <ele>325</ele>
        <time>2016-07-24T09:20:25.000Z</time>
      </trkpt>
      <trkpt lat="47.44452" lon="6.64554">
        <ele>325</ele>
        <time>2016-07-24T09:20:26.000Z</time>
      </trkpt>
      <trkpt lat="47.44454" lon="6.64559">
        <ele>324</ele>
        <time>2016-07-24T09:20:27.000Z</time>
      </trkpt>
      <trkpt lat="47.44456" lon="6.64564">
        <ele>324</ele>
        <time>2016-07-24T09:20:28.000Z</time>
      </trkpt>
      <trkpt lat="47.44457" lon="6.64569">
        <ele>324</ele>
        <time>2016-07-24T09:20:29.000Z</time>
      </trkpt>
      <trkpt lat="47.44459" lon="6.64575">
        <ele>324</ele>
        <time>2016-07-24T09:20:30.000Z</time>
      </trkpt>
      <trkpt lat="47.44461" lon="6.64581">
        <ele>324</ele>
        <time>2016-07-24T09:20:31.000Z</time>
      </trkpt>
      <trkpt lat="47.44463" lon="6.64588">
        <ele>325</ele>
        <time>2016-07-24T09:20:32.000Z</time>
      </trkpt>
      <trkpt lat="47.44466" lon="6.646">
        <ele>325</ele>
        <time>2016-07-24T09:20:33.000Z</time>
      </trkpt>
      <trkpt lat="47.44469" lon="6.64607">
        <ele>325</ele>
        <time>2016-07-24T09:20:34.000Z</time>
      </trkpt>
      <trkpt lat="47.44471" lon="6.64614">
        <ele>325</ele>
        <time>2016-07-24T09:20:35.000Z</time>
      </trkpt>
      <trkpt lat="47.44474" lon="6.64623">
        <ele>325</ele>
        <time>2016-07-24T09:20:36.000Z</time>
      </trkpt>
      <trkpt lat="47.44476" lon="6.64632">
        <ele>325</ele>
        <time>2016-07-24T09:20:37.000Z</time>
      </trkpt>
      <trkpt lat="47.44479" lon="6.64639">
        <ele>325</ele>
        <time>2016-07-24T09:20:38.000Z</time>
      </trkpt>
      <trkpt lat="47.44481" lon="6.64648">
        <ele>325</ele>
        <time>2016-07-24T09:20:39.000Z</time>
      </trkpt>
      <trkpt lat="47.44484" lon="6.64655">
        <ele>324</ele>
        <time>2016-07-24T09:20:40.000Z</time>
      </trkpt>
      <trkpt lat="47.44486" lon="6.64663">
        <ele>324</ele>
        <time>2016-07-24T09:20:41.000Z</time>
      </trkpt>
      <trkpt lat="47.44488" lon="6.64673">
        <ele>326</ele>
        <time>2016-07-24T09:20:42.000Z</time>
      </trkpt>
      <trkpt lat="47.44491" lon="6.64682">
        <ele>327</ele>
        <time>2016-07-24T09:20:43.000Z</time>
      </trkpt>
      <trkpt lat="47.44495" lon="6.64691">
        <ele>328</ele>
        <time>2016-07-24T09:20:44.000Z</time>
      </trkpt>
      <trkpt lat="47.44498" lon="6.64699">
        <ele>329</ele>
        <time>2016-07-24T09:20:45.000Z</time>
      </trkpt>
      <trkpt lat="47.44502" lon="6.64708">
        <ele>319</ele>
        <time>2016-07-24T09:20:46.000Z</time>
      </trkpt>
      <trkpt lat="47.44505" lon="6.64716">
        <ele>320</ele>
        <time>2016-07-24T09:20:47.000Z</time>
      </trkpt>
      <trkpt lat="47.44508" lon="6.64725">
        <ele>321</ele>
        <time>2016-07-24T09:20:48.000Z</time>
      </trkpt>
      <trkpt lat="47.4451" lon="6.64739">
        <ele>324</ele>
        <time>2016-07-24T09:20:49.000Z</time>
      </trkpt>
      <trkpt lat="47.44513" lon="6.64749">
        <ele>325</ele>
        <time>2016-07-24T09:20:50.000Z</time>
      </trkpt>
      <trkpt lat="47.44517" lon="6.64758">
        <ele>325</ele>
        <time>2016-07-24T09:20:51.000Z</time>
      </trkpt>
      <trkpt lat="47.44522" lon="6.64767">
        <ele>323</ele>
        <time>2016-07-24T09:20:52.000Z</time>
      </trkpt>
      <trkpt lat="47.44526" lon="6.64776">
        <ele>322</ele>
        <time>2016-07-24T09:20:53.000Z</time>
      </trkpt>
      <trkpt lat="47.44529" lon="6.64785">
        <ele>322</ele>
        <time>2016-07-24T09:20:54.000Z</time>
      </trkpt>
      <trkpt lat="47.44532" lon="6.64794">
        <ele>321</ele>
        <time>2016-07-24T09:20:55.000Z</time>
      </trkpt>
      <trkpt lat="47.44537" lon="6.64804">
        <ele>321</ele>
        <time>2016-07-24T09:20:56.000Z</time>
      </trkpt>
      <trkpt lat="47.44541" lon="6.64817">
        <ele>321</ele>
        <time>2016-07-24T09:20:57.000Z</time>
      </trkpt>
      <trkpt lat="47.44545" lon="6.64831">
        <ele>320</ele>
        <time>2016-07-24T09:20:58.000Z</time>
      </trkpt>
      <trkpt lat="47.4455" lon="6.64842">
        <ele>322</ele>
        <time>2016-07-24T09:20:59.000Z</time>
      </trkpt>
      <trkpt lat="47.44558" lon="6.64852">
        <ele>321</ele>
        <time>2016-07-24T09:21:00.000Z</time>
      </trkpt>
      <trkpt lat="47.44561" lon="6.64865">
        <ele>321</ele>
        <time>2016-07-24T09:21:01.000Z</time>
      </trkpt>
      <trkpt lat="47.44565" lon="6.64876">
        <ele>322</ele>
        <time>2016-07-24T09:21:02.000Z</time>
      </trkpt>
      <trkpt lat="47.44565" lon="6.64887">
        <ele>322</ele>
        <time>2016-07-24T09:21:03.000Z</time>
      </trkpt>
      <trkpt lat="47.44569" lon="6.64899">
        <ele>321</ele>
        <time>2016-07-24T09:21:04.000Z</time>
      </trkpt>
      <trkpt lat="47.44571" lon="6.64909">
        <ele>319</ele>
        <time>2016-07-24T09:21:05.000Z</time>
      </trkpt>
      <trkpt lat="47.44572" lon="6.64921">
        <ele>321</ele>
        <time>2016-07-24T09:21:06.000Z</time>
      </trkpt>
      <trkpt lat="47.44577" lon="6.64934">
        <ele>323</ele>
        <time>2016-07-24T09:21:07.000Z</time>
      </trkpt>
      <trkpt lat="47.44587" lon="6.64951">
        <ele>312</ele>
        <time>2016-07-24T09:21:08.000Z</time>
      </trkpt>
      <trkpt lat="47.44596" lon="6.64967">
        <ele>313</ele>
        <time>2016-07-24T09:21:09.000Z</time>
      </trkpt>
      <trkpt lat="47.44607" lon="6.64982">
        <ele>313</ele>
        <time>2016-07-24T09:21:10.000Z</time>
      </trkpt>
      <trkpt lat="47.44614" lon="6.64994">
        <ele>312</ele>
        <time>2016-07-24T09:21:10.999Z</time>
      </trkpt>
      <trkpt lat="47.44621" lon="6.65">
        <ele>314</ele>
        <time>2016-07-24T09:21:12.000Z</time>
      </trkpt>
      <trkpt lat="47.44629" lon="6.65009">
        <ele>312</ele>
        <time>2016-07-24T09:21:13.000Z</time>
      </trkpt>
      <trkpt lat="47.44635" lon="6.6502">
        <ele>311</ele>
        <time>2016-07-24T09:21:14.000Z</time>
      </trkpt>
      <trkpt lat="47.44646" lon="6.65022">
        <ele>309</ele>
        <time>2016-07-24T09:21:15.000Z</time>
      </trkpt>
      <trkpt lat="47.44653" lon="6.65018">
        <ele>308</ele>
        <time>2016-07-24T09:21:16.000Z</time>
      </trkpt>
      <trkpt lat="47.44659" lon="6.65009">
        <ele>305</ele>
        <time>2016-07-24T09:21:17.000Z</time>
      </trkpt>
      <trkpt lat="47.44665" lon="6.65002">
        <ele>301</ele>
        <time>2016-07-24T09:21:18.000Z</time>
      </trkpt>
      <trkpt lat="47.4467" lon="6.64996">
        <ele>299</ele>
        <time>2016-07-24T09:21:19.000Z</time>
      </trkpt>
      <trkpt lat="47.44677" lon="6.64991">
        <ele>299</ele>
        <time>2016-07-24T09:21:20.000Z</time>
      </trkpt>
      <trkpt lat="47.44684" lon="6.64986">
        <ele>299</ele>
        <time>2016-07-24T09:21:21.000Z</time>
      </trkpt>
      <trkpt lat="47.44691" lon="6.64984">
        <ele>299</ele>
        <time>2016-07-24T09:21:22.000Z</time>
      </trkpt>
      <trkpt lat="47.44699" lon="6.64982">
        <ele>299</ele>
        <time>2016-07-24T09:21:23.000Z</time>
      </trkpt>
      <trkpt lat="47.44706" lon="6.6498">
        <ele>299</ele>
        <time>2016-07-24T09:21:24.000Z</time>
      </trkpt>
      <trkpt lat="47.44713" lon="6.64979">
        <ele>299</ele>
        <time>2016-07-24T09:21:25.000Z</time>
      </trkpt>
      <trkpt lat="47.44721" lon="6.64976">
        <ele>299</ele>
        <time>2016-07-24T09:21:26.000Z</time>
      </trkpt>
      <trkpt lat="47.44728" lon="6.64975">
        <ele>299</ele>
        <time>2016-07-24T09:21:27.000Z</time>
      </trkpt>
      <trkpt lat="47.44735" lon="6.64973">
        <ele>299</ele>
        <time>2016-07-24T09:21:28.000Z</time>
      </trkpt>
      <trkpt lat="47.44741" lon="6.64972">
        <ele>299</ele>
        <time>2016-07-24T09:21:29.000Z</time>
      </trkpt>
      <trkpt lat="47.44747" lon="6.64971">
        <ele>299</ele>
        <time>2016-07-24T09:21:30.000Z</time>
      </trkpt>
      <trkpt lat="47.44752" lon="6.6497">
        <ele>299</ele>
        <time>2016-07-24T09:21:31.000Z</time>
      </trkpt>
      <trkpt lat="47.44756" lon="6.64969">
        <ele>299</ele>
        <time>2016-07-24T09:21:32.000Z</time>
      </trkpt>
      <trkpt lat="47.44761" lon="6.64969">
        <ele>299</ele>
        <time>2016-07-24T09:21:33.000Z</time>
      </trkpt>
      <trkpt lat="47.44765" lon="6.64969">
        <ele>298</ele>
        <time>2016-07-24T09:21:34.000Z</time>
      </trkpt>
      <trkpt lat="47.44769" lon="6.64969">
        <ele>298</ele>
        <time>2016-07-24T09:21:35.000Z</time>
      </trkpt>
      <trkpt lat="47.44771" lon="6.64969">
        <ele>298</ele>
        <time>2016-07-24T09:21:36.000Z</time>
      </trkpt>
      <trkpt lat="47.44775" lon="6.64969">
        <ele>298</ele>
        <time>2016-07-24T09:21:37.000Z</time>
      </trkpt>
      <trkpt lat="47.44777" lon="6.64967">
        <ele>298</ele>
        <time>2016-07-24T09:21:38.000Z</time>
      </trkpt>
      <trkpt lat="47.4478" lon="6.64966">
        <ele>298</ele>
        <time>2016-07-24T09:21:39.000Z</time>
      </trkpt>
      <trkpt lat="47.44784" lon="6.64967">
        <ele>298</ele>
        <time>2016-07-24T09:21:42.000Z</time>
      </trkpt>
      <trkpt lat="47.44784" lon="6.64969">
        <ele>298</ele>
        <time>2016-07-24T09:21:43.000Z</time>
      </trkpt>
      <trkpt lat="47.44785" lon="6.6497">
        <ele>298</ele>
        <time>2016-07-24T09:21:43.999Z</time>
      </trkpt>
      <trkpt lat="47.44785" lon="6.64977">
        <ele>298</ele>
        <time>2016-07-24T09:21:45.000Z</time>
      </trkpt>
      <trkpt lat="47.44786" lon="6.64982">
        <ele>298</ele>
        <time>2016-07-24T09:21:46.000Z</time>
      </trkpt>
      <trkpt lat="47.44786" lon="6.64988">
        <ele>298</ele>
        <time>2016-07-24T09:21:47.000Z</time>
      </trkpt>
      <trkpt lat="47.44788" lon="6.64999">
        <ele>298</ele>
        <time>2016-07-24T09:21:48.000Z</time>
      </trkpt>
      <trkpt lat="47.44789" lon="6.65007">
        <ele>299</ele>
        <time>2016-07-24T09:21:49.000Z</time>
      </trkpt>
      <trkpt lat="47.44789" lon="6.65014">
        <ele>299</ele>
        <time>2016-07-24T09:21:50.000Z</time>
      </trkpt>
      <trkpt lat="47.4479" lon="6.65022">
        <ele>299</ele>
        <time>2016-07-24T09:21:51.000Z</time>
      </trkpt>
      <trkpt lat="47.4479" lon="6.65029">
        <ele>299</ele>
        <time>2016-07-24T09:21:52.000Z</time>
      </trkpt>
      <trkpt lat="47.44791" lon="6.65035">
        <ele>299</ele>
        <time>2016-07-24T09:21:53.000Z</time>
      </trkpt>
      <trkpt lat="47.44792" lon="6.65041">
        <ele>299</ele>
        <time>2016-07-24T09:21:54.000Z</time>
      </trkpt>
      <trkpt lat="47.44792" lon="6.65046">
        <ele>300</ele>
        <time>2016-07-24T09:21:55.000Z</time>
      </trkpt>
      <trkpt lat="47.44792" lon="6.65051">
        <ele>300</ele>
        <time>2016-07-24T09:21:56.000Z</time>
      </trkpt>
      <trkpt lat="47.44793" lon="6.65055">
        <ele>300</ele>
        <time>2016-07-24T09:21:57.000Z</time>
      </trkpt>
      <trkpt lat="47.44793" lon="6.6506">
        <ele>300</ele>
        <time>2016-07-24T09:21:58.000Z</time>
      </trkpt>
      <trkpt lat="47.44794" lon="6.65065">
        <ele>300</ele>
        <time>2016-07-24T09:21:59.000Z</time>
      </trkpt>
      <trkpt lat="47.44796" lon="6.65069">
        <ele>300</ele>
        <time>2016-07-24T09:21:59.999Z</time>
      </trkpt>
      <trkpt lat="47.44798" lon="6.65073">
        <ele>300</ele>
        <time>2016-07-24T09:22:01.000Z</time>
      </trkpt>
      <trkpt lat="47.44799" lon="6.65077">
        <ele>300</ele>
        <time>2016-07-24T09:22:02.000Z</time>
      </trkpt>
      <trkpt lat="47.44799" lon="6.65081">
        <ele>300</ele>
        <time>2016-07-24T09:22:03.000Z</time>
      </trkpt>
      <trkpt lat="47.44797" lon="6.65086">
        <ele>300</ele>
        <time>2016-07-24T09:22:05.000Z</time>
      </trkpt>
      <trkpt lat="47.44797" lon="6.65089">
        <ele>300</ele>
        <time>2016-07-24T09:22:06.000Z</time>
      </trkpt>
      <trkpt lat="47.44796" lon="6.65095">
        <ele>300</ele>
        <time>2016-07-24T09:22:08.000Z</time>
      </trkpt>
      <trkpt lat="47.44795" lon="6.65097">
        <ele>300</ele>
        <time>2016-07-24T09:22:09.000Z</time>
      </trkpt>
      <trkpt lat="47.44795" lon="6.65102">
        <ele>300</ele>
        <time>2016-07-24T09:22:11.000Z</time>
      </trkpt>
      <trkpt lat="47.44795" lon="6.65106">
        <ele>300</ele>
        <time>2016-07-24T09:22:12.000Z</time>
      </trkpt>
      <trkpt lat="47.44795" lon="6.65111">
        <ele>300</ele>
        <time>2016-07-24T09:22:13.000Z</time>
      </trkpt>
      <trkpt lat="47.44795" lon="6.65116">
        <ele>300</ele>
        <time>2016-07-24T09:22:14.000Z</time>
      </trkpt>
      <trkpt lat="47.44795" lon="6.6512">
        <ele>300</ele>
        <time>2016-07-24T09:22:15.000Z</time>
      </trkpt>
      <trkpt lat="47.44794" lon="6.65125">
        <ele>300</ele>
        <time>2016-07-24T09:22:16.000Z</time>
      </trkpt>
      <trkpt lat="47.44795" lon="6.65131">
        <ele>300</ele>
        <time>2016-07-24T09:22:17.000Z</time>
      </trkpt>
      <trkpt lat="47.44795" lon="6.65136">
        <ele>300</ele>
        <time>2016-07-24T09:22:18.000Z</time>
      </trkpt>
      <trkpt lat="47.44796" lon="6.65143">
        <ele>300</ele>
        <time>2016-07-24T09:22:19.000Z</time>
      </trkpt>
      <trkpt lat="47.44796" lon="6.65149">
        <ele>300</ele>
        <time>2016-07-24T09:22:20.000Z</time>
      </trkpt>
      <trkpt lat="47.44797" lon="6.65156">
        <ele>300</ele>
        <time>2016-07-24T09:22:21.000Z</time>
      </trkpt>
      <trkpt lat="47.44797" lon="6.65162">
        <ele>300</ele>
        <time>2016-07-24T09:22:22.000Z</time>
      </trkpt>
      <trkpt lat="47.44799" lon="6.65173">
        <ele>300</ele>
        <time>2016-07-24T09:22:23.000Z</time>
      </trkpt>
      <trkpt lat="47.44801" lon="6.65179">
        <ele>300</ele>
        <time>2016-07-24T09:22:24.000Z</time>
      </trkpt>
      <trkpt lat="47.44801" lon="6.65188">
        <ele>300</ele>
        <time>2016-07-24T09:22:25.000Z</time>
      </trkpt>
      <trkpt lat="47.44802" lon="6.65196">
        <ele>300</ele>
        <time>2016-07-24T09:22:26.000Z</time>
      </trkpt>
      <trkpt lat="47.44804" lon="6.65202">
        <ele>300</ele>
        <time>2016-07-24T09:22:27.000Z</time>
      </trkpt>
      <trkpt lat="47.44805" lon="6.65208">
        <ele>300</ele>
        <time>2016-07-24T09:22:28.000Z</time>
      </trkpt>
      <trkpt lat="47.44805" lon="6.65216">
        <ele>300</ele>
        <time>2016-07-24T09:22:29.000Z</time>
      </trkpt>
      <trkpt lat="47.44805" lon="6.65222">
        <ele>300</ele>
        <time>2016-07-24T09:22:30.000Z</time>
      </trkpt>
      <trkpt lat="47.44807" lon="6.6523">
        <ele>300</ele>
        <time>2016-07-24T09:22:31.000Z</time>
      </trkpt>
      <trkpt lat="47.44806" lon="6.65238">
        <ele>300</ele>
        <time>2016-07-24T09:22:32.000Z</time>
      </trkpt>
      <trkpt lat="47.44806" lon="6.65246">
        <ele>300</ele>
        <time>2016-07-24T09:22:33.000Z</time>
      </trkpt>
      <trkpt lat="47.44808" lon="6.65254">
        <ele>300</ele>
        <time>2016-07-24T09:22:34.000Z</time>
      </trkpt>
      <trkpt lat="47.44809" lon="6.65261">
        <ele>300</ele>
        <time>2016-07-24T09:22:35.000Z</time>
      </trkpt>
      <trkpt lat="47.4481" lon="6.65268">
        <ele>300</ele>
        <time>2016-07-24T09:22:36.000Z</time>
      </trkpt>
      <trkpt lat="47.44812" lon="6.65276">
        <ele>300</ele>
        <time>2016-07-24T09:22:37.000Z</time>
      </trkpt>
      <trkpt lat="47.44815" lon="6.65284">
        <ele>300</ele>
        <time>2016-07-24T09:22:37.999Z</time>
      </trkpt>
      <trkpt lat="47.44814" lon="6.65292">
        <ele>301</ele>
        <time>2016-07-24T09:22:39.000Z</time>
      </trkpt>
      <trkpt lat="47.44814" lon="6.65299">
        <ele>301</ele>
        <time>2016-07-24T09:22:40.000Z</time>
      </trkpt>
      <trkpt lat="47.44814" lon="6.65306">
        <ele>301</ele>
        <time>2016-07-24T09:22:41.000Z</time>
      </trkpt>
      <trkpt lat="47.44814" lon="6.65313">
        <ele>301</ele>
        <time>2016-07-24T09:22:42.000Z</time>
      </trkpt>
      <trkpt lat="47.44815" lon="6.6532">
        <ele>301</ele>
        <time>2016-07-24T09:22:43.000Z</time>
      </trkpt>
      <trkpt lat="47.44815" lon="6.65327">
        <ele>301</ele>
        <time>2016-07-24T09:22:44.000Z</time>
      </trkpt>
      <trkpt lat="47.44815" lon="6.65333">
        <ele>301</ele>
        <time>2016-07-24T09:22:46.000Z</time>
      </trkpt>
      <trkpt lat="47.44816" lon="6.65346">
        <ele>301</ele>
        <time>2016-07-24T09:22:47.000Z</time>
      </trkpt>
      <trkpt lat="47.44817" lon="6.65353">
        <ele>301</ele>
        <time>2016-07-24T09:22:48.000Z</time>
      </trkpt>
      <trkpt lat="47.44819" lon="6.65362">
        <ele>301</ele>
        <time>2016-07-24T09:22:49.000Z</time>
      </trkpt>
      <trkpt lat="47.44819" lon="6.6537">
        <ele>301</ele>
        <time>2016-07-24T09:22:50.000Z</time>
      </trkpt>
      <trkpt lat="47.4482" lon="6.65377">
        <ele>301</ele>
        <time>2016-07-24T09:22:51.000Z</time>
      </trkpt>
      <trkpt lat="47.44822" lon="6.65387">
        <ele>301</ele>
        <time>2016-07-24T09:22:52.000Z</time>
      </trkpt>
      <trkpt lat="47.44822" lon="6.65399">
        <ele>301</ele>
        <time>2016-07-24T09:22:53.000Z</time>
      </trkpt>
      <trkpt lat="47.44823" lon="6.65408">
        <ele>301</ele>
        <time>2016-07-24T09:22:54.000Z</time>
      </trkpt>
      <trkpt lat="47.44823" lon="6.65416">
        <ele>301</ele>
        <time>2016-07-24T09:22:54.999Z</time>
      </trkpt>
      <trkpt lat="47.44824" lon="6.65426">
        <ele>301</ele>
        <time>2016-07-24T09:22:56.000Z</time>
      </trkpt>
      <trkpt lat="47.44826" lon="6.65436">
        <ele>301</ele>
        <time>2016-07-24T09:22:57.000Z</time>
      </trkpt>
      <trkpt lat="47.44827" lon="6.65445">
        <ele>301</ele>
        <time>2016-07-24T09:22:58.001Z</time>
      </trkpt>
      <trkpt lat="47.44827" lon="6.65454">
        <ele>301</ele>
        <time>2016-07-24T09:22:59.000Z</time>
      </trkpt>
      <trkpt lat="47.44827" lon="6.65462">
        <ele>301</ele>
        <time>2016-07-24T09:23:00.000Z</time>
      </trkpt>
      <trkpt lat="47.44828" lon="6.6547">
        <ele>301</ele>
        <time>2016-07-24T09:23:01.000Z</time>
      </trkpt>
      <trkpt lat="47.44828" lon="6.65478">
        <ele>300</ele>
        <time>2016-07-24T09:23:02.000Z</time>
      </trkpt>
      <trkpt lat="47.44829" lon="6.65485">
        <ele>300</ele>
        <time>2016-07-24T09:23:03.000Z</time>
      </trkpt>
      <trkpt lat="47.44829" lon="6.65492">
        <ele>300</ele>
        <time>2016-07-24T09:23:04.000Z</time>
      </trkpt>
      <trkpt lat="47.44829" lon="6.65499">
        <ele>299</ele>
        <time>2016-07-24T09:23:05.000Z</time>
      </trkpt>
      <trkpt lat="47.44829" lon="6.65507">
        <ele>299</ele>
        <time>2016-07-24T09:23:06.000Z</time>
      </trkpt>
      <trkpt lat="47.4483" lon="6.65514">
        <ele>300</ele>
        <time>2016-07-24T09:23:07.000Z</time>
      </trkpt>
      <trkpt lat="47.4483" lon="6.6552">
        <ele>300</ele>
        <time>2016-07-24T09:23:08.000Z</time>
      </trkpt>
      <trkpt lat="47.44831" lon="6.65526">
        <ele>300</ele>
        <time>2016-07-24T09:23:09.000Z</time>
      </trkpt>
      <trkpt lat="47.44831" lon="6.65534">
        <ele>300</ele>
        <time>2016-07-24T09:23:09.999Z</time>
      </trkpt>
      <trkpt lat="47.4483" lon="6.65541">
        <ele>300</ele>
        <time>2016-07-24T09:23:11.000Z</time>
      </trkpt>
      <trkpt lat="47.4483" lon="6.6555">
        <ele>300</ele>
        <time>2016-07-24T09:23:12.000Z</time>
      </trkpt>
      <trkpt lat="47.44831" lon="6.65557">
        <ele>300</ele>
        <time>2016-07-24T09:23:13.000Z</time>
      </trkpt>
      <trkpt lat="47.44832" lon="6.65563">
        <ele>300</ele>
        <time>2016-07-24T09:23:14.000Z</time>
      </trkpt>
      <trkpt lat="47.44832" lon="6.65569">
        <ele>300</ele>
        <time>2016-07-24T09:23:14.999Z</time>
      </trkpt>
      <trkpt lat="47.44833" lon="6.65573">
        <ele>299</ele>
        <time>2016-07-24T09:23:16.000Z</time>
      </trkpt>
      <trkpt lat="47.44834" lon="6.6558">
        <ele>299</ele>
        <time>2016-07-24T09:23:17.000Z</time>
      </trkpt>
      <trkpt lat="47.44835" lon="6.65585">
        <ele>299</ele>
        <time>2016-07-24T09:23:18.000Z</time>
      </trkpt>
      <trkpt lat="47.44836" lon="6.65592">
        <ele>299</ele>
        <time>2016-07-24T09:23:19.000Z</time>
      </trkpt>
      <trkpt lat="47.44837" lon="6.65597">
        <ele>299</ele>
        <time>2016-07-24T09:23:20.000Z</time>
      </trkpt>
      <trkpt lat="47.44838" lon="6.65603">
        <ele>299</ele>
        <time>2016-07-24T09:23:21.000Z</time>
      </trkpt>
      <trkpt lat="47.44838" lon="6.65609">
        <ele>299</ele>
        <time>2016-07-24T09:23:22.000Z</time>
      </trkpt>
      <trkpt lat="47.44839" lon="6.65615">
        <ele>299</ele>
        <time>2016-07-24T09:23:23.000Z</time>
      </trkpt>
      <trkpt lat="47.44839" lon="6.65621">
        <ele>299</ele>
        <time>2016-07-24T09:23:24.000Z</time>
      </trkpt>
      <trkpt lat="47.4484" lon="6.65627">
        <ele>299</ele>
        <time>2016-07-24T09:23:25.000Z</time>
      </trkpt>
      <trkpt lat="47.44841" lon="6.65633">
        <ele>299</ele>
        <time>2016-07-24T09:23:26.000Z</time>
      </trkpt>
      <trkpt lat="47.44841" lon="6.6564">
        <ele>299</ele>
        <time>2016-07-24T09:23:27.000Z</time>
      </trkpt>
      <trkpt lat="47.44841" lon="6.6565">
        <ele>299</ele>
        <time>2016-07-24T09:23:28.000Z</time>
      </trkpt>
      <trkpt lat="47.44842" lon="6.65657">
        <ele>299</ele>
        <time>2016-07-24T09:23:29.000Z</time>
      </trkpt>
      <trkpt lat="47.44843" lon="6.65665">
        <ele>299</ele>
        <time>2016-07-24T09:23:30.000Z</time>
      </trkpt>
      <trkpt lat="47.44843" lon="6.65672">
        <ele>299</ele>
        <time>2016-07-24T09:23:31.000Z</time>
      </trkpt>
      <trkpt lat="47.44843" lon="6.65687">
        <ele>299</ele>
        <time>2016-07-24T09:23:33.000Z</time>
      </trkpt>
      <trkpt lat="47.44844" lon="6.65694">
        <ele>299</ele>
        <time>2016-07-24T09:23:34.000Z</time>
      </trkpt>
      <trkpt lat="47.44844" lon="6.65701">
        <ele>299</ele>
        <time>2016-07-24T09:23:35.000Z</time>
      </trkpt>
      <trkpt lat="47.44844" lon="6.65708">
        <ele>299</ele>
        <time>2016-07-24T09:23:36.000Z</time>
      </trkpt>
      <trkpt lat="47.44844" lon="6.65716">
        <ele>299</ele>
        <time>2016-07-24T09:23:37.000Z</time>
      </trkpt>
      <trkpt lat="47.44844" lon="6.65723">
        <ele>299</ele>
        <time>2016-07-24T09:23:38.000Z</time>
      </trkpt>
      <trkpt lat="47.44845" lon="6.6573">
        <ele>299</ele>
        <time>2016-07-24T09:23:39.000Z</time>
      </trkpt>
      <trkpt lat="47.44846" lon="6.65739">
        <ele>299</ele>
        <time>2016-07-24T09:23:40.000Z</time>
      </trkpt>
      <trkpt lat="47.44847" lon="6.65747">
        <ele>299</ele>
        <time>2016-07-24T09:23:41.000Z</time>
      </trkpt>
      <trkpt lat="47.44848" lon="6.65754">
        <ele>299</ele>
        <time>2016-07-24T09:23:42.000Z</time>
      </trkpt>
      <trkpt lat="47.44849" lon="6.65761">
        <ele>299</ele>
        <time>2016-07-24T09:23:43.000Z</time>
      </trkpt>
      <trkpt lat="47.44849" lon="6.65768">
        <ele>299</ele>
        <time>2016-07-24T09:23:44.001Z</time>
      </trkpt>
      <trkpt lat="47.44849" lon="6.65776">
        <ele>299</ele>
        <time>2016-07-24T09:23:45.000Z</time>
      </trkpt>
      <trkpt lat="47.4485" lon="6.65783">
        <ele>299</ele>
        <time>2016-07-24T09:23:45.999Z</time>
      </trkpt>
      <trkpt lat="47.44849" lon="6.65788">
        <ele>299</ele>
        <time>2016-07-24T09:23:47.000Z</time>
      </trkpt>
      <trkpt lat="47.4485" lon="6.65794">
        <ele>299</ele>
        <time>2016-07-24T09:23:48.000Z</time>
      </trkpt>
      <trkpt lat="47.44851" lon="6.65802">
        <ele>299</ele>
        <time>2016-07-24T09:23:49.000Z</time>
      </trkpt>
      <trkpt lat="47.44853" lon="6.65809">
        <ele>299</ele>
        <time>2016-07-24T09:23:50.000Z</time>
      </trkpt>
      <trkpt lat="47.44855" lon="6.65816">
        <ele>299</ele>
        <time>2016-07-24T09:23:51.000Z</time>
      </trkpt>
      <trkpt lat="47.44855" lon="6.65822">
        <ele>299</ele>
        <time>2016-07-24T09:23:52.000Z</time>
      </trkpt>
      <trkpt lat="47.44855" lon="6.6583">
        <ele>299</ele>
        <time>2016-07-24T09:23:53.000Z</time>
      </trkpt>
      <trkpt lat="47.44857" lon="6.65838">
        <ele>300</ele>
        <time>2016-07-24T09:23:54.000Z</time>
      </trkpt>
      <trkpt lat="47.44858" lon="6.65845">
        <ele>299</ele>
        <time>2016-07-24T09:23:55.000Z</time>
      </trkpt>
      <trkpt lat="47.44858" lon="6.65852">
        <ele>299</ele>
        <time>2016-07-24T09:23:56.000Z</time>
      </trkpt>
      <trkpt lat="47.44859" lon="6.65859">
        <ele>299</ele>
        <time>2016-07-24T09:23:57.000Z</time>
      </trkpt>
      <trkpt lat="47.44859" lon="6.65867">
        <ele>299</ele>
        <time>2016-07-24T09:23:58.000Z</time>
      </trkpt>
      <trkpt lat="47.4486" lon="6.65874">
        <ele>299</ele>
        <time>2016-07-24T09:23:59.000Z</time>
      </trkpt>
      <trkpt lat="47.4486" lon="6.65882">
        <ele>299</ele>
        <time>2016-07-24T09:24:00.000Z</time>
      </trkpt>
      <trkpt lat="47.44861" lon="6.6589">
        <ele>299</ele>
        <time>2016-07-24T09:24:01.000Z</time>
      </trkpt>
      <trkpt lat="47.44861" lon="6.65898">
        <ele>299</ele>
        <time>2016-07-24T09:24:02.000Z</time>
      </trkpt>
      <trkpt lat="47.44862" lon="6.65906">
        <ele>299</ele>
        <time>2016-07-24T09:24:03.001Z</time>
      </trkpt>
      <trkpt lat="47.44862" lon="6.65912">
        <ele>299</ele>
        <time>2016-07-24T09:24:04.000Z</time>
      </trkpt>
      <trkpt lat="47.44862" lon="6.65919">
        <ele>299</ele>
        <time>2016-07-24T09:24:05.000Z</time>
      </trkpt>
      <trkpt lat="47.44863" lon="6.65926">
        <ele>299</ele>
        <time>2016-07-24T09:24:05.999Z</time>
      </trkpt>
      <trkpt lat="47.44863" lon="6.65933">
        <ele>299</ele>
        <time>2016-07-24T09:24:07.000Z</time>
      </trkpt>
      <trkpt lat="47.44863" lon="6.65941">
        <ele>299</ele>
        <time>2016-07-24T09:24:08.000Z</time>
      </trkpt>
      <trkpt lat="47.44862" lon="6.65951">
        <ele>299</ele>
        <time>2016-07-24T09:24:09.000Z</time>
      </trkpt>
      <trkpt lat="47.44863" lon="6.65958">
        <ele>299</ele>
        <time>2016-07-24T09:24:10.000Z</time>
      </trkpt>
      <trkpt lat="47.44864" lon="6.65964">
        <ele>299</ele>
        <time>2016-07-24T09:24:11.000Z</time>
      </trkpt>
      <trkpt lat="47.44864" lon="6.65972">
        <ele>299</ele>
        <time>2016-07-24T09:24:12.000Z</time>
      </trkpt>
      <trkpt lat="47.44865" lon="6.65981">
        <ele>299</ele>
        <time>2016-07-24T09:24:13.000Z</time>
      </trkpt>
      <trkpt lat="47.44867" lon="6.65991">
        <ele>299</ele>
        <time>2016-07-24T09:24:14.000Z</time>
      </trkpt>
      <trkpt lat="47.44868" lon="6.65999">
        <ele>299</ele>
        <time>2016-07-24T09:24:15.000Z</time>
      </trkpt>
      <trkpt lat="47.44869" lon="6.66007">
        <ele>299</ele>
        <time>2016-07-24T09:24:15.999Z</time>
      </trkpt>
      <trkpt lat="47.4487" lon="6.66016">
        <ele>299</ele>
        <time>2016-07-24T09:24:17.000Z</time>
      </trkpt>
      <trkpt lat="47.44871" lon="6.66024">
        <ele>299</ele>
        <time>2016-07-24T09:24:18.000Z</time>
      </trkpt>
      <trkpt lat="47.44872" lon="6.66031">
        <ele>299</ele>
        <time>2016-07-24T09:24:19.000Z</time>
      </trkpt>
      <trkpt lat="47.44873" lon="6.66038">
        <ele>299</ele>
        <time>2016-07-24T09:24:20.000Z</time>
      </trkpt>
      <trkpt lat="47.44873" lon="6.66044">
        <ele>299</ele>
        <time>2016-07-24T09:24:21.000Z</time>
      </trkpt>
      <trkpt lat="47.44873" lon="6.6605">
        <ele>299</ele>
        <time>2016-07-24T09:24:22.000Z</time>
      </trkpt>
      <trkpt lat="47.44874" lon="6.66057">
        <ele>299</ele>
        <time>2016-07-24T09:24:23.000Z</time>
      </trkpt>
      <trkpt lat="47.44873" lon="6.66064">
        <ele>299</ele>
        <time>2016-07-24T09:24:24.000Z</time>
      </trkpt>
      <trkpt lat="47.44873" lon="6.66072">
        <ele>299</ele>
        <time>2016-07-24T09:24:25.000Z</time>
      </trkpt>
      <trkpt lat="47.44873" lon="6.66081">
        <ele>299</ele>
        <time>2016-07-24T09:24:25.999Z</time>
      </trkpt>
      <trkpt lat="47.44874" lon="6.66091">
        <ele>299</ele>
        <time>2016-07-24T09:24:27.000Z</time>
      </trkpt>
      <trkpt lat="47.44874" lon="6.66098">
        <ele>299</ele>
        <time>2016-07-24T09:24:28.000Z</time>
      </trkpt>
      <trkpt lat="47.44874" lon="6.66106">
        <ele>299</ele>
        <time>2016-07-24T09:24:29.000Z</time>
      </trkpt>
      <trkpt lat="47.44876" lon="6.66113">
        <ele>299</ele>
        <time>2016-07-24T09:24:30.000Z</time>
      </trkpt>
      <trkpt lat="47.44877" lon="6.66121">
        <ele>299</ele>
        <time>2016-07-24T09:24:31.001Z</time>
      </trkpt>
      <trkpt lat="47.44877" lon="6.66127">
        <ele>299</ele>
        <time>2016-07-24T09:24:32.000Z</time>
      </trkpt>
      <trkpt lat="47.44878" lon="6.66135">
        <ele>300</ele>
        <time>2016-07-24T09:24:33.000Z</time>
      </trkpt>
      <trkpt lat="47.44878" lon="6.66143">
        <ele>300</ele>
        <time>2016-07-24T09:24:34.000Z</time>
      </trkpt>
      <trkpt lat="47.44879" lon="6.66149">
        <ele>300</ele>
        <time>2016-07-24T09:24:35.000Z</time>
      </trkpt>
      <trkpt lat="47.44879" lon="6.66155">
        <ele>300</ele>
        <time>2016-07-24T09:24:35.999Z</time>
      </trkpt>
      <trkpt lat="47.4488" lon="6.66164">
        <ele>300</ele>
        <time>2016-07-24T09:24:37.000Z</time>
      </trkpt>
      <trkpt lat="47.4488" lon="6.66173">
        <ele>300</ele>
        <time>2016-07-24T09:24:38.000Z</time>
      </trkpt>
      <trkpt lat="47.44881" lon="6.66182">
        <ele>300</ele>
        <time>2016-07-24T09:24:39.000Z</time>
      </trkpt>
      <trkpt lat="47.44883" lon="6.66189">
        <ele>300</ele>
        <time>2016-07-24T09:24:40.000Z</time>
      </trkpt>
      <trkpt lat="47.44884" lon="6.66195">
        <ele>300</ele>
        <time>2016-07-24T09:24:41.001Z</time>
      </trkpt>
      <trkpt lat="47.44884" lon="6.66205">
        <ele>300</ele>
        <time>2016-07-24T09:24:42.000Z</time>
      </trkpt>
      <trkpt lat="47.44884" lon="6.66213">
        <ele>300</ele>
        <time>2016-07-24T09:24:43.000Z</time>
      </trkpt>
      <trkpt lat="47.44885" lon="6.66222">
        <ele>300</ele>
        <time>2016-07-24T09:24:44.000Z</time>
      </trkpt>
      <trkpt lat="47.44885" lon="6.66231">
        <ele>300</ele>
        <time>2016-07-24T09:24:45.000Z</time>
      </trkpt>
      <trkpt lat="47.44887" lon="6.6624">
        <ele>300</ele>
        <time>2016-07-24T09:24:46.000Z</time>
      </trkpt>
      <trkpt lat="47.44888" lon="6.66249">
        <ele>300</ele>
        <time>2016-07-24T09:24:47.000Z</time>
      </trkpt>
      <trkpt lat="47.44889" lon="6.66258">
        <ele>300</ele>
        <time>2016-07-24T09:24:47.999Z</time>
      </trkpt>
      <trkpt lat="47.4489" lon="6.66265">
        <ele>300</ele>
        <time>2016-07-24T09:24:49.000Z</time>
      </trkpt>
      <trkpt lat="47.44891" lon="6.66273">
        <ele>300</ele>
        <time>2016-07-24T09:24:50.000Z</time>
      </trkpt>
      <trkpt lat="47.44892" lon="6.6628">
        <ele>300</ele>
        <time>2016-07-24T09:24:50.999Z</time>
      </trkpt>
      <trkpt lat="47.44891" lon="6.6629">
        <ele>300</ele>
        <time>2016-07-24T09:24:52.000Z</time>
      </trkpt>
      <trkpt lat="47.44891" lon="6.66298">
        <ele>300</ele>
        <time>2016-07-24T09:24:52.999Z</time>
      </trkpt>
      <trkpt lat="47.44892" lon="6.66307">
        <ele>300</ele>
        <time>2016-07-24T09:24:54.000Z</time>
      </trkpt>
      <trkpt lat="47.44891" lon="6.66316">
        <ele>300</ele>
        <time>2016-07-24T09:24:55.000Z</time>
      </trkpt>
      <trkpt lat="47.44892" lon="6.66324">
        <ele>300</ele>
        <time>2016-07-24T09:24:56.000Z</time>
      </trkpt>
      <trkpt lat="47.44893" lon="6.66333">
        <ele>300</ele>
        <time>2016-07-24T09:24:57.000Z</time>
      </trkpt>
      <trkpt lat="47.44893" lon="6.66341">
        <ele>300</ele>
        <time>2016-07-24T09:24:58.000Z</time>
      </trkpt>
      <trkpt lat="47.44894" lon="6.66348">
        <ele>300</ele>
        <time>2016-07-24T09:24:59.000Z</time>
      </trkpt>
      <trkpt lat="47.44894" lon="6.66357">
        <ele>300</ele>
        <time>2016-07-24T09:25:00.000Z</time>
      </trkpt>
      <trkpt lat="47.44894" lon="6.66367">
        <ele>300</ele>
        <time>2016-07-24T09:25:01.000Z</time>
      </trkpt>
      <trkpt lat="47.44896" lon="6.66376">
        <ele>300</ele>
        <time>2016-07-24T09:25:02.000Z</time>
      </trkpt>
      <trkpt lat="47.44897" lon="6.66384">
        <ele>300</ele>
        <time>2016-07-24T09:25:03.000Z</time>
      </trkpt>
      <trkpt lat="47.44896" lon="6.66392">
        <ele>300</ele>
        <time>2016-07-24T09:25:04.000Z</time>
      </trkpt>
      <trkpt lat="47.44896" lon="6.66399">
        <ele>300</ele>
        <time>2016-07-24T09:25:05.000Z</time>
      </trkpt>
      <trkpt lat="47.44895" lon="6.66408">
        <ele>300</ele>
        <time>2016-07-24T09:25:06.000Z</time>
      </trkpt>
      <trkpt lat="47.44896" lon="6.66416">
        <ele>300</ele>
        <time>2016-07-24T09:25:07.000Z</time>
      </trkpt>
      <trkpt lat="47.44898" lon="6.66423">
        <ele>300</ele>
        <time>2016-07-24T09:25:08.000Z</time>
      </trkpt>
      <trkpt lat="47.44897" lon="6.66433">
        <ele>300</ele>
        <time>2016-07-24T09:25:09.000Z</time>
      </trkpt>
      <trkpt lat="47.44898" lon="6.66441">
        <ele>300</ele>
        <time>2016-07-24T09:25:10.000Z</time>
      </trkpt>
      <trkpt lat="47.44898" lon="6.66452">
        <ele>300</ele>
        <time>2016-07-24T09:25:11.000Z</time>
      </trkpt>
      <trkpt lat="47.44898" lon="6.66462">
        <ele>300</ele>
        <time>2016-07-24T09:25:11.999Z</time>
      </trkpt>
      <trkpt lat="47.44902" lon="6.66469">
        <ele>300</ele>
        <time>2016-07-24T09:25:13.000Z</time>
      </trkpt>
      <trkpt lat="47.44903" lon="6.66478">
        <ele>299</ele>
        <time>2016-07-24T09:25:14.000Z</time>
      </trkpt>
      <trkpt lat="47.44903" lon="6.66486">
        <ele>299</ele>
        <time>2016-07-24T09:25:15.000Z</time>
      </trkpt>
      <trkpt lat="47.44904" lon="6.66495">
        <ele>299</ele>
        <time>2016-07-24T09:25:16.000Z</time>
      </trkpt>
      <trkpt lat="47.44905" lon="6.66505">
        <ele>299</ele>
        <time>2016-07-24T09:25:17.000Z</time>
      </trkpt>
      <trkpt lat="47.44907" lon="6.66513">
        <ele>299</ele>
        <time>2016-07-24T09:25:18.000Z</time>
      </trkpt>
      <trkpt lat="47.44908" lon="6.66521">
        <ele>299</ele>
        <time>2016-07-24T09:25:19.000Z</time>
      </trkpt>
      <trkpt lat="47.44908" lon="6.66531">
        <ele>299</ele>
        <time>2016-07-24T09:25:20.000Z</time>
      </trkpt>
      <trkpt lat="47.44908" lon="6.66542">
        <ele>299</ele>
        <time>2016-07-24T09:25:21.000Z</time>
      </trkpt>
      <trkpt lat="47.44907" lon="6.66553">
        <ele>299</ele>
        <time>2016-07-24T09:25:22.000Z</time>
      </trkpt>
      <trkpt lat="47.44908" lon="6.66562">
        <ele>300</ele>
        <time>2016-07-24T09:25:23.000Z</time>
      </trkpt>
      <trkpt lat="47.44909" lon="6.6657">
        <ele>300</ele>
        <time>2016-07-24T09:25:24.000Z</time>
      </trkpt>
      <trkpt lat="47.4491" lon="6.66577">
        <ele>300</ele>
        <time>2016-07-24T09:25:25.000Z</time>
      </trkpt>
      <trkpt lat="47.44911" lon="6.66585">
        <ele>300</ele>
        <time>2016-07-24T09:25:26.000Z</time>
      </trkpt>
      <trkpt lat="47.44911" lon="6.66596">
        <ele>300</ele>
        <time>2016-07-24T09:25:27.000Z</time>
      </trkpt>
      <trkpt lat="47.44912" lon="6.66606">
        <ele>300</ele>
        <time>2016-07-24T09:25:28.000Z</time>
      </trkpt>
      <trkpt lat="47.44912" lon="6.66614">
        <ele>300</ele>
        <time>2016-07-24T09:25:29.000Z</time>
      </trkpt>
      <trkpt lat="47.44912" lon="6.66624">
        <ele>300</ele>
        <time>2016-07-24T09:25:30.000Z</time>
      </trkpt>
      <trkpt lat="47.44913" lon="6.66633">
        <ele>300</ele>
        <time>2016-07-24T09:25:31.000Z</time>
      </trkpt>
      <trkpt lat="47.44915" lon="6.66642">
        <ele>300</ele>
        <time>2016-07-24T09:25:32.000Z</time>
      </trkpt>
      <trkpt lat="47.44916" lon="6.6665">
        <ele>300</ele>
        <time>2016-07-24T09:25:32.998Z</time>
      </trkpt>
      <trkpt lat="47.44916" lon="6.6666">
        <ele>300</ele>
        <time>2016-07-24T09:25:34.000Z</time>
      </trkpt>
      <trkpt lat="47.44916" lon="6.66668">
        <ele>300</ele>
        <time>2016-07-24T09:25:35.000Z</time>
      </trkpt>
      <trkpt lat="47.44918" lon="6.66678">
        <ele>300</ele>
        <time>2016-07-24T09:25:36.000Z</time>
      </trkpt>
      <trkpt lat="47.44919" lon="6.66685">
        <ele>300</ele>
        <time>2016-07-24T09:25:37.000Z</time>
      </trkpt>
      <trkpt lat="47.4492" lon="6.66694">
        <ele>300</ele>
        <time>2016-07-24T09:25:38.000Z</time>
      </trkpt>
      <trkpt lat="47.44922" lon="6.66705">
        <ele>300</ele>
        <time>2016-07-24T09:25:39.000Z</time>
      </trkpt>
      <trkpt lat="47.44923" lon="6.66715">
        <ele>300</ele>
        <time>2016-07-24T09:25:40.000Z</time>
      </trkpt>
      <trkpt lat="47.44925" lon="6.66724">
        <ele>300</ele>
        <time>2016-07-24T09:25:40.999Z</time>
      </trkpt>
      <trkpt lat="47.44925" lon="6.66734">
        <ele>300</ele>
        <time>2016-07-24T09:25:42.000Z</time>
      </trkpt>
      <trkpt lat="47.44926" lon="6.66744">
        <ele>300</ele>
        <time>2016-07-24T09:25:43.000Z</time>
      </trkpt>
      <trkpt lat="47.44928" lon="6.66753">
        <ele>301</ele>
        <time>2016-07-24T09:25:44.001Z</time>
      </trkpt>
      <trkpt lat="47.44927" lon="6.66762">
        <ele>301</ele>
        <time>2016-07-24T09:25:45.000Z</time>
      </trkpt>
      <trkpt lat="47.44927" lon="6.6677">
        <ele>300</ele>
        <time>2016-07-24T09:25:46.000Z</time>
      </trkpt>
      <trkpt lat="47.44927" lon="6.66779">
        <ele>300</ele>
        <time>2016-07-24T09:25:47.000Z</time>
      </trkpt>
      <trkpt lat="47.44927" lon="6.66787">
        <ele>300</ele>
        <time>2016-07-24T09:25:48.000Z</time>
      </trkpt>
      <trkpt lat="47.44929" lon="6.66798">
        <ele>300</ele>
        <time>2016-07-24T09:25:49.000Z</time>
      </trkpt>
      <trkpt lat="47.44929" lon="6.66807">
        <ele>300</ele>
        <time>2016-07-24T09:25:50.000Z</time>
      </trkpt>
      <trkpt lat="47.4493" lon="6.66816">
        <ele>300</ele>
        <time>2016-07-24T09:25:51.000Z</time>
      </trkpt>
      <trkpt lat="47.4493" lon="6.66823">
        <ele>301</ele>
        <time>2016-07-24T09:25:52.000Z</time>
      </trkpt>
      <trkpt lat="47.4493" lon="6.66831">
        <ele>301</ele>
        <time>2016-07-24T09:25:53.000Z</time>
      </trkpt>
      <trkpt lat="47.44931" lon="6.6684">
        <ele>301</ele>
        <time>2016-07-24T09:25:54.001Z</time>
      </trkpt>
      <trkpt lat="47.44932" lon="6.66846">
        <ele>301</ele>
        <time>2016-07-24T09:25:55.000Z</time>
      </trkpt>
      <trkpt lat="47.44933" lon="6.66854">
        <ele>300</ele>
        <time>2016-07-24T09:25:55.998Z</time>
      </trkpt>
      <trkpt lat="47.44933" lon="6.66863">
        <ele>300</ele>
        <time>2016-07-24T09:25:57.000Z</time>
      </trkpt>
      <trkpt lat="47.44934" lon="6.66872">
        <ele>300</ele>
        <time>2016-07-24T09:25:58.000Z</time>
      </trkpt>
      <trkpt lat="47.44935" lon="6.66881">
        <ele>300</ele>
        <time>2016-07-24T09:25:59.000Z</time>
      </trkpt>
      <trkpt lat="47.44936" lon="6.66889">
        <ele>300</ele>
        <time>2016-07-24T09:26:00.000Z</time>
      </trkpt>
      <trkpt lat="47.44936" lon="6.66898">
        <ele>301</ele>
        <time>2016-07-24T09:26:01.000Z</time>
      </trkpt>
      <trkpt lat="47.44936" lon="6.66907">
        <ele>301</ele>
        <time>2016-07-24T09:26:02.000Z</time>
      </trkpt>
      <trkpt lat="47.44936" lon="6.66916">
        <ele>301</ele>
        <time>2016-07-24T09:26:03.000Z</time>
      </trkpt>
      <trkpt lat="47.44938" lon="6.66925">
        <ele>301</ele>
        <time>2016-07-24T09:26:04.000Z</time>
      </trkpt>
      <trkpt lat="47.44939" lon="6.66934">
        <ele>301</ele>
        <time>2016-07-24T09:26:05.000Z</time>
      </trkpt>
      <trkpt lat="47.44939" lon="6.66942">
        <ele>301</ele>
        <time>2016-07-24T09:26:06.000Z</time>
      </trkpt>
      <trkpt lat="47.4494" lon="6.6695">
        <ele>301</ele>
        <time>2016-07-24T09:26:07.000Z</time>
      </trkpt>
      <trkpt lat="47.4494" lon="6.66959">
        <ele>301</ele>
        <time>2016-07-24T09:26:08.000Z</time>
      </trkpt>
      <trkpt lat="47.44941" lon="6.66968">
        <ele>301</ele>
        <time>2016-07-24T09:26:09.000Z</time>
      </trkpt>
      <trkpt lat="47.44942" lon="6.66977">
        <ele>301</ele>
        <time>2016-07-24T09:26:10.000Z</time>
      </trkpt>
      <trkpt lat="47.44942" lon="6.66987">
        <ele>301</ele>
        <time>2016-07-24T09:26:11.000Z</time>
      </trkpt>
      <trkpt lat="47.44942" lon="6.66996">
        <ele>301</ele>
        <time>2016-07-24T09:26:12.000Z</time>
      </trkpt>
      <trkpt lat="47.44944" lon="6.67005">
        <ele>302</ele>
        <time>2016-07-24T09:26:13.000Z</time>
      </trkpt>
      <trkpt lat="47.44944" lon="6.67013">
        <ele>302</ele>
        <time>2016-07-24T09:26:14.000Z</time>
      </trkpt>
      <trkpt lat="47.44945" lon="6.67022">
        <ele>302</ele>
        <time>2016-07-24T09:26:15.000Z</time>
      </trkpt>
      <trkpt lat="47.44946" lon="6.67031">
        <ele>302</ele>
        <time>2016-07-24T09:26:16.000Z</time>
      </trkpt>
      <trkpt lat="47.44946" lon="6.67039">
        <ele>302</ele>
        <time>2016-07-24T09:26:17.000Z</time>
      </trkpt>
      <trkpt lat="47.44947" lon="6.67048">
        <ele>302</ele>
        <time>2016-07-24T09:26:18.000Z</time>
      </trkpt>
      <trkpt lat="47.44948" lon="6.67055">
        <ele>302</ele>
        <time>2016-07-24T09:26:19.000Z</time>
      </trkpt>
      <trkpt lat="47.44948" lon="6.67063">
        <ele>302</ele>
        <time>2016-07-24T09:26:20.000Z</time>
      </trkpt>
      <trkpt lat="47.44949" lon="6.67072">
        <ele>302</ele>
        <time>2016-07-24T09:26:21.000Z</time>
      </trkpt>
      <trkpt lat="47.4495" lon="6.67081">
        <ele>302</ele>
        <time>2016-07-24T09:26:22.000Z</time>
      </trkpt>
      <trkpt lat="47.4495" lon="6.6709">
        <ele>302</ele>
        <time>2016-07-24T09:26:23.000Z</time>
      </trkpt>
      <trkpt lat="47.44951" lon="6.671">
        <ele>302</ele>
        <time>2016-07-24T09:26:24.000Z</time>
      </trkpt>
      <trkpt lat="47.44952" lon="6.67108">
        <ele>302</ele>
        <time>2016-07-24T09:26:25.000Z</time>
      </trkpt>
      <trkpt lat="47.44953" lon="6.67117">
        <ele>301</ele>
        <time>2016-07-24T09:26:26.000Z</time>
      </trkpt>
      <trkpt lat="47.44953" lon="6.67127">
        <ele>301</ele>
        <time>2016-07-24T09:26:27.000Z</time>
      </trkpt>
      <trkpt lat="47.44954" lon="6.67135">
        <ele>301</ele>
        <time>2016-07-24T09:26:28.000Z</time>
      </trkpt>
      <trkpt lat="47.44954" lon="6.67145">
        <ele>301</ele>
        <time>2016-07-24T09:26:29.000Z</time>
      </trkpt>
      <trkpt lat="47.44955" lon="6.67155">
        <ele>301</ele>
        <time>2016-07-24T09:26:30.000Z</time>
      </trkpt>
      <trkpt lat="47.44955" lon="6.67164">
        <ele>301</ele>
        <time>2016-07-24T09:26:31.000Z</time>
      </trkpt>
      <trkpt lat="47.44955" lon="6.67174">
        <ele>301</ele>
        <time>2016-07-24T09:26:32.000Z</time>
      </trkpt>
      <trkpt lat="47.44956" lon="6.67183">
        <ele>301</ele>
        <time>2016-07-24T09:26:33.000Z</time>
      </trkpt>
      <trkpt lat="47.44957" lon="6.67193">
        <ele>301</ele>
        <time>2016-07-24T09:26:34.000Z</time>
      </trkpt>
      <trkpt lat="47.44957" lon="6.67203">
        <ele>301</ele>
        <time>2016-07-24T09:26:35.000Z</time>
      </trkpt>
      <trkpt lat="47.44958" lon="6.67213">
        <ele>301</ele>
        <time>2016-07-24T09:26:36.000Z</time>
      </trkpt>
      <trkpt lat="47.44958" lon="6.67223">
        <ele>301</ele>
        <time>2016-07-24T09:26:37.000Z</time>
      </trkpt>
      <trkpt lat="47.44959" lon="6.67233">
        <ele>301</ele>
        <time>2016-07-24T09:26:38.000Z</time>
      </trkpt>
      <trkpt lat="47.4496" lon="6.67242">
        <ele>301</ele>
        <time>2016-07-24T09:26:39.000Z</time>
      </trkpt>
      <trkpt lat="47.44961" lon="6.67252">
        <ele>302</ele>
        <time>2016-07-24T09:26:40.000Z</time>
      </trkpt>
      <trkpt lat="47.44961" lon="6.67261">
        <ele>302</ele>
        <time>2016-07-24T09:26:41.000Z</time>
      </trkpt>
      <trkpt lat="47.44962" lon="6.6727">
        <ele>302</ele>
        <time>2016-07-24T09:26:42.000Z</time>
      </trkpt>
      <trkpt lat="47.44962" lon="6.6728">
        <ele>302</ele>
        <time>2016-07-24T09:26:43.000Z</time>
      </trkpt>
      <trkpt lat="47.44963" lon="6.67288">
        <ele>302</ele>
        <time>2016-07-24T09:26:44.000Z</time>
      </trkpt>
      <trkpt lat="47.44963" lon="6.67297">
        <ele>302</ele>
        <time>2016-07-24T09:26:45.000Z</time>
      </trkpt>
      <trkpt lat="47.44963" lon="6.67307">
        <ele>302</ele>
        <time>2016-07-24T09:26:46.000Z</time>
      </trkpt>
      <trkpt lat="47.44964" lon="6.67316">
        <ele>302</ele>
        <time>2016-07-24T09:26:47.000Z</time>
      </trkpt>
      <trkpt lat="47.44965" lon="6.67325">
        <ele>302</ele>
        <time>2016-07-24T09:26:48.000Z</time>
      </trkpt>
      <trkpt lat="47.44966" lon="6.67334">
        <ele>302</ele>
        <time>2016-07-24T09:26:49.000Z</time>
      </trkpt>
      <trkpt lat="47.44967" lon="6.67344">
        <ele>302</ele>
        <time>2016-07-24T09:26:50.000Z</time>
      </trkpt>
      <trkpt lat="47.44968" lon="6.67353">
        <ele>302</ele>
        <time>2016-07-24T09:26:51.000Z</time>
      </trkpt>
      <trkpt lat="47.44969" lon="6.67362">
        <ele>302</ele>
        <time>2016-07-24T09:26:52.000Z</time>
      </trkpt>
      <trkpt lat="47.4497" lon="6.67372">
        <ele>302</ele>
        <time>2016-07-24T09:26:53.000Z</time>
      </trkpt>
      <trkpt lat="47.44971" lon="6.67381">
        <ele>302</ele>
        <time>2016-07-24T09:26:54.000Z</time>
      </trkpt>
      <trkpt lat="47.44972" lon="6.6739">
        <ele>302</ele>
        <time>2016-07-24T09:26:55.000Z</time>
      </trkpt>
      <trkpt lat="47.44972" lon="6.67399">
        <ele>302</ele>
        <time>2016-07-24T09:26:56.000Z</time>
      </trkpt>
      <trkpt lat="47.44973" lon="6.67409">
        <ele>302</ele>
        <time>2016-07-24T09:26:57.000Z</time>
      </trkpt>
      <trkpt lat="47.44974" lon="6.67418">
        <ele>302</ele>
        <time>2016-07-24T09:26:58.000Z</time>
      </trkpt>
      <trkpt lat="47.44975" lon="6.67428">
        <ele>302</ele>
        <time>2016-07-24T09:26:59.000Z</time>
      </trkpt>
      <trkpt lat="47.44976" lon="6.67438">
        <ele>302</ele>
        <time>2016-07-24T09:27:00.000Z</time>
      </trkpt>
      <trkpt lat="47.44977" lon="6.67447">
        <ele>302</ele>
        <time>2016-07-24T09:27:01.000Z</time>
      </trkpt>
      <trkpt lat="47.44979" lon="6.67456">
        <ele>302</ele>
        <time>2016-07-24T09:27:02.000Z</time>
      </trkpt>
      <trkpt lat="47.4498" lon="6.67463">
        <ele>302</ele>
        <time>2016-07-24T09:27:03.000Z</time>
      </trkpt>
      <trkpt lat="47.44981" lon="6.67471">
        <ele>302</ele>
        <time>2016-07-24T09:27:04.000Z</time>
      </trkpt>
      <trkpt lat="47.44982" lon="6.67479">
        <ele>302</ele>
        <time>2016-07-24T09:27:05.000Z</time>
      </trkpt>
      <trkpt lat="47.44983" lon="6.67487">
        <ele>302</ele>
        <time>2016-07-24T09:27:06.000Z</time>
      </trkpt>
      <trkpt lat="47.44984" lon="6.67493">
        <ele>302</ele>
        <time>2016-07-24T09:27:07.000Z</time>
      </trkpt>
      <trkpt lat="47.44984" lon="6.675">
        <ele>302</ele>
        <time>2016-07-24T09:27:08.000Z</time>
      </trkpt>
      <trkpt lat="47.44985" lon="6.67505">
        <ele>301</ele>
        <time>2016-07-24T09:27:09.000Z</time>
      </trkpt>
      <trkpt lat="47.44986" lon="6.67509">
        <ele>301</ele>
        <time>2016-07-24T09:27:10.000Z</time>
      </trkpt>
      <trkpt lat="47.44987" lon="6.67516">
        <ele>301</ele>
        <time>2016-07-24T09:27:11.000Z</time>
      </trkpt>
      <trkpt lat="47.44987" lon="6.67521">
        <ele>301</ele>
        <time>2016-07-24T09:27:12.000Z</time>
      </trkpt>
      <trkpt lat="47.44988" lon="6.67527">
        <ele>301</ele>
        <time>2016-07-24T09:27:13.000Z</time>
      </trkpt>
      <trkpt lat="47.44988" lon="6.67533">
        <ele>301</ele>
        <time>2016-07-24T09:27:14.000Z</time>
      </trkpt>
      <trkpt lat="47.44989" lon="6.6754">
        <ele>301</ele>
        <time>2016-07-24T09:27:15.000Z</time>
      </trkpt>
      <trkpt lat="47.4499" lon="6.67547">
        <ele>301</ele>
        <time>2016-07-24T09:27:16.000Z</time>
      </trkpt>
      <trkpt lat="47.44991" lon="6.67554">
        <ele>301</ele>
        <time>2016-07-24T09:27:17.000Z</time>
      </trkpt>
      <trkpt lat="47.44991" lon="6.6756">
        <ele>301</ele>
        <time>2016-07-24T09:27:18.000Z</time>
      </trkpt>
      <trkpt lat="47.44992" lon="6.67567">
        <ele>301</ele>
        <time>2016-07-24T09:27:19.000Z</time>
      </trkpt>
      <trkpt lat="47.44991" lon="6.67574">
        <ele>301</ele>
        <time>2016-07-24T09:27:20.000Z</time>
      </trkpt>
      <trkpt lat="47.44991" lon="6.67581">
        <ele>301</ele>
        <time>2016-07-24T09:27:21.000Z</time>
      </trkpt>
      <trkpt lat="47.44992" lon="6.67589">
        <ele>301</ele>
        <time>2016-07-24T09:27:22.000Z</time>
      </trkpt>
      <trkpt lat="47.44992" lon="6.67597">
        <ele>301</ele>
        <time>2016-07-24T09:27:23.000Z</time>
      </trkpt>
      <trkpt lat="47.44993" lon="6.67604">
        <ele>301</ele>
        <time>2016-07-24T09:27:24.000Z</time>
      </trkpt>
      <trkpt lat="47.44993" lon="6.67612">
        <ele>301</ele>
        <time>2016-07-24T09:27:25.000Z</time>
      </trkpt>
      <trkpt lat="47.44993" lon="6.6762">
        <ele>301</ele>
        <time>2016-07-24T09:27:26.000Z</time>
      </trkpt>
      <trkpt lat="47.44994" lon="6.67628">
        <ele>301</ele>
        <time>2016-07-24T09:27:27.000Z</time>
      </trkpt>
      <trkpt lat="47.44994" lon="6.67636">
        <ele>302</ele>
        <time>2016-07-24T09:27:28.000Z</time>
      </trkpt>
      <trkpt lat="47.44995" lon="6.67643">
        <ele>302</ele>
        <time>2016-07-24T09:27:29.000Z</time>
      </trkpt>
      <trkpt lat="47.44995" lon="6.6765">
        <ele>302</ele>
        <time>2016-07-24T09:27:30.000Z</time>
      </trkpt>
      <trkpt lat="47.44996" lon="6.67657">
        <ele>302</ele>
        <time>2016-07-24T09:27:31.000Z</time>
      </trkpt>
      <trkpt lat="47.44997" lon="6.67672">
        <ele>303</ele>
        <time>2016-07-24T09:27:33.000Z</time>
      </trkpt>
      <trkpt lat="47.44998" lon="6.67678">
        <ele>303</ele>
        <time>2016-07-24T09:27:34.000Z</time>
      </trkpt>
      <trkpt lat="47.44998" lon="6.67685">
        <ele>302</ele>
        <time>2016-07-24T09:27:35.000Z</time>
      </trkpt>
      <trkpt lat="47.44998" lon="6.67692">
        <ele>302</ele>
        <time>2016-07-24T09:27:36.000Z</time>
      </trkpt>
      <trkpt lat="47.44998" lon="6.67699">
        <ele>302</ele>
        <time>2016-07-24T09:27:37.000Z</time>
      </trkpt>
      <trkpt lat="47.44999" lon="6.67707">
        <ele>302</ele>
        <time>2016-07-24T09:27:38.000Z</time>
      </trkpt>
      <trkpt lat="47.45" lon="6.67716">
        <ele>302</ele>
        <time>2016-07-24T09:27:39.000Z</time>
      </trkpt>
      <trkpt lat="47.45" lon="6.67724">
        <ele>302</ele>
        <time>2016-07-24T09:27:40.000Z</time>
      </trkpt>
      <trkpt lat="47.45001" lon="6.67732">
        <ele>302</ele>
        <time>2016-07-24T09:27:41.000Z</time>
      </trkpt>
      <trkpt lat="47.45001" lon="6.6774">
        <ele>302</ele>
        <time>2016-07-24T09:27:42.000Z</time>
      </trkpt>
      <trkpt lat="47.45002" lon="6.67748">
        <ele>302</ele>
        <time>2016-07-24T09:27:43.000Z</time>
      </trkpt>
      <trkpt lat="47.45002" lon="6.67756">
        <ele>302</ele>
        <time>2016-07-24T09:27:44.000Z</time>
      </trkpt>
      <trkpt lat="47.45003" lon="6.67764">
        <ele>302</ele>
        <time>2016-07-24T09:27:45.000Z</time>
      </trkpt>
      <trkpt lat="47.45004" lon="6.67773">
        <ele>302</ele>
        <time>2016-07-24T09:27:46.000Z</time>
      </trkpt>
      <trkpt lat="47.45005" lon="6.67781">
        <ele>301</ele>
        <time>2016-07-24T09:27:47.000Z</time>
      </trkpt>
      <trkpt lat="47.45005" lon="6.67789">
        <ele>301</ele>
        <time>2016-07-24T09:27:48.000Z</time>
      </trkpt>
      <trkpt lat="47.45006" lon="6.67798">
        <ele>301</ele>
        <time>2016-07-24T09:27:49.000Z</time>
      </trkpt>
      <trkpt lat="47.45006" lon="6.67807">
        <ele>301</ele>
        <time>2016-07-24T09:27:50.000Z</time>
      </trkpt>
      <trkpt lat="47.45007" lon="6.67815">
        <ele>301</ele>
        <time>2016-07-24T09:27:51.000Z</time>
      </trkpt>
      <trkpt lat="47.45008" lon="6.67823">
        <ele>301</ele>
        <time>2016-07-24T09:27:52.000Z</time>
      </trkpt>
      <trkpt lat="47.45008" lon="6.67832">
        <ele>301</ele>
        <time>2016-07-24T09:27:53.000Z</time>
      </trkpt>
      <trkpt lat="47.45009" lon="6.6784">
        <ele>301</ele>
        <time>2016-07-24T09:27:54.000Z</time>
      </trkpt>
      <trkpt lat="47.45009" lon="6.67848">
        <ele>301</ele>
        <time>2016-07-24T09:27:55.000Z</time>
      </trkpt>
      <trkpt lat="47.4501" lon="6.67856">
        <ele>301</ele>
        <time>2016-07-24T09:27:56.000Z</time>
      </trkpt>
      <trkpt lat="47.45011" lon="6.67865">
        <ele>301</ele>
        <time>2016-07-24T09:27:57.000Z</time>
      </trkpt>
      <trkpt lat="47.45012" lon="6.67874">
        <ele>301</ele>
        <time>2016-07-24T09:27:58.000Z</time>
      </trkpt>
      <trkpt lat="47.45013" lon="6.67883">
        <ele>301</ele>
        <time>2016-07-24T09:27:59.000Z</time>
      </trkpt>
      <trkpt lat="47.45014" lon="6.67891">
        <ele>301</ele>
        <time>2016-07-24T09:28:00.000Z</time>
      </trkpt>
      <trkpt lat="47.45015" lon="6.679">
        <ele>301</ele>
        <time>2016-07-24T09:28:01.000Z</time>
      </trkpt>
      <trkpt lat="47.45016" lon="6.67909">
        <ele>301</ele>
        <time>2016-07-24T09:28:02.000Z</time>
      </trkpt>
      <trkpt lat="47.45017" lon="6.67918">
        <ele>300</ele>
        <time>2016-07-24T09:28:03.000Z</time>
      </trkpt>
      <trkpt lat="47.45019" lon="6.67926">
        <ele>300</ele>
        <time>2016-07-24T09:28:04.000Z</time>
      </trkpt>
      <trkpt lat="47.4502" lon="6.67935">
        <ele>300</ele>
        <time>2016-07-24T09:28:05.000Z</time>
      </trkpt>
      <trkpt lat="47.45022" lon="6.67945">
        <ele>300</ele>
        <time>2016-07-24T09:28:06.000Z</time>
      </trkpt>
      <trkpt lat="47.45023" lon="6.67954">
        <ele>300</ele>
        <time>2016-07-24T09:28:07.000Z</time>
      </trkpt>
      <trkpt lat="47.45024" lon="6.67962">
        <ele>300</ele>
        <time>2016-07-24T09:28:08.000Z</time>
      </trkpt>
      <trkpt lat="47.45026" lon="6.67971">
        <ele>300</ele>
        <time>2016-07-24T09:28:09.000Z</time>
      </trkpt>
      <trkpt lat="47.45027" lon="6.6798">
        <ele>300</ele>
        <time>2016-07-24T09:28:10.000Z</time>
      </trkpt>
      <trkpt lat="47.45029" lon="6.67989">
        <ele>300</ele>
        <time>2016-07-24T09:28:11.000Z</time>
      </trkpt>
      <trkpt lat="47.4503" lon="6.67998">
        <ele>300</ele>
        <time>2016-07-24T09:28:12.000Z</time>
      </trkpt>
      <trkpt lat="47.45032" lon="6.68006">
        <ele>300</ele>
        <time>2016-07-24T09:28:13.000Z</time>
      </trkpt>
      <trkpt lat="47.45033" lon="6.68015">
        <ele>300</ele>
        <time>2016-07-24T09:28:14.000Z</time>
      </trkpt>
      <trkpt lat="47.45035" lon="6.68024">
        <ele>300</ele>
        <time>2016-07-24T09:28:15.000Z</time>
      </trkpt>
      <trkpt lat="47.45038" lon="6.68032">
        <ele>300</ele>
        <time>2016-07-24T09:28:16.000Z</time>
      </trkpt>
      <trkpt lat="47.45039" lon="6.68041">
        <ele>300</ele>
        <time>2016-07-24T09:28:17.000Z</time>
      </trkpt>
      <trkpt lat="47.45041" lon="6.68049">
        <ele>300</ele>
        <time>2016-07-24T09:28:18.000Z</time>
      </trkpt>
      <trkpt lat="47.45043" lon="6.68058">
        <ele>300</ele>
        <time>2016-07-24T09:28:19.000Z</time>
      </trkpt>
      <trkpt lat="47.45045" lon="6.68067">
        <ele>300</ele>
        <time>2016-07-24T09:28:20.000Z</time>
      </trkpt>
      <trkpt lat="47.45047" lon="6.68076">
        <ele>300</ele>
        <time>2016-07-24T09:28:21.000Z</time>
      </trkpt>
      <trkpt lat="47.45049" lon="6.68084">
        <ele>300</ele>
        <time>2016-07-24T09:28:22.000Z</time>
      </trkpt>
      <trkpt lat="47.45051" lon="6.68092">
        <ele>300</ele>
        <time>2016-07-24T09:28:23.000Z</time>
      </trkpt>
      <trkpt lat="47.45054" lon="6.681">
        <ele>300</ele>
        <time>2016-07-24T09:28:24.000Z</time>
      </trkpt>
      <trkpt lat="47.45056" lon="6.68109">
        <ele>300</ele>
        <time>2016-07-24T09:28:25.000Z</time>
      </trkpt>
      <trkpt lat="47.45058" lon="6.68118">
        <ele>300</ele>
        <time>2016-07-24T09:28:26.000Z</time>
      </trkpt>
      <trkpt lat="47.4506" lon="6.68126">
        <ele>300</ele>
        <time>2016-07-24T09:28:27.000Z</time>
      </trkpt>
      <trkpt lat="47.45063" lon="6.68134">
        <ele>300</ele>
        <time>2016-07-24T09:28:28.000Z</time>
      </trkpt>
      <trkpt lat="47.45066" lon="6.68143">
        <ele>300</ele>
        <time>2016-07-24T09:28:29.000Z</time>
      </trkpt>
      <trkpt lat="47.45069" lon="6.68151">
        <ele>300</ele>
        <time>2016-07-24T09:28:30.000Z</time>
      </trkpt>
      <trkpt lat="47.45071" lon="6.6816">
        <ele>301</ele>
        <time>2016-07-24T09:28:31.000Z</time>
      </trkpt>
      <trkpt lat="47.45073" lon="6.68168">
        <ele>301</ele>
        <time>2016-07-24T09:28:32.000Z</time>
      </trkpt>
      <trkpt lat="47.45076" lon="6.68176">
        <ele>301</ele>
        <time>2016-07-24T09:28:33.000Z</time>
      </trkpt>
      <trkpt lat="47.45078" lon="6.68187">
        <ele>301</ele>
        <time>2016-07-24T09:28:34.000Z</time>
      </trkpt>
      <trkpt lat="47.45081" lon="6.68194">
        <ele>301</ele>
        <time>2016-07-24T09:28:35.000Z</time>
      </trkpt>
      <trkpt lat="47.45083" lon="6.68203">
        <ele>301</ele>
        <time>2016-07-24T09:28:36.000Z</time>
      </trkpt>
      <trkpt lat="47.45086" lon="6.68211">
        <ele>301</ele>
        <time>2016-07-24T09:28:37.000Z</time>
      </trkpt>
      <trkpt lat="47.45089" lon="6.68219">
        <ele>301</ele>
        <time>2016-07-24T09:28:38.000Z</time>
      </trkpt>
      <trkpt lat="47.45092" lon="6.68227">
        <ele>301</ele>
        <time>2016-07-24T09:28:39.000Z</time>
      </trkpt>
      <trkpt lat="47.45095" lon="6.68236">
        <ele>301</ele>
        <time>2016-07-24T09:28:40.000Z</time>
      </trkpt>
      <trkpt lat="47.45098" lon="6.68244">
        <ele>301</ele>
        <time>2016-07-24T09:28:41.000Z</time>
      </trkpt>
      <trkpt lat="47.451" lon="6.68253">
        <ele>301</ele>
        <time>2016-07-24T09:28:42.000Z</time>
      </trkpt>
      <trkpt lat="47.45103" lon="6.6826">
        <ele>301</ele>
        <time>2016-07-24T09:28:43.000Z</time>
      </trkpt>
      <trkpt lat="47.45107" lon="6.68269">
        <ele>301</ele>
        <time>2016-07-24T09:28:44.000Z</time>
      </trkpt>
      <trkpt lat="47.4511" lon="6.68278">
        <ele>301</ele>
        <time>2016-07-24T09:28:45.000Z</time>
      </trkpt>
      <trkpt lat="47.45113" lon="6.68286">
        <ele>301</ele>
        <time>2016-07-24T09:28:46.000Z</time>
      </trkpt>
      <trkpt lat="47.45117" lon="6.68294">
        <ele>301</ele>
        <time>2016-07-24T09:28:47.000Z</time>
      </trkpt>
      <trkpt lat="47.4512" lon="6.68302">
        <ele>301</ele>
        <time>2016-07-24T09:28:48.000Z</time>
      </trkpt>
      <trkpt lat="47.45123" lon="6.6831">
        <ele>301</ele>
        <time>2016-07-24T09:28:49.000Z</time>
      </trkpt>
      <trkpt lat="47.45126" lon="6.68318">
        <ele>301</ele>
        <time>2016-07-24T09:28:50.000Z</time>
      </trkpt>
      <trkpt lat="47.4513" lon="6.68326">
        <ele>301</ele>
        <time>2016-07-24T09:28:51.000Z</time>
      </trkpt>
      <trkpt lat="47.45133" lon="6.68334">
        <ele>301</ele>
        <time>2016-07-24T09:28:52.000Z</time>
      </trkpt>
      <trkpt lat="47.45137" lon="6.68343">
        <ele>301</ele>
        <time>2016-07-24T09:28:53.000Z</time>
      </trkpt>
      <trkpt lat="47.45141" lon="6.68349">
        <ele>301</ele>
        <time>2016-07-24T09:28:54.000Z</time>
      </trkpt>
      <trkpt lat="47.45144" lon="6.68357">
        <ele>301</ele>
        <time>2016-07-24T09:28:55.000Z</time>
      </trkpt>
      <trkpt lat="47.45147" lon="6.68365">
        <ele>301</ele>
        <time>2016-07-24T09:28:56.000Z</time>
      </trkpt>
      <trkpt lat="47.45151" lon="6.68372">
        <ele>301</ele>
        <time>2016-07-24T09:28:57.000Z</time>
      </trkpt>
      <trkpt lat="47.45155" lon="6.6838">
        <ele>301</ele>
        <time>2016-07-24T09:28:58.000Z</time>
      </trkpt>
      <trkpt lat="47.45159" lon="6.68387">
        <ele>302</ele>
        <time>2016-07-24T09:28:59.000Z</time>
      </trkpt>
      <trkpt lat="47.45163" lon="6.68395">
        <ele>302</ele>
        <time>2016-07-24T09:29:00.000Z</time>
      </trkpt>
      <trkpt lat="47.45166" lon="6.68402">
        <ele>302</ele>
        <time>2016-07-24T09:29:01.000Z</time>
      </trkpt>
      <trkpt lat="47.45171" lon="6.68409">
        <ele>302</ele>
        <time>2016-07-24T09:29:02.000Z</time>
      </trkpt>
      <trkpt lat="47.45175" lon="6.68417">
        <ele>302</ele>
        <time>2016-07-24T09:29:03.000Z</time>
      </trkpt>
      <trkpt lat="47.45179" lon="6.68425">
        <ele>302</ele>
        <time>2016-07-24T09:29:04.000Z</time>
      </trkpt>
      <trkpt lat="47.45184" lon="6.68433">
        <ele>302</ele>
        <time>2016-07-24T09:29:05.000Z</time>
      </trkpt>
      <trkpt lat="47.45187" lon="6.68441">
        <ele>302</ele>
        <time>2016-07-24T09:29:06.000Z</time>
      </trkpt>
      <trkpt lat="47.45191" lon="6.68448">
        <ele>302</ele>
        <time>2016-07-24T09:29:07.000Z</time>
      </trkpt>
      <trkpt lat="47.45195" lon="6.68456">
        <ele>302</ele>
        <time>2016-07-24T09:29:08.000Z</time>
      </trkpt>
      <trkpt lat="47.45199" lon="6.68463">
        <ele>302</ele>
        <time>2016-07-24T09:29:09.000Z</time>
      </trkpt>
      <trkpt lat="47.45203" lon="6.6847">
        <ele>302</ele>
        <time>2016-07-24T09:29:10.000Z</time>
      </trkpt>
      <trkpt lat="47.45207" lon="6.68477">
        <ele>302</ele>
        <time>2016-07-24T09:29:11.000Z</time>
      </trkpt>
      <trkpt lat="47.45211" lon="6.68486">
        <ele>302</ele>
        <time>2016-07-24T09:29:12.000Z</time>
      </trkpt>
      <trkpt lat="47.45215" lon="6.68492">
        <ele>302</ele>
        <time>2016-07-24T09:29:13.000Z</time>
      </trkpt>
      <trkpt lat="47.45219" lon="6.68499">
        <ele>302</ele>
        <time>2016-07-24T09:29:14.000Z</time>
      </trkpt>
      <trkpt lat="47.45222" lon="6.68506">
        <ele>302</ele>
        <time>2016-07-24T09:29:15.000Z</time>
      </trkpt>
      <trkpt lat="47.45226" lon="6.68513">
        <ele>302</ele>
        <time>2016-07-24T09:29:16.000Z</time>
      </trkpt>
      <trkpt lat="47.45231" lon="6.68521">
        <ele>302</ele>
        <time>2016-07-24T09:29:17.000Z</time>
      </trkpt>
      <trkpt lat="47.45235" lon="6.68528">
        <ele>302</ele>
        <time>2016-07-24T09:29:18.000Z</time>
      </trkpt>
      <trkpt lat="47.45239" lon="6.68535">
        <ele>302</ele>
        <time>2016-07-24T09:29:19.000Z</time>
      </trkpt>
      <trkpt lat="47.45244" lon="6.68542">
        <ele>302</ele>
        <time>2016-07-24T09:29:20.000Z</time>
      </trkpt>
      <trkpt lat="47.45249" lon="6.68549">
        <ele>302</ele>
        <time>2016-07-24T09:29:21.000Z</time>
      </trkpt>
      <trkpt lat="47.45253" lon="6.68556">
        <ele>301</ele>
        <time>2016-07-24T09:29:22.000Z</time>
      </trkpt>
      <trkpt lat="47.45258" lon="6.68563">
        <ele>302</ele>
        <time>2016-07-24T09:29:23.000Z</time>
      </trkpt>
      <trkpt lat="47.45262" lon="6.6857">
        <ele>302</ele>
        <time>2016-07-24T09:29:24.000Z</time>
      </trkpt>
      <trkpt lat="47.45266" lon="6.68577">
        <ele>302</ele>
        <time>2016-07-24T09:29:25.000Z</time>
      </trkpt>
      <trkpt lat="47.4527" lon="6.68583">
        <ele>302</ele>
        <time>2016-07-24T09:29:26.000Z</time>
      </trkpt>
      <trkpt lat="47.45274" lon="6.6859">
        <ele>302</ele>
        <time>2016-07-24T09:29:27.000Z</time>
      </trkpt>
      <trkpt lat="47.45279" lon="6.68595">
        <ele>302</ele>
        <time>2016-07-24T09:29:28.000Z</time>
      </trkpt>
      <trkpt lat="47.45284" lon="6.68602">
        <ele>302</ele>
        <time>2016-07-24T09:29:29.000Z</time>
      </trkpt>
      <trkpt lat="47.45289" lon="6.68607">
        <ele>302</ele>
        <time>2016-07-24T09:29:30.000Z</time>
      </trkpt>
      <trkpt lat="47.45294" lon="6.68614">
        <ele>302</ele>
        <time>2016-07-24T09:29:31.000Z</time>
      </trkpt>
      <trkpt lat="47.45304" lon="6.68625">
        <ele>302</ele>
        <time>2016-07-24T09:29:33.000Z</time>
      </trkpt>
      <trkpt lat="47.45309" lon="6.68632">
        <ele>302</ele>
        <time>2016-07-24T09:29:34.000Z</time>
      </trkpt>
      <trkpt lat="47.45314" lon="6.68637">
        <ele>302</ele>
        <time>2016-07-24T09:29:35.000Z</time>
      </trkpt>
      <trkpt lat="47.45319" lon="6.68643">
        <ele>302</ele>
        <time>2016-07-24T09:29:36.000Z</time>
      </trkpt>
      <trkpt lat="47.45324" lon="6.6865">
        <ele>302</ele>
        <time>2016-07-24T09:29:37.000Z</time>
      </trkpt>
      <trkpt lat="47.45329" lon="6.68654">
        <ele>302</ele>
        <time>2016-07-24T09:29:38.000Z</time>
      </trkpt>
      <trkpt lat="47.45334" lon="6.68659">
        <ele>302</ele>
        <time>2016-07-24T09:29:39.000Z</time>
      </trkpt>
      <trkpt lat="47.45339" lon="6.68665">
        <ele>302</ele>
        <time>2016-07-24T09:29:40.000Z</time>
      </trkpt>
      <trkpt lat="47.45344" lon="6.68671">
        <ele>302</ele>
        <time>2016-07-24T09:29:41.000Z</time>
      </trkpt>
      <trkpt lat="47.45349" lon="6.68676">
        <ele>303</ele>
        <time>2016-07-24T09:29:42.000Z</time>
      </trkpt>
      <trkpt lat="47.45355" lon="6.68681">
        <ele>303</ele>
        <time>2016-07-24T09:29:43.000Z</time>
      </trkpt>
      <trkpt lat="47.45359" lon="6.68687">
        <ele>303</ele>
        <time>2016-07-24T09:29:44.000Z</time>
      </trkpt>
      <trkpt lat="47.45365" lon="6.68692">
        <ele>303</ele>
        <time>2016-07-24T09:29:45.000Z</time>
      </trkpt>
      <trkpt lat="47.45369" lon="6.68698">
        <ele>303</ele>
        <time>2016-07-24T09:29:46.000Z</time>
      </trkpt>
      <trkpt lat="47.45374" lon="6.68703">
        <ele>303</ele>
        <time>2016-07-24T09:29:47.000Z</time>
      </trkpt>
      <trkpt lat="47.45379" lon="6.68708">
        <ele>303</ele>
        <time>2016-07-24T09:29:48.000Z</time>
      </trkpt>
      <trkpt lat="47.45385" lon="6.68713">
        <ele>303</ele>
        <time>2016-07-24T09:29:49.000Z</time>
      </trkpt>
      <trkpt lat="47.4539" lon="6.68717">
        <ele>303</ele>
        <time>2016-07-24T09:29:50.000Z</time>
      </trkpt>
      <trkpt lat="47.45395" lon="6.68723">
        <ele>303</ele>
        <time>2016-07-24T09:29:51.000Z</time>
      </trkpt>
      <trkpt lat="47.45401" lon="6.68729">
        <ele>304</ele>
        <time>2016-07-24T09:29:52.000Z</time>
      </trkpt>
      <trkpt lat="47.45407" lon="6.68735">
        <ele>304</ele>
        <time>2016-07-24T09:29:53.000Z</time>
      </trkpt>
      <trkpt lat="47.45412" lon="6.68741">
        <ele>304</ele>
        <time>2016-07-24T09:29:54.000Z</time>
      </trkpt>
      <trkpt lat="47.45417" lon="6.68746">
        <ele>304</ele>
        <time>2016-07-24T09:29:55.000Z</time>
      </trkpt>
      <trkpt lat="47.45422" lon="6.68752">
        <ele>304</ele>
        <time>2016-07-24T09:29:56.000Z</time>
      </trkpt>
      <trkpt lat="47.45428" lon="6.68758">
        <ele>304</ele>
        <time>2016-07-24T09:29:57.000Z</time>
      </trkpt>
      <trkpt lat="47.45433" lon="6.68764">
        <ele>304</ele>
        <time>2016-07-24T09:29:58.000Z</time>
      </trkpt>
      <trkpt lat="47.45437" lon="6.6877">
        <ele>304</ele>
        <time>2016-07-24T09:29:59.000Z</time>
      </trkpt>
      <trkpt lat="47.45442" lon="6.68776">
        <ele>304</ele>
        <time>2016-07-24T09:30:00.000Z</time>
      </trkpt>
      <trkpt lat="47.45446" lon="6.68782">
        <ele>304</ele>
        <time>2016-07-24T09:30:01.000Z</time>
      </trkpt>
      <trkpt lat="47.45451" lon="6.68788">
        <ele>304</ele>
        <time>2016-07-24T09:30:02.000Z</time>
      </trkpt>
      <trkpt lat="47.45456" lon="6.68792">
        <ele>304</ele>
        <time>2016-07-24T09:30:03.000Z</time>
      </trkpt>
      <trkpt lat="47.45461" lon="6.68797">
        <ele>304</ele>
        <time>2016-07-24T09:30:04.000Z</time>
      </trkpt>
      <trkpt lat="47.45466" lon="6.68802">
        <ele>304</ele>
        <time>2016-07-24T09:30:05.000Z</time>
      </trkpt>
      <trkpt lat="47.45469" lon="6.68808">
        <ele>304</ele>
        <time>2016-07-24T09:30:06.000Z</time>
      </trkpt>
      <trkpt lat="47.45474" lon="6.68814">
        <ele>304</ele>
        <time>2016-07-24T09:30:07.000Z</time>
      </trkpt>
      <trkpt lat="47.45478" lon="6.68818">
        <ele>304</ele>
        <time>2016-07-24T09:30:08.000Z</time>
      </trkpt>
      <trkpt lat="47.45483" lon="6.68823">
        <ele>304</ele>
        <time>2016-07-24T09:30:09.000Z</time>
      </trkpt>
      <trkpt lat="47.45488" lon="6.68828">
        <ele>304</ele>
        <time>2016-07-24T09:30:10.000Z</time>
      </trkpt>
      <trkpt lat="47.45492" lon="6.68833">
        <ele>304</ele>
        <time>2016-07-24T09:30:11.000Z</time>
      </trkpt>
      <trkpt lat="47.45497" lon="6.68837">
        <ele>304</ele>
        <time>2016-07-24T09:30:12.000Z</time>
      </trkpt>
      <trkpt lat="47.45501" lon="6.68842">
        <ele>304</ele>
        <time>2016-07-24T09:30:13.000Z</time>
      </trkpt>
      <trkpt lat="47.45506" lon="6.68846">
        <ele>304</ele>
        <time>2016-07-24T09:30:14.000Z</time>
      </trkpt>
      <trkpt lat="47.45512" lon="6.68849">
        <ele>304</ele>
        <time>2016-07-24T09:30:15.000Z</time>
      </trkpt>
      <trkpt lat="47.45515" lon="6.68854">
        <ele>304</ele>
        <time>2016-07-24T09:30:16.000Z</time>
      </trkpt>
      <trkpt lat="47.45518" lon="6.68858">
        <ele>303</ele>
        <time>2016-07-24T09:30:17.000Z</time>
      </trkpt>
      <trkpt lat="47.45521" lon="6.68861">
        <ele>303</ele>
        <time>2016-07-24T09:30:18.000Z</time>
      </trkpt>
      <trkpt lat="47.45524" lon="6.68865">
        <ele>303</ele>
        <time>2016-07-24T09:30:19.000Z</time>
      </trkpt>
      <trkpt lat="47.45528" lon="6.68869">
        <ele>303</ele>
        <time>2016-07-24T09:30:20.000Z</time>
      </trkpt>
      <trkpt lat="47.45532" lon="6.68874">
        <ele>303</ele>
        <time>2016-07-24T09:30:21.000Z</time>
      </trkpt>
      <trkpt lat="47.45536" lon="6.68878">
        <ele>303</ele>
        <time>2016-07-24T09:30:22.000Z</time>
      </trkpt>
      <trkpt lat="47.4554" lon="6.68882">
        <ele>303</ele>
        <time>2016-07-24T09:30:23.000Z</time>
      </trkpt>
      <trkpt lat="47.45544" lon="6.68886">
        <ele>303</ele>
        <time>2016-07-24T09:30:24.000Z</time>
      </trkpt>
      <trkpt lat="47.45548" lon="6.68892">
        <ele>303</ele>
        <time>2016-07-24T09:30:25.000Z</time>
      </trkpt>
      <trkpt lat="47.45552" lon="6.68895">
        <ele>303</ele>
        <time>2016-07-24T09:30:26.000Z</time>
      </trkpt>
      <trkpt lat="47.45556" lon="6.689">
        <ele>303</ele>
        <time>2016-07-24T09:30:27.000Z</time>
      </trkpt>
      <trkpt lat="47.4556" lon="6.68905">
        <ele>303</ele>
        <time>2016-07-24T09:30:28.000Z</time>
      </trkpt>
      <trkpt lat="47.45564" lon="6.6891">
        <ele>303</ele>
        <time>2016-07-24T09:30:29.000Z</time>
      </trkpt>
      <trkpt lat="47.45569" lon="6.68915">
        <ele>303</ele>
        <time>2016-07-24T09:30:30.000Z</time>
      </trkpt>
      <trkpt lat="47.45573" lon="6.6892">
        <ele>302</ele>
        <time>2016-07-24T09:30:31.000Z</time>
      </trkpt>
      <trkpt lat="47.45577" lon="6.68924">
        <ele>302</ele>
        <time>2016-07-24T09:30:32.000Z</time>
      </trkpt>
      <trkpt lat="47.4558" lon="6.68927">
        <ele>302</ele>
        <time>2016-07-24T09:30:33.000Z</time>
      </trkpt>
      <trkpt lat="47.45585" lon="6.68931">
        <ele>302</ele>
        <time>2016-07-24T09:30:34.000Z</time>
      </trkpt>
      <trkpt lat="47.4559" lon="6.68935">
        <ele>302</ele>
        <time>2016-07-24T09:30:35.000Z</time>
      </trkpt>
      <trkpt lat="47.45594" lon="6.6894">
        <ele>302</ele>
        <time>2016-07-24T09:30:36.000Z</time>
      </trkpt>
      <trkpt lat="47.45597" lon="6.68944">
        <ele>302</ele>
        <time>2016-07-24T09:30:37.000Z</time>
      </trkpt>
      <trkpt lat="47.456" lon="6.68947">
        <ele>302</ele>
        <time>2016-07-24T09:30:38.000Z</time>
      </trkpt>
      <trkpt lat="47.45605" lon="6.68952">
        <ele>302</ele>
        <time>2016-07-24T09:30:39.000Z</time>
      </trkpt>
      <trkpt lat="47.45609" lon="6.68956">
        <ele>302</ele>
        <time>2016-07-24T09:30:40.000Z</time>
      </trkpt>
      <trkpt lat="47.45614" lon="6.68961">
        <ele>302</ele>
        <time>2016-07-24T09:30:41.000Z</time>
      </trkpt>
      <trkpt lat="47.45618" lon="6.68966">
        <ele>302</ele>
        <time>2016-07-24T09:30:42.000Z</time>
      </trkpt>
      <trkpt lat="47.45622" lon="6.68969">
        <ele>302</ele>
        <time>2016-07-24T09:30:43.000Z</time>
      </trkpt>
      <trkpt lat="47.45627" lon="6.68975">
        <ele>303</ele>
        <time>2016-07-24T09:30:44.000Z</time>
      </trkpt>
      <trkpt lat="47.45627" lon="6.68979">
        <ele>303</ele>
        <time>2016-07-24T09:30:45.000Z</time>
      </trkpt>
      <trkpt lat="47.45631" lon="6.68983">
        <ele>303</ele>
        <time>2016-07-24T09:30:46.000Z</time>
      </trkpt>
      <trkpt lat="47.45635" lon="6.68989">
        <ele>303</ele>
        <time>2016-07-24T09:30:47.000Z</time>
      </trkpt>
      <trkpt lat="47.4564" lon="6.68994">
        <ele>303</ele>
        <time>2016-07-24T09:30:48.000Z</time>
      </trkpt>
      <trkpt lat="47.45644" lon="6.68998">
        <ele>303</ele>
        <time>2016-07-24T09:30:49.000Z</time>
      </trkpt>
      <trkpt lat="47.45649" lon="6.69003">
        <ele>303</ele>
        <time>2016-07-24T09:30:50.000Z</time>
      </trkpt>
      <trkpt lat="47.45653" lon="6.69008">
        <ele>303</ele>
        <time>2016-07-24T09:30:51.000Z</time>
      </trkpt>
      <trkpt lat="47.45657" lon="6.69012">
        <ele>303</ele>
        <time>2016-07-24T09:30:52.000Z</time>
      </trkpt>
      <trkpt lat="47.45662" lon="6.69017">
        <ele>303</ele>
        <time>2016-07-24T09:30:53.000Z</time>
      </trkpt>
      <trkpt lat="47.45666" lon="6.69021">
        <ele>303</ele>
        <time>2016-07-24T09:30:54.000Z</time>
      </trkpt>
      <trkpt lat="47.45672" lon="6.69024">
        <ele>303</ele>
        <time>2016-07-24T09:30:55.000Z</time>
      </trkpt>
      <trkpt lat="47.45675" lon="6.6903">
        <ele>303</ele>
        <time>2016-07-24T09:30:56.000Z</time>
      </trkpt>
      <trkpt lat="47.45679" lon="6.69035">
        <ele>303</ele>
        <time>2016-07-24T09:30:57.000Z</time>
      </trkpt>
      <trkpt lat="47.45683" lon="6.6904">
        <ele>303</ele>
        <time>2016-07-24T09:30:58.000Z</time>
      </trkpt>
      <trkpt lat="47.45689" lon="6.69046">
        <ele>303</ele>
        <time>2016-07-24T09:30:59.000Z</time>
      </trkpt>
      <trkpt lat="47.45693" lon="6.69052">
        <ele>303</ele>
        <time>2016-07-24T09:31:00.000Z</time>
      </trkpt>
      <trkpt lat="47.45699" lon="6.69059">
        <ele>303</ele>
        <time>2016-07-24T09:31:01.000Z</time>
      </trkpt>
      <trkpt lat="47.45702" lon="6.69063">
        <ele>303</ele>
        <time>2016-07-24T09:31:02.000Z</time>
      </trkpt>
      <trkpt lat="47.45707" lon="6.69067">
        <ele>303</ele>
        <time>2016-07-24T09:31:03.000Z</time>
      </trkpt>
      <trkpt lat="47.4571" lon="6.69072">
        <ele>303</ele>
        <time>2016-07-24T09:31:04.000Z</time>
      </trkpt>
      <trkpt lat="47.45715" lon="6.69077">
        <ele>303</ele>
        <time>2016-07-24T09:31:05.000Z</time>
      </trkpt>
      <trkpt lat="47.45719" lon="6.69083">
        <ele>303</ele>
        <time>2016-07-24T09:31:06.000Z</time>
      </trkpt>
      <trkpt lat="47.45722" lon="6.69087">
        <ele>303</ele>
        <time>2016-07-24T09:31:07.000Z</time>
      </trkpt>
      <trkpt lat="47.45725" lon="6.69092">
        <ele>303</ele>
        <time>2016-07-24T09:31:08.000Z</time>
      </trkpt>
      <trkpt lat="47.4573" lon="6.69097">
        <ele>303</ele>
        <time>2016-07-24T09:31:09.000Z</time>
      </trkpt>
      <trkpt lat="47.45734" lon="6.69101">
        <ele>303</ele>
        <time>2016-07-24T09:31:10.000Z</time>
      </trkpt>
      <trkpt lat="47.45739" lon="6.69105">
        <ele>303</ele>
        <time>2016-07-24T09:31:11.000Z</time>
      </trkpt>
      <trkpt lat="47.45744" lon="6.6911">
        <ele>303</ele>
        <time>2016-07-24T09:31:12.000Z</time>
      </trkpt>
      <trkpt lat="47.45749" lon="6.69114">
        <ele>303</ele>
        <time>2016-07-24T09:31:13.000Z</time>
      </trkpt>
      <trkpt lat="47.45753" lon="6.69118">
        <ele>303</ele>
        <time>2016-07-24T09:31:14.000Z</time>
      </trkpt>
      <trkpt lat="47.45757" lon="6.69122">
        <ele>303</ele>
        <time>2016-07-24T09:31:15.000Z</time>
      </trkpt>
      <trkpt lat="47.45761" lon="6.69126">
        <ele>303</ele>
        <time>2016-07-24T09:31:16.000Z</time>
      </trkpt>
      <trkpt lat="47.45766" lon="6.69132">
        <ele>303</ele>
        <time>2016-07-24T09:31:17.000Z</time>
      </trkpt>
      <trkpt lat="47.45771" lon="6.69135">
        <ele>303</ele>
        <time>2016-07-24T09:31:18.000Z</time>
      </trkpt>
      <trkpt lat="47.45775" lon="6.6914">
        <ele>303</ele>
        <time>2016-07-24T09:31:19.000Z</time>
      </trkpt>
      <trkpt lat="47.45779" lon="6.69144">
        <ele>303</ele>
        <time>2016-07-24T09:31:20.000Z</time>
      </trkpt>
      <trkpt lat="47.45783" lon="6.69148">
        <ele>303</ele>
        <time>2016-07-24T09:31:21.000Z</time>
      </trkpt>
      <trkpt lat="47.45787" lon="6.69154">
        <ele>303</ele>
        <time>2016-07-24T09:31:22.000Z</time>
      </trkpt>
      <trkpt lat="47.45791" lon="6.6916">
        <ele>303</ele>
        <time>2016-07-24T09:31:23.000Z</time>
      </trkpt>
      <trkpt lat="47.45795" lon="6.69164">
        <ele>302</ele>
        <time>2016-07-24T09:31:24.000Z</time>
      </trkpt>
      <trkpt lat="47.458" lon="6.69169">
        <ele>303</ele>
        <time>2016-07-24T09:31:25.000Z</time>
      </trkpt>
      <trkpt lat="47.45804" lon="6.69174">
        <ele>303</ele>
        <time>2016-07-24T09:31:26.000Z</time>
      </trkpt>
      <trkpt lat="47.45808" lon="6.69178">
        <ele>303</ele>
        <time>2016-07-24T09:31:27.000Z</time>
      </trkpt>
      <trkpt lat="47.45811" lon="6.69181">
        <ele>303</ele>
        <time>2016-07-24T09:31:28.000Z</time>
      </trkpt>
      <trkpt lat="47.45815" lon="6.69185">
        <ele>303</ele>
        <time>2016-07-24T09:31:29.000Z</time>
      </trkpt>
      <trkpt lat="47.45819" lon="6.69191">
        <ele>303</ele>
        <time>2016-07-24T09:31:30.000Z</time>
      </trkpt>
      <trkpt lat="47.45823" lon="6.69194">
        <ele>303</ele>
        <time>2016-07-24T09:31:31.000Z</time>
      </trkpt>
      <trkpt lat="47.45828" lon="6.69198">
        <ele>303</ele>
        <time>2016-07-24T09:31:32.000Z</time>
      </trkpt>
      <trkpt lat="47.45832" lon="6.69202">
        <ele>303</ele>
        <time>2016-07-24T09:31:33.000Z</time>
      </trkpt>
      <trkpt lat="47.45834" lon="6.69207">
        <ele>302</ele>
        <time>2016-07-24T09:31:34.000Z</time>
      </trkpt>
      <trkpt lat="47.45839" lon="6.6921">
        <ele>302</ele>
        <time>2016-07-24T09:31:35.000Z</time>
      </trkpt>
      <trkpt lat="47.45842" lon="6.69214">
        <ele>302</ele>
        <time>2016-07-24T09:31:36.000Z</time>
      </trkpt>
      <trkpt lat="47.45846" lon="6.69218">
        <ele>302</ele>
        <time>2016-07-24T09:31:37.000Z</time>
      </trkpt>
      <trkpt lat="47.4585" lon="6.69222">
        <ele>302</ele>
        <time>2016-07-24T09:31:38.000Z</time>
      </trkpt>
      <trkpt lat="47.45854" lon="6.69226">
        <ele>302</ele>
        <time>2016-07-24T09:31:39.000Z</time>
      </trkpt>
      <trkpt lat="47.45858" lon="6.6923">
        <ele>302</ele>
        <time>2016-07-24T09:31:40.000Z</time>
      </trkpt>
      <trkpt lat="47.45861" lon="6.69234">
        <ele>302</ele>
        <time>2016-07-24T09:31:41.000Z</time>
      </trkpt>
      <trkpt lat="47.45865" lon="6.69237">
        <ele>302</ele>
        <time>2016-07-24T09:31:42.000Z</time>
      </trkpt>
      <trkpt lat="47.45869" lon="6.69242">
        <ele>302</ele>
        <time>2016-07-24T09:31:43.000Z</time>
      </trkpt>
      <trkpt lat="47.45872" lon="6.69246">
        <ele>302</ele>
        <time>2016-07-24T09:31:44.000Z</time>
      </trkpt>
      <trkpt lat="47.45876" lon="6.69252">
        <ele>302</ele>
        <time>2016-07-24T09:31:45.000Z</time>
      </trkpt>
      <trkpt lat="47.4588" lon="6.69256">
        <ele>302</ele>
        <time>2016-07-24T09:31:46.000Z</time>
      </trkpt>
      <trkpt lat="47.45884" lon="6.69262">
        <ele>302</ele>
        <time>2016-07-24T09:31:47.000Z</time>
      </trkpt>
      <trkpt lat="47.45888" lon="6.69266">
        <ele>302</ele>
        <time>2016-07-24T09:31:48.000Z</time>
      </trkpt>
      <trkpt lat="47.45893" lon="6.69271">
        <ele>302</ele>
        <time>2016-07-24T09:31:49.000Z</time>
      </trkpt>
      <trkpt lat="47.45897" lon="6.69275">
        <ele>302</ele>
        <time>2016-07-24T09:31:50.000Z</time>
      </trkpt>
      <trkpt lat="47.45901" lon="6.69279">
        <ele>302</ele>
        <time>2016-07-24T09:31:51.000Z</time>
      </trkpt>
      <trkpt lat="47.45905" lon="6.69283">
        <ele>302</ele>
        <time>2016-07-24T09:31:52.000Z</time>
      </trkpt>
      <trkpt lat="47.45908" lon="6.69288">
        <ele>302</ele>
        <time>2016-07-24T09:31:53.000Z</time>
      </trkpt>
      <trkpt lat="47.45912" lon="6.69293">
        <ele>302</ele>
        <time>2016-07-24T09:31:54.000Z</time>
      </trkpt>
      <trkpt lat="47.45916" lon="6.69297">
        <ele>302</ele>
        <time>2016-07-24T09:31:55.000Z</time>
      </trkpt>
      <trkpt lat="47.4592" lon="6.69301">
        <ele>301</ele>
        <time>2016-07-24T09:31:56.000Z</time>
      </trkpt>
      <trkpt lat="47.45924" lon="6.69305">
        <ele>301</ele>
        <time>2016-07-24T09:31:57.000Z</time>
      </trkpt>
      <trkpt lat="47.45929" lon="6.6931">
        <ele>301</ele>
        <time>2016-07-24T09:31:58.000Z</time>
      </trkpt>
      <trkpt lat="47.45933" lon="6.69314">
        <ele>301</ele>
        <time>2016-07-24T09:31:59.000Z</time>
      </trkpt>
      <trkpt lat="47.45936" lon="6.69318">
        <ele>301</ele>
        <time>2016-07-24T09:32:00.000Z</time>
      </trkpt>
      <trkpt lat="47.4594" lon="6.69322">
        <ele>301</ele>
        <time>2016-07-24T09:32:01.000Z</time>
      </trkpt>
      <trkpt lat="47.45944" lon="6.69327">
        <ele>301</ele>
        <time>2016-07-24T09:32:02.000Z</time>
      </trkpt>
      <trkpt lat="47.45948" lon="6.69331">
        <ele>301</ele>
        <time>2016-07-24T09:32:03.000Z</time>
      </trkpt>
      <trkpt lat="47.45952" lon="6.69336">
        <ele>302</ele>
        <time>2016-07-24T09:32:04.000Z</time>
      </trkpt>
      <trkpt lat="47.45957" lon="6.69339">
        <ele>302</ele>
        <time>2016-07-24T09:32:05.000Z</time>
      </trkpt>
      <trkpt lat="47.4596" lon="6.69345">
        <ele>302</ele>
        <time>2016-07-24T09:32:06.000Z</time>
      </trkpt>
      <trkpt lat="47.45965" lon="6.69349">
        <ele>302</ele>
        <time>2016-07-24T09:32:07.000Z</time>
      </trkpt>
      <trkpt lat="47.45969" lon="6.69353">
        <ele>302</ele>
        <time>2016-07-24T09:32:08.000Z</time>
      </trkpt>
      <trkpt lat="47.45973" lon="6.69357">
        <ele>302</ele>
        <time>2016-07-24T09:32:09.000Z</time>
      </trkpt>
      <trkpt lat="47.45977" lon="6.69361">
        <ele>302</ele>
        <time>2016-07-24T09:32:10.000Z</time>
      </trkpt>
      <trkpt lat="47.45981" lon="6.69365">
        <ele>302</ele>
        <time>2016-07-24T09:32:11.000Z</time>
      </trkpt>
      <trkpt lat="47.45985" lon="6.69369">
        <ele>302</ele>
        <time>2016-07-24T09:32:12.000Z</time>
      </trkpt>
      <trkpt lat="47.45988" lon="6.69374">
        <ele>302</ele>
        <time>2016-07-24T09:32:13.000Z</time>
      </trkpt>
      <trkpt lat="47.45992" lon="6.69377">
        <ele>302</ele>
        <time>2016-07-24T09:32:14.000Z</time>
      </trkpt>
      <trkpt lat="47.45996" lon="6.69381">
        <ele>302</ele>
        <time>2016-07-24T09:32:15.000Z</time>
      </trkpt>
      <trkpt lat="47.46" lon="6.69386">
        <ele>302</ele>
        <time>2016-07-24T09:32:16.000Z</time>
      </trkpt>
      <trkpt lat="47.46004" lon="6.69391">
        <ele>302</ele>
        <time>2016-07-24T09:32:17.000Z</time>
      </trkpt>
      <trkpt lat="47.46008" lon="6.69396">
        <ele>302</ele>
        <time>2016-07-24T09:32:18.000Z</time>
      </trkpt>
      <trkpt lat="47.46012" lon="6.694">
        <ele>302</ele>
        <time>2016-07-24T09:32:19.000Z</time>
      </trkpt>
      <trkpt lat="47.46015" lon="6.69405">
        <ele>302</ele>
        <time>2016-07-24T09:32:20.000Z</time>
      </trkpt>
      <trkpt lat="47.4602" lon="6.69409">
        <ele>302</ele>
        <time>2016-07-24T09:32:21.000Z</time>
      </trkpt>
      <trkpt lat="47.46024" lon="6.69413">
        <ele>302</ele>
        <time>2016-07-24T09:32:22.000Z</time>
      </trkpt>
      <trkpt lat="47.46028" lon="6.69417">
        <ele>303</ele>
        <time>2016-07-24T09:32:23.000Z</time>
      </trkpt>
      <trkpt lat="47.46033" lon="6.69421">
        <ele>303</ele>
        <time>2016-07-24T09:32:24.000Z</time>
      </trkpt>
      <trkpt lat="47.46036" lon="6.69424">
        <ele>303</ele>
        <time>2016-07-24T09:32:25.000Z</time>
      </trkpt>
      <trkpt lat="47.4604" lon="6.69428">
        <ele>303</ele>
        <time>2016-07-24T09:32:26.000Z</time>
      </trkpt>
      <trkpt lat="47.46044" lon="6.69434">
        <ele>303</ele>
        <time>2016-07-24T09:32:27.000Z</time>
      </trkpt>
      <trkpt lat="47.46048" lon="6.69438">
        <ele>303</ele>
        <time>2016-07-24T09:32:28.000Z</time>
      </trkpt>
      <trkpt lat="47.46052" lon="6.69441">
        <ele>303</ele>
        <time>2016-07-24T09:32:29.000Z</time>
      </trkpt>
      <trkpt lat="47.46055" lon="6.69446">
        <ele>303</ele>
        <time>2016-07-24T09:32:30.000Z</time>
      </trkpt>
      <trkpt lat="47.46059" lon="6.69451">
        <ele>303</ele>
        <time>2016-07-24T09:32:31.000Z</time>
      </trkpt>
      <trkpt lat="47.46066" lon="6.69461">
        <ele>303</ele>
        <time>2016-07-24T09:32:33.000Z</time>
      </trkpt>
      <trkpt lat="47.46071" lon="6.69464">
        <ele>303</ele>
        <time>2016-07-24T09:32:34.000Z</time>
      </trkpt>
      <trkpt lat="47.46074" lon="6.6947">
        <ele>303</ele>
        <time>2016-07-24T09:32:35.000Z</time>
      </trkpt>
      <trkpt lat="47.46078" lon="6.69475">
        <ele>304</ele>
        <time>2016-07-24T09:32:36.000Z</time>
      </trkpt>
      <trkpt lat="47.46081" lon="6.6948">
        <ele>304</ele>
        <time>2016-07-24T09:32:37.000Z</time>
      </trkpt>
      <trkpt lat="47.46084" lon="6.69482">
        <ele>304</ele>
        <time>2016-07-24T09:32:38.000Z</time>
      </trkpt>
      <trkpt lat="47.46087" lon="6.69485">
        <ele>304</ele>
        <time>2016-07-24T09:32:39.000Z</time>
      </trkpt>
      <trkpt lat="47.46091" lon="6.69489">
        <ele>304</ele>
        <time>2016-07-24T09:32:40.000Z</time>
      </trkpt>
      <trkpt lat="47.46094" lon="6.69493">
        <ele>304</ele>
        <time>2016-07-24T09:32:41.000Z</time>
      </trkpt>
      <trkpt lat="47.46097" lon="6.69496">
        <ele>304</ele>
        <time>2016-07-24T09:32:42.000Z</time>
      </trkpt>
      <trkpt lat="47.461" lon="6.69501">
        <ele>305</ele>
        <time>2016-07-24T09:32:43.000Z</time>
      </trkpt>
      <trkpt lat="47.46103" lon="6.69505">
        <ele>305</ele>
        <time>2016-07-24T09:32:44.000Z</time>
      </trkpt>
      <trkpt lat="47.46107" lon="6.6951">
        <ele>305</ele>
        <time>2016-07-24T09:32:45.000Z</time>
      </trkpt>
      <trkpt lat="47.46111" lon="6.69514">
        <ele>305</ele>
        <time>2016-07-24T09:32:46.000Z</time>
      </trkpt>
      <trkpt lat="47.46115" lon="6.69518">
        <ele>305</ele>
        <time>2016-07-24T09:32:47.000Z</time>
      </trkpt>
      <trkpt lat="47.46118" lon="6.69521">
        <ele>305</ele>
        <time>2016-07-24T09:32:48.000Z</time>
      </trkpt>
      <trkpt lat="47.46122" lon="6.69526">
        <ele>305</ele>
        <time>2016-07-24T09:32:49.000Z</time>
      </trkpt>
      <trkpt lat="47.46126" lon="6.6953">
        <ele>305</ele>
        <time>2016-07-24T09:32:50.000Z</time>
      </trkpt>
      <trkpt lat="47.46129" lon="6.69535">
        <ele>305</ele>
        <time>2016-07-24T09:32:51.000Z</time>
      </trkpt>
      <trkpt lat="47.46133" lon="6.6954">
        <ele>305</ele>
        <time>2016-07-24T09:32:52.000Z</time>
      </trkpt>
      <trkpt lat="47.46136" lon="6.69545">
        <ele>305</ele>
        <time>2016-07-24T09:32:53.000Z</time>
      </trkpt>
      <trkpt lat="47.4614" lon="6.69549">
        <ele>305</ele>
        <time>2016-07-24T09:32:54.000Z</time>
      </trkpt>
      <trkpt lat="47.46144" lon="6.69554">
        <ele>305</ele>
        <time>2016-07-24T09:32:55.000Z</time>
      </trkpt>
      <trkpt lat="47.46148" lon="6.69559">
        <ele>305</ele>
        <time>2016-07-24T09:32:56.000Z</time>
      </trkpt>
      <trkpt lat="47.46152" lon="6.69563">
        <ele>305</ele>
        <time>2016-07-24T09:32:57.000Z</time>
      </trkpt>
      <trkpt lat="47.46156" lon="6.69568">
        <ele>305</ele>
        <time>2016-07-24T09:32:58.000Z</time>
      </trkpt>
      <trkpt lat="47.46159" lon="6.69572">
        <ele>305</ele>
        <time>2016-07-24T09:32:59.000Z</time>
      </trkpt>
      <trkpt lat="47.46162" lon="6.69577">
        <ele>305</ele>
        <time>2016-07-24T09:33:00.000Z</time>
      </trkpt>
      <trkpt lat="47.46163" lon="6.69581">
        <ele>305</ele>
        <time>2016-07-24T09:33:01.000Z</time>
      </trkpt>
      <trkpt lat="47.46165" lon="6.69586">
        <ele>306</ele>
        <time>2016-07-24T09:33:02.000Z</time>
      </trkpt>
      <trkpt lat="47.46168" lon="6.6959">
        <ele>305</ele>
        <time>2016-07-24T09:33:03.000Z</time>
      </trkpt>
      <trkpt lat="47.4617" lon="6.69594">
        <ele>305</ele>
        <time>2016-07-24T09:33:04.000Z</time>
      </trkpt>
      <trkpt lat="47.46172" lon="6.69599">
        <ele>306</ele>
        <time>2016-07-24T09:33:05.000Z</time>
      </trkpt>
      <trkpt lat="47.46174" lon="6.69603">
        <ele>306</ele>
        <time>2016-07-24T09:33:06.000Z</time>
      </trkpt>
      <trkpt lat="47.46176" lon="6.69607">
        <ele>306</ele>
        <time>2016-07-24T09:33:07.000Z</time>
      </trkpt>
      <trkpt lat="47.46178" lon="6.69611">
        <ele>306</ele>
        <time>2016-07-24T09:33:08.000Z</time>
      </trkpt>
      <trkpt lat="47.46179" lon="6.69615">
        <ele>306</ele>
        <time>2016-07-24T09:33:09.000Z</time>
      </trkpt>
      <trkpt lat="47.4618" lon="6.69618">
        <ele>306</ele>
        <time>2016-07-24T09:33:10.000Z</time>
      </trkpt>
      <trkpt lat="47.46182" lon="6.69624">
        <ele>306</ele>
        <time>2016-07-24T09:33:12.000Z</time>
      </trkpt>
      <trkpt lat="47.46183" lon="6.69626">
        <ele>306</ele>
        <time>2016-07-24T09:33:13.000Z</time>
      </trkpt>
      <trkpt lat="47.46184" lon="6.69631">
        <ele>307</ele>
        <time>2016-07-24T09:33:15.000Z</time>
      </trkpt>
      <trkpt lat="47.46185" lon="6.69633">
        <ele>307</ele>
        <time>2016-07-24T09:33:16.000Z</time>
      </trkpt>
      <trkpt lat="47.46189" lon="6.69635">
        <ele>307</ele>
        <time>2016-07-24T09:33:33.000Z</time>
      </trkpt>
      <trkpt lat="47.4619" lon="6.69633">
        <ele>306</ele>
        <time>2016-07-24T09:33:34.000Z</time>
      </trkpt>
      <trkpt lat="47.46193" lon="6.69628">
        <ele>306</ele>
        <time>2016-07-24T09:33:38.000Z</time>
      </trkpt>
      <trkpt lat="47.46193" lon="6.69625">
        <ele>306</ele>
        <time>2016-07-24T09:33:39.000Z</time>
      </trkpt>
      <trkpt lat="47.46192" lon="6.69621">
        <ele>306</ele>
        <time>2016-07-24T09:33:40.000Z</time>
      </trkpt>
      <trkpt lat="47.46191" lon="6.69616">
        <ele>306</ele>
        <time>2016-07-24T09:33:41.000Z</time>
      </trkpt>
      <trkpt lat="47.46189" lon="6.69613">
        <ele>306</ele>
        <time>2016-07-24T09:33:42.000Z</time>
      </trkpt>
      <trkpt lat="47.46188" lon="6.69609">
        <ele>306</ele>
        <time>2016-07-24T09:33:43.000Z</time>
      </trkpt>
      <trkpt lat="47.46187" lon="6.69606">
        <ele>306</ele>
        <time>2016-07-24T09:33:44.000Z</time>
      </trkpt>
      <trkpt lat="47.46186" lon="6.69602">
        <ele>306</ele>
        <time>2016-07-24T09:33:45.000Z</time>
      </trkpt>
      <trkpt lat="47.46185" lon="6.69597">
        <ele>306</ele>
        <time>2016-07-24T09:33:46.000Z</time>
      </trkpt>
      <trkpt lat="47.46184" lon="6.69592">
        <ele>305</ele>
        <time>2016-07-24T09:33:47.000Z</time>
      </trkpt>
      <trkpt lat="47.46183" lon="6.69588">
        <ele>305</ele>
        <time>2016-07-24T09:33:48.000Z</time>
      </trkpt>
      <trkpt lat="47.46182" lon="6.69583">
        <ele>305</ele>
        <time>2016-07-24T09:33:49.000Z</time>
      </trkpt>
      <trkpt lat="47.4618" lon="6.69577">
        <ele>305</ele>
        <time>2016-07-24T09:33:50.000Z</time>
      </trkpt>
      <trkpt lat="47.46179" lon="6.69572">
        <ele>305</ele>
        <time>2016-07-24T09:33:51.000Z</time>
      </trkpt>
      <trkpt lat="47.46178" lon="6.69566">
        <ele>305</ele>
        <time>2016-07-24T09:33:52.000Z</time>
      </trkpt>
      <trkpt lat="47.46178" lon="6.69561">
        <ele>305</ele>
        <time>2016-07-24T09:33:53.000Z</time>
      </trkpt>
      <trkpt lat="47.46178" lon="6.69556">
        <ele>305</ele>
        <time>2016-07-24T09:33:54.000Z</time>
      </trkpt>
      <trkpt lat="47.46178" lon="6.69552">
        <ele>304</ele>
        <time>2016-07-24T09:33:55.000Z</time>
      </trkpt>
      <trkpt lat="47.46188" lon="6.69563">
        <ele>305</ele>
        <time>2016-07-24T09:33:56.000Z</time>
      </trkpt>
      <trkpt lat="47.46192" lon="6.69568">
        <ele>305</ele>
        <time>2016-07-24T09:33:57.000Z</time>
      </trkpt>
      <trkpt lat="47.46197" lon="6.69574">
        <ele>305</ele>
        <time>2016-07-24T09:33:58.000Z</time>
      </trkpt>
      <trkpt lat="47.46201" lon="6.6958">
        <ele>305</ele>
        <time>2016-07-24T09:33:59.000Z</time>
      </trkpt>
      <trkpt lat="47.46205" lon="6.69587">
        <ele>305</ele>
        <time>2016-07-24T09:34:00.000Z</time>
      </trkpt>
      <trkpt lat="47.46209" lon="6.69592">
        <ele>305</ele>
        <time>2016-07-24T09:34:01.000Z</time>
      </trkpt>
      <trkpt lat="47.46213" lon="6.69599">
        <ele>305</ele>
        <time>2016-07-24T09:34:02.000Z</time>
      </trkpt>
      <trkpt lat="47.46217" lon="6.69605">
        <ele>305</ele>
        <time>2016-07-24T09:34:03.000Z</time>
      </trkpt>
      <trkpt lat="47.46221" lon="6.69611">
        <ele>305</ele>
        <time>2016-07-24T09:34:04.000Z</time>
      </trkpt>
      <trkpt lat="47.46225" lon="6.69617">
        <ele>305</ele>
        <time>2016-07-24T09:34:05.000Z</time>
      </trkpt>
      <trkpt lat="47.46229" lon="6.69626">
        <ele>305</ele>
        <time>2016-07-24T09:34:06.000Z</time>
      </trkpt>
      <trkpt lat="47.46234" lon="6.69633">
        <ele>305</ele>
        <time>2016-07-24T09:34:07.000Z</time>
      </trkpt>
      <trkpt lat="47.46238" lon="6.69639">
        <ele>305</ele>
        <time>2016-07-24T09:34:08.000Z</time>
      </trkpt>
      <trkpt lat="47.46242" lon="6.69645">
        <ele>305</ele>
        <time>2016-07-24T09:34:09.000Z</time>
      </trkpt>
      <trkpt lat="47.46246" lon="6.69652">
        <ele>304</ele>
        <time>2016-07-24T09:34:10.000Z</time>
      </trkpt>
      <trkpt lat="47.46251" lon="6.69659">
        <ele>303</ele>
        <time>2016-07-24T09:34:11.000Z</time>
      </trkpt>
      <trkpt lat="47.46254" lon="6.69666">
        <ele>303</ele>
        <time>2016-07-24T09:34:12.000Z</time>
      </trkpt>
      <trkpt lat="47.46258" lon="6.69672">
        <ele>303</ele>
        <time>2016-07-24T09:34:13.000Z</time>
      </trkpt>
      <trkpt lat="47.46263" lon="6.69678">
        <ele>303</ele>
        <time>2016-07-24T09:34:14.000Z</time>
      </trkpt>
      <trkpt lat="47.46266" lon="6.69685">
        <ele>303</ele>
        <time>2016-07-24T09:34:15.000Z</time>
      </trkpt>
      <trkpt lat="47.4627" lon="6.69691">
        <ele>303</ele>
        <time>2016-07-24T09:34:16.000Z</time>
      </trkpt>
      <trkpt lat="47.46273" lon="6.69698">
        <ele>303</ele>
        <time>2016-07-24T09:34:17.000Z</time>
      </trkpt>
      <trkpt lat="47.46276" lon="6.69703">
        <ele>303</ele>
        <time>2016-07-24T09:34:18.000Z</time>
      </trkpt>
      <trkpt lat="47.4628" lon="6.6971">
        <ele>303</ele>
        <time>2016-07-24T09:34:19.000Z</time>
      </trkpt>
      <trkpt lat="47.46284" lon="6.69716">
        <ele>303</ele>
        <time>2016-07-24T09:34:20.000Z</time>
      </trkpt>
      <trkpt lat="47.46288" lon="6.69721">
        <ele>303</ele>
        <time>2016-07-24T09:34:21.000Z</time>
      </trkpt>
      <trkpt lat="47.46291" lon="6.69728">
        <ele>303</ele>
        <time>2016-07-24T09:34:22.000Z</time>
      </trkpt>
      <trkpt lat="47.46294" lon="6.69734">
        <ele>303</ele>
        <time>2016-07-24T09:34:23.000Z</time>
      </trkpt>
      <trkpt lat="47.46297" lon="6.6974">
        <ele>303</ele>
        <time>2016-07-24T09:34:24.000Z</time>
      </trkpt>
      <trkpt lat="47.46302" lon="6.69745">
        <ele>303</ele>
        <time>2016-07-24T09:34:25.000Z</time>
      </trkpt>
      <trkpt lat="47.46306" lon="6.69751">
        <ele>304</ele>
        <time>2016-07-24T09:34:26.000Z</time>
      </trkpt>
      <trkpt lat="47.4631" lon="6.69757">
        <ele>304</ele>
        <time>2016-07-24T09:34:27.000Z</time>
      </trkpt>
      <trkpt lat="47.46314" lon="6.69762">
        <ele>304</ele>
        <time>2016-07-24T09:34:28.000Z</time>
      </trkpt>
      <trkpt lat="47.46318" lon="6.69767">
        <ele>304</ele>
        <time>2016-07-24T09:34:29.000Z</time>
      </trkpt>
      <trkpt lat="47.46322" lon="6.69771">
        <ele>304</ele>
        <time>2016-07-24T09:34:30.000Z</time>
      </trkpt>
      <trkpt lat="47.46325" lon="6.69777">
        <ele>304</ele>
        <time>2016-07-24T09:34:31.000Z</time>
      </trkpt>
      <trkpt lat="47.4633" lon="6.69781">
        <ele>304</ele>
        <time>2016-07-24T09:34:32.000Z</time>
      </trkpt>
      <trkpt lat="47.46334" lon="6.69785">
        <ele>303</ele>
        <time>2016-07-24T09:34:33.000Z</time>
      </trkpt>
      <trkpt lat="47.46338" lon="6.69789">
        <ele>303</ele>
        <time>2016-07-24T09:34:34.000Z</time>
      </trkpt>
      <trkpt lat="47.46342" lon="6.69793">
        <ele>303</ele>
        <time>2016-07-24T09:34:35.000Z</time>
      </trkpt>
      <trkpt lat="47.46346" lon="6.69797">
        <ele>303</ele>
        <time>2016-07-24T09:34:36.000Z</time>
      </trkpt>
      <trkpt lat="47.46349" lon="6.69799">
        <ele>303</ele>
        <time>2016-07-24T09:34:37.000Z</time>
      </trkpt>
      <trkpt lat="47.46353" lon="6.69802">
        <ele>303</ele>
        <time>2016-07-24T09:34:38.000Z</time>
      </trkpt>
      <trkpt lat="47.46357" lon="6.69805">
        <ele>303</ele>
        <time>2016-07-24T09:34:39.000Z</time>
      </trkpt>
      <trkpt lat="47.46359" lon="6.6981">
        <ele>303</ele>
        <time>2016-07-24T09:34:40.000Z</time>
      </trkpt>
      <trkpt lat="47.4636" lon="6.69812">
        <ele>303</ele>
        <time>2016-07-24T09:34:41.000Z</time>
      </trkpt>
      <trkpt lat="47.46362" lon="6.69815">
        <ele>303</ele>
        <time>2016-07-24T09:34:42.000Z</time>
      </trkpt>
      <trkpt lat="47.46364" lon="6.69818">
        <ele>303</ele>
        <time>2016-07-24T09:34:43.000Z</time>
      </trkpt>
      <trkpt lat="47.46368" lon="6.69819">
        <ele>303</ele>
        <time>2016-07-24T09:34:44.000Z</time>
      </trkpt>
      <trkpt lat="47.46371" lon="6.6982">
        <ele>303</ele>
        <time>2016-07-24T09:34:45.000Z</time>
      </trkpt>
      <trkpt lat="47.46374" lon="6.69822">
        <ele>303</ele>
        <time>2016-07-24T09:34:46.000Z</time>
      </trkpt>
      <trkpt lat="47.46377" lon="6.69824">
        <ele>303</ele>
        <time>2016-07-24T09:34:47.000Z</time>
      </trkpt>
      <trkpt lat="47.46379" lon="6.69826">
        <ele>303</ele>
        <time>2016-07-24T09:34:48.000Z</time>
      </trkpt>
      <trkpt lat="47.46382" lon="6.69828">
        <ele>303</ele>
        <time>2016-07-24T09:34:49.000Z</time>
      </trkpt>
      <trkpt lat="47.46385" lon="6.69829">
        <ele>303</ele>
        <time>2016-07-24T09:34:50.000Z</time>
      </trkpt>
      <trkpt lat="47.46388" lon="6.69831">
        <ele>303</ele>
        <time>2016-07-24T09:34:51.000Z</time>
      </trkpt>
      <trkpt lat="47.46391" lon="6.69833">
        <ele>303</ele>
        <time>2016-07-24T09:34:52.000Z</time>
      </trkpt>
      <trkpt lat="47.46393" lon="6.69835">
        <ele>303</ele>
        <time>2016-07-24T09:34:53.000Z</time>
      </trkpt>
      <trkpt lat="47.46396" lon="6.69837">
        <ele>303</ele>
        <time>2016-07-24T09:34:54.000Z</time>
      </trkpt>
      <trkpt lat="47.46398" lon="6.69838">
        <ele>303</ele>
        <time>2016-07-24T09:34:55.000Z</time>
      </trkpt>
      <trkpt lat="47.46402" lon="6.69839">
        <ele>303</ele>
        <time>2016-07-24T09:34:57.000Z</time>
      </trkpt>
      <trkpt lat="47.46404" lon="6.6984">
        <ele>303</ele>
        <time>2016-07-24T09:34:58.000Z</time>
      </trkpt>
      <trkpt lat="47.46406" lon="6.69842">
        <ele>303</ele>
        <time>2016-07-24T09:34:59.000Z</time>
      </trkpt>
      <trkpt lat="47.46408" lon="6.69844">
        <ele>303</ele>
        <time>2016-07-24T09:35:00.000Z</time>
      </trkpt>
      <trkpt lat="47.46411" lon="6.69847">
        <ele>303</ele>
        <time>2016-07-24T09:35:02.000Z</time>
      </trkpt>
      <trkpt lat="47.46412" lon="6.69849">
        <ele>303</ele>
        <time>2016-07-24T09:35:03.000Z</time>
      </trkpt>
      <trkpt lat="47.46415" lon="6.69851">
        <ele>303</ele>
        <time>2016-07-24T09:35:05.000Z</time>
      </trkpt>
      <trkpt lat="47.46417" lon="6.69852">
        <ele>303</ele>
        <time>2016-07-24T09:35:06.000Z</time>
      </trkpt>
      <trkpt lat="47.46421" lon="6.69853">
        <ele>303</ele>
        <time>2016-07-24T09:35:08.000Z</time>
      </trkpt>
      <trkpt lat="47.46423" lon="6.69854">
        <ele>303</ele>
        <time>2016-07-24T09:35:09.000Z</time>
      </trkpt>
      <trkpt lat="47.46427" lon="6.69856">
        <ele>303</ele>
        <time>2016-07-24T09:35:12.000Z</time>
      </trkpt>
      <trkpt lat="47.46428" lon="6.69856">
        <ele>303</ele>
        <time>2016-07-24T09:35:13.000Z</time>
      </trkpt>
      <trkpt lat="47.46424" lon="6.69854">
        <ele>303</ele>
        <time>2016-07-24T09:35:22.000Z</time>
      </trkpt>
      <trkpt lat="47.46421" lon="6.69851">
        <ele>303</ele>
        <time>2016-07-24T09:35:23.000Z</time>
      </trkpt>
      <trkpt lat="47.46418" lon="6.69848">
        <ele>303</ele>
        <time>2016-07-24T09:35:24.000Z</time>
      </trkpt>
      <trkpt lat="47.46415" lon="6.69845">
        <ele>303</ele>
        <time>2016-07-24T09:35:25.000Z</time>
      </trkpt>
      <trkpt lat="47.46413" lon="6.69841">
        <ele>303</ele>
        <time>2016-07-24T09:35:26.000Z</time>
      </trkpt>
      <trkpt lat="47.4641" lon="6.69838">
        <ele>303</ele>
        <time>2016-07-24T09:35:27.000Z</time>
      </trkpt>
      <trkpt lat="47.46407" lon="6.69836">
        <ele>303</ele>
        <time>2016-07-24T09:35:28.000Z</time>
      </trkpt>
      <trkpt lat="47.46405" lon="6.69833">
        <ele>303</ele>
        <time>2016-07-24T09:35:29.000Z</time>
      </trkpt>
      <trkpt lat="47.46402" lon="6.69831">
        <ele>303</ele>
        <time>2016-07-24T09:35:30.000Z</time>
      </trkpt>
      <trkpt lat="47.464" lon="6.69828">
        <ele>303</ele>
        <time>2016-07-24T09:35:31.000Z</time>
      </trkpt>
      <trkpt lat="47.46397" lon="6.69825">
        <ele>303</ele>
        <time>2016-07-24T09:35:32.000Z</time>
      </trkpt>
      <trkpt lat="47.46394" lon="6.69822">
        <ele>303</ele>
        <time>2016-07-24T09:35:33.000Z</time>
      </trkpt>
      <trkpt lat="47.46391" lon="6.69819">
        <ele>303</ele>
        <time>2016-07-24T09:35:34.000Z</time>
      </trkpt>
      <trkpt lat="47.46388" lon="6.69816">
        <ele>303</ele>
        <time>2016-07-24T09:35:35.000Z</time>
      </trkpt>
      <trkpt lat="47.46384" lon="6.69813">
        <ele>303</ele>
        <time>2016-07-24T09:35:36.000Z</time>
      </trkpt>
      <trkpt lat="47.46381" lon="6.69809">
        <ele>303</ele>
        <time>2016-07-24T09:35:37.000Z</time>
      </trkpt>
      <trkpt lat="47.46377" lon="6.69806">
        <ele>303</ele>
        <time>2016-07-24T09:35:38.000Z</time>
      </trkpt>
      <trkpt lat="47.46373" lon="6.69803">
        <ele>303</ele>
        <time>2016-07-24T09:35:39.000Z</time>
      </trkpt>
      <trkpt lat="47.4637" lon="6.698">
        <ele>303</ele>
        <time>2016-07-24T09:35:40.000Z</time>
      </trkpt>
      <trkpt lat="47.46367" lon="6.69798">
        <ele>303</ele>
        <time>2016-07-24T09:35:41.000Z</time>
      </trkpt>
      <trkpt lat="47.46364" lon="6.69795">
        <ele>303</ele>
        <time>2016-07-24T09:35:42.000Z</time>
      </trkpt>
      <trkpt lat="47.46361" lon="6.69791">
        <ele>303</ele>
        <time>2016-07-24T09:35:43.000Z</time>
      </trkpt>
      <trkpt lat="47.46357" lon="6.69788">
        <ele>303</ele>
        <time>2016-07-24T09:35:44.000Z</time>
      </trkpt>
      <trkpt lat="47.46353" lon="6.69783">
        <ele>303</ele>
        <time>2016-07-24T09:35:45.000Z</time>
      </trkpt>
      <trkpt lat="47.4635" lon="6.6978">
        <ele>303</ele>
        <time>2016-07-24T09:35:46.000Z</time>
      </trkpt>
      <trkpt lat="47.46346" lon="6.69776">
        <ele>303</ele>
        <time>2016-07-24T09:35:47.000Z</time>
      </trkpt>
      <trkpt lat="47.46344" lon="6.69774">
        <ele>303</ele>
        <time>2016-07-24T09:35:48.000Z</time>
      </trkpt>
      <trkpt lat="47.46341" lon="6.69772">
        <ele>303</ele>
        <time>2016-07-24T09:35:49.000Z</time>
      </trkpt>
      <trkpt lat="47.46339" lon="6.6977">
        <ele>303</ele>
        <time>2016-07-24T09:35:50.000Z</time>
      </trkpt>
      <trkpt lat="47.46337" lon="6.69766">
        <ele>303</ele>
        <time>2016-07-24T09:35:51.000Z</time>
      </trkpt>
      <trkpt lat="47.46333" lon="6.69762">
        <ele>303</ele>
        <time>2016-07-24T09:35:52.000Z</time>
      </trkpt>
      <trkpt lat="47.46329" lon="6.6976">
        <ele>303</ele>
        <time>2016-07-24T09:35:53.000Z</time>
      </trkpt>
      <trkpt lat="47.46326" lon="6.69757">
        <ele>303</ele>
        <time>2016-07-24T09:35:54.000Z</time>
      </trkpt>
      <trkpt lat="47.46323" lon="6.69754">
        <ele>303</ele>
        <time>2016-07-24T09:35:55.000Z</time>
      </trkpt>
      <trkpt lat="47.46319" lon="6.69752">
        <ele>303</ele>
        <time>2016-07-24T09:35:56.000Z</time>
      </trkpt>
      <trkpt lat="47.46316" lon="6.69749">
        <ele>303</ele>
        <time>2016-07-24T09:35:57.000Z</time>
      </trkpt>
      <trkpt lat="47.46314" lon="6.69747">
        <ele>303</ele>
        <time>2016-07-24T09:35:58.000Z</time>
      </trkpt>
      <trkpt lat="47.46312" lon="6.69744">
        <ele>303</ele>
        <time>2016-07-24T09:35:59.000Z</time>
      </trkpt>
      <trkpt lat="47.4631" lon="6.69741">
        <ele>303</ele>
        <time>2016-07-24T09:36:00.000Z</time>
      </trkpt>
      <trkpt lat="47.46308" lon="6.69738">
        <ele>303</ele>
        <time>2016-07-24T09:36:01.000Z</time>
      </trkpt>
      <trkpt lat="47.46306" lon="6.69737">
        <ele>303</ele>
        <time>2016-07-24T09:36:02.000Z</time>
      </trkpt>
      <trkpt lat="47.46304" lon="6.69737">
        <ele>303</ele>
        <time>2016-07-24T09:36:03.000Z</time>
      </trkpt>
      <trkpt lat="47.46301" lon="6.69743">
        <ele>303</ele>
        <time>2016-07-24T09:36:05.000Z</time>
      </trkpt>
      <trkpt lat="47.46301" lon="6.69746">
        <ele>303</ele>
        <time>2016-07-24T09:36:06.000Z</time>
      </trkpt>
      <trkpt lat="47.46302" lon="6.6975">
        <ele>303</ele>
        <time>2016-07-24T09:36:07.000Z</time>
      </trkpt>
      <trkpt lat="47.46303" lon="6.69753">
        <ele>304</ele>
        <time>2016-07-24T09:36:08.000Z</time>
      </trkpt>
      <trkpt lat="47.46305" lon="6.69757">
        <ele>304</ele>
        <time>2016-07-24T09:36:09.000Z</time>
      </trkpt>
      <trkpt lat="47.46306" lon="6.69761">
        <ele>304</ele>
        <time>2016-07-24T09:36:10.000Z</time>
      </trkpt>
      <trkpt lat="47.46308" lon="6.69765">
        <ele>304</ele>
        <time>2016-07-24T09:36:11.000Z</time>
      </trkpt>
      <trkpt lat="47.4631" lon="6.6977">
        <ele>304</ele>
        <time>2016-07-24T09:36:12.000Z</time>
      </trkpt>
      <trkpt lat="47.46312" lon="6.69775">
        <ele>304</ele>
        <time>2016-07-24T09:36:13.000Z</time>
      </trkpt>
      <trkpt lat="47.46313" lon="6.69779">
        <ele>304</ele>
        <time>2016-07-24T09:36:14.000Z</time>
      </trkpt>
      <trkpt lat="47.46315" lon="6.69783">
        <ele>304</ele>
        <time>2016-07-24T09:36:15.000Z</time>
      </trkpt>
      <trkpt lat="47.46317" lon="6.69787">
        <ele>304</ele>
        <time>2016-07-24T09:36:16.000Z</time>
      </trkpt>
      <trkpt lat="47.46319" lon="6.69792">
        <ele>304</ele>
        <time>2016-07-24T09:36:17.000Z</time>
      </trkpt>
      <trkpt lat="47.46321" lon="6.69796">
        <ele>304</ele>
        <time>2016-07-24T09:36:18.000Z</time>
      </trkpt>
      <trkpt lat="47.46323" lon="6.69801">
        <ele>304</ele>
        <time>2016-07-24T09:36:19.000Z</time>
      </trkpt>
      <trkpt lat="47.46324" lon="6.69804">
        <ele>304</ele>
        <time>2016-07-24T09:36:20.000Z</time>
      </trkpt>
      <trkpt lat="47.46325" lon="6.69808">
        <ele>304</ele>
        <time>2016-07-24T09:36:21.000Z</time>
      </trkpt>
      <trkpt lat="47.46326" lon="6.69812">
        <ele>304</ele>
        <time>2016-07-24T09:36:22.000Z</time>
      </trkpt>
      <trkpt lat="47.46327" lon="6.69815">
        <ele>304</ele>
        <time>2016-07-24T09:36:23.000Z</time>
      </trkpt>
      <trkpt lat="47.46329" lon="6.69818">
        <ele>304</ele>
        <time>2016-07-24T09:36:24.000Z</time>
      </trkpt>
      <trkpt lat="47.4633" lon="6.6982">
        <ele>303</ele>
        <time>2016-07-24T09:36:25.000Z</time>
      </trkpt>
      <trkpt lat="47.46332" lon="6.69823">
        <ele>303</ele>
        <time>2016-07-24T09:36:26.000Z</time>
      </trkpt>
      <trkpt lat="47.46334" lon="6.69826">
        <ele>303</ele>
        <time>2016-07-24T09:36:27.000Z</time>
      </trkpt>
      <trkpt lat="47.46336" lon="6.69829">
        <ele>303</ele>
        <time>2016-07-24T09:36:28.000Z</time>
      </trkpt>
      <trkpt lat="47.46338" lon="6.69834">
        <ele>303</ele>
        <time>2016-07-24T09:36:30.000Z</time>
      </trkpt>
      <trkpt lat="47.46339" lon="6.69836">
        <ele>303</ele>
        <time>2016-07-24T09:36:31.000Z</time>
      </trkpt>
      <trkpt lat="47.4634" lon="6.69843">
        <ele>303</ele>
        <time>2016-07-24T09:36:33.000Z</time>
      </trkpt>
      <trkpt lat="47.46341" lon="6.69847">
        <ele>303</ele>
        <time>2016-07-24T09:36:34.000Z</time>
      </trkpt>
      <trkpt lat="47.46343" lon="6.69851">
        <ele>303</ele>
        <time>2016-07-24T09:36:35.000Z</time>
      </trkpt>
      <trkpt lat="47.46346" lon="6.69855">
        <ele>303</ele>
        <time>2016-07-24T09:36:36.000Z</time>
      </trkpt>
      <trkpt lat="47.46348" lon="6.69859">
        <ele>303</ele>
        <time>2016-07-24T09:36:37.000Z</time>
      </trkpt>
      <trkpt lat="47.46351" lon="6.69862">
        <ele>303</ele>
        <time>2016-07-24T09:36:38.000Z</time>
      </trkpt>
      <trkpt lat="47.46352" lon="6.69866">
        <ele>303</ele>
        <time>2016-07-24T09:36:39.000Z</time>
      </trkpt>
      <trkpt lat="47.46353" lon="6.69868">
        <ele>303</ele>
        <time>2016-07-24T09:36:40.000Z</time>
      </trkpt>
      <trkpt lat="47.46354" lon="6.69872">
        <ele>303</ele>
        <time>2016-07-24T09:36:41.000Z</time>
      </trkpt>
      <trkpt lat="47.46355" lon="6.69875">
        <ele>303</ele>
        <time>2016-07-24T09:36:42.000Z</time>
      </trkpt>
      <trkpt lat="47.46356" lon="6.69879">
        <ele>303</ele>
        <time>2016-07-24T09:36:43.000Z</time>
      </trkpt>
      <trkpt lat="47.46358" lon="6.69883">
        <ele>303</ele>
        <time>2016-07-24T09:36:44.000Z</time>
      </trkpt>
      <trkpt lat="47.46358" lon="6.69888">
        <ele>303</ele>
        <time>2016-07-24T09:36:45.000Z</time>
      </trkpt>
      <trkpt lat="47.46359" lon="6.69892">
        <ele>303</ele>
        <time>2016-07-24T09:36:46.000Z</time>
      </trkpt>
      <trkpt lat="47.4636" lon="6.69896">
        <ele>303</ele>
        <time>2016-07-24T09:36:47.000Z</time>
      </trkpt>
      <trkpt lat="47.46361" lon="6.699">
        <ele>303</ele>
        <time>2016-07-24T09:36:48.000Z</time>
      </trkpt>
      <trkpt lat="47.46363" lon="6.69904">
        <ele>303</ele>
        <time>2016-07-24T09:36:49.000Z</time>
      </trkpt>
      <trkpt lat="47.46365" lon="6.69907">
        <ele>303</ele>
        <time>2016-07-24T09:36:50.000Z</time>
      </trkpt>
      <trkpt lat="47.46367" lon="6.6991">
        <ele>303</ele>
        <time>2016-07-24T09:36:51.000Z</time>
      </trkpt>
      <trkpt lat="47.46369" lon="6.69913">
        <ele>303</ele>
        <time>2016-07-24T09:36:52.000Z</time>
      </trkpt>
      <trkpt lat="47.46371" lon="6.69917">
        <ele>303</ele>
        <time>2016-07-24T09:36:53.000Z</time>
      </trkpt>
      <trkpt lat="47.46373" lon="6.69921">
        <ele>303</ele>
        <time>2016-07-24T09:36:54.000Z</time>
      </trkpt>
      <trkpt lat="47.46375" lon="6.69925">
        <ele>303</ele>
        <time>2016-07-24T09:36:55.000Z</time>
      </trkpt>
      <trkpt lat="47.46377" lon="6.69929">
        <ele>303</ele>
        <time>2016-07-24T09:36:56.000Z</time>
      </trkpt>
      <trkpt lat="47.46379" lon="6.69934">
        <ele>303</ele>
        <time>2016-07-24T09:36:57.000Z</time>
      </trkpt>
      <trkpt lat="47.46381" lon="6.69938">
        <ele>303</ele>
        <time>2016-07-24T09:36:58.000Z</time>
      </trkpt>
      <trkpt lat="47.46382" lon="6.69942">
        <ele>303</ele>
        <time>2016-07-24T09:36:59.000Z</time>
      </trkpt>
      <trkpt lat="47.46384" lon="6.69945">
        <ele>303</ele>
        <time>2016-07-24T09:37:00.000Z</time>
      </trkpt>
      <trkpt lat="47.46386" lon="6.69949">
        <ele>303</ele>
        <time>2016-07-24T09:37:01.000Z</time>
      </trkpt>
      <trkpt lat="47.46388" lon="6.69952">
        <ele>303</ele>
        <time>2016-07-24T09:37:02.000Z</time>
      </trkpt>
      <trkpt lat="47.4639" lon="6.69955">
        <ele>303</ele>
        <time>2016-07-24T09:37:03.000Z</time>
      </trkpt>
      <trkpt lat="47.46392" lon="6.69959">
        <ele>303</ele>
        <time>2016-07-24T09:37:04.000Z</time>
      </trkpt>
      <trkpt lat="47.46394" lon="6.69963">
        <ele>303</ele>
        <time>2016-07-24T09:37:05.000Z</time>
      </trkpt>
      <trkpt lat="47.46396" lon="6.69968">
        <ele>303</ele>
        <time>2016-07-24T09:37:06.000Z</time>
      </trkpt>
      <trkpt lat="47.46398" lon="6.69973">
        <ele>303</ele>
        <time>2016-07-24T09:37:07.000Z</time>
      </trkpt>
      <trkpt lat="47.46399" lon="6.69977">
        <ele>303</ele>
        <time>2016-07-24T09:37:08.000Z</time>
      </trkpt>
      <trkpt lat="47.46401" lon="6.69981">
        <ele>303</ele>
        <time>2016-07-24T09:37:09.000Z</time>
      </trkpt>
      <trkpt lat="47.46403" lon="6.69985">
        <ele>303</ele>
        <time>2016-07-24T09:37:10.000Z</time>
      </trkpt>
      <trkpt lat="47.46405" lon="6.69989">
        <ele>303</ele>
        <time>2016-07-24T09:37:11.000Z</time>
      </trkpt>
      <trkpt lat="47.46407" lon="6.69993">
        <ele>303</ele>
        <time>2016-07-24T09:37:12.000Z</time>
      </trkpt>
      <trkpt lat="47.46409" lon="6.69997">
        <ele>303</ele>
        <time>2016-07-24T09:37:13.000Z</time>
      </trkpt>
      <trkpt lat="47.46411" lon="6.70001">
        <ele>303</ele>
        <time>2016-07-24T09:37:14.000Z</time>
      </trkpt>
      <trkpt lat="47.46413" lon="6.70005">
        <ele>303</ele>
        <time>2016-07-24T09:37:15.000Z</time>
      </trkpt>
      <trkpt lat="47.46416" lon="6.70009">
        <ele>304</ele>
        <time>2016-07-24T09:37:16.000Z</time>
      </trkpt>
      <trkpt lat="47.46418" lon="6.70013">
        <ele>303</ele>
        <time>2016-07-24T09:37:17.000Z</time>
      </trkpt>
      <trkpt lat="47.4642" lon="6.70018">
        <ele>303</ele>
        <time>2016-07-24T09:37:18.000Z</time>
      </trkpt>
      <trkpt lat="47.46421" lon="6.70021">
        <ele>303</ele>
        <time>2016-07-24T09:37:19.000Z</time>
      </trkpt>
      <trkpt lat="47.46423" lon="6.70025">
        <ele>303</ele>
        <time>2016-07-24T09:37:20.000Z</time>
      </trkpt>
      <trkpt lat="47.46425" lon="6.70029">
        <ele>303</ele>
        <time>2016-07-24T09:37:21.000Z</time>
      </trkpt>
      <trkpt lat="47.46427" lon="6.70033">
        <ele>303</ele>
        <time>2016-07-24T09:37:22.000Z</time>
      </trkpt>
      <trkpt lat="47.46428" lon="6.70036">
        <ele>303</ele>
        <time>2016-07-24T09:37:23.000Z</time>
      </trkpt>
      <trkpt lat="47.4643" lon="6.7004">
        <ele>303</ele>
        <time>2016-07-24T09:37:24.000Z</time>
      </trkpt>
      <trkpt lat="47.46432" lon="6.70044">
        <ele>303</ele>
        <time>2016-07-24T09:37:25.000Z</time>
      </trkpt>
      <trkpt lat="47.46434" lon="6.70048">
        <ele>303</ele>
        <time>2016-07-24T09:37:26.000Z</time>
      </trkpt>
      <trkpt lat="47.46436" lon="6.70051">
        <ele>303</ele>
        <time>2016-07-24T09:37:27.000Z</time>
      </trkpt>
      <trkpt lat="47.46438" lon="6.70055">
        <ele>303</ele>
        <time>2016-07-24T09:37:28.000Z</time>
      </trkpt>
      <trkpt lat="47.4644" lon="6.70059">
        <ele>303</ele>
        <time>2016-07-24T09:37:29.000Z</time>
      </trkpt>
      <trkpt lat="47.46442" lon="6.70063">
        <ele>303</ele>
        <time>2016-07-24T09:37:30.000Z</time>
      </trkpt>
      <trkpt lat="47.46444" lon="6.70067">
        <ele>303</ele>
        <time>2016-07-24T09:37:31.000Z</time>
      </trkpt>
      <trkpt lat="47.46445" lon="6.70071">
        <ele>303</ele>
        <time>2016-07-24T09:37:32.000Z</time>
      </trkpt>
      <trkpt lat="47.46447" lon="6.70075">
        <ele>303</ele>
        <time>2016-07-24T09:37:33.000Z</time>
      </trkpt>
      <trkpt lat="47.46449" lon="6.70078">
        <ele>303</ele>
        <time>2016-07-24T09:37:34.000Z</time>
      </trkpt>
      <trkpt lat="47.46451" lon="6.70082">
        <ele>303</ele>
        <time>2016-07-24T09:37:35.000Z</time>
      </trkpt>
      <trkpt lat="47.46452" lon="6.70086">
        <ele>303</ele>
        <time>2016-07-24T09:37:36.000Z</time>
      </trkpt>
      <trkpt lat="47.46454" lon="6.70091">
        <ele>303</ele>
        <time>2016-07-24T09:37:37.000Z</time>
      </trkpt>
      <trkpt lat="47.46455" lon="6.70096">
        <ele>303</ele>
        <time>2016-07-24T09:37:38.000Z</time>
      </trkpt>
      <trkpt lat="47.46457" lon="6.70101">
        <ele>303</ele>
        <time>2016-07-24T09:37:39.000Z</time>
      </trkpt>
      <trkpt lat="47.46459" lon="6.70105">
        <ele>303</ele>
        <time>2016-07-24T09:37:40.000Z</time>
      </trkpt>
      <trkpt lat="47.46461" lon="6.7011">
        <ele>303</ele>
        <time>2016-07-24T09:37:41.000Z</time>
      </trkpt>
      <trkpt lat="47.46462" lon="6.70114">
        <ele>303</ele>
        <time>2016-07-24T09:37:42.000Z</time>
      </trkpt>
      <trkpt lat="47.46464" lon="6.70119">
        <ele>303</ele>
        <time>2016-07-24T09:37:43.000Z</time>
      </trkpt>
      <trkpt lat="47.46467" lon="6.70123">
        <ele>303</ele>
        <time>2016-07-24T09:37:44.000Z</time>
      </trkpt>
      <trkpt lat="47.46469" lon="6.70127">
        <ele>303</ele>
        <time>2016-07-24T09:37:45.000Z</time>
      </trkpt>
      <trkpt lat="47.46471" lon="6.70131">
        <ele>303</ele>
        <time>2016-07-24T09:37:46.000Z</time>
      </trkpt>
      <trkpt lat="47.46473" lon="6.70135">
        <ele>303</ele>
        <time>2016-07-24T09:37:47.000Z</time>
      </trkpt>
      <trkpt lat="47.46476" lon="6.70139">
        <ele>303</ele>
        <time>2016-07-24T09:37:48.000Z</time>
      </trkpt>
      <trkpt lat="47.46478" lon="6.70144">
        <ele>303</ele>
        <time>2016-07-24T09:37:49.000Z</time>
      </trkpt>
      <trkpt lat="47.4648" lon="6.70148">
        <ele>303</ele>
        <time>2016-07-24T09:37:50.000Z</time>
      </trkpt>
      <trkpt lat="47.46482" lon="6.70153">
        <ele>303</ele>
        <time>2016-07-24T09:37:51.000Z</time>
      </trkpt>
      <trkpt lat="47.46483" lon="6.70158">
        <ele>303</ele>
        <time>2016-07-24T09:37:52.000Z</time>
      </trkpt>
      <trkpt lat="47.46485" lon="6.70163">
        <ele>304</ele>
        <time>2016-07-24T09:37:53.000Z</time>
      </trkpt>
      <trkpt lat="47.46486" lon="6.70168">
        <ele>305</ele>
        <time>2016-07-24T09:37:54.000Z</time>
      </trkpt>
      <trkpt lat="47.46488" lon="6.70172">
        <ele>305</ele>
        <time>2016-07-24T09:37:55.000Z</time>
      </trkpt>
      <trkpt lat="47.46489" lon="6.70176">
        <ele>305</ele>
        <time>2016-07-24T09:37:56.000Z</time>
      </trkpt>
      <trkpt lat="47.46491" lon="6.70179">
        <ele>305</ele>
        <time>2016-07-24T09:37:57.000Z</time>
      </trkpt>
      <trkpt lat="47.46492" lon="6.70183">
        <ele>305</ele>
        <time>2016-07-24T09:37:58.000Z</time>
      </trkpt>
      <trkpt lat="47.46494" lon="6.70187">
        <ele>305</ele>
        <time>2016-07-24T09:37:59.000Z</time>
      </trkpt>
      <trkpt lat="47.46496" lon="6.70191">
        <ele>305</ele>
        <time>2016-07-24T09:38:00.000Z</time>
      </trkpt>
      <trkpt lat="47.46498" lon="6.70195">
        <ele>305</ele>
        <time>2016-07-24T09:38:01.000Z</time>
      </trkpt>
      <trkpt lat="47.465" lon="6.70198">
        <ele>305</ele>
        <time>2016-07-24T09:38:02.000Z</time>
      </trkpt>
      <trkpt lat="47.46502" lon="6.70202">
        <ele>304</ele>
        <time>2016-07-24T09:38:03.000Z</time>
      </trkpt>
      <trkpt lat="47.46503" lon="6.70205">
        <ele>304</ele>
        <time>2016-07-24T09:38:04.000Z</time>
      </trkpt>
      <trkpt lat="47.46505" lon="6.70209">
        <ele>304</ele>
        <time>2016-07-24T09:38:05.000Z</time>
      </trkpt>
      <trkpt lat="47.46507" lon="6.70212">
        <ele>304</ele>
        <time>2016-07-24T09:38:06.000Z</time>
      </trkpt>
      <trkpt lat="47.46509" lon="6.70216">
        <ele>304</ele>
        <time>2016-07-24T09:38:07.000Z</time>
      </trkpt>
      <trkpt lat="47.46511" lon="6.70221">
        <ele>304</ele>
        <time>2016-07-24T09:38:08.000Z</time>
      </trkpt>
      <trkpt lat="47.46513" lon="6.70225">
        <ele>304</ele>
        <time>2016-07-24T09:38:09.000Z</time>
      </trkpt>
      <trkpt lat="47.46515" lon="6.70229">
        <ele>304</ele>
        <time>2016-07-24T09:38:10.000Z</time>
      </trkpt>
      <trkpt lat="47.46516" lon="6.70234">
        <ele>304</ele>
        <time>2016-07-24T09:38:11.000Z</time>
      </trkpt>
      <trkpt lat="47.46518" lon="6.70238">
        <ele>304</ele>
        <time>2016-07-24T09:38:12.000Z</time>
      </trkpt>
      <trkpt lat="47.46521" lon="6.70242">
        <ele>304</ele>
        <time>2016-07-24T09:38:13.000Z</time>
      </trkpt>
      <trkpt lat="47.46523" lon="6.70246">
        <ele>304</ele>
        <time>2016-07-24T09:38:14.000Z</time>
      </trkpt>
      <trkpt lat="47.46525" lon="6.7025">
        <ele>304</ele>
        <time>2016-07-24T09:38:15.000Z</time>
      </trkpt>
      <trkpt lat="47.46527" lon="6.70254">
        <ele>304</ele>
        <time>2016-07-24T09:38:16.000Z</time>
      </trkpt>
      <trkpt lat="47.46529" lon="6.70258">
        <ele>304</ele>
        <time>2016-07-24T09:38:17.000Z</time>
      </trkpt>
      <trkpt lat="47.46531" lon="6.70262">
        <ele>304</ele>
        <time>2016-07-24T09:38:18.000Z</time>
      </trkpt>
      <trkpt lat="47.46533" lon="6.70267">
        <ele>304</ele>
        <time>2016-07-24T09:38:19.000Z</time>
      </trkpt>
      <trkpt lat="47.46535" lon="6.70272">
        <ele>304</ele>
        <time>2016-07-24T09:38:20.000Z</time>
      </trkpt>
      <trkpt lat="47.46537" lon="6.70277">
        <ele>304</ele>
        <time>2016-07-24T09:38:21.000Z</time>
      </trkpt>
      <trkpt lat="47.46538" lon="6.70282">
        <ele>304</ele>
        <time>2016-07-24T09:38:22.000Z</time>
      </trkpt>
      <trkpt lat="47.4654" lon="6.70287">
        <ele>304</ele>
        <time>2016-07-24T09:38:23.000Z</time>
      </trkpt>
      <trkpt lat="47.46541" lon="6.70291">
        <ele>304</ele>
        <time>2016-07-24T09:38:24.000Z</time>
      </trkpt>
      <trkpt lat="47.46542" lon="6.70295">
        <ele>304</ele>
        <time>2016-07-24T09:38:25.000Z</time>
      </trkpt>
      <trkpt lat="47.46543" lon="6.703">
        <ele>304</ele>
        <time>2016-07-24T09:38:26.000Z</time>
      </trkpt>
      <trkpt lat="47.46545" lon="6.70304">
        <ele>304</ele>
        <time>2016-07-24T09:38:27.000Z</time>
      </trkpt>
      <trkpt lat="47.46546" lon="6.70307">
        <ele>304</ele>
        <time>2016-07-24T09:38:28.000Z</time>
      </trkpt>
      <trkpt lat="47.46547" lon="6.70311">
        <ele>304</ele>
        <time>2016-07-24T09:38:29.000Z</time>
      </trkpt>
      <trkpt lat="47.46549" lon="6.70315">
        <ele>304</ele>
        <time>2016-07-24T09:38:30.000Z</time>
      </trkpt>
      <trkpt lat="47.4655" lon="6.70319">
        <ele>304</ele>
        <time>2016-07-24T09:38:31.000Z</time>
      </trkpt>
      <trkpt lat="47.46551" lon="6.70322">
        <ele>304</ele>
        <time>2016-07-24T09:38:32.000Z</time>
      </trkpt>
      <trkpt lat="47.46553" lon="6.70326">
        <ele>304</ele>
        <time>2016-07-24T09:38:33.000Z</time>
      </trkpt>
      <trkpt lat="47.46555" lon="6.7033">
        <ele>304</ele>
        <time>2016-07-24T09:38:34.000Z</time>
      </trkpt>
      <trkpt lat="47.46557" lon="6.70334">
        <ele>306</ele>
        <time>2016-07-24T09:38:35.000Z</time>
      </trkpt>
      <trkpt lat="47.46559" lon="6.70337">
        <ele>305</ele>
        <time>2016-07-24T09:38:36.000Z</time>
      </trkpt>
      <trkpt lat="47.46561" lon="6.70339">
        <ele>305</ele>
        <time>2016-07-24T09:38:37.000Z</time>
      </trkpt>
      <trkpt lat="47.46563" lon="6.70342">
        <ele>305</ele>
        <time>2016-07-24T09:38:38.000Z</time>
      </trkpt>
      <trkpt lat="47.46565" lon="6.70345">
        <ele>305</ele>
        <time>2016-07-24T09:38:39.000Z</time>
      </trkpt>
      <trkpt lat="47.46567" lon="6.70348">
        <ele>305</ele>
        <time>2016-07-24T09:38:40.000Z</time>
      </trkpt>
      <trkpt lat="47.46569" lon="6.70352">
        <ele>305</ele>
        <time>2016-07-24T09:38:41.000Z</time>
      </trkpt>
      <trkpt lat="47.46571" lon="6.70356">
        <ele>306</ele>
        <time>2016-07-24T09:38:42.000Z</time>
      </trkpt>
      <trkpt lat="47.46572" lon="6.70361">
        <ele>306</ele>
        <time>2016-07-24T09:38:43.000Z</time>
      </trkpt>
      <trkpt lat="47.46574" lon="6.70365">
        <ele>306</ele>
        <time>2016-07-24T09:38:44.000Z</time>
      </trkpt>
      <trkpt lat="47.46576" lon="6.7037">
        <ele>306</ele>
        <time>2016-07-24T09:38:45.000Z</time>
      </trkpt>
      <trkpt lat="47.46578" lon="6.70375">
        <ele>306</ele>
        <time>2016-07-24T09:38:46.000Z</time>
      </trkpt>
      <trkpt lat="47.4658" lon="6.7038">
        <ele>306</ele>
        <time>2016-07-24T09:38:47.000Z</time>
      </trkpt>
      <trkpt lat="47.46583" lon="6.70385">
        <ele>306</ele>
        <time>2016-07-24T09:38:48.000Z</time>
      </trkpt>
      <trkpt lat="47.46585" lon="6.7039">
        <ele>304</ele>
        <time>2016-07-24T09:38:49.000Z</time>
      </trkpt>
      <trkpt lat="47.46587" lon="6.70394">
        <ele>304</ele>
        <time>2016-07-24T09:38:50.000Z</time>
      </trkpt>
      <trkpt lat="47.4659" lon="6.70397">
        <ele>304</ele>
        <time>2016-07-24T09:38:51.000Z</time>
      </trkpt>
      <trkpt lat="47.46592" lon="6.70401">
        <ele>304</ele>
        <time>2016-07-24T09:38:52.000Z</time>
      </trkpt>
      <trkpt lat="47.46595" lon="6.70404">
        <ele>304</ele>
        <time>2016-07-24T09:38:53.000Z</time>
      </trkpt>
      <trkpt lat="47.46597" lon="6.70408">
        <ele>304</ele>
        <time>2016-07-24T09:38:54.000Z</time>
      </trkpt>
      <trkpt lat="47.46598" lon="6.70412">
        <ele>304</ele>
        <time>2016-07-24T09:38:55.000Z</time>
      </trkpt>
      <trkpt lat="47.466" lon="6.70416">
        <ele>304</ele>
        <time>2016-07-24T09:38:56.000Z</time>
      </trkpt>
      <trkpt lat="47.46602" lon="6.7042">
        <ele>305</ele>
        <time>2016-07-24T09:38:57.000Z</time>
      </trkpt>
      <trkpt lat="47.46604" lon="6.70424">
        <ele>305</ele>
        <time>2016-07-24T09:38:58.000Z</time>
      </trkpt>
      <trkpt lat="47.46606" lon="6.70427">
        <ele>305</ele>
        <time>2016-07-24T09:38:59.000Z</time>
      </trkpt>
      <trkpt lat="47.46608" lon="6.70431">
        <ele>305</ele>
        <time>2016-07-24T09:39:00.000Z</time>
      </trkpt>
      <trkpt lat="47.4661" lon="6.70434">
        <ele>305</ele>
        <time>2016-07-24T09:39:01.000Z</time>
      </trkpt>
      <trkpt lat="47.46612" lon="6.70438">
        <ele>305</ele>
        <time>2016-07-24T09:39:02.000Z</time>
      </trkpt>
      <trkpt lat="47.46614" lon="6.70441">
        <ele>305</ele>
        <time>2016-07-24T09:39:03.000Z</time>
      </trkpt>
      <trkpt lat="47.46615" lon="6.70445">
        <ele>305</ele>
        <time>2016-07-24T09:39:04.000Z</time>
      </trkpt>
      <trkpt lat="47.46617" lon="6.70449">
        <ele>305</ele>
        <time>2016-07-24T09:39:05.000Z</time>
      </trkpt>
      <trkpt lat="47.46619" lon="6.70453">
        <ele>305</ele>
        <time>2016-07-24T09:39:06.000Z</time>
      </trkpt>
      <trkpt lat="47.46621" lon="6.70457">
        <ele>305</ele>
        <time>2016-07-24T09:39:07.000Z</time>
      </trkpt>
      <trkpt lat="47.46623" lon="6.70461">
        <ele>305</ele>
        <time>2016-07-24T09:39:08.000Z</time>
      </trkpt>
      <trkpt lat="47.46625" lon="6.70465">
        <ele>305</ele>
        <time>2016-07-24T09:39:09.000Z</time>
      </trkpt>
      <trkpt lat="47.46628" lon="6.70469">
        <ele>305</ele>
        <time>2016-07-24T09:39:10.000Z</time>
      </trkpt>
      <trkpt lat="47.46631" lon="6.70473">
        <ele>305</ele>
        <time>2016-07-24T09:39:11.000Z</time>
      </trkpt>
      <trkpt lat="47.46633" lon="6.70477">
        <ele>305</ele>
        <time>2016-07-24T09:39:12.000Z</time>
      </trkpt>
      <trkpt lat="47.46635" lon="6.70482">
        <ele>305</ele>
        <time>2016-07-24T09:39:13.000Z</time>
      </trkpt>
      <trkpt lat="47.46637" lon="6.70486">
        <ele>305</ele>
        <time>2016-07-24T09:39:14.000Z</time>
      </trkpt>
      <trkpt lat="47.46639" lon="6.70491">
        <ele>305</ele>
        <time>2016-07-24T09:39:15.000Z</time>
      </trkpt>
      <trkpt lat="47.46641" lon="6.70496">
        <ele>305</ele>
        <time>2016-07-24T09:39:16.000Z</time>
      </trkpt>
      <trkpt lat="47.46642" lon="6.705">
        <ele>305</ele>
        <time>2016-07-24T09:39:17.000Z</time>
      </trkpt>
      <trkpt lat="47.46644" lon="6.70505">
        <ele>306</ele>
        <time>2016-07-24T09:39:18.000Z</time>
      </trkpt>
      <trkpt lat="47.46645" lon="6.70509">
        <ele>306</ele>
        <time>2016-07-24T09:39:19.000Z</time>
      </trkpt>
      <trkpt lat="47.46647" lon="6.70514">
        <ele>306</ele>
        <time>2016-07-24T09:39:20.000Z</time>
      </trkpt>
      <trkpt lat="47.46648" lon="6.70518">
        <ele>306</ele>
        <time>2016-07-24T09:39:21.000Z</time>
      </trkpt>
      <trkpt lat="47.4665" lon="6.70522">
        <ele>307</ele>
        <time>2016-07-24T09:39:22.000Z</time>
      </trkpt>
      <trkpt lat="47.46652" lon="6.70526">
        <ele>307</ele>
        <time>2016-07-24T09:39:23.000Z</time>
      </trkpt>
      <trkpt lat="47.46654" lon="6.7053">
        <ele>307</ele>
        <time>2016-07-24T09:39:24.000Z</time>
      </trkpt>
      <trkpt lat="47.46656" lon="6.70535">
        <ele>307</ele>
        <time>2016-07-24T09:39:25.000Z</time>
      </trkpt>
      <trkpt lat="47.46658" lon="6.70539">
        <ele>307</ele>
        <time>2016-07-24T09:39:26.000Z</time>
      </trkpt>
      <trkpt lat="47.4666" lon="6.70544">
        <ele>307</ele>
        <time>2016-07-24T09:39:27.000Z</time>
      </trkpt>
      <trkpt lat="47.46661" lon="6.70549">
        <ele>307</ele>
        <time>2016-07-24T09:39:28.000Z</time>
      </trkpt>
      <trkpt lat="47.46663" lon="6.70553">
        <ele>307</ele>
        <time>2016-07-24T09:39:29.000Z</time>
      </trkpt>
      <trkpt lat="47.46665" lon="6.70558">
        <ele>307</ele>
        <time>2016-07-24T09:39:30.000Z</time>
      </trkpt>
      <trkpt lat="47.46666" lon="6.70562">
        <ele>307</ele>
        <time>2016-07-24T09:39:31.000Z</time>
      </trkpt>
      <trkpt lat="47.46668" lon="6.70566">
        <ele>305</ele>
        <time>2016-07-24T09:39:32.000Z</time>
      </trkpt>
      <trkpt lat="47.4667" lon="6.70571">
        <ele>305</ele>
        <time>2016-07-24T09:39:33.000Z</time>
      </trkpt>
      <trkpt lat="47.46672" lon="6.70575">
        <ele>305</ele>
        <time>2016-07-24T09:39:34.000Z</time>
      </trkpt>
      <trkpt lat="47.46674" lon="6.70579">
        <ele>305</ele>
        <time>2016-07-24T09:39:35.000Z</time>
      </trkpt>
      <trkpt lat="47.46677" lon="6.70584">
        <ele>306</ele>
        <time>2016-07-24T09:39:36.000Z</time>
      </trkpt>
      <trkpt lat="47.4668" lon="6.70588">
        <ele>306</ele>
        <time>2016-07-24T09:39:37.000Z</time>
      </trkpt>
      <trkpt lat="47.46682" lon="6.70592">
        <ele>306</ele>
        <time>2016-07-24T09:39:38.000Z</time>
      </trkpt>
      <trkpt lat="47.46684" lon="6.70596">
        <ele>306</ele>
        <time>2016-07-24T09:39:39.000Z</time>
      </trkpt>
      <trkpt lat="47.46686" lon="6.70599">
        <ele>306</ele>
        <time>2016-07-24T09:39:40.000Z</time>
      </trkpt>
      <trkpt lat="47.46688" lon="6.70603">
        <ele>306</ele>
        <time>2016-07-24T09:39:41.000Z</time>
      </trkpt>
      <trkpt lat="47.46689" lon="6.70607">
        <ele>306</ele>
        <time>2016-07-24T09:39:42.000Z</time>
      </trkpt>
      <trkpt lat="47.46691" lon="6.70611">
        <ele>306</ele>
        <time>2016-07-24T09:39:43.000Z</time>
      </trkpt>
      <trkpt lat="47.46693" lon="6.70615">
        <ele>306</ele>
        <time>2016-07-24T09:39:44.000Z</time>
      </trkpt>
      <trkpt lat="47.46695" lon="6.70618">
        <ele>306</ele>
        <time>2016-07-24T09:39:45.000Z</time>
      </trkpt>
      <trkpt lat="47.46697" lon="6.70622">
        <ele>306</ele>
        <time>2016-07-24T09:39:46.000Z</time>
      </trkpt>
      <trkpt lat="47.46699" lon="6.70626">
        <ele>307</ele>
        <time>2016-07-24T09:39:47.000Z</time>
      </trkpt>
      <trkpt lat="47.46701" lon="6.70629">
        <ele>307</ele>
        <time>2016-07-24T09:39:48.000Z</time>
      </trkpt>
      <trkpt lat="47.46703" lon="6.70633">
        <ele>307</ele>
        <time>2016-07-24T09:39:49.000Z</time>
      </trkpt>
      <trkpt lat="47.46705" lon="6.70638">
        <ele>307</ele>
        <time>2016-07-24T09:39:50.000Z</time>
      </trkpt>
      <trkpt lat="47.46707" lon="6.70642">
        <ele>307</ele>
        <time>2016-07-24T09:39:51.000Z</time>
      </trkpt>
      <trkpt lat="47.46709" lon="6.70646">
        <ele>307</ele>
        <time>2016-07-24T09:39:52.000Z</time>
      </trkpt>
      <trkpt lat="47.46711" lon="6.7065">
        <ele>307</ele>
        <time>2016-07-24T09:39:53.000Z</time>
      </trkpt>
      <trkpt lat="47.46713" lon="6.70655">
        <ele>307</ele>
        <time>2016-07-24T09:39:54.000Z</time>
      </trkpt>
      <trkpt lat="47.46715" lon="6.7066">
        <ele>307</ele>
        <time>2016-07-24T09:39:55.000Z</time>
      </trkpt>
      <trkpt lat="47.46717" lon="6.70665">
        <ele>307</ele>
        <time>2016-07-24T09:39:56.000Z</time>
      </trkpt>
      <trkpt lat="47.46719" lon="6.7067">
        <ele>309</ele>
        <time>2016-07-24T09:39:57.000Z</time>
      </trkpt>
      <trkpt lat="47.46721" lon="6.70675">
        <ele>309</ele>
        <time>2016-07-24T09:39:58.000Z</time>
      </trkpt>
      <trkpt lat="47.46722" lon="6.70679">
        <ele>309</ele>
        <time>2016-07-24T09:39:59.000Z</time>
      </trkpt>
      <trkpt lat="47.46724" lon="6.70683">
        <ele>309</ele>
        <time>2016-07-24T09:40:00.000Z</time>
      </trkpt>
      <trkpt lat="47.46726" lon="6.70687">
        <ele>309</ele>
        <time>2016-07-24T09:40:01.000Z</time>
      </trkpt>
      <trkpt lat="47.46728" lon="6.70691">
        <ele>309</ele>
        <time>2016-07-24T09:40:02.000Z</time>
      </trkpt>
      <trkpt lat="47.4673" lon="6.70695">
        <ele>309</ele>
        <time>2016-07-24T09:40:03.000Z</time>
      </trkpt>
      <trkpt lat="47.46732" lon="6.70699">
        <ele>309</ele>
        <time>2016-07-24T09:40:04.000Z</time>
      </trkpt>
      <trkpt lat="47.46734" lon="6.70704">
        <ele>309</ele>
        <time>2016-07-24T09:40:05.000Z</time>
      </trkpt>
      <trkpt lat="47.46736" lon="6.70708">
        <ele>309</ele>
        <time>2016-07-24T09:40:06.000Z</time>
      </trkpt>
      <trkpt lat="47.46738" lon="6.70712">
        <ele>309</ele>
        <time>2016-07-24T09:40:07.000Z</time>
      </trkpt>
      <trkpt lat="47.46739" lon="6.70717">
        <ele>309</ele>
        <time>2016-07-24T09:40:08.000Z</time>
      </trkpt>
      <trkpt lat="47.4674" lon="6.70721">
        <ele>309</ele>
        <time>2016-07-24T09:40:09.000Z</time>
      </trkpt>
      <trkpt lat="47.4674" lon="6.70725">
        <ele>309</ele>
        <time>2016-07-24T09:40:10.000Z</time>
      </trkpt>
      <trkpt lat="47.46741" lon="6.7073">
        <ele>308</ele>
        <time>2016-07-24T09:40:11.000Z</time>
      </trkpt>
      <trkpt lat="47.46743" lon="6.70735">
        <ele>308</ele>
        <time>2016-07-24T09:40:12.000Z</time>
      </trkpt>
      <trkpt lat="47.46745" lon="6.70739">
        <ele>308</ele>
        <time>2016-07-24T09:40:13.000Z</time>
      </trkpt>
      <trkpt lat="47.46747" lon="6.70744">
        <ele>308</ele>
        <time>2016-07-24T09:40:14.000Z</time>
      </trkpt>
      <trkpt lat="47.46749" lon="6.70748">
        <ele>307</ele>
        <time>2016-07-24T09:40:15.000Z</time>
      </trkpt>
      <trkpt lat="47.46751" lon="6.70751">
        <ele>307</ele>
        <time>2016-07-24T09:40:16.000Z</time>
      </trkpt>
      <trkpt lat="47.46753" lon="6.70754">
        <ele>307</ele>
        <time>2016-07-24T09:40:17.000Z</time>
      </trkpt>
      <trkpt lat="47.46754" lon="6.70757">
        <ele>307</ele>
        <time>2016-07-24T09:40:18.000Z</time>
      </trkpt>
      <trkpt lat="47.46756" lon="6.7076">
        <ele>307</ele>
        <time>2016-07-24T09:40:19.000Z</time>
      </trkpt>
      <trkpt lat="47.46758" lon="6.70763">
        <ele>307</ele>
        <time>2016-07-24T09:40:20.000Z</time>
      </trkpt>
      <trkpt lat="47.4676" lon="6.70767">
        <ele>307</ele>
        <time>2016-07-24T09:40:21.000Z</time>
      </trkpt>
      <trkpt lat="47.46762" lon="6.70771">
        <ele>307</ele>
        <time>2016-07-24T09:40:22.000Z</time>
      </trkpt>
      <trkpt lat="47.46764" lon="6.70775">
        <ele>307</ele>
        <time>2016-07-24T09:40:23.000Z</time>
      </trkpt>
      <trkpt lat="47.46767" lon="6.70779">
        <ele>306</ele>
        <time>2016-07-24T09:40:24.000Z</time>
      </trkpt>
      <trkpt lat="47.4677" lon="6.70783">
        <ele>306</ele>
        <time>2016-07-24T09:40:25.000Z</time>
      </trkpt>
      <trkpt lat="47.46772" lon="6.70788">
        <ele>306</ele>
        <time>2016-07-24T09:40:26.000Z</time>
      </trkpt>
      <trkpt lat="47.46775" lon="6.70792">
        <ele>306</ele>
        <time>2016-07-24T09:40:27.000Z</time>
      </trkpt>
      <trkpt lat="47.46778" lon="6.70795">
        <ele>306</ele>
        <time>2016-07-24T09:40:28.000Z</time>
      </trkpt>
      <trkpt lat="47.4678" lon="6.70799">
        <ele>306</ele>
        <time>2016-07-24T09:40:29.000Z</time>
      </trkpt>
      <trkpt lat="47.46782" lon="6.70802">
        <ele>306</ele>
        <time>2016-07-24T09:40:30.000Z</time>
      </trkpt>
      <trkpt lat="47.46784" lon="6.70806">
        <ele>306</ele>
        <time>2016-07-24T09:40:31.000Z</time>
      </trkpt>
      <trkpt lat="47.46785" lon="6.70809">
        <ele>306</ele>
        <time>2016-07-24T09:40:32.000Z</time>
      </trkpt>
      <trkpt lat="47.46787" lon="6.70813">
        <ele>306</ele>
        <time>2016-07-24T09:40:33.000Z</time>
      </trkpt>
      <trkpt lat="47.46788" lon="6.70818">
        <ele>306</ele>
        <time>2016-07-24T09:40:34.000Z</time>
      </trkpt>
      <trkpt lat="47.4679" lon="6.70822">
        <ele>306</ele>
        <time>2016-07-24T09:40:35.000Z</time>
      </trkpt>
      <trkpt lat="47.46792" lon="6.70827">
        <ele>306</ele>
        <time>2016-07-24T09:40:36.000Z</time>
      </trkpt>
      <trkpt lat="47.46794" lon="6.70832">
        <ele>306</ele>
        <time>2016-07-24T09:40:37.000Z</time>
      </trkpt>
      <trkpt lat="47.46797" lon="6.70837">
        <ele>307</ele>
        <time>2016-07-24T09:40:38.000Z</time>
      </trkpt>
      <trkpt lat="47.468" lon="6.70842">
        <ele>307</ele>
        <time>2016-07-24T09:40:39.000Z</time>
      </trkpt>
      <trkpt lat="47.46803" lon="6.70847">
        <ele>307</ele>
        <time>2016-07-24T09:40:40.000Z</time>
      </trkpt>
      <trkpt lat="47.46806" lon="6.70851">
        <ele>307</ele>
        <time>2016-07-24T09:40:41.000Z</time>
      </trkpt>
      <trkpt lat="47.46809" lon="6.70856">
        <ele>307</ele>
        <time>2016-07-24T09:40:42.000Z</time>
      </trkpt>
      <trkpt lat="47.46812" lon="6.70861">
        <ele>307</ele>
        <time>2016-07-24T09:40:43.000Z</time>
      </trkpt>
      <trkpt lat="47.46815" lon="6.70865">
        <ele>307</ele>
        <time>2016-07-24T09:40:44.000Z</time>
      </trkpt>
      <trkpt lat="47.46818" lon="6.7087">
        <ele>307</ele>
        <time>2016-07-24T09:40:45.000Z</time>
      </trkpt>
      <trkpt lat="47.4682" lon="6.70874">
        <ele>307</ele>
        <time>2016-07-24T09:40:46.000Z</time>
      </trkpt>
      <trkpt lat="47.46822" lon="6.70878">
        <ele>307</ele>
        <time>2016-07-24T09:40:47.000Z</time>
      </trkpt>
      <trkpt lat="47.46824" lon="6.70881">
        <ele>307</ele>
        <time>2016-07-24T09:40:48.000Z</time>
      </trkpt>
      <trkpt lat="47.46826" lon="6.70885">
        <ele>307</ele>
        <time>2016-07-24T09:40:49.000Z</time>
      </trkpt>
      <trkpt lat="47.46829" lon="6.70889">
        <ele>307</ele>
        <time>2016-07-24T09:40:50.000Z</time>
      </trkpt>
      <trkpt lat="47.46832" lon="6.70893">
        <ele>307</ele>
        <time>2016-07-24T09:40:51.000Z</time>
      </trkpt>
      <trkpt lat="47.46835" lon="6.70897">
        <ele>305</ele>
        <time>2016-07-24T09:40:52.000Z</time>
      </trkpt>
      <trkpt lat="47.46837" lon="6.70902">
        <ele>305</ele>
        <time>2016-07-24T09:40:53.000Z</time>
      </trkpt>
      <trkpt lat="47.4684" lon="6.70907">
        <ele>306</ele>
        <time>2016-07-24T09:40:54.000Z</time>
      </trkpt>
      <trkpt lat="47.46842" lon="6.70912">
        <ele>306</ele>
        <time>2016-07-24T09:40:55.000Z</time>
      </trkpt>
      <trkpt lat="47.46844" lon="6.70917">
        <ele>306</ele>
        <time>2016-07-24T09:40:56.000Z</time>
      </trkpt>
      <trkpt lat="47.46846" lon="6.70922">
        <ele>306</ele>
        <time>2016-07-24T09:40:57.000Z</time>
      </trkpt>
      <trkpt lat="47.46848" lon="6.70927">
        <ele>306</ele>
        <time>2016-07-24T09:40:58.000Z</time>
      </trkpt>
      <trkpt lat="47.4685" lon="6.70931">
        <ele>306</ele>
        <time>2016-07-24T09:40:59.000Z</time>
      </trkpt>
      <trkpt lat="47.46851" lon="6.70936">
        <ele>306</ele>
        <time>2016-07-24T09:41:00.000Z</time>
      </trkpt>
      <trkpt lat="47.46854" lon="6.7094">
        <ele>306</ele>
        <time>2016-07-24T09:41:01.000Z</time>
      </trkpt>
      <trkpt lat="47.46857" lon="6.70945">
        <ele>306</ele>
        <time>2016-07-24T09:41:02.000Z</time>
      </trkpt>
      <trkpt lat="47.46859" lon="6.70949">
        <ele>306</ele>
        <time>2016-07-24T09:41:03.000Z</time>
      </trkpt>
      <trkpt lat="47.46862" lon="6.70954">
        <ele>306</ele>
        <time>2016-07-24T09:41:04.000Z</time>
      </trkpt>
      <trkpt lat="47.46864" lon="6.70959">
        <ele>306</ele>
        <time>2016-07-24T09:41:05.000Z</time>
      </trkpt>
      <trkpt lat="47.46866" lon="6.70964">
        <ele>306</ele>
        <time>2016-07-24T09:41:06.000Z</time>
      </trkpt>
      <trkpt lat="47.46868" lon="6.70969">
        <ele>306</ele>
        <time>2016-07-24T09:41:07.000Z</time>
      </trkpt>
      <trkpt lat="47.46869" lon="6.70973">
        <ele>306</ele>
        <time>2016-07-24T09:41:08.000Z</time>
      </trkpt>
      <trkpt lat="47.4687" lon="6.70978">
        <ele>306</ele>
        <time>2016-07-24T09:41:09.000Z</time>
      </trkpt>
      <trkpt lat="47.46871" lon="6.70982">
        <ele>306</ele>
        <time>2016-07-24T09:41:10.000Z</time>
      </trkpt>
      <trkpt lat="47.46872" lon="6.70987">
        <ele>306</ele>
        <time>2016-07-24T09:41:11.000Z</time>
      </trkpt>
      <trkpt lat="47.46873" lon="6.70991">
        <ele>306</ele>
        <time>2016-07-24T09:41:12.000Z</time>
      </trkpt>
      <trkpt lat="47.46875" lon="6.70995">
        <ele>306</ele>
        <time>2016-07-24T09:41:13.000Z</time>
      </trkpt>
      <trkpt lat="47.46876" lon="6.71">
        <ele>306</ele>
        <time>2016-07-24T09:41:14.000Z</time>
      </trkpt>
      <trkpt lat="47.46878" lon="6.71005">
        <ele>307</ele>
        <time>2016-07-24T09:41:15.000Z</time>
      </trkpt>
      <trkpt lat="47.4688" lon="6.7101">
        <ele>307</ele>
        <time>2016-07-24T09:41:16.000Z</time>
      </trkpt>
      <trkpt lat="47.46881" lon="6.71016">
        <ele>307</ele>
        <time>2016-07-24T09:41:17.000Z</time>
      </trkpt>
      <trkpt lat="47.46883" lon="6.71021">
        <ele>307</ele>
        <time>2016-07-24T09:41:18.000Z</time>
      </trkpt>
      <trkpt lat="47.46884" lon="6.71027">
        <ele>307</ele>
        <time>2016-07-24T09:41:19.000Z</time>
      </trkpt>
      <trkpt lat="47.46886" lon="6.71031">
        <ele>307</ele>
        <time>2016-07-24T09:41:20.000Z</time>
      </trkpt>
      <trkpt lat="47.46888" lon="6.71035">
        <ele>307</ele>
        <time>2016-07-24T09:41:21.000Z</time>
      </trkpt>
      <trkpt lat="47.4689" lon="6.71039">
        <ele>307</ele>
        <time>2016-07-24T09:41:22.000Z</time>
      </trkpt>
      <trkpt lat="47.46893" lon="6.71043">
        <ele>307</ele>
        <time>2016-07-24T09:41:23.000Z</time>
      </trkpt>
      <trkpt lat="47.46895" lon="6.71047">
        <ele>307</ele>
        <time>2016-07-24T09:41:24.000Z</time>
      </trkpt>
      <trkpt lat="47.46897" lon="6.71051">
        <ele>307</ele>
        <time>2016-07-24T09:41:25.000Z</time>
      </trkpt>
      <trkpt lat="47.46899" lon="6.71055">
        <ele>307</ele>
        <time>2016-07-24T09:41:26.000Z</time>
      </trkpt>
      <trkpt lat="47.46901" lon="6.71059">
        <ele>307</ele>
        <time>2016-07-24T09:41:27.000Z</time>
      </trkpt>
      <trkpt lat="47.46902" lon="6.71062">
        <ele>307</ele>
        <time>2016-07-24T09:41:28.000Z</time>
      </trkpt>
      <trkpt lat="47.46904" lon="6.71065">
        <ele>307</ele>
        <time>2016-07-24T09:41:29.000Z</time>
      </trkpt>
      <trkpt lat="47.46906" lon="6.71069">
        <ele>306</ele>
        <time>2016-07-24T09:41:30.000Z</time>
      </trkpt>
      <trkpt lat="47.46907" lon="6.71073">
        <ele>306</ele>
        <time>2016-07-24T09:41:31.000Z</time>
      </trkpt>
      <trkpt lat="47.46908" lon="6.71077">
        <ele>306</ele>
        <time>2016-07-24T09:41:32.000Z</time>
      </trkpt>
      <trkpt lat="47.4691" lon="6.71081">
        <ele>306</ele>
        <time>2016-07-24T09:41:33.000Z</time>
      </trkpt>
      <trkpt lat="47.46911" lon="6.71085">
        <ele>307</ele>
        <time>2016-07-24T09:41:34.000Z</time>
      </trkpt>
      <trkpt lat="47.46912" lon="6.71089">
        <ele>307</ele>
        <time>2016-07-24T09:41:35.000Z</time>
      </trkpt>
      <trkpt lat="47.46914" lon="6.71093">
        <ele>308</ele>
        <time>2016-07-24T09:41:36.000Z</time>
      </trkpt>
      <trkpt lat="47.46915" lon="6.71098">
        <ele>308</ele>
        <time>2016-07-24T09:41:37.000Z</time>
      </trkpt>
      <trkpt lat="47.46917" lon="6.71102">
        <ele>306</ele>
        <time>2016-07-24T09:41:38.000Z</time>
      </trkpt>
      <trkpt lat="47.46919" lon="6.71107">
        <ele>306</ele>
        <time>2016-07-24T09:41:39.000Z</time>
      </trkpt>
      <trkpt lat="47.46921" lon="6.71112">
        <ele>306</ele>
        <time>2016-07-24T09:41:40.000Z</time>
      </trkpt>
      <trkpt lat="47.46923" lon="6.71117">
        <ele>306</ele>
        <time>2016-07-24T09:41:41.000Z</time>
      </trkpt>
      <trkpt lat="47.46926" lon="6.71122">
        <ele>307</ele>
        <time>2016-07-24T09:41:42.000Z</time>
      </trkpt>
      <trkpt lat="47.46928" lon="6.71127">
        <ele>307</ele>
        <time>2016-07-24T09:41:43.000Z</time>
      </trkpt>
      <trkpt lat="47.46931" lon="6.71131">
        <ele>307</ele>
        <time>2016-07-24T09:41:44.000Z</time>
      </trkpt>
      <trkpt lat="47.46935" lon="6.71135">
        <ele>307</ele>
        <time>2016-07-24T09:41:45.000Z</time>
      </trkpt>
      <trkpt lat="47.46938" lon="6.7114">
        <ele>307</ele>
        <time>2016-07-24T09:41:46.000Z</time>
      </trkpt>
      <trkpt lat="47.46941" lon="6.71144">
        <ele>307</ele>
        <time>2016-07-24T09:41:47.000Z</time>
      </trkpt>
      <trkpt lat="47.46943" lon="6.71149">
        <ele>307</ele>
        <time>2016-07-24T09:41:48.000Z</time>
      </trkpt>
      <trkpt lat="47.46946" lon="6.71153">
        <ele>307</ele>
        <time>2016-07-24T09:41:49.000Z</time>
      </trkpt>
      <trkpt lat="47.46948" lon="6.71159">
        <ele>307</ele>
        <time>2016-07-24T09:41:50.000Z</time>
      </trkpt>
      <trkpt lat="47.4695" lon="6.71164">
        <ele>307</ele>
        <time>2016-07-24T09:41:51.000Z</time>
      </trkpt>
      <trkpt lat="47.46951" lon="6.71169">
        <ele>309</ele>
        <time>2016-07-24T09:41:52.000Z</time>
      </trkpt>
      <trkpt lat="47.46953" lon="6.71173">
        <ele>309</ele>
        <time>2016-07-24T09:41:53.000Z</time>
      </trkpt>
      <trkpt lat="47.46955" lon="6.71178">
        <ele>309</ele>
        <time>2016-07-24T09:41:54.000Z</time>
      </trkpt>
      <trkpt lat="47.46957" lon="6.71182">
        <ele>309</ele>
        <time>2016-07-24T09:41:55.000Z</time>
      </trkpt>
      <trkpt lat="47.46959" lon="6.71187">
        <ele>309</ele>
        <time>2016-07-24T09:41:56.000Z</time>
      </trkpt>
      <trkpt lat="47.46961" lon="6.71192">
        <ele>309</ele>
        <time>2016-07-24T09:41:57.000Z</time>
      </trkpt>
      <trkpt lat="47.46963" lon="6.71196">
        <ele>309</ele>
        <time>2016-07-24T09:41:58.000Z</time>
      </trkpt>
      <trkpt lat="47.46965" lon="6.71201">
        <ele>309</ele>
        <time>2016-07-24T09:41:59.000Z</time>
      </trkpt>
      <trkpt lat="47.46967" lon="6.71207">
        <ele>309</ele>
        <time>2016-07-24T09:42:00.000Z</time>
      </trkpt>
      <trkpt lat="47.46969" lon="6.71212">
        <ele>309</ele>
        <time>2016-07-24T09:42:01.000Z</time>
      </trkpt>
      <trkpt lat="47.46971" lon="6.71216">
        <ele>309</ele>
        <time>2016-07-24T09:42:02.000Z</time>
      </trkpt>
      <trkpt lat="47.46973" lon="6.71222">
        <ele>309</ele>
        <time>2016-07-24T09:42:03.000Z</time>
      </trkpt>
      <trkpt lat="47.46975" lon="6.71228">
        <ele>309</ele>
        <time>2016-07-24T09:42:04.000Z</time>
      </trkpt>
      <trkpt lat="47.46977" lon="6.71234">
        <ele>309</ele>
        <time>2016-07-24T09:42:05.000Z</time>
      </trkpt>
      <trkpt lat="47.46979" lon="6.7124">
        <ele>309</ele>
        <time>2016-07-24T09:42:06.000Z</time>
      </trkpt>
      <trkpt lat="47.46981" lon="6.71245">
        <ele>309</ele>
        <time>2016-07-24T09:42:07.000Z</time>
      </trkpt>
      <trkpt lat="47.46983" lon="6.7125">
        <ele>311</ele>
        <time>2016-07-24T09:42:08.000Z</time>
      </trkpt>
      <trkpt lat="47.46985" lon="6.71255">
        <ele>311</ele>
        <time>2016-07-24T09:42:09.000Z</time>
      </trkpt>
      <trkpt lat="47.46987" lon="6.7126">
        <ele>311</ele>
        <time>2016-07-24T09:42:10.000Z</time>
      </trkpt>
      <trkpt lat="47.46989" lon="6.71266">
        <ele>311</ele>
        <time>2016-07-24T09:42:11.000Z</time>
      </trkpt>
      <trkpt lat="47.46991" lon="6.71271">
        <ele>311</ele>
        <time>2016-07-24T09:42:12.000Z</time>
      </trkpt>
      <trkpt lat="47.46993" lon="6.71277">
        <ele>312</ele>
        <time>2016-07-24T09:42:13.000Z</time>
      </trkpt>
      <trkpt lat="47.46996" lon="6.71283">
        <ele>312</ele>
        <time>2016-07-24T09:42:14.000Z</time>
      </trkpt>
      <trkpt lat="47.46998" lon="6.71289">
        <ele>312</ele>
        <time>2016-07-24T09:42:15.000Z</time>
      </trkpt>
      <trkpt lat="47.47001" lon="6.71296">
        <ele>309</ele>
        <time>2016-07-24T09:42:16.000Z</time>
      </trkpt>
      <trkpt lat="47.47004" lon="6.71302">
        <ele>309</ele>
        <time>2016-07-24T09:42:17.000Z</time>
      </trkpt>
      <trkpt lat="47.47007" lon="6.71307">
        <ele>309</ele>
        <time>2016-07-24T09:42:18.000Z</time>
      </trkpt>
      <trkpt lat="47.47009" lon="6.71312">
        <ele>309</ele>
        <time>2016-07-24T09:42:19.000Z</time>
      </trkpt>
      <trkpt lat="47.47011" lon="6.71317">
        <ele>310</ele>
        <time>2016-07-24T09:42:20.000Z</time>
      </trkpt>
      <trkpt lat="47.47013" lon="6.71322">
        <ele>310</ele>
        <time>2016-07-24T09:42:21.000Z</time>
      </trkpt>
      <trkpt lat="47.47015" lon="6.71327">
        <ele>310</ele>
        <time>2016-07-24T09:42:22.000Z</time>
      </trkpt>
      <trkpt lat="47.47017" lon="6.71332">
        <ele>310</ele>
        <time>2016-07-24T09:42:23.000Z</time>
      </trkpt>
      <trkpt lat="47.4702" lon="6.71337">
        <ele>311</ele>
        <time>2016-07-24T09:42:24.000Z</time>
      </trkpt>
      <trkpt lat="47.47023" lon="6.71342">
        <ele>311</ele>
        <time>2016-07-24T09:42:25.000Z</time>
      </trkpt>
      <trkpt lat="47.47026" lon="6.71348">
        <ele>311</ele>
        <time>2016-07-24T09:42:26.000Z</time>
      </trkpt>
      <trkpt lat="47.47028" lon="6.71354">
        <ele>312</ele>
        <time>2016-07-24T09:42:27.000Z</time>
      </trkpt>
      <trkpt lat="47.47031" lon="6.71359">
        <ele>312</ele>
        <time>2016-07-24T09:42:28.000Z</time>
      </trkpt>
      <trkpt lat="47.47033" lon="6.71363">
        <ele>312</ele>
        <time>2016-07-24T09:42:29.000Z</time>
      </trkpt>
      <trkpt lat="47.47035" lon="6.71368">
        <ele>312</ele>
        <time>2016-07-24T09:42:30.000Z</time>
      </trkpt>
      <trkpt lat="47.47038" lon="6.71371">
        <ele>312</ele>
        <time>2016-07-24T09:42:31.000Z</time>
      </trkpt>
      <trkpt lat="47.4704" lon="6.71376">
        <ele>312</ele>
        <time>2016-07-24T09:42:32.000Z</time>
      </trkpt>
      <trkpt lat="47.47042" lon="6.7138">
        <ele>312</ele>
        <time>2016-07-24T09:42:33.000Z</time>
      </trkpt>
      <trkpt lat="47.47043" lon="6.71385">
        <ele>312</ele>
        <time>2016-07-24T09:42:34.000Z</time>
      </trkpt>
      <trkpt lat="47.47045" lon="6.71389">
        <ele>312</ele>
        <time>2016-07-24T09:42:35.000Z</time>
      </trkpt>
      <trkpt lat="47.47047" lon="6.71393">
        <ele>312</ele>
        <time>2016-07-24T09:42:36.000Z</time>
      </trkpt>
      <trkpt lat="47.4705" lon="6.71396">
        <ele>311</ele>
        <time>2016-07-24T09:42:37.000Z</time>
      </trkpt>
      <trkpt lat="47.47053" lon="6.714">
        <ele>311</ele>
        <time>2016-07-24T09:42:38.000Z</time>
      </trkpt>
      <trkpt lat="47.47057" lon="6.71403">
        <ele>311</ele>
        <time>2016-07-24T09:42:39.000Z</time>
      </trkpt>
      <trkpt lat="47.47061" lon="6.71406">
        <ele>310</ele>
        <time>2016-07-24T09:42:40.000Z</time>
      </trkpt>
      <trkpt lat="47.47063" lon="6.7141">
        <ele>310</ele>
        <time>2016-07-24T09:42:41.000Z</time>
      </trkpt>
      <trkpt lat="47.47064" lon="6.71413">
        <ele>310</ele>
        <time>2016-07-24T09:42:42.000Z</time>
      </trkpt>
      <trkpt lat="47.47065" lon="6.71415">
        <ele>310</ele>
        <time>2016-07-24T09:42:43.000Z</time>
      </trkpt>
      <trkpt lat="47.47066" lon="6.7142">
        <ele>312</ele>
        <time>2016-07-24T09:42:45.000Z</time>
      </trkpt>
      <trkpt lat="47.47067" lon="6.71422">
        <ele>312</ele>
        <time>2016-07-24T09:42:46.000Z</time>
      </trkpt>
      <trkpt lat="47.47068" lon="6.71427">
        <ele>312</ele>
        <time>2016-07-24T09:42:49.000Z</time>
      </trkpt>
      <trkpt lat="47.47069" lon="6.71428">
        <ele>312</ele>
        <time>2016-07-24T09:42:50.000Z</time>
      </trkpt>
      <trkpt lat="47.47073" lon="6.71428">
        <ele>311</ele>
        <time>2016-07-24T09:42:54.000Z</time>
      </trkpt>
      <trkpt lat="47.47073" lon="6.71429">
        <ele>311</ele>
        <time>2016-07-24T09:42:55.000Z</time>
      </trkpt>
      <trkpt lat="47.47077" lon="6.71429">
        <ele>311</ele>
        <time>2016-07-24T09:42:58.000Z</time>
      </trkpt>
      <trkpt lat="47.47078" lon="6.71428">
        <ele>311</ele>
        <time>2016-07-24T09:42:59.000Z</time>
      </trkpt>
      <trkpt lat="47.47082" lon="6.71426">
        <ele>310</ele>
        <time>2016-07-24T09:43:11.000Z</time>
      </trkpt>
      <trkpt lat="47.47082" lon="6.71426">
        <ele>310</ele>
        <time>2016-07-24T09:43:12.000Z</time>
      </trkpt>
      <trkpt lat="47.47078" lon="6.71429">
        <ele>311</ele>
        <time>2016-07-24T09:43:25.000Z</time>
      </trkpt>
      <trkpt lat="47.47078" lon="6.71429">
        <ele>311</ele>
        <time>2016-07-24T09:43:26.000Z</time>
      </trkpt>
      <trkpt lat="47.47076" lon="6.71424">
        <ele>310</ele>
        <time>2016-07-24T09:43:57.000Z</time>
      </trkpt>
      <trkpt lat="47.47075" lon="6.71423">
        <ele>310</ele>
        <time>2016-07-24T09:43:58.000Z</time>
      </trkpt>
      <trkpt lat="47.47073" lon="6.7142">
        <ele>310</ele>
        <time>2016-07-24T09:46:18.000Z</time>
      </trkpt>
      <trkpt lat="47.47071" lon="6.7142">
        <ele>311</ele>
        <time>2016-07-24T09:46:19.000Z</time>
      </trkpt>
      <trkpt lat="47.47069" lon="6.71419">
        <ele>311</ele>
        <time>2016-07-24T09:46:20.000Z</time>
      </trkpt>
      <trkpt lat="47.47066" lon="6.7142">
        <ele>312</ele>
        <time>2016-07-24T09:46:21.000Z</time>
      </trkpt>
      <trkpt lat="47.47064" lon="6.71423">
        <ele>312</ele>
        <time>2016-07-24T09:46:22.000Z</time>
      </trkpt>
      <trkpt lat="47.47062" lon="6.71427">
        <ele>313</ele>
        <time>2016-07-24T09:46:23.000Z</time>
      </trkpt>
      <trkpt lat="47.47061" lon="6.71432">
        <ele>313</ele>
        <time>2016-07-24T09:46:24.000Z</time>
      </trkpt>
      <trkpt lat="47.4706" lon="6.71438">
        <ele>314</ele>
        <time>2016-07-24T09:46:25.000Z</time>
      </trkpt>
      <trkpt lat="47.4706" lon="6.71444">
        <ele>314</ele>
        <time>2016-07-24T09:46:26.000Z</time>
      </trkpt>
      <trkpt lat="47.47061" lon="6.71449">
        <ele>314</ele>
        <time>2016-07-24T09:46:27.000Z</time>
      </trkpt>
      <trkpt lat="47.47062" lon="6.71459">
        <ele>315</ele>
        <time>2016-07-24T09:46:28.000Z</time>
      </trkpt>
      <trkpt lat="47.47061" lon="6.71466">
        <ele>315</ele>
        <time>2016-07-24T09:46:29.000Z</time>
      </trkpt>
      <trkpt lat="47.4706" lon="6.71473">
        <ele>315</ele>
        <time>2016-07-24T09:46:30.000Z</time>
      </trkpt>
      <trkpt lat="47.47063" lon="6.71478">
        <ele>314</ele>
        <time>2016-07-24T09:46:31.000Z</time>
      </trkpt>
      <trkpt lat="47.47064" lon="6.71483">
        <ele>314</ele>
        <time>2016-07-24T09:46:32.000Z</time>
      </trkpt>
      <trkpt lat="47.47066" lon="6.71488">
        <ele>313</ele>
        <time>2016-07-24T09:46:33.000Z</time>
      </trkpt>
      <trkpt lat="47.47068" lon="6.71494">
        <ele>313</ele>
        <time>2016-07-24T09:46:34.000Z</time>
      </trkpt>
      <trkpt lat="47.47069" lon="6.71501">
        <ele>315</ele>
        <time>2016-07-24T09:46:35.000Z</time>
      </trkpt>
      <trkpt lat="47.47074" lon="6.71508">
        <ele>314</ele>
        <time>2016-07-24T09:46:36.000Z</time>
      </trkpt>
      <trkpt lat="47.47075" lon="6.71516">
        <ele>315</ele>
        <time>2016-07-24T09:46:37.000Z</time>
      </trkpt>
      <trkpt lat="47.47077" lon="6.71522">
        <ele>317</ele>
        <time>2016-07-24T09:46:38.000Z</time>
      </trkpt>
      <trkpt lat="47.47079" lon="6.71529">
        <ele>317</ele>
        <time>2016-07-24T09:46:39.000Z</time>
      </trkpt>
      <trkpt lat="47.47081" lon="6.71535">
        <ele>318</ele>
        <time>2016-07-24T09:46:40.000Z</time>
      </trkpt>
      <trkpt lat="47.47083" lon="6.71542">
        <ele>318</ele>
        <time>2016-07-24T09:46:41.000Z</time>
      </trkpt>
      <trkpt lat="47.47086" lon="6.7155">
        <ele>309</ele>
        <time>2016-07-24T09:46:42.000Z</time>
      </trkpt>
      <trkpt lat="47.47087" lon="6.71558">
        <ele>309</ele>
        <time>2016-07-24T09:46:43.000Z</time>
      </trkpt>
      <trkpt lat="47.47087" lon="6.71566">
        <ele>309</ele>
        <time>2016-07-24T09:46:44.000Z</time>
      </trkpt>
      <trkpt lat="47.47088" lon="6.71574">
        <ele>310</ele>
        <time>2016-07-24T09:46:45.000Z</time>
      </trkpt>
      <trkpt lat="47.47089" lon="6.71582">
        <ele>310</ele>
        <time>2016-07-24T09:46:46.000Z</time>
      </trkpt>
      <trkpt lat="47.47092" lon="6.71589">
        <ele>311</ele>
        <time>2016-07-24T09:46:47.000Z</time>
      </trkpt>
      <trkpt lat="47.47095" lon="6.7159">
        <ele>311</ele>
        <time>2016-07-24T09:46:48.000Z</time>
      </trkpt>
      <trkpt lat="47.47096" lon="6.71599">
        <ele>311</ele>
        <time>2016-07-24T09:46:49.000Z</time>
      </trkpt>
      <trkpt lat="47.47099" lon="6.71605">
        <ele>312</ele>
        <time>2016-07-24T09:46:50.000Z</time>
      </trkpt>
      <trkpt lat="47.47101" lon="6.71613">
        <ele>312</ele>
        <time>2016-07-24T09:46:51.000Z</time>
      </trkpt>
      <trkpt lat="47.47104" lon="6.71619">
        <ele>313</ele>
        <time>2016-07-24T09:46:52.000Z</time>
      </trkpt>
      <trkpt lat="47.47105" lon="6.71627">
        <ele>313</ele>
        <time>2016-07-24T09:46:53.000Z</time>
      </trkpt>
      <trkpt lat="47.47108" lon="6.71631">
        <ele>313</ele>
        <time>2016-07-24T09:46:54.000Z</time>
      </trkpt>
      <trkpt lat="47.47109" lon="6.71638">
        <ele>314</ele>
        <time>2016-07-24T09:46:55.000Z</time>
      </trkpt>
      <trkpt lat="47.47111" lon="6.71647">
        <ele>315</ele>
        <time>2016-07-24T09:46:56.000Z</time>
      </trkpt>
      <trkpt lat="47.47113" lon="6.71653">
        <ele>315</ele>
        <time>2016-07-24T09:46:57.000Z</time>
      </trkpt>
      <trkpt lat="47.47115" lon="6.71661">
        <ele>315</ele>
        <time>2016-07-24T09:46:58.000Z</time>
      </trkpt>
      <trkpt lat="47.47117" lon="6.71668">
        <ele>320</ele>
        <time>2016-07-24T09:46:59.000Z</time>
      </trkpt>
      <trkpt lat="47.47118" lon="6.71675">
        <ele>320</ele>
        <time>2016-07-24T09:47:00.000Z</time>
      </trkpt>
      <trkpt lat="47.47119" lon="6.71683">
        <ele>320</ele>
        <time>2016-07-24T09:47:01.000Z</time>
      </trkpt>
      <trkpt lat="47.4712" lon="6.7169">
        <ele>320</ele>
        <time>2016-07-24T09:47:02.000Z</time>
      </trkpt>
      <trkpt lat="47.47122" lon="6.71698">
        <ele>320</ele>
        <time>2016-07-24T09:47:03.000Z</time>
      </trkpt>
      <trkpt lat="47.47124" lon="6.71705">
        <ele>320</ele>
        <time>2016-07-24T09:47:04.000Z</time>
      </trkpt>
      <trkpt lat="47.47126" lon="6.71713">
        <ele>321</ele>
        <time>2016-07-24T09:47:05.000Z</time>
      </trkpt>
      <trkpt lat="47.47127" lon="6.71721">
        <ele>321</ele>
        <time>2016-07-24T09:47:06.000Z</time>
      </trkpt>
      <trkpt lat="47.47129" lon="6.71728">
        <ele>321</ele>
        <time>2016-07-24T09:47:07.000Z</time>
      </trkpt>
      <trkpt lat="47.47131" lon="6.71736">
        <ele>320</ele>
        <time>2016-07-24T09:47:08.000Z</time>
      </trkpt>
      <trkpt lat="47.47132" lon="6.71744">
        <ele>320</ele>
        <time>2016-07-24T09:47:09.000Z</time>
      </trkpt>
      <trkpt lat="47.47136" lon="6.71751">
        <ele>324</ele>
        <time>2016-07-24T09:47:10.000Z</time>
      </trkpt>
      <trkpt lat="47.47138" lon="6.71758">
        <ele>324</ele>
        <time>2016-07-24T09:47:11.000Z</time>
      </trkpt>
      <trkpt lat="47.47141" lon="6.71766">
        <ele>324</ele>
        <time>2016-07-24T09:47:12.000Z</time>
      </trkpt>
      <trkpt lat="47.47143" lon="6.71773">
        <ele>324</ele>
        <time>2016-07-24T09:47:13.000Z</time>
      </trkpt>
      <trkpt lat="47.47146" lon="6.71781">
        <ele>324</ele>
        <time>2016-07-24T09:47:14.000Z</time>
      </trkpt>
      <trkpt lat="47.47146" lon="6.7179">
        <ele>325</ele>
        <time>2016-07-24T09:47:15.000Z</time>
      </trkpt>
      <trkpt lat="47.47147" lon="6.71797">
        <ele>325</ele>
        <time>2016-07-24T09:47:16.000Z</time>
      </trkpt>
      <trkpt lat="47.4715" lon="6.71804">
        <ele>324</ele>
        <time>2016-07-24T09:47:17.000Z</time>
      </trkpt>
      <trkpt lat="47.47153" lon="6.71811">
        <ele>323</ele>
        <time>2016-07-24T09:47:18.000Z</time>
      </trkpt>
      <trkpt lat="47.47155" lon="6.7182">
        <ele>322</ele>
        <time>2016-07-24T09:47:19.000Z</time>
      </trkpt>
      <trkpt lat="47.47158" lon="6.71827">
        <ele>320</ele>
        <time>2016-07-24T09:47:20.000Z</time>
      </trkpt>
      <trkpt lat="47.47162" lon="6.71834">
        <ele>318</ele>
        <time>2016-07-24T09:47:21.000Z</time>
      </trkpt>
      <trkpt lat="47.47165" lon="6.71841">
        <ele>320</ele>
        <time>2016-07-24T09:47:22.000Z</time>
      </trkpt>
      <trkpt lat="47.47168" lon="6.71847">
        <ele>314</ele>
        <time>2016-07-24T09:47:23.000Z</time>
      </trkpt>
      <trkpt lat="47.47171" lon="6.71854">
        <ele>314</ele>
        <time>2016-07-24T09:47:24.000Z</time>
      </trkpt>
      <trkpt lat="47.47172" lon="6.71861">
        <ele>314</ele>
        <time>2016-07-24T09:47:25.000Z</time>
      </trkpt>
      <trkpt lat="47.47175" lon="6.7187">
        <ele>315</ele>
        <time>2016-07-24T09:47:26.000Z</time>
      </trkpt>
      <trkpt lat="47.47177" lon="6.71879">
        <ele>315</ele>
        <time>2016-07-24T09:47:27.000Z</time>
      </trkpt>
      <trkpt lat="47.47181" lon="6.71887">
        <ele>316</ele>
        <time>2016-07-24T09:47:28.000Z</time>
      </trkpt>
      <trkpt lat="47.47182" lon="6.71895">
        <ele>317</ele>
        <time>2016-07-24T09:47:29.000Z</time>
      </trkpt>
      <trkpt lat="47.47186" lon="6.71902">
        <ele>317</ele>
        <time>2016-07-24T09:47:30.000Z</time>
      </trkpt>
      <trkpt lat="47.47188" lon="6.71911">
        <ele>318</ele>
        <time>2016-07-24T09:47:31.000Z</time>
      </trkpt>
      <trkpt lat="47.47193" lon="6.71918">
        <ele>321</ele>
        <time>2016-07-24T09:47:32.000Z</time>
      </trkpt>
      <trkpt lat="47.47196" lon="6.71926">
        <ele>321</ele>
        <time>2016-07-24T09:47:33.000Z</time>
      </trkpt>
      <trkpt lat="47.472" lon="6.71934">
        <ele>320</ele>
        <time>2016-07-24T09:47:34.000Z</time>
      </trkpt>
      <trkpt lat="47.47203" lon="6.71941">
        <ele>320</ele>
        <time>2016-07-24T09:47:35.000Z</time>
      </trkpt>
      <trkpt lat="47.47205" lon="6.71949">
        <ele>320</ele>
        <time>2016-07-24T09:47:36.000Z</time>
      </trkpt>
      <trkpt lat="47.47207" lon="6.71957">
        <ele>320</ele>
        <time>2016-07-24T09:47:37.000Z</time>
      </trkpt>
      <trkpt lat="47.47211" lon="6.71964">
        <ele>320</ele>
        <time>2016-07-24T09:47:38.000Z</time>
      </trkpt>
      <trkpt lat="47.47214" lon="6.71973">
        <ele>320</ele>
        <time>2016-07-24T09:47:39.000Z</time>
      </trkpt>
      <trkpt lat="47.47214" lon="6.71984">
        <ele>320</ele>
        <time>2016-07-24T09:47:40.000Z</time>
      </trkpt>
      <trkpt lat="47.47216" lon="6.7199">
        <ele>320</ele>
        <time>2016-07-24T09:47:41.000Z</time>
      </trkpt>
      <trkpt lat="47.4722" lon="6.71996">
        <ele>319</ele>
        <time>2016-07-24T09:47:42.000Z</time>
      </trkpt>
      <trkpt lat="47.47224" lon="6.72004">
        <ele>321</ele>
        <time>2016-07-24T09:47:43.000Z</time>
      </trkpt>
      <trkpt lat="47.47228" lon="6.72009">
        <ele>320</ele>
        <time>2016-07-24T09:47:44.000Z</time>
      </trkpt>
      <trkpt lat="47.47232" lon="6.72017">
        <ele>320</ele>
        <time>2016-07-24T09:47:45.000Z</time>
      </trkpt>
      <trkpt lat="47.47236" lon="6.72024">
        <ele>321</ele>
        <time>2016-07-24T09:47:46.000Z</time>
      </trkpt>
      <trkpt lat="47.47239" lon="6.72031">
        <ele>321</ele>
        <time>2016-07-24T09:47:47.000Z</time>
      </trkpt>
      <trkpt lat="47.47242" lon="6.7204">
        <ele>321</ele>
        <time>2016-07-24T09:47:48.000Z</time>
      </trkpt>
      <trkpt lat="47.47245" lon="6.72048">
        <ele>321</ele>
        <time>2016-07-24T09:47:49.000Z</time>
      </trkpt>
      <trkpt lat="47.47249" lon="6.72054">
        <ele>320</ele>
        <time>2016-07-24T09:47:50.000Z</time>
      </trkpt>
      <trkpt lat="47.47252" lon="6.72061">
        <ele>309</ele>
        <time>2016-07-24T09:47:51.000Z</time>
      </trkpt>
      <trkpt lat="47.47256" lon="6.72072">
        <ele>310</ele>
        <time>2016-07-24T09:47:52.000Z</time>
      </trkpt>
      <trkpt lat="47.47259" lon="6.72084">
        <ele>311</ele>
        <time>2016-07-24T09:47:53.000Z</time>
      </trkpt>
      <trkpt lat="47.47263" lon="6.72092">
        <ele>312</ele>
        <time>2016-07-24T09:47:54.000Z</time>
      </trkpt>
      <trkpt lat="47.47266" lon="6.721">
        <ele>312</ele>
        <time>2016-07-24T09:47:55.000Z</time>
      </trkpt>
      <trkpt lat="47.4727" lon="6.72105">
        <ele>312</ele>
        <time>2016-07-24T09:47:56.000Z</time>
      </trkpt>
      <trkpt lat="47.47273" lon="6.72111">
        <ele>312</ele>
        <time>2016-07-24T09:47:57.000Z</time>
      </trkpt>
      <trkpt lat="47.47276" lon="6.72119">
        <ele>312</ele>
        <time>2016-07-24T09:47:58.000Z</time>
      </trkpt>
      <trkpt lat="47.4728" lon="6.72131">
        <ele>313</ele>
        <time>2016-07-24T09:47:59.000Z</time>
      </trkpt>
      <trkpt lat="47.47283" lon="6.72138">
        <ele>313</ele>
        <time>2016-07-24T09:48:00.000Z</time>
      </trkpt>
      <trkpt lat="47.47286" lon="6.72147">
        <ele>313</ele>
        <time>2016-07-24T09:48:01.000Z</time>
      </trkpt>
      <trkpt lat="47.47289" lon="6.72152">
        <ele>313</ele>
        <time>2016-07-24T09:48:02.000Z</time>
      </trkpt>
      <trkpt lat="47.47292" lon="6.72158">
        <ele>313</ele>
        <time>2016-07-24T09:48:03.000Z</time>
      </trkpt>
      <trkpt lat="47.47295" lon="6.72166">
        <ele>312</ele>
        <time>2016-07-24T09:48:04.000Z</time>
      </trkpt>
      <trkpt lat="47.47298" lon="6.72174">
        <ele>317</ele>
        <time>2016-07-24T09:48:05.000Z</time>
      </trkpt>
      <trkpt lat="47.47299" lon="6.7218">
        <ele>317</ele>
        <time>2016-07-24T09:48:06.000Z</time>
      </trkpt>
      <trkpt lat="47.47302" lon="6.72188">
        <ele>317</ele>
        <time>2016-07-24T09:48:07.000Z</time>
      </trkpt>
      <trkpt lat="47.47302" lon="6.72196">
        <ele>317</ele>
        <time>2016-07-24T09:48:08.000Z</time>
      </trkpt>
      <trkpt lat="47.47305" lon="6.72203">
        <ele>317</ele>
        <time>2016-07-24T09:48:09.000Z</time>
      </trkpt>
      <trkpt lat="47.47308" lon="6.72209">
        <ele>317</ele>
        <time>2016-07-24T09:48:10.000Z</time>
      </trkpt>
      <trkpt lat="47.4731" lon="6.72217">
        <ele>317</ele>
        <time>2016-07-24T09:48:11.000Z</time>
      </trkpt>
      <trkpt lat="47.47313" lon="6.72227">
        <ele>317</ele>
        <time>2016-07-24T09:48:12.000Z</time>
      </trkpt>
      <trkpt lat="47.47316" lon="6.72236">
        <ele>316</ele>
        <time>2016-07-24T09:48:13.000Z</time>
      </trkpt>
      <trkpt lat="47.47318" lon="6.72243">
        <ele>316</ele>
        <time>2016-07-24T09:48:14.000Z</time>
      </trkpt>
      <trkpt lat="47.4732" lon="6.72249">
        <ele>315</ele>
        <time>2016-07-24T09:48:15.000Z</time>
      </trkpt>
      <trkpt lat="47.47323" lon="6.72256">
        <ele>318</ele>
        <time>2016-07-24T09:48:16.000Z</time>
      </trkpt>
      <trkpt lat="47.47325" lon="6.72264">
        <ele>319</ele>
        <time>2016-07-24T09:48:17.000Z</time>
      </trkpt>
      <trkpt lat="47.47328" lon="6.72274">
        <ele>322</ele>
        <time>2016-07-24T09:48:18.000Z</time>
      </trkpt>
      <trkpt lat="47.47331" lon="6.72282">
        <ele>323</ele>
        <time>2016-07-24T09:48:19.000Z</time>
      </trkpt>
      <trkpt lat="47.47334" lon="6.72289">
        <ele>311</ele>
        <time>2016-07-24T09:48:20.000Z</time>
      </trkpt>
      <trkpt lat="47.47335" lon="6.72299">
        <ele>312</ele>
        <time>2016-07-24T09:48:21.000Z</time>
      </trkpt>
      <trkpt lat="47.47337" lon="6.72305">
        <ele>313</ele>
        <time>2016-07-24T09:48:22.000Z</time>
      </trkpt>
      <trkpt lat="47.47339" lon="6.72312">
        <ele>313</ele>
        <time>2016-07-24T09:48:23.000Z</time>
      </trkpt>
      <trkpt lat="47.47341" lon="6.72319">
        <ele>314</ele>
        <time>2016-07-24T09:48:24.000Z</time>
      </trkpt>
      <trkpt lat="47.47343" lon="6.72328">
        <ele>315</ele>
        <time>2016-07-24T09:48:25.000Z</time>
      </trkpt>
      <trkpt lat="47.47345" lon="6.72336">
        <ele>317</ele>
        <time>2016-07-24T09:48:26.000Z</time>
      </trkpt>
      <trkpt lat="47.47347" lon="6.72344">
        <ele>316</ele>
        <time>2016-07-24T09:48:27.000Z</time>
      </trkpt>
      <trkpt lat="47.47349" lon="6.72352">
        <ele>315</ele>
        <time>2016-07-24T09:48:28.000Z</time>
      </trkpt>
      <trkpt lat="47.4735" lon="6.72362">
        <ele>315</ele>
        <time>2016-07-24T09:48:29.000Z</time>
      </trkpt>
      <trkpt lat="47.47352" lon="6.7237">
        <ele>315</ele>
        <time>2016-07-24T09:48:30.000Z</time>
      </trkpt>
      <trkpt lat="47.47355" lon="6.72378">
        <ele>315</ele>
        <time>2016-07-24T09:48:31.000Z</time>
      </trkpt>
      <trkpt lat="47.47357" lon="6.72386">
        <ele>315</ele>
        <time>2016-07-24T09:48:32.000Z</time>
      </trkpt>
      <trkpt lat="47.4736" lon="6.72397">
        <ele>315</ele>
        <time>2016-07-24T09:48:33.000Z</time>
      </trkpt>
      <trkpt lat="47.47362" lon="6.72407">
        <ele>316</ele>
        <time>2016-07-24T09:48:34.000Z</time>
      </trkpt>
      <trkpt lat="47.47364" lon="6.72414">
        <ele>315</ele>
        <time>2016-07-24T09:48:35.000Z</time>
      </trkpt>
      <trkpt lat="47.47366" lon="6.72422">
        <ele>317</ele>
        <time>2016-07-24T09:48:36.000Z</time>
      </trkpt>
      <trkpt lat="47.47367" lon="6.7243">
        <ele>316</ele>
        <time>2016-07-24T09:48:37.000Z</time>
      </trkpt>
      <trkpt lat="47.47368" lon="6.72439">
        <ele>316</ele>
        <time>2016-07-24T09:48:38.000Z</time>
      </trkpt>
      <trkpt lat="47.4737" lon="6.72448">
        <ele>316</ele>
        <time>2016-07-24T09:48:39.000Z</time>
      </trkpt>
      <trkpt lat="47.47371" lon="6.72454">
        <ele>316</ele>
        <time>2016-07-24T09:48:40.000Z</time>
      </trkpt>
      <trkpt lat="47.47372" lon="6.72463">
        <ele>316</ele>
        <time>2016-07-24T09:48:41.000Z</time>
      </trkpt>
      <trkpt lat="47.47373" lon="6.72472">
        <ele>316</ele>
        <time>2016-07-24T09:48:42.000Z</time>
      </trkpt>
      <trkpt lat="47.47374" lon="6.7248">
        <ele>316</ele>
        <time>2016-07-24T09:48:43.000Z</time>
      </trkpt>
      <trkpt lat="47.47374" lon="6.72489">
        <ele>316</ele>
        <time>2016-07-24T09:48:44.000Z</time>
      </trkpt>
      <trkpt lat="47.47376" lon="6.72497">
        <ele>316</ele>
        <time>2016-07-24T09:48:45.000Z</time>
      </trkpt>
      <trkpt lat="47.47377" lon="6.72505">
        <ele>316</ele>
        <time>2016-07-24T09:48:46.000Z</time>
      </trkpt>
      <trkpt lat="47.47378" lon="6.72513">
        <ele>316</ele>
        <time>2016-07-24T09:48:47.000Z</time>
      </trkpt>
      <trkpt lat="47.47379" lon="6.72522">
        <ele>315</ele>
        <time>2016-07-24T09:48:48.000Z</time>
      </trkpt>
      <trkpt lat="47.4738" lon="6.7253">
        <ele>315</ele>
        <time>2016-07-24T09:48:49.000Z</time>
      </trkpt>
      <trkpt lat="47.47381" lon="6.72539">
        <ele>315</ele>
        <time>2016-07-24T09:48:50.000Z</time>
      </trkpt>
      <trkpt lat="47.47383" lon="6.72548">
        <ele>315</ele>
        <time>2016-07-24T09:48:51.000Z</time>
      </trkpt>
      <trkpt lat="47.47384" lon="6.72557">
        <ele>315</ele>
        <time>2016-07-24T09:48:52.000Z</time>
      </trkpt>
      <trkpt lat="47.47385" lon="6.72565">
        <ele>314</ele>
        <time>2016-07-24T09:48:53.000Z</time>
      </trkpt>
      <trkpt lat="47.47386" lon="6.72574">
        <ele>314</ele>
        <time>2016-07-24T09:48:54.000Z</time>
      </trkpt>
      <trkpt lat="47.47387" lon="6.72583">
        <ele>312</ele>
        <time>2016-07-24T09:48:55.000Z</time>
      </trkpt>
      <trkpt lat="47.47388" lon="6.72592">
        <ele>312</ele>
        <time>2016-07-24T09:48:56.000Z</time>
      </trkpt>
      <trkpt lat="47.47389" lon="6.726">
        <ele>312</ele>
        <time>2016-07-24T09:48:57.000Z</time>
      </trkpt>
      <trkpt lat="47.4739" lon="6.72608">
        <ele>312</ele>
        <time>2016-07-24T09:48:58.000Z</time>
      </trkpt>
      <trkpt lat="47.47392" lon="6.72617">
        <ele>312</ele>
        <time>2016-07-24T09:48:59.000Z</time>
      </trkpt>
      <trkpt lat="47.47394" lon="6.72626">
        <ele>312</ele>
        <time>2016-07-24T09:49:00.000Z</time>
      </trkpt>
      <trkpt lat="47.47395" lon="6.72633">
        <ele>312</ele>
        <time>2016-07-24T09:49:01.000Z</time>
      </trkpt>
      <trkpt lat="47.47397" lon="6.72642">
        <ele>311</ele>
        <time>2016-07-24T09:49:02.000Z</time>
      </trkpt>
      <trkpt lat="47.47398" lon="6.72651">
        <ele>310</ele>
        <time>2016-07-24T09:49:03.000Z</time>
      </trkpt>
      <trkpt lat="47.474" lon="6.7266">
        <ele>310</ele>
        <time>2016-07-24T09:49:04.000Z</time>
      </trkpt>
      <trkpt lat="47.474" lon="6.72667">
        <ele>308</ele>
        <time>2016-07-24T09:49:05.000Z</time>
      </trkpt>
      <trkpt lat="47.47401" lon="6.72675">
        <ele>309</ele>
        <time>2016-07-24T09:49:06.000Z</time>
      </trkpt>
      <trkpt lat="47.47403" lon="6.72683">
        <ele>309</ele>
        <time>2016-07-24T09:49:07.000Z</time>
      </trkpt>
      <trkpt lat="47.47403" lon="6.72693">
        <ele>309</ele>
        <time>2016-07-24T09:49:08.000Z</time>
      </trkpt>
      <trkpt lat="47.47404" lon="6.72701">
        <ele>310</ele>
        <time>2016-07-24T09:49:09.000Z</time>
      </trkpt>
      <trkpt lat="47.47406" lon="6.72712">
        <ele>310</ele>
        <time>2016-07-24T09:49:10.000Z</time>
      </trkpt>
      <trkpt lat="47.47408" lon="6.72721">
        <ele>309</ele>
        <time>2016-07-24T09:49:11.000Z</time>
      </trkpt>
      <trkpt lat="47.47409" lon="6.72729">
        <ele>309</ele>
        <time>2016-07-24T09:49:12.000Z</time>
      </trkpt>
      <trkpt lat="47.47411" lon="6.72737">
        <ele>308</ele>
        <time>2016-07-24T09:49:13.000Z</time>
      </trkpt>
      <trkpt lat="47.47412" lon="6.72746">
        <ele>307</ele>
        <time>2016-07-24T09:49:14.000Z</time>
      </trkpt>
      <trkpt lat="47.47412" lon="6.72754">
        <ele>307</ele>
        <time>2016-07-24T09:49:15.000Z</time>
      </trkpt>
      <trkpt lat="47.47414" lon="6.72762">
        <ele>308</ele>
        <time>2016-07-24T09:49:16.000Z</time>
      </trkpt>
      <trkpt lat="47.47415" lon="6.72771">
        <ele>309</ele>
        <time>2016-07-24T09:49:17.000Z</time>
      </trkpt>
      <trkpt lat="47.47416" lon="6.7278">
        <ele>309</ele>
        <time>2016-07-24T09:49:18.000Z</time>
      </trkpt>
      <trkpt lat="47.47417" lon="6.72788">
        <ele>307</ele>
        <time>2016-07-24T09:49:19.000Z</time>
      </trkpt>
      <trkpt lat="47.47418" lon="6.72797">
        <ele>307</ele>
        <time>2016-07-24T09:49:20.000Z</time>
      </trkpt>
      <trkpt lat="47.4742" lon="6.72806">
        <ele>307</ele>
        <time>2016-07-24T09:49:21.000Z</time>
      </trkpt>
      <trkpt lat="47.47421" lon="6.72814">
        <ele>307</ele>
        <time>2016-07-24T09:49:22.000Z</time>
      </trkpt>
      <trkpt lat="47.47421" lon="6.72822">
        <ele>307</ele>
        <time>2016-07-24T09:49:23.000Z</time>
      </trkpt>
      <trkpt lat="47.47422" lon="6.7283">
        <ele>308</ele>
        <time>2016-07-24T09:49:24.000Z</time>
      </trkpt>
      <trkpt lat="47.47423" lon="6.72839">
        <ele>308</ele>
        <time>2016-07-24T09:49:25.000Z</time>
      </trkpt>
      <trkpt lat="47.47424" lon="6.72847">
        <ele>308</ele>
        <time>2016-07-24T09:49:26.000Z</time>
      </trkpt>
      <trkpt lat="47.47425" lon="6.72856">
        <ele>308</ele>
        <time>2016-07-24T09:49:27.000Z</time>
      </trkpt>
      <trkpt lat="47.47425" lon="6.72864">
        <ele>308</ele>
        <time>2016-07-24T09:49:28.000Z</time>
      </trkpt>
      <trkpt lat="47.47426" lon="6.72873">
        <ele>308</ele>
        <time>2016-07-24T09:49:29.000Z</time>
      </trkpt>
      <trkpt lat="47.47427" lon="6.7288">
        <ele>308</ele>
        <time>2016-07-24T09:49:30.000Z</time>
      </trkpt>
      <trkpt lat="47.47427" lon="6.72889">
        <ele>308</ele>
        <time>2016-07-24T09:49:31.000Z</time>
      </trkpt>
      <trkpt lat="47.47428" lon="6.72897">
        <ele>308</ele>
        <time>2016-07-24T09:49:32.000Z</time>
      </trkpt>
      <trkpt lat="47.47429" lon="6.72905">
        <ele>309</ele>
        <time>2016-07-24T09:49:33.000Z</time>
      </trkpt>
      <trkpt lat="47.4743" lon="6.72913">
        <ele>309</ele>
        <time>2016-07-24T09:49:34.000Z</time>
      </trkpt>
      <trkpt lat="47.4743" lon="6.7292">
        <ele>309</ele>
        <time>2016-07-24T09:49:35.000Z</time>
      </trkpt>
      <trkpt lat="47.47431" lon="6.72929">
        <ele>309</ele>
        <time>2016-07-24T09:49:36.000Z</time>
      </trkpt>
      <trkpt lat="47.47431" lon="6.72937">
        <ele>309</ele>
        <time>2016-07-24T09:49:37.000Z</time>
      </trkpt>
      <trkpt lat="47.47432" lon="6.72946">
        <ele>309</ele>
        <time>2016-07-24T09:49:38.000Z</time>
      </trkpt>
      <trkpt lat="47.47432" lon="6.72954">
        <ele>309</ele>
        <time>2016-07-24T09:49:39.000Z</time>
      </trkpt>
      <trkpt lat="47.47433" lon="6.72962">
        <ele>309</ele>
        <time>2016-07-24T09:49:40.000Z</time>
      </trkpt>
      <trkpt lat="47.47432" lon="6.72971">
        <ele>309</ele>
        <time>2016-07-24T09:49:41.000Z</time>
      </trkpt>
      <trkpt lat="47.47432" lon="6.72979">
        <ele>309</ele>
        <time>2016-07-24T09:49:42.000Z</time>
      </trkpt>
      <trkpt lat="47.47431" lon="6.72987">
        <ele>310</ele>
        <time>2016-07-24T09:49:43.000Z</time>
      </trkpt>
      <trkpt lat="47.4743" lon="6.72995">
        <ele>310</ele>
        <time>2016-07-24T09:49:44.000Z</time>
      </trkpt>
      <trkpt lat="47.47429" lon="6.73002">
        <ele>310</ele>
        <time>2016-07-24T09:49:45.000Z</time>
      </trkpt>
      <trkpt lat="47.47427" lon="6.7301">
        <ele>310</ele>
        <time>2016-07-24T09:49:46.000Z</time>
      </trkpt>
      <trkpt lat="47.47427" lon="6.73017">
        <ele>310</ele>
        <time>2016-07-24T09:49:47.000Z</time>
      </trkpt>
      <trkpt lat="47.47426" lon="6.73021">
        <ele>310</ele>
        <time>2016-07-24T09:49:48.000Z</time>
      </trkpt>
      <trkpt lat="47.47426" lon="6.73027">
        <ele>310</ele>
        <time>2016-07-24T09:49:49.000Z</time>
      </trkpt>
      <trkpt lat="47.47425" lon="6.73031">
        <ele>310</ele>
        <time>2016-07-24T09:49:50.000Z</time>
      </trkpt>
      <trkpt lat="47.47427" lon="6.73034">
        <ele>310</ele>
        <time>2016-07-24T09:49:51.000Z</time>
      </trkpt>
      <trkpt lat="47.47429" lon="6.73039">
        <ele>310</ele>
        <time>2016-07-24T09:49:52.000Z</time>
      </trkpt>
      <trkpt lat="47.47431" lon="6.73046">
        <ele>310</ele>
        <time>2016-07-24T09:49:53.000Z</time>
      </trkpt>
      <trkpt lat="47.47434" lon="6.7305">
        <ele>310</ele>
        <time>2016-07-24T09:49:54.000Z</time>
      </trkpt>
      <trkpt lat="47.47437" lon="6.73055">
        <ele>310</ele>
        <time>2016-07-24T09:49:55.000Z</time>
      </trkpt>
      <trkpt lat="47.47442" lon="6.73059">
        <ele>310</ele>
        <time>2016-07-24T09:49:56.000Z</time>
      </trkpt>
      <trkpt lat="47.47446" lon="6.73063">
        <ele>310</ele>
        <time>2016-07-24T09:49:57.000Z</time>
      </trkpt>
      <trkpt lat="47.47451" lon="6.73069">
        <ele>310</ele>
        <time>2016-07-24T09:49:58.000Z</time>
      </trkpt>
      <trkpt lat="47.47454" lon="6.73075">
        <ele>310</ele>
        <time>2016-07-24T09:49:59.000Z</time>
      </trkpt>
      <trkpt lat="47.47457" lon="6.73083">
        <ele>310</ele>
        <time>2016-07-24T09:50:00.000Z</time>
      </trkpt>
      <trkpt lat="47.4746" lon="6.73088">
        <ele>311</ele>
        <time>2016-07-24T09:50:01.000Z</time>
      </trkpt>
      <trkpt lat="47.4746" lon="6.73091">
        <ele>311</ele>
        <time>2016-07-24T09:50:02.000Z</time>
      </trkpt>
      <trkpt lat="47.47463" lon="6.73098">
        <ele>311</ele>
        <time>2016-07-24T09:50:03.000Z</time>
      </trkpt>
      <trkpt lat="47.47466" lon="6.73106">
        <ele>311</ele>
        <time>2016-07-24T09:50:04.000Z</time>
      </trkpt>
      <trkpt lat="47.47466" lon="6.7311">
        <ele>311</ele>
        <time>2016-07-24T09:50:05.000Z</time>
      </trkpt>
      <trkpt lat="47.47465" lon="6.73114">
        <ele>311</ele>
        <time>2016-07-24T09:50:06.000Z</time>
      </trkpt>
      <trkpt lat="47.47464" lon="6.73123">
        <ele>311</ele>
        <time>2016-07-24T09:50:07.000Z</time>
      </trkpt>
      <trkpt lat="47.47464" lon="6.73131">
        <ele>311</ele>
        <time>2016-07-24T09:50:08.000Z</time>
      </trkpt>
      <trkpt lat="47.47465" lon="6.7314">
        <ele>311</ele>
        <time>2016-07-24T09:50:09.000Z</time>
      </trkpt>
      <trkpt lat="47.47464" lon="6.73146">
        <ele>311</ele>
        <time>2016-07-24T09:50:10.000Z</time>
      </trkpt>
      <trkpt lat="47.47464" lon="6.73153">
        <ele>311</ele>
        <time>2016-07-24T09:50:11.000Z</time>
      </trkpt>
      <trkpt lat="47.47464" lon="6.73158">
        <ele>311</ele>
        <time>2016-07-24T09:50:12.000Z</time>
      </trkpt>
      <trkpt lat="47.47463" lon="6.73164">
        <ele>312</ele>
        <time>2016-07-24T09:50:13.000Z</time>
      </trkpt>
      <trkpt lat="47.47463" lon="6.7317">
        <ele>312</ele>
        <time>2016-07-24T09:50:14.000Z</time>
      </trkpt>
      <trkpt lat="47.47462" lon="6.73176">
        <ele>312</ele>
        <time>2016-07-24T09:50:15.000Z</time>
      </trkpt>
      <trkpt lat="47.47462" lon="6.73181">
        <ele>312</ele>
        <time>2016-07-24T09:50:16.000Z</time>
      </trkpt>
      <trkpt lat="47.47461" lon="6.73186">
        <ele>312</ele>
        <time>2016-07-24T09:50:17.000Z</time>
      </trkpt>
      <trkpt lat="47.47461" lon="6.73193">
        <ele>312</ele>
        <time>2016-07-24T09:50:18.000Z</time>
      </trkpt>
      <trkpt lat="47.47461" lon="6.732">
        <ele>312</ele>
        <time>2016-07-24T09:50:19.000Z</time>
      </trkpt>
      <trkpt lat="47.47459" lon="6.73207">
        <ele>312</ele>
        <time>2016-07-24T09:50:20.000Z</time>
      </trkpt>
      <trkpt lat="47.47455" lon="6.73216">
        <ele>312</ele>
        <time>2016-07-24T09:50:21.000Z</time>
      </trkpt>
      <trkpt lat="47.47452" lon="6.73223">
        <ele>312</ele>
        <time>2016-07-24T09:50:22.000Z</time>
      </trkpt>
      <trkpt lat="47.47448" lon="6.73227">
        <ele>312</ele>
        <time>2016-07-24T09:50:23.000Z</time>
      </trkpt>
      <trkpt lat="47.47444" lon="6.73226">
        <ele>312</ele>
        <time>2016-07-24T09:50:24.000Z</time>
      </trkpt>
      <trkpt lat="47.4744" lon="6.73233">
        <ele>312</ele>
        <time>2016-07-24T09:50:25.000Z</time>
      </trkpt>
      <trkpt lat="47.47441" lon="6.7324">
        <ele>312</ele>
        <time>2016-07-24T09:50:26.000Z</time>
      </trkpt>
      <trkpt lat="47.47442" lon="6.73248">
        <ele>311</ele>
        <time>2016-07-24T09:50:27.000Z</time>
      </trkpt>
      <trkpt lat="47.47443" lon="6.73257">
        <ele>311</ele>
        <time>2016-07-24T09:50:28.000Z</time>
      </trkpt>
      <trkpt lat="47.47446" lon="6.73264">
        <ele>311</ele>
        <time>2016-07-24T09:50:29.000Z</time>
      </trkpt>
      <trkpt lat="47.47449" lon="6.73272">
        <ele>311</ele>
        <time>2016-07-24T09:50:30.000Z</time>
      </trkpt>
      <trkpt lat="47.47453" lon="6.7328">
        <ele>311</ele>
        <time>2016-07-24T09:50:31.000Z</time>
      </trkpt>
      <trkpt lat="47.47456" lon="6.73287">
        <ele>311</ele>
        <time>2016-07-24T09:50:32.000Z</time>
      </trkpt>
      <trkpt lat="47.47461" lon="6.73294">
        <ele>310</ele>
        <time>2016-07-24T09:50:33.000Z</time>
      </trkpt>
      <trkpt lat="47.47462" lon="6.73305">
        <ele>310</ele>
        <time>2016-07-24T09:50:34.000Z</time>
      </trkpt>
      <trkpt lat="47.47465" lon="6.73314">
        <ele>310</ele>
        <time>2016-07-24T09:50:35.000Z</time>
      </trkpt>
      <trkpt lat="47.47467" lon="6.73323">
        <ele>310</ele>
        <time>2016-07-24T09:50:36.000Z</time>
      </trkpt>
      <trkpt lat="47.47469" lon="6.73332">
        <ele>310</ele>
        <time>2016-07-24T09:50:37.000Z</time>
      </trkpt>
      <trkpt lat="47.47472" lon="6.73341">
        <ele>309</ele>
        <time>2016-07-24T09:50:38.000Z</time>
      </trkpt>
      <trkpt lat="47.47474" lon="6.7335">
        <ele>309</ele>
        <time>2016-07-24T09:50:39.000Z</time>
      </trkpt>
      <trkpt lat="47.47476" lon="6.73358">
        <ele>309</ele>
        <time>2016-07-24T09:50:40.000Z</time>
      </trkpt>
      <trkpt lat="47.47478" lon="6.73365">
        <ele>309</ele>
        <time>2016-07-24T09:50:41.000Z</time>
      </trkpt>
      <trkpt lat="47.47482" lon="6.73371">
        <ele>309</ele>
        <time>2016-07-24T09:50:42.000Z</time>
      </trkpt>
      <trkpt lat="47.47488" lon="6.73371">
        <ele>309</ele>
        <time>2016-07-24T09:50:43.000Z</time>
      </trkpt>
      <trkpt lat="47.47494" lon="6.73372">
        <ele>309</ele>
        <time>2016-07-24T09:50:44.000Z</time>
      </trkpt>
      <trkpt lat="47.47499" lon="6.73373">
        <ele>309</ele>
        <time>2016-07-24T09:50:45.000Z</time>
      </trkpt>
      <trkpt lat="47.47504" lon="6.73376">
        <ele>309</ele>
        <time>2016-07-24T09:50:46.000Z</time>
      </trkpt>
      <trkpt lat="47.47509" lon="6.7338">
        <ele>308</ele>
        <time>2016-07-24T09:50:47.000Z</time>
      </trkpt>
      <trkpt lat="47.47513" lon="6.73389">
        <ele>308</ele>
        <time>2016-07-24T09:50:48.000Z</time>
      </trkpt>
      <trkpt lat="47.47512" lon="6.734">
        <ele>309</ele>
        <time>2016-07-24T09:50:49.000Z</time>
      </trkpt>
      <trkpt lat="47.47513" lon="6.73409">
        <ele>309</ele>
        <time>2016-07-24T09:50:50.000Z</time>
      </trkpt>
      <trkpt lat="47.47515" lon="6.73416">
        <ele>309</ele>
        <time>2016-07-24T09:50:51.000Z</time>
      </trkpt>
      <trkpt lat="47.47518" lon="6.73424">
        <ele>308</ele>
        <time>2016-07-24T09:50:52.000Z</time>
      </trkpt>
      <trkpt lat="47.4752" lon="6.73433">
        <ele>308</ele>
        <time>2016-07-24T09:50:53.000Z</time>
      </trkpt>
      <trkpt lat="47.47522" lon="6.73442">
        <ele>308</ele>
        <time>2016-07-24T09:50:54.000Z</time>
      </trkpt>
      <trkpt lat="47.47525" lon="6.73451">
        <ele>308</ele>
        <time>2016-07-24T09:50:55.000Z</time>
      </trkpt>
      <trkpt lat="47.47525" lon="6.7346">
        <ele>308</ele>
        <time>2016-07-24T09:50:56.000Z</time>
      </trkpt>
      <trkpt lat="47.47529" lon="6.73466">
        <ele>308</ele>
        <time>2016-07-24T09:50:57.000Z</time>
      </trkpt>
      <trkpt lat="47.47532" lon="6.73475">
        <ele>307</ele>
        <time>2016-07-24T09:50:58.000Z</time>
      </trkpt>
      <trkpt lat="47.47534" lon="6.73483">
        <ele>307</ele>
        <time>2016-07-24T09:50:59.000Z</time>
      </trkpt>
      <trkpt lat="47.47536" lon="6.73491">
        <ele>307</ele>
        <time>2016-07-24T09:51:00.000Z</time>
      </trkpt>
      <trkpt lat="47.47537" lon="6.735">
        <ele>307</ele>
        <time>2016-07-24T09:51:01.000Z</time>
      </trkpt>
      <trkpt lat="47.47538" lon="6.73509">
        <ele>307</ele>
        <time>2016-07-24T09:51:02.000Z</time>
      </trkpt>
      <trkpt lat="47.47538" lon="6.73518">
        <ele>307</ele>
        <time>2016-07-24T09:51:03.000Z</time>
      </trkpt>
      <trkpt lat="47.47539" lon="6.73526">
        <ele>307</ele>
        <time>2016-07-24T09:51:04.000Z</time>
      </trkpt>
      <trkpt lat="47.4754" lon="6.73535">
        <ele>307</ele>
        <time>2016-07-24T09:51:05.000Z</time>
      </trkpt>
      <trkpt lat="47.4754" lon="6.73544">
        <ele>308</ele>
        <time>2016-07-24T09:51:06.000Z</time>
      </trkpt>
      <trkpt lat="47.47541" lon="6.73552">
        <ele>308</ele>
        <time>2016-07-24T09:51:07.000Z</time>
      </trkpt>
      <trkpt lat="47.47543" lon="6.7356">
        <ele>308</ele>
        <time>2016-07-24T09:51:08.000Z</time>
      </trkpt>
      <trkpt lat="47.47545" lon="6.7357">
        <ele>308</ele>
        <time>2016-07-24T09:51:09.000Z</time>
      </trkpt>
      <trkpt lat="47.47547" lon="6.73577">
        <ele>308</ele>
        <time>2016-07-24T09:51:10.000Z</time>
      </trkpt>
      <trkpt lat="47.47548" lon="6.73585">
        <ele>308</ele>
        <time>2016-07-24T09:51:11.000Z</time>
      </trkpt>
      <trkpt lat="47.47556" lon="6.73592">
        <ele>308</ele>
        <time>2016-07-24T09:51:13.000Z</time>
      </trkpt>
      <trkpt lat="47.4756" lon="6.73593">
        <ele>308</ele>
        <time>2016-07-24T09:51:14.000Z</time>
      </trkpt>
      <trkpt lat="47.47562" lon="6.73595">
        <ele>308</ele>
        <time>2016-07-24T09:51:15.000Z</time>
      </trkpt>
      <trkpt lat="47.47564" lon="6.73599">
        <ele>308</ele>
        <time>2016-07-24T09:51:16.000Z</time>
      </trkpt>
      <trkpt lat="47.47564" lon="6.73602">
        <ele>308</ele>
        <time>2016-07-24T09:51:17.000Z</time>
      </trkpt>
      <trkpt lat="47.47565" lon="6.7361">
        <ele>308</ele>
        <time>2016-07-24T09:51:18.000Z</time>
      </trkpt>
      <trkpt lat="47.47566" lon="6.73618">
        <ele>308</ele>
        <time>2016-07-24T09:51:19.000Z</time>
      </trkpt>
      <trkpt lat="47.47567" lon="6.73625">
        <ele>308</ele>
        <time>2016-07-24T09:51:20.000Z</time>
      </trkpt>
      <trkpt lat="47.47568" lon="6.73633">
        <ele>308</ele>
        <time>2016-07-24T09:51:21.000Z</time>
      </trkpt>
      <trkpt lat="47.47569" lon="6.73641">
        <ele>307</ele>
        <time>2016-07-24T09:51:22.000Z</time>
      </trkpt>
      <trkpt lat="47.47571" lon="6.73649">
        <ele>307</ele>
        <time>2016-07-24T09:51:23.000Z</time>
      </trkpt>
      <trkpt lat="47.47573" lon="6.73658">
        <ele>307</ele>
        <time>2016-07-24T09:51:24.000Z</time>
      </trkpt>
      <trkpt lat="47.47575" lon="6.73667">
        <ele>307</ele>
        <time>2016-07-24T09:51:25.000Z</time>
      </trkpt>
      <trkpt lat="47.47577" lon="6.73677">
        <ele>307</ele>
        <time>2016-07-24T09:51:26.000Z</time>
      </trkpt>
      <trkpt lat="47.47579" lon="6.73685">
        <ele>307</ele>
        <time>2016-07-24T09:51:27.000Z</time>
      </trkpt>
      <trkpt lat="47.47581" lon="6.73693">
        <ele>307</ele>
        <time>2016-07-24T09:51:28.000Z</time>
      </trkpt>
      <trkpt lat="47.47583" lon="6.73702">
        <ele>307</ele>
        <time>2016-07-24T09:51:29.000Z</time>
      </trkpt>
      <trkpt lat="47.47584" lon="6.7371">
        <ele>308</ele>
        <time>2016-07-24T09:51:30.000Z</time>
      </trkpt>
      <trkpt lat="47.47586" lon="6.73719">
        <ele>308</ele>
        <time>2016-07-24T09:51:31.000Z</time>
      </trkpt>
      <trkpt lat="47.47588" lon="6.73728">
        <ele>308</ele>
        <time>2016-07-24T09:51:32.000Z</time>
      </trkpt>
      <trkpt lat="47.4759" lon="6.73736">
        <ele>308</ele>
        <time>2016-07-24T09:51:33.000Z</time>
      </trkpt>
      <trkpt lat="47.47592" lon="6.73745">
        <ele>308</ele>
        <time>2016-07-24T09:51:34.000Z</time>
      </trkpt>
      <trkpt lat="47.47594" lon="6.73753">
        <ele>308</ele>
        <time>2016-07-24T09:51:35.000Z</time>
      </trkpt>
      <trkpt lat="47.47595" lon="6.73761">
        <ele>309</ele>
        <time>2016-07-24T09:51:36.000Z</time>
      </trkpt>
      <trkpt lat="47.47597" lon="6.73767">
        <ele>309</ele>
        <time>2016-07-24T09:51:37.000Z</time>
      </trkpt>
      <trkpt lat="47.47599" lon="6.73775">
        <ele>309</ele>
        <time>2016-07-24T09:51:38.000Z</time>
      </trkpt>
      <trkpt lat="47.47601" lon="6.73782">
        <ele>309</ele>
        <time>2016-07-24T09:51:39.000Z</time>
      </trkpt>
      <trkpt lat="47.47602" lon="6.73787">
        <ele>309</ele>
        <time>2016-07-24T09:51:40.000Z</time>
      </trkpt>
      <trkpt lat="47.47605" lon="6.73795">
        <ele>309</ele>
        <time>2016-07-24T09:51:41.000Z</time>
      </trkpt>
      <trkpt lat="47.47607" lon="6.73803">
        <ele>309</ele>
        <time>2016-07-24T09:51:42.000Z</time>
      </trkpt>
      <trkpt lat="47.47608" lon="6.7381">
        <ele>309</ele>
        <time>2016-07-24T09:51:43.000Z</time>
      </trkpt>
      <trkpt lat="47.47609" lon="6.73819">
        <ele>309</ele>
        <time>2016-07-24T09:51:44.000Z</time>
      </trkpt>
      <trkpt lat="47.47612" lon="6.73826">
        <ele>309</ele>
        <time>2016-07-24T09:51:45.000Z</time>
      </trkpt>
      <trkpt lat="47.47614" lon="6.73834">
        <ele>309</ele>
        <time>2016-07-24T09:51:46.000Z</time>
      </trkpt>
      <trkpt lat="47.47615" lon="6.73844">
        <ele>309</ele>
        <time>2016-07-24T09:51:47.000Z</time>
      </trkpt>
      <trkpt lat="47.47617" lon="6.73852">
        <ele>309</ele>
        <time>2016-07-24T09:51:48.000Z</time>
      </trkpt>
      <trkpt lat="47.4762" lon="6.73859">
        <ele>309</ele>
        <time>2016-07-24T09:51:49.000Z</time>
      </trkpt>
      <trkpt lat="47.47622" lon="6.73866">
        <ele>309</ele>
        <time>2016-07-24T09:51:50.000Z</time>
      </trkpt>
      <trkpt lat="47.47623" lon="6.73874">
        <ele>309</ele>
        <time>2016-07-24T09:51:51.000Z</time>
      </trkpt>
      <trkpt lat="47.47625" lon="6.73882">
        <ele>309</ele>
        <time>2016-07-24T09:51:52.000Z</time>
      </trkpt>
      <trkpt lat="47.47626" lon="6.73889">
        <ele>309</ele>
        <time>2016-07-24T09:51:53.000Z</time>
      </trkpt>
      <trkpt lat="47.47628" lon="6.739">
        <ele>309</ele>
        <time>2016-07-24T09:51:54.000Z</time>
      </trkpt>
      <trkpt lat="47.4763" lon="6.73908">
        <ele>309</ele>
        <time>2016-07-24T09:51:55.000Z</time>
      </trkpt>
      <trkpt lat="47.47632" lon="6.73917">
        <ele>309</ele>
        <time>2016-07-24T09:51:56.000Z</time>
      </trkpt>
      <trkpt lat="47.47633" lon="6.73925">
        <ele>310</ele>
        <time>2016-07-24T09:51:57.000Z</time>
      </trkpt>
      <trkpt lat="47.47634" lon="6.73934">
        <ele>310</ele>
        <time>2016-07-24T09:51:58.000Z</time>
      </trkpt>
      <trkpt lat="47.47637" lon="6.73942">
        <ele>310</ele>
        <time>2016-07-24T09:51:59.000Z</time>
      </trkpt>
      <trkpt lat="47.47639" lon="6.73951">
        <ele>310</ele>
        <time>2016-07-24T09:52:00.000Z</time>
      </trkpt>
      <trkpt lat="47.47639" lon="6.7396">
        <ele>310</ele>
        <time>2016-07-24T09:52:01.000Z</time>
      </trkpt>
      <trkpt lat="47.47641" lon="6.73971">
        <ele>310</ele>
        <time>2016-07-24T09:52:02.000Z</time>
      </trkpt>
      <trkpt lat="47.47642" lon="6.73979">
        <ele>310</ele>
        <time>2016-07-24T09:52:03.000Z</time>
      </trkpt>
      <trkpt lat="47.47643" lon="6.73988">
        <ele>310</ele>
        <time>2016-07-24T09:52:04.000Z</time>
      </trkpt>
      <trkpt lat="47.47646" lon="6.73996">
        <ele>310</ele>
        <time>2016-07-24T09:52:05.000Z</time>
      </trkpt>
      <trkpt lat="47.47647" lon="6.74003">
        <ele>310</ele>
        <time>2016-07-24T09:52:06.000Z</time>
      </trkpt>
      <trkpt lat="47.47649" lon="6.74012">
        <ele>310</ele>
        <time>2016-07-24T09:52:07.000Z</time>
      </trkpt>
      <trkpt lat="47.47651" lon="6.7402">
        <ele>310</ele>
        <time>2016-07-24T09:52:08.000Z</time>
      </trkpt>
      <trkpt lat="47.47653" lon="6.74028">
        <ele>310</ele>
        <time>2016-07-24T09:52:09.000Z</time>
      </trkpt>
      <trkpt lat="47.47654" lon="6.74037">
        <ele>310</ele>
        <time>2016-07-24T09:52:10.000Z</time>
      </trkpt>
      <trkpt lat="47.47655" lon="6.74046">
        <ele>310</ele>
        <time>2016-07-24T09:52:11.000Z</time>
      </trkpt>
      <trkpt lat="47.47656" lon="6.74055">
        <ele>310</ele>
        <time>2016-07-24T09:52:12.000Z</time>
      </trkpt>
      <trkpt lat="47.47657" lon="6.74065">
        <ele>310</ele>
        <time>2016-07-24T09:52:13.000Z</time>
      </trkpt>
      <trkpt lat="47.47659" lon="6.74074">
        <ele>310</ele>
        <time>2016-07-24T09:52:14.000Z</time>
      </trkpt>
      <trkpt lat="47.4766" lon="6.74083">
        <ele>310</ele>
        <time>2016-07-24T09:52:15.000Z</time>
      </trkpt>
      <trkpt lat="47.47661" lon="6.74091">
        <ele>310</ele>
        <time>2016-07-24T09:52:16.000Z</time>
      </trkpt>
      <trkpt lat="47.47663" lon="6.74099">
        <ele>310</ele>
        <time>2016-07-24T09:52:17.000Z</time>
      </trkpt>
      <trkpt lat="47.47664" lon="6.74108">
        <ele>309</ele>
        <time>2016-07-24T09:52:18.000Z</time>
      </trkpt>
      <trkpt lat="47.47666" lon="6.74116">
        <ele>309</ele>
        <time>2016-07-24T09:52:19.000Z</time>
      </trkpt>
      <trkpt lat="47.47668" lon="6.74125">
        <ele>310</ele>
        <time>2016-07-24T09:52:20.000Z</time>
      </trkpt>
      <trkpt lat="47.47669" lon="6.74134">
        <ele>310</ele>
        <time>2016-07-24T09:52:21.000Z</time>
      </trkpt>
      <trkpt lat="47.47671" lon="6.74143">
        <ele>310</ele>
        <time>2016-07-24T09:52:22.000Z</time>
      </trkpt>
      <trkpt lat="47.47673" lon="6.74153">
        <ele>310</ele>
        <time>2016-07-24T09:52:23.000Z</time>
      </trkpt>
      <trkpt lat="47.47674" lon="6.74161">
        <ele>309</ele>
        <time>2016-07-24T09:52:24.000Z</time>
      </trkpt>
      <trkpt lat="47.47676" lon="6.7417">
        <ele>309</ele>
        <time>2016-07-24T09:52:25.000Z</time>
      </trkpt>
      <trkpt lat="47.47678" lon="6.74179">
        <ele>310</ele>
        <time>2016-07-24T09:52:26.000Z</time>
      </trkpt>
      <trkpt lat="47.47679" lon="6.74186">
        <ele>310</ele>
        <time>2016-07-24T09:52:27.000Z</time>
      </trkpt>
      <trkpt lat="47.47682" lon="6.74195">
        <ele>310</ele>
        <time>2016-07-24T09:52:28.000Z</time>
      </trkpt>
      <trkpt lat="47.47684" lon="6.74202">
        <ele>310</ele>
        <time>2016-07-24T09:52:29.000Z</time>
      </trkpt>
      <trkpt lat="47.47686" lon="6.74211">
        <ele>310</ele>
        <time>2016-07-24T09:52:30.000Z</time>
      </trkpt>
      <trkpt lat="47.47687" lon="6.74219">
        <ele>310</ele>
        <time>2016-07-24T09:52:31.000Z</time>
      </trkpt>
      <trkpt lat="47.47688" lon="6.74229">
        <ele>310</ele>
        <time>2016-07-24T09:52:32.000Z</time>
      </trkpt>
      <trkpt lat="47.4769" lon="6.74238">
        <ele>310</ele>
        <time>2016-07-24T09:52:33.000Z</time>
      </trkpt>
      <trkpt lat="47.47691" lon="6.74247">
        <ele>310</ele>
        <time>2016-07-24T09:52:34.000Z</time>
      </trkpt>
      <trkpt lat="47.47691" lon="6.74255">
        <ele>310</ele>
        <time>2016-07-24T09:52:35.000Z</time>
      </trkpt>
      <trkpt lat="47.47692" lon="6.74264">
        <ele>310</ele>
        <time>2016-07-24T09:52:36.000Z</time>
      </trkpt>
      <trkpt lat="47.47693" lon="6.74273">
        <ele>310</ele>
        <time>2016-07-24T09:52:37.000Z</time>
      </trkpt>
      <trkpt lat="47.47695" lon="6.74281">
        <ele>310</ele>
        <time>2016-07-24T09:52:38.000Z</time>
      </trkpt>
      <trkpt lat="47.47695" lon="6.7429">
        <ele>310</ele>
        <time>2016-07-24T09:52:39.000Z</time>
      </trkpt>
      <trkpt lat="47.47697" lon="6.74297">
        <ele>310</ele>
        <time>2016-07-24T09:52:40.000Z</time>
      </trkpt>
      <trkpt lat="47.47698" lon="6.74306">
        <ele>310</ele>
        <time>2016-07-24T09:52:41.000Z</time>
      </trkpt>
      <trkpt lat="47.47699" lon="6.74315">
        <ele>310</ele>
        <time>2016-07-24T09:52:42.000Z</time>
      </trkpt>
      <trkpt lat="47.47701" lon="6.74323">
        <ele>310</ele>
        <time>2016-07-24T09:52:43.000Z</time>
      </trkpt>
      <trkpt lat="47.47703" lon="6.74331">
        <ele>310</ele>
        <time>2016-07-24T09:52:44.000Z</time>
      </trkpt>
      <trkpt lat="47.47703" lon="6.7434">
        <ele>309</ele>
        <time>2016-07-24T09:52:45.000Z</time>
      </trkpt>
      <trkpt lat="47.47704" lon="6.74348">
        <ele>309</ele>
        <time>2016-07-24T09:52:46.000Z</time>
      </trkpt>
      <trkpt lat="47.47704" lon="6.74356">
        <ele>309</ele>
        <time>2016-07-24T09:52:47.000Z</time>
      </trkpt>
      <trkpt lat="47.47705" lon="6.74365">
        <ele>309</ele>
        <time>2016-07-24T09:52:48.000Z</time>
      </trkpt>
      <trkpt lat="47.47707" lon="6.74374">
        <ele>309</ele>
        <time>2016-07-24T09:52:49.000Z</time>
      </trkpt>
      <trkpt lat="47.47707" lon="6.74383">
        <ele>309</ele>
        <time>2016-07-24T09:52:50.000Z</time>
      </trkpt>
      <trkpt lat="47.47709" lon="6.74391">
        <ele>309</ele>
        <time>2016-07-24T09:52:51.000Z</time>
      </trkpt>
      <trkpt lat="47.4771" lon="6.744">
        <ele>308</ele>
        <time>2016-07-24T09:52:52.000Z</time>
      </trkpt>
      <trkpt lat="47.47711" lon="6.74407">
        <ele>308</ele>
        <time>2016-07-24T09:52:53.000Z</time>
      </trkpt>
      <trkpt lat="47.47712" lon="6.74414">
        <ele>308</ele>
        <time>2016-07-24T09:52:54.000Z</time>
      </trkpt>
      <trkpt lat="47.47713" lon="6.74421">
        <ele>308</ele>
        <time>2016-07-24T09:52:55.000Z</time>
      </trkpt>
      <trkpt lat="47.47714" lon="6.74428">
        <ele>308</ele>
        <time>2016-07-24T09:52:56.000Z</time>
      </trkpt>
      <trkpt lat="47.47714" lon="6.74435">
        <ele>308</ele>
        <time>2016-07-24T09:52:57.000Z</time>
      </trkpt>
      <trkpt lat="47.47714" lon="6.74442">
        <ele>308</ele>
        <time>2016-07-24T09:52:58.000Z</time>
      </trkpt>
      <trkpt lat="47.47713" lon="6.74449">
        <ele>308</ele>
        <time>2016-07-24T09:52:59.000Z</time>
      </trkpt>
      <trkpt lat="47.47709" lon="6.74455">
        <ele>308</ele>
        <time>2016-07-24T09:53:00.000Z</time>
      </trkpt>
      <trkpt lat="47.47708" lon="6.74463">
        <ele>307</ele>
        <time>2016-07-24T09:53:01.000Z</time>
      </trkpt>
      <trkpt lat="47.47708" lon="6.74471">
        <ele>307</ele>
        <time>2016-07-24T09:53:02.000Z</time>
      </trkpt>
      <trkpt lat="47.47709" lon="6.74478">
        <ele>308</ele>
        <time>2016-07-24T09:53:03.000Z</time>
      </trkpt>
      <trkpt lat="47.4771" lon="6.74487">
        <ele>308</ele>
        <time>2016-07-24T09:53:04.000Z</time>
      </trkpt>
      <trkpt lat="47.47711" lon="6.74495">
        <ele>308</ele>
        <time>2016-07-24T09:53:05.000Z</time>
      </trkpt>
      <trkpt lat="47.47711" lon="6.74503">
        <ele>308</ele>
        <time>2016-07-24T09:53:06.000Z</time>
      </trkpt>
      <trkpt lat="47.47712" lon="6.74511">
        <ele>308</ele>
        <time>2016-07-24T09:53:07.000Z</time>
      </trkpt>
      <trkpt lat="47.47712" lon="6.74518">
        <ele>308</ele>
        <time>2016-07-24T09:53:08.000Z</time>
      </trkpt>
      <trkpt lat="47.47713" lon="6.74525">
        <ele>308</ele>
        <time>2016-07-24T09:53:09.000Z</time>
      </trkpt>
      <trkpt lat="47.47714" lon="6.74533">
        <ele>308</ele>
        <time>2016-07-24T09:53:10.000Z</time>
      </trkpt>
      <trkpt lat="47.47718" lon="6.7454">
        <ele>308</ele>
        <time>2016-07-24T09:53:11.000Z</time>
      </trkpt>
      <trkpt lat="47.4772" lon="6.74549">
        <ele>308</ele>
        <time>2016-07-24T09:53:12.000Z</time>
      </trkpt>
      <trkpt lat="47.47721" lon="6.74556">
        <ele>308</ele>
        <time>2016-07-24T09:53:13.000Z</time>
      </trkpt>
      <trkpt lat="47.47722" lon="6.74566">
        <ele>308</ele>
        <time>2016-07-24T09:53:14.000Z</time>
      </trkpt>
      <trkpt lat="47.47722" lon="6.74577">
        <ele>308</ele>
        <time>2016-07-24T09:53:15.000Z</time>
      </trkpt>
      <trkpt lat="47.47723" lon="6.74588">
        <ele>308</ele>
        <time>2016-07-24T09:53:16.000Z</time>
      </trkpt>
      <trkpt lat="47.47724" lon="6.74598">
        <ele>308</ele>
        <time>2016-07-24T09:53:17.000Z</time>
      </trkpt>
      <trkpt lat="47.47724" lon="6.74609">
        <ele>308</ele>
        <time>2016-07-24T09:53:18.000Z</time>
      </trkpt>
      <trkpt lat="47.47725" lon="6.74619">
        <ele>308</ele>
        <time>2016-07-24T09:53:19.000Z</time>
      </trkpt>
      <trkpt lat="47.47725" lon="6.74629">
        <ele>308</ele>
        <time>2016-07-24T09:53:20.000Z</time>
      </trkpt>
      <trkpt lat="47.47724" lon="6.74638">
        <ele>308</ele>
        <time>2016-07-24T09:53:21.000Z</time>
      </trkpt>
      <trkpt lat="47.47725" lon="6.74648">
        <ele>308</ele>
        <time>2016-07-24T09:53:22.000Z</time>
      </trkpt>
      <trkpt lat="47.47726" lon="6.74658">
        <ele>308</ele>
        <time>2016-07-24T09:53:23.000Z</time>
      </trkpt>
      <trkpt lat="47.47725" lon="6.74668">
        <ele>308</ele>
        <time>2016-07-24T09:53:24.000Z</time>
      </trkpt>
      <trkpt lat="47.47726" lon="6.74678">
        <ele>308</ele>
        <time>2016-07-24T09:53:25.000Z</time>
      </trkpt>
      <trkpt lat="47.47727" lon="6.74688">
        <ele>308</ele>
        <time>2016-07-24T09:53:26.000Z</time>
      </trkpt>
      <trkpt lat="47.47728" lon="6.74699">
        <ele>309</ele>
        <time>2016-07-24T09:53:27.000Z</time>
      </trkpt>
      <trkpt lat="47.47727" lon="6.74708">
        <ele>309</ele>
        <time>2016-07-24T09:53:28.000Z</time>
      </trkpt>
      <trkpt lat="47.47727" lon="6.74717">
        <ele>309</ele>
        <time>2016-07-24T09:53:29.000Z</time>
      </trkpt>
      <trkpt lat="47.47727" lon="6.74727">
        <ele>309</ele>
        <time>2016-07-24T09:53:30.000Z</time>
      </trkpt>
      <trkpt lat="47.47727" lon="6.74737">
        <ele>309</ele>
        <time>2016-07-24T09:53:31.000Z</time>
      </trkpt>
      <trkpt lat="47.47726" lon="6.74746">
        <ele>309</ele>
        <time>2016-07-24T09:53:32.000Z</time>
      </trkpt>
      <trkpt lat="47.47726" lon="6.74756">
        <ele>309</ele>
        <time>2016-07-24T09:53:33.000Z</time>
      </trkpt>
      <trkpt lat="47.47726" lon="6.74766">
        <ele>309</ele>
        <time>2016-07-24T09:53:34.000Z</time>
      </trkpt>
      <trkpt lat="47.47725" lon="6.74776">
        <ele>309</ele>
        <time>2016-07-24T09:53:35.000Z</time>
      </trkpt>
      <trkpt lat="47.47725" lon="6.74786">
        <ele>309</ele>
        <time>2016-07-24T09:53:36.000Z</time>
      </trkpt>
      <trkpt lat="47.47725" lon="6.74797">
        <ele>309</ele>
        <time>2016-07-24T09:53:37.000Z</time>
      </trkpt>
      <trkpt lat="47.47725" lon="6.74807">
        <ele>309</ele>
        <time>2016-07-24T09:53:38.000Z</time>
      </trkpt>
      <trkpt lat="47.47724" lon="6.74814">
        <ele>309</ele>
        <time>2016-07-24T09:53:39.000Z</time>
      </trkpt>
      <trkpt lat="47.47723" lon="6.74824">
        <ele>309</ele>
        <time>2016-07-24T09:53:40.000Z</time>
      </trkpt>
      <trkpt lat="47.47722" lon="6.74834">
        <ele>309</ele>
        <time>2016-07-24T09:53:41.000Z</time>
      </trkpt>
      <trkpt lat="47.47722" lon="6.74844">
        <ele>309</ele>
        <time>2016-07-24T09:53:42.000Z</time>
      </trkpt>
      <trkpt lat="47.47722" lon="6.74855">
        <ele>309</ele>
        <time>2016-07-24T09:53:43.000Z</time>
      </trkpt>
      <trkpt lat="47.47722" lon="6.74864">
        <ele>309</ele>
        <time>2016-07-24T09:53:44.000Z</time>
      </trkpt>
      <trkpt lat="47.47721" lon="6.74874">
        <ele>309</ele>
        <time>2016-07-24T09:53:45.000Z</time>
      </trkpt>
      <trkpt lat="47.4772" lon="6.74883">
        <ele>309</ele>
        <time>2016-07-24T09:53:46.000Z</time>
      </trkpt>
      <trkpt lat="47.4772" lon="6.74893">
        <ele>309</ele>
        <time>2016-07-24T09:53:47.000Z</time>
      </trkpt>
      <trkpt lat="47.47719" lon="6.74902">
        <ele>309</ele>
        <time>2016-07-24T09:53:48.000Z</time>
      </trkpt>
      <trkpt lat="47.47719" lon="6.74913">
        <ele>309</ele>
        <time>2016-07-24T09:53:49.000Z</time>
      </trkpt>
      <trkpt lat="47.47719" lon="6.74923">
        <ele>310</ele>
        <time>2016-07-24T09:53:50.000Z</time>
      </trkpt>
      <trkpt lat="47.47718" lon="6.74933">
        <ele>310</ele>
        <time>2016-07-24T09:53:51.000Z</time>
      </trkpt>
      <trkpt lat="47.47718" lon="6.74943">
        <ele>310</ele>
        <time>2016-07-24T09:53:52.000Z</time>
      </trkpt>
      <trkpt lat="47.47718" lon="6.74952">
        <ele>310</ele>
        <time>2016-07-24T09:53:53.000Z</time>
      </trkpt>
      <trkpt lat="47.47718" lon="6.74961">
        <ele>310</ele>
        <time>2016-07-24T09:53:54.000Z</time>
      </trkpt>
      <trkpt lat="47.47717" lon="6.74969">
        <ele>310</ele>
        <time>2016-07-24T09:53:55.000Z</time>
      </trkpt>
      <trkpt lat="47.47717" lon="6.74979">
        <ele>310</ele>
        <time>2016-07-24T09:53:56.000Z</time>
      </trkpt>
      <trkpt lat="47.47716" lon="6.74988">
        <ele>310</ele>
        <time>2016-07-24T09:53:57.000Z</time>
      </trkpt>
      <trkpt lat="47.47716" lon="6.74995">
        <ele>310</ele>
        <time>2016-07-24T09:53:58.000Z</time>
      </trkpt>
      <trkpt lat="47.47716" lon="6.75004">
        <ele>310</ele>
        <time>2016-07-24T09:53:59.000Z</time>
      </trkpt>
      <trkpt lat="47.47716" lon="6.75014">
        <ele>310</ele>
        <time>2016-07-24T09:54:00.000Z</time>
      </trkpt>
      <trkpt lat="47.47717" lon="6.75022">
        <ele>310</ele>
        <time>2016-07-24T09:54:01.000Z</time>
      </trkpt>
      <trkpt lat="47.47717" lon="6.75032">
        <ele>310</ele>
        <time>2016-07-24T09:54:02.000Z</time>
      </trkpt>
      <trkpt lat="47.47716" lon="6.75041">
        <ele>310</ele>
        <time>2016-07-24T09:54:03.000Z</time>
      </trkpt>
      <trkpt lat="47.47716" lon="6.7505">
        <ele>310</ele>
        <time>2016-07-24T09:54:04.000Z</time>
      </trkpt>
      <trkpt lat="47.47715" lon="6.7506">
        <ele>310</ele>
        <time>2016-07-24T09:54:05.000Z</time>
      </trkpt>
      <trkpt lat="47.47715" lon="6.75069">
        <ele>310</ele>
        <time>2016-07-24T09:54:06.000Z</time>
      </trkpt>
      <trkpt lat="47.47715" lon="6.75078">
        <ele>310</ele>
        <time>2016-07-24T09:54:07.000Z</time>
      </trkpt>
      <trkpt lat="47.47715" lon="6.7509">
        <ele>310</ele>
        <time>2016-07-24T09:54:08.000Z</time>
      </trkpt>
      <trkpt lat="47.47715" lon="6.751">
        <ele>310</ele>
        <time>2016-07-24T09:54:09.000Z</time>
      </trkpt>
      <trkpt lat="47.47715" lon="6.7511">
        <ele>310</ele>
        <time>2016-07-24T09:54:10.000Z</time>
      </trkpt>
      <trkpt lat="47.47716" lon="6.75119">
        <ele>310</ele>
        <time>2016-07-24T09:54:11.000Z</time>
      </trkpt>
      <trkpt lat="47.47715" lon="6.7513">
        <ele>310</ele>
        <time>2016-07-24T09:54:12.000Z</time>
      </trkpt>
      <trkpt lat="47.47716" lon="6.75138">
        <ele>310</ele>
        <time>2016-07-24T09:54:13.000Z</time>
      </trkpt>
      <trkpt lat="47.47715" lon="6.75148">
        <ele>310</ele>
        <time>2016-07-24T09:54:14.000Z</time>
      </trkpt>
      <trkpt lat="47.47716" lon="6.75156">
        <ele>310</ele>
        <time>2016-07-24T09:54:15.000Z</time>
      </trkpt>
      <trkpt lat="47.47715" lon="6.75165">
        <ele>310</ele>
        <time>2016-07-24T09:54:16.000Z</time>
      </trkpt>
      <trkpt lat="47.47715" lon="6.75174">
        <ele>310</ele>
        <time>2016-07-24T09:54:17.000Z</time>
      </trkpt>
      <trkpt lat="47.47714" lon="6.75183">
        <ele>311</ele>
        <time>2016-07-24T09:54:18.000Z</time>
      </trkpt>
      <trkpt lat="47.47714" lon="6.75193">
        <ele>311</ele>
        <time>2016-07-24T09:54:19.000Z</time>
      </trkpt>
      <trkpt lat="47.47716" lon="6.75203">
        <ele>311</ele>
        <time>2016-07-24T09:54:20.000Z</time>
      </trkpt>
      <trkpt lat="47.47714" lon="6.75212">
        <ele>311</ele>
        <time>2016-07-24T09:54:21.000Z</time>
      </trkpt>
      <trkpt lat="47.47713" lon="6.75223">
        <ele>311</ele>
        <time>2016-07-24T09:54:22.000Z</time>
      </trkpt>
      <trkpt lat="47.47713" lon="6.75232">
        <ele>311</ele>
        <time>2016-07-24T09:54:23.000Z</time>
      </trkpt>
      <trkpt lat="47.47713" lon="6.7524">
        <ele>311</ele>
        <time>2016-07-24T09:54:24.000Z</time>
      </trkpt>
      <trkpt lat="47.47714" lon="6.7525">
        <ele>311</ele>
        <time>2016-07-24T09:54:25.000Z</time>
      </trkpt>
      <trkpt lat="47.47713" lon="6.75258">
        <ele>310</ele>
        <time>2016-07-24T09:54:26.000Z</time>
      </trkpt>
      <trkpt lat="47.47713" lon="6.7527">
        <ele>310</ele>
        <time>2016-07-24T09:54:27.000Z</time>
      </trkpt>
      <trkpt lat="47.47713" lon="6.7528">
        <ele>310</ele>
        <time>2016-07-24T09:54:28.000Z</time>
      </trkpt>
      <trkpt lat="47.47712" lon="6.75289">
        <ele>310</ele>
        <time>2016-07-24T09:54:29.000Z</time>
      </trkpt>
      <trkpt lat="47.47711" lon="6.75299">
        <ele>310</ele>
        <time>2016-07-24T09:54:30.000Z</time>
      </trkpt>
      <trkpt lat="47.47711" lon="6.75309">
        <ele>310</ele>
        <time>2016-07-24T09:54:31.000Z</time>
      </trkpt>
      <trkpt lat="47.47711" lon="6.75319">
        <ele>310</ele>
        <time>2016-07-24T09:54:32.000Z</time>
      </trkpt>
      <trkpt lat="47.47711" lon="6.75329">
        <ele>310</ele>
        <time>2016-07-24T09:54:33.000Z</time>
      </trkpt>
      <trkpt lat="47.4771" lon="6.75338">
        <ele>309</ele>
        <time>2016-07-24T09:54:34.000Z</time>
      </trkpt>
      <trkpt lat="47.47709" lon="6.75348">
        <ele>309</ele>
        <time>2016-07-24T09:54:35.000Z</time>
      </trkpt>
      <trkpt lat="47.47709" lon="6.75357">
        <ele>309</ele>
        <time>2016-07-24T09:54:36.000Z</time>
      </trkpt>
      <trkpt lat="47.47708" lon="6.75368">
        <ele>309</ele>
        <time>2016-07-24T09:54:37.000Z</time>
      </trkpt>
      <trkpt lat="47.47708" lon="6.75377">
        <ele>309</ele>
        <time>2016-07-24T09:54:38.000Z</time>
      </trkpt>
      <trkpt lat="47.47708" lon="6.75386">
        <ele>309</ele>
        <time>2016-07-24T09:54:39.000Z</time>
      </trkpt>
      <trkpt lat="47.47708" lon="6.75399">
        <ele>309</ele>
        <time>2016-07-24T09:54:40.000Z</time>
      </trkpt>
      <trkpt lat="47.47707" lon="6.75408">
        <ele>309</ele>
        <time>2016-07-24T09:54:41.000Z</time>
      </trkpt>
      <trkpt lat="47.47708" lon="6.7542">
        <ele>309</ele>
        <time>2016-07-24T09:54:42.000Z</time>
      </trkpt>
      <trkpt lat="47.47709" lon="6.75431">
        <ele>308</ele>
        <time>2016-07-24T09:54:43.000Z</time>
      </trkpt>
      <trkpt lat="47.47708" lon="6.75441">
        <ele>309</ele>
        <time>2016-07-24T09:54:44.000Z</time>
      </trkpt>
      <trkpt lat="47.47707" lon="6.75451">
        <ele>309</ele>
        <time>2016-07-24T09:54:45.000Z</time>
      </trkpt>
      <trkpt lat="47.47706" lon="6.75462">
        <ele>309</ele>
        <time>2016-07-24T09:54:46.000Z</time>
      </trkpt>
      <trkpt lat="47.47704" lon="6.75474">
        <ele>309</ele>
        <time>2016-07-24T09:54:47.000Z</time>
      </trkpt>
      <trkpt lat="47.47703" lon="6.75483">
        <ele>309</ele>
        <time>2016-07-24T09:54:48.000Z</time>
      </trkpt>
      <trkpt lat="47.47703" lon="6.75493">
        <ele>309</ele>
        <time>2016-07-24T09:54:49.000Z</time>
      </trkpt>
      <trkpt lat="47.47704" lon="6.75503">
        <ele>309</ele>
        <time>2016-07-24T09:54:50.000Z</time>
      </trkpt>
      <trkpt lat="47.47704" lon="6.75513">
        <ele>309</ele>
        <time>2016-07-24T09:54:51.000Z</time>
      </trkpt>
      <trkpt lat="47.47702" lon="6.75519">
        <ele>309</ele>
        <time>2016-07-24T09:54:52.000Z</time>
      </trkpt>
      <trkpt lat="47.47702" lon="6.75527">
        <ele>309</ele>
        <time>2016-07-24T09:54:53.000Z</time>
      </trkpt>
      <trkpt lat="47.47701" lon="6.75535">
        <ele>309</ele>
        <time>2016-07-24T09:54:54.000Z</time>
      </trkpt>
      <trkpt lat="47.47701" lon="6.75544">
        <ele>309</ele>
        <time>2016-07-24T09:54:55.000Z</time>
      </trkpt>
      <trkpt lat="47.477" lon="6.75554">
        <ele>309</ele>
        <time>2016-07-24T09:54:56.000Z</time>
      </trkpt>
      <trkpt lat="47.477" lon="6.75564">
        <ele>309</ele>
        <time>2016-07-24T09:54:57.000Z</time>
      </trkpt>
      <trkpt lat="47.477" lon="6.75574">
        <ele>309</ele>
        <time>2016-07-24T09:54:58.000Z</time>
      </trkpt>
      <trkpt lat="47.47701" lon="6.75581">
        <ele>309</ele>
        <time>2016-07-24T09:54:59.000Z</time>
      </trkpt>
      <trkpt lat="47.477" lon="6.75588">
        <ele>309</ele>
        <time>2016-07-24T09:55:00.000Z</time>
      </trkpt>
      <trkpt lat="47.47701" lon="6.75596">
        <ele>309</ele>
        <time>2016-07-24T09:55:01.000Z</time>
      </trkpt>
      <trkpt lat="47.47701" lon="6.75604">
        <ele>309</ele>
        <time>2016-07-24T09:55:02.000Z</time>
      </trkpt>
      <trkpt lat="47.47702" lon="6.75611">
        <ele>309</ele>
        <time>2016-07-24T09:55:03.000Z</time>
      </trkpt>
      <trkpt lat="47.47702" lon="6.75619">
        <ele>309</ele>
        <time>2016-07-24T09:55:04.000Z</time>
      </trkpt>
      <trkpt lat="47.47703" lon="6.75625">
        <ele>309</ele>
        <time>2016-07-24T09:55:05.000Z</time>
      </trkpt>
      <trkpt lat="47.47702" lon="6.75632">
        <ele>309</ele>
        <time>2016-07-24T09:55:06.000Z</time>
      </trkpt>
      <trkpt lat="47.47703" lon="6.75639">
        <ele>309</ele>
        <time>2016-07-24T09:55:07.000Z</time>
      </trkpt>
      <trkpt lat="47.47703" lon="6.75648">
        <ele>309</ele>
        <time>2016-07-24T09:55:08.000Z</time>
      </trkpt>
      <trkpt lat="47.47702" lon="6.75658">
        <ele>309</ele>
        <time>2016-07-24T09:55:09.000Z</time>
      </trkpt>
      <trkpt lat="47.47703" lon="6.75667">
        <ele>309</ele>
        <time>2016-07-24T09:55:10.000Z</time>
      </trkpt>
      <trkpt lat="47.47702" lon="6.75675">
        <ele>310</ele>
        <time>2016-07-24T09:55:11.000Z</time>
      </trkpt>
      <trkpt lat="47.47701" lon="6.75682">
        <ele>310</ele>
        <time>2016-07-24T09:55:12.000Z</time>
      </trkpt>
      <trkpt lat="47.47701" lon="6.75689">
        <ele>310</ele>
        <time>2016-07-24T09:55:13.000Z</time>
      </trkpt>
      <trkpt lat="47.47701" lon="6.75695">
        <ele>310</ele>
        <time>2016-07-24T09:55:14.000Z</time>
      </trkpt>
      <trkpt lat="47.47702" lon="6.757">
        <ele>310</ele>
        <time>2016-07-24T09:55:15.000Z</time>
      </trkpt>
      <trkpt lat="47.47701" lon="6.75705">
        <ele>310</ele>
        <time>2016-07-24T09:55:16.000Z</time>
      </trkpt>
      <trkpt lat="47.47701" lon="6.75709">
        <ele>310</ele>
        <time>2016-07-24T09:55:17.000Z</time>
      </trkpt>
      <trkpt lat="47.47699" lon="6.75716">
        <ele>310</ele>
        <time>2016-07-24T09:55:18.000Z</time>
      </trkpt>
      <trkpt lat="47.47698" lon="6.75722">
        <ele>310</ele>
        <time>2016-07-24T09:55:19.000Z</time>
      </trkpt>
      <trkpt lat="47.47697" lon="6.75729">
        <ele>310</ele>
        <time>2016-07-24T09:55:20.000Z</time>
      </trkpt>
      <trkpt lat="47.47696" lon="6.75738">
        <ele>310</ele>
        <time>2016-07-24T09:55:21.000Z</time>
      </trkpt>
      <trkpt lat="47.47696" lon="6.75746">
        <ele>310</ele>
        <time>2016-07-24T09:55:22.000Z</time>
      </trkpt>
      <trkpt lat="47.47695" lon="6.75756">
        <ele>310</ele>
        <time>2016-07-24T09:55:23.000Z</time>
      </trkpt>
      <trkpt lat="47.47695" lon="6.75765">
        <ele>310</ele>
        <time>2016-07-24T09:55:24.000Z</time>
      </trkpt>
      <trkpt lat="47.47695" lon="6.75773">
        <ele>310</ele>
        <time>2016-07-24T09:55:25.000Z</time>
      </trkpt>
      <trkpt lat="47.47694" lon="6.75775">
        <ele>310</ele>
        <time>2016-07-24T09:55:26.000Z</time>
      </trkpt>
      <trkpt lat="47.47692" lon="6.7578">
        <ele>310</ele>
        <time>2016-07-24T09:55:27.000Z</time>
      </trkpt>
      <trkpt lat="47.47692" lon="6.75785">
        <ele>310</ele>
        <time>2016-07-24T09:55:28.000Z</time>
      </trkpt>
      <trkpt lat="47.47695" lon="6.75789">
        <ele>310</ele>
        <time>2016-07-24T09:55:29.000Z</time>
      </trkpt>
      <trkpt lat="47.47696" lon="6.75794">
        <ele>310</ele>
        <time>2016-07-24T09:55:30.000Z</time>
      </trkpt>
      <trkpt lat="47.47695" lon="6.75801">
        <ele>310</ele>
        <time>2016-07-24T09:55:31.000Z</time>
      </trkpt>
      <trkpt lat="47.47695" lon="6.75806">
        <ele>310</ele>
        <time>2016-07-24T09:55:32.000Z</time>
      </trkpt>
      <trkpt lat="47.47694" lon="6.7581">
        <ele>310</ele>
        <time>2016-07-24T09:55:33.000Z</time>
      </trkpt>
      <trkpt lat="47.47694" lon="6.75813">
        <ele>310</ele>
        <time>2016-07-24T09:55:34.000Z</time>
      </trkpt>
      <trkpt lat="47.47694" lon="6.75818">
        <ele>310</ele>
        <time>2016-07-24T09:55:35.000Z</time>
      </trkpt>
      <trkpt lat="47.47693" lon="6.75824">
        <ele>310</ele>
        <time>2016-07-24T09:55:36.000Z</time>
      </trkpt>
      <trkpt lat="47.47693" lon="6.75831">
        <ele>310</ele>
        <time>2016-07-24T09:55:37.000Z</time>
      </trkpt>
      <trkpt lat="47.47693" lon="6.75845">
        <ele>311</ele>
        <time>2016-07-24T09:55:38.000Z</time>
      </trkpt>
      <trkpt lat="47.47693" lon="6.75853">
        <ele>311</ele>
        <time>2016-07-24T09:55:39.000Z</time>
      </trkpt>
      <trkpt lat="47.47692" lon="6.75863">
        <ele>311</ele>
        <time>2016-07-24T09:55:40.000Z</time>
      </trkpt>
      <trkpt lat="47.47692" lon="6.75871">
        <ele>311</ele>
        <time>2016-07-24T09:55:41.000Z</time>
      </trkpt>
      <trkpt lat="47.47691" lon="6.75878">
        <ele>311</ele>
        <time>2016-07-24T09:55:42.000Z</time>
      </trkpt>
      <trkpt lat="47.47691" lon="6.75886">
        <ele>311</ele>
        <time>2016-07-24T09:55:43.000Z</time>
      </trkpt>
      <trkpt lat="47.47691" lon="6.75896">
        <ele>311</ele>
        <time>2016-07-24T09:55:44.000Z</time>
      </trkpt>
      <trkpt lat="47.47691" lon="6.75904">
        <ele>311</ele>
        <time>2016-07-24T09:55:45.000Z</time>
      </trkpt>
      <trkpt lat="47.4769" lon="6.75912">
        <ele>311</ele>
        <time>2016-07-24T09:55:46.000Z</time>
      </trkpt>
      <trkpt lat="47.47689" lon="6.75921">
        <ele>311</ele>
        <time>2016-07-24T09:55:47.000Z</time>
      </trkpt>
      <trkpt lat="47.47689" lon="6.75929">
        <ele>311</ele>
        <time>2016-07-24T09:55:48.000Z</time>
      </trkpt>
      <trkpt lat="47.47688" lon="6.75936">
        <ele>311</ele>
        <time>2016-07-24T09:55:49.000Z</time>
      </trkpt>
      <trkpt lat="47.47686" lon="6.75943">
        <ele>311</ele>
        <time>2016-07-24T09:55:50.000Z</time>
      </trkpt>
      <trkpt lat="47.47684" lon="6.75949">
        <ele>311</ele>
        <time>2016-07-24T09:55:51.000Z</time>
      </trkpt>
      <trkpt lat="47.47682" lon="6.75955">
        <ele>311</ele>
        <time>2016-07-24T09:55:52.000Z</time>
      </trkpt>
      <trkpt lat="47.47678" lon="6.75962">
        <ele>311</ele>
        <time>2016-07-24T09:55:53.000Z</time>
      </trkpt>
      <trkpt lat="47.47673" lon="6.7597">
        <ele>311</ele>
        <time>2016-07-24T09:55:54.000Z</time>
      </trkpt>
      <trkpt lat="47.4767" lon="6.75977">
        <ele>312</ele>
        <time>2016-07-24T09:55:55.000Z</time>
      </trkpt>
      <trkpt lat="47.47668" lon="6.75984">
        <ele>312</ele>
        <time>2016-07-24T09:55:56.000Z</time>
      </trkpt>
      <trkpt lat="47.47666" lon="6.75991">
        <ele>312</ele>
        <time>2016-07-24T09:55:57.000Z</time>
      </trkpt>
      <trkpt lat="47.47664" lon="6.75999">
        <ele>312</ele>
        <time>2016-07-24T09:55:58.000Z</time>
      </trkpt>
      <trkpt lat="47.47662" lon="6.76007">
        <ele>312</ele>
        <time>2016-07-24T09:55:59.000Z</time>
      </trkpt>
      <trkpt lat="47.47661" lon="6.76015">
        <ele>311</ele>
        <time>2016-07-24T09:56:00.000Z</time>
      </trkpt>
      <trkpt lat="47.4766" lon="6.76023">
        <ele>311</ele>
        <time>2016-07-24T09:56:01.000Z</time>
      </trkpt>
      <trkpt lat="47.4766" lon="6.7603">
        <ele>311</ele>
        <time>2016-07-24T09:56:02.000Z</time>
      </trkpt>
      <trkpt lat="47.4766" lon="6.76038">
        <ele>311</ele>
        <time>2016-07-24T09:56:03.000Z</time>
      </trkpt>
      <trkpt lat="47.4766" lon="6.76045">
        <ele>311</ele>
        <time>2016-07-24T09:56:04.000Z</time>
      </trkpt>
      <trkpt lat="47.47663" lon="6.76052">
        <ele>311</ele>
        <time>2016-07-24T09:56:05.000Z</time>
      </trkpt>
      <trkpt lat="47.47665" lon="6.76059">
        <ele>311</ele>
        <time>2016-07-24T09:56:06.000Z</time>
      </trkpt>
      <trkpt lat="47.47667" lon="6.76065">
        <ele>311</ele>
        <time>2016-07-24T09:56:07.000Z</time>
      </trkpt>
      <trkpt lat="47.47669" lon="6.76071">
        <ele>311</ele>
        <time>2016-07-24T09:56:08.000Z</time>
      </trkpt>
      <trkpt lat="47.47671" lon="6.76079">
        <ele>311</ele>
        <time>2016-07-24T09:56:09.000Z</time>
      </trkpt>
      <trkpt lat="47.47674" lon="6.76087">
        <ele>311</ele>
        <time>2016-07-24T09:56:10.000Z</time>
      </trkpt>
      <trkpt lat="47.47677" lon="6.76092">
        <ele>310</ele>
        <time>2016-07-24T09:56:11.000Z</time>
      </trkpt>
      <trkpt lat="47.4768" lon="6.761">
        <ele>310</ele>
        <time>2016-07-24T09:56:12.000Z</time>
      </trkpt>
      <trkpt lat="47.47684" lon="6.76105">
        <ele>310</ele>
        <time>2016-07-24T09:56:13.000Z</time>
      </trkpt>
      <trkpt lat="47.47688" lon="6.76111">
        <ele>310</ele>
        <time>2016-07-24T09:56:14.000Z</time>
      </trkpt>
      <trkpt lat="47.47691" lon="6.76118">
        <ele>310</ele>
        <time>2016-07-24T09:56:15.000Z</time>
      </trkpt>
      <trkpt lat="47.47695" lon="6.76124">
        <ele>310</ele>
        <time>2016-07-24T09:56:16.000Z</time>
      </trkpt>
      <trkpt lat="47.47698" lon="6.76132">
        <ele>310</ele>
        <time>2016-07-24T09:56:17.000Z</time>
      </trkpt>
      <trkpt lat="47.47703" lon="6.76138">
        <ele>310</ele>
        <time>2016-07-24T09:56:18.000Z</time>
      </trkpt>
      <trkpt lat="47.47707" lon="6.76145">
        <ele>309</ele>
        <time>2016-07-24T09:56:19.000Z</time>
      </trkpt>
      <trkpt lat="47.47711" lon="6.7615">
        <ele>309</ele>
        <time>2016-07-24T09:56:20.000Z</time>
      </trkpt>
      <trkpt lat="47.47714" lon="6.76155">
        <ele>309</ele>
        <time>2016-07-24T09:56:21.000Z</time>
      </trkpt>
      <trkpt lat="47.47719" lon="6.76159">
        <ele>309</ele>
        <time>2016-07-24T09:56:22.000Z</time>
      </trkpt>
      <trkpt lat="47.47723" lon="6.76165">
        <ele>309</ele>
        <time>2016-07-24T09:56:23.000Z</time>
      </trkpt>
      <trkpt lat="47.47727" lon="6.76172">
        <ele>309</ele>
        <time>2016-07-24T09:56:24.000Z</time>
      </trkpt>
      <trkpt lat="47.4773" lon="6.76178">
        <ele>309</ele>
        <time>2016-07-24T09:56:25.000Z</time>
      </trkpt>
      <trkpt lat="47.47735" lon="6.76183">
        <ele>309</ele>
        <time>2016-07-24T09:56:26.000Z</time>
      </trkpt>
      <trkpt lat="47.47739" lon="6.76188">
        <ele>309</ele>
        <time>2016-07-24T09:56:27.000Z</time>
      </trkpt>
      <trkpt lat="47.47743" lon="6.76194">
        <ele>309</ele>
        <time>2016-07-24T09:56:28.000Z</time>
      </trkpt>
      <trkpt lat="47.47747" lon="6.762">
        <ele>309</ele>
        <time>2016-07-24T09:56:29.000Z</time>
      </trkpt>
      <trkpt lat="47.47751" lon="6.76206">
        <ele>309</ele>
        <time>2016-07-24T09:56:30.000Z</time>
      </trkpt>
      <trkpt lat="47.47754" lon="6.76212">
        <ele>309</ele>
        <time>2016-07-24T09:56:31.000Z</time>
      </trkpt>
      <trkpt lat="47.47757" lon="6.76217">
        <ele>309</ele>
        <time>2016-07-24T09:56:32.000Z</time>
      </trkpt>
      <trkpt lat="47.4776" lon="6.76223">
        <ele>309</ele>
        <time>2016-07-24T09:56:33.000Z</time>
      </trkpt>
      <trkpt lat="47.47763" lon="6.76229">
        <ele>309</ele>
        <time>2016-07-24T09:56:34.000Z</time>
      </trkpt>
      <trkpt lat="47.47766" lon="6.76235">
        <ele>309</ele>
        <time>2016-07-24T09:56:35.000Z</time>
      </trkpt>
      <trkpt lat="47.4777" lon="6.7624">
        <ele>309</ele>
        <time>2016-07-24T09:56:36.000Z</time>
      </trkpt>
      <trkpt lat="47.47775" lon="6.76245">
        <ele>309</ele>
        <time>2016-07-24T09:56:37.000Z</time>
      </trkpt>
      <trkpt lat="47.4778" lon="6.76249">
        <ele>309</ele>
        <time>2016-07-24T09:56:38.000Z</time>
      </trkpt>
      <trkpt lat="47.47785" lon="6.76253">
        <ele>310</ele>
        <time>2016-07-24T09:56:39.000Z</time>
      </trkpt>
      <trkpt lat="47.4779" lon="6.76256">
        <ele>310</ele>
        <time>2016-07-24T09:56:40.000Z</time>
      </trkpt>
      <trkpt lat="47.47794" lon="6.76259">
        <ele>310</ele>
        <time>2016-07-24T09:56:41.000Z</time>
      </trkpt>
      <trkpt lat="47.47799" lon="6.76262">
        <ele>310</ele>
        <time>2016-07-24T09:56:42.000Z</time>
      </trkpt>
      <trkpt lat="47.47805" lon="6.76264">
        <ele>310</ele>
        <time>2016-07-24T09:56:43.000Z</time>
      </trkpt>
      <trkpt lat="47.4781" lon="6.76267">
        <ele>310</ele>
        <time>2016-07-24T09:56:44.000Z</time>
      </trkpt>
      <trkpt lat="47.47816" lon="6.7627">
        <ele>310</ele>
        <time>2016-07-24T09:56:45.000Z</time>
      </trkpt>
      <trkpt lat="47.47821" lon="6.76274">
        <ele>310</ele>
        <time>2016-07-24T09:56:46.000Z</time>
      </trkpt>
      <trkpt lat="47.47827" lon="6.76278">
        <ele>310</ele>
        <time>2016-07-24T09:56:47.000Z</time>
      </trkpt>
      <trkpt lat="47.47832" lon="6.76285">
        <ele>310</ele>
        <time>2016-07-24T09:56:48.000Z</time>
      </trkpt>
      <trkpt lat="47.47836" lon="6.76292">
        <ele>311</ele>
        <time>2016-07-24T09:56:49.000Z</time>
      </trkpt>
      <trkpt lat="47.47841" lon="6.76298">
        <ele>311</ele>
        <time>2016-07-24T09:56:50.000Z</time>
      </trkpt>
      <trkpt lat="47.47844" lon="6.76306">
        <ele>311</ele>
        <time>2016-07-24T09:56:51.000Z</time>
      </trkpt>
      <trkpt lat="47.47848" lon="6.76312">
        <ele>311</ele>
        <time>2016-07-24T09:56:52.000Z</time>
      </trkpt>
      <trkpt lat="47.47852" lon="6.76318">
        <ele>311</ele>
        <time>2016-07-24T09:56:53.000Z</time>
      </trkpt>
      <trkpt lat="47.47856" lon="6.76325">
        <ele>311</ele>
        <time>2016-07-24T09:56:54.000Z</time>
      </trkpt>
      <trkpt lat="47.4786" lon="6.76332">
        <ele>311</ele>
        <time>2016-07-24T09:56:55.000Z</time>
      </trkpt>
      <trkpt lat="47.47864" lon="6.76337">
        <ele>311</ele>
        <time>2016-07-24T09:56:56.000Z</time>
      </trkpt>
      <trkpt lat="47.47867" lon="6.76344">
        <ele>311</ele>
        <time>2016-07-24T09:56:57.000Z</time>
      </trkpt>
      <trkpt lat="47.4787" lon="6.7635">
        <ele>311</ele>
        <time>2016-07-24T09:56:58.000Z</time>
      </trkpt>
      <trkpt lat="47.47873" lon="6.76356">
        <ele>311</ele>
        <time>2016-07-24T09:56:59.000Z</time>
      </trkpt>
      <trkpt lat="47.47877" lon="6.76362">
        <ele>311</ele>
        <time>2016-07-24T09:57:00.000Z</time>
      </trkpt>
      <trkpt lat="47.47881" lon="6.76369">
        <ele>311</ele>
        <time>2016-07-24T09:57:01.000Z</time>
      </trkpt>
      <trkpt lat="47.47884" lon="6.76375">
        <ele>311</ele>
        <time>2016-07-24T09:57:02.000Z</time>
      </trkpt>
      <trkpt lat="47.47887" lon="6.76382">
        <ele>311</ele>
        <time>2016-07-24T09:57:03.000Z</time>
      </trkpt>
      <trkpt lat="47.4789" lon="6.7639">
        <ele>311</ele>
        <time>2016-07-24T09:57:04.000Z</time>
      </trkpt>
      <trkpt lat="47.47893" lon="6.76398">
        <ele>311</ele>
        <time>2016-07-24T09:57:05.000Z</time>
      </trkpt>
      <trkpt lat="47.47895" lon="6.76405">
        <ele>311</ele>
        <time>2016-07-24T09:57:06.000Z</time>
      </trkpt>
      <trkpt lat="47.47899" lon="6.76412">
        <ele>311</ele>
        <time>2016-07-24T09:57:07.000Z</time>
      </trkpt>
      <trkpt lat="47.47901" lon="6.76419">
        <ele>311</ele>
        <time>2016-07-24T09:57:08.000Z</time>
      </trkpt>
      <trkpt lat="47.47903" lon="6.76426">
        <ele>311</ele>
        <time>2016-07-24T09:57:09.000Z</time>
      </trkpt>
      <trkpt lat="47.47906" lon="6.76434">
        <ele>311</ele>
        <time>2016-07-24T09:57:10.000Z</time>
      </trkpt>
      <trkpt lat="47.47908" lon="6.76441">
        <ele>311</ele>
        <time>2016-07-24T09:57:11.000Z</time>
      </trkpt>
      <trkpt lat="47.47911" lon="6.76451">
        <ele>311</ele>
        <time>2016-07-24T09:57:12.000Z</time>
      </trkpt>
      <trkpt lat="47.47913" lon="6.76459">
        <ele>311</ele>
        <time>2016-07-24T09:57:13.000Z</time>
      </trkpt>
      <trkpt lat="47.47915" lon="6.76467">
        <ele>310</ele>
        <time>2016-07-24T09:57:14.000Z</time>
      </trkpt>
      <trkpt lat="47.47917" lon="6.76475">
        <ele>311</ele>
        <time>2016-07-24T09:57:15.000Z</time>
      </trkpt>
      <trkpt lat="47.47918" lon="6.76482">
        <ele>311</ele>
        <time>2016-07-24T09:57:16.000Z</time>
      </trkpt>
      <trkpt lat="47.47919" lon="6.7649">
        <ele>310</ele>
        <time>2016-07-24T09:57:17.000Z</time>
      </trkpt>
      <trkpt lat="47.47921" lon="6.76498">
        <ele>310</ele>
        <time>2016-07-24T09:57:18.000Z</time>
      </trkpt>
      <trkpt lat="47.47923" lon="6.76506">
        <ele>310</ele>
        <time>2016-07-24T09:57:19.000Z</time>
      </trkpt>
      <trkpt lat="47.47924" lon="6.76513">
        <ele>310</ele>
        <time>2016-07-24T09:57:20.000Z</time>
      </trkpt>
      <trkpt lat="47.47926" lon="6.76521">
        <ele>311</ele>
        <time>2016-07-24T09:57:21.000Z</time>
      </trkpt>
      <trkpt lat="47.47928" lon="6.7653">
        <ele>311</ele>
        <time>2016-07-24T09:57:22.000Z</time>
      </trkpt>
      <trkpt lat="47.4793" lon="6.76537">
        <ele>311</ele>
        <time>2016-07-24T09:57:23.000Z</time>
      </trkpt>
      <trkpt lat="47.47933" lon="6.76546">
        <ele>311</ele>
        <time>2016-07-24T09:57:24.000Z</time>
      </trkpt>
      <trkpt lat="47.47934" lon="6.76554">
        <ele>311</ele>
        <time>2016-07-24T09:57:25.000Z</time>
      </trkpt>
      <trkpt lat="47.47936" lon="6.76562">
        <ele>311</ele>
        <time>2016-07-24T09:57:26.000Z</time>
      </trkpt>
      <trkpt lat="47.47939" lon="6.7657">
        <ele>311</ele>
        <time>2016-07-24T09:57:27.000Z</time>
      </trkpt>
      <trkpt lat="47.47941" lon="6.76578">
        <ele>311</ele>
        <time>2016-07-24T09:57:28.000Z</time>
      </trkpt>
      <trkpt lat="47.47942" lon="6.76587">
        <ele>311</ele>
        <time>2016-07-24T09:57:29.000Z</time>
      </trkpt>
      <trkpt lat="47.47942" lon="6.76596">
        <ele>311</ele>
        <time>2016-07-24T09:57:30.000Z</time>
      </trkpt>
      <trkpt lat="47.47943" lon="6.76604">
        <ele>311</ele>
        <time>2016-07-24T09:57:31.000Z</time>
      </trkpt>
      <trkpt lat="47.47944" lon="6.76609">
        <ele>311</ele>
        <time>2016-07-24T09:57:32.000Z</time>
      </trkpt>
      <trkpt lat="47.47946" lon="6.76615">
        <ele>311</ele>
        <time>2016-07-24T09:57:33.000Z</time>
      </trkpt>
      <trkpt lat="47.47948" lon="6.7662">
        <ele>311</ele>
        <time>2016-07-24T09:57:35.000Z</time>
      </trkpt>
      <trkpt lat="47.47949" lon="6.76621">
        <ele>311</ele>
        <time>2016-07-24T09:57:36.000Z</time>
      </trkpt>
      <trkpt lat="47.4795" lon="6.76623">
        <ele>311</ele>
        <time>2016-07-24T09:57:37.000Z</time>
      </trkpt>
      <trkpt lat="47.47953" lon="6.76624">
        <ele>311</ele>
        <time>2016-07-24T09:57:38.000Z</time>
      </trkpt>
      <trkpt lat="47.47956" lon="6.76625">
        <ele>311</ele>
        <time>2016-07-24T09:57:39.000Z</time>
      </trkpt>
      <trkpt lat="47.4796" lon="6.76625">
        <ele>311</ele>
        <time>2016-07-24T09:57:40.000Z</time>
      </trkpt>
      <trkpt lat="47.47963" lon="6.76626">
        <ele>311</ele>
        <time>2016-07-24T09:57:41.000Z</time>
      </trkpt>
      <trkpt lat="47.47966" lon="6.76625">
        <ele>311</ele>
        <time>2016-07-24T09:57:42.000Z</time>
      </trkpt>
      <trkpt lat="47.47969" lon="6.76623">
        <ele>311</ele>
        <time>2016-07-24T09:57:43.000Z</time>
      </trkpt>
      <trkpt lat="47.47972" lon="6.76621">
        <ele>311</ele>
        <time>2016-07-24T09:57:44.000Z</time>
      </trkpt>
      <trkpt lat="47.47975" lon="6.76619">
        <ele>311</ele>
        <time>2016-07-24T09:57:45.000Z</time>
      </trkpt>
      <trkpt lat="47.47979" lon="6.76617">
        <ele>311</ele>
        <time>2016-07-24T09:57:46.000Z</time>
      </trkpt>
      <trkpt lat="47.47983" lon="6.76615">
        <ele>311</ele>
        <time>2016-07-24T09:57:47.000Z</time>
      </trkpt>
      <trkpt lat="47.47987" lon="6.76612">
        <ele>311</ele>
        <time>2016-07-24T09:57:48.000Z</time>
      </trkpt>
      <trkpt lat="47.4799" lon="6.7661">
        <ele>312</ele>
        <time>2016-07-24T09:57:49.000Z</time>
      </trkpt>
      <trkpt lat="47.47994" lon="6.76607">
        <ele>312</ele>
        <time>2016-07-24T09:57:50.000Z</time>
      </trkpt>
      <trkpt lat="47.47997" lon="6.76605">
        <ele>312</ele>
        <time>2016-07-24T09:57:51.000Z</time>
      </trkpt>
      <trkpt lat="47.48001" lon="6.76603">
        <ele>312</ele>
        <time>2016-07-24T09:57:52.000Z</time>
      </trkpt>
      <trkpt lat="47.48004" lon="6.766">
        <ele>312</ele>
        <time>2016-07-24T09:57:53.000Z</time>
      </trkpt>
      <trkpt lat="47.48008" lon="6.76598">
        <ele>312</ele>
        <time>2016-07-24T09:57:54.000Z</time>
      </trkpt>
      <trkpt lat="47.48011" lon="6.76595">
        <ele>312</ele>
        <time>2016-07-24T09:57:55.000Z</time>
      </trkpt>
      <trkpt lat="47.48015" lon="6.76593">
        <ele>312</ele>
        <time>2016-07-24T09:57:56.000Z</time>
      </trkpt>
      <trkpt lat="47.48019" lon="6.7659">
        <ele>312</ele>
        <time>2016-07-24T09:57:57.000Z</time>
      </trkpt>
      <trkpt lat="47.48024" lon="6.76585">
        <ele>312</ele>
        <time>2016-07-24T09:57:58.000Z</time>
      </trkpt>
      <trkpt lat="47.48029" lon="6.76582">
        <ele>312</ele>
        <time>2016-07-24T09:57:59.000Z</time>
      </trkpt>
      <trkpt lat="47.48033" lon="6.76578">
        <ele>312</ele>
        <time>2016-07-24T09:58:00.000Z</time>
      </trkpt>
      <trkpt lat="47.48037" lon="6.76575">
        <ele>312</ele>
        <time>2016-07-24T09:58:01.000Z</time>
      </trkpt>
      <trkpt lat="47.48042" lon="6.76571">
        <ele>312</ele>
        <time>2016-07-24T09:58:02.000Z</time>
      </trkpt>
      <trkpt lat="47.48044" lon="6.76568">
        <ele>312</ele>
        <time>2016-07-24T09:58:03.000Z</time>
      </trkpt>
      <trkpt lat="47.48046" lon="6.76568">
        <ele>312</ele>
        <time>2016-07-24T09:58:04.000Z</time>
      </trkpt>
      <trkpt lat="47.48053" lon="6.7656">
        <ele>312</ele>
        <time>2016-07-24T09:58:05.000Z</time>
      </trkpt>
      <trkpt lat="47.48059" lon="6.76563">
        <ele>312</ele>
        <time>2016-07-24T09:58:06.000Z</time>
      </trkpt>
      <trkpt lat="47.48062" lon="6.76557">
        <ele>312</ele>
        <time>2016-07-24T09:58:07.000Z</time>
      </trkpt>
      <trkpt lat="47.48067" lon="6.76555">
        <ele>312</ele>
        <time>2016-07-24T09:58:08.000Z</time>
      </trkpt>
      <trkpt lat="47.48072" lon="6.76552">
        <ele>312</ele>
        <time>2016-07-24T09:58:09.000Z</time>
      </trkpt>
      <trkpt lat="47.48076" lon="6.76547">
        <ele>312</ele>
        <time>2016-07-24T09:58:10.000Z</time>
      </trkpt>
      <trkpt lat="47.4808" lon="6.76542">
        <ele>312</ele>
        <time>2016-07-24T09:58:11.000Z</time>
      </trkpt>
      <trkpt lat="47.48083" lon="6.76538">
        <ele>312</ele>
        <time>2016-07-24T09:58:12.000Z</time>
      </trkpt>
      <trkpt lat="47.48087" lon="6.7653">
        <ele>317</ele>
        <time>2016-07-24T09:58:13.000Z</time>
      </trkpt>
      <trkpt lat="47.48091" lon="6.76526">
        <ele>317</ele>
        <time>2016-07-24T09:58:14.000Z</time>
      </trkpt>
      <trkpt lat="47.48096" lon="6.76521">
        <ele>318</ele>
        <time>2016-07-24T09:58:15.000Z</time>
      </trkpt>
      <trkpt lat="47.48099" lon="6.76522">
        <ele>318</ele>
        <time>2016-07-24T09:58:16.000Z</time>
      </trkpt>
      <trkpt lat="47.48101" lon="6.76523">
        <ele>318</ele>
        <time>2016-07-24T09:58:17.000Z</time>
      </trkpt>
      <trkpt lat="47.48103" lon="6.76529">
        <ele>318</ele>
        <time>2016-07-24T09:58:18.000Z</time>
      </trkpt>
      <trkpt lat="47.48105" lon="6.76533">
        <ele>318</ele>
        <time>2016-07-24T09:58:19.000Z</time>
      </trkpt>
      <trkpt lat="47.48107" lon="6.76536">
        <ele>319</ele>
        <time>2016-07-24T09:58:20.000Z</time>
      </trkpt>
      <trkpt lat="47.4811" lon="6.76541">
        <ele>319</ele>
        <time>2016-07-24T09:58:22.000Z</time>
      </trkpt>
      <trkpt lat="47.48111" lon="6.76544">
        <ele>319</ele>
        <time>2016-07-24T09:58:23.000Z</time>
      </trkpt>
      <trkpt lat="47.48105" lon="6.7655">
        <ele>318</ele>
        <time>2016-07-24T09:58:24.000Z</time>
      </trkpt>
      <trkpt lat="47.48105" lon="6.76554">
        <ele>318</ele>
        <time>2016-07-24T09:58:25.000Z</time>
      </trkpt>
      <trkpt lat="47.48105" lon="6.76558">
        <ele>318</ele>
        <time>2016-07-24T09:58:26.000Z</time>
      </trkpt>
      <trkpt lat="47.48103" lon="6.76561">
        <ele>317</ele>
        <time>2016-07-24T09:58:27.000Z</time>
      </trkpt>
      <trkpt lat="47.481" lon="6.76565">
        <ele>317</ele>
        <time>2016-07-24T09:58:28.000Z</time>
      </trkpt>
      <trkpt lat="47.48097" lon="6.76571">
        <ele>316</ele>
        <time>2016-07-24T09:58:29.000Z</time>
      </trkpt>
      <trkpt lat="47.48097" lon="6.76574">
        <ele>315</ele>
        <time>2016-07-24T09:58:30.000Z</time>
      </trkpt>
      <trkpt lat="47.48095" lon="6.76578">
        <ele>315</ele>
        <time>2016-07-24T09:58:31.000Z</time>
      </trkpt>
      <trkpt lat="47.48094" lon="6.76583">
        <ele>315</ele>
        <time>2016-07-24T09:58:32.000Z</time>
      </trkpt>
      <trkpt lat="47.48095" lon="6.76592">
        <ele>313</ele>
        <time>2016-07-24T09:58:33.000Z</time>
      </trkpt>
      <trkpt lat="47.48092" lon="6.766">
        <ele>313</ele>
        <time>2016-07-24T09:58:34.000Z</time>
      </trkpt>
      <trkpt lat="47.48092" lon="6.76608">
        <ele>313</ele>
        <time>2016-07-24T09:58:35.000Z</time>
      </trkpt>
      <trkpt lat="47.48091" lon="6.76616">
        <ele>313</ele>
        <time>2016-07-24T09:58:36.000Z</time>
      </trkpt>
      <trkpt lat="47.48092" lon="6.76623">
        <ele>313</ele>
        <time>2016-07-24T09:58:37.000Z</time>
      </trkpt>
      <trkpt lat="47.48093" lon="6.76629">
        <ele>313</ele>
        <time>2016-07-24T09:58:38.000Z</time>
      </trkpt>
      <trkpt lat="47.48093" lon="6.76634">
        <ele>313</ele>
        <time>2016-07-24T09:58:39.000Z</time>
      </trkpt>
      <trkpt lat="47.48094" lon="6.76639">
        <ele>312</ele>
        <time>2016-07-24T09:58:40.000Z</time>
      </trkpt>
      <trkpt lat="47.48096" lon="6.76644">
        <ele>312</ele>
        <time>2016-07-24T09:58:41.000Z</time>
      </trkpt>
      <trkpt lat="47.48097" lon="6.7665">
        <ele>312</ele>
        <time>2016-07-24T09:58:42.000Z</time>
      </trkpt>
      <trkpt lat="47.48098" lon="6.76655">
        <ele>312</ele>
        <time>2016-07-24T09:58:43.000Z</time>
      </trkpt>
      <trkpt lat="47.48101" lon="6.76659">
        <ele>312</ele>
        <time>2016-07-24T09:58:44.000Z</time>
      </trkpt>
      <trkpt lat="47.48103" lon="6.76664">
        <ele>312</ele>
        <time>2016-07-24T09:58:45.000Z</time>
      </trkpt>
      <trkpt lat="47.48107" lon="6.76668">
        <ele>312</ele>
        <time>2016-07-24T09:58:46.000Z</time>
      </trkpt>
      <trkpt lat="47.48116" lon="6.76677">
        <ele>312</ele>
        <time>2016-07-24T09:58:47.000Z</time>
      </trkpt>
      <trkpt lat="47.48118" lon="6.76684">
        <ele>312</ele>
        <time>2016-07-24T09:58:48.000Z</time>
      </trkpt>
      <trkpt lat="47.48122" lon="6.76692">
        <ele>312</ele>
        <time>2016-07-24T09:58:49.000Z</time>
      </trkpt>
      <trkpt lat="47.48126" lon="6.767">
        <ele>312</ele>
        <time>2016-07-24T09:58:50.000Z</time>
      </trkpt>
      <trkpt lat="47.4813" lon="6.76706">
        <ele>312</ele>
        <time>2016-07-24T09:58:51.000Z</time>
      </trkpt>
      <trkpt lat="47.48133" lon="6.76714">
        <ele>312</ele>
        <time>2016-07-24T09:58:52.000Z</time>
      </trkpt>
      <trkpt lat="47.48137" lon="6.76721">
        <ele>312</ele>
        <time>2016-07-24T09:58:53.000Z</time>
      </trkpt>
      <trkpt lat="47.4814" lon="6.76729">
        <ele>312</ele>
        <time>2016-07-24T09:58:54.000Z</time>
      </trkpt>
      <trkpt lat="47.48145" lon="6.76737">
        <ele>312</ele>
        <time>2016-07-24T09:58:55.000Z</time>
      </trkpt>
      <trkpt lat="47.48148" lon="6.76743">
        <ele>312</ele>
        <time>2016-07-24T09:58:56.000Z</time>
      </trkpt>
      <trkpt lat="47.48152" lon="6.76749">
        <ele>313</ele>
        <time>2016-07-24T09:58:57.000Z</time>
      </trkpt>
      <trkpt lat="47.48156" lon="6.76755">
        <ele>313</ele>
        <time>2016-07-24T09:58:58.000Z</time>
      </trkpt>
      <trkpt lat="47.4816" lon="6.7676">
        <ele>313</ele>
        <time>2016-07-24T09:58:59.000Z</time>
      </trkpt>
      <trkpt lat="47.48164" lon="6.76767">
        <ele>313</ele>
        <time>2016-07-24T09:59:00.000Z</time>
      </trkpt>
      <trkpt lat="47.48169" lon="6.76772">
        <ele>312</ele>
        <time>2016-07-24T09:59:01.000Z</time>
      </trkpt>
      <trkpt lat="47.48173" lon="6.76778">
        <ele>312</ele>
        <time>2016-07-24T09:59:02.000Z</time>
      </trkpt>
      <trkpt lat="47.48178" lon="6.76781">
        <ele>312</ele>
        <time>2016-07-24T09:59:03.000Z</time>
      </trkpt>
      <trkpt lat="47.48183" lon="6.76785">
        <ele>312</ele>
        <time>2016-07-24T09:59:04.000Z</time>
      </trkpt>
      <trkpt lat="47.48189" lon="6.76787">
        <ele>312</ele>
        <time>2016-07-24T09:59:05.000Z</time>
      </trkpt>
      <trkpt lat="47.48196" lon="6.7679">
        <ele>312</ele>
        <time>2016-07-24T09:59:06.000Z</time>
      </trkpt>
      <trkpt lat="47.48202" lon="6.76791">
        <ele>312</ele>
        <time>2016-07-24T09:59:07.000Z</time>
      </trkpt>
      <trkpt lat="47.48208" lon="6.76793">
        <ele>312</ele>
        <time>2016-07-24T09:59:08.000Z</time>
      </trkpt>
      <trkpt lat="47.48214" lon="6.76795">
        <ele>312</ele>
        <time>2016-07-24T09:59:09.000Z</time>
      </trkpt>
      <trkpt lat="47.48218" lon="6.76797">
        <ele>312</ele>
        <time>2016-07-24T09:59:10.000Z</time>
      </trkpt>
      <trkpt lat="47.48223" lon="6.768">
        <ele>312</ele>
        <time>2016-07-24T09:59:11.000Z</time>
      </trkpt>
      <trkpt lat="47.48228" lon="6.76802">
        <ele>312</ele>
        <time>2016-07-24T09:59:12.000Z</time>
      </trkpt>
      <trkpt lat="47.48233" lon="6.76805">
        <ele>312</ele>
        <time>2016-07-24T09:59:13.000Z</time>
      </trkpt>
      <trkpt lat="47.48237" lon="6.7681">
        <ele>312</ele>
        <time>2016-07-24T09:59:14.000Z</time>
      </trkpt>
      <trkpt lat="47.48241" lon="6.76813">
        <ele>312</ele>
        <time>2016-07-24T09:59:15.000Z</time>
      </trkpt>
      <trkpt lat="47.48246" lon="6.76817">
        <ele>311</ele>
        <time>2016-07-24T09:59:16.000Z</time>
      </trkpt>
      <trkpt lat="47.48249" lon="6.76824">
        <ele>311</ele>
        <time>2016-07-24T09:59:17.000Z</time>
      </trkpt>
      <trkpt lat="47.48253" lon="6.7683">
        <ele>311</ele>
        <time>2016-07-24T09:59:18.000Z</time>
      </trkpt>
      <trkpt lat="47.48257" lon="6.76836">
        <ele>311</ele>
        <time>2016-07-24T09:59:19.000Z</time>
      </trkpt>
      <trkpt lat="47.4826" lon="6.76842">
        <ele>311</ele>
        <time>2016-07-24T09:59:20.000Z</time>
      </trkpt>
      <trkpt lat="47.48264" lon="6.76847">
        <ele>311</ele>
        <time>2016-07-24T09:59:21.000Z</time>
      </trkpt>
      <trkpt lat="47.48268" lon="6.76853">
        <ele>311</ele>
        <time>2016-07-24T09:59:22.000Z</time>
      </trkpt>
      <trkpt lat="47.48272" lon="6.76859">
        <ele>310</ele>
        <time>2016-07-24T09:59:23.000Z</time>
      </trkpt>
      <trkpt lat="47.48276" lon="6.76866">
        <ele>310</ele>
        <time>2016-07-24T09:59:24.000Z</time>
      </trkpt>
      <trkpt lat="47.4828" lon="6.76871">
        <ele>310</ele>
        <time>2016-07-24T09:59:25.000Z</time>
      </trkpt>
      <trkpt lat="47.48285" lon="6.76876">
        <ele>310</ele>
        <time>2016-07-24T09:59:26.000Z</time>
      </trkpt>
      <trkpt lat="47.4829" lon="6.7688">
        <ele>310</ele>
        <time>2016-07-24T09:59:27.000Z</time>
      </trkpt>
      <trkpt lat="47.48295" lon="6.76884">
        <ele>310</ele>
        <time>2016-07-24T09:59:28.000Z</time>
      </trkpt>
      <trkpt lat="47.48299" lon="6.76889">
        <ele>310</ele>
        <time>2016-07-24T09:59:29.000Z</time>
      </trkpt>
      <trkpt lat="47.48304" lon="6.76893">
        <ele>310</ele>
        <time>2016-07-24T09:59:30.000Z</time>
      </trkpt>
      <trkpt lat="47.48309" lon="6.76898">
        <ele>310</ele>
        <time>2016-07-24T09:59:31.000Z</time>
      </trkpt>
      <trkpt lat="47.48313" lon="6.76901">
        <ele>310</ele>
        <time>2016-07-24T09:59:32.000Z</time>
      </trkpt>
      <trkpt lat="47.48319" lon="6.76904">
        <ele>310</ele>
        <time>2016-07-24T09:59:33.000Z</time>
      </trkpt>
      <trkpt lat="47.48324" lon="6.76909">
        <ele>310</ele>
        <time>2016-07-24T09:59:34.000Z</time>
      </trkpt>
      <trkpt lat="47.48329" lon="6.76912">
        <ele>309</ele>
        <time>2016-07-24T09:59:35.000Z</time>
      </trkpt>
      <trkpt lat="47.48334" lon="6.76915">
        <ele>309</ele>
        <time>2016-07-24T09:59:36.000Z</time>
      </trkpt>
      <trkpt lat="47.48339" lon="6.76918">
        <ele>310</ele>
        <time>2016-07-24T09:59:37.000Z</time>
      </trkpt>
      <trkpt lat="47.48345" lon="6.7692">
        <ele>310</ele>
        <time>2016-07-24T09:59:38.000Z</time>
      </trkpt>
      <trkpt lat="47.4835" lon="6.76923">
        <ele>311</ele>
        <time>2016-07-24T09:59:39.000Z</time>
      </trkpt>
      <trkpt lat="47.48355" lon="6.76926">
        <ele>311</ele>
        <time>2016-07-24T09:59:40.000Z</time>
      </trkpt>
      <trkpt lat="47.4836" lon="6.76928">
        <ele>311</ele>
        <time>2016-07-24T09:59:41.000Z</time>
      </trkpt>
      <trkpt lat="47.48364" lon="6.76931">
        <ele>311</ele>
        <time>2016-07-24T09:59:42.000Z</time>
      </trkpt>
      <trkpt lat="47.48369" lon="6.76933">
        <ele>312</ele>
        <time>2016-07-24T09:59:43.000Z</time>
      </trkpt>
      <trkpt lat="47.48373" lon="6.76935">
        <ele>312</ele>
        <time>2016-07-24T09:59:44.000Z</time>
      </trkpt>
      <trkpt lat="47.48378" lon="6.76938">
        <ele>312</ele>
        <time>2016-07-24T09:59:45.000Z</time>
      </trkpt>
      <trkpt lat="47.48382" lon="6.76941">
        <ele>312</ele>
        <time>2016-07-24T09:59:46.000Z</time>
      </trkpt>
      <trkpt lat="47.48387" lon="6.76944">
        <ele>312</ele>
        <time>2016-07-24T09:59:47.000Z</time>
      </trkpt>
      <trkpt lat="47.48391" lon="6.76946">
        <ele>312</ele>
        <time>2016-07-24T09:59:48.000Z</time>
      </trkpt>
      <trkpt lat="47.48396" lon="6.76948">
        <ele>312</ele>
        <time>2016-07-24T09:59:49.000Z</time>
      </trkpt>
      <trkpt lat="47.484" lon="6.76951">
        <ele>312</ele>
        <time>2016-07-24T09:59:50.000Z</time>
      </trkpt>
      <trkpt lat="47.48405" lon="6.76955">
        <ele>312</ele>
        <time>2016-07-24T09:59:51.000Z</time>
      </trkpt>
      <trkpt lat="47.4841" lon="6.76959">
        <ele>312</ele>
        <time>2016-07-24T09:59:52.000Z</time>
      </trkpt>
      <trkpt lat="47.48414" lon="6.76962">
        <ele>312</ele>
        <time>2016-07-24T09:59:53.000Z</time>
      </trkpt>
      <trkpt lat="47.48418" lon="6.76965">
        <ele>314</ele>
        <time>2016-07-24T09:59:54.000Z</time>
      </trkpt>
      <trkpt lat="47.48423" lon="6.76969">
        <ele>314</ele>
        <time>2016-07-24T09:59:55.000Z</time>
      </trkpt>
      <trkpt lat="47.48427" lon="6.76971">
        <ele>314</ele>
        <time>2016-07-24T09:59:56.000Z</time>
      </trkpt>
      <trkpt lat="47.48432" lon="6.76975">
        <ele>314</ele>
        <time>2016-07-24T09:59:57.000Z</time>
      </trkpt>
      <trkpt lat="47.48438" lon="6.76978">
        <ele>314</ele>
        <time>2016-07-24T09:59:58.000Z</time>
      </trkpt>
      <trkpt lat="47.48443" lon="6.7698">
        <ele>314</ele>
        <time>2016-07-24T09:59:59.000Z</time>
      </trkpt>
      <trkpt lat="47.48447" lon="6.76984">
        <ele>315</ele>
        <time>2016-07-24T10:00:00.000Z</time>
      </trkpt>
      <trkpt lat="47.48452" lon="6.76987">
        <ele>315</ele>
        <time>2016-07-24T10:00:01.000Z</time>
      </trkpt>
      <trkpt lat="47.48457" lon="6.7699">
        <ele>315</ele>
        <time>2016-07-24T10:00:02.000Z</time>
      </trkpt>
      <trkpt lat="47.48462" lon="6.76994">
        <ele>315</ele>
        <time>2016-07-24T10:00:03.000Z</time>
      </trkpt>
      <trkpt lat="47.48467" lon="6.76997">
        <ele>315</ele>
        <time>2016-07-24T10:00:04.000Z</time>
      </trkpt>
      <trkpt lat="47.48472" lon="6.77">
        <ele>315</ele>
        <time>2016-07-24T10:00:05.000Z</time>
      </trkpt>
      <trkpt lat="47.48476" lon="6.77002">
        <ele>314</ele>
        <time>2016-07-24T10:00:06.000Z</time>
      </trkpt>
      <trkpt lat="47.48481" lon="6.77005">
        <ele>315</ele>
        <time>2016-07-24T10:00:07.000Z</time>
      </trkpt>
      <trkpt lat="47.48486" lon="6.77008">
        <ele>315</ele>
        <time>2016-07-24T10:00:08.000Z</time>
      </trkpt>
      <trkpt lat="47.48492" lon="6.77011">
        <ele>315</ele>
        <time>2016-07-24T10:00:09.000Z</time>
      </trkpt>
      <trkpt lat="47.48496" lon="6.77014">
        <ele>315</ele>
        <time>2016-07-24T10:00:10.000Z</time>
      </trkpt>
      <trkpt lat="47.48499" lon="6.77019">
        <ele>315</ele>
        <time>2016-07-24T10:00:11.000Z</time>
      </trkpt>
      <trkpt lat="47.48504" lon="6.77022">
        <ele>315</ele>
        <time>2016-07-24T10:00:12.000Z</time>
      </trkpt>
      <trkpt lat="47.48509" lon="6.77026">
        <ele>314</ele>
        <time>2016-07-24T10:00:13.000Z</time>
      </trkpt>
      <trkpt lat="47.48514" lon="6.7703">
        <ele>314</ele>
        <time>2016-07-24T10:00:14.000Z</time>
      </trkpt>
      <trkpt lat="47.48518" lon="6.77035">
        <ele>314</ele>
        <time>2016-07-24T10:00:15.000Z</time>
      </trkpt>
      <trkpt lat="47.48522" lon="6.77038">
        <ele>314</ele>
        <time>2016-07-24T10:00:16.000Z</time>
      </trkpt>
      <trkpt lat="47.48527" lon="6.77041">
        <ele>314</ele>
        <time>2016-07-24T10:00:17.000Z</time>
      </trkpt>
      <trkpt lat="47.4853" lon="6.77045">
        <ele>314</ele>
        <time>2016-07-24T10:00:18.000Z</time>
      </trkpt>
      <trkpt lat="47.48535" lon="6.77048">
        <ele>314</ele>
        <time>2016-07-24T10:00:19.000Z</time>
      </trkpt>
      <trkpt lat="47.48538" lon="6.7705">
        <ele>314</ele>
        <time>2016-07-24T10:00:20.000Z</time>
      </trkpt>
      <trkpt lat="47.48543" lon="6.77052">
        <ele>314</ele>
        <time>2016-07-24T10:00:21.000Z</time>
      </trkpt>
      <trkpt lat="47.48546" lon="6.77053">
        <ele>314</ele>
        <time>2016-07-24T10:00:22.000Z</time>
      </trkpt>
      <trkpt lat="47.4855" lon="6.77057">
        <ele>314</ele>
        <time>2016-07-24T10:00:23.000Z</time>
      </trkpt>
      <trkpt lat="47.48554" lon="6.77058">
        <ele>314</ele>
        <time>2016-07-24T10:00:24.000Z</time>
      </trkpt>
      <trkpt lat="47.48558" lon="6.7706">
        <ele>314</ele>
        <time>2016-07-24T10:00:25.000Z</time>
      </trkpt>
      <trkpt lat="47.48562" lon="6.77063">
        <ele>314</ele>
        <time>2016-07-24T10:00:26.000Z</time>
      </trkpt>
      <trkpt lat="47.48565" lon="6.77066">
        <ele>314</ele>
        <time>2016-07-24T10:00:27.000Z</time>
      </trkpt>
      <trkpt lat="47.48571" lon="6.77068">
        <ele>314</ele>
        <time>2016-07-24T10:00:28.000Z</time>
      </trkpt>
      <trkpt lat="47.48576" lon="6.77071">
        <ele>313</ele>
        <time>2016-07-24T10:00:29.000Z</time>
      </trkpt>
      <trkpt lat="47.4858" lon="6.77072">
        <ele>313</ele>
        <time>2016-07-24T10:00:30.000Z</time>
      </trkpt>
      <trkpt lat="47.48584" lon="6.77075">
        <ele>313</ele>
        <time>2016-07-24T10:00:31.000Z</time>
      </trkpt>
      <trkpt lat="47.4859" lon="6.77077">
        <ele>313</ele>
        <time>2016-07-24T10:00:32.000Z</time>
      </trkpt>
      <trkpt lat="47.48591" lon="6.77082">
        <ele>313</ele>
        <time>2016-07-24T10:00:33.000Z</time>
      </trkpt>
      <trkpt lat="47.48596" lon="6.77084">
        <ele>313</ele>
        <time>2016-07-24T10:00:34.000Z</time>
      </trkpt>
      <trkpt lat="47.486" lon="6.77088">
        <ele>313</ele>
        <time>2016-07-24T10:00:35.000Z</time>
      </trkpt>
      <trkpt lat="47.48604" lon="6.77091">
        <ele>312</ele>
        <time>2016-07-24T10:00:36.000Z</time>
      </trkpt>
      <trkpt lat="47.48609" lon="6.77092">
        <ele>312</ele>
        <time>2016-07-24T10:00:37.000Z</time>
      </trkpt>
      <trkpt lat="47.48613" lon="6.77094">
        <ele>312</ele>
        <time>2016-07-24T10:00:38.000Z</time>
      </trkpt>
      <trkpt lat="47.48617" lon="6.77099">
        <ele>312</ele>
        <time>2016-07-24T10:00:39.000Z</time>
      </trkpt>
      <trkpt lat="47.48621" lon="6.77104">
        <ele>312</ele>
        <time>2016-07-24T10:00:40.000Z</time>
      </trkpt>
      <trkpt lat="47.48625" lon="6.77108">
        <ele>312</ele>
        <time>2016-07-24T10:00:41.000Z</time>
      </trkpt>
      <trkpt lat="47.4863" lon="6.77113">
        <ele>312</ele>
        <time>2016-07-24T10:00:42.000Z</time>
      </trkpt>
      <trkpt lat="47.48634" lon="6.77118">
        <ele>312</ele>
        <time>2016-07-24T10:00:43.000Z</time>
      </trkpt>
      <trkpt lat="47.48638" lon="6.77122">
        <ele>312</ele>
        <time>2016-07-24T10:00:44.000Z</time>
      </trkpt>
      <trkpt lat="47.48641" lon="6.77127">
        <ele>312</ele>
        <time>2016-07-24T10:00:45.000Z</time>
      </trkpt>
      <trkpt lat="47.48644" lon="6.77133">
        <ele>312</ele>
        <time>2016-07-24T10:00:46.000Z</time>
      </trkpt>
      <trkpt lat="47.48649" lon="6.77136">
        <ele>312</ele>
        <time>2016-07-24T10:00:47.000Z</time>
      </trkpt>
      <trkpt lat="47.48654" lon="6.77141">
        <ele>312</ele>
        <time>2016-07-24T10:00:48.000Z</time>
      </trkpt>
      <trkpt lat="47.48658" lon="6.77145">
        <ele>312</ele>
        <time>2016-07-24T10:00:49.000Z</time>
      </trkpt>
      <trkpt lat="47.48664" lon="6.77149">
        <ele>312</ele>
        <time>2016-07-24T10:00:50.000Z</time>
      </trkpt>
      <trkpt lat="47.48669" lon="6.77154">
        <ele>311</ele>
        <time>2016-07-24T10:00:51.000Z</time>
      </trkpt>
      <trkpt lat="47.48674" lon="6.77158">
        <ele>311</ele>
        <time>2016-07-24T10:00:52.000Z</time>
      </trkpt>
      <trkpt lat="47.48679" lon="6.77162">
        <ele>311</ele>
        <time>2016-07-24T10:00:53.000Z</time>
      </trkpt>
      <trkpt lat="47.48684" lon="6.77165">
        <ele>311</ele>
        <time>2016-07-24T10:00:54.000Z</time>
      </trkpt>
      <trkpt lat="47.48689" lon="6.77169">
        <ele>311</ele>
        <time>2016-07-24T10:00:55.000Z</time>
      </trkpt>
      <trkpt lat="47.48694" lon="6.77173">
        <ele>311</ele>
        <time>2016-07-24T10:00:56.000Z</time>
      </trkpt>
      <trkpt lat="47.48699" lon="6.77176">
        <ele>311</ele>
        <time>2016-07-24T10:00:57.000Z</time>
      </trkpt>
      <trkpt lat="47.48704" lon="6.77178">
        <ele>310</ele>
        <time>2016-07-24T10:00:58.000Z</time>
      </trkpt>
      <trkpt lat="47.48709" lon="6.77181">
        <ele>310</ele>
        <time>2016-07-24T10:00:59.000Z</time>
      </trkpt>
      <trkpt lat="47.48713" lon="6.77185">
        <ele>310</ele>
        <time>2016-07-24T10:01:00.000Z</time>
      </trkpt>
      <trkpt lat="47.48718" lon="6.77189">
        <ele>310</ele>
        <time>2016-07-24T10:01:01.000Z</time>
      </trkpt>
      <trkpt lat="47.48722" lon="6.77193">
        <ele>310</ele>
        <time>2016-07-24T10:01:02.000Z</time>
      </trkpt>
      <trkpt lat="47.48727" lon="6.77196">
        <ele>310</ele>
        <time>2016-07-24T10:01:03.000Z</time>
      </trkpt>
      <trkpt lat="47.48732" lon="6.772">
        <ele>310</ele>
        <time>2016-07-24T10:01:04.000Z</time>
      </trkpt>
      <trkpt lat="47.48736" lon="6.77202">
        <ele>310</ele>
        <time>2016-07-24T10:01:05.000Z</time>
      </trkpt>
      <trkpt lat="47.48739" lon="6.77206">
        <ele>310</ele>
        <time>2016-07-24T10:01:06.000Z</time>
      </trkpt>
      <trkpt lat="47.48743" lon="6.77209">
        <ele>310</ele>
        <time>2016-07-24T10:01:07.000Z</time>
      </trkpt>
      <trkpt lat="47.48748" lon="6.77213">
        <ele>310</ele>
        <time>2016-07-24T10:01:08.000Z</time>
      </trkpt>
      <trkpt lat="47.48751" lon="6.77217">
        <ele>310</ele>
        <time>2016-07-24T10:01:09.000Z</time>
      </trkpt>
      <trkpt lat="47.48755" lon="6.77221">
        <ele>310</ele>
        <time>2016-07-24T10:01:10.000Z</time>
      </trkpt>
      <trkpt lat="47.48759" lon="6.77224">
        <ele>310</ele>
        <time>2016-07-24T10:01:11.000Z</time>
      </trkpt>
      <trkpt lat="47.48763" lon="6.77228">
        <ele>310</ele>
        <time>2016-07-24T10:01:12.000Z</time>
      </trkpt>
      <trkpt lat="47.48767" lon="6.77232">
        <ele>310</ele>
        <time>2016-07-24T10:01:13.000Z</time>
      </trkpt>
      <trkpt lat="47.48771" lon="6.77236">
        <ele>310</ele>
        <time>2016-07-24T10:01:14.000Z</time>
      </trkpt>
      <trkpt lat="47.48775" lon="6.77239">
        <ele>310</ele>
        <time>2016-07-24T10:01:15.000Z</time>
      </trkpt>
      <trkpt lat="47.48779" lon="6.77244">
        <ele>310</ele>
        <time>2016-07-24T10:01:16.000Z</time>
      </trkpt>
      <trkpt lat="47.48784" lon="6.77247">
        <ele>310</ele>
        <time>2016-07-24T10:01:17.000Z</time>
      </trkpt>
      <trkpt lat="47.48789" lon="6.77251">
        <ele>310</ele>
        <time>2016-07-24T10:01:18.000Z</time>
      </trkpt>
      <trkpt lat="47.48793" lon="6.77254">
        <ele>310</ele>
        <time>2016-07-24T10:01:19.000Z</time>
      </trkpt>
      <trkpt lat="47.48798" lon="6.77259">
        <ele>310</ele>
        <time>2016-07-24T10:01:20.000Z</time>
      </trkpt>
      <trkpt lat="47.48802" lon="6.77263">
        <ele>310</ele>
        <time>2016-07-24T10:01:21.000Z</time>
      </trkpt>
      <trkpt lat="47.48806" lon="6.77266">
        <ele>310</ele>
        <time>2016-07-24T10:01:22.000Z</time>
      </trkpt>
      <trkpt lat="47.48811" lon="6.77269">
        <ele>310</ele>
        <time>2016-07-24T10:01:23.000Z</time>
      </trkpt>
      <trkpt lat="47.48814" lon="6.77271">
        <ele>310</ele>
        <time>2016-07-24T10:01:24.000Z</time>
      </trkpt>
      <trkpt lat="47.48818" lon="6.77273">
        <ele>310</ele>
        <time>2016-07-24T10:01:25.000Z</time>
      </trkpt>
      <trkpt lat="47.48822" lon="6.77275">
        <ele>310</ele>
        <time>2016-07-24T10:01:26.000Z</time>
      </trkpt>
      <trkpt lat="47.48826" lon="6.77278">
        <ele>310</ele>
        <time>2016-07-24T10:01:27.000Z</time>
      </trkpt>
      <trkpt lat="47.4883" lon="6.77281">
        <ele>310</ele>
        <time>2016-07-24T10:01:28.000Z</time>
      </trkpt>
      <trkpt lat="47.48835" lon="6.77285">
        <ele>310</ele>
        <time>2016-07-24T10:01:29.000Z</time>
      </trkpt>
      <trkpt lat="47.48839" lon="6.77289">
        <ele>310</ele>
        <time>2016-07-24T10:01:30.000Z</time>
      </trkpt>
      <trkpt lat="47.48845" lon="6.77291">
        <ele>310</ele>
        <time>2016-07-24T10:01:31.000Z</time>
      </trkpt>
      <trkpt lat="47.48852" lon="6.77293">
        <ele>310</ele>
        <time>2016-07-24T10:01:32.000Z</time>
      </trkpt>
      <trkpt lat="47.48858" lon="6.77295">
        <ele>310</ele>
        <time>2016-07-24T10:01:33.000Z</time>
      </trkpt>
      <trkpt lat="47.48865" lon="6.77297">
        <ele>310</ele>
        <time>2016-07-24T10:01:34.000Z</time>
      </trkpt>
      <trkpt lat="47.48872" lon="6.77299">
        <ele>310</ele>
        <time>2016-07-24T10:01:35.000Z</time>
      </trkpt>
      <trkpt lat="47.48879" lon="6.773">
        <ele>310</ele>
        <time>2016-07-24T10:01:36.000Z</time>
      </trkpt>
      <trkpt lat="47.48886" lon="6.773">
        <ele>310</ele>
        <time>2016-07-24T10:01:37.000Z</time>
      </trkpt>
      <trkpt lat="47.48892" lon="6.77302">
        <ele>310</ele>
        <time>2016-07-24T10:01:38.000Z</time>
      </trkpt>
      <trkpt lat="47.48897" lon="6.77305">
        <ele>310</ele>
        <time>2016-07-24T10:01:39.000Z</time>
      </trkpt>
      <trkpt lat="47.48904" lon="6.77307">
        <ele>310</ele>
        <time>2016-07-24T10:01:40.000Z</time>
      </trkpt>
      <trkpt lat="47.48909" lon="6.77309">
        <ele>310</ele>
        <time>2016-07-24T10:01:41.000Z</time>
      </trkpt>
      <trkpt lat="47.48915" lon="6.77312">
        <ele>310</ele>
        <time>2016-07-24T10:01:42.000Z</time>
      </trkpt>
      <trkpt lat="47.4892" lon="6.77313">
        <ele>310</ele>
        <time>2016-07-24T10:01:43.000Z</time>
      </trkpt>
      <trkpt lat="47.48925" lon="6.77315">
        <ele>310</ele>
        <time>2016-07-24T10:01:44.000Z</time>
      </trkpt>
      <trkpt lat="47.48931" lon="6.77316">
        <ele>310</ele>
        <time>2016-07-24T10:01:45.000Z</time>
      </trkpt>
      <trkpt lat="47.48937" lon="6.77318">
        <ele>311</ele>
        <time>2016-07-24T10:01:46.000Z</time>
      </trkpt>
      <trkpt lat="47.48943" lon="6.77321">
        <ele>311</ele>
        <time>2016-07-24T10:01:47.000Z</time>
      </trkpt>
      <trkpt lat="47.48948" lon="6.77322">
        <ele>311</ele>
        <time>2016-07-24T10:01:48.000Z</time>
      </trkpt>
      <trkpt lat="47.48954" lon="6.77323">
        <ele>311</ele>
        <time>2016-07-24T10:01:49.000Z</time>
      </trkpt>
      <trkpt lat="47.48959" lon="6.77324">
        <ele>311</ele>
        <time>2016-07-24T10:01:50.000Z</time>
      </trkpt>
      <trkpt lat="47.48965" lon="6.77324">
        <ele>311</ele>
        <time>2016-07-24T10:01:51.000Z</time>
      </trkpt>
      <trkpt lat="47.4897" lon="6.77325">
        <ele>311</ele>
        <time>2016-07-24T10:01:52.000Z</time>
      </trkpt>
      <trkpt lat="47.48975" lon="6.77327">
        <ele>311</ele>
        <time>2016-07-24T10:01:53.000Z</time>
      </trkpt>
      <trkpt lat="47.48979" lon="6.77327">
        <ele>311</ele>
        <time>2016-07-24T10:01:54.000Z</time>
      </trkpt>
      <trkpt lat="47.48984" lon="6.77326">
        <ele>311</ele>
        <time>2016-07-24T10:01:55.000Z</time>
      </trkpt>
      <trkpt lat="47.48991" lon="6.77327">
        <ele>311</ele>
        <time>2016-07-24T10:01:56.000Z</time>
      </trkpt>
      <trkpt lat="47.48996" lon="6.77327">
        <ele>311</ele>
        <time>2016-07-24T10:01:57.000Z</time>
      </trkpt>
      <trkpt lat="47.49002" lon="6.77328">
        <ele>311</ele>
        <time>2016-07-24T10:01:58.000Z</time>
      </trkpt>
      <trkpt lat="47.49007" lon="6.77328">
        <ele>311</ele>
        <time>2016-07-24T10:01:59.000Z</time>
      </trkpt>
      <trkpt lat="47.49012" lon="6.77328">
        <ele>311</ele>
        <time>2016-07-24T10:02:00.000Z</time>
      </trkpt>
      <trkpt lat="47.49017" lon="6.77328">
        <ele>311</ele>
        <time>2016-07-24T10:02:01.000Z</time>
      </trkpt>
      <trkpt lat="47.49022" lon="6.77328">
        <ele>311</ele>
        <time>2016-07-24T10:02:02.000Z</time>
      </trkpt>
      <trkpt lat="47.49027" lon="6.77329">
        <ele>311</ele>
        <time>2016-07-24T10:02:03.000Z</time>
      </trkpt>
      <trkpt lat="47.49032" lon="6.7733">
        <ele>311</ele>
        <time>2016-07-24T10:02:04.000Z</time>
      </trkpt>
      <trkpt lat="47.49038" lon="6.77332">
        <ele>311</ele>
        <time>2016-07-24T10:02:05.000Z</time>
      </trkpt>
      <trkpt lat="47.49044" lon="6.77332">
        <ele>311</ele>
        <time>2016-07-24T10:02:06.000Z</time>
      </trkpt>
      <trkpt lat="47.49051" lon="6.77333">
        <ele>311</ele>
        <time>2016-07-24T10:02:07.000Z</time>
      </trkpt>
      <trkpt lat="47.49056" lon="6.77331">
        <ele>311</ele>
        <time>2016-07-24T10:02:08.000Z</time>
      </trkpt>
      <trkpt lat="47.49062" lon="6.77331">
        <ele>311</ele>
        <time>2016-07-24T10:02:09.000Z</time>
      </trkpt>
      <trkpt lat="47.49067" lon="6.77332">
        <ele>311</ele>
        <time>2016-07-24T10:02:10.000Z</time>
      </trkpt>
      <trkpt lat="47.49073" lon="6.77333">
        <ele>311</ele>
        <time>2016-07-24T10:02:11.000Z</time>
      </trkpt>
      <trkpt lat="47.49076" lon="6.77336">
        <ele>311</ele>
        <time>2016-07-24T10:02:12.000Z</time>
      </trkpt>
      <trkpt lat="47.49081" lon="6.77336">
        <ele>311</ele>
        <time>2016-07-24T10:02:13.000Z</time>
      </trkpt>
      <trkpt lat="47.49086" lon="6.77336">
        <ele>311</ele>
        <time>2016-07-24T10:02:14.000Z</time>
      </trkpt>
      <trkpt lat="47.49091" lon="6.77336">
        <ele>311</ele>
        <time>2016-07-24T10:02:15.000Z</time>
      </trkpt>
      <trkpt lat="47.49098" lon="6.77335">
        <ele>310</ele>
        <time>2016-07-24T10:02:16.000Z</time>
      </trkpt>
      <trkpt lat="47.49104" lon="6.77335">
        <ele>310</ele>
        <time>2016-07-24T10:02:17.000Z</time>
      </trkpt>
      <trkpt lat="47.49109" lon="6.77334">
        <ele>310</ele>
        <time>2016-07-24T10:02:18.000Z</time>
      </trkpt>
      <trkpt lat="47.49114" lon="6.77334">
        <ele>310</ele>
        <time>2016-07-24T10:02:19.000Z</time>
      </trkpt>
      <trkpt lat="47.4912" lon="6.77335">
        <ele>310</ele>
        <time>2016-07-24T10:02:20.000Z</time>
      </trkpt>
      <trkpt lat="47.49124" lon="6.77335">
        <ele>310</ele>
        <time>2016-07-24T10:02:21.000Z</time>
      </trkpt>
      <trkpt lat="47.49129" lon="6.77336">
        <ele>310</ele>
        <time>2016-07-24T10:02:22.000Z</time>
      </trkpt>
      <trkpt lat="47.49133" lon="6.77336">
        <ele>310</ele>
        <time>2016-07-24T10:02:23.000Z</time>
      </trkpt>
      <trkpt lat="47.49137" lon="6.77336">
        <ele>310</ele>
        <time>2016-07-24T10:02:24.000Z</time>
      </trkpt>
      <trkpt lat="47.49141" lon="6.77337">
        <ele>310</ele>
        <time>2016-07-24T10:02:25.000Z</time>
      </trkpt>
      <trkpt lat="47.49145" lon="6.77336">
        <ele>310</ele>
        <time>2016-07-24T10:02:26.000Z</time>
      </trkpt>
      <trkpt lat="47.49148" lon="6.77336">
        <ele>310</ele>
        <time>2016-07-24T10:02:27.000Z</time>
      </trkpt>
      <trkpt lat="47.49152" lon="6.77336">
        <ele>310</ele>
        <time>2016-07-24T10:02:28.000Z</time>
      </trkpt>
      <trkpt lat="47.49155" lon="6.77337">
        <ele>310</ele>
        <time>2016-07-24T10:02:29.000Z</time>
      </trkpt>
      <trkpt lat="47.49158" lon="6.77337">
        <ele>310</ele>
        <time>2016-07-24T10:02:30.000Z</time>
      </trkpt>
      <trkpt lat="47.49161" lon="6.77337">
        <ele>310</ele>
        <time>2016-07-24T10:02:31.000Z</time>
      </trkpt>
      <trkpt lat="47.49164" lon="6.77338">
        <ele>310</ele>
        <time>2016-07-24T10:02:32.000Z</time>
      </trkpt>
      <trkpt lat="47.49166" lon="6.77338">
        <ele>310</ele>
        <time>2016-07-24T10:02:33.000Z</time>
      </trkpt>
      <trkpt lat="47.49169" lon="6.77338">
        <ele>310</ele>
        <time>2016-07-24T10:02:34.000Z</time>
      </trkpt>
      <trkpt lat="47.49171" lon="6.77338">
        <ele>310</ele>
        <time>2016-07-24T10:02:35.000Z</time>
      </trkpt>
      <trkpt lat="47.49175" lon="6.77339">
        <ele>310</ele>
        <time>2016-07-24T10:02:37.000Z</time>
      </trkpt>
      <trkpt lat="47.49177" lon="6.77339">
        <ele>310</ele>
        <time>2016-07-24T10:02:38.000Z</time>
      </trkpt>
      <trkpt lat="47.4918" lon="6.77339">
        <ele>310</ele>
        <time>2016-07-24T10:08:38.000Z</time>
      </trkpt>
      <trkpt lat="47.49181" lon="6.77339">
        <ele>310</ele>
        <time>2016-07-24T10:08:39.000Z</time>
      </trkpt>
      <trkpt lat="47.49185" lon="6.7734">
        <ele>309</ele>
        <time>2016-07-24T10:08:42.000Z</time>
      </trkpt>
      <trkpt lat="47.49187" lon="6.7734">
        <ele>309</ele>
        <time>2016-07-24T10:08:43.000Z</time>
      </trkpt>
      <trkpt lat="47.4919" lon="6.77341">
        <ele>309</ele>
        <time>2016-07-24T10:08:45.000Z</time>
      </trkpt>
      <trkpt lat="47.49192" lon="6.77341">
        <ele>309</ele>
        <time>2016-07-24T10:08:46.000Z</time>
      </trkpt>
      <trkpt lat="47.49196" lon="6.77341">
        <ele>309</ele>
        <time>2016-07-24T10:08:48.000Z</time>
      </trkpt>
      <trkpt lat="47.49198" lon="6.7734">
        <ele>309</ele>
        <time>2016-07-24T10:08:49.000Z</time>
      </trkpt>
      <trkpt lat="47.49201" lon="6.77339">
        <ele>309</ele>
        <time>2016-07-24T10:08:51.000Z</time>
      </trkpt>
      <trkpt lat="47.49203" lon="6.77339">
        <ele>309</ele>
        <time>2016-07-24T10:08:52.000Z</time>
      </trkpt>
      <trkpt lat="47.49205" lon="6.77339">
        <ele>309</ele>
        <time>2016-07-24T10:08:53.000Z</time>
      </trkpt>
      <trkpt lat="47.49208" lon="6.7734">
        <ele>309</ele>
        <time>2016-07-24T10:08:54.000Z</time>
      </trkpt>
      <trkpt lat="47.49212" lon="6.77341">
        <ele>309</ele>
        <time>2016-07-24T10:08:55.000Z</time>
      </trkpt>
      <trkpt lat="47.49216" lon="6.77342">
        <ele>309</ele>
        <time>2016-07-24T10:08:56.000Z</time>
      </trkpt>
      <trkpt lat="47.4922" lon="6.77343">
        <ele>309</ele>
        <time>2016-07-24T10:08:57.000Z</time>
      </trkpt>
      <trkpt lat="47.49225" lon="6.77343">
        <ele>309</ele>
        <time>2016-07-24T10:08:58.000Z</time>
      </trkpt>
      <trkpt lat="47.49229" lon="6.77344">
        <ele>309</ele>
        <time>2016-07-24T10:08:59.000Z</time>
      </trkpt>
      <trkpt lat="47.49234" lon="6.77344">
        <ele>309</ele>
        <time>2016-07-24T10:09:00.000Z</time>
      </trkpt>
      <trkpt lat="47.49238" lon="6.77344">
        <ele>310</ele>
        <time>2016-07-24T10:09:01.000Z</time>
      </trkpt>
      <trkpt lat="47.49243" lon="6.77344">
        <ele>310</ele>
        <time>2016-07-24T10:09:02.000Z</time>
      </trkpt>
      <trkpt lat="47.49247" lon="6.77342">
        <ele>310</ele>
        <time>2016-07-24T10:09:03.000Z</time>
      </trkpt>
      <trkpt lat="47.49251" lon="6.7734">
        <ele>310</ele>
        <time>2016-07-24T10:09:04.000Z</time>
      </trkpt>
      <trkpt lat="47.49257" lon="6.77333">
        <ele>310</ele>
        <time>2016-07-24T10:09:05.000Z</time>
      </trkpt>
      <trkpt lat="47.49261" lon="6.77331">
        <ele>310</ele>
        <time>2016-07-24T10:09:06.000Z</time>
      </trkpt>
      <trkpt lat="47.49267" lon="6.7733">
        <ele>310</ele>
        <time>2016-07-24T10:09:07.000Z</time>
      </trkpt>
      <trkpt lat="47.49273" lon="6.7733">
        <ele>310</ele>
        <time>2016-07-24T10:09:08.000Z</time>
      </trkpt>
      <trkpt lat="47.49278" lon="6.7733">
        <ele>310</ele>
        <time>2016-07-24T10:09:09.000Z</time>
      </trkpt>
      <trkpt lat="47.49285" lon="6.7733">
        <ele>310</ele>
        <time>2016-07-24T10:09:10.000Z</time>
      </trkpt>
      <trkpt lat="47.4929" lon="6.77331">
        <ele>310</ele>
        <time>2016-07-24T10:09:11.000Z</time>
      </trkpt>
      <trkpt lat="47.49295" lon="6.77332">
        <ele>310</ele>
        <time>2016-07-24T10:09:12.000Z</time>
      </trkpt>
      <trkpt lat="47.49301" lon="6.77332">
        <ele>310</ele>
        <time>2016-07-24T10:09:13.000Z</time>
      </trkpt>
      <trkpt lat="47.49307" lon="6.77333">
        <ele>310</ele>
        <time>2016-07-24T10:09:14.000Z</time>
      </trkpt>
      <trkpt lat="47.49313" lon="6.77334">
        <ele>310</ele>
        <time>2016-07-24T10:09:15.000Z</time>
      </trkpt>
      <trkpt lat="47.49319" lon="6.77336">
        <ele>310</ele>
        <time>2016-07-24T10:09:16.000Z</time>
      </trkpt>
      <trkpt lat="47.49323" lon="6.77339">
        <ele>310</ele>
        <time>2016-07-24T10:09:17.000Z</time>
      </trkpt>
      <trkpt lat="47.49329" lon="6.77341">
        <ele>310</ele>
        <time>2016-07-24T10:09:18.000Z</time>
      </trkpt>
      <trkpt lat="47.49331" lon="6.77346">
        <ele>310</ele>
        <time>2016-07-24T10:09:19.000Z</time>
      </trkpt>
      <trkpt lat="47.49335" lon="6.77349">
        <ele>310</ele>
        <time>2016-07-24T10:09:20.000Z</time>
      </trkpt>
      <trkpt lat="47.49341" lon="6.77349">
        <ele>310</ele>
        <time>2016-07-24T10:09:21.000Z</time>
      </trkpt>
      <trkpt lat="47.49346" lon="6.7735">
        <ele>310</ele>
        <time>2016-07-24T10:09:22.000Z</time>
      </trkpt>
      <trkpt lat="47.49351" lon="6.7735">
        <ele>310</ele>
        <time>2016-07-24T10:09:23.000Z</time>
      </trkpt>
      <trkpt lat="47.49356" lon="6.77355">
        <ele>310</ele>
        <time>2016-07-24T10:09:24.000Z</time>
      </trkpt>
      <trkpt lat="47.49362" lon="6.77354">
        <ele>310</ele>
        <time>2016-07-24T10:09:25.000Z</time>
      </trkpt>
      <trkpt lat="47.49367" lon="6.77354">
        <ele>310</ele>
        <time>2016-07-24T10:09:26.000Z</time>
      </trkpt>
      <trkpt lat="47.49373" lon="6.77355">
        <ele>310</ele>
        <time>2016-07-24T10:09:27.000Z</time>
      </trkpt>
      <trkpt lat="47.49378" lon="6.77355">
        <ele>310</ele>
        <time>2016-07-24T10:09:28.000Z</time>
      </trkpt>
      <trkpt lat="47.49383" lon="6.77355">
        <ele>310</ele>
        <time>2016-07-24T10:09:29.000Z</time>
      </trkpt>
      <trkpt lat="47.49389" lon="6.77355">
        <ele>310</ele>
        <time>2016-07-24T10:09:30.000Z</time>
      </trkpt>
      <trkpt lat="47.49394" lon="6.77356">
        <ele>310</ele>
        <time>2016-07-24T10:09:31.000Z</time>
      </trkpt>
      <trkpt lat="47.49399" lon="6.77356">
        <ele>310</ele>
        <time>2016-07-24T10:09:32.000Z</time>
      </trkpt>
      <trkpt lat="47.49405" lon="6.77355">
        <ele>310</ele>
        <time>2016-07-24T10:09:33.000Z</time>
      </trkpt>
      <trkpt lat="47.4941" lon="6.77355">
        <ele>310</ele>
        <time>2016-07-24T10:09:34.000Z</time>
      </trkpt>
      <trkpt lat="47.49416" lon="6.77355">
        <ele>311</ele>
        <time>2016-07-24T10:09:35.000Z</time>
      </trkpt>
      <trkpt lat="47.49422" lon="6.77355">
        <ele>311</ele>
        <time>2016-07-24T10:09:36.000Z</time>
      </trkpt>
      <trkpt lat="47.49427" lon="6.77355">
        <ele>311</ele>
        <time>2016-07-24T10:09:37.000Z</time>
      </trkpt>
      <trkpt lat="47.49433" lon="6.77356">
        <ele>311</ele>
        <time>2016-07-24T10:09:38.000Z</time>
      </trkpt>
      <trkpt lat="47.49438" lon="6.77356">
        <ele>311</ele>
        <time>2016-07-24T10:09:39.000Z</time>
      </trkpt>
      <trkpt lat="47.49443" lon="6.77357">
        <ele>311</ele>
        <time>2016-07-24T10:09:40.000Z</time>
      </trkpt>
      <trkpt lat="47.49449" lon="6.77357">
        <ele>311</ele>
        <time>2016-07-24T10:09:41.000Z</time>
      </trkpt>
      <trkpt lat="47.49454" lon="6.77357">
        <ele>311</ele>
        <time>2016-07-24T10:09:42.000Z</time>
      </trkpt>
      <trkpt lat="47.49459" lon="6.77356">
        <ele>311</ele>
        <time>2016-07-24T10:09:43.000Z</time>
      </trkpt>
      <trkpt lat="47.49465" lon="6.77356">
        <ele>311</ele>
        <time>2016-07-24T10:09:44.000Z</time>
      </trkpt>
      <trkpt lat="47.4947" lon="6.77356">
        <ele>311</ele>
        <time>2016-07-24T10:09:45.000Z</time>
      </trkpt>
      <trkpt lat="47.49475" lon="6.77357">
        <ele>311</ele>
        <time>2016-07-24T10:09:46.000Z</time>
      </trkpt>
      <trkpt lat="47.4948" lon="6.77357">
        <ele>311</ele>
        <time>2016-07-24T10:09:47.000Z</time>
      </trkpt>
      <trkpt lat="47.49486" lon="6.77359">
        <ele>311</ele>
        <time>2016-07-24T10:09:48.000Z</time>
      </trkpt>
      <trkpt lat="47.49491" lon="6.7736">
        <ele>311</ele>
        <time>2016-07-24T10:09:49.000Z</time>
      </trkpt>
      <trkpt lat="47.49496" lon="6.7736">
        <ele>311</ele>
        <time>2016-07-24T10:09:50.000Z</time>
      </trkpt>
      <trkpt lat="47.49501" lon="6.77361">
        <ele>312</ele>
        <time>2016-07-24T10:09:51.000Z</time>
      </trkpt>
      <trkpt lat="47.49507" lon="6.77361">
        <ele>312</ele>
        <time>2016-07-24T10:09:52.000Z</time>
      </trkpt>
      <trkpt lat="47.49512" lon="6.77362">
        <ele>312</ele>
        <time>2016-07-24T10:09:53.000Z</time>
      </trkpt>
      <trkpt lat="47.49518" lon="6.77363">
        <ele>312</ele>
        <time>2016-07-24T10:09:54.000Z</time>
      </trkpt>
      <trkpt lat="47.49523" lon="6.77363">
        <ele>312</ele>
        <time>2016-07-24T10:09:55.000Z</time>
      </trkpt>
      <trkpt lat="47.49528" lon="6.77363">
        <ele>312</ele>
        <time>2016-07-24T10:09:56.000Z</time>
      </trkpt>
      <trkpt lat="47.49534" lon="6.77364">
        <ele>312</ele>
        <time>2016-07-24T10:09:57.000Z</time>
      </trkpt>
      <trkpt lat="47.49539" lon="6.77363">
        <ele>312</ele>
        <time>2016-07-24T10:09:58.000Z</time>
      </trkpt>
      <trkpt lat="47.49545" lon="6.77363">
        <ele>312</ele>
        <time>2016-07-24T10:09:59.000Z</time>
      </trkpt>
      <trkpt lat="47.49551" lon="6.77363">
        <ele>312</ele>
        <time>2016-07-24T10:10:00.000Z</time>
      </trkpt>
      <trkpt lat="47.49556" lon="6.77364">
        <ele>312</ele>
        <time>2016-07-24T10:10:01.000Z</time>
      </trkpt>
      <trkpt lat="47.49562" lon="6.77364">
        <ele>312</ele>
        <time>2016-07-24T10:10:02.000Z</time>
      </trkpt>
      <trkpt lat="47.49568" lon="6.77364">
        <ele>312</ele>
        <time>2016-07-24T10:10:03.000Z</time>
      </trkpt>
      <trkpt lat="47.49573" lon="6.77364">
        <ele>313</ele>
        <time>2016-07-24T10:10:04.000Z</time>
      </trkpt>
      <trkpt lat="47.49578" lon="6.77364">
        <ele>313</ele>
        <time>2016-07-24T10:10:05.000Z</time>
      </trkpt>
      <trkpt lat="47.49584" lon="6.77364">
        <ele>313</ele>
        <time>2016-07-24T10:10:06.000Z</time>
      </trkpt>
      <trkpt lat="47.4959" lon="6.77363">
        <ele>313</ele>
        <time>2016-07-24T10:10:07.000Z</time>
      </trkpt>
      <trkpt lat="47.49595" lon="6.77362">
        <ele>313</ele>
        <time>2016-07-24T10:10:08.000Z</time>
      </trkpt>
      <trkpt lat="47.496" lon="6.77361">
        <ele>313</ele>
        <time>2016-07-24T10:10:09.000Z</time>
      </trkpt>
      <trkpt lat="47.49606" lon="6.7736">
        <ele>313</ele>
        <time>2016-07-24T10:10:10.000Z</time>
      </trkpt>
      <trkpt lat="47.49611" lon="6.77359">
        <ele>313</ele>
        <time>2016-07-24T10:10:11.000Z</time>
      </trkpt>
      <trkpt lat="47.49617" lon="6.77357">
        <ele>313</ele>
        <time>2016-07-24T10:10:12.000Z</time>
      </trkpt>
      <trkpt lat="47.49622" lon="6.77356">
        <ele>313</ele>
        <time>2016-07-24T10:10:13.000Z</time>
      </trkpt>
      <trkpt lat="47.49626" lon="6.77358">
        <ele>313</ele>
        <time>2016-07-24T10:10:14.000Z</time>
      </trkpt>
      <trkpt lat="47.49632" lon="6.77357">
        <ele>313</ele>
        <time>2016-07-24T10:10:15.000Z</time>
      </trkpt>
      <trkpt lat="47.49637" lon="6.77356">
        <ele>313</ele>
        <time>2016-07-24T10:10:16.000Z</time>
      </trkpt>
      <trkpt lat="47.49642" lon="6.77355">
        <ele>313</ele>
        <time>2016-07-24T10:10:17.000Z</time>
      </trkpt>
      <trkpt lat="47.49647" lon="6.77354">
        <ele>313</ele>
        <time>2016-07-24T10:10:18.000Z</time>
      </trkpt>
      <trkpt lat="47.49652" lon="6.77353">
        <ele>313</ele>
        <time>2016-07-24T10:10:19.000Z</time>
      </trkpt>
      <trkpt lat="47.49658" lon="6.77348">
        <ele>313</ele>
        <time>2016-07-24T10:10:20.000Z</time>
      </trkpt>
      <trkpt lat="47.49663" lon="6.77347">
        <ele>313</ele>
        <time>2016-07-24T10:10:21.000Z</time>
      </trkpt>
      <trkpt lat="47.49667" lon="6.77346">
        <ele>313</ele>
        <time>2016-07-24T10:10:22.000Z</time>
      </trkpt>
      <trkpt lat="47.49671" lon="6.77344">
        <ele>313</ele>
        <time>2016-07-24T10:10:23.000Z</time>
      </trkpt>
      <trkpt lat="47.49675" lon="6.77343">
        <ele>313</ele>
        <time>2016-07-24T10:10:24.000Z</time>
      </trkpt>
      <trkpt lat="47.4968" lon="6.77342">
        <ele>313</ele>
        <time>2016-07-24T10:10:25.000Z</time>
      </trkpt>
      <trkpt lat="47.49684" lon="6.77341">
        <ele>313</ele>
        <time>2016-07-24T10:10:26.000Z</time>
      </trkpt>
      <trkpt lat="47.49689" lon="6.77341">
        <ele>313</ele>
        <time>2016-07-24T10:10:27.000Z</time>
      </trkpt>
      <trkpt lat="47.49695" lon="6.77339">
        <ele>313</ele>
        <time>2016-07-24T10:10:28.000Z</time>
      </trkpt>
      <trkpt lat="47.49701" lon="6.77338">
        <ele>313</ele>
        <time>2016-07-24T10:10:29.000Z</time>
      </trkpt>
      <trkpt lat="47.49706" lon="6.77337">
        <ele>313</ele>
        <time>2016-07-24T10:10:30.000Z</time>
      </trkpt>
      <trkpt lat="47.49711" lon="6.77336">
        <ele>313</ele>
        <time>2016-07-24T10:10:31.000Z</time>
      </trkpt>
      <trkpt lat="47.49715" lon="6.77337">
        <ele>313</ele>
        <time>2016-07-24T10:10:32.000Z</time>
      </trkpt>
      <trkpt lat="47.49719" lon="6.77337">
        <ele>312</ele>
        <time>2016-07-24T10:10:33.000Z</time>
      </trkpt>
      <trkpt lat="47.49723" lon="6.77336">
        <ele>313</ele>
        <time>2016-07-24T10:10:34.000Z</time>
      </trkpt>
      <trkpt lat="47.49726" lon="6.77335">
        <ele>313</ele>
        <time>2016-07-24T10:10:35.000Z</time>
      </trkpt>
      <trkpt lat="47.4973" lon="6.77333">
        <ele>314</ele>
        <time>2016-07-24T10:10:36.000Z</time>
      </trkpt>
      <trkpt lat="47.49733" lon="6.77331">
        <ele>314</ele>
        <time>2016-07-24T10:10:37.000Z</time>
      </trkpt>
      <trkpt lat="47.49736" lon="6.77328">
        <ele>314</ele>
        <time>2016-07-24T10:10:38.000Z</time>
      </trkpt>
      <trkpt lat="47.49738" lon="6.77324">
        <ele>314</ele>
        <time>2016-07-24T10:10:39.000Z</time>
      </trkpt>
      <trkpt lat="47.4974" lon="6.77323">
        <ele>314</ele>
        <time>2016-07-24T10:10:40.000Z</time>
      </trkpt>
      <trkpt lat="47.49743" lon="6.77321">
        <ele>314</ele>
        <time>2016-07-24T10:10:41.000Z</time>
      </trkpt>
      <trkpt lat="47.49747" lon="6.77319">
        <ele>314</ele>
        <time>2016-07-24T10:10:42.000Z</time>
      </trkpt>
      <trkpt lat="47.4975" lon="6.77317">
        <ele>315</ele>
        <time>2016-07-24T10:10:43.000Z</time>
      </trkpt>
      <trkpt lat="47.49754" lon="6.77315">
        <ele>315</ele>
        <time>2016-07-24T10:10:44.000Z</time>
      </trkpt>
      <trkpt lat="47.49758" lon="6.77314">
        <ele>316</ele>
        <time>2016-07-24T10:10:45.000Z</time>
      </trkpt>
      <trkpt lat="47.49762" lon="6.77312">
        <ele>316</ele>
        <time>2016-07-24T10:10:46.000Z</time>
      </trkpt>
      <trkpt lat="47.49766" lon="6.77311">
        <ele>316</ele>
        <time>2016-07-24T10:10:47.000Z</time>
      </trkpt>
      <trkpt lat="47.49771" lon="6.7731">
        <ele>316</ele>
        <time>2016-07-24T10:10:48.000Z</time>
      </trkpt>
      <trkpt lat="47.49777" lon="6.77311">
        <ele>316</ele>
        <time>2016-07-24T10:10:49.000Z</time>
      </trkpt>
      <trkpt lat="47.49783" lon="6.7731">
        <ele>317</ele>
        <time>2016-07-24T10:10:50.000Z</time>
      </trkpt>
      <trkpt lat="47.49789" lon="6.77309">
        <ele>317</ele>
        <time>2016-07-24T10:10:51.000Z</time>
      </trkpt>
      <trkpt lat="47.49795" lon="6.77309">
        <ele>317</ele>
        <time>2016-07-24T10:10:52.000Z</time>
      </trkpt>
      <trkpt lat="47.49801" lon="6.77308">
        <ele>317</ele>
        <time>2016-07-24T10:10:53.000Z</time>
      </trkpt>
      <trkpt lat="47.49807" lon="6.77308">
        <ele>317</ele>
        <time>2016-07-24T10:10:54.000Z</time>
      </trkpt>
      <trkpt lat="47.49813" lon="6.77308">
        <ele>317</ele>
        <time>2016-07-24T10:10:55.000Z</time>
      </trkpt>
      <trkpt lat="47.49819" lon="6.77308">
        <ele>317</ele>
        <time>2016-07-24T10:10:56.000Z</time>
      </trkpt>
      <trkpt lat="47.49824" lon="6.77309">
        <ele>317</ele>
        <time>2016-07-24T10:10:57.000Z</time>
      </trkpt>
      <trkpt lat="47.49828" lon="6.77312">
        <ele>316</ele>
        <time>2016-07-24T10:10:58.000Z</time>
      </trkpt>
      <trkpt lat="47.49833" lon="6.77315">
        <ele>316</ele>
        <time>2016-07-24T10:10:59.000Z</time>
      </trkpt>
      <trkpt lat="47.49839" lon="6.77315">
        <ele>316</ele>
        <time>2016-07-24T10:11:00.000Z</time>
      </trkpt>
      <trkpt lat="47.49847" lon="6.7731">
        <ele>317</ele>
        <time>2016-07-24T10:11:01.000Z</time>
      </trkpt>
      <trkpt lat="47.49853" lon="6.77312">
        <ele>317</ele>
        <time>2016-07-24T10:11:02.000Z</time>
      </trkpt>
      <trkpt lat="47.4986" lon="6.77309">
        <ele>318</ele>
        <time>2016-07-24T10:11:03.000Z</time>
      </trkpt>
      <trkpt lat="47.49866" lon="6.77308">
        <ele>318</ele>
        <time>2016-07-24T10:11:04.000Z</time>
      </trkpt>
      <trkpt lat="47.49873" lon="6.77307">
        <ele>318</ele>
        <time>2016-07-24T10:11:05.000Z</time>
      </trkpt>
      <trkpt lat="47.49877" lon="6.77306">
        <ele>318</ele>
        <time>2016-07-24T10:11:06.000Z</time>
      </trkpt>
      <trkpt lat="47.49884" lon="6.77304">
        <ele>318</ele>
        <time>2016-07-24T10:11:07.000Z</time>
      </trkpt>
      <trkpt lat="47.49889" lon="6.77304">
        <ele>318</ele>
        <time>2016-07-24T10:11:08.000Z</time>
      </trkpt>
      <trkpt lat="47.49894" lon="6.77301">
        <ele>318</ele>
        <time>2016-07-24T10:11:09.000Z</time>
      </trkpt>
      <trkpt lat="47.49899" lon="6.77299">
        <ele>318</ele>
        <time>2016-07-24T10:11:10.000Z</time>
      </trkpt>
      <trkpt lat="47.49903" lon="6.77298">
        <ele>318</ele>
        <time>2016-07-24T10:11:11.000Z</time>
      </trkpt>
      <trkpt lat="47.49909" lon="6.77295">
        <ele>318</ele>
        <time>2016-07-24T10:11:12.000Z</time>
      </trkpt>
      <trkpt lat="47.49915" lon="6.7729">
        <ele>319</ele>
        <time>2016-07-24T10:11:13.000Z</time>
      </trkpt>
      <trkpt lat="47.49921" lon="6.77285">
        <ele>317</ele>
        <time>2016-07-24T10:11:14.000Z</time>
      </trkpt>
      <trkpt lat="47.49926" lon="6.77282">
        <ele>318</ele>
        <time>2016-07-24T10:11:15.000Z</time>
      </trkpt>
      <trkpt lat="47.49932" lon="6.77278">
        <ele>318</ele>
        <time>2016-07-24T10:11:16.000Z</time>
      </trkpt>
      <trkpt lat="47.49937" lon="6.77275">
        <ele>318</ele>
        <time>2016-07-24T10:11:17.000Z</time>
      </trkpt>
      <trkpt lat="47.49942" lon="6.77274">
        <ele>318</ele>
        <time>2016-07-24T10:11:18.000Z</time>
      </trkpt>
      <trkpt lat="47.49947" lon="6.77272">
        <ele>317</ele>
        <time>2016-07-24T10:11:19.000Z</time>
      </trkpt>
      <trkpt lat="47.49953" lon="6.77271">
        <ele>317</ele>
        <time>2016-07-24T10:11:20.000Z</time>
      </trkpt>
      <trkpt lat="47.49957" lon="6.77266">
        <ele>317</ele>
        <time>2016-07-24T10:11:21.000Z</time>
      </trkpt>
      <trkpt lat="47.49962" lon="6.77262">
        <ele>317</ele>
        <time>2016-07-24T10:11:22.000Z</time>
      </trkpt>
      <trkpt lat="47.49964" lon="6.77261">
        <ele>317</ele>
        <time>2016-07-24T10:11:23.000Z</time>
      </trkpt>
      <trkpt lat="47.49969" lon="6.77259">
        <ele>317</ele>
        <time>2016-07-24T10:11:24.000Z</time>
      </trkpt>
      <trkpt lat="47.49974" lon="6.77258">
        <ele>316</ele>
        <time>2016-07-24T10:11:25.000Z</time>
      </trkpt>
      <trkpt lat="47.49981" lon="6.77254">
        <ele>316</ele>
        <time>2016-07-24T10:11:26.000Z</time>
      </trkpt>
      <trkpt lat="47.49985" lon="6.77252">
        <ele>316</ele>
        <time>2016-07-24T10:11:27.000Z</time>
      </trkpt>
      <trkpt lat="47.4999" lon="6.77249">
        <ele>322</ele>
        <time>2016-07-24T10:11:28.000Z</time>
      </trkpt>
      <trkpt lat="47.49995" lon="6.77248">
        <ele>320</ele>
        <time>2016-07-24T10:11:29.000Z</time>
      </trkpt>
      <trkpt lat="47.5" lon="6.77244">
        <ele>320</ele>
        <time>2016-07-24T10:11:30.000Z</time>
      </trkpt>
      <trkpt lat="47.50004" lon="6.77243">
        <ele>320</ele>
        <time>2016-07-24T10:11:31.000Z</time>
      </trkpt>
      <trkpt lat="47.50007" lon="6.77242">
        <ele>321</ele>
        <time>2016-07-24T10:11:32.000Z</time>
      </trkpt>
      <trkpt lat="47.50012" lon="6.77239">
        <ele>323</ele>
        <time>2016-07-24T10:11:33.000Z</time>
      </trkpt>
      <trkpt lat="47.50016" lon="6.77238">
        <ele>324</ele>
        <time>2016-07-24T10:11:34.000Z</time>
      </trkpt>
      <trkpt lat="47.5002" lon="6.77236">
        <ele>325</ele>
        <time>2016-07-24T10:11:35.000Z</time>
      </trkpt>
      <trkpt lat="47.50025" lon="6.77233">
        <ele>326</ele>
        <time>2016-07-24T10:11:36.000Z</time>
      </trkpt>
      <trkpt lat="47.50029" lon="6.77231">
        <ele>326</ele>
        <time>2016-07-24T10:11:37.000Z</time>
      </trkpt>
      <trkpt lat="47.50034" lon="6.77229">
        <ele>327</ele>
        <time>2016-07-24T10:11:38.000Z</time>
      </trkpt>
      <trkpt lat="47.50039" lon="6.77226">
        <ele>327</ele>
        <time>2016-07-24T10:11:39.000Z</time>
      </trkpt>
      <trkpt lat="47.50042" lon="6.77226">
        <ele>327</ele>
        <time>2016-07-24T10:11:40.000Z</time>
      </trkpt>
      <trkpt lat="47.50046" lon="6.77225">
        <ele>327</ele>
        <time>2016-07-24T10:11:41.000Z</time>
      </trkpt>
      <trkpt lat="47.5005" lon="6.77224">
        <ele>327</ele>
        <time>2016-07-24T10:11:42.000Z</time>
      </trkpt>
      <trkpt lat="47.50054" lon="6.77224">
        <ele>327</ele>
        <time>2016-07-24T10:11:43.000Z</time>
      </trkpt>
      <trkpt lat="47.5006" lon="6.77221">
        <ele>327</ele>
        <time>2016-07-24T10:11:44.000Z</time>
      </trkpt>
      <trkpt lat="47.50066" lon="6.77221">
        <ele>326</ele>
        <time>2016-07-24T10:11:45.000Z</time>
      </trkpt>
      <trkpt lat="47.50072" lon="6.7722">
        <ele>326</ele>
        <time>2016-07-24T10:11:46.000Z</time>
      </trkpt>
      <trkpt lat="47.50078" lon="6.77216">
        <ele>327</ele>
        <time>2016-07-24T10:11:47.000Z</time>
      </trkpt>
      <trkpt lat="47.50083" lon="6.77213">
        <ele>328</ele>
        <time>2016-07-24T10:11:48.000Z</time>
      </trkpt>
      <trkpt lat="47.50088" lon="6.7721">
        <ele>324</ele>
        <time>2016-07-24T10:11:49.000Z</time>
      </trkpt>
      <trkpt lat="47.50093" lon="6.77208">
        <ele>324</ele>
        <time>2016-07-24T10:11:50.000Z</time>
      </trkpt>
      <trkpt lat="47.50098" lon="6.77208">
        <ele>324</ele>
        <time>2016-07-24T10:11:51.000Z</time>
      </trkpt>
      <trkpt lat="47.50104" lon="6.77207">
        <ele>324</ele>
        <time>2016-07-24T10:11:52.000Z</time>
      </trkpt>
      <trkpt lat="47.5011" lon="6.77208">
        <ele>324</ele>
        <time>2016-07-24T10:11:53.000Z</time>
      </trkpt>
      <trkpt lat="47.50115" lon="6.77208">
        <ele>323</ele>
        <time>2016-07-24T10:11:54.000Z</time>
      </trkpt>
      <trkpt lat="47.50121" lon="6.77208">
        <ele>323</ele>
        <time>2016-07-24T10:11:55.000Z</time>
      </trkpt>
      <trkpt lat="47.50128" lon="6.77209">
        <ele>323</ele>
        <time>2016-07-24T10:11:56.000Z</time>
      </trkpt>
      <trkpt lat="47.50135" lon="6.7721">
        <ele>322</ele>
        <time>2016-07-24T10:11:57.000Z</time>
      </trkpt>
      <trkpt lat="47.50141" lon="6.7721">
        <ele>322</ele>
        <time>2016-07-24T10:11:58.000Z</time>
      </trkpt>
      <trkpt lat="47.50146" lon="6.77212">
        <ele>321</ele>
        <time>2016-07-24T10:11:59.000Z</time>
      </trkpt>
      <trkpt lat="47.50152" lon="6.77216">
        <ele>321</ele>
        <time>2016-07-24T10:12:00.000Z</time>
      </trkpt>
      <trkpt lat="47.50157" lon="6.77221">
        <ele>320</ele>
        <time>2016-07-24T10:12:01.000Z</time>
      </trkpt>
      <trkpt lat="47.50162" lon="6.77226">
        <ele>319</ele>
        <time>2016-07-24T10:12:02.000Z</time>
      </trkpt>
      <trkpt lat="47.50166" lon="6.7723">
        <ele>318</ele>
        <time>2016-07-24T10:12:03.000Z</time>
      </trkpt>
      <trkpt lat="47.50172" lon="6.77234">
        <ele>315</ele>
        <time>2016-07-24T10:12:04.000Z</time>
      </trkpt>
      <trkpt lat="47.50177" lon="6.77238">
        <ele>315</ele>
        <time>2016-07-24T10:12:05.000Z</time>
      </trkpt>
      <trkpt lat="47.50181" lon="6.77242">
        <ele>315</ele>
        <time>2016-07-24T10:12:06.000Z</time>
      </trkpt>
      <trkpt lat="47.50186" lon="6.77246">
        <ele>315</ele>
        <time>2016-07-24T10:12:07.000Z</time>
      </trkpt>
      <trkpt lat="47.50191" lon="6.7725">
        <ele>313</ele>
        <time>2016-07-24T10:12:08.000Z</time>
      </trkpt>
      <trkpt lat="47.50196" lon="6.77254">
        <ele>313</ele>
        <time>2016-07-24T10:12:09.000Z</time>
      </trkpt>
      <trkpt lat="47.50201" lon="6.77258">
        <ele>313</ele>
        <time>2016-07-24T10:12:10.000Z</time>
      </trkpt>
      <trkpt lat="47.50206" lon="6.77262">
        <ele>313</ele>
        <time>2016-07-24T10:12:11.000Z</time>
      </trkpt>
      <trkpt lat="47.50211" lon="6.77265">
        <ele>313</ele>
        <time>2016-07-24T10:12:12.000Z</time>
      </trkpt>
      <trkpt lat="47.50215" lon="6.7727">
        <ele>313</ele>
        <time>2016-07-24T10:12:13.000Z</time>
      </trkpt>
      <trkpt lat="47.5022" lon="6.77273">
        <ele>313</ele>
        <time>2016-07-24T10:12:14.000Z</time>
      </trkpt>
      <trkpt lat="47.50225" lon="6.77276">
        <ele>313</ele>
        <time>2016-07-24T10:12:15.000Z</time>
      </trkpt>
      <trkpt lat="47.50231" lon="6.77278">
        <ele>313</ele>
        <time>2016-07-24T10:12:16.000Z</time>
      </trkpt>
      <trkpt lat="47.50236" lon="6.77282">
        <ele>313</ele>
        <time>2016-07-24T10:12:17.000Z</time>
      </trkpt>
      <trkpt lat="47.50241" lon="6.77285">
        <ele>313</ele>
        <time>2016-07-24T10:12:18.000Z</time>
      </trkpt>
      <trkpt lat="47.50244" lon="6.77291">
        <ele>313</ele>
        <time>2016-07-24T10:12:19.000Z</time>
      </trkpt>
      <trkpt lat="47.50247" lon="6.77297">
        <ele>313</ele>
        <time>2016-07-24T10:12:20.000Z</time>
      </trkpt>
      <trkpt lat="47.50254" lon="6.77297">
        <ele>313</ele>
        <time>2016-07-24T10:12:21.000Z</time>
      </trkpt>
      <trkpt lat="47.50259" lon="6.77302">
        <ele>313</ele>
        <time>2016-07-24T10:12:22.000Z</time>
      </trkpt>
      <trkpt lat="47.50264" lon="6.77304">
        <ele>313</ele>
        <time>2016-07-24T10:12:23.000Z</time>
      </trkpt>
      <trkpt lat="47.50269" lon="6.77308">
        <ele>313</ele>
        <time>2016-07-24T10:12:24.000Z</time>
      </trkpt>
      <trkpt lat="47.50274" lon="6.77311">
        <ele>313</ele>
        <time>2016-07-24T10:12:25.000Z</time>
      </trkpt>
      <trkpt lat="47.50279" lon="6.77314">
        <ele>313</ele>
        <time>2016-07-24T10:12:26.000Z</time>
      </trkpt>
      <trkpt lat="47.50284" lon="6.77317">
        <ele>313</ele>
        <time>2016-07-24T10:12:27.000Z</time>
      </trkpt>
      <trkpt lat="47.50289" lon="6.7732">
        <ele>313</ele>
        <time>2016-07-24T10:12:28.000Z</time>
      </trkpt>
      <trkpt lat="47.50294" lon="6.77324">
        <ele>312</ele>
        <time>2016-07-24T10:12:29.000Z</time>
      </trkpt>
      <trkpt lat="47.50298" lon="6.77328">
        <ele>312</ele>
        <time>2016-07-24T10:12:30.000Z</time>
      </trkpt>
      <trkpt lat="47.50304" lon="6.77331">
        <ele>312</ele>
        <time>2016-07-24T10:12:31.000Z</time>
      </trkpt>
      <trkpt lat="47.50308" lon="6.77336">
        <ele>312</ele>
        <time>2016-07-24T10:12:32.000Z</time>
      </trkpt>
      <trkpt lat="47.50313" lon="6.7734">
        <ele>312</ele>
        <time>2016-07-24T10:12:33.000Z</time>
      </trkpt>
      <trkpt lat="47.50319" lon="6.77342">
        <ele>312</ele>
        <time>2016-07-24T10:12:34.000Z</time>
      </trkpt>
      <trkpt lat="47.50323" lon="6.77347">
        <ele>312</ele>
        <time>2016-07-24T10:12:35.000Z</time>
      </trkpt>
      <trkpt lat="47.50328" lon="6.77351">
        <ele>312</ele>
        <time>2016-07-24T10:12:36.000Z</time>
      </trkpt>
      <trkpt lat="47.50334" lon="6.77355">
        <ele>312</ele>
        <time>2016-07-24T10:12:37.000Z</time>
      </trkpt>
      <trkpt lat="47.50339" lon="6.77358">
        <ele>312</ele>
        <time>2016-07-24T10:12:38.000Z</time>
      </trkpt>
      <trkpt lat="47.50344" lon="6.77361">
        <ele>312</ele>
        <time>2016-07-24T10:12:39.000Z</time>
      </trkpt>
      <trkpt lat="47.50345" lon="6.77369">
        <ele>312</ele>
        <time>2016-07-24T10:12:40.000Z</time>
      </trkpt>
      <trkpt lat="47.5035" lon="6.77374">
        <ele>312</ele>
        <time>2016-07-24T10:12:41.000Z</time>
      </trkpt>
      <trkpt lat="47.50355" lon="6.77377">
        <ele>312</ele>
        <time>2016-07-24T10:12:42.000Z</time>
      </trkpt>
      <trkpt lat="47.5036" lon="6.77381">
        <ele>312</ele>
        <time>2016-07-24T10:12:43.000Z</time>
      </trkpt>
      <trkpt lat="47.50366" lon="6.77385">
        <ele>312</ele>
        <time>2016-07-24T10:12:44.000Z</time>
      </trkpt>
      <trkpt lat="47.50371" lon="6.77389">
        <ele>312</ele>
        <time>2016-07-24T10:12:45.000Z</time>
      </trkpt>
      <trkpt lat="47.50376" lon="6.77393">
        <ele>312</ele>
        <time>2016-07-24T10:12:46.000Z</time>
      </trkpt>
      <trkpt lat="47.5038" lon="6.77398">
        <ele>312</ele>
        <time>2016-07-24T10:12:47.000Z</time>
      </trkpt>
      <trkpt lat="47.50385" lon="6.77401">
        <ele>312</ele>
        <time>2016-07-24T10:12:48.000Z</time>
      </trkpt>
      <trkpt lat="47.50389" lon="6.77405">
        <ele>312</ele>
        <time>2016-07-24T10:12:49.000Z</time>
      </trkpt>
      <trkpt lat="47.50394" lon="6.7741">
        <ele>312</ele>
        <time>2016-07-24T10:12:50.000Z</time>
      </trkpt>
      <trkpt lat="47.50398" lon="6.77414">
        <ele>312</ele>
        <time>2016-07-24T10:12:51.000Z</time>
      </trkpt>
      <trkpt lat="47.50403" lon="6.77418">
        <ele>311</ele>
        <time>2016-07-24T10:12:52.000Z</time>
      </trkpt>
      <trkpt lat="47.50407" lon="6.77422">
        <ele>311</ele>
        <time>2016-07-24T10:12:53.000Z</time>
      </trkpt>
      <trkpt lat="47.50412" lon="6.77426">
        <ele>311</ele>
        <time>2016-07-24T10:12:54.000Z</time>
      </trkpt>
      <trkpt lat="47.50417" lon="6.77431">
        <ele>312</ele>
        <time>2016-07-24T10:12:55.000Z</time>
      </trkpt>
      <trkpt lat="47.50422" lon="6.77435">
        <ele>312</ele>
        <time>2016-07-24T10:12:56.000Z</time>
      </trkpt>
      <trkpt lat="47.50427" lon="6.77439">
        <ele>312</ele>
        <time>2016-07-24T10:12:57.000Z</time>
      </trkpt>
      <trkpt lat="47.50431" lon="6.77443">
        <ele>312</ele>
        <time>2016-07-24T10:12:58.000Z</time>
      </trkpt>
      <trkpt lat="47.50436" lon="6.77447">
        <ele>312</ele>
        <time>2016-07-24T10:12:59.000Z</time>
      </trkpt>
      <trkpt lat="47.5044" lon="6.77452">
        <ele>312</ele>
        <time>2016-07-24T10:13:00.000Z</time>
      </trkpt>
      <trkpt lat="47.50445" lon="6.77455">
        <ele>312</ele>
        <time>2016-07-24T10:13:01.000Z</time>
      </trkpt>
      <trkpt lat="47.5045" lon="6.7746">
        <ele>312</ele>
        <time>2016-07-24T10:13:02.000Z</time>
      </trkpt>
      <trkpt lat="47.50455" lon="6.77464">
        <ele>312</ele>
        <time>2016-07-24T10:13:03.000Z</time>
      </trkpt>
      <trkpt lat="47.5046" lon="6.77468">
        <ele>313</ele>
        <time>2016-07-24T10:13:04.000Z</time>
      </trkpt>
      <trkpt lat="47.50464" lon="6.77472">
        <ele>313</ele>
        <time>2016-07-24T10:13:05.000Z</time>
      </trkpt>
      <trkpt lat="47.50469" lon="6.77475">
        <ele>313</ele>
        <time>2016-07-24T10:13:06.000Z</time>
      </trkpt>
      <trkpt lat="47.50473" lon="6.77479">
        <ele>313</ele>
        <time>2016-07-24T10:13:07.000Z</time>
      </trkpt>
      <trkpt lat="47.50476" lon="6.77483">
        <ele>313</ele>
        <time>2016-07-24T10:13:08.000Z</time>
      </trkpt>
      <trkpt lat="47.50479" lon="6.77485">
        <ele>313</ele>
        <time>2016-07-24T10:13:09.000Z</time>
      </trkpt>
      <trkpt lat="47.50483" lon="6.7749">
        <ele>313</ele>
        <time>2016-07-24T10:13:10.000Z</time>
      </trkpt>
      <trkpt lat="47.50487" lon="6.77493">
        <ele>313</ele>
        <time>2016-07-24T10:13:11.000Z</time>
      </trkpt>
      <trkpt lat="47.50491" lon="6.77495">
        <ele>313</ele>
        <time>2016-07-24T10:13:12.000Z</time>
      </trkpt>
      <trkpt lat="47.50495" lon="6.77498">
        <ele>314</ele>
        <time>2016-07-24T10:13:13.000Z</time>
      </trkpt>
      <trkpt lat="47.50497" lon="6.77501">
        <ele>314</ele>
        <time>2016-07-24T10:13:14.000Z</time>
      </trkpt>
      <trkpt lat="47.50502" lon="6.77503">
        <ele>314</ele>
        <time>2016-07-24T10:13:15.000Z</time>
      </trkpt>
      <trkpt lat="47.50507" lon="6.77506">
        <ele>314</ele>
        <time>2016-07-24T10:13:16.000Z</time>
      </trkpt>
      <trkpt lat="47.50512" lon="6.77508">
        <ele>314</ele>
        <time>2016-07-24T10:13:17.000Z</time>
      </trkpt>
      <trkpt lat="47.50516" lon="6.77511">
        <ele>314</ele>
        <time>2016-07-24T10:13:18.000Z</time>
      </trkpt>
      <trkpt lat="47.50521" lon="6.77514">
        <ele>314</ele>
        <time>2016-07-24T10:13:19.000Z</time>
      </trkpt>
      <trkpt lat="47.50526" lon="6.77517">
        <ele>313</ele>
        <time>2016-07-24T10:13:20.000Z</time>
      </trkpt>
      <trkpt lat="47.50531" lon="6.77519">
        <ele>313</ele>
        <time>2016-07-24T10:13:21.000Z</time>
      </trkpt>
      <trkpt lat="47.50535" lon="6.77522">
        <ele>313</ele>
        <time>2016-07-24T10:13:22.000Z</time>
      </trkpt>
      <trkpt lat="47.50539" lon="6.77525">
        <ele>313</ele>
        <time>2016-07-24T10:13:23.000Z</time>
      </trkpt>
      <trkpt lat="47.50542" lon="6.77529">
        <ele>313</ele>
        <time>2016-07-24T10:13:24.000Z</time>
      </trkpt>
      <trkpt lat="47.50545" lon="6.77534">
        <ele>313</ele>
        <time>2016-07-24T10:13:25.000Z</time>
      </trkpt>
      <trkpt lat="47.50548" lon="6.77539">
        <ele>313</ele>
        <time>2016-07-24T10:13:26.000Z</time>
      </trkpt>
      <trkpt lat="47.5055" lon="6.77545">
        <ele>313</ele>
        <time>2016-07-24T10:13:27.000Z</time>
      </trkpt>
      <trkpt lat="47.50552" lon="6.7755">
        <ele>313</ele>
        <time>2016-07-24T10:13:28.000Z</time>
      </trkpt>
      <trkpt lat="47.50556" lon="6.77554">
        <ele>313</ele>
        <time>2016-07-24T10:13:29.000Z</time>
      </trkpt>
      <trkpt lat="47.50561" lon="6.77556">
        <ele>313</ele>
        <time>2016-07-24T10:13:30.000Z</time>
      </trkpt>
      <trkpt lat="47.50565" lon="6.77558">
        <ele>313</ele>
        <time>2016-07-24T10:13:31.000Z</time>
      </trkpt>
      <trkpt lat="47.50569" lon="6.77559">
        <ele>313</ele>
        <time>2016-07-24T10:13:32.000Z</time>
      </trkpt>
      <trkpt lat="47.50574" lon="6.7756">
        <ele>313</ele>
        <time>2016-07-24T10:13:33.000Z</time>
      </trkpt>
      <trkpt lat="47.50577" lon="6.77549">
        <ele>313</ele>
        <time>2016-07-24T10:13:34.000Z</time>
      </trkpt>
      <trkpt lat="47.5058" lon="6.77544">
        <ele>313</ele>
        <time>2016-07-24T10:13:35.000Z</time>
      </trkpt>
      <trkpt lat="47.50582" lon="6.7754">
        <ele>313</ele>
        <time>2016-07-24T10:13:36.000Z</time>
      </trkpt>
      <trkpt lat="47.50584" lon="6.77537">
        <ele>313</ele>
        <time>2016-07-24T10:13:37.000Z</time>
      </trkpt>
      <trkpt lat="47.50587" lon="6.77534">
        <ele>313</ele>
        <time>2016-07-24T10:13:38.000Z</time>
      </trkpt>
      <trkpt lat="47.50589" lon="6.77532">
        <ele>313</ele>
        <time>2016-07-24T10:13:39.000Z</time>
      </trkpt>
      <trkpt lat="47.50591" lon="6.77532">
        <ele>313</ele>
        <time>2016-07-24T10:13:40.000Z</time>
      </trkpt>
      <trkpt lat="47.50594" lon="6.77532">
        <ele>313</ele>
        <time>2016-07-24T10:13:41.000Z</time>
      </trkpt>
      <trkpt lat="47.50596" lon="6.77533">
        <ele>313</ele>
        <time>2016-07-24T10:13:42.000Z</time>
      </trkpt>
      <trkpt lat="47.506" lon="6.77534">
        <ele>313</ele>
        <time>2016-07-24T10:13:43.000Z</time>
      </trkpt>
      <trkpt lat="47.50603" lon="6.77534">
        <ele>313</ele>
        <time>2016-07-24T10:13:44.000Z</time>
      </trkpt>
      <trkpt lat="47.50608" lon="6.77535">
        <ele>313</ele>
        <time>2016-07-24T10:13:45.000Z</time>
      </trkpt>
      <trkpt lat="47.50612" lon="6.77536">
        <ele>313</ele>
        <time>2016-07-24T10:13:46.000Z</time>
      </trkpt>
      <trkpt lat="47.50617" lon="6.77536">
        <ele>313</ele>
        <time>2016-07-24T10:13:47.000Z</time>
      </trkpt>
      <trkpt lat="47.50622" lon="6.77537">
        <ele>313</ele>
        <time>2016-07-24T10:13:48.000Z</time>
      </trkpt>
      <trkpt lat="47.50627" lon="6.77539">
        <ele>313</ele>
        <time>2016-07-24T10:13:49.000Z</time>
      </trkpt>
      <trkpt lat="47.50632" lon="6.77541">
        <ele>313</ele>
        <time>2016-07-24T10:13:50.000Z</time>
      </trkpt>
      <trkpt lat="47.50637" lon="6.77544">
        <ele>313</ele>
        <time>2016-07-24T10:13:51.000Z</time>
      </trkpt>
      <trkpt lat="47.50642" lon="6.77546">
        <ele>313</ele>
        <time>2016-07-24T10:13:52.000Z</time>
      </trkpt>
      <trkpt lat="47.50647" lon="6.77548">
        <ele>313</ele>
        <time>2016-07-24T10:13:53.000Z</time>
      </trkpt>
      <trkpt lat="47.50652" lon="6.77549">
        <ele>313</ele>
        <time>2016-07-24T10:13:54.000Z</time>
      </trkpt>
      <trkpt lat="47.50657" lon="6.7755">
        <ele>313</ele>
        <time>2016-07-24T10:13:55.000Z</time>
      </trkpt>
      <trkpt lat="47.50661" lon="6.7755">
        <ele>313</ele>
        <time>2016-07-24T10:13:56.000Z</time>
      </trkpt>
      <trkpt lat="47.50665" lon="6.7755">
        <ele>313</ele>
        <time>2016-07-24T10:13:57.000Z</time>
      </trkpt>
      <trkpt lat="47.50669" lon="6.77551">
        <ele>313</ele>
        <time>2016-07-24T10:13:58.000Z</time>
      </trkpt>
      <trkpt lat="47.50674" lon="6.77551">
        <ele>313</ele>
        <time>2016-07-24T10:13:59.000Z</time>
      </trkpt>
      <trkpt lat="47.50679" lon="6.77552">
        <ele>313</ele>
        <time>2016-07-24T10:14:00.000Z</time>
      </trkpt>
      <trkpt lat="47.50684" lon="6.77554">
        <ele>313</ele>
        <time>2016-07-24T10:14:01.000Z</time>
      </trkpt>
      <trkpt lat="47.50696" lon="6.77559">
        <ele>313</ele>
        <time>2016-07-24T10:14:02.000Z</time>
      </trkpt>
      <trkpt lat="47.50701" lon="6.77561">
        <ele>313</ele>
        <time>2016-07-24T10:14:03.000Z</time>
      </trkpt>
      <trkpt lat="47.50707" lon="6.77563">
        <ele>313</ele>
        <time>2016-07-24T10:14:04.000Z</time>
      </trkpt>
      <trkpt lat="47.50712" lon="6.77564">
        <ele>313</ele>
        <time>2016-07-24T10:14:05.000Z</time>
      </trkpt>
      <trkpt lat="47.50716" lon="6.77563">
        <ele>313</ele>
        <time>2016-07-24T10:14:06.000Z</time>
      </trkpt>
      <trkpt lat="47.50721" lon="6.77563">
        <ele>313</ele>
        <time>2016-07-24T10:14:07.000Z</time>
      </trkpt>
      <trkpt lat="47.50725" lon="6.77563">
        <ele>313</ele>
        <time>2016-07-24T10:14:08.000Z</time>
      </trkpt>
      <trkpt lat="47.5073" lon="6.77565">
        <ele>313</ele>
        <time>2016-07-24T10:14:09.000Z</time>
      </trkpt>
      <trkpt lat="47.50735" lon="6.77564">
        <ele>313</ele>
        <time>2016-07-24T10:14:10.000Z</time>
      </trkpt>
      <trkpt lat="47.50738" lon="6.77566">
        <ele>313</ele>
        <time>2016-07-24T10:14:11.000Z</time>
      </trkpt>
      <trkpt lat="47.50743" lon="6.7757">
        <ele>313</ele>
        <time>2016-07-24T10:14:12.000Z</time>
      </trkpt>
      <trkpt lat="47.50747" lon="6.77572">
        <ele>313</ele>
        <time>2016-07-24T10:14:13.000Z</time>
      </trkpt>
      <trkpt lat="47.5075" lon="6.77575">
        <ele>314</ele>
        <time>2016-07-24T10:14:14.000Z</time>
      </trkpt>
      <trkpt lat="47.50754" lon="6.77578">
        <ele>313</ele>
        <time>2016-07-24T10:14:15.000Z</time>
      </trkpt>
      <trkpt lat="47.50757" lon="6.77581">
        <ele>313</ele>
        <time>2016-07-24T10:14:16.000Z</time>
      </trkpt>
      <trkpt lat="47.50759" lon="6.77584">
        <ele>314</ele>
        <time>2016-07-24T10:14:17.000Z</time>
      </trkpt>
      <trkpt lat="47.50762" lon="6.77586">
        <ele>314</ele>
        <time>2016-07-24T10:14:18.000Z</time>
      </trkpt>
      <trkpt lat="47.50765" lon="6.77589">
        <ele>314</ele>
        <time>2016-07-24T10:14:19.000Z</time>
      </trkpt>
      <trkpt lat="47.50768" lon="6.77591">
        <ele>314</ele>
        <time>2016-07-24T10:14:20.000Z</time>
      </trkpt>
      <trkpt lat="47.50771" lon="6.77594">
        <ele>314</ele>
        <time>2016-07-24T10:14:21.000Z</time>
      </trkpt>
      <trkpt lat="47.50775" lon="6.77597">
        <ele>314</ele>
        <time>2016-07-24T10:14:22.000Z</time>
      </trkpt>
      <trkpt lat="47.5078" lon="6.776">
        <ele>315</ele>
        <time>2016-07-24T10:14:23.000Z</time>
      </trkpt>
      <trkpt lat="47.50785" lon="6.77604">
        <ele>315</ele>
        <time>2016-07-24T10:14:24.000Z</time>
      </trkpt>
      <trkpt lat="47.5079" lon="6.77608">
        <ele>315</ele>
        <time>2016-07-24T10:14:25.000Z</time>
      </trkpt>
      <trkpt lat="47.50805" lon="6.77621">
        <ele>315</ele>
        <time>2016-07-24T10:14:26.000Z</time>
      </trkpt>
      <trkpt lat="47.50812" lon="6.77627">
        <ele>315</ele>
        <time>2016-07-24T10:14:27.000Z</time>
      </trkpt>
      <trkpt lat="47.50819" lon="6.77635">
        <ele>316</ele>
        <time>2016-07-24T10:14:28.000Z</time>
      </trkpt>
      <trkpt lat="47.50826" lon="6.77639">
        <ele>316</ele>
        <time>2016-07-24T10:14:29.000Z</time>
      </trkpt>
      <trkpt lat="47.50831" lon="6.77644">
        <ele>316</ele>
        <time>2016-07-24T10:14:30.000Z</time>
      </trkpt>
      <trkpt lat="47.50837" lon="6.77648">
        <ele>317</ele>
        <time>2016-07-24T10:14:31.000Z</time>
      </trkpt>
      <trkpt lat="47.50842" lon="6.77652">
        <ele>317</ele>
        <time>2016-07-24T10:14:32.000Z</time>
      </trkpt>
      <trkpt lat="47.50845" lon="6.77661">
        <ele>317</ele>
        <time>2016-07-24T10:14:33.000Z</time>
      </trkpt>
      <trkpt lat="47.50848" lon="6.77667">
        <ele>316</ele>
        <time>2016-07-24T10:14:34.000Z</time>
      </trkpt>
      <trkpt lat="47.50851" lon="6.77672">
        <ele>316</ele>
        <time>2016-07-24T10:14:35.000Z</time>
      </trkpt>
      <trkpt lat="47.50855" lon="6.77676">
        <ele>316</ele>
        <time>2016-07-24T10:14:36.000Z</time>
      </trkpt>
      <trkpt lat="47.50857" lon="6.77682">
        <ele>316</ele>
        <time>2016-07-24T10:14:37.000Z</time>
      </trkpt>
      <trkpt lat="47.5086" lon="6.77686">
        <ele>316</ele>
        <time>2016-07-24T10:14:38.000Z</time>
      </trkpt>
      <trkpt lat="47.50861" lon="6.77691">
        <ele>316</ele>
        <time>2016-07-24T10:14:39.000Z</time>
      </trkpt>
      <trkpt lat="47.50863" lon="6.77694">
        <ele>316</ele>
        <time>2016-07-24T10:14:40.000Z</time>
      </trkpt>
      <trkpt lat="47.50865" lon="6.77697">
        <ele>316</ele>
        <time>2016-07-24T10:14:41.000Z</time>
      </trkpt>
      <trkpt lat="47.50867" lon="6.77701">
        <ele>316</ele>
        <time>2016-07-24T10:14:42.000Z</time>
      </trkpt>
      <trkpt lat="47.50869" lon="6.77706">
        <ele>316</ele>
        <time>2016-07-24T10:14:43.000Z</time>
      </trkpt>
      <trkpt lat="47.50872" lon="6.77708">
        <ele>316</ele>
        <time>2016-07-24T10:14:44.000Z</time>
      </trkpt>
      <trkpt lat="47.50875" lon="6.7771">
        <ele>316</ele>
        <time>2016-07-24T10:14:45.000Z</time>
      </trkpt>
      <trkpt lat="47.5088" lon="6.77711">
        <ele>316</ele>
        <time>2016-07-24T10:14:46.000Z</time>
      </trkpt>
      <trkpt lat="47.50885" lon="6.77711">
        <ele>316</ele>
        <time>2016-07-24T10:14:47.000Z</time>
      </trkpt>
      <trkpt lat="47.50889" lon="6.7771">
        <ele>316</ele>
        <time>2016-07-24T10:14:48.000Z</time>
      </trkpt>
      <trkpt lat="47.50894" lon="6.7771">
        <ele>316</ele>
        <time>2016-07-24T10:14:49.000Z</time>
      </trkpt>
      <trkpt lat="47.509" lon="6.77709">
        <ele>316</ele>
        <time>2016-07-24T10:14:50.000Z</time>
      </trkpt>
      <trkpt lat="47.50905" lon="6.77708">
        <ele>316</ele>
        <time>2016-07-24T10:14:51.000Z</time>
      </trkpt>
      <trkpt lat="47.50911" lon="6.77707">
        <ele>316</ele>
        <time>2016-07-24T10:14:52.000Z</time>
      </trkpt>
      <trkpt lat="47.50914" lon="6.77707">
        <ele>316</ele>
        <time>2016-07-24T10:14:53.000Z</time>
      </trkpt>
      <trkpt lat="47.50917" lon="6.77707">
        <ele>315</ele>
        <time>2016-07-24T10:14:54.000Z</time>
      </trkpt>
      <trkpt lat="47.5092" lon="6.77709">
        <ele>315</ele>
        <time>2016-07-24T10:14:55.000Z</time>
      </trkpt>
      <trkpt lat="47.50923" lon="6.77711">
        <ele>315</ele>
        <time>2016-07-24T10:14:56.000Z</time>
      </trkpt>
      <trkpt lat="47.50927" lon="6.77712">
        <ele>315</ele>
        <time>2016-07-24T10:14:57.000Z</time>
      </trkpt>
      <trkpt lat="47.5093" lon="6.77713">
        <ele>315</ele>
        <time>2016-07-24T10:14:58.000Z</time>
      </trkpt>
      <trkpt lat="47.50933" lon="6.7771">
        <ele>315</ele>
        <time>2016-07-24T10:15:00.000Z</time>
      </trkpt>
      <trkpt lat="47.50934" lon="6.77707">
        <ele>315</ele>
        <time>2016-07-24T10:15:01.000Z</time>
      </trkpt>
      <trkpt lat="47.50938" lon="6.77706">
        <ele>315</ele>
        <time>2016-07-24T10:15:06.000Z</time>
      </trkpt>
      <trkpt lat="47.50939" lon="6.77707">
        <ele>315</ele>
        <time>2016-07-24T10:15:07.000Z</time>
      </trkpt>
      <trkpt lat="47.50943" lon="6.77707">
        <ele>315</ele>
        <time>2016-07-24T10:15:09.000Z</time>
      </trkpt>
      <trkpt lat="47.50945" lon="6.77706">
        <ele>315</ele>
        <time>2016-07-24T10:15:10.000Z</time>
      </trkpt>
      <trkpt lat="47.50949" lon="6.77705">
        <ele>315</ele>
        <time>2016-07-24T10:15:12.000Z</time>
      </trkpt>
      <trkpt lat="47.50951" lon="6.77703">
        <ele>315</ele>
        <time>2016-07-24T10:15:13.000Z</time>
      </trkpt>
      <trkpt lat="47.50954" lon="6.77702">
        <ele>315</ele>
        <time>2016-07-24T10:15:14.000Z</time>
      </trkpt>
      <trkpt lat="47.50956" lon="6.77702">
        <ele>315</ele>
        <time>2016-07-24T10:15:15.000Z</time>
      </trkpt>
      <trkpt lat="47.50959" lon="6.77704">
        <ele>315</ele>
        <time>2016-07-24T10:15:16.000Z</time>
      </trkpt>
      <trkpt lat="47.50962" lon="6.77707">
        <ele>315</ele>
        <time>2016-07-24T10:15:17.000Z</time>
      </trkpt>
      <trkpt lat="47.50964" lon="6.77711">
        <ele>315</ele>
        <time>2016-07-24T10:15:18.000Z</time>
      </trkpt>
      <trkpt lat="47.50967" lon="6.77715">
        <ele>315</ele>
        <time>2016-07-24T10:15:19.000Z</time>
      </trkpt>
      <trkpt lat="47.5097" lon="6.77718">
        <ele>315</ele>
        <time>2016-07-24T10:15:20.000Z</time>
      </trkpt>
      <trkpt lat="47.50974" lon="6.77721">
        <ele>315</ele>
        <time>2016-07-24T10:15:21.000Z</time>
      </trkpt>
      <trkpt lat="47.50978" lon="6.77723">
        <ele>315</ele>
        <time>2016-07-24T10:15:22.000Z</time>
      </trkpt>
      <trkpt lat="47.50981" lon="6.77726">
        <ele>315</ele>
        <time>2016-07-24T10:15:23.000Z</time>
      </trkpt>
      <trkpt lat="47.50985" lon="6.77729">
        <ele>315</ele>
        <time>2016-07-24T10:15:24.000Z</time>
      </trkpt>
      <trkpt lat="47.50989" lon="6.77731">
        <ele>315</ele>
        <time>2016-07-24T10:15:25.000Z</time>
      </trkpt>
      <trkpt lat="47.50993" lon="6.77734">
        <ele>316</ele>
        <time>2016-07-24T10:15:26.000Z</time>
      </trkpt>
      <trkpt lat="47.50997" lon="6.77737">
        <ele>316</ele>
        <time>2016-07-24T10:15:27.000Z</time>
      </trkpt>
      <trkpt lat="47.51001" lon="6.7774">
        <ele>316</ele>
        <time>2016-07-24T10:15:28.000Z</time>
      </trkpt>
      <trkpt lat="47.51005" lon="6.77743">
        <ele>316</ele>
        <time>2016-07-24T10:15:29.000Z</time>
      </trkpt>
      <trkpt lat="47.51008" lon="6.77745">
        <ele>316</ele>
        <time>2016-07-24T10:15:30.000Z</time>
      </trkpt>
      <trkpt lat="47.51012" lon="6.77748">
        <ele>316</ele>
        <time>2016-07-24T10:15:31.000Z</time>
      </trkpt>
      <trkpt lat="47.51015" lon="6.7775">
        <ele>317</ele>
        <time>2016-07-24T10:15:32.000Z</time>
      </trkpt>
      <trkpt lat="47.51018" lon="6.77751">
        <ele>317</ele>
        <time>2016-07-24T10:15:33.000Z</time>
      </trkpt>
      <trkpt lat="47.51021" lon="6.77753">
        <ele>317</ele>
        <time>2016-07-24T10:15:34.000Z</time>
      </trkpt>
      <trkpt lat="47.51023" lon="6.77754">
        <ele>317</ele>
        <time>2016-07-24T10:15:35.000Z</time>
      </trkpt>
      <trkpt lat="47.51027" lon="6.77756">
        <ele>317</ele>
        <time>2016-07-24T10:15:37.000Z</time>
      </trkpt>
      <trkpt lat="47.51029" lon="6.77757">
        <ele>317</ele>
        <time>2016-07-24T10:15:38.000Z</time>
      </trkpt>
      <trkpt lat="47.51032" lon="6.77761">
        <ele>318</ele>
        <time>2016-07-24T10:15:40.000Z</time>
      </trkpt>
      <trkpt lat="47.51034" lon="6.77762">
        <ele>318</ele>
        <time>2016-07-24T10:15:41.000Z</time>
      </trkpt>
      <trkpt lat="47.51037" lon="6.77766">
        <ele>318</ele>
        <time>2016-07-24T10:15:43.000Z</time>
      </trkpt>
      <trkpt lat="47.51039" lon="6.77767">
        <ele>318</ele>
        <time>2016-07-24T10:15:44.000Z</time>
      </trkpt>
      <trkpt lat="47.51041" lon="6.77769">
        <ele>318</ele>
        <time>2016-07-24T10:15:45.000Z</time>
      </trkpt>
      <trkpt lat="47.51043" lon="6.7777">
        <ele>318</ele>
        <time>2016-07-24T10:15:46.000Z</time>
      </trkpt>
      <trkpt lat="47.51046" lon="6.77772">
        <ele>318</ele>
        <time>2016-07-24T10:15:47.000Z</time>
      </trkpt>
      <trkpt lat="47.5105" lon="6.77774">
        <ele>318</ele>
        <time>2016-07-24T10:15:48.000Z</time>
      </trkpt>
      <trkpt lat="47.51053" lon="6.77775">
        <ele>318</ele>
        <time>2016-07-24T10:15:49.000Z</time>
      </trkpt>
      <trkpt lat="47.51057" lon="6.77777">
        <ele>318</ele>
        <time>2016-07-24T10:15:50.000Z</time>
      </trkpt>
      <trkpt lat="47.51061" lon="6.77778">
        <ele>318</ele>
        <time>2016-07-24T10:15:51.000Z</time>
      </trkpt>
      <trkpt lat="47.51065" lon="6.77779">
        <ele>318</ele>
        <time>2016-07-24T10:15:52.000Z</time>
      </trkpt>
      <trkpt lat="47.51069" lon="6.7778">
        <ele>318</ele>
        <time>2016-07-24T10:15:53.000Z</time>
      </trkpt>
      <trkpt lat="47.51073" lon="6.77781">
        <ele>319</ele>
        <time>2016-07-24T10:15:54.000Z</time>
      </trkpt>
      <trkpt lat="47.51077" lon="6.77783">
        <ele>319</ele>
        <time>2016-07-24T10:15:55.000Z</time>
      </trkpt>
      <trkpt lat="47.51081" lon="6.77785">
        <ele>319</ele>
        <time>2016-07-24T10:15:56.000Z</time>
      </trkpt>
      <trkpt lat="47.51084" lon="6.77787">
        <ele>321</ele>
        <time>2016-07-24T10:15:57.000Z</time>
      </trkpt>
      <trkpt lat="47.51088" lon="6.77788">
        <ele>321</ele>
        <time>2016-07-24T10:15:58.000Z</time>
      </trkpt>
      <trkpt lat="47.51091" lon="6.77789">
        <ele>321</ele>
        <time>2016-07-24T10:15:59.000Z</time>
      </trkpt>
      <trkpt lat="47.51094" lon="6.7779">
        <ele>322</ele>
        <time>2016-07-24T10:16:00.000Z</time>
      </trkpt>
      <trkpt lat="47.51098" lon="6.77791">
        <ele>322</ele>
        <time>2016-07-24T10:16:01.000Z</time>
      </trkpt>
      <trkpt lat="47.51102" lon="6.77793">
        <ele>322</ele>
        <time>2016-07-24T10:16:02.000Z</time>
      </trkpt>
      <trkpt lat="47.51106" lon="6.77794">
        <ele>322</ele>
        <time>2016-07-24T10:16:03.000Z</time>
      </trkpt>
      <trkpt lat="47.5111" lon="6.77796">
        <ele>322</ele>
        <time>2016-07-24T10:16:04.000Z</time>
      </trkpt>
      <trkpt lat="47.51114" lon="6.77797">
        <ele>322</ele>
        <time>2016-07-24T10:16:05.000Z</time>
      </trkpt>
      <trkpt lat="47.51118" lon="6.77798">
        <ele>322</ele>
        <time>2016-07-24T10:16:06.000Z</time>
      </trkpt>
      <trkpt lat="47.51122" lon="6.77799">
        <ele>322</ele>
        <time>2016-07-24T10:16:07.000Z</time>
      </trkpt>
      <trkpt lat="47.51126" lon="6.77799">
        <ele>322</ele>
        <time>2016-07-24T10:16:08.000Z</time>
      </trkpt>
      <trkpt lat="47.51129" lon="6.77799">
        <ele>322</ele>
        <time>2016-07-24T10:16:09.000Z</time>
      </trkpt>
      <trkpt lat="47.51132" lon="6.77799">
        <ele>322</ele>
        <time>2016-07-24T10:16:10.000Z</time>
      </trkpt>
      <trkpt lat="47.51135" lon="6.77799">
        <ele>323</ele>
        <time>2016-07-24T10:16:11.000Z</time>
      </trkpt>
      <trkpt lat="47.51138" lon="6.77799">
        <ele>323</ele>
        <time>2016-07-24T10:16:12.000Z</time>
      </trkpt>
      <trkpt lat="47.51141" lon="6.77799">
        <ele>323</ele>
        <time>2016-07-24T10:16:13.000Z</time>
      </trkpt>
      <trkpt lat="47.51144" lon="6.77799">
        <ele>323</ele>
        <time>2016-07-24T10:16:14.000Z</time>
      </trkpt>
      <trkpt lat="47.51147" lon="6.778">
        <ele>323</ele>
        <time>2016-07-24T10:16:15.000Z</time>
      </trkpt>
      <trkpt lat="47.5115" lon="6.778">
        <ele>323</ele>
        <time>2016-07-24T10:16:16.000Z</time>
      </trkpt>
      <trkpt lat="47.51153" lon="6.77799">
        <ele>323</ele>
        <time>2016-07-24T10:16:17.000Z</time>
      </trkpt>
      <trkpt lat="47.51156" lon="6.77799">
        <ele>323</ele>
        <time>2016-07-24T10:16:18.000Z</time>
      </trkpt>
      <trkpt lat="47.5116" lon="6.77798">
        <ele>323</ele>
        <time>2016-07-24T10:16:19.000Z</time>
      </trkpt>
      <trkpt lat="47.51163" lon="6.77798">
        <ele>323</ele>
        <time>2016-07-24T10:16:20.000Z</time>
      </trkpt>
      <trkpt lat="47.51166" lon="6.77797">
        <ele>323</ele>
        <time>2016-07-24T10:16:21.000Z</time>
      </trkpt>
      <trkpt lat="47.51169" lon="6.77796">
        <ele>326</ele>
        <time>2016-07-24T10:16:22.000Z</time>
      </trkpt>
      <trkpt lat="47.51172" lon="6.77796">
        <ele>326</ele>
        <time>2016-07-24T10:16:23.000Z</time>
      </trkpt>
      <trkpt lat="47.51175" lon="6.77796">
        <ele>326</ele>
        <time>2016-07-24T10:16:24.000Z</time>
      </trkpt>
      <trkpt lat="47.51178" lon="6.77796">
        <ele>326</ele>
        <time>2016-07-24T10:16:25.000Z</time>
      </trkpt>
      <trkpt lat="47.51181" lon="6.77796">
        <ele>326</ele>
        <time>2016-07-24T10:16:26.000Z</time>
      </trkpt>
      <trkpt lat="47.51184" lon="6.77795">
        <ele>326</ele>
        <time>2016-07-24T10:16:27.000Z</time>
      </trkpt>
      <trkpt lat="47.51186" lon="6.77795">
        <ele>326</ele>
        <time>2016-07-24T10:16:28.000Z</time>
      </trkpt>
      <trkpt lat="47.51189" lon="6.77794">
        <ele>326</ele>
        <time>2016-07-24T10:16:29.000Z</time>
      </trkpt>
      <trkpt lat="47.51192" lon="6.77794">
        <ele>327</ele>
        <time>2016-07-24T10:16:30.000Z</time>
      </trkpt>
      <trkpt lat="47.51195" lon="6.77793">
        <ele>327</ele>
        <time>2016-07-24T10:16:31.000Z</time>
      </trkpt>
      <trkpt lat="47.51198" lon="6.77792">
        <ele>327</ele>
        <time>2016-07-24T10:16:32.000Z</time>
      </trkpt>
      <trkpt lat="47.512" lon="6.77792">
        <ele>327</ele>
        <time>2016-07-24T10:16:33.000Z</time>
      </trkpt>
      <trkpt lat="47.51204" lon="6.77793">
        <ele>327</ele>
        <time>2016-07-24T10:16:35.000Z</time>
      </trkpt>
      <trkpt lat="47.51206" lon="6.77793">
        <ele>327</ele>
        <time>2016-07-24T10:16:36.000Z</time>
      </trkpt>
      <trkpt lat="47.5121" lon="6.77793">
        <ele>327</ele>
        <time>2016-07-24T10:16:38.000Z</time>
      </trkpt>
      <trkpt lat="47.51212" lon="6.77792">
        <ele>327</ele>
        <time>2016-07-24T10:16:39.000Z</time>
      </trkpt>
      <trkpt lat="47.51216" lon="6.77792">
        <ele>327</ele>
        <time>2016-07-24T10:16:41.000Z</time>
      </trkpt>
      <trkpt lat="47.51219" lon="6.77791">
        <ele>327</ele>
        <time>2016-07-24T10:16:42.000Z</time>
      </trkpt>
      <trkpt lat="47.51221" lon="6.77791">
        <ele>327</ele>
        <time>2016-07-24T10:16:43.000Z</time>
      </trkpt>
      <trkpt lat="47.51223" lon="6.77791">
        <ele>327</ele>
        <time>2016-07-24T10:16:44.000Z</time>
      </trkpt>
      <trkpt lat="47.51227" lon="6.77791">
        <ele>328</ele>
        <time>2016-07-24T10:16:46.000Z</time>
      </trkpt>
      <trkpt lat="47.51229" lon="6.77791">
        <ele>328</ele>
        <time>2016-07-24T10:16:47.000Z</time>
      </trkpt>
      <trkpt lat="47.51234" lon="6.7779">
        <ele>328</ele>
        <time>2016-07-24T10:16:49.000Z</time>
      </trkpt>
      <trkpt lat="47.51236" lon="6.77791">
        <ele>328</ele>
        <time>2016-07-24T10:16:50.000Z</time>
      </trkpt>
      <trkpt lat="47.5124" lon="6.77791">
        <ele>328</ele>
        <time>2016-07-24T10:16:52.000Z</time>
      </trkpt>
      <trkpt lat="47.51242" lon="6.77791">
        <ele>328</ele>
        <time>2016-07-24T10:16:53.000Z</time>
      </trkpt>
      <trkpt lat="47.51246" lon="6.77791">
        <ele>328</ele>
        <time>2016-07-24T10:16:55.000Z</time>
      </trkpt>
      <trkpt lat="47.51247" lon="6.77791">
        <ele>328</ele>
        <time>2016-07-24T10:16:56.000Z</time>
      </trkpt>
      <trkpt lat="47.51252" lon="6.77791">
        <ele>334</ele>
        <time>2016-07-24T10:16:58.000Z</time>
      </trkpt>
      <trkpt lat="47.51253" lon="6.77791">
        <ele>334</ele>
        <time>2016-07-24T10:16:59.000Z</time>
      </trkpt>
      <trkpt lat="47.51257" lon="6.7779">
        <ele>334</ele>
        <time>2016-07-24T10:17:01.000Z</time>
      </trkpt>
      <trkpt lat="47.51259" lon="6.77789">
        <ele>334</ele>
        <time>2016-07-24T10:17:02.000Z</time>
      </trkpt>
      <trkpt lat="47.51261" lon="6.7779">
        <ele>334</ele>
        <time>2016-07-24T10:17:03.000Z</time>
      </trkpt>
      <trkpt lat="47.51264" lon="6.7779">
        <ele>334</ele>
        <time>2016-07-24T10:17:04.000Z</time>
      </trkpt>
      <trkpt lat="47.51267" lon="6.7779">
        <ele>334</ele>
        <time>2016-07-24T10:17:05.000Z</time>
      </trkpt>
      <trkpt lat="47.51269" lon="6.7779">
        <ele>335</ele>
        <time>2016-07-24T10:17:06.000Z</time>
      </trkpt>
      <trkpt lat="47.51272" lon="6.77787">
        <ele>335</ele>
        <time>2016-07-24T10:17:08.000Z</time>
      </trkpt>
      <trkpt lat="47.51273" lon="6.77786">
        <ele>335</ele>
        <time>2016-07-24T10:17:09.000Z</time>
      </trkpt>
      <trkpt lat="47.51275" lon="6.77785">
        <ele>335</ele>
        <time>2016-07-24T10:17:11.000Z</time>
      </trkpt>
      <trkpt lat="47.51277" lon="6.77784">
        <ele>335</ele>
        <time>2016-07-24T10:17:12.000Z</time>
      </trkpt>
      <trkpt lat="47.51282" lon="6.77784">
        <ele>335</ele>
        <time>2016-07-24T10:17:14.000Z</time>
      </trkpt>
      <trkpt lat="47.51284" lon="6.77785">
        <ele>336</ele>
        <time>2016-07-24T10:17:15.000Z</time>
      </trkpt>
      <trkpt lat="47.51288" lon="6.77785">
        <ele>336</ele>
        <time>2016-07-24T10:17:17.000Z</time>
      </trkpt>
      <trkpt lat="47.5129" lon="6.77785">
        <ele>336</ele>
        <time>2016-07-24T10:17:18.000Z</time>
      </trkpt>
      <trkpt lat="47.51294" lon="6.77783">
        <ele>336</ele>
        <time>2016-07-24T10:17:22.000Z</time>
      </trkpt>
      <trkpt lat="47.51295" lon="6.77783">
        <ele>337</ele>
        <time>2016-07-24T10:17:23.000Z</time>
      </trkpt>
      <trkpt lat="47.51298" lon="6.77782">
        <ele>337</ele>
        <time>2016-07-24T10:17:25.000Z</time>
      </trkpt>
      <trkpt lat="47.513" lon="6.77782">
        <ele>337</ele>
        <time>2016-07-24T10:17:26.000Z</time>
      </trkpt>
      <trkpt lat="47.51303" lon="6.7778">
        <ele>337</ele>
        <time>2016-07-24T10:17:28.000Z</time>
      </trkpt>
      <trkpt lat="47.51305" lon="6.7778">
        <ele>337</ele>
        <time>2016-07-24T10:17:29.000Z</time>
      </trkpt>
      <trkpt lat="47.51308" lon="6.77779">
        <ele>338</ele>
        <time>2016-07-24T10:17:31.000Z</time>
      </trkpt>
      <trkpt lat="47.5131" lon="6.77779">
        <ele>338</ele>
        <time>2016-07-24T10:17:32.000Z</time>
      </trkpt>
      <trkpt lat="47.51314" lon="6.77779">
        <ele>338</ele>
        <time>2016-07-24T10:17:34.000Z</time>
      </trkpt>
      <trkpt lat="47.51316" lon="6.77779">
        <ele>338</ele>
        <time>2016-07-24T10:17:35.000Z</time>
      </trkpt>
      <trkpt lat="47.51319" lon="6.77781">
        <ele>338</ele>
        <time>2016-07-24T10:17:37.000Z</time>
      </trkpt>
      <trkpt lat="47.5132" lon="6.77783">
        <ele>338</ele>
        <time>2016-07-24T10:17:38.000Z</time>
      </trkpt>
      <trkpt lat="47.51323" lon="6.77786">
        <ele>338</ele>
        <time>2016-07-24T10:17:40.000Z</time>
      </trkpt>
      <trkpt lat="47.51325" lon="6.77788">
        <ele>339</ele>
        <time>2016-07-24T10:17:41.000Z</time>
      </trkpt>
      <trkpt lat="47.51327" lon="6.77788">
        <ele>339</ele>
        <time>2016-07-24T10:17:42.000Z</time>
      </trkpt>
      <trkpt lat="47.5133" lon="6.77789">
        <ele>339</ele>
        <time>2016-07-24T10:17:43.000Z</time>
      </trkpt>
      <trkpt lat="47.51332" lon="6.77788">
        <ele>339</ele>
        <time>2016-07-24T10:17:44.000Z</time>
      </trkpt>
      <trkpt lat="47.51334" lon="6.77787">
        <ele>348</ele>
        <time>2016-07-24T10:17:45.000Z</time>
      </trkpt>
      <trkpt lat="47.51338" lon="6.77785">
        <ele>348</ele>
        <time>2016-07-24T10:17:47.000Z</time>
      </trkpt>
      <trkpt lat="47.5134" lon="6.77784">
        <ele>348</ele>
        <time>2016-07-24T10:17:48.000Z</time>
      </trkpt>
      <trkpt lat="47.51343" lon="6.77781">
        <ele>348</ele>
        <time>2016-07-24T10:17:50.000Z</time>
      </trkpt>
      <trkpt lat="47.51344" lon="6.7778">
        <ele>348</ele>
        <time>2016-07-24T10:17:51.000Z</time>
      </trkpt>
      <trkpt lat="47.51348" lon="6.77778">
        <ele>349</ele>
        <time>2016-07-24T10:17:53.000Z</time>
      </trkpt>
      <trkpt lat="47.51349" lon="6.77777">
        <ele>349</ele>
        <time>2016-07-24T10:17:54.000Z</time>
      </trkpt>
      <trkpt lat="47.51353" lon="6.77776">
        <ele>349</ele>
        <time>2016-07-24T10:17:58.000Z</time>
      </trkpt>
      <trkpt lat="47.51354" lon="6.77776">
        <ele>349</ele>
        <time>2016-07-24T10:17:59.000Z</time>
      </trkpt>
      <trkpt lat="47.51357" lon="6.77774">
        <ele>349</ele>
        <time>2016-07-24T10:18:01.000Z</time>
      </trkpt>
      <trkpt lat="47.51359" lon="6.77773">
        <ele>349</ele>
        <time>2016-07-24T10:18:02.000Z</time>
      </trkpt>
      <trkpt lat="47.51362" lon="6.77771">
        <ele>350</ele>
        <time>2016-07-24T10:18:04.000Z</time>
      </trkpt>
      <trkpt lat="47.51364" lon="6.77771">
        <ele>350</ele>
        <time>2016-07-24T10:18:05.000Z</time>
      </trkpt>
      <trkpt lat="47.51367" lon="6.77769">
        <ele>350</ele>
        <time>2016-07-24T10:18:07.000Z</time>
      </trkpt>
      <trkpt lat="47.51369" lon="6.77768">
        <ele>350</ele>
        <time>2016-07-24T10:18:08.000Z</time>
      </trkpt>
      <trkpt lat="47.51373" lon="6.77766">
        <ele>351</ele>
        <time>2016-07-24T10:18:10.000Z</time>
      </trkpt>
      <trkpt lat="47.51374" lon="6.77765">
        <ele>351</ele>
        <time>2016-07-24T10:18:11.000Z</time>
      </trkpt>
      <trkpt lat="47.51378" lon="6.77763">
        <ele>351</ele>
        <time>2016-07-24T10:18:13.000Z</time>
      </trkpt>
      <trkpt lat="47.51379" lon="6.77762">
        <ele>351</ele>
        <time>2016-07-24T10:18:14.000Z</time>
      </trkpt>
      <trkpt lat="47.51383" lon="6.77759">
        <ele>352</ele>
        <time>2016-07-24T10:18:16.000Z</time>
      </trkpt>
      <trkpt lat="47.51385" lon="6.77758">
        <ele>352</ele>
        <time>2016-07-24T10:18:17.000Z</time>
      </trkpt>
      <trkpt lat="47.51389" lon="6.77756">
        <ele>352</ele>
        <time>2016-07-24T10:18:19.000Z</time>
      </trkpt>
      <trkpt lat="47.51391" lon="6.77755">
        <ele>353</ele>
        <time>2016-07-24T10:18:20.000Z</time>
      </trkpt>
      <trkpt lat="47.51394" lon="6.77752">
        <ele>353</ele>
        <time>2016-07-24T10:18:22.000Z</time>
      </trkpt>
      <trkpt lat="47.51396" lon="6.77751">
        <ele>353</ele>
        <time>2016-07-24T10:18:23.000Z</time>
      </trkpt>
      <trkpt lat="47.514" lon="6.77752">
        <ele>354</ele>
        <time>2016-07-24T10:18:26.000Z</time>
      </trkpt>
      <trkpt lat="47.51402" lon="6.77752">
        <ele>354</ele>
        <time>2016-07-24T10:18:27.000Z</time>
      </trkpt>
      <trkpt lat="47.51405" lon="6.7775">
        <ele>354</ele>
        <time>2016-07-24T10:18:29.000Z</time>
      </trkpt>
      <trkpt lat="47.51407" lon="6.7775">
        <ele>356</ele>
        <time>2016-07-24T10:18:30.000Z</time>
      </trkpt>
      <trkpt lat="47.5141" lon="6.77747">
        <ele>356</ele>
        <time>2016-07-24T10:18:35.000Z</time>
      </trkpt>
      <trkpt lat="47.51411" lon="6.77747">
        <ele>356</ele>
        <time>2016-07-24T10:18:36.000Z</time>
      </trkpt>
      <trkpt lat="47.51415" lon="6.77743">
        <ele>356</ele>
        <time>2016-07-24T10:18:40.000Z</time>
      </trkpt>
      <trkpt lat="47.51416" lon="6.77743">
        <ele>356</ele>
        <time>2016-07-24T10:18:41.000Z</time>
      </trkpt>
      <trkpt lat="47.51419" lon="6.77741">
        <ele>359</ele>
        <time>2016-07-24T10:18:43.000Z</time>
      </trkpt>
      <trkpt lat="47.51421" lon="6.7774">
        <ele>360</ele>
        <time>2016-07-24T10:18:44.000Z</time>
      </trkpt>
      <trkpt lat="47.51424" lon="6.7774">
        <ele>360</ele>
        <time>2016-07-24T10:18:45.000Z</time>
      </trkpt>
      <trkpt lat="47.51426" lon="6.77739">
        <ele>361</ele>
        <time>2016-07-24T10:18:46.000Z</time>
      </trkpt>
      <trkpt lat="47.51429" lon="6.77739">
        <ele>361</ele>
        <time>2016-07-24T10:18:48.000Z</time>
      </trkpt>
      <trkpt lat="47.51431" lon="6.77738">
        <ele>362</ele>
        <time>2016-07-24T10:18:49.000Z</time>
      </trkpt>
      <trkpt lat="47.51434" lon="6.77738">
        <ele>362</ele>
        <time>2016-07-24T10:18:52.000Z</time>
      </trkpt>
      <trkpt lat="47.51436" lon="6.77738">
        <ele>362</ele>
        <time>2016-07-24T10:18:53.000Z</time>
      </trkpt>
      <trkpt lat="47.51439" lon="6.77737">
        <ele>363</ele>
        <time>2016-07-24T10:18:55.000Z</time>
      </trkpt>
      <trkpt lat="47.5144" lon="6.77737">
        <ele>363</ele>
        <time>2016-07-24T10:18:56.000Z</time>
      </trkpt>
      <trkpt lat="47.51444" lon="6.77736">
        <ele>364</ele>
        <time>2016-07-24T10:18:59.000Z</time>
      </trkpt>
      <trkpt lat="47.51445" lon="6.77737">
        <ele>364</ele>
        <time>2016-07-24T10:19:00.000Z</time>
      </trkpt>
      <trkpt lat="47.51448" lon="6.77737">
        <ele>364</ele>
        <time>2016-07-24T10:19:02.000Z</time>
      </trkpt>
      <trkpt lat="47.5145" lon="6.77737">
        <ele>364</ele>
        <time>2016-07-24T10:19:03.000Z</time>
      </trkpt>
      <trkpt lat="47.51454" lon="6.77736">
        <ele>364</ele>
        <time>2016-07-24T10:19:05.000Z</time>
      </trkpt>
      <trkpt lat="47.51456" lon="6.77736">
        <ele>365</ele>
        <time>2016-07-24T10:19:06.000Z</time>
      </trkpt>
      <trkpt lat="47.51459" lon="6.77735">
        <ele>365</ele>
        <time>2016-07-24T10:19:07.000Z</time>
      </trkpt>
      <trkpt lat="47.51461" lon="6.77735">
        <ele>365</ele>
        <time>2016-07-24T10:19:08.000Z</time>
      </trkpt>
      <trkpt lat="47.51465" lon="6.77734">
        <ele>365</ele>
        <time>2016-07-24T10:19:10.000Z</time>
      </trkpt>
      <trkpt lat="47.51467" lon="6.77734">
        <ele>365</ele>
        <time>2016-07-24T10:19:11.000Z</time>
      </trkpt>
      <trkpt lat="47.51471" lon="6.77733">
        <ele>365</ele>
        <time>2016-07-24T10:19:13.000Z</time>
      </trkpt>
      <trkpt lat="47.51472" lon="6.77734">
        <ele>365</ele>
        <time>2016-07-24T10:19:14.000Z</time>
      </trkpt>
      <trkpt lat="47.51477" lon="6.77735">
        <ele>366</ele>
        <time>2016-07-24T10:19:17.000Z</time>
      </trkpt>
      <trkpt lat="47.51478" lon="6.77735">
        <ele>366</ele>
        <time>2016-07-24T10:19:18.000Z</time>
      </trkpt>
      <trkpt lat="47.51482" lon="6.77736">
        <ele>366</ele>
        <time>2016-07-24T10:19:23.000Z</time>
      </trkpt>
      <trkpt lat="47.51484" lon="6.77736">
        <ele>366</ele>
        <time>2016-07-24T10:19:24.000Z</time>
      </trkpt>
      <trkpt lat="47.51487" lon="6.77734">
        <ele>366</ele>
        <time>2016-07-24T10:19:26.000Z</time>
      </trkpt>
      <trkpt lat="47.51489" lon="6.77733">
        <ele>366</ele>
        <time>2016-07-24T10:19:27.000Z</time>
      </trkpt>
      <trkpt lat="47.51493" lon="6.77731">
        <ele>366</ele>
        <time>2016-07-24T10:19:29.000Z</time>
      </trkpt>
      <trkpt lat="47.51495" lon="6.77731">
        <ele>366</ele>
        <time>2016-07-24T10:19:30.000Z</time>
      </trkpt>
      <trkpt lat="47.51499" lon="6.7773">
        <ele>366</ele>
        <time>2016-07-24T10:19:32.000Z</time>
      </trkpt>
      <trkpt lat="47.515" lon="6.77729">
        <ele>370</ele>
        <time>2016-07-24T10:19:33.000Z</time>
      </trkpt>
      <trkpt lat="47.51503" lon="6.77731">
        <ele>370</ele>
        <time>2016-07-24T10:19:35.000Z</time>
      </trkpt>
      <trkpt lat="47.51504" lon="6.77732">
        <ele>370</ele>
        <time>2016-07-24T10:19:36.000Z</time>
      </trkpt>
      <trkpt lat="47.51508" lon="6.77731">
        <ele>370</ele>
        <time>2016-07-24T10:19:39.000Z</time>
      </trkpt>
      <trkpt lat="47.5151" lon="6.7773">
        <ele>370</ele>
        <time>2016-07-24T10:19:40.000Z</time>
      </trkpt>
      <trkpt lat="47.51514" lon="6.77729">
        <ele>371</ele>
        <time>2016-07-24T10:19:43.000Z</time>
      </trkpt>
      <trkpt lat="47.51516" lon="6.77729">
        <ele>371</ele>
        <time>2016-07-24T10:19:44.000Z</time>
      </trkpt>
      <trkpt lat="47.51518" lon="6.77728">
        <ele>371</ele>
        <time>2016-07-24T10:19:46.000Z</time>
      </trkpt>
      <trkpt lat="47.5152" lon="6.77727">
        <ele>371</ele>
        <time>2016-07-24T10:19:47.000Z</time>
      </trkpt>
      <trkpt lat="47.51523" lon="6.77725">
        <ele>372</ele>
        <time>2016-07-24T10:19:49.000Z</time>
      </trkpt>
      <trkpt lat="47.51525" lon="6.77725">
        <ele>372</ele>
        <time>2016-07-24T10:19:50.000Z</time>
      </trkpt>
      <trkpt lat="47.51529" lon="6.77726">
        <ele>372</ele>
        <time>2016-07-24T10:19:53.000Z</time>
      </trkpt>
      <trkpt lat="47.5153" lon="6.77727">
        <ele>372</ele>
        <time>2016-07-24T10:19:54.000Z</time>
      </trkpt>
      <trkpt lat="47.51533" lon="6.7773">
        <ele>372</ele>
        <time>2016-07-24T10:19:57.000Z</time>
      </trkpt>
      <trkpt lat="47.51534" lon="6.7773">
        <ele>372</ele>
        <time>2016-07-24T10:19:58.000Z</time>
      </trkpt>
      <trkpt lat="47.51537" lon="6.77731">
        <ele>373</ele>
        <time>2016-07-24T10:20:00.000Z</time>
      </trkpt>
      <trkpt lat="47.51539" lon="6.77731">
        <ele>373</ele>
        <time>2016-07-24T10:20:01.000Z</time>
      </trkpt>
      <trkpt lat="47.51543" lon="6.77731">
        <ele>373</ele>
        <time>2016-07-24T10:20:03.000Z</time>
      </trkpt>
      <trkpt lat="47.51545" lon="6.77731">
        <ele>373</ele>
        <time>2016-07-24T10:20:04.000Z</time>
      </trkpt>
      <trkpt lat="47.51548" lon="6.77731">
        <ele>373</ele>
        <time>2016-07-24T10:20:05.000Z</time>
      </trkpt>
      <trkpt lat="47.5155" lon="6.77732">
        <ele>374</ele>
        <time>2016-07-24T10:20:06.000Z</time>
      </trkpt>
      <trkpt lat="47.51554" lon="6.77732">
        <ele>374</ele>
        <time>2016-07-24T10:20:08.000Z</time>
      </trkpt>
      <trkpt lat="47.51556" lon="6.77733">
        <ele>374</ele>
        <time>2016-07-24T10:20:09.000Z</time>
      </trkpt>
      <trkpt lat="47.51559" lon="6.77734">
        <ele>374</ele>
        <time>2016-07-24T10:20:11.000Z</time>
      </trkpt>
      <trkpt lat="47.51561" lon="6.77735">
        <ele>374</ele>
        <time>2016-07-24T10:20:12.000Z</time>
      </trkpt>
      <trkpt lat="47.51563" lon="6.77737">
        <ele>374</ele>
        <time>2016-07-24T10:20:14.000Z</time>
      </trkpt>
      <trkpt lat="47.51565" lon="6.77737">
        <ele>374</ele>
        <time>2016-07-24T10:20:15.000Z</time>
      </trkpt>
      <trkpt lat="47.51569" lon="6.77739">
        <ele>375</ele>
        <time>2016-07-24T10:20:18.000Z</time>
      </trkpt>
      <trkpt lat="47.5157" lon="6.7774">
        <ele>375</ele>
        <time>2016-07-24T10:20:19.000Z</time>
      </trkpt>
      <trkpt lat="47.51574" lon="6.7774">
        <ele>375</ele>
        <time>2016-07-24T10:20:22.000Z</time>
      </trkpt>
      <trkpt lat="47.51575" lon="6.77741">
        <ele>375</ele>
        <time>2016-07-24T10:20:23.000Z</time>
      </trkpt>
      <trkpt lat="47.51578" lon="6.77744">
        <ele>375</ele>
        <time>2016-07-24T10:20:26.000Z</time>
      </trkpt>
      <trkpt lat="47.51579" lon="6.77744">
        <ele>375</ele>
        <time>2016-07-24T10:20:27.000Z</time>
      </trkpt>
      <trkpt lat="47.51584" lon="6.77742">
        <ele>378</ele>
        <time>2016-07-24T10:20:31.000Z</time>
      </trkpt>
      <trkpt lat="47.51586" lon="6.77743">
        <ele>377</ele>
        <time>2016-07-24T10:20:32.000Z</time>
      </trkpt>
      <trkpt lat="47.51587" lon="6.77745">
        <ele>377</ele>
        <time>2016-07-24T10:20:33.000Z</time>
      </trkpt>
      <trkpt lat="47.51589" lon="6.77748">
        <ele>377</ele>
        <time>2016-07-24T10:20:34.000Z</time>
      </trkpt>
      <trkpt lat="47.51592" lon="6.77752">
        <ele>378</ele>
        <time>2016-07-24T10:20:36.000Z</time>
      </trkpt>
      <trkpt lat="47.51593" lon="6.77754">
        <ele>378</ele>
        <time>2016-07-24T10:20:37.000Z</time>
      </trkpt>
      <trkpt lat="47.51596" lon="6.77756">
        <ele>379</ele>
        <time>2016-07-24T10:20:39.000Z</time>
      </trkpt>
      <trkpt lat="47.51598" lon="6.77756">
        <ele>379</ele>
        <time>2016-07-24T10:20:40.000Z</time>
      </trkpt>
      <trkpt lat="47.51602" lon="6.77756">
        <ele>380</ele>
        <time>2016-07-24T10:20:43.000Z</time>
      </trkpt>
      <trkpt lat="47.51603" lon="6.77756">
        <ele>380</ele>
        <time>2016-07-24T10:20:44.000Z</time>
      </trkpt>
      <trkpt lat="47.51606" lon="6.77756">
        <ele>380</ele>
        <time>2016-07-24T10:20:46.000Z</time>
      </trkpt>
      <trkpt lat="47.51608" lon="6.77757">
        <ele>380</ele>
        <time>2016-07-24T10:20:47.000Z</time>
      </trkpt>
      <trkpt lat="47.51611" lon="6.77757">
        <ele>380</ele>
        <time>2016-07-24T10:20:49.000Z</time>
      </trkpt>
      <trkpt lat="47.51612" lon="6.77756">
        <ele>381</ele>
        <time>2016-07-24T10:20:50.000Z</time>
      </trkpt>
      <trkpt lat="47.51617" lon="6.77756">
        <ele>381</ele>
        <time>2016-07-24T10:20:54.000Z</time>
      </trkpt>
      <trkpt lat="47.51618" lon="6.77757">
        <ele>381</ele>
        <time>2016-07-24T10:20:55.000Z</time>
      </trkpt>
      <trkpt lat="47.51621" lon="6.77758">
        <ele>381</ele>
        <time>2016-07-24T10:20:59.000Z</time>
      </trkpt>
      <trkpt lat="47.51623" lon="6.77758">
        <ele>381</ele>
        <time>2016-07-24T10:21:00.000Z</time>
      </trkpt>
      <trkpt lat="47.51626" lon="6.77758">
        <ele>382</ele>
        <time>2016-07-24T10:21:02.000Z</time>
      </trkpt>
      <trkpt lat="47.51628" lon="6.77758">
        <ele>382</ele>
        <time>2016-07-24T10:21:03.000Z</time>
      </trkpt>
      <trkpt lat="47.51631" lon="6.7776">
        <ele>382</ele>
        <time>2016-07-24T10:21:05.000Z</time>
      </trkpt>
      <trkpt lat="47.51632" lon="6.77761">
        <ele>382</ele>
        <time>2016-07-24T10:21:06.000Z</time>
      </trkpt>
      <trkpt lat="47.51636" lon="6.77763">
        <ele>382</ele>
        <time>2016-07-24T10:21:08.000Z</time>
      </trkpt>
      <trkpt lat="47.51638" lon="6.77763">
        <ele>382</ele>
        <time>2016-07-24T10:21:09.000Z</time>
      </trkpt>
      <trkpt lat="47.5164" lon="6.77764">
        <ele>382</ele>
        <time>2016-07-24T10:21:10.000Z</time>
      </trkpt>
      <trkpt lat="47.51642" lon="6.77764">
        <ele>382</ele>
        <time>2016-07-24T10:21:11.000Z</time>
      </trkpt>
      <trkpt lat="47.51644" lon="6.77764">
        <ele>382</ele>
        <time>2016-07-24T10:21:12.000Z</time>
      </trkpt>
      <trkpt lat="47.51648" lon="6.77767">
        <ele>383</ele>
        <time>2016-07-24T10:21:14.000Z</time>
      </trkpt>
      <trkpt lat="47.51651" lon="6.7777">
        <ele>383</ele>
        <time>2016-07-24T10:21:16.000Z</time>
      </trkpt>
      <trkpt lat="47.51653" lon="6.7777">
        <ele>383</ele>
        <time>2016-07-24T10:21:17.000Z</time>
      </trkpt>
      <trkpt lat="47.51656" lon="6.77772">
        <ele>383</ele>
        <time>2016-07-24T10:21:19.000Z</time>
      </trkpt>
      <trkpt lat="47.51658" lon="6.77771">
        <ele>383</ele>
        <time>2016-07-24T10:21:20.000Z</time>
      </trkpt>
      <trkpt lat="47.5166" lon="6.77771">
        <ele>383</ele>
        <time>2016-07-24T10:21:21.000Z</time>
      </trkpt>
      <trkpt lat="47.51663" lon="6.7777">
        <ele>383</ele>
        <time>2016-07-24T10:21:22.000Z</time>
      </trkpt>
      <trkpt lat="47.51665" lon="6.7777">
        <ele>383</ele>
        <time>2016-07-24T10:21:23.000Z</time>
      </trkpt>
      <trkpt lat="47.51667" lon="6.7777">
        <ele>385</ele>
        <time>2016-07-24T10:21:24.000Z</time>
      </trkpt>
      <trkpt lat="47.5167" lon="6.77771">
        <ele>385</ele>
        <time>2016-07-24T10:21:25.000Z</time>
      </trkpt>
      <trkpt lat="47.51672" lon="6.77771">
        <ele>385</ele>
        <time>2016-07-24T10:21:26.000Z</time>
      </trkpt>
      <trkpt lat="47.51674" lon="6.77771">
        <ele>385</ele>
        <time>2016-07-24T10:21:27.000Z</time>
      </trkpt>
      <trkpt lat="47.51676" lon="6.77771">
        <ele>385</ele>
        <time>2016-07-24T10:21:28.000Z</time>
      </trkpt>
      <trkpt lat="47.51679" lon="6.77772">
        <ele>385</ele>
        <time>2016-07-24T10:21:29.000Z</time>
      </trkpt>
      <trkpt lat="47.51681" lon="6.77772">
        <ele>385</ele>
        <time>2016-07-24T10:21:30.000Z</time>
      </trkpt>
      <trkpt lat="47.51684" lon="6.77772">
        <ele>385</ele>
        <time>2016-07-24T10:21:31.000Z</time>
      </trkpt>
      <trkpt lat="47.51686" lon="6.77772">
        <ele>385</ele>
        <time>2016-07-24T10:21:32.000Z</time>
      </trkpt>
      <trkpt lat="47.51689" lon="6.77771">
        <ele>385</ele>
        <time>2016-07-24T10:21:33.000Z</time>
      </trkpt>
      <trkpt lat="47.51691" lon="6.77769">
        <ele>385</ele>
        <time>2016-07-24T10:21:34.000Z</time>
      </trkpt>
      <trkpt lat="47.51693" lon="6.77767">
        <ele>385</ele>
        <time>2016-07-24T10:21:35.000Z</time>
      </trkpt>
      <trkpt lat="47.51695" lon="6.77765">
        <ele>385</ele>
        <time>2016-07-24T10:21:36.000Z</time>
      </trkpt>
      <trkpt lat="47.51697" lon="6.77763">
        <ele>386</ele>
        <time>2016-07-24T10:21:37.000Z</time>
      </trkpt>
      <trkpt lat="47.51699" lon="6.7776">
        <ele>386</ele>
        <time>2016-07-24T10:21:38.000Z</time>
      </trkpt>
      <trkpt lat="47.517" lon="6.77757">
        <ele>386</ele>
        <time>2016-07-24T10:21:39.000Z</time>
      </trkpt>
      <trkpt lat="47.517" lon="6.77753">
        <ele>386</ele>
        <time>2016-07-24T10:21:40.000Z</time>
      </trkpt>
      <trkpt lat="47.51701" lon="6.77749">
        <ele>387</ele>
        <time>2016-07-24T10:21:41.000Z</time>
      </trkpt>
      <trkpt lat="47.51701" lon="6.77745">
        <ele>387</ele>
        <time>2016-07-24T10:21:42.000Z</time>
      </trkpt>
      <trkpt lat="47.51702" lon="6.77742">
        <ele>387</ele>
        <time>2016-07-24T10:21:43.000Z</time>
      </trkpt>
      <trkpt lat="47.51702" lon="6.77738">
        <ele>387</ele>
        <time>2016-07-24T10:21:44.000Z</time>
      </trkpt>
      <trkpt lat="47.51703" lon="6.77734">
        <ele>387</ele>
        <time>2016-07-24T10:21:46.000Z</time>
      </trkpt>
      <trkpt lat="47.51703" lon="6.77732">
        <ele>387</ele>
        <time>2016-07-24T10:21:47.000Z</time>
      </trkpt>
      <trkpt lat="47.51706" lon="6.77728">
        <ele>387</ele>
        <time>2016-07-24T10:21:49.000Z</time>
      </trkpt>
      <trkpt lat="47.51708" lon="6.77725">
        <ele>387</ele>
        <time>2016-07-24T10:21:50.000Z</time>
      </trkpt>
      <trkpt lat="47.51709" lon="6.77721">
        <ele>387</ele>
        <time>2016-07-24T10:21:51.000Z</time>
      </trkpt>
      <trkpt lat="47.5171" lon="6.77717">
        <ele>387</ele>
        <time>2016-07-24T10:21:52.000Z</time>
      </trkpt>
      <trkpt lat="47.51711" lon="6.77713">
        <ele>387</ele>
        <time>2016-07-24T10:21:53.000Z</time>
      </trkpt>
      <trkpt lat="47.51711" lon="6.77709">
        <ele>388</ele>
        <time>2016-07-24T10:21:54.000Z</time>
      </trkpt>
      <trkpt lat="47.51712" lon="6.77703">
        <ele>388</ele>
        <time>2016-07-24T10:21:56.000Z</time>
      </trkpt>
      <trkpt lat="47.51712" lon="6.777">
        <ele>388</ele>
        <time>2016-07-24T10:21:57.000Z</time>
      </trkpt>
      <trkpt lat="47.51712" lon="6.77696">
        <ele>388</ele>
        <time>2016-07-24T10:21:58.000Z</time>
      </trkpt>
      <trkpt lat="47.51712" lon="6.77691">
        <ele>388</ele>
        <time>2016-07-24T10:21:59.000Z</time>
      </trkpt>
      <trkpt lat="47.51712" lon="6.77685">
        <ele>388</ele>
        <time>2016-07-24T10:22:00.000Z</time>
      </trkpt>
      <trkpt lat="47.51711" lon="6.7768">
        <ele>388</ele>
        <time>2016-07-24T10:22:01.000Z</time>
      </trkpt>
      <trkpt lat="47.51711" lon="6.77674">
        <ele>388</ele>
        <time>2016-07-24T10:22:02.000Z</time>
      </trkpt>
      <trkpt lat="47.51711" lon="6.77669">
        <ele>388</ele>
        <time>2016-07-24T10:22:03.000Z</time>
      </trkpt>
      <trkpt lat="47.51711" lon="6.77664">
        <ele>390</ele>
        <time>2016-07-24T10:22:04.000Z</time>
      </trkpt>
      <trkpt lat="47.51712" lon="6.77659">
        <ele>390</ele>
        <time>2016-07-24T10:22:05.000Z</time>
      </trkpt>
      <trkpt lat="47.51712" lon="6.77654">
        <ele>390</ele>
        <time>2016-07-24T10:22:06.000Z</time>
      </trkpt>
      <trkpt lat="47.51713" lon="6.7765">
        <ele>390</ele>
        <time>2016-07-24T10:22:07.000Z</time>
      </trkpt>
      <trkpt lat="47.51713" lon="6.77646">
        <ele>390</ele>
        <time>2016-07-24T10:22:08.000Z</time>
      </trkpt>
      <trkpt lat="47.51713" lon="6.77642">
        <ele>390</ele>
        <time>2016-07-24T10:22:09.000Z</time>
      </trkpt>
      <trkpt lat="47.51714" lon="6.77639">
        <ele>390</ele>
        <time>2016-07-24T10:22:10.000Z</time>
      </trkpt>
      <trkpt lat="47.51714" lon="6.77635">
        <ele>390</ele>
        <time>2016-07-24T10:22:11.000Z</time>
      </trkpt>
      <trkpt lat="47.51714" lon="6.7763">
        <ele>390</ele>
        <time>2016-07-24T10:22:12.000Z</time>
      </trkpt>
      <trkpt lat="47.51714" lon="6.77626">
        <ele>390</ele>
        <time>2016-07-24T10:22:13.000Z</time>
      </trkpt>
      <trkpt lat="47.51714" lon="6.77623">
        <ele>390</ele>
        <time>2016-07-24T10:22:14.000Z</time>
      </trkpt>
      <trkpt lat="47.51714" lon="6.77619">
        <ele>390</ele>
        <time>2016-07-24T10:22:15.000Z</time>
      </trkpt>
      <trkpt lat="47.51714" lon="6.77615">
        <ele>390</ele>
        <time>2016-07-24T10:22:16.000Z</time>
      </trkpt>
      <trkpt lat="47.51714" lon="6.7761">
        <ele>390</ele>
        <time>2016-07-24T10:22:17.000Z</time>
      </trkpt>
      <trkpt lat="47.51713" lon="6.77606">
        <ele>390</ele>
        <time>2016-07-24T10:22:18.000Z</time>
      </trkpt>
      <trkpt lat="47.51713" lon="6.77602">
        <ele>390</ele>
        <time>2016-07-24T10:22:19.000Z</time>
      </trkpt>
      <trkpt lat="47.51713" lon="6.77598">
        <ele>390</ele>
        <time>2016-07-24T10:22:20.000Z</time>
      </trkpt>
      <trkpt lat="47.51714" lon="6.77595">
        <ele>390</ele>
        <time>2016-07-24T10:22:21.000Z</time>
      </trkpt>
      <trkpt lat="47.51716" lon="6.77592">
        <ele>390</ele>
        <time>2016-07-24T10:22:22.000Z</time>
      </trkpt>
      <trkpt lat="47.51718" lon="6.7759">
        <ele>390</ele>
        <time>2016-07-24T10:22:23.000Z</time>
      </trkpt>
      <trkpt lat="47.5172" lon="6.77588">
        <ele>390</ele>
        <time>2016-07-24T10:22:24.000Z</time>
      </trkpt>
      <trkpt lat="47.51722" lon="6.77586">
        <ele>390</ele>
        <time>2016-07-24T10:22:25.000Z</time>
      </trkpt>
      <trkpt lat="47.51723" lon="6.7758">
        <ele>391</ele>
        <time>2016-07-24T10:22:27.000Z</time>
      </trkpt>
      <trkpt lat="47.51721" lon="6.77575">
        <ele>391</ele>
        <time>2016-07-24T10:22:28.000Z</time>
      </trkpt>
      <trkpt lat="47.5172" lon="6.7757">
        <ele>390</ele>
        <time>2016-07-24T10:22:29.000Z</time>
      </trkpt>
      <trkpt lat="47.51719" lon="6.77564">
        <ele>390</ele>
        <time>2016-07-24T10:22:30.000Z</time>
      </trkpt>
      <trkpt lat="47.5172" lon="6.77558">
        <ele>390</ele>
        <time>2016-07-24T10:22:31.000Z</time>
      </trkpt>
      <trkpt lat="47.51721" lon="6.77551">
        <ele>390</ele>
        <time>2016-07-24T10:22:32.000Z</time>
      </trkpt>
      <trkpt lat="47.51723" lon="6.77545">
        <ele>390</ele>
        <time>2016-07-24T10:22:33.000Z</time>
      </trkpt>
      <trkpt lat="47.51727" lon="6.77536">
        <ele>390</ele>
        <time>2016-07-24T10:22:34.000Z</time>
      </trkpt>
      <trkpt lat="47.51729" lon="6.77529">
        <ele>390</ele>
        <time>2016-07-24T10:22:35.000Z</time>
      </trkpt>
      <trkpt lat="47.51729" lon="6.77523">
        <ele>390</ele>
        <time>2016-07-24T10:22:36.000Z</time>
      </trkpt>
      <trkpt lat="47.5173" lon="6.77516">
        <ele>390</ele>
        <time>2016-07-24T10:22:37.000Z</time>
      </trkpt>
      <trkpt lat="47.51731" lon="6.77511">
        <ele>390</ele>
        <time>2016-07-24T10:22:38.000Z</time>
      </trkpt>
      <trkpt lat="47.51732" lon="6.77505">
        <ele>390</ele>
        <time>2016-07-24T10:22:39.000Z</time>
      </trkpt>
      <trkpt lat="47.51732" lon="6.77498">
        <ele>389</ele>
        <time>2016-07-24T10:22:40.000Z</time>
      </trkpt>
      <trkpt lat="47.51734" lon="6.77491">
        <ele>389</ele>
        <time>2016-07-24T10:22:41.000Z</time>
      </trkpt>
      <trkpt lat="47.51736" lon="6.77485">
        <ele>389</ele>
        <time>2016-07-24T10:22:42.000Z</time>
      </trkpt>
      <trkpt lat="47.51742" lon="6.77487">
        <ele>389</ele>
        <time>2016-07-24T10:22:43.000Z</time>
      </trkpt>
      <trkpt lat="47.51746" lon="6.77487">
        <ele>389</ele>
        <time>2016-07-24T10:22:44.000Z</time>
      </trkpt>
      <trkpt lat="47.5175" lon="6.77488">
        <ele>389</ele>
        <time>2016-07-24T10:22:45.000Z</time>
      </trkpt>
      <trkpt lat="47.51754" lon="6.77488">
        <ele>389</ele>
        <time>2016-07-24T10:22:46.000Z</time>
      </trkpt>
      <trkpt lat="47.51757" lon="6.77489">
        <ele>389</ele>
        <time>2016-07-24T10:22:47.000Z</time>
      </trkpt>
      <trkpt lat="47.51762" lon="6.77491">
        <ele>389</ele>
        <time>2016-07-24T10:22:48.000Z</time>
      </trkpt>
      <trkpt lat="47.51766" lon="6.7749">
        <ele>389</ele>
        <time>2016-07-24T10:22:49.000Z</time>
      </trkpt>
      <trkpt lat="47.5177" lon="6.77491">
        <ele>389</ele>
        <time>2016-07-24T10:22:50.000Z</time>
      </trkpt>
      <trkpt lat="47.51774" lon="6.77491">
        <ele>389</ele>
        <time>2016-07-24T10:22:51.000Z</time>
      </trkpt>
      <trkpt lat="47.51778" lon="6.77492">
        <ele>388</ele>
        <time>2016-07-24T10:22:52.000Z</time>
      </trkpt>
      <trkpt lat="47.51782" lon="6.77494">
        <ele>388</ele>
        <time>2016-07-24T10:22:53.000Z</time>
      </trkpt>
      <trkpt lat="47.51786" lon="6.77496">
        <ele>388</ele>
        <time>2016-07-24T10:22:54.000Z</time>
      </trkpt>
      <trkpt lat="47.51791" lon="6.775">
        <ele>388</ele>
        <time>2016-07-24T10:22:55.000Z</time>
      </trkpt>
      <trkpt lat="47.51794" lon="6.77503">
        <ele>389</ele>
        <time>2016-07-24T10:22:56.000Z</time>
      </trkpt>
      <trkpt lat="47.51799" lon="6.77501">
        <ele>389</ele>
        <time>2016-07-24T10:22:57.000Z</time>
      </trkpt>
      <trkpt lat="47.51802" lon="6.77502">
        <ele>389</ele>
        <time>2016-07-24T10:22:58.000Z</time>
      </trkpt>
      <trkpt lat="47.51806" lon="6.775">
        <ele>389</ele>
        <time>2016-07-24T10:22:59.000Z</time>
      </trkpt>
      <trkpt lat="47.51808" lon="6.77497">
        <ele>388</ele>
        <time>2016-07-24T10:23:00.000Z</time>
      </trkpt>
      <trkpt lat="47.51808" lon="6.77492">
        <ele>388</ele>
        <time>2016-07-24T10:23:01.000Z</time>
      </trkpt>
      <trkpt lat="47.51808" lon="6.77489">
        <ele>388</ele>
        <time>2016-07-24T10:23:02.000Z</time>
      </trkpt>
      <trkpt lat="47.51807" lon="6.77485">
        <ele>388</ele>
        <time>2016-07-24T10:23:03.000Z</time>
      </trkpt>
      <trkpt lat="47.51806" lon="6.77481">
        <ele>388</ele>
        <time>2016-07-24T10:23:04.000Z</time>
      </trkpt>
      <trkpt lat="47.51806" lon="6.77477">
        <ele>388</ele>
        <time>2016-07-24T10:23:05.000Z</time>
      </trkpt>
      <trkpt lat="47.51805" lon="6.77473">
        <ele>388</ele>
        <time>2016-07-24T10:23:06.000Z</time>
      </trkpt>
      <trkpt lat="47.51804" lon="6.7747">
        <ele>388</ele>
        <time>2016-07-24T10:23:07.000Z</time>
      </trkpt>
      <trkpt lat="47.51804" lon="6.77463">
        <ele>388</ele>
        <time>2016-07-24T10:23:09.000Z</time>
      </trkpt>
      <trkpt lat="47.51803" lon="6.77461">
        <ele>388</ele>
        <time>2016-07-24T10:23:10.000Z</time>
      </trkpt>
      <trkpt lat="47.51803" lon="6.77467">
        <ele>388</ele>
        <time>2016-07-24T10:24:05.000Z</time>
      </trkpt>
      <trkpt lat="47.51803" lon="6.77468">
        <ele>388</ele>
        <time>2016-07-24T10:24:06.000Z</time>
      </trkpt>
      <trkpt lat="47.51802" lon="6.77474">
        <ele>388</ele>
        <time>2016-07-24T10:24:18.000Z</time>
      </trkpt>
      <trkpt lat="47.51802" lon="6.77475">
        <ele>388</ele>
        <time>2016-07-24T10:24:19.000Z</time>
      </trkpt>
      <trkpt lat="47.51801" lon="6.7748">
        <ele>388</ele>
        <time>2016-07-24T10:24:36.000Z</time>
      </trkpt>
      <trkpt lat="47.51801" lon="6.77481">
        <ele>388</ele>
        <time>2016-07-24T10:24:37.000Z</time>
      </trkpt>
      <trkpt lat="47.51798" lon="6.77477">
        <ele>388</ele>
        <time>2016-07-24T10:25:36.000Z</time>
      </trkpt>
      <trkpt lat="47.51797" lon="6.77477">
        <ele>388</ele>
        <time>2016-07-24T10:25:37.000Z</time>
      </trkpt>
      <trkpt lat="47.51798" lon="6.77483">
        <ele>388</ele>
        <time>2016-07-24T10:25:52.000Z</time>
      </trkpt>
      <trkpt lat="47.51799" lon="6.77483">
        <ele>388</ele>
        <time>2016-07-24T10:25:53.000Z</time>
      </trkpt>
      <trkpt lat="47.51802" lon="6.77481">
        <ele>388</ele>
        <time>2016-07-24T10:25:59.000Z</time>
      </trkpt>
      <trkpt lat="47.51803" lon="6.7748">
        <ele>388</ele>
        <time>2016-07-24T10:26:00.000Z</time>
      </trkpt>
      <trkpt lat="47.51801" lon="6.77474">
        <ele>388</ele>
        <time>2016-07-24T10:26:09.000Z</time>
      </trkpt>
      <trkpt lat="47.51801" lon="6.77474">
        <ele>388</ele>
        <time>2016-07-24T10:26:10.000Z</time>
      </trkpt>
      <trkpt lat="47.51798" lon="6.77469">
        <ele>388</ele>
        <time>2016-07-24T10:26:20.000Z</time>
      </trkpt>
      <trkpt lat="47.51798" lon="6.77468">
        <ele>388</ele>
        <time>2016-07-24T10:26:21.000Z</time>
      </trkpt>
      <trkpt lat="47.51801" lon="6.77464">
        <ele>388</ele>
        <time>2016-07-24T10:26:33.000Z</time>
      </trkpt>
      <trkpt lat="47.51801" lon="6.77464">
        <ele>388</ele>
        <time>2016-07-24T10:26:34.000Z</time>
      </trkpt>
      <trkpt lat="47.51798" lon="6.77467">
        <ele>388</ele>
        <time>2016-07-24T10:27:00.000Z</time>
      </trkpt>
      <trkpt lat="47.51798" lon="6.77468">
        <ele>388</ele>
        <time>2016-07-24T10:27:01.000Z</time>
      </trkpt>
      <trkpt lat="47.51801" lon="6.77471">
        <ele>388</ele>
        <time>2016-07-24T10:27:22.000Z</time>
      </trkpt>
      <trkpt lat="47.51801" lon="6.77471">
        <ele>388</ele>
        <time>2016-07-24T10:27:23.000Z</time>
      </trkpt>
      <trkpt lat="47.51802" lon="6.77473">
        <ele>388</ele>
        <time>2016-07-24T10:28:15.000Z</time>
      </trkpt>
    </trkseg>
  </trk>
</gpx>